<?xml version="1.0" encoding="UTF-8" standalone="no" ?>
<gpx xmlns="http://www.topografix.com/GPX/1/1" xmlns:xsi="http://www.w3.org/2001/XMLSchema-instance" xsi:schemaLocation="http://www.topografix.com/GPX/1/1 http://www.topografix.com/GPX/1/1/gpx.xsd" version="1.1" creator="VisuGPX - https://www.visugpx.com">
  <metadata>
    <name>Rando VTT Smarves-Pictave 2022,Triple Boucles</name>
    <desc><![CDATA[☀🚴👍]]></desc>
  </metadata>
  <trk>
    <name><![CDATA[Rando VTT Smarves-Pictave 2022,Triple Boucles_1]]></name>
    <trkseg>
      <trkpt lat="46.50642" lon="0.36808">
        <ele>139</ele>
        <time>2022-09-11T06:17:03Z</time>
      </trkpt>
      <trkpt lat="46.50646" lon="0.36797">
        <ele>139</ele>
        <time>2022-09-11T06:17:11Z</time>
      </trkpt>
      <trkpt lat="46.50647" lon="0.36781">
        <ele>139</ele>
        <time>2022-09-11T06:17:17Z</time>
      </trkpt>
      <trkpt lat="46.50648" lon="0.36766">
        <ele>138.8</ele>
        <time>2022-09-11T06:17:25Z</time>
      </trkpt>
      <trkpt lat="46.50653" lon="0.36757">
        <ele>138.6</ele>
        <time>2022-09-11T06:17:31Z</time>
      </trkpt>
      <trkpt lat="46.50658" lon="0.36751">
        <ele>138.6</ele>
        <time>2022-09-11T06:17:35Z</time>
      </trkpt>
      <trkpt lat="46.50659" lon="0.36748">
        <ele>138.6</ele>
        <time>2022-09-11T06:17:36Z</time>
      </trkpt>
      <trkpt lat="46.50664" lon="0.36745">
        <ele>138.4</ele>
        <time>2022-09-11T06:17:38Z</time>
      </trkpt>
      <trkpt lat="46.5067" lon="0.36745">
        <ele>138.4</ele>
        <time>2022-09-11T06:17:40Z</time>
      </trkpt>
      <trkpt lat="46.50683" lon="0.36752">
        <ele>138.2</ele>
        <time>2022-09-11T06:17:45Z</time>
      </trkpt>
      <trkpt lat="46.50704" lon="0.36766">
        <ele>139</ele>
        <time>2022-09-11T06:17:52Z</time>
      </trkpt>
      <trkpt lat="46.50721" lon="0.36769">
        <ele>139</ele>
        <time>2022-09-11T06:17:57Z</time>
      </trkpt>
      <trkpt lat="46.50745" lon="0.36765">
        <ele>139.2</ele>
        <time>2022-09-11T06:18:04Z</time>
      </trkpt>
      <trkpt lat="46.50754" lon="0.36765">
        <ele>139</ele>
        <time>2022-09-11T06:18:06Z</time>
      </trkpt>
      <trkpt lat="46.50766" lon="0.36766">
        <ele>138.8</ele>
        <time>2022-09-11T06:18:09Z</time>
      </trkpt>
      <trkpt lat="46.50769" lon="0.36765">
        <ele>138.8</ele>
        <time>2022-09-11T06:18:10Z</time>
      </trkpt>
      <trkpt lat="46.50789" lon="0.36766">
        <ele>138.8</ele>
        <time>2022-09-11T06:18:15Z</time>
      </trkpt>
      <trkpt lat="46.50797" lon="0.36768">
        <ele>138.6</ele>
        <time>2022-09-11T06:18:17Z</time>
      </trkpt>
      <trkpt lat="46.50805" lon="0.36775">
        <ele>138.6</ele>
        <time>2022-09-11T06:18:19Z</time>
      </trkpt>
      <trkpt lat="46.50812" lon="0.36781">
        <ele>138.6</ele>
        <time>2022-09-11T06:18:21Z</time>
      </trkpt>
      <trkpt lat="46.50821" lon="0.36794">
        <ele>139</ele>
        <time>2022-09-11T06:18:24Z</time>
      </trkpt>
      <trkpt lat="46.50829" lon="0.36804">
        <ele>139.2</ele>
        <time>2022-09-11T06:18:27Z</time>
      </trkpt>
      <trkpt lat="46.50831" lon="0.36804">
        <ele>139.4</ele>
        <time>2022-09-11T06:18:28Z</time>
      </trkpt>
      <trkpt lat="46.50835" lon="0.36804">
        <ele>139.4</ele>
        <time>2022-09-11T06:18:29Z</time>
      </trkpt>
      <trkpt lat="46.50841" lon="0.36804">
        <ele>139.4</ele>
        <time>2022-09-11T06:18:31Z</time>
      </trkpt>
      <trkpt lat="46.5085" lon="0.36806">
        <ele>139.4</ele>
        <time>2022-09-11T06:18:34Z</time>
      </trkpt>
      <trkpt lat="46.50853" lon="0.36808">
        <ele>139.4</ele>
        <time>2022-09-11T06:18:35Z</time>
      </trkpt>
      <trkpt lat="46.50867" lon="0.36818">
        <ele>139.2</ele>
        <time>2022-09-11T06:18:39Z</time>
      </trkpt>
      <trkpt lat="46.50873" lon="0.36823">
        <ele>139.2</ele>
        <time>2022-09-11T06:18:41Z</time>
      </trkpt>
      <trkpt lat="46.50879" lon="0.3683">
        <ele>139.6</ele>
        <time>2022-09-11T06:18:43Z</time>
      </trkpt>
      <trkpt lat="46.50883" lon="0.36833">
        <ele>139.8</ele>
        <time>2022-09-11T06:18:44Z</time>
      </trkpt>
      <trkpt lat="46.50889" lon="0.36839">
        <ele>140.2</ele>
        <time>2022-09-11T06:18:46Z</time>
      </trkpt>
      <trkpt lat="46.50892" lon="0.36843">
        <ele>140.2</ele>
        <time>2022-09-11T06:18:47Z</time>
      </trkpt>
      <trkpt lat="46.50907" lon="0.36864">
        <ele>140.6</ele>
        <time>2022-09-11T06:18:51Z</time>
      </trkpt>
      <trkpt lat="46.50914" lon="0.36875">
        <ele>140.6</ele>
        <time>2022-09-11T06:18:53Z</time>
      </trkpt>
      <trkpt lat="46.50924" lon="0.36892">
        <ele>140.8</ele>
        <time>2022-09-11T06:18:56Z</time>
      </trkpt>
      <trkpt lat="46.50927" lon="0.36899">
        <ele>140.8</ele>
        <time>2022-09-11T06:18:57Z</time>
      </trkpt>
      <trkpt lat="46.50947" lon="0.36937">
        <ele>140.8</ele>
        <time>2022-09-11T06:19:03Z</time>
      </trkpt>
      <trkpt lat="46.50951" lon="0.36943">
        <ele>140.8</ele>
        <time>2022-09-11T06:19:04Z</time>
      </trkpt>
      <trkpt lat="46.50958" lon="0.36952">
        <ele>141</ele>
        <time>2022-09-11T06:19:06Z</time>
      </trkpt>
      <trkpt lat="46.50962" lon="0.36955">
        <ele>141</ele>
        <time>2022-09-11T06:19:07Z</time>
      </trkpt>
      <trkpt lat="46.50966" lon="0.36959">
        <ele>141</ele>
        <time>2022-09-11T06:19:08Z</time>
      </trkpt>
      <trkpt lat="46.50973" lon="0.36966">
        <ele>141</ele>
        <time>2022-09-11T06:19:10Z</time>
      </trkpt>
      <trkpt lat="46.50978" lon="0.36969">
        <ele>141.2</ele>
        <time>2022-09-11T06:19:11Z</time>
      </trkpt>
      <trkpt lat="46.50987" lon="0.36976">
        <ele>141.2</ele>
        <time>2022-09-11T06:19:13Z</time>
      </trkpt>
      <trkpt lat="46.50993" lon="0.36982">
        <ele>141.2</ele>
        <time>2022-09-11T06:19:14Z</time>
      </trkpt>
      <trkpt lat="46.51006" lon="0.36998">
        <ele>141.2</ele>
        <time>2022-09-11T06:19:17Z</time>
      </trkpt>
      <trkpt lat="46.5101" lon="0.37003">
        <ele>141.2</ele>
        <time>2022-09-11T06:19:18Z</time>
      </trkpt>
      <trkpt lat="46.51017" lon="0.37013">
        <ele>141.2</ele>
        <time>2022-09-11T06:19:20Z</time>
      </trkpt>
      <trkpt lat="46.51023" lon="0.37025">
        <ele>141</ele>
        <time>2022-09-11T06:19:22Z</time>
      </trkpt>
      <trkpt lat="46.51026" lon="0.37031">
        <ele>141</ele>
        <time>2022-09-11T06:19:23Z</time>
      </trkpt>
      <trkpt lat="46.51036" lon="0.37047">
        <ele>140.6</ele>
        <time>2022-09-11T06:19:26Z</time>
      </trkpt>
      <trkpt lat="46.51042" lon="0.37053">
        <ele>140.4</ele>
        <time>2022-09-11T06:19:28Z</time>
      </trkpt>
      <trkpt lat="46.51055" lon="0.37059">
        <ele>140.2</ele>
        <time>2022-09-11T06:19:32Z</time>
      </trkpt>
      <trkpt lat="46.51058" lon="0.37061">
        <ele>140.2</ele>
        <time>2022-09-11T06:19:33Z</time>
      </trkpt>
      <trkpt lat="46.51064" lon="0.37064">
        <ele>140.2</ele>
        <time>2022-09-11T06:19:35Z</time>
      </trkpt>
      <trkpt lat="46.51069" lon="0.37063">
        <ele>140.2</ele>
        <time>2022-09-11T06:19:37Z</time>
      </trkpt>
      <trkpt lat="46.51072" lon="0.37062">
        <ele>140.2</ele>
        <time>2022-09-11T06:19:38Z</time>
      </trkpt>
      <trkpt lat="46.51075" lon="0.37062">
        <ele>140.2</ele>
        <time>2022-09-11T06:19:39Z</time>
      </trkpt>
      <trkpt lat="46.51078" lon="0.37062">
        <ele>140.2</ele>
        <time>2022-09-11T06:19:40Z</time>
      </trkpt>
      <trkpt lat="46.51089" lon="0.3706">
        <ele>140</ele>
        <time>2022-09-11T06:19:43Z</time>
      </trkpt>
      <trkpt lat="46.51095" lon="0.37059">
        <ele>139.8</ele>
        <time>2022-09-11T06:19:45Z</time>
      </trkpt>
      <trkpt lat="46.511" lon="0.3706">
        <ele>139.4</ele>
        <time>2022-09-11T06:19:47Z</time>
      </trkpt>
      <trkpt lat="46.51103" lon="0.3706">
        <ele>139.2</ele>
        <time>2022-09-11T06:19:48Z</time>
      </trkpt>
      <trkpt lat="46.51109" lon="0.37056">
        <ele>138.8</ele>
        <time>2022-09-11T06:19:50Z</time>
      </trkpt>
      <trkpt lat="46.51111" lon="0.37048">
        <ele>138.6</ele>
        <time>2022-09-11T06:19:52Z</time>
      </trkpt>
      <trkpt lat="46.51115" lon="0.37028">
        <ele>138.8</ele>
        <time>2022-09-11T06:19:56Z</time>
      </trkpt>
      <trkpt lat="46.51117" lon="0.37024">
        <ele>138.8</ele>
        <time>2022-09-11T06:19:57Z</time>
      </trkpt>
      <trkpt lat="46.51118" lon="0.37022">
        <ele>139</ele>
        <time>2022-09-11T06:19:58Z</time>
      </trkpt>
      <trkpt lat="46.51123" lon="0.37021">
        <ele>139</ele>
        <time>2022-09-11T06:20:00Z</time>
      </trkpt>
      <trkpt lat="46.51126" lon="0.37021">
        <ele>139</ele>
        <time>2022-09-11T06:20:01Z</time>
      </trkpt>
      <trkpt lat="46.51136" lon="0.37019">
        <ele>137.8</ele>
        <time>2022-09-11T06:20:05Z</time>
      </trkpt>
      <trkpt lat="46.51145" lon="0.37017">
        <ele>137.4</ele>
        <time>2022-09-11T06:20:08Z</time>
      </trkpt>
      <trkpt lat="46.51149" lon="0.37014">
        <ele>137</ele>
        <time>2022-09-11T06:20:10Z</time>
      </trkpt>
      <trkpt lat="46.51153" lon="0.3701">
        <ele>136.8</ele>
        <time>2022-09-11T06:20:12Z</time>
      </trkpt>
      <trkpt lat="46.51156" lon="0.37006">
        <ele>136.6</ele>
        <time>2022-09-11T06:20:13Z</time>
      </trkpt>
      <trkpt lat="46.51159" lon="0.37003">
        <ele>136.6</ele>
        <time>2022-09-11T06:20:14Z</time>
      </trkpt>
      <trkpt lat="46.51168" lon="0.36994">
        <ele>136</ele>
        <time>2022-09-11T06:20:17Z</time>
      </trkpt>
      <trkpt lat="46.51177" lon="0.36986">
        <ele>136</ele>
        <time>2022-09-11T06:20:20Z</time>
      </trkpt>
      <trkpt lat="46.51187" lon="0.36982">
        <ele>135.8</ele>
        <time>2022-09-11T06:20:23Z</time>
      </trkpt>
      <trkpt lat="46.5119" lon="0.36979">
        <ele>135.6</ele>
        <time>2022-09-11T06:20:24Z</time>
      </trkpt>
      <trkpt lat="46.51207" lon="0.36967">
        <ele>135</ele>
        <time>2022-09-11T06:20:28Z</time>
      </trkpt>
      <trkpt lat="46.51216" lon="0.36963">
        <ele>135</ele>
        <time>2022-09-11T06:20:30Z</time>
      </trkpt>
      <trkpt lat="46.51224" lon="0.3696">
        <ele>134.6</ele>
        <time>2022-09-11T06:20:32Z</time>
      </trkpt>
      <trkpt lat="46.51229" lon="0.36959">
        <ele>134.4</ele>
        <time>2022-09-11T06:20:33Z</time>
      </trkpt>
      <trkpt lat="46.51235" lon="0.36955">
        <ele>134.4</ele>
        <time>2022-09-11T06:20:35Z</time>
      </trkpt>
      <trkpt lat="46.51245" lon="0.36949">
        <ele>133.8</ele>
        <time>2022-09-11T06:20:38Z</time>
      </trkpt>
      <trkpt lat="46.51247" lon="0.36949">
        <ele>133.6</ele>
        <time>2022-09-11T06:20:39Z</time>
      </trkpt>
      <trkpt lat="46.5125" lon="0.36949">
        <ele>133.2</ele>
        <time>2022-09-11T06:20:40Z</time>
      </trkpt>
      <trkpt lat="46.51256" lon="0.36954">
        <ele>133</ele>
        <time>2022-09-11T06:20:42Z</time>
      </trkpt>
      <trkpt lat="46.51259" lon="0.36957">
        <ele>132.6</ele>
        <time>2022-09-11T06:20:43Z</time>
      </trkpt>
      <trkpt lat="46.51262" lon="0.36959">
        <ele>132.2</ele>
        <time>2022-09-11T06:20:44Z</time>
      </trkpt>
      <trkpt lat="46.51266" lon="0.36961">
        <ele>132</ele>
        <time>2022-09-11T06:20:45Z</time>
      </trkpt>
      <trkpt lat="46.51274" lon="0.36963">
        <ele>131.8</ele>
        <time>2022-09-11T06:20:47Z</time>
      </trkpt>
      <trkpt lat="46.51284" lon="0.36968">
        <ele>130.4</ele>
        <time>2022-09-11T06:20:50Z</time>
      </trkpt>
      <trkpt lat="46.51286" lon="0.36969">
        <ele>129.8</ele>
        <time>2022-09-11T06:20:51Z</time>
      </trkpt>
      <trkpt lat="46.51289" lon="0.3697">
        <ele>129</ele>
        <time>2022-09-11T06:20:52Z</time>
      </trkpt>
      <trkpt lat="46.51296" lon="0.36974">
        <ele>127.6</ele>
        <time>2022-09-11T06:20:54Z</time>
      </trkpt>
      <trkpt lat="46.51307" lon="0.36978">
        <ele>126.8</ele>
        <time>2022-09-11T06:20:56Z</time>
      </trkpt>
      <trkpt lat="46.5131" lon="0.36983">
        <ele>126.4</ele>
        <time>2022-09-11T06:20:58Z</time>
      </trkpt>
      <trkpt lat="46.51313" lon="0.36986">
        <ele>126.2</ele>
        <time>2022-09-11T06:20:59Z</time>
      </trkpt>
      <trkpt lat="46.51322" lon="0.36989">
        <ele>125.8</ele>
        <time>2022-09-11T06:21:02Z</time>
      </trkpt>
      <trkpt lat="46.51325" lon="0.36989">
        <ele>125.6</ele>
        <time>2022-09-11T06:21:03Z</time>
      </trkpt>
      <trkpt lat="46.51329" lon="0.3699">
        <ele>125</ele>
        <time>2022-09-11T06:21:04Z</time>
      </trkpt>
      <trkpt lat="46.51332" lon="0.3699">
        <ele>124.6</ele>
        <time>2022-09-11T06:21:05Z</time>
      </trkpt>
      <trkpt lat="46.5134" lon="0.36996">
        <ele>123.6</ele>
        <time>2022-09-11T06:21:07Z</time>
      </trkpt>
      <trkpt lat="46.51346" lon="0.37002">
        <ele>122.4</ele>
        <time>2022-09-11T06:21:09Z</time>
      </trkpt>
      <trkpt lat="46.51352" lon="0.37006">
        <ele>121.2</ele>
        <time>2022-09-11T06:21:11Z</time>
      </trkpt>
      <trkpt lat="46.51359" lon="0.3701">
        <ele>120.2</ele>
        <time>2022-09-11T06:21:13Z</time>
      </trkpt>
      <trkpt lat="46.51361" lon="0.37013">
        <ele>119</ele>
        <time>2022-09-11T06:21:14Z</time>
      </trkpt>
      <trkpt lat="46.51364" lon="0.37016">
        <ele>118.4</ele>
        <time>2022-09-11T06:21:15Z</time>
      </trkpt>
      <trkpt lat="46.51367" lon="0.37018">
        <ele>117.4</ele>
        <time>2022-09-11T06:21:16Z</time>
      </trkpt>
      <trkpt lat="46.51369" lon="0.3702">
        <ele>116</ele>
        <time>2022-09-11T06:21:17Z</time>
      </trkpt>
      <trkpt lat="46.51374" lon="0.37025">
        <ele>114.8</ele>
        <time>2022-09-11T06:21:19Z</time>
      </trkpt>
      <trkpt lat="46.5138" lon="0.37031">
        <ele>113.8</ele>
        <time>2022-09-11T06:21:22Z</time>
      </trkpt>
      <trkpt lat="46.51387" lon="0.37034">
        <ele>113</ele>
        <time>2022-09-11T06:21:24Z</time>
      </trkpt>
      <trkpt lat="46.51396" lon="0.37033">
        <ele>112.8</ele>
        <time>2022-09-11T06:21:26Z</time>
      </trkpt>
      <trkpt lat="46.51401" lon="0.37031">
        <ele>112.6</ele>
        <time>2022-09-11T06:21:27Z</time>
      </trkpt>
      <trkpt lat="46.51417" lon="0.37018">
        <ele>112</ele>
        <time>2022-09-11T06:21:31Z</time>
      </trkpt>
      <trkpt lat="46.51425" lon="0.37009">
        <ele>111.6</ele>
        <time>2022-09-11T06:21:34Z</time>
      </trkpt>
      <trkpt lat="46.51428" lon="0.37003">
        <ele>110.8</ele>
        <time>2022-09-11T06:21:36Z</time>
      </trkpt>
      <trkpt lat="46.51429" lon="0.37001">
        <ele>110.4</ele>
        <time>2022-09-11T06:21:37Z</time>
      </trkpt>
      <trkpt lat="46.51435" lon="0.36997">
        <ele>109.4</ele>
        <time>2022-09-11T06:21:40Z</time>
      </trkpt>
      <trkpt lat="46.51437" lon="0.36996">
        <ele>109.4</ele>
        <time>2022-09-11T06:21:41Z</time>
      </trkpt>
      <trkpt lat="46.51442" lon="0.36993">
        <ele>108.4</ele>
        <time>2022-09-11T06:21:43Z</time>
      </trkpt>
      <trkpt lat="46.51445" lon="0.36991">
        <ele>106.6</ele>
        <time>2022-09-11T06:21:44Z</time>
      </trkpt>
      <trkpt lat="46.51447" lon="0.36991">
        <ele>106.6</ele>
        <time>2022-09-11T06:21:45Z</time>
      </trkpt>
      <trkpt lat="46.51449" lon="0.36993">
        <ele>105.6</ele>
        <time>2022-09-11T06:21:47Z</time>
      </trkpt>
      <trkpt lat="46.51458" lon="0.37011">
        <ele>105.2</ele>
        <time>2022-09-11T06:21:52Z</time>
      </trkpt>
      <trkpt lat="46.51463" lon="0.37034">
        <ele>105.6</ele>
        <time>2022-09-11T06:21:56Z</time>
      </trkpt>
      <trkpt lat="46.51468" lon="0.37044">
        <ele>105.4</ele>
        <time>2022-09-11T06:21:58Z</time>
      </trkpt>
      <trkpt lat="46.51475" lon="0.37063">
        <ele>105</ele>
        <time>2022-09-11T06:22:03Z</time>
      </trkpt>
      <trkpt lat="46.51474" lon="0.37072">
        <ele>105.2</ele>
        <time>2022-09-11T06:22:06Z</time>
      </trkpt>
      <trkpt lat="46.51477" lon="0.3708">
        <ele>106.2</ele>
        <time>2022-09-11T06:22:08Z</time>
      </trkpt>
      <trkpt lat="46.51477" lon="0.37081">
        <ele>106.6</ele>
        <time>2022-09-11T06:22:09Z</time>
      </trkpt>
      <trkpt lat="46.51476" lon="0.37086">
        <ele>107.6</ele>
        <time>2022-09-11T06:22:12Z</time>
      </trkpt>
      <trkpt lat="46.51475" lon="0.37088">
        <ele>108</ele>
        <time>2022-09-11T06:22:13Z</time>
      </trkpt>
      <trkpt lat="46.51475" lon="0.37091">
        <ele>109</ele>
        <time>2022-09-11T06:22:15Z</time>
      </trkpt>
      <trkpt lat="46.51472" lon="0.37095">
        <ele>110.2</ele>
        <time>2022-09-11T06:22:18Z</time>
      </trkpt>
      <trkpt lat="46.5147" lon="0.37097">
        <ele>110.8</ele>
        <time>2022-09-11T06:22:20Z</time>
      </trkpt>
      <trkpt lat="46.51469" lon="0.37098">
        <ele>111.2</ele>
        <time>2022-09-11T06:22:21Z</time>
      </trkpt>
      <trkpt lat="46.51468" lon="0.37102">
        <ele>112.2</ele>
        <time>2022-09-11T06:22:23Z</time>
      </trkpt>
      <trkpt lat="46.51466" lon="0.37109">
        <ele>113.6</ele>
        <time>2022-09-11T06:22:26Z</time>
      </trkpt>
      <trkpt lat="46.51466" lon="0.37112">
        <ele>114</ele>
        <time>2022-09-11T06:22:28Z</time>
      </trkpt>
      <trkpt lat="46.51464" lon="0.37117">
        <ele>114.8</ele>
        <time>2022-09-11T06:22:30Z</time>
      </trkpt>
      <trkpt lat="46.51464" lon="0.37119">
        <ele>115.2</ele>
        <time>2022-09-11T06:22:31Z</time>
      </trkpt>
      <trkpt lat="46.51461" lon="0.37126">
        <ele>115.8</ele>
        <time>2022-09-11T06:22:34Z</time>
      </trkpt>
      <trkpt lat="46.51458" lon="0.37132">
        <ele>117.2</ele>
        <time>2022-09-11T06:22:37Z</time>
      </trkpt>
      <trkpt lat="46.51458" lon="0.37135">
        <ele>117.4</ele>
        <time>2022-09-11T06:22:38Z</time>
      </trkpt>
      <trkpt lat="46.51454" lon="0.3714">
        <ele>118.4</ele>
        <time>2022-09-11T06:22:41Z</time>
      </trkpt>
      <trkpt lat="46.51453" lon="0.37147">
        <ele>119.6</ele>
        <time>2022-09-11T06:22:44Z</time>
      </trkpt>
      <trkpt lat="46.51453" lon="0.37162">
        <ele>120.6</ele>
        <time>2022-09-11T06:22:49Z</time>
      </trkpt>
      <trkpt lat="46.51453" lon="0.37167">
        <ele>121.2</ele>
        <time>2022-09-11T06:22:51Z</time>
      </trkpt>
      <trkpt lat="46.51451" lon="0.37176">
        <ele>122.2</ele>
        <time>2022-09-11T06:22:54Z</time>
      </trkpt>
      <trkpt lat="46.51448" lon="0.37182">
        <ele>122.6</ele>
        <time>2022-09-11T06:22:56Z</time>
      </trkpt>
      <trkpt lat="46.51446" lon="0.37189">
        <ele>123.2</ele>
        <time>2022-09-11T06:22:59Z</time>
      </trkpt>
      <trkpt lat="46.51442" lon="0.37196">
        <ele>124.4</ele>
        <time>2022-09-11T06:23:02Z</time>
      </trkpt>
      <trkpt lat="46.51437" lon="0.37204">
        <ele>125.4</ele>
        <time>2022-09-11T06:23:06Z</time>
      </trkpt>
      <trkpt lat="46.51435" lon="0.37211">
        <ele>126.2</ele>
        <time>2022-09-11T06:23:09Z</time>
      </trkpt>
      <trkpt lat="46.51434" lon="0.37217">
        <ele>126.8</ele>
        <time>2022-09-11T06:23:11Z</time>
      </trkpt>
      <trkpt lat="46.51433" lon="0.37234">
        <ele>127.8</ele>
        <time>2022-09-11T06:23:16Z</time>
      </trkpt>
      <trkpt lat="46.51433" lon="0.37237">
        <ele>128</ele>
        <time>2022-09-11T06:23:17Z</time>
      </trkpt>
      <trkpt lat="46.51428" lon="0.37256">
        <ele>129</ele>
        <time>2022-09-11T06:23:23Z</time>
      </trkpt>
      <trkpt lat="46.51427" lon="0.3726">
        <ele>129.4</ele>
        <time>2022-09-11T06:23:24Z</time>
      </trkpt>
      <trkpt lat="46.51423" lon="0.3728">
        <ele>130.2</ele>
        <time>2022-09-11T06:23:31Z</time>
      </trkpt>
      <trkpt lat="46.51421" lon="0.37303">
        <ele>131</ele>
        <time>2022-09-11T06:23:37Z</time>
      </trkpt>
      <trkpt lat="46.51417" lon="0.37311">
        <ele>131.4</ele>
        <time>2022-09-11T06:23:40Z</time>
      </trkpt>
      <trkpt lat="46.51415" lon="0.37314">
        <ele>131.4</ele>
        <time>2022-09-11T06:23:41Z</time>
      </trkpt>
      <trkpt lat="46.51408" lon="0.37323">
        <ele>132.4</ele>
        <time>2022-09-11T06:23:45Z</time>
      </trkpt>
      <trkpt lat="46.51403" lon="0.37326">
        <ele>133</ele>
        <time>2022-09-11T06:23:47Z</time>
      </trkpt>
      <trkpt lat="46.51399" lon="0.37328">
        <ele>133.4</ele>
        <time>2022-09-11T06:23:49Z</time>
      </trkpt>
      <trkpt lat="46.51386" lon="0.37335">
        <ele>134.4</ele>
        <time>2022-09-11T06:23:55Z</time>
      </trkpt>
      <trkpt lat="46.51381" lon="0.37339">
        <ele>134.4</ele>
        <time>2022-09-11T06:23:57Z</time>
      </trkpt>
      <trkpt lat="46.51377" lon="0.37341">
        <ele>134.8</ele>
        <time>2022-09-11T06:23:59Z</time>
      </trkpt>
      <trkpt lat="46.51365" lon="0.37347">
        <ele>135.4</ele>
        <time>2022-09-11T06:24:04Z</time>
      </trkpt>
      <trkpt lat="46.5136" lon="0.37348">
        <ele>136</ele>
        <time>2022-09-11T06:24:06Z</time>
      </trkpt>
      <trkpt lat="46.51343" lon="0.3736">
        <ele>136.6</ele>
        <time>2022-09-11T06:24:13Z</time>
      </trkpt>
      <trkpt lat="46.51332" lon="0.37369">
        <ele>137</ele>
        <time>2022-09-11T06:24:17Z</time>
      </trkpt>
      <trkpt lat="46.51315" lon="0.37382">
        <ele>137.6</ele>
        <time>2022-09-11T06:24:24Z</time>
      </trkpt>
      <trkpt lat="46.51302" lon="0.3739">
        <ele>138</ele>
        <time>2022-09-11T06:24:29Z</time>
      </trkpt>
      <trkpt lat="46.51285" lon="0.37395">
        <ele>137.8</ele>
        <time>2022-09-11T06:24:34Z</time>
      </trkpt>
      <trkpt lat="46.51277" lon="0.374">
        <ele>138</ele>
        <time>2022-09-11T06:24:38Z</time>
      </trkpt>
      <trkpt lat="46.51273" lon="0.37399">
        <ele>138.2</ele>
        <time>2022-09-11T06:24:39Z</time>
      </trkpt>
      <trkpt lat="46.51259" lon="0.37405">
        <ele>138.6</ele>
        <time>2022-09-11T06:24:45Z</time>
      </trkpt>
      <trkpt lat="46.51255" lon="0.37407">
        <ele>138.6</ele>
        <time>2022-09-11T06:24:46Z</time>
      </trkpt>
      <trkpt lat="46.51238" lon="0.37413">
        <ele>138.6</ele>
        <time>2022-09-11T06:24:50Z</time>
      </trkpt>
      <trkpt lat="46.51227" lon="0.37418">
        <ele>138.6</ele>
        <time>2022-09-11T06:24:53Z</time>
      </trkpt>
      <trkpt lat="46.51219" lon="0.37425">
        <ele>139</ele>
        <time>2022-09-11T06:24:55Z</time>
      </trkpt>
      <trkpt lat="46.51209" lon="0.37447">
        <ele>139</ele>
        <time>2022-09-11T06:25:00Z</time>
      </trkpt>
      <trkpt lat="46.51213" lon="0.37453">
        <ele>138.6</ele>
        <time>2022-09-11T06:25:03Z</time>
      </trkpt>
      <trkpt lat="46.51216" lon="0.37456">
        <ele>138.6</ele>
        <time>2022-09-11T06:25:05Z</time>
      </trkpt>
      <trkpt lat="46.51222" lon="0.37457">
        <ele>138.6</ele>
        <time>2022-09-11T06:25:08Z</time>
      </trkpt>
      <trkpt lat="46.51224" lon="0.37458">
        <ele>138.8</ele>
        <time>2022-09-11T06:25:09Z</time>
      </trkpt>
      <trkpt lat="46.51229" lon="0.37462">
        <ele>138.6</ele>
        <time>2022-09-11T06:25:11Z</time>
      </trkpt>
      <trkpt lat="46.51231" lon="0.37465">
        <ele>138.6</ele>
        <time>2022-09-11T06:25:12Z</time>
      </trkpt>
      <trkpt lat="46.51233" lon="0.37468">
        <ele>138.6</ele>
        <time>2022-09-11T06:25:13Z</time>
      </trkpt>
      <trkpt lat="46.5124" lon="0.37473">
        <ele>138.4</ele>
        <time>2022-09-11T06:25:15Z</time>
      </trkpt>
      <trkpt lat="46.51247" lon="0.37478">
        <ele>138</ele>
        <time>2022-09-11T06:25:17Z</time>
      </trkpt>
      <trkpt lat="46.51254" lon="0.37483">
        <ele>137.6</ele>
        <time>2022-09-11T06:25:19Z</time>
      </trkpt>
      <trkpt lat="46.51264" lon="0.3749">
        <ele>137</ele>
        <time>2022-09-11T06:25:22Z</time>
      </trkpt>
      <trkpt lat="46.51267" lon="0.37492">
        <ele>136.8</ele>
        <time>2022-09-11T06:25:23Z</time>
      </trkpt>
      <trkpt lat="46.51271" lon="0.37495">
        <ele>136.6</ele>
        <time>2022-09-11T06:25:24Z</time>
      </trkpt>
      <trkpt lat="46.51276" lon="0.37497">
        <ele>136.4</ele>
        <time>2022-09-11T06:25:25Z</time>
      </trkpt>
      <trkpt lat="46.51285" lon="0.375">
        <ele>136</ele>
        <time>2022-09-11T06:25:27Z</time>
      </trkpt>
      <trkpt lat="46.5129" lon="0.37502">
        <ele>135.8</ele>
        <time>2022-09-11T06:25:28Z</time>
      </trkpt>
      <trkpt lat="46.51295" lon="0.37503">
        <ele>135.6</ele>
        <time>2022-09-11T06:25:29Z</time>
      </trkpt>
      <trkpt lat="46.51304" lon="0.37507">
        <ele>134.6</ele>
        <time>2022-09-11T06:25:31Z</time>
      </trkpt>
      <trkpt lat="46.5131" lon="0.37511">
        <ele>134.4</ele>
        <time>2022-09-11T06:25:32Z</time>
      </trkpt>
      <trkpt lat="46.51316" lon="0.37515">
        <ele>134.2</ele>
        <time>2022-09-11T06:25:33Z</time>
      </trkpt>
      <trkpt lat="46.51325" lon="0.3752">
        <ele>133.4</ele>
        <time>2022-09-11T06:25:35Z</time>
      </trkpt>
      <trkpt lat="46.51329" lon="0.37521">
        <ele>133.2</ele>
        <time>2022-09-11T06:25:36Z</time>
      </trkpt>
      <trkpt lat="46.51338" lon="0.37523">
        <ele>132.8</ele>
        <time>2022-09-11T06:25:38Z</time>
      </trkpt>
      <trkpt lat="46.51347" lon="0.37521">
        <ele>132.6</ele>
        <time>2022-09-11T06:25:40Z</time>
      </trkpt>
      <trkpt lat="46.5135" lon="0.3752">
        <ele>132.4</ele>
        <time>2022-09-11T06:25:41Z</time>
      </trkpt>
      <trkpt lat="46.51356" lon="0.37521">
        <ele>131.8</ele>
        <time>2022-09-11T06:25:43Z</time>
      </trkpt>
      <trkpt lat="46.51358" lon="0.37522">
        <ele>131.4</ele>
        <time>2022-09-11T06:25:44Z</time>
      </trkpt>
      <trkpt lat="46.51361" lon="0.37524">
        <ele>131.2</ele>
        <time>2022-09-11T06:25:45Z</time>
      </trkpt>
      <trkpt lat="46.51366" lon="0.37528">
        <ele>131</ele>
        <time>2022-09-11T06:25:47Z</time>
      </trkpt>
      <trkpt lat="46.51373" lon="0.37525">
        <ele>130.6</ele>
        <time>2022-09-11T06:25:49Z</time>
      </trkpt>
      <trkpt lat="46.51387" lon="0.37507">
        <ele>130.6</ele>
        <time>2022-09-11T06:25:53Z</time>
      </trkpt>
      <trkpt lat="46.51394" lon="0.37497">
        <ele>130.8</ele>
        <time>2022-09-11T06:25:55Z</time>
      </trkpt>
      <trkpt lat="46.51404" lon="0.37484">
        <ele>131</ele>
        <time>2022-09-11T06:25:58Z</time>
      </trkpt>
      <trkpt lat="46.51413" lon="0.37467">
        <ele>130.6</ele>
        <time>2022-09-11T06:26:01Z</time>
      </trkpt>
      <trkpt lat="46.51419" lon="0.37459">
        <ele>130.2</ele>
        <time>2022-09-11T06:26:03Z</time>
      </trkpt>
      <trkpt lat="46.51423" lon="0.37457">
        <ele>129.8</ele>
        <time>2022-09-11T06:26:04Z</time>
      </trkpt>
      <trkpt lat="46.5143" lon="0.37456">
        <ele>129</ele>
        <time>2022-09-11T06:26:06Z</time>
      </trkpt>
      <trkpt lat="46.51436" lon="0.37456">
        <ele>127.6</ele>
        <time>2022-09-11T06:26:08Z</time>
      </trkpt>
      <trkpt lat="46.51441" lon="0.37453">
        <ele>127.2</ele>
        <time>2022-09-11T06:26:10Z</time>
      </trkpt>
      <trkpt lat="46.51443" lon="0.3745">
        <ele>127</ele>
        <time>2022-09-11T06:26:11Z</time>
      </trkpt>
      <trkpt lat="46.51447" lon="0.37447">
        <ele>126.8</ele>
        <time>2022-09-11T06:26:12Z</time>
      </trkpt>
      <trkpt lat="46.5145" lon="0.37446">
        <ele>126.4</ele>
        <time>2022-09-11T06:26:13Z</time>
      </trkpt>
      <trkpt lat="46.51452" lon="0.37446">
        <ele>126</ele>
        <time>2022-09-11T06:26:14Z</time>
      </trkpt>
      <trkpt lat="46.51455" lon="0.37447">
        <ele>125.2</ele>
        <time>2022-09-11T06:26:15Z</time>
      </trkpt>
      <trkpt lat="46.51464" lon="0.37455">
        <ele>124.6</ele>
        <time>2022-09-11T06:26:20Z</time>
      </trkpt>
      <trkpt lat="46.51468" lon="0.3746">
        <ele>124.8</ele>
        <time>2022-09-11T06:26:22Z</time>
      </trkpt>
      <trkpt lat="46.51474" lon="0.37457">
        <ele>125</ele>
        <time>2022-09-11T06:26:25Z</time>
      </trkpt>
      <trkpt lat="46.5148" lon="0.37462">
        <ele>125</ele>
        <time>2022-09-11T06:26:29Z</time>
      </trkpt>
      <trkpt lat="46.51485" lon="0.37476">
        <ele>126</ele>
        <time>2022-09-11T06:26:33Z</time>
      </trkpt>
      <trkpt lat="46.51486" lon="0.37479">
        <ele>126.2</ele>
        <time>2022-09-11T06:26:34Z</time>
      </trkpt>
      <trkpt lat="46.5149" lon="0.37482">
        <ele>126.4</ele>
        <time>2022-09-11T06:26:35Z</time>
      </trkpt>
      <trkpt lat="46.51494" lon="0.37492">
        <ele>126.6</ele>
        <time>2022-09-11T06:26:38Z</time>
      </trkpt>
      <trkpt lat="46.515" lon="0.37489">
        <ele>126.6</ele>
        <time>2022-09-11T06:26:41Z</time>
      </trkpt>
      <trkpt lat="46.515" lon="0.37486">
        <ele>126.6</ele>
        <time>2022-09-11T06:26:42Z</time>
      </trkpt>
      <trkpt lat="46.51503" lon="0.37481">
        <ele>126.2</ele>
        <time>2022-09-11T06:26:45Z</time>
      </trkpt>
      <trkpt lat="46.51505" lon="0.37481">
        <ele>126.2</ele>
        <time>2022-09-11T06:26:46Z</time>
      </trkpt>
      <trkpt lat="46.51509" lon="0.3748">
        <ele>125.8</ele>
        <time>2022-09-11T06:26:48Z</time>
      </trkpt>
      <trkpt lat="46.51511" lon="0.37475">
        <ele>125.6</ele>
        <time>2022-09-11T06:26:50Z</time>
      </trkpt>
      <trkpt lat="46.51514" lon="0.37469">
        <ele>125.2</ele>
        <time>2022-09-11T06:26:53Z</time>
      </trkpt>
      <trkpt lat="46.51516" lon="0.37469">
        <ele>125</ele>
        <time>2022-09-11T06:26:54Z</time>
      </trkpt>
      <trkpt lat="46.51523" lon="0.37473">
        <ele>124.8</ele>
        <time>2022-09-11T06:26:57Z</time>
      </trkpt>
      <trkpt lat="46.51526" lon="0.37472">
        <ele>124.8</ele>
        <time>2022-09-11T06:26:58Z</time>
      </trkpt>
      <trkpt lat="46.5153" lon="0.37466">
        <ele>124.6</ele>
        <time>2022-09-11T06:27:00Z</time>
      </trkpt>
      <trkpt lat="46.5153" lon="0.37463">
        <ele>124.2</ele>
        <time>2022-09-11T06:27:01Z</time>
      </trkpt>
      <trkpt lat="46.51529" lon="0.3746">
        <ele>123.8</ele>
        <time>2022-09-11T06:27:02Z</time>
      </trkpt>
      <trkpt lat="46.51528" lon="0.37454">
        <ele>123.6</ele>
        <time>2022-09-11T06:27:05Z</time>
      </trkpt>
      <trkpt lat="46.51529" lon="0.37452">
        <ele>123.4</ele>
        <time>2022-09-11T06:27:06Z</time>
      </trkpt>
      <trkpt lat="46.51531" lon="0.37439">
        <ele>123.4</ele>
        <time>2022-09-11T06:27:09Z</time>
      </trkpt>
      <trkpt lat="46.5153" lon="0.37436">
        <ele>122.4</ele>
        <time>2022-09-11T06:27:10Z</time>
      </trkpt>
      <trkpt lat="46.51529" lon="0.37434">
        <ele>121.6</ele>
        <time>2022-09-11T06:27:11Z</time>
      </trkpt>
      <trkpt lat="46.51527" lon="0.37431">
        <ele>121.2</ele>
        <time>2022-09-11T06:27:12Z</time>
      </trkpt>
      <trkpt lat="46.51521" lon="0.37422">
        <ele>121</ele>
        <time>2022-09-11T06:27:15Z</time>
      </trkpt>
      <trkpt lat="46.51518" lon="0.37413">
        <ele>120</ele>
        <time>2022-09-11T06:27:18Z</time>
      </trkpt>
      <trkpt lat="46.51517" lon="0.37407">
        <ele>119.2</ele>
        <time>2022-09-11T06:27:20Z</time>
      </trkpt>
      <trkpt lat="46.51515" lon="0.37402">
        <ele>118.8</ele>
        <time>2022-09-11T06:27:22Z</time>
      </trkpt>
      <trkpt lat="46.51513" lon="0.37402">
        <ele>118.4</ele>
        <time>2022-09-11T06:27:24Z</time>
      </trkpt>
      <trkpt lat="46.51511" lon="0.37403">
        <ele>118.2</ele>
        <time>2022-09-11T06:27:26Z</time>
      </trkpt>
      <trkpt lat="46.51509" lon="0.37404">
        <ele>119</ele>
        <time>2022-09-11T06:27:29Z</time>
      </trkpt>
      <trkpt lat="46.51504" lon="0.37392">
        <ele>119.8</ele>
        <time>2022-09-11T06:27:33Z</time>
      </trkpt>
      <trkpt lat="46.51501" lon="0.3738">
        <ele>118.8</ele>
        <time>2022-09-11T06:27:36Z</time>
      </trkpt>
      <trkpt lat="46.515" lon="0.37379">
        <ele>118.4</ele>
        <time>2022-09-11T06:27:37Z</time>
      </trkpt>
      <trkpt lat="46.51498" lon="0.37379">
        <ele>118</ele>
        <time>2022-09-11T06:27:39Z</time>
      </trkpt>
      <trkpt lat="46.51494" lon="0.37384">
        <ele>118.4</ele>
        <time>2022-09-11T06:27:42Z</time>
      </trkpt>
      <trkpt lat="46.51487" lon="0.37395">
        <ele>120</ele>
        <time>2022-09-11T06:27:47Z</time>
      </trkpt>
      <trkpt lat="46.51486" lon="0.37405">
        <ele>121.2</ele>
        <time>2022-09-11T06:27:50Z</time>
      </trkpt>
      <trkpt lat="46.51484" lon="0.37408">
        <ele>121.6</ele>
        <time>2022-09-11T06:27:52Z</time>
      </trkpt>
      <trkpt lat="46.51483" lon="0.37409">
        <ele>121.6</ele>
        <time>2022-09-11T06:27:53Z</time>
      </trkpt>
      <trkpt lat="46.51481" lon="0.37409">
        <ele>122.4</ele>
        <time>2022-09-11T06:27:55Z</time>
      </trkpt>
      <trkpt lat="46.51478" lon="0.37411">
        <ele>124</ele>
        <time>2022-09-11T06:27:58Z</time>
      </trkpt>
      <trkpt lat="46.51476" lon="0.37411">
        <ele>124.8</ele>
        <time>2022-09-11T06:28:00Z</time>
      </trkpt>
      <trkpt lat="46.51474" lon="0.37411">
        <ele>125</ele>
        <time>2022-09-11T06:28:01Z</time>
      </trkpt>
      <trkpt lat="46.51469" lon="0.37409">
        <ele>125.6</ele>
        <time>2022-09-11T06:28:04Z</time>
      </trkpt>
      <trkpt lat="46.51464" lon="0.37406">
        <ele>125.6</ele>
        <time>2022-09-11T06:28:07Z</time>
      </trkpt>
      <trkpt lat="46.51464" lon="0.37401">
        <ele>125.8</ele>
        <time>2022-09-11T06:28:09Z</time>
      </trkpt>
      <trkpt lat="46.51465" lon="0.37378">
        <ele>125.6</ele>
        <time>2022-09-11T06:28:15Z</time>
      </trkpt>
      <trkpt lat="46.51468" lon="0.37364">
        <ele>125.4</ele>
        <time>2022-09-11T06:28:18Z</time>
      </trkpt>
      <trkpt lat="46.51468" lon="0.37352">
        <ele>125.2</ele>
        <time>2022-09-11T06:28:20Z</time>
      </trkpt>
      <trkpt lat="46.51469" lon="0.37347">
        <ele>125</ele>
        <time>2022-09-11T06:28:21Z</time>
      </trkpt>
      <trkpt lat="46.51468" lon="0.37336">
        <ele>125</ele>
        <time>2022-09-11T06:28:23Z</time>
      </trkpt>
      <trkpt lat="46.51465" lon="0.37319">
        <ele>125</ele>
        <time>2022-09-11T06:28:26Z</time>
      </trkpt>
      <trkpt lat="46.51464" lon="0.37308">
        <ele>124.6</ele>
        <time>2022-09-11T06:28:28Z</time>
      </trkpt>
      <trkpt lat="46.51462" lon="0.37294">
        <ele>124.6</ele>
        <time>2022-09-11T06:28:30Z</time>
      </trkpt>
      <trkpt lat="46.51461" lon="0.37287">
        <ele>124.4</ele>
        <time>2022-09-11T06:28:31Z</time>
      </trkpt>
      <trkpt lat="46.51461" lon="0.3728">
        <ele>124.4</ele>
        <time>2022-09-11T06:28:32Z</time>
      </trkpt>
      <trkpt lat="46.51461" lon="0.37268">
        <ele>124.2</ele>
        <time>2022-09-11T06:28:34Z</time>
      </trkpt>
      <trkpt lat="46.5146" lon="0.37262">
        <ele>123.8</ele>
        <time>2022-09-11T06:28:35Z</time>
      </trkpt>
      <trkpt lat="46.51461" lon="0.37257">
        <ele>123.6</ele>
        <time>2022-09-11T06:28:36Z</time>
      </trkpt>
      <trkpt lat="46.51465" lon="0.37247">
        <ele>122.6</ele>
        <time>2022-09-11T06:28:39Z</time>
      </trkpt>
      <trkpt lat="46.51467" lon="0.3724">
        <ele>121.4</ele>
        <time>2022-09-11T06:28:41Z</time>
      </trkpt>
      <trkpt lat="46.51472" lon="0.37229">
        <ele>119.8</ele>
        <time>2022-09-11T06:28:44Z</time>
      </trkpt>
      <trkpt lat="46.51474" lon="0.37226">
        <ele>118.6</ele>
        <time>2022-09-11T06:28:45Z</time>
      </trkpt>
      <trkpt lat="46.51475" lon="0.37223">
        <ele>117.6</ele>
        <time>2022-09-11T06:28:46Z</time>
      </trkpt>
      <trkpt lat="46.51476" lon="0.37222">
        <ele>116.6</ele>
        <time>2022-09-11T06:28:47Z</time>
      </trkpt>
      <trkpt lat="46.51477" lon="0.3722">
        <ele>116</ele>
        <time>2022-09-11T06:28:48Z</time>
      </trkpt>
      <trkpt lat="46.51479" lon="0.3722">
        <ele>115</ele>
        <time>2022-09-11T06:28:49Z</time>
      </trkpt>
      <trkpt lat="46.5148" lon="0.37219">
        <ele>114</ele>
        <time>2022-09-11T06:28:50Z</time>
      </trkpt>
      <trkpt lat="46.51481" lon="0.37217">
        <ele>113.2</ele>
        <time>2022-09-11T06:28:51Z</time>
      </trkpt>
      <trkpt lat="46.51482" lon="0.37215">
        <ele>112</ele>
        <time>2022-09-11T06:28:52Z</time>
      </trkpt>
      <trkpt lat="46.51484" lon="0.37211">
        <ele>110.6</ele>
        <time>2022-09-11T06:28:54Z</time>
      </trkpt>
      <trkpt lat="46.51487" lon="0.37209">
        <ele>108.8</ele>
        <time>2022-09-11T06:28:56Z</time>
      </trkpt>
      <trkpt lat="46.51489" lon="0.37206">
        <ele>108.4</ele>
        <time>2022-09-11T06:28:57Z</time>
      </trkpt>
      <trkpt lat="46.51491" lon="0.37204">
        <ele>107</ele>
        <time>2022-09-11T06:28:58Z</time>
      </trkpt>
      <trkpt lat="46.51497" lon="0.37199">
        <ele>105</ele>
        <time>2022-09-11T06:29:00Z</time>
      </trkpt>
      <trkpt lat="46.51501" lon="0.3719">
        <ele>102.8</ele>
        <time>2022-09-11T06:29:02Z</time>
      </trkpt>
      <trkpt lat="46.51504" lon="0.37179">
        <ele>101.4</ele>
        <time>2022-09-11T06:29:04Z</time>
      </trkpt>
      <trkpt lat="46.51504" lon="0.37167">
        <ele>100.6</ele>
        <time>2022-09-11T06:29:06Z</time>
      </trkpt>
      <trkpt lat="46.51506" lon="0.3714">
        <ele>101</ele>
        <time>2022-09-11T06:29:11Z</time>
      </trkpt>
      <trkpt lat="46.5151" lon="0.3712">
        <ele>101.2</ele>
        <time>2022-09-11T06:29:15Z</time>
      </trkpt>
      <trkpt lat="46.5151" lon="0.37113">
        <ele>101.2</ele>
        <time>2022-09-11T06:29:16Z</time>
      </trkpt>
      <trkpt lat="46.51513" lon="0.37101">
        <ele>101</ele>
        <time>2022-09-11T06:29:18Z</time>
      </trkpt>
      <trkpt lat="46.51513" lon="0.37088">
        <ele>101</ele>
        <time>2022-09-11T06:29:20Z</time>
      </trkpt>
      <trkpt lat="46.51513" lon="0.37081">
        <ele>101</ele>
        <time>2022-09-11T06:29:21Z</time>
      </trkpt>
      <trkpt lat="46.51509" lon="0.37067">
        <ele>101.2</ele>
        <time>2022-09-11T06:29:23Z</time>
      </trkpt>
      <trkpt lat="46.51506" lon="0.37054">
        <ele>101.4</ele>
        <time>2022-09-11T06:29:25Z</time>
      </trkpt>
      <trkpt lat="46.51497" lon="0.37019">
        <ele>102.4</ele>
        <time>2022-09-11T06:29:31Z</time>
      </trkpt>
      <trkpt lat="46.51496" lon="0.37013">
        <ele>102.4</ele>
        <time>2022-09-11T06:29:32Z</time>
      </trkpt>
      <trkpt lat="46.51496" lon="0.36994">
        <ele>102.6</ele>
        <time>2022-09-11T06:29:35Z</time>
      </trkpt>
      <trkpt lat="46.51494" lon="0.36978">
        <ele>102.8</ele>
        <time>2022-09-11T06:29:38Z</time>
      </trkpt>
      <trkpt lat="46.51492" lon="0.3697">
        <ele>102.8</ele>
        <time>2022-09-11T06:29:40Z</time>
      </trkpt>
      <trkpt lat="46.51482" lon="0.36959">
        <ele>103.2</ele>
        <time>2022-09-11T06:29:45Z</time>
      </trkpt>
      <trkpt lat="46.51478" lon="0.36956">
        <ele>103.4</ele>
        <time>2022-09-11T06:29:47Z</time>
      </trkpt>
      <trkpt lat="46.51476" lon="0.36954">
        <ele>103.4</ele>
        <time>2022-09-11T06:29:48Z</time>
      </trkpt>
      <trkpt lat="46.51476" lon="0.3695">
        <ele>104</ele>
        <time>2022-09-11T06:29:50Z</time>
      </trkpt>
      <trkpt lat="46.51478" lon="0.36937">
        <ele>104.6</ele>
        <time>2022-09-11T06:29:53Z</time>
      </trkpt>
      <trkpt lat="46.51478" lon="0.36926">
        <ele>105</ele>
        <time>2022-09-11T06:29:55Z</time>
      </trkpt>
      <trkpt lat="46.51478" lon="0.36915">
        <ele>105</ele>
        <time>2022-09-11T06:29:57Z</time>
      </trkpt>
      <trkpt lat="46.51478" lon="0.36891">
        <ele>105.4</ele>
        <time>2022-09-11T06:30:01Z</time>
      </trkpt>
      <trkpt lat="46.51478" lon="0.36886">
        <ele>105.6</ele>
        <time>2022-09-11T06:30:02Z</time>
      </trkpt>
      <trkpt lat="46.51481" lon="0.36874">
        <ele>106</ele>
        <time>2022-09-11T06:30:04Z</time>
      </trkpt>
      <trkpt lat="46.5148" lon="0.36862">
        <ele>106</ele>
        <time>2022-09-11T06:30:06Z</time>
      </trkpt>
      <trkpt lat="46.51478" lon="0.36841">
        <ele>106.6</ele>
        <time>2022-09-11T06:30:09Z</time>
      </trkpt>
      <trkpt lat="46.51477" lon="0.36835">
        <ele>106.8</ele>
        <time>2022-09-11T06:30:10Z</time>
      </trkpt>
      <trkpt lat="46.51474" lon="0.36822">
        <ele>107</ele>
        <time>2022-09-11T06:30:12Z</time>
      </trkpt>
      <trkpt lat="46.51464" lon="0.36791">
        <ele>107.6</ele>
        <time>2022-09-11T06:30:18Z</time>
      </trkpt>
      <trkpt lat="46.51456" lon="0.36777">
        <ele>107.8</ele>
        <time>2022-09-11T06:30:22Z</time>
      </trkpt>
      <trkpt lat="46.51448" lon="0.36767">
        <ele>108</ele>
        <time>2022-09-11T06:30:25Z</time>
      </trkpt>
      <trkpt lat="46.51434" lon="0.36746">
        <ele>108.2</ele>
        <time>2022-09-11T06:30:31Z</time>
      </trkpt>
      <trkpt lat="46.51416" lon="0.36725">
        <ele>108.6</ele>
        <time>2022-09-11T06:30:38Z</time>
      </trkpt>
      <trkpt lat="46.51413" lon="0.36722">
        <ele>108.8</ele>
        <time>2022-09-11T06:30:39Z</time>
      </trkpt>
      <trkpt lat="46.51403" lon="0.36704">
        <ele>109</ele>
        <time>2022-09-11T06:30:44Z</time>
      </trkpt>
      <trkpt lat="46.51389" lon="0.36686">
        <ele>109</ele>
        <time>2022-09-11T06:30:49Z</time>
      </trkpt>
      <trkpt lat="46.51373" lon="0.36658">
        <ele>109.2</ele>
        <time>2022-09-11T06:30:55Z</time>
      </trkpt>
      <trkpt lat="46.51369" lon="0.36631">
        <ele>109.8</ele>
        <time>2022-09-11T06:31:01Z</time>
      </trkpt>
      <trkpt lat="46.51369" lon="0.36626">
        <ele>109.8</ele>
        <time>2022-09-11T06:31:02Z</time>
      </trkpt>
      <trkpt lat="46.51375" lon="0.36602">
        <ele>110.4</ele>
        <time>2022-09-11T06:31:07Z</time>
      </trkpt>
      <trkpt lat="46.51381" lon="0.36578">
        <ele>111</ele>
        <time>2022-09-11T06:31:12Z</time>
      </trkpt>
      <trkpt lat="46.51382" lon="0.36574">
        <ele>111.2</ele>
        <time>2022-09-11T06:31:13Z</time>
      </trkpt>
      <trkpt lat="46.51393" lon="0.36548">
        <ele>112</ele>
        <time>2022-09-11T06:31:19Z</time>
      </trkpt>
      <trkpt lat="46.51402" lon="0.36524">
        <ele>113</ele>
        <time>2022-09-11T06:31:25Z</time>
      </trkpt>
      <trkpt lat="46.51406" lon="0.36509">
        <ele>113.8</ele>
        <time>2022-09-11T06:31:30Z</time>
      </trkpt>
      <trkpt lat="46.51406" lon="0.36508">
        <ele>114</ele>
        <time>2022-09-11T06:31:31Z</time>
      </trkpt>
      <trkpt lat="46.51408" lon="0.36508">
        <ele>114.4</ele>
        <time>2022-09-11T06:31:33Z</time>
      </trkpt>
      <trkpt lat="46.5141" lon="0.3651">
        <ele>114.4</ele>
        <time>2022-09-11T06:31:34Z</time>
      </trkpt>
      <trkpt lat="46.51415" lon="0.36522">
        <ele>115.2</ele>
        <time>2022-09-11T06:31:39Z</time>
      </trkpt>
      <trkpt lat="46.51415" lon="0.36524">
        <ele>115.4</ele>
        <time>2022-09-11T06:31:40Z</time>
      </trkpt>
      <trkpt lat="46.51417" lon="0.36539">
        <ele>116.2</ele>
        <time>2022-09-11T06:31:45Z</time>
      </trkpt>
      <trkpt lat="46.51417" lon="0.36542">
        <ele>116.6</ele>
        <time>2022-09-11T06:31:46Z</time>
      </trkpt>
      <trkpt lat="46.51418" lon="0.36554">
        <ele>118</ele>
        <time>2022-09-11T06:31:49Z</time>
      </trkpt>
      <trkpt lat="46.51419" lon="0.36559">
        <ele>118.4</ele>
        <time>2022-09-11T06:31:51Z</time>
      </trkpt>
      <trkpt lat="46.51419" lon="0.36565">
        <ele>119.4</ele>
        <time>2022-09-11T06:31:53Z</time>
      </trkpt>
      <trkpt lat="46.51425" lon="0.3658">
        <ele>120.4</ele>
        <time>2022-09-11T06:31:58Z</time>
      </trkpt>
      <trkpt lat="46.51427" lon="0.36582">
        <ele>120.4</ele>
        <time>2022-09-11T06:31:59Z</time>
      </trkpt>
      <trkpt lat="46.51431" lon="0.36584">
        <ele>120.6</ele>
        <time>2022-09-11T06:32:01Z</time>
      </trkpt>
      <trkpt lat="46.51435" lon="0.36585">
        <ele>120.6</ele>
        <time>2022-09-11T06:32:03Z</time>
      </trkpt>
      <trkpt lat="46.51441" lon="0.36587">
        <ele>121.8</ele>
        <time>2022-09-11T06:32:06Z</time>
      </trkpt>
      <trkpt lat="46.51447" lon="0.36591">
        <ele>122.8</ele>
        <time>2022-09-11T06:32:09Z</time>
      </trkpt>
      <trkpt lat="46.51449" lon="0.36592">
        <ele>123</ele>
        <time>2022-09-11T06:32:10Z</time>
      </trkpt>
      <trkpt lat="46.51454" lon="0.36597">
        <ele>124</ele>
        <time>2022-09-11T06:32:14Z</time>
      </trkpt>
      <trkpt lat="46.5146" lon="0.36602">
        <ele>124.6</ele>
        <time>2022-09-11T06:32:18Z</time>
      </trkpt>
      <trkpt lat="46.51464" lon="0.36603">
        <ele>125</ele>
        <time>2022-09-11T06:32:20Z</time>
      </trkpt>
      <trkpt lat="46.51472" lon="0.36604">
        <ele>125.8</ele>
        <time>2022-09-11T06:32:25Z</time>
      </trkpt>
      <trkpt lat="46.51477" lon="0.36605">
        <ele>126.2</ele>
        <time>2022-09-11T06:32:27Z</time>
      </trkpt>
      <trkpt lat="46.51486" lon="0.36605">
        <ele>127.2</ele>
        <time>2022-09-11T06:32:31Z</time>
      </trkpt>
      <trkpt lat="46.51488" lon="0.36606">
        <ele>127.6</ele>
        <time>2022-09-11T06:32:32Z</time>
      </trkpt>
      <trkpt lat="46.51497" lon="0.36613">
        <ele>128.4</ele>
        <time>2022-09-11T06:32:37Z</time>
      </trkpt>
      <trkpt lat="46.515" lon="0.36615">
        <ele>128.6</ele>
        <time>2022-09-11T06:32:38Z</time>
      </trkpt>
      <trkpt lat="46.51522" lon="0.36638">
        <ele>129.6</ele>
        <time>2022-09-11T06:32:46Z</time>
      </trkpt>
      <trkpt lat="46.51542" lon="0.36662">
        <ele>129.4</ele>
        <time>2022-09-11T06:32:52Z</time>
      </trkpt>
      <trkpt lat="46.51555" lon="0.36681">
        <ele>129.4</ele>
        <time>2022-09-11T06:32:57Z</time>
      </trkpt>
      <trkpt lat="46.51562" lon="0.36688">
        <ele>129.8</ele>
        <time>2022-09-11T06:32:59Z</time>
      </trkpt>
      <trkpt lat="46.5158" lon="0.36706">
        <ele>129.6</ele>
        <time>2022-09-11T06:33:05Z</time>
      </trkpt>
      <trkpt lat="46.51589" lon="0.36704">
        <ele>129.6</ele>
        <time>2022-09-11T06:33:09Z</time>
      </trkpt>
      <trkpt lat="46.51593" lon="0.36704">
        <ele>129.8</ele>
        <time>2022-09-11T06:33:11Z</time>
      </trkpt>
      <trkpt lat="46.51599" lon="0.36704">
        <ele>130</ele>
        <time>2022-09-11T06:33:14Z</time>
      </trkpt>
      <trkpt lat="46.51601" lon="0.36703">
        <ele>130</ele>
        <time>2022-09-11T06:33:15Z</time>
      </trkpt>
      <trkpt lat="46.51618" lon="0.36687">
        <ele>130.2</ele>
        <time>2022-09-11T06:33:20Z</time>
      </trkpt>
      <trkpt lat="46.51628" lon="0.36674">
        <ele>130.2</ele>
        <time>2022-09-11T06:33:23Z</time>
      </trkpt>
      <trkpt lat="46.51636" lon="0.3666">
        <ele>130</ele>
        <time>2022-09-11T06:33:26Z</time>
      </trkpt>
      <trkpt lat="46.51641" lon="0.36648">
        <ele>129.6</ele>
        <time>2022-09-11T06:33:28Z</time>
      </trkpt>
      <trkpt lat="46.51649" lon="0.3663">
        <ele>129.2</ele>
        <time>2022-09-11T06:33:31Z</time>
      </trkpt>
      <trkpt lat="46.51658" lon="0.3661">
        <ele>128.4</ele>
        <time>2022-09-11T06:33:34Z</time>
      </trkpt>
      <trkpt lat="46.51664" lon="0.36596">
        <ele>127.4</ele>
        <time>2022-09-11T06:33:36Z</time>
      </trkpt>
      <trkpt lat="46.51667" lon="0.3659">
        <ele>127.2</ele>
        <time>2022-09-11T06:33:37Z</time>
      </trkpt>
      <trkpt lat="46.51675" lon="0.36578">
        <ele>126.8</ele>
        <time>2022-09-11T06:33:39Z</time>
      </trkpt>
      <trkpt lat="46.51683" lon="0.36565">
        <ele>126.4</ele>
        <time>2022-09-11T06:33:41Z</time>
      </trkpt>
      <trkpt lat="46.51687" lon="0.36559">
        <ele>126.2</ele>
        <time>2022-09-11T06:33:42Z</time>
      </trkpt>
      <trkpt lat="46.51703" lon="0.36529">
        <ele>126.2</ele>
        <time>2022-09-11T06:33:47Z</time>
      </trkpt>
      <trkpt lat="46.51708" lon="0.36517">
        <ele>126</ele>
        <time>2022-09-11T06:33:49Z</time>
      </trkpt>
      <trkpt lat="46.51714" lon="0.36505">
        <ele>126.2</ele>
        <time>2022-09-11T06:33:51Z</time>
      </trkpt>
      <trkpt lat="46.51718" lon="0.365">
        <ele>126.2</ele>
        <time>2022-09-11T06:33:52Z</time>
      </trkpt>
      <trkpt lat="46.51734" lon="0.36471">
        <ele>126.2</ele>
        <time>2022-09-11T06:33:57Z</time>
      </trkpt>
      <trkpt lat="46.51737" lon="0.36464">
        <ele>126.4</ele>
        <time>2022-09-11T06:33:58Z</time>
      </trkpt>
      <trkpt lat="46.51751" lon="0.36435">
        <ele>127</ele>
        <time>2022-09-11T06:34:03Z</time>
      </trkpt>
      <trkpt lat="46.51757" lon="0.36424">
        <ele>127</ele>
        <time>2022-09-11T06:34:05Z</time>
      </trkpt>
      <trkpt lat="46.51763" lon="0.36415">
        <ele>127.2</ele>
        <time>2022-09-11T06:34:07Z</time>
      </trkpt>
      <trkpt lat="46.51765" lon="0.36411">
        <ele>127.4</ele>
        <time>2022-09-11T06:34:08Z</time>
      </trkpt>
      <trkpt lat="46.51771" lon="0.36405">
        <ele>127.4</ele>
        <time>2022-09-11T06:34:10Z</time>
      </trkpt>
      <trkpt lat="46.51782" lon="0.364">
        <ele>127.4</ele>
        <time>2022-09-11T06:34:13Z</time>
      </trkpt>
      <trkpt lat="46.5179" lon="0.36396">
        <ele>127.4</ele>
        <time>2022-09-11T06:34:15Z</time>
      </trkpt>
      <trkpt lat="46.51797" lon="0.36393">
        <ele>127.6</ele>
        <time>2022-09-11T06:34:17Z</time>
      </trkpt>
      <trkpt lat="46.51801" lon="0.36391">
        <ele>127.6</ele>
        <time>2022-09-11T06:34:18Z</time>
      </trkpt>
      <trkpt lat="46.51805" lon="0.3639">
        <ele>127.6</ele>
        <time>2022-09-11T06:34:19Z</time>
      </trkpt>
      <trkpt lat="46.51826" lon="0.36385">
        <ele>127.6</ele>
        <time>2022-09-11T06:34:23Z</time>
      </trkpt>
      <trkpt lat="46.51837" lon="0.36383">
        <ele>127.8</ele>
        <time>2022-09-11T06:34:25Z</time>
      </trkpt>
      <trkpt lat="46.5185" lon="0.3638">
        <ele>127.8</ele>
        <time>2022-09-11T06:34:28Z</time>
      </trkpt>
      <trkpt lat="46.51855" lon="0.3638">
        <ele>128</ele>
        <time>2022-09-11T06:34:29Z</time>
      </trkpt>
      <trkpt lat="46.51872" lon="0.36377">
        <ele>128</ele>
        <time>2022-09-11T06:34:32Z</time>
      </trkpt>
      <trkpt lat="46.51877" lon="0.36375">
        <ele>128</ele>
        <time>2022-09-11T06:34:33Z</time>
      </trkpt>
      <trkpt lat="46.51883" lon="0.36374">
        <ele>128.2</ele>
        <time>2022-09-11T06:34:34Z</time>
      </trkpt>
      <trkpt lat="46.51899" lon="0.36371">
        <ele>128.2</ele>
        <time>2022-09-11T06:34:37Z</time>
      </trkpt>
      <trkpt lat="46.51918" lon="0.36364">
        <ele>128</ele>
        <time>2022-09-11T06:34:41Z</time>
      </trkpt>
      <trkpt lat="46.51933" lon="0.36359">
        <ele>127.6</ele>
        <time>2022-09-11T06:34:44Z</time>
      </trkpt>
      <trkpt lat="46.51938" lon="0.36356">
        <ele>127.6</ele>
        <time>2022-09-11T06:34:45Z</time>
      </trkpt>
      <trkpt lat="46.51958" lon="0.36348">
        <ele>127</ele>
        <time>2022-09-11T06:34:50Z</time>
      </trkpt>
      <trkpt lat="46.51965" lon="0.36344">
        <ele>126.8</ele>
        <time>2022-09-11T06:34:52Z</time>
      </trkpt>
      <trkpt lat="46.51977" lon="0.3634">
        <ele>126.6</ele>
        <time>2022-09-11T06:34:54Z</time>
      </trkpt>
      <trkpt lat="46.51984" lon="0.36337">
        <ele>126.6</ele>
        <time>2022-09-11T06:34:55Z</time>
      </trkpt>
      <trkpt lat="46.5199" lon="0.36332">
        <ele>126</ele>
        <time>2022-09-11T06:34:56Z</time>
      </trkpt>
      <trkpt lat="46.52005" lon="0.36325">
        <ele>125</ele>
        <time>2022-09-11T06:34:58Z</time>
      </trkpt>
      <trkpt lat="46.52012" lon="0.3632">
        <ele>123.4</ele>
        <time>2022-09-11T06:34:59Z</time>
      </trkpt>
      <trkpt lat="46.52019" lon="0.36316">
        <ele>122.2</ele>
        <time>2022-09-11T06:35:00Z</time>
      </trkpt>
      <trkpt lat="46.52025" lon="0.36312">
        <ele>121</ele>
        <time>2022-09-11T06:35:01Z</time>
      </trkpt>
      <trkpt lat="46.5204" lon="0.36305">
        <ele>119.6</ele>
        <time>2022-09-11T06:35:03Z</time>
      </trkpt>
      <trkpt lat="46.52046" lon="0.36302">
        <ele>118.4</ele>
        <time>2022-09-11T06:35:04Z</time>
      </trkpt>
      <trkpt lat="46.52057" lon="0.36294">
        <ele>117.4</ele>
        <time>2022-09-11T06:35:06Z</time>
      </trkpt>
      <trkpt lat="46.52067" lon="0.36289">
        <ele>115.8</ele>
        <time>2022-09-11T06:35:09Z</time>
      </trkpt>
      <trkpt lat="46.5207" lon="0.3629">
        <ele>115.4</ele>
        <time>2022-09-11T06:35:11Z</time>
      </trkpt>
      <trkpt lat="46.52074" lon="0.36294">
        <ele>115.2</ele>
        <time>2022-09-11T06:35:13Z</time>
      </trkpt>
      <trkpt lat="46.5208" lon="0.36301">
        <ele>114.8</ele>
        <time>2022-09-11T06:35:16Z</time>
      </trkpt>
      <trkpt lat="46.52082" lon="0.3631">
        <ele>114.4</ele>
        <time>2022-09-11T06:35:18Z</time>
      </trkpt>
      <trkpt lat="46.52083" lon="0.36316">
        <ele>114.4</ele>
        <time>2022-09-11T06:35:19Z</time>
      </trkpt>
      <trkpt lat="46.52088" lon="0.36331">
        <ele>114</ele>
        <time>2022-09-11T06:35:21Z</time>
      </trkpt>
      <trkpt lat="46.52089" lon="0.36339">
        <ele>113.6</ele>
        <time>2022-09-11T06:35:22Z</time>
      </trkpt>
      <trkpt lat="46.52094" lon="0.36385">
        <ele>112.6</ele>
        <time>2022-09-11T06:35:27Z</time>
      </trkpt>
      <trkpt lat="46.52097" lon="0.36395">
        <ele>112.4</ele>
        <time>2022-09-11T06:35:28Z</time>
      </trkpt>
      <trkpt lat="46.52107" lon="0.36424">
        <ele>111.6</ele>
        <time>2022-09-11T06:35:31Z</time>
      </trkpt>
      <trkpt lat="46.52111" lon="0.36445">
        <ele>110.2</ele>
        <time>2022-09-11T06:35:33Z</time>
      </trkpt>
      <trkpt lat="46.52112" lon="0.36456">
        <ele>109.8</ele>
        <time>2022-09-11T06:35:34Z</time>
      </trkpt>
      <trkpt lat="46.52119" lon="0.36486">
        <ele>108.8</ele>
        <time>2022-09-11T06:35:37Z</time>
      </trkpt>
      <trkpt lat="46.52128" lon="0.36511">
        <ele>107.8</ele>
        <time>2022-09-11T06:35:40Z</time>
      </trkpt>
      <trkpt lat="46.52135" lon="0.36535">
        <ele>106.4</ele>
        <time>2022-09-11T06:35:43Z</time>
      </trkpt>
      <trkpt lat="46.52141" lon="0.36552">
        <ele>105.6</ele>
        <time>2022-09-11T06:35:45Z</time>
      </trkpt>
      <trkpt lat="46.52148" lon="0.36568">
        <ele>104.8</ele>
        <time>2022-09-11T06:35:47Z</time>
      </trkpt>
      <trkpt lat="46.5216" lon="0.36582">
        <ele>104</ele>
        <time>2022-09-11T06:35:49Z</time>
      </trkpt>
      <trkpt lat="46.52166" lon="0.36589">
        <ele>103.4</ele>
        <time>2022-09-11T06:35:50Z</time>
      </trkpt>
      <trkpt lat="46.52185" lon="0.36605">
        <ele>102.4</ele>
        <time>2022-09-11T06:35:53Z</time>
      </trkpt>
      <trkpt lat="46.52191" lon="0.36609">
        <ele>102.4</ele>
        <time>2022-09-11T06:35:54Z</time>
      </trkpt>
      <trkpt lat="46.52201" lon="0.36611">
        <ele>102.4</ele>
        <time>2022-09-11T06:35:56Z</time>
      </trkpt>
      <trkpt lat="46.52205" lon="0.3661">
        <ele>102.4</ele>
        <time>2022-09-11T06:35:57Z</time>
      </trkpt>
      <trkpt lat="46.52216" lon="0.36611">
        <ele>103.4</ele>
        <time>2022-09-11T06:36:01Z</time>
      </trkpt>
      <trkpt lat="46.52221" lon="0.36612">
        <ele>104.6</ele>
        <time>2022-09-11T06:36:03Z</time>
      </trkpt>
      <trkpt lat="46.52226" lon="0.36615">
        <ele>105.8</ele>
        <time>2022-09-11T06:36:06Z</time>
      </trkpt>
      <trkpt lat="46.52227" lon="0.36616">
        <ele>106.4</ele>
        <time>2022-09-11T06:36:07Z</time>
      </trkpt>
      <trkpt lat="46.5223" lon="0.3662">
        <ele>106.8</ele>
        <time>2022-09-11T06:36:09Z</time>
      </trkpt>
      <trkpt lat="46.52241" lon="0.36628">
        <ele>107.6</ele>
        <time>2022-09-11T06:36:13Z</time>
      </trkpt>
      <trkpt lat="46.52248" lon="0.36633">
        <ele>107.8</ele>
        <time>2022-09-11T06:36:16Z</time>
      </trkpt>
      <trkpt lat="46.52257" lon="0.3664">
        <ele>108.2</ele>
        <time>2022-09-11T06:36:20Z</time>
      </trkpt>
      <trkpt lat="46.52271" lon="0.36648">
        <ele>109</ele>
        <time>2022-09-11T06:36:26Z</time>
      </trkpt>
      <trkpt lat="46.52277" lon="0.36651">
        <ele>110.2</ele>
        <time>2022-09-11T06:36:29Z</time>
      </trkpt>
      <trkpt lat="46.52282" lon="0.36653">
        <ele>110.6</ele>
        <time>2022-09-11T06:36:32Z</time>
      </trkpt>
      <trkpt lat="46.52289" lon="0.36653">
        <ele>111.2</ele>
        <time>2022-09-11T06:36:35Z</time>
      </trkpt>
      <trkpt lat="46.52295" lon="0.36653">
        <ele>112.4</ele>
        <time>2022-09-11T06:36:37Z</time>
      </trkpt>
      <trkpt lat="46.523" lon="0.36651">
        <ele>113</ele>
        <time>2022-09-11T06:36:39Z</time>
      </trkpt>
      <trkpt lat="46.52306" lon="0.36651">
        <ele>113.8</ele>
        <time>2022-09-11T06:36:41Z</time>
      </trkpt>
      <trkpt lat="46.52315" lon="0.36653">
        <ele>114.8</ele>
        <time>2022-09-11T06:36:44Z</time>
      </trkpt>
      <trkpt lat="46.52319" lon="0.36654">
        <ele>115.2</ele>
        <time>2022-09-11T06:36:45Z</time>
      </trkpt>
      <trkpt lat="46.52335" lon="0.36661">
        <ele>115.6</ele>
        <time>2022-09-11T06:36:51Z</time>
      </trkpt>
      <trkpt lat="46.5234" lon="0.36663">
        <ele>116</ele>
        <time>2022-09-11T06:36:53Z</time>
      </trkpt>
      <trkpt lat="46.5235" lon="0.36662">
        <ele>116.6</ele>
        <time>2022-09-11T06:36:57Z</time>
      </trkpt>
      <trkpt lat="46.52354" lon="0.36656">
        <ele>116.8</ele>
        <time>2022-09-11T06:36:59Z</time>
      </trkpt>
      <trkpt lat="46.52357" lon="0.36646">
        <ele>116.8</ele>
        <time>2022-09-11T06:37:02Z</time>
      </trkpt>
      <trkpt lat="46.52358" lon="0.36643">
        <ele>117</ele>
        <time>2022-09-11T06:37:03Z</time>
      </trkpt>
      <trkpt lat="46.5236" lon="0.3662">
        <ele>118</ele>
        <time>2022-09-11T06:37:09Z</time>
      </trkpt>
      <trkpt lat="46.5236" lon="0.36611">
        <ele>118.4</ele>
        <time>2022-09-11T06:37:11Z</time>
      </trkpt>
      <trkpt lat="46.52361" lon="0.36593">
        <ele>119</ele>
        <time>2022-09-11T06:37:15Z</time>
      </trkpt>
      <trkpt lat="46.52364" lon="0.36578">
        <ele>119.4</ele>
        <time>2022-09-11T06:37:18Z</time>
      </trkpt>
      <trkpt lat="46.52367" lon="0.3656">
        <ele>120</ele>
        <time>2022-09-11T06:37:22Z</time>
      </trkpt>
      <trkpt lat="46.52371" lon="0.36547">
        <ele>120.4</ele>
        <time>2022-09-11T06:37:25Z</time>
      </trkpt>
      <trkpt lat="46.52374" lon="0.36514">
        <ele>120.8</ele>
        <time>2022-09-11T06:37:31Z</time>
      </trkpt>
      <trkpt lat="46.52381" lon="0.36481">
        <ele>121</ele>
        <time>2022-09-11T06:37:38Z</time>
      </trkpt>
      <trkpt lat="46.52381" lon="0.36472">
        <ele>121</ele>
        <time>2022-09-11T06:37:41Z</time>
      </trkpt>
      <trkpt lat="46.52385" lon="0.36465">
        <ele>120.8</ele>
        <time>2022-09-11T06:37:45Z</time>
      </trkpt>
      <trkpt lat="46.52394" lon="0.36436">
        <ele>120.6</ele>
        <time>2022-09-11T06:37:50Z</time>
      </trkpt>
      <trkpt lat="46.52397" lon="0.36424">
        <ele>120.6</ele>
        <time>2022-09-11T06:37:52Z</time>
      </trkpt>
      <trkpt lat="46.52398" lon="0.36418">
        <ele>121</ele>
        <time>2022-09-11T06:37:53Z</time>
      </trkpt>
      <trkpt lat="46.52399" lon="0.364">
        <ele>121.6</ele>
        <time>2022-09-11T06:37:56Z</time>
      </trkpt>
      <trkpt lat="46.52397" lon="0.36374">
        <ele>122</ele>
        <time>2022-09-11T06:38:00Z</time>
      </trkpt>
      <trkpt lat="46.52397" lon="0.36368">
        <ele>122.2</ele>
        <time>2022-09-11T06:38:01Z</time>
      </trkpt>
      <trkpt lat="46.52395" lon="0.36355">
        <ele>122.6</ele>
        <time>2022-09-11T06:38:03Z</time>
      </trkpt>
      <trkpt lat="46.52391" lon="0.36318">
        <ele>123</ele>
        <time>2022-09-11T06:38:09Z</time>
      </trkpt>
      <trkpt lat="46.5239" lon="0.36312">
        <ele>123.4</ele>
        <time>2022-09-11T06:38:10Z</time>
      </trkpt>
      <trkpt lat="46.52388" lon="0.36289">
        <ele>123.4</ele>
        <time>2022-09-11T06:38:14Z</time>
      </trkpt>
      <trkpt lat="46.52389" lon="0.36283">
        <ele>123.4</ele>
        <time>2022-09-11T06:38:15Z</time>
      </trkpt>
      <trkpt lat="46.5239" lon="0.36277">
        <ele>123.4</ele>
        <time>2022-09-11T06:38:16Z</time>
      </trkpt>
      <trkpt lat="46.52395" lon="0.36258">
        <ele>123.4</ele>
        <time>2022-09-11T06:38:19Z</time>
      </trkpt>
      <trkpt lat="46.52397" lon="0.3625">
        <ele>123.4</ele>
        <time>2022-09-11T06:38:20Z</time>
      </trkpt>
      <trkpt lat="46.52403" lon="0.36226">
        <ele>122.8</ele>
        <time>2022-09-11T06:38:23Z</time>
      </trkpt>
      <trkpt lat="46.52408" lon="0.362">
        <ele>122.6</ele>
        <time>2022-09-11T06:38:26Z</time>
      </trkpt>
      <trkpt lat="46.52422" lon="0.36156">
        <ele>122.6</ele>
        <time>2022-09-11T06:38:32Z</time>
      </trkpt>
      <trkpt lat="46.52427" lon="0.36144">
        <ele>122.6</ele>
        <time>2022-09-11T06:38:34Z</time>
      </trkpt>
      <trkpt lat="46.52432" lon="0.36132">
        <ele>123.2</ele>
        <time>2022-09-11T06:38:36Z</time>
      </trkpt>
      <trkpt lat="46.52435" lon="0.36126">
        <ele>123.4</ele>
        <time>2022-09-11T06:38:37Z</time>
      </trkpt>
      <trkpt lat="46.52437" lon="0.36119">
        <ele>123.6</ele>
        <time>2022-09-11T06:38:38Z</time>
      </trkpt>
      <trkpt lat="46.52446" lon="0.36092">
        <ele>123.8</ele>
        <time>2022-09-11T06:38:42Z</time>
      </trkpt>
      <trkpt lat="46.52447" lon="0.36086">
        <ele>124</ele>
        <time>2022-09-11T06:38:43Z</time>
      </trkpt>
      <trkpt lat="46.52448" lon="0.3608">
        <ele>124.4</ele>
        <time>2022-09-11T06:38:44Z</time>
      </trkpt>
      <trkpt lat="46.52452" lon="0.36067">
        <ele>125</ele>
        <time>2022-09-11T06:38:46Z</time>
      </trkpt>
      <trkpt lat="46.52454" lon="0.36061">
        <ele>125.2</ele>
        <time>2022-09-11T06:38:47Z</time>
      </trkpt>
      <trkpt lat="46.52456" lon="0.36055">
        <ele>125.4</ele>
        <time>2022-09-11T06:38:48Z</time>
      </trkpt>
      <trkpt lat="46.52463" lon="0.36028">
        <ele>126.4</ele>
        <time>2022-09-11T06:38:53Z</time>
      </trkpt>
      <trkpt lat="46.52466" lon="0.36015">
        <ele>126.8</ele>
        <time>2022-09-11T06:38:55Z</time>
      </trkpt>
      <trkpt lat="46.52467" lon="0.36009">
        <ele>127</ele>
        <time>2022-09-11T06:38:56Z</time>
      </trkpt>
      <trkpt lat="46.52473" lon="0.35992">
        <ele>127.4</ele>
        <time>2022-09-11T06:38:59Z</time>
      </trkpt>
      <trkpt lat="46.52482" lon="0.35963">
        <ele>127.6</ele>
        <time>2022-09-11T06:39:04Z</time>
      </trkpt>
      <trkpt lat="46.52484" lon="0.35956">
        <ele>127.4</ele>
        <time>2022-09-11T06:39:05Z</time>
      </trkpt>
      <trkpt lat="46.5249" lon="0.35936">
        <ele>126.8</ele>
        <time>2022-09-11T06:39:08Z</time>
      </trkpt>
      <trkpt lat="46.52495" lon="0.35921">
        <ele>126.6</ele>
        <time>2022-09-11T06:39:10Z</time>
      </trkpt>
      <trkpt lat="46.52498" lon="0.35903">
        <ele>126.4</ele>
        <time>2022-09-11T06:39:12Z</time>
      </trkpt>
      <trkpt lat="46.52505" lon="0.35879">
        <ele>125.8</ele>
        <time>2022-09-11T06:39:15Z</time>
      </trkpt>
      <trkpt lat="46.52515" lon="0.35845">
        <ele>124.2</ele>
        <time>2022-09-11T06:39:19Z</time>
      </trkpt>
      <trkpt lat="46.52517" lon="0.35835">
        <ele>123.8</ele>
        <time>2022-09-11T06:39:20Z</time>
      </trkpt>
      <trkpt lat="46.52519" lon="0.35825">
        <ele>123.6</ele>
        <time>2022-09-11T06:39:21Z</time>
      </trkpt>
      <trkpt lat="46.5252" lon="0.35803">
        <ele>123.2</ele>
        <time>2022-09-11T06:39:23Z</time>
      </trkpt>
      <trkpt lat="46.5252" lon="0.3579">
        <ele>122.8</ele>
        <time>2022-09-11T06:39:24Z</time>
      </trkpt>
      <trkpt lat="46.52519" lon="0.3578">
        <ele>122.6</ele>
        <time>2022-09-11T06:39:25Z</time>
      </trkpt>
      <trkpt lat="46.52518" lon="0.3577">
        <ele>121.6</ele>
        <time>2022-09-11T06:39:26Z</time>
      </trkpt>
      <trkpt lat="46.52517" lon="0.35762">
        <ele>120.2</ele>
        <time>2022-09-11T06:39:27Z</time>
      </trkpt>
      <trkpt lat="46.52517" lon="0.35755">
        <ele>119</ele>
        <time>2022-09-11T06:39:28Z</time>
      </trkpt>
      <trkpt lat="46.52517" lon="0.35749">
        <ele>118.4</ele>
        <time>2022-09-11T06:39:29Z</time>
      </trkpt>
      <trkpt lat="46.52518" lon="0.35745">
        <ele>118</ele>
        <time>2022-09-11T06:39:30Z</time>
      </trkpt>
      <trkpt lat="46.52521" lon="0.35744">
        <ele>117.4</ele>
        <time>2022-09-11T06:39:31Z</time>
      </trkpt>
      <trkpt lat="46.52525" lon="0.35743">
        <ele>117</ele>
        <time>2022-09-11T06:39:32Z</time>
      </trkpt>
      <trkpt lat="46.52529" lon="0.35743">
        <ele>116.8</ele>
        <time>2022-09-11T06:39:33Z</time>
      </trkpt>
      <trkpt lat="46.52539" lon="0.35745">
        <ele>116.6</ele>
        <time>2022-09-11T06:39:35Z</time>
      </trkpt>
      <trkpt lat="46.52544" lon="0.35747">
        <ele>116</ele>
        <time>2022-09-11T06:39:36Z</time>
      </trkpt>
      <trkpt lat="46.52548" lon="0.35749">
        <ele>115.6</ele>
        <time>2022-09-11T06:39:37Z</time>
      </trkpt>
      <trkpt lat="46.52566" lon="0.35761">
        <ele>114.8</ele>
        <time>2022-09-11T06:39:41Z</time>
      </trkpt>
      <trkpt lat="46.5257" lon="0.35764">
        <ele>114</ele>
        <time>2022-09-11T06:39:42Z</time>
      </trkpt>
      <trkpt lat="46.52582" lon="0.35778">
        <ele>113</ele>
        <time>2022-09-11T06:39:45Z</time>
      </trkpt>
      <trkpt lat="46.52586" lon="0.35783">
        <ele>112.6</ele>
        <time>2022-09-11T06:39:46Z</time>
      </trkpt>
      <trkpt lat="46.52603" lon="0.35798">
        <ele>111.8</ele>
        <time>2022-09-11T06:39:49Z</time>
      </trkpt>
      <trkpt lat="46.52627" lon="0.35827">
        <ele>110.6</ele>
        <time>2022-09-11T06:39:54Z</time>
      </trkpt>
      <trkpt lat="46.52634" lon="0.35834">
        <ele>109.4</ele>
        <time>2022-09-11T06:39:56Z</time>
      </trkpt>
      <trkpt lat="46.52642" lon="0.35842">
        <ele>108.4</ele>
        <time>2022-09-11T06:39:58Z</time>
      </trkpt>
      <trkpt lat="46.52649" lon="0.35851">
        <ele>107.6</ele>
        <time>2022-09-11T06:40:00Z</time>
      </trkpt>
      <trkpt lat="46.52649" lon="0.35851">
        <ele>107.4</ele>
        <time>2022-09-11T06:40:02Z</time>
      </trkpt>
      <trkpt lat="46.52661" lon="0.35872">
        <ele>107.6</ele>
        <time>2022-09-11T06:40:03Z</time>
      </trkpt>
      <trkpt lat="46.52681" lon="0.35913">
        <ele>107.6</ele>
        <time>2022-09-11T06:40:08Z</time>
      </trkpt>
      <trkpt lat="46.52693" lon="0.35936">
        <ele>105.8</ele>
        <time>2022-09-11T06:40:11Z</time>
      </trkpt>
      <trkpt lat="46.52701" lon="0.35959">
        <ele>104.4</ele>
        <time>2022-09-11T06:40:14Z</time>
      </trkpt>
      <trkpt lat="46.52706" lon="0.35974">
        <ele>103.8</ele>
        <time>2022-09-11T06:40:16Z</time>
      </trkpt>
      <trkpt lat="46.5271" lon="0.3599">
        <ele>103.6</ele>
        <time>2022-09-11T06:40:18Z</time>
      </trkpt>
      <trkpt lat="46.52711" lon="0.35999">
        <ele>103.2</ele>
        <time>2022-09-11T06:40:19Z</time>
      </trkpt>
      <trkpt lat="46.52714" lon="0.36015">
        <ele>103</ele>
        <time>2022-09-11T06:40:21Z</time>
      </trkpt>
      <trkpt lat="46.52719" lon="0.36027">
        <ele>103</ele>
        <time>2022-09-11T06:40:23Z</time>
      </trkpt>
      <trkpt lat="46.52728" lon="0.3604">
        <ele>102.8</ele>
        <time>2022-09-11T06:40:25Z</time>
      </trkpt>
      <trkpt lat="46.52751" lon="0.36067">
        <ele>102</ele>
        <time>2022-09-11T06:40:29Z</time>
      </trkpt>
      <trkpt lat="46.52757" lon="0.36075">
        <ele>102</ele>
        <time>2022-09-11T06:40:30Z</time>
      </trkpt>
      <trkpt lat="46.52791" lon="0.3611">
        <ele>101</ele>
        <time>2022-09-11T06:40:35Z</time>
      </trkpt>
      <trkpt lat="46.528" lon="0.36125">
        <ele>100.2</ele>
        <time>2022-09-11T06:40:37Z</time>
      </trkpt>
      <trkpt lat="46.52803" lon="0.36133">
        <ele>100</ele>
        <time>2022-09-11T06:40:38Z</time>
      </trkpt>
      <trkpt lat="46.52806" lon="0.36152">
        <ele>99.6</ele>
        <time>2022-09-11T06:40:40Z</time>
      </trkpt>
      <trkpt lat="46.52806" lon="0.36162">
        <ele>99.4</ele>
        <time>2022-09-11T06:40:41Z</time>
      </trkpt>
      <trkpt lat="46.52808" lon="0.36172">
        <ele>98.8</ele>
        <time>2022-09-11T06:40:42Z</time>
      </trkpt>
      <trkpt lat="46.52812" lon="0.36198">
        <ele>97.8</ele>
        <time>2022-09-11T06:40:45Z</time>
      </trkpt>
      <trkpt lat="46.52813" lon="0.36205">
        <ele>97.8</ele>
        <time>2022-09-11T06:40:46Z</time>
      </trkpt>
      <trkpt lat="46.52817" lon="0.36211">
        <ele>97.6</ele>
        <time>2022-09-11T06:40:47Z</time>
      </trkpt>
      <trkpt lat="46.5283" lon="0.36215">
        <ele>97.6</ele>
        <time>2022-09-11T06:40:50Z</time>
      </trkpt>
      <trkpt lat="46.52862" lon="0.36219">
        <ele>97.6</ele>
        <time>2022-09-11T06:40:56Z</time>
      </trkpt>
      <trkpt lat="46.5287" lon="0.3622">
        <ele>98.4</ele>
        <time>2022-09-11T06:40:58Z</time>
      </trkpt>
      <trkpt lat="46.52874" lon="0.3622">
        <ele>99</ele>
        <time>2022-09-11T06:40:59Z</time>
      </trkpt>
      <trkpt lat="46.52877" lon="0.36219">
        <ele>99.4</ele>
        <time>2022-09-11T06:41:00Z</time>
      </trkpt>
      <trkpt lat="46.52884" lon="0.36216">
        <ele>100.4</ele>
        <time>2022-09-11T06:41:03Z</time>
      </trkpt>
      <trkpt lat="46.52888" lon="0.3621">
        <ele>101.2</ele>
        <time>2022-09-11T06:41:05Z</time>
      </trkpt>
      <trkpt lat="46.5289" lon="0.36207">
        <ele>101.6</ele>
        <time>2022-09-11T06:41:06Z</time>
      </trkpt>
      <trkpt lat="46.52893" lon="0.36198">
        <ele>103</ele>
        <time>2022-09-11T06:41:09Z</time>
      </trkpt>
      <trkpt lat="46.52896" lon="0.36192">
        <ele>103.8</ele>
        <time>2022-09-11T06:41:11Z</time>
      </trkpt>
      <trkpt lat="46.52897" lon="0.36189">
        <ele>104.2</ele>
        <time>2022-09-11T06:41:12Z</time>
      </trkpt>
      <trkpt lat="46.52909" lon="0.36167">
        <ele>105.4</ele>
        <time>2022-09-11T06:41:18Z</time>
      </trkpt>
      <trkpt lat="46.52923" lon="0.36138">
        <ele>106.4</ele>
        <time>2022-09-11T06:41:26Z</time>
      </trkpt>
      <trkpt lat="46.52935" lon="0.36116">
        <ele>107.4</ele>
        <time>2022-09-11T06:41:34Z</time>
      </trkpt>
      <trkpt lat="46.52947" lon="0.36106">
        <ele>108.4</ele>
        <time>2022-09-11T06:41:40Z</time>
      </trkpt>
      <trkpt lat="46.52949" lon="0.36105">
        <ele>108.6</ele>
        <time>2022-09-11T06:41:41Z</time>
      </trkpt>
      <trkpt lat="46.5296" lon="0.36098">
        <ele>109.6</ele>
        <time>2022-09-11T06:41:46Z</time>
      </trkpt>
      <trkpt lat="46.52972" lon="0.36093">
        <ele>110.4</ele>
        <time>2022-09-11T06:41:51Z</time>
      </trkpt>
      <trkpt lat="46.52974" lon="0.36093">
        <ele>110.8</ele>
        <time>2022-09-11T06:41:52Z</time>
      </trkpt>
      <trkpt lat="46.52988" lon="0.36095">
        <ele>111.6</ele>
        <time>2022-09-11T06:41:57Z</time>
      </trkpt>
      <trkpt lat="46.52995" lon="0.36095">
        <ele>111.8</ele>
        <time>2022-09-11T06:41:59Z</time>
      </trkpt>
      <trkpt lat="46.53008" lon="0.36091">
        <ele>111.8</ele>
        <time>2022-09-11T06:42:03Z</time>
      </trkpt>
      <trkpt lat="46.53033" lon="0.36083">
        <ele>111.2</ele>
        <time>2022-09-11T06:42:09Z</time>
      </trkpt>
      <trkpt lat="46.5304" lon="0.36079">
        <ele>111.2</ele>
        <time>2022-09-11T06:42:11Z</time>
      </trkpt>
      <trkpt lat="46.53054" lon="0.36077">
        <ele>111.4</ele>
        <time>2022-09-11T06:42:15Z</time>
      </trkpt>
      <trkpt lat="46.53073" lon="0.36075">
        <ele>112.2</ele>
        <time>2022-09-11T06:42:21Z</time>
      </trkpt>
      <trkpt lat="46.53088" lon="0.36063">
        <ele>113</ele>
        <time>2022-09-11T06:42:26Z</time>
      </trkpt>
      <trkpt lat="46.53097" lon="0.3605">
        <ele>113.2</ele>
        <time>2022-09-11T06:42:30Z</time>
      </trkpt>
      <trkpt lat="46.53101" lon="0.36044">
        <ele>113.2</ele>
        <time>2022-09-11T06:42:32Z</time>
      </trkpt>
      <trkpt lat="46.53104" lon="0.36041">
        <ele>113</ele>
        <time>2022-09-11T06:42:33Z</time>
      </trkpt>
      <trkpt lat="46.53121" lon="0.3603">
        <ele>112.4</ele>
        <time>2022-09-11T06:42:38Z</time>
      </trkpt>
      <trkpt lat="46.53125" lon="0.36027">
        <ele>112.2</ele>
        <time>2022-09-11T06:42:39Z</time>
      </trkpt>
      <trkpt lat="46.53128" lon="0.36024">
        <ele>111.8</ele>
        <time>2022-09-11T06:42:40Z</time>
      </trkpt>
      <trkpt lat="46.53138" lon="0.36018">
        <ele>110.8</ele>
        <time>2022-09-11T06:42:42Z</time>
      </trkpt>
      <trkpt lat="46.53143" lon="0.36015">
        <ele>110.4</ele>
        <time>2022-09-11T06:42:43Z</time>
      </trkpt>
      <trkpt lat="46.53143" lon="0.36015">
        <ele>109.4</ele>
        <time>2022-09-11T06:42:44Z</time>
      </trkpt>
      <trkpt lat="46.53151" lon="0.36012">
        <ele>109.4</ele>
        <time>2022-09-11T06:42:45Z</time>
      </trkpt>
      <trkpt lat="46.5316" lon="0.36011">
        <ele>107.8</ele>
        <time>2022-09-11T06:42:47Z</time>
      </trkpt>
      <trkpt lat="46.53166" lon="0.36014">
        <ele>106.8</ele>
        <time>2022-09-11T06:42:49Z</time>
      </trkpt>
      <trkpt lat="46.53169" lon="0.36018">
        <ele>106.4</ele>
        <time>2022-09-11T06:42:50Z</time>
      </trkpt>
      <trkpt lat="46.5318" lon="0.36048">
        <ele>106</ele>
        <time>2022-09-11T06:42:55Z</time>
      </trkpt>
      <trkpt lat="46.53186" lon="0.36062">
        <ele>105.6</ele>
        <time>2022-09-11T06:42:57Z</time>
      </trkpt>
      <trkpt lat="46.53199" lon="0.36085">
        <ele>105.4</ele>
        <time>2022-09-11T06:43:00Z</time>
      </trkpt>
      <trkpt lat="46.53205" lon="0.36091">
        <ele>105.2</ele>
        <time>2022-09-11T06:43:01Z</time>
      </trkpt>
      <trkpt lat="46.53216" lon="0.36098">
        <ele>104.2</ele>
        <time>2022-09-11T06:43:03Z</time>
      </trkpt>
      <trkpt lat="46.53233" lon="0.3609">
        <ele>103.2</ele>
        <time>2022-09-11T06:43:06Z</time>
      </trkpt>
      <trkpt lat="46.5324" lon="0.36087">
        <ele>102.8</ele>
        <time>2022-09-11T06:43:07Z</time>
      </trkpt>
      <trkpt lat="46.53265" lon="0.36077">
        <ele>103.2</ele>
        <time>2022-09-11T06:43:12Z</time>
      </trkpt>
      <trkpt lat="46.53268" lon="0.36074">
        <ele>103.6</ele>
        <time>2022-09-11T06:43:13Z</time>
      </trkpt>
      <trkpt lat="46.53273" lon="0.36071">
        <ele>104</ele>
        <time>2022-09-11T06:43:15Z</time>
      </trkpt>
      <trkpt lat="46.53276" lon="0.36071">
        <ele>104.4</ele>
        <time>2022-09-11T06:43:16Z</time>
      </trkpt>
      <trkpt lat="46.53281" lon="0.3607">
        <ele>105.2</ele>
        <time>2022-09-11T06:43:18Z</time>
      </trkpt>
      <trkpt lat="46.53287" lon="0.36068">
        <ele>106.4</ele>
        <time>2022-09-11T06:43:21Z</time>
      </trkpt>
      <trkpt lat="46.53289" lon="0.36068">
        <ele>107</ele>
        <time>2022-09-11T06:43:22Z</time>
      </trkpt>
      <trkpt lat="46.53291" lon="0.36067">
        <ele>107.4</ele>
        <time>2022-09-11T06:43:23Z</time>
      </trkpt>
      <trkpt lat="46.53295" lon="0.36066">
        <ele>108.4</ele>
        <time>2022-09-11T06:43:25Z</time>
      </trkpt>
      <trkpt lat="46.53304" lon="0.36063">
        <ele>109.2</ele>
        <time>2022-09-11T06:43:29Z</time>
      </trkpt>
      <trkpt lat="46.53309" lon="0.36063">
        <ele>109.6</ele>
        <time>2022-09-11T06:43:31Z</time>
      </trkpt>
      <trkpt lat="46.53318" lon="0.36062">
        <ele>111.2</ele>
        <time>2022-09-11T06:43:35Z</time>
      </trkpt>
      <trkpt lat="46.53326" lon="0.36062">
        <ele>112.2</ele>
        <time>2022-09-11T06:43:38Z</time>
      </trkpt>
      <trkpt lat="46.53329" lon="0.36062">
        <ele>112.4</ele>
        <time>2022-09-11T06:43:39Z</time>
      </trkpt>
      <trkpt lat="46.53335" lon="0.36063">
        <ele>113.2</ele>
        <time>2022-09-11T06:43:42Z</time>
      </trkpt>
      <trkpt lat="46.53338" lon="0.36065">
        <ele>113.4</ele>
        <time>2022-09-11T06:43:44Z</time>
      </trkpt>
      <trkpt lat="46.53352" lon="0.36071">
        <ele>114.8</ele>
        <time>2022-09-11T06:43:51Z</time>
      </trkpt>
      <trkpt lat="46.53362" lon="0.36078">
        <ele>115.8</ele>
        <time>2022-09-11T06:43:56Z</time>
      </trkpt>
      <trkpt lat="46.53364" lon="0.3608">
        <ele>116</ele>
        <time>2022-09-11T06:43:57Z</time>
      </trkpt>
      <trkpt lat="46.53377" lon="0.36091">
        <ele>117</ele>
        <time>2022-09-11T06:44:03Z</time>
      </trkpt>
      <trkpt lat="46.53379" lon="0.36093">
        <ele>117</ele>
        <time>2022-09-11T06:44:04Z</time>
      </trkpt>
      <trkpt lat="46.53391" lon="0.36103">
        <ele>118</ele>
        <time>2022-09-11T06:44:09Z</time>
      </trkpt>
      <trkpt lat="46.53398" lon="0.36109">
        <ele>118.2</ele>
        <time>2022-09-11T06:44:12Z</time>
      </trkpt>
      <trkpt lat="46.53413" lon="0.36119">
        <ele>119</ele>
        <time>2022-09-11T06:44:18Z</time>
      </trkpt>
      <trkpt lat="46.53433" lon="0.36138">
        <ele>119.6</ele>
        <time>2022-09-11T06:44:25Z</time>
      </trkpt>
      <trkpt lat="46.53458" lon="0.36164">
        <ele>119.6</ele>
        <time>2022-09-11T06:44:32Z</time>
      </trkpt>
      <trkpt lat="46.53474" lon="0.36179">
        <ele>119.8</ele>
        <time>2022-09-11T06:44:36Z</time>
      </trkpt>
      <trkpt lat="46.53485" lon="0.36184">
        <ele>119.8</ele>
        <time>2022-09-11T06:44:38Z</time>
      </trkpt>
      <trkpt lat="46.535" lon="0.36187">
        <ele>120</ele>
        <time>2022-09-11T06:44:41Z</time>
      </trkpt>
      <trkpt lat="46.53516" lon="0.36187">
        <ele>120</ele>
        <time>2022-09-11T06:44:44Z</time>
      </trkpt>
      <trkpt lat="46.53526" lon="0.36187">
        <ele>120.8</ele>
        <time>2022-09-11T06:44:46Z</time>
      </trkpt>
      <trkpt lat="46.53531" lon="0.36188">
        <ele>121.2</ele>
        <time>2022-09-11T06:44:47Z</time>
      </trkpt>
      <trkpt lat="46.53536" lon="0.36189">
        <ele>121.2</ele>
        <time>2022-09-11T06:44:48Z</time>
      </trkpt>
      <trkpt lat="46.53545" lon="0.36194">
        <ele>121.4</ele>
        <time>2022-09-11T06:44:50Z</time>
      </trkpt>
      <trkpt lat="46.53554" lon="0.362">
        <ele>121.4</ele>
        <time>2022-09-11T06:44:52Z</time>
      </trkpt>
      <trkpt lat="46.53567" lon="0.36209">
        <ele>121.4</ele>
        <time>2022-09-11T06:44:55Z</time>
      </trkpt>
      <trkpt lat="46.53576" lon="0.36215">
        <ele>121.2</ele>
        <time>2022-09-11T06:44:57Z</time>
      </trkpt>
      <trkpt lat="46.53584" lon="0.36223">
        <ele>120.8</ele>
        <time>2022-09-11T06:44:59Z</time>
      </trkpt>
      <trkpt lat="46.53588" lon="0.36228">
        <ele>120.8</ele>
        <time>2022-09-11T06:45:00Z</time>
      </trkpt>
      <trkpt lat="46.53592" lon="0.36234">
        <ele>120.8</ele>
        <time>2022-09-11T06:45:01Z</time>
      </trkpt>
      <trkpt lat="46.5361" lon="0.3626">
        <ele>120.4</ele>
        <time>2022-09-11T06:45:05Z</time>
      </trkpt>
      <trkpt lat="46.5362" lon="0.36271">
        <ele>120</ele>
        <time>2022-09-11T06:45:07Z</time>
      </trkpt>
      <trkpt lat="46.53643" lon="0.36296">
        <ele>119.6</ele>
        <time>2022-09-11T06:45:12Z</time>
      </trkpt>
      <trkpt lat="46.53664" lon="0.36318">
        <ele>119.4</ele>
        <time>2022-09-11T06:45:17Z</time>
      </trkpt>
      <trkpt lat="46.5368" lon="0.36334">
        <ele>119</ele>
        <time>2022-09-11T06:45:20Z</time>
      </trkpt>
      <trkpt lat="46.53698" lon="0.36348">
        <ele>118.8</ele>
        <time>2022-09-11T06:45:23Z</time>
      </trkpt>
      <trkpt lat="46.53731" lon="0.36377">
        <ele>119</ele>
        <time>2022-09-11T06:45:29Z</time>
      </trkpt>
      <trkpt lat="46.53769" lon="0.36405">
        <ele>119.6</ele>
        <time>2022-09-11T06:45:36Z</time>
      </trkpt>
      <trkpt lat="46.53778" lon="0.36414">
        <ele>120</ele>
        <time>2022-09-11T06:45:38Z</time>
      </trkpt>
      <trkpt lat="46.53808" lon="0.36439">
        <ele>120.6</ele>
        <time>2022-09-11T06:45:44Z</time>
      </trkpt>
      <trkpt lat="46.53825" lon="0.3645">
        <ele>119</ele>
        <time>2022-09-11T06:45:48Z</time>
      </trkpt>
      <trkpt lat="46.53828" lon="0.3645">
        <ele>118.8</ele>
        <time>2022-09-11T06:45:49Z</time>
      </trkpt>
      <trkpt lat="46.53831" lon="0.36448">
        <ele>118.6</ele>
        <time>2022-09-11T06:45:50Z</time>
      </trkpt>
      <trkpt lat="46.53836" lon="0.36442">
        <ele>118.6</ele>
        <time>2022-09-11T06:45:52Z</time>
      </trkpt>
      <trkpt lat="46.53836" lon="0.36424">
        <ele>119</ele>
        <time>2022-09-11T06:45:55Z</time>
      </trkpt>
      <trkpt lat="46.53833" lon="0.36382">
        <ele>120.2</ele>
        <time>2022-09-11T06:46:01Z</time>
      </trkpt>
      <trkpt lat="46.53832" lon="0.36375">
        <ele>120.4</ele>
        <time>2022-09-11T06:46:02Z</time>
      </trkpt>
      <trkpt lat="46.53828" lon="0.36335">
        <ele>121.4</ele>
        <time>2022-09-11T06:46:08Z</time>
      </trkpt>
      <trkpt lat="46.53827" lon="0.36329">
        <ele>121.6</ele>
        <time>2022-09-11T06:46:09Z</time>
      </trkpt>
      <trkpt lat="46.53826" lon="0.36311">
        <ele>122</ele>
        <time>2022-09-11T06:46:12Z</time>
      </trkpt>
      <trkpt lat="46.53826" lon="0.36298">
        <ele>122.2</ele>
        <time>2022-09-11T06:46:14Z</time>
      </trkpt>
      <trkpt lat="46.53826" lon="0.36292">
        <ele>122.4</ele>
        <time>2022-09-11T06:46:15Z</time>
      </trkpt>
      <trkpt lat="46.53826" lon="0.36278">
        <ele>122.6</ele>
        <time>2022-09-11T06:46:17Z</time>
      </trkpt>
      <trkpt lat="46.53827" lon="0.36264">
        <ele>122.8</ele>
        <time>2022-09-11T06:46:19Z</time>
      </trkpt>
      <trkpt lat="46.53831" lon="0.36251">
        <ele>123</ele>
        <time>2022-09-11T06:46:21Z</time>
      </trkpt>
      <trkpt lat="46.53836" lon="0.36238">
        <ele>123.4</ele>
        <time>2022-09-11T06:46:23Z</time>
      </trkpt>
      <trkpt lat="46.53852" lon="0.36206">
        <ele>124</ele>
        <time>2022-09-11T06:46:28Z</time>
      </trkpt>
      <trkpt lat="46.53885" lon="0.36153">
        <ele>124</ele>
        <time>2022-09-11T06:46:36Z</time>
      </trkpt>
      <trkpt lat="46.53928" lon="0.3609">
        <ele>123.4</ele>
        <time>2022-09-11T06:46:45Z</time>
      </trkpt>
      <trkpt lat="46.53963" lon="0.36055">
        <ele>123</ele>
        <time>2022-09-11T06:46:51Z</time>
      </trkpt>
      <trkpt lat="46.53979" lon="0.36032">
        <ele>122.6</ele>
        <time>2022-09-11T06:46:54Z</time>
      </trkpt>
      <trkpt lat="46.53984" lon="0.36022">
        <ele>122.6</ele>
        <time>2022-09-11T06:46:55Z</time>
      </trkpt>
      <trkpt lat="46.53988" lon="0.36011">
        <ele>122.2</ele>
        <time>2022-09-11T06:46:56Z</time>
      </trkpt>
      <trkpt lat="46.53991" lon="0.35988">
        <ele>122</ele>
        <time>2022-09-11T06:46:58Z</time>
      </trkpt>
      <trkpt lat="46.53995" lon="0.3594">
        <ele>121</ele>
        <time>2022-09-11T06:47:02Z</time>
      </trkpt>
      <trkpt lat="46.53997" lon="0.35908">
        <ele>120.8</ele>
        <time>2022-09-11T06:47:05Z</time>
      </trkpt>
      <trkpt lat="46.54" lon="0.35855">
        <ele>121.6</ele>
        <time>2022-09-11T06:47:11Z</time>
      </trkpt>
      <trkpt lat="46.54001" lon="0.35831">
        <ele>122.2</ele>
        <time>2022-09-11T06:47:14Z</time>
      </trkpt>
      <trkpt lat="46.54003" lon="0.35785">
        <ele>123.2</ele>
        <time>2022-09-11T06:47:20Z</time>
      </trkpt>
      <trkpt lat="46.54004" lon="0.35777">
        <ele>123.2</ele>
        <time>2022-09-11T06:47:21Z</time>
      </trkpt>
      <trkpt lat="46.54012" lon="0.35727">
        <ele>124.2</ele>
        <time>2022-09-11T06:47:28Z</time>
      </trkpt>
      <trkpt lat="46.54013" lon="0.3572">
        <ele>124.4</ele>
        <time>2022-09-11T06:47:29Z</time>
      </trkpt>
      <trkpt lat="46.54024" lon="0.35669">
        <ele>124.8</ele>
        <time>2022-09-11T06:47:36Z</time>
      </trkpt>
      <trkpt lat="46.54039" lon="0.3563">
        <ele>125</ele>
        <time>2022-09-11T06:47:42Z</time>
      </trkpt>
      <trkpt lat="46.54048" lon="0.35611">
        <ele>125.2</ele>
        <time>2022-09-11T06:47:45Z</time>
      </trkpt>
      <trkpt lat="46.5407" lon="0.35566">
        <ele>125.2</ele>
        <time>2022-09-11T06:47:52Z</time>
      </trkpt>
      <trkpt lat="46.54092" lon="0.35515">
        <ele>125.2</ele>
        <time>2022-09-11T06:47:59Z</time>
      </trkpt>
      <trkpt lat="46.54101" lon="0.3549">
        <ele>125.2</ele>
        <time>2022-09-11T06:48:02Z</time>
      </trkpt>
      <trkpt lat="46.54101" lon="0.35471">
        <ele>125</ele>
        <time>2022-09-11T06:48:04Z</time>
      </trkpt>
      <trkpt lat="46.54103" lon="0.35452">
        <ele>124.8</ele>
        <time>2022-09-11T06:48:06Z</time>
      </trkpt>
      <trkpt lat="46.54105" lon="0.35444">
        <ele>124.6</ele>
        <time>2022-09-11T06:48:07Z</time>
      </trkpt>
      <trkpt lat="46.54109" lon="0.35437">
        <ele>124.6</ele>
        <time>2022-09-11T06:48:08Z</time>
      </trkpt>
      <trkpt lat="46.54127" lon="0.35411">
        <ele>124.4</ele>
        <time>2022-09-11T06:48:12Z</time>
      </trkpt>
      <trkpt lat="46.54147" lon="0.35384">
        <ele>124.6</ele>
        <time>2022-09-11T06:48:17Z</time>
      </trkpt>
      <trkpt lat="46.5415" lon="0.35379">
        <ele>124.6</ele>
        <time>2022-09-11T06:48:18Z</time>
      </trkpt>
      <trkpt lat="46.54158" lon="0.35362">
        <ele>124.8</ele>
        <time>2022-09-11T06:48:21Z</time>
      </trkpt>
      <trkpt lat="46.54165" lon="0.35352">
        <ele>124.8</ele>
        <time>2022-09-11T06:48:23Z</time>
      </trkpt>
      <trkpt lat="46.54181" lon="0.35338">
        <ele>124.4</ele>
        <time>2022-09-11T06:48:27Z</time>
      </trkpt>
      <trkpt lat="46.54184" lon="0.35333">
        <ele>124.4</ele>
        <time>2022-09-11T06:48:28Z</time>
      </trkpt>
      <trkpt lat="46.54188" lon="0.35329">
        <ele>124.4</ele>
        <time>2022-09-11T06:48:29Z</time>
      </trkpt>
      <trkpt lat="46.54194" lon="0.35321">
        <ele>124.4</ele>
        <time>2022-09-11T06:48:31Z</time>
      </trkpt>
      <trkpt lat="46.542" lon="0.35312">
        <ele>124.4</ele>
        <time>2022-09-11T06:48:33Z</time>
      </trkpt>
      <trkpt lat="46.54205" lon="0.35302">
        <ele>124.8</ele>
        <time>2022-09-11T06:48:35Z</time>
      </trkpt>
      <trkpt lat="46.5421" lon="0.35293">
        <ele>125</ele>
        <time>2022-09-11T06:48:37Z</time>
      </trkpt>
      <trkpt lat="46.54212" lon="0.35288">
        <ele>125.2</ele>
        <time>2022-09-11T06:48:38Z</time>
      </trkpt>
      <trkpt lat="46.54215" lon="0.35283">
        <ele>125.2</ele>
        <time>2022-09-11T06:48:39Z</time>
      </trkpt>
      <trkpt lat="46.54219" lon="0.35274">
        <ele>125.2</ele>
        <time>2022-09-11T06:48:41Z</time>
      </trkpt>
      <trkpt lat="46.54224" lon="0.35265">
        <ele>125.4</ele>
        <time>2022-09-11T06:48:43Z</time>
      </trkpt>
      <trkpt lat="46.54226" lon="0.3526">
        <ele>125.4</ele>
        <time>2022-09-11T06:48:44Z</time>
      </trkpt>
      <trkpt lat="46.54235" lon="0.35241">
        <ele>125.2</ele>
        <time>2022-09-11T06:48:48Z</time>
      </trkpt>
      <trkpt lat="46.54238" lon="0.35231">
        <ele>124.8</ele>
        <time>2022-09-11T06:48:52Z</time>
      </trkpt>
      <trkpt lat="46.54237" lon="0.35214">
        <ele>124.8</ele>
        <time>2022-09-11T06:48:57Z</time>
      </trkpt>
      <trkpt lat="46.54237" lon="0.35202">
        <ele>124.8</ele>
        <time>2022-09-11T06:49:00Z</time>
      </trkpt>
      <trkpt lat="46.54238" lon="0.35196">
        <ele>124.4</ele>
        <time>2022-09-11T06:49:02Z</time>
      </trkpt>
      <trkpt lat="46.54239" lon="0.35192">
        <ele>124.2</ele>
        <time>2022-09-11T06:49:03Z</time>
      </trkpt>
      <trkpt lat="46.54246" lon="0.35172">
        <ele>124</ele>
        <time>2022-09-11T06:49:08Z</time>
      </trkpt>
      <trkpt lat="46.54246" lon="0.35148">
        <ele>123.6</ele>
        <time>2022-09-11T06:49:13Z</time>
      </trkpt>
      <trkpt lat="46.54249" lon="0.35138">
        <ele>123.6</ele>
        <time>2022-09-11T06:49:15Z</time>
      </trkpt>
      <trkpt lat="46.5425" lon="0.35119">
        <ele>123</ele>
        <time>2022-09-11T06:49:18Z</time>
      </trkpt>
      <trkpt lat="46.54253" lon="0.35109">
        <ele>122.6</ele>
        <time>2022-09-11T06:49:20Z</time>
      </trkpt>
      <trkpt lat="46.54254" lon="0.35097">
        <ele>122.4</ele>
        <time>2022-09-11T06:49:24Z</time>
      </trkpt>
      <trkpt lat="46.54252" lon="0.35077">
        <ele>122</ele>
        <time>2022-09-11T06:49:29Z</time>
      </trkpt>
      <trkpt lat="46.54249" lon="0.35069">
        <ele>121.8</ele>
        <time>2022-09-11T06:49:31Z</time>
      </trkpt>
      <trkpt lat="46.54248" lon="0.35062">
        <ele>121.4</ele>
        <time>2022-09-11T06:49:33Z</time>
      </trkpt>
      <trkpt lat="46.54246" lon="0.35058">
        <ele>121</ele>
        <time>2022-09-11T06:49:34Z</time>
      </trkpt>
      <trkpt lat="46.54246" lon="0.35039">
        <ele>120.4</ele>
        <time>2022-09-11T06:49:39Z</time>
      </trkpt>
      <trkpt lat="46.54246" lon="0.35011">
        <ele>120.4</ele>
        <time>2022-09-11T06:49:45Z</time>
      </trkpt>
      <trkpt lat="46.5425" lon="0.35">
        <ele>120.4</ele>
        <time>2022-09-11T06:49:48Z</time>
      </trkpt>
      <trkpt lat="46.5425" lon="0.34999">
        <ele>120.4</ele>
        <time>2022-09-11T06:49:49Z</time>
      </trkpt>
      <trkpt lat="46.54258" lon="0.35003">
        <ele>120.6</ele>
        <time>2022-09-11T06:49:53Z</time>
      </trkpt>
      <trkpt lat="46.54267" lon="0.34996">
        <ele>120.8</ele>
        <time>2022-09-11T06:49:57Z</time>
      </trkpt>
      <trkpt lat="46.54278" lon="0.34985">
        <ele>121.8</ele>
        <time>2022-09-11T06:50:02Z</time>
      </trkpt>
      <trkpt lat="46.54282" lon="0.34984">
        <ele>121.8</ele>
        <time>2022-09-11T06:50:04Z</time>
      </trkpt>
      <trkpt lat="46.54289" lon="0.34985">
        <ele>122.2</ele>
        <time>2022-09-11T06:50:06Z</time>
      </trkpt>
      <trkpt lat="46.54291" lon="0.34984">
        <ele>122.2</ele>
        <time>2022-09-11T06:50:07Z</time>
      </trkpt>
      <trkpt lat="46.54295" lon="0.34981">
        <ele>122.4</ele>
        <time>2022-09-11T06:50:09Z</time>
      </trkpt>
      <trkpt lat="46.54311" lon="0.34977">
        <ele>122.6</ele>
        <time>2022-09-11T06:50:13Z</time>
      </trkpt>
      <trkpt lat="46.54318" lon="0.34974">
        <ele>122.8</ele>
        <time>2022-09-11T06:50:15Z</time>
      </trkpt>
      <trkpt lat="46.54324" lon="0.34971">
        <ele>123</ele>
        <time>2022-09-11T06:50:17Z</time>
      </trkpt>
      <trkpt lat="46.54329" lon="0.34971">
        <ele>122.8</ele>
        <time>2022-09-11T06:50:19Z</time>
      </trkpt>
      <trkpt lat="46.54334" lon="0.34968">
        <ele>122.6</ele>
        <time>2022-09-11T06:50:25Z</time>
      </trkpt>
      <trkpt lat="46.54342" lon="0.34964">
        <ele>122.6</ele>
        <time>2022-09-11T06:50:34Z</time>
      </trkpt>
      <trkpt lat="46.54345" lon="0.34962">
        <ele>122.8</ele>
        <time>2022-09-11T06:50:39Z</time>
      </trkpt>
      <trkpt lat="46.54352" lon="0.34966">
        <ele>122.2</ele>
        <time>2022-09-11T06:50:43Z</time>
      </trkpt>
      <trkpt lat="46.5437" lon="0.34973">
        <ele>122.6</ele>
        <time>2022-09-11T06:50:50Z</time>
      </trkpt>
      <trkpt lat="46.54374" lon="0.34978">
        <ele>123.2</ele>
        <time>2022-09-11T06:50:53Z</time>
      </trkpt>
      <trkpt lat="46.54373" lon="0.34984">
        <ele>123.6</ele>
        <time>2022-09-11T06:50:55Z</time>
      </trkpt>
      <trkpt lat="46.54368" lon="0.35006">
        <ele>124</ele>
        <time>2022-09-11T06:51:00Z</time>
      </trkpt>
      <trkpt lat="46.54367" lon="0.35014">
        <ele>124.2</ele>
        <time>2022-09-11T06:51:02Z</time>
      </trkpt>
      <trkpt lat="46.54359" lon="0.3504">
        <ele>124.4</ele>
        <time>2022-09-11T06:51:07Z</time>
      </trkpt>
      <trkpt lat="46.54357" lon="0.3505">
        <ele>124.2</ele>
        <time>2022-09-11T06:51:09Z</time>
      </trkpt>
      <trkpt lat="46.54359" lon="0.3506">
        <ele>124</ele>
        <time>2022-09-11T06:51:11Z</time>
      </trkpt>
      <trkpt lat="46.5436" lon="0.35074">
        <ele>123.8</ele>
        <time>2022-09-11T06:51:14Z</time>
      </trkpt>
      <trkpt lat="46.54357" lon="0.35082">
        <ele>123.8</ele>
        <time>2022-09-11T06:51:16Z</time>
      </trkpt>
      <trkpt lat="46.54358" lon="0.35091">
        <ele>124</ele>
        <time>2022-09-11T06:51:18Z</time>
      </trkpt>
      <trkpt lat="46.54362" lon="0.35097">
        <ele>124.2</ele>
        <time>2022-09-11T06:51:20Z</time>
      </trkpt>
      <trkpt lat="46.54374" lon="0.35104">
        <ele>124.6</ele>
        <time>2022-09-11T06:51:24Z</time>
      </trkpt>
      <trkpt lat="46.54376" lon="0.35107">
        <ele>124.6</ele>
        <time>2022-09-11T06:51:25Z</time>
      </trkpt>
      <trkpt lat="46.54377" lon="0.35111">
        <ele>124.6</ele>
        <time>2022-09-11T06:51:26Z</time>
      </trkpt>
      <trkpt lat="46.54385" lon="0.35124">
        <ele>124.6</ele>
        <time>2022-09-11T06:51:29Z</time>
      </trkpt>
      <trkpt lat="46.54388" lon="0.35128">
        <ele>124.8</ele>
        <time>2022-09-11T06:51:30Z</time>
      </trkpt>
      <trkpt lat="46.54399" lon="0.35145">
        <ele>124.8</ele>
        <time>2022-09-11T06:51:34Z</time>
      </trkpt>
      <trkpt lat="46.54406" lon="0.35156">
        <ele>124.4</ele>
        <time>2022-09-11T06:51:37Z</time>
      </trkpt>
      <trkpt lat="46.54409" lon="0.35161">
        <ele>124.4</ele>
        <time>2022-09-11T06:51:38Z</time>
      </trkpt>
      <trkpt lat="46.54415" lon="0.3517">
        <ele>124</ele>
        <time>2022-09-11T06:51:40Z</time>
      </trkpt>
      <trkpt lat="46.54421" lon="0.35179">
        <ele>124</ele>
        <time>2022-09-11T06:51:42Z</time>
      </trkpt>
      <trkpt lat="46.54425" lon="0.35182">
        <ele>124</ele>
        <time>2022-09-11T06:51:43Z</time>
      </trkpt>
      <trkpt lat="46.54431" lon="0.35188">
        <ele>123.8</ele>
        <time>2022-09-11T06:51:45Z</time>
      </trkpt>
      <trkpt lat="46.54433" lon="0.35192">
        <ele>123.8</ele>
        <time>2022-09-11T06:51:46Z</time>
      </trkpt>
      <trkpt lat="46.54441" lon="0.35205">
        <ele>123.8</ele>
        <time>2022-09-11T06:51:49Z</time>
      </trkpt>
      <trkpt lat="46.54447" lon="0.35212">
        <ele>123.6</ele>
        <time>2022-09-11T06:51:51Z</time>
      </trkpt>
      <trkpt lat="46.54455" lon="0.35221">
        <ele>123.8</ele>
        <time>2022-09-11T06:51:53Z</time>
      </trkpt>
      <trkpt lat="46.5446" lon="0.35229">
        <ele>123</ele>
        <time>2022-09-11T06:51:55Z</time>
      </trkpt>
      <trkpt lat="46.54463" lon="0.35233">
        <ele>122.6</ele>
        <time>2022-09-11T06:51:56Z</time>
      </trkpt>
      <trkpt lat="46.54477" lon="0.35246">
        <ele>122.2</ele>
        <time>2022-09-11T06:52:01Z</time>
      </trkpt>
      <trkpt lat="46.54482" lon="0.3525">
        <ele>122.2</ele>
        <time>2022-09-11T06:52:03Z</time>
      </trkpt>
      <trkpt lat="46.54484" lon="0.3525">
        <ele>121.8</ele>
        <time>2022-09-11T06:52:04Z</time>
      </trkpt>
      <trkpt lat="46.54486" lon="0.35248">
        <ele>121.8</ele>
        <time>2022-09-11T06:52:05Z</time>
      </trkpt>
      <trkpt lat="46.5449" lon="0.35248">
        <ele>121.6</ele>
        <time>2022-09-11T06:52:07Z</time>
      </trkpt>
      <trkpt lat="46.54494" lon="0.35249">
        <ele>121.2</ele>
        <time>2022-09-11T06:52:09Z</time>
      </trkpt>
      <trkpt lat="46.54496" lon="0.35249">
        <ele>121</ele>
        <time>2022-09-11T06:52:10Z</time>
      </trkpt>
      <trkpt lat="46.54498" lon="0.35247">
        <ele>121</ele>
        <time>2022-09-11T06:52:11Z</time>
      </trkpt>
      <trkpt lat="46.54501" lon="0.35245">
        <ele>120.8</ele>
        <time>2022-09-11T06:52:13Z</time>
      </trkpt>
      <trkpt lat="46.54505" lon="0.3524">
        <ele>120.8</ele>
        <time>2022-09-11T06:52:15Z</time>
      </trkpt>
      <trkpt lat="46.54512" lon="0.35236">
        <ele>120.8</ele>
        <time>2022-09-11T06:52:18Z</time>
      </trkpt>
      <trkpt lat="46.54514" lon="0.35236">
        <ele>120.8</ele>
        <time>2022-09-11T06:52:19Z</time>
      </trkpt>
      <trkpt lat="46.54528" lon="0.35233">
        <ele>120.6</ele>
        <time>2022-09-11T06:52:23Z</time>
      </trkpt>
      <trkpt lat="46.54532" lon="0.35231">
        <ele>120.2</ele>
        <time>2022-09-11T06:52:25Z</time>
      </trkpt>
      <trkpt lat="46.54542" lon="0.35229">
        <ele>120.2</ele>
        <time>2022-09-11T06:52:28Z</time>
      </trkpt>
      <trkpt lat="46.54546" lon="0.35229">
        <ele>119.8</ele>
        <time>2022-09-11T06:52:29Z</time>
      </trkpt>
      <trkpt lat="46.54548" lon="0.35229">
        <ele>119.6</ele>
        <time>2022-09-11T06:52:30Z</time>
      </trkpt>
      <trkpt lat="46.54554" lon="0.35228">
        <ele>119.2</ele>
        <time>2022-09-11T06:52:33Z</time>
      </trkpt>
      <trkpt lat="46.54561" lon="0.35228">
        <ele>119</ele>
        <time>2022-09-11T06:52:34Z</time>
      </trkpt>
      <trkpt lat="46.54565" lon="0.35228">
        <ele>118.8</ele>
        <time>2022-09-11T06:52:35Z</time>
      </trkpt>
      <trkpt lat="46.54569" lon="0.35226">
        <ele>118.4</ele>
        <time>2022-09-11T06:52:36Z</time>
      </trkpt>
      <trkpt lat="46.54572" lon="0.35224">
        <ele>118.2</ele>
        <time>2022-09-11T06:52:37Z</time>
      </trkpt>
      <trkpt lat="46.54575" lon="0.3522">
        <ele>118</ele>
        <time>2022-09-11T06:52:38Z</time>
      </trkpt>
      <trkpt lat="46.54591" lon="0.35188">
        <ele>118.6</ele>
        <time>2022-09-11T06:52:45Z</time>
      </trkpt>
      <trkpt lat="46.54602" lon="0.35176">
        <ele>118.6</ele>
        <time>2022-09-11T06:52:47Z</time>
      </trkpt>
      <trkpt lat="46.5461" lon="0.35164">
        <ele>119.4</ele>
        <time>2022-09-11T06:52:49Z</time>
      </trkpt>
      <trkpt lat="46.54612" lon="0.35158">
        <ele>119.6</ele>
        <time>2022-09-11T06:52:50Z</time>
      </trkpt>
      <trkpt lat="46.5462" lon="0.35144">
        <ele>120.6</ele>
        <time>2022-09-11T06:52:52Z</time>
      </trkpt>
      <trkpt lat="46.54626" lon="0.35132">
        <ele>121.2</ele>
        <time>2022-09-11T06:52:54Z</time>
      </trkpt>
      <trkpt lat="46.5463" lon="0.35125">
        <ele>121.6</ele>
        <time>2022-09-11T06:52:55Z</time>
      </trkpt>
      <trkpt lat="46.54633" lon="0.3512">
        <ele>121.8</ele>
        <time>2022-09-11T06:52:56Z</time>
      </trkpt>
      <trkpt lat="46.54641" lon="0.35093">
        <ele>122.6</ele>
        <time>2022-09-11T06:53:01Z</time>
      </trkpt>
      <trkpt lat="46.54642" lon="0.35084">
        <ele>123</ele>
        <time>2022-09-11T06:53:03Z</time>
      </trkpt>
      <trkpt lat="46.54648" lon="0.3506">
        <ele>123.8</ele>
        <time>2022-09-11T06:53:08Z</time>
      </trkpt>
      <trkpt lat="46.54651" lon="0.35051">
        <ele>123.8</ele>
        <time>2022-09-11T06:53:10Z</time>
      </trkpt>
      <trkpt lat="46.54657" lon="0.3504">
        <ele>124.4</ele>
        <time>2022-09-11T06:53:14Z</time>
      </trkpt>
      <trkpt lat="46.54676" lon="0.35032">
        <ele>124.6</ele>
        <time>2022-09-11T06:53:19Z</time>
      </trkpt>
      <trkpt lat="46.5468" lon="0.3503">
        <ele>124.8</ele>
        <time>2022-09-11T06:53:20Z</time>
      </trkpt>
      <trkpt lat="46.54706" lon="0.35017">
        <ele>124.8</ele>
        <time>2022-09-11T06:53:25Z</time>
      </trkpt>
      <trkpt lat="46.54744" lon="0.34996">
        <ele>125.4</ele>
        <time>2022-09-11T06:53:32Z</time>
      </trkpt>
      <trkpt lat="46.54781" lon="0.34977">
        <ele>125.2</ele>
        <time>2022-09-11T06:53:39Z</time>
      </trkpt>
      <trkpt lat="46.54811" lon="0.34961">
        <ele>125.4</ele>
        <time>2022-09-11T06:53:45Z</time>
      </trkpt>
      <trkpt lat="46.54846" lon="0.3494">
        <ele>125.6</ele>
        <time>2022-09-11T06:53:52Z</time>
      </trkpt>
      <trkpt lat="46.5486" lon="0.3493">
        <ele>125.8</ele>
        <time>2022-09-11T06:53:55Z</time>
      </trkpt>
      <trkpt lat="46.54876" lon="0.3492">
        <ele>125.8</ele>
        <time>2022-09-11T06:53:58Z</time>
      </trkpt>
      <trkpt lat="46.5491" lon="0.34903">
        <ele>125.6</ele>
        <time>2022-09-11T06:54:04Z</time>
      </trkpt>
      <trkpt lat="46.54947" lon="0.34876">
        <ele>125.6</ele>
        <time>2022-09-11T06:54:11Z</time>
      </trkpt>
      <trkpt lat="46.54982" lon="0.34855">
        <ele>125.6</ele>
        <time>2022-09-11T06:54:17Z</time>
      </trkpt>
      <trkpt lat="46.5502" lon="0.34833">
        <ele>125</ele>
        <time>2022-09-11T06:54:23Z</time>
      </trkpt>
      <trkpt lat="46.55034" lon="0.34823">
        <ele>124.6</ele>
        <time>2022-09-11T06:54:25Z</time>
      </trkpt>
      <trkpt lat="46.55052" lon="0.34807">
        <ele>123.6</ele>
        <time>2022-09-11T06:54:28Z</time>
      </trkpt>
      <trkpt lat="46.55067" lon="0.34791">
        <ele>122.4</ele>
        <time>2022-09-11T06:54:32Z</time>
      </trkpt>
      <trkpt lat="46.55069" lon="0.34788">
        <ele>122.2</ele>
        <time>2022-09-11T06:54:33Z</time>
      </trkpt>
      <trkpt lat="46.55072" lon="0.34781">
        <ele>121.8</ele>
        <time>2022-09-11T06:54:35Z</time>
      </trkpt>
      <trkpt lat="46.55073" lon="0.34779">
        <ele>121.8</ele>
        <time>2022-09-11T06:54:36Z</time>
      </trkpt>
      <trkpt lat="46.55073" lon="0.34777">
        <ele>121.4</ele>
        <time>2022-09-11T06:54:39Z</time>
      </trkpt>
      <trkpt lat="46.55076" lon="0.34774">
        <ele>121.2</ele>
        <time>2022-09-11T06:54:42Z</time>
      </trkpt>
      <trkpt lat="46.55077" lon="0.34773">
        <ele>121.6</ele>
        <time>2022-09-11T06:54:45Z</time>
      </trkpt>
      <trkpt lat="46.55077" lon="0.34772">
        <ele>121.8</ele>
        <time>2022-09-11T06:54:47Z</time>
      </trkpt>
      <trkpt lat="46.55075" lon="0.34765">
        <ele>122</ele>
        <time>2022-09-11T06:54:51Z</time>
      </trkpt>
      <trkpt lat="46.55068" lon="0.34743">
        <ele>122.2</ele>
        <time>2022-09-11T06:54:55Z</time>
      </trkpt>
      <trkpt lat="46.55067" lon="0.3473">
        <ele>122.4</ele>
        <time>2022-09-11T06:54:57Z</time>
      </trkpt>
      <trkpt lat="46.55067" lon="0.34715">
        <ele>122.2</ele>
        <time>2022-09-11T06:54:59Z</time>
      </trkpt>
      <trkpt lat="46.55067" lon="0.34697">
        <ele>122</ele>
        <time>2022-09-11T06:55:02Z</time>
      </trkpt>
      <trkpt lat="46.55067" lon="0.34688">
        <ele>121.4</ele>
        <time>2022-09-11T06:55:04Z</time>
      </trkpt>
      <trkpt lat="46.55068" lon="0.34684">
        <ele>121.2</ele>
        <time>2022-09-11T06:55:06Z</time>
      </trkpt>
      <trkpt lat="46.5507" lon="0.34682">
        <ele>121</ele>
        <time>2022-09-11T06:55:08Z</time>
      </trkpt>
      <trkpt lat="46.5507" lon="0.34682">
        <ele>120.6</ele>
        <time>2022-09-11T06:55:10Z</time>
      </trkpt>
      <trkpt lat="46.5507" lon="0.34681">
        <ele>120.2</ele>
        <time>2022-09-11T06:55:12Z</time>
      </trkpt>
      <trkpt lat="46.5507" lon="0.34679">
        <ele>119.6</ele>
        <time>2022-09-11T06:55:15Z</time>
      </trkpt>
      <trkpt lat="46.5507" lon="0.34679">
        <ele>119.2</ele>
        <time>2022-09-11T06:55:17Z</time>
      </trkpt>
      <trkpt lat="46.55072" lon="0.34673">
        <ele>118</ele>
        <time>2022-09-11T06:55:21Z</time>
      </trkpt>
      <trkpt lat="46.55072" lon="0.3467">
        <ele>118</ele>
        <time>2022-09-11T06:55:22Z</time>
      </trkpt>
      <trkpt lat="46.55073" lon="0.34667">
        <ele>118</ele>
        <time>2022-09-11T06:55:23Z</time>
      </trkpt>
      <trkpt lat="46.55076" lon="0.34656">
        <ele>117.6</ele>
        <time>2022-09-11T06:55:26Z</time>
      </trkpt>
      <trkpt lat="46.55078" lon="0.34652">
        <ele>117</ele>
        <time>2022-09-11T06:55:27Z</time>
      </trkpt>
      <trkpt lat="46.5508" lon="0.34648">
        <ele>116.8</ele>
        <time>2022-09-11T06:55:28Z</time>
      </trkpt>
      <trkpt lat="46.55086" lon="0.34638">
        <ele>116</ele>
        <time>2022-09-11T06:55:30Z</time>
      </trkpt>
      <trkpt lat="46.55089" lon="0.34634">
        <ele>115.6</ele>
        <time>2022-09-11T06:55:31Z</time>
      </trkpt>
      <trkpt lat="46.55094" lon="0.34627">
        <ele>114.4</ele>
        <time>2022-09-11T06:55:33Z</time>
      </trkpt>
      <trkpt lat="46.55098" lon="0.34616">
        <ele>112.8</ele>
        <time>2022-09-11T06:55:35Z</time>
      </trkpt>
      <trkpt lat="46.55099" lon="0.34605">
        <ele>111.6</ele>
        <time>2022-09-11T06:55:37Z</time>
      </trkpt>
      <trkpt lat="46.551" lon="0.34594">
        <ele>110.2</ele>
        <time>2022-09-11T06:55:39Z</time>
      </trkpt>
      <trkpt lat="46.551" lon="0.34594">
        <ele>108.4</ele>
        <time>2022-09-11T06:55:40Z</time>
      </trkpt>
      <trkpt lat="46.55097" lon="0.34583">
        <ele>108.4</ele>
        <time>2022-09-11T06:55:41Z</time>
      </trkpt>
      <trkpt lat="46.55093" lon="0.34572">
        <ele>107</ele>
        <time>2022-09-11T06:55:43Z</time>
      </trkpt>
      <trkpt lat="46.55091" lon="0.34566">
        <ele>105.4</ele>
        <time>2022-09-11T06:55:44Z</time>
      </trkpt>
      <trkpt lat="46.5509" lon="0.3456">
        <ele>104</ele>
        <time>2022-09-11T06:55:45Z</time>
      </trkpt>
      <trkpt lat="46.55088" lon="0.34547">
        <ele>102</ele>
        <time>2022-09-11T06:55:47Z</time>
      </trkpt>
      <trkpt lat="46.55085" lon="0.34533">
        <ele>101</ele>
        <time>2022-09-11T06:55:49Z</time>
      </trkpt>
      <trkpt lat="46.55082" lon="0.34526">
        <ele>100</ele>
        <time>2022-09-11T06:55:50Z</time>
      </trkpt>
      <trkpt lat="46.55074" lon="0.34509">
        <ele>98.2</ele>
        <time>2022-09-11T06:55:52Z</time>
      </trkpt>
      <trkpt lat="46.55066" lon="0.34498">
        <ele>96.6</ele>
        <time>2022-09-11T06:55:54Z</time>
      </trkpt>
      <trkpt lat="46.55061" lon="0.34493">
        <ele>95.6</ele>
        <time>2022-09-11T06:55:55Z</time>
      </trkpt>
      <trkpt lat="46.55057" lon="0.3449">
        <ele>94.6</ele>
        <time>2022-09-11T06:55:56Z</time>
      </trkpt>
      <trkpt lat="46.55055" lon="0.34488">
        <ele>93.6</ele>
        <time>2022-09-11T06:55:57Z</time>
      </trkpt>
      <trkpt lat="46.55053" lon="0.34486">
        <ele>93.2</ele>
        <time>2022-09-11T06:55:58Z</time>
      </trkpt>
      <trkpt lat="46.55045" lon="0.34479">
        <ele>92.4</ele>
        <time>2022-09-11T06:56:00Z</time>
      </trkpt>
      <trkpt lat="46.55037" lon="0.34468">
        <ele>91.6</ele>
        <time>2022-09-11T06:56:02Z</time>
      </trkpt>
      <trkpt lat="46.55035" lon="0.34465">
        <ele>91</ele>
        <time>2022-09-11T06:56:03Z</time>
      </trkpt>
      <trkpt lat="46.55029" lon="0.34457">
        <ele>90</ele>
        <time>2022-09-11T06:56:06Z</time>
      </trkpt>
      <trkpt lat="46.55037" lon="0.34453">
        <ele>89</ele>
        <time>2022-09-11T06:56:10Z</time>
      </trkpt>
      <trkpt lat="46.55041" lon="0.34451">
        <ele>88.6</ele>
        <time>2022-09-11T06:56:11Z</time>
      </trkpt>
      <trkpt lat="46.55044" lon="0.3445">
        <ele>86.6</ele>
        <time>2022-09-11T06:56:12Z</time>
      </trkpt>
      <trkpt lat="46.55047" lon="0.34446">
        <ele>85.6</ele>
        <time>2022-09-11T06:56:13Z</time>
      </trkpt>
      <trkpt lat="46.55051" lon="0.34435">
        <ele>84</ele>
        <time>2022-09-11T06:56:15Z</time>
      </trkpt>
      <trkpt lat="46.55053" lon="0.34428">
        <ele>83.8</ele>
        <time>2022-09-11T06:56:16Z</time>
      </trkpt>
      <trkpt lat="46.55056" lon="0.34413">
        <ele>82.6</ele>
        <time>2022-09-11T06:56:18Z</time>
      </trkpt>
      <trkpt lat="46.55057" lon="0.34407">
        <ele>82.2</ele>
        <time>2022-09-11T06:56:19Z</time>
      </trkpt>
      <trkpt lat="46.55054" lon="0.34399">
        <ele>81.4</ele>
        <time>2022-09-11T06:56:21Z</time>
      </trkpt>
      <trkpt lat="46.55049" lon="0.34387">
        <ele>81</ele>
        <time>2022-09-11T06:56:24Z</time>
      </trkpt>
      <trkpt lat="46.5505" lon="0.34382">
        <ele>80.8</ele>
        <time>2022-09-11T06:56:25Z</time>
      </trkpt>
      <trkpt lat="46.55058" lon="0.34366">
        <ele>81</ele>
        <time>2022-09-11T06:56:29Z</time>
      </trkpt>
      <trkpt lat="46.55058" lon="0.34353">
        <ele>81.2</ele>
        <time>2022-09-11T06:56:32Z</time>
      </trkpt>
      <trkpt lat="46.55055" lon="0.3435">
        <ele>81.6</ele>
        <time>2022-09-11T06:56:33Z</time>
      </trkpt>
      <trkpt lat="46.55051" lon="0.34347">
        <ele>82</ele>
        <time>2022-09-11T06:56:35Z</time>
      </trkpt>
      <trkpt lat="46.5505" lon="0.34342">
        <ele>82.4</ele>
        <time>2022-09-11T06:56:37Z</time>
      </trkpt>
      <trkpt lat="46.55054" lon="0.34341">
        <ele>82.8</ele>
        <time>2022-09-11T06:56:39Z</time>
      </trkpt>
      <trkpt lat="46.55057" lon="0.34343">
        <ele>83</ele>
        <time>2022-09-11T06:56:40Z</time>
      </trkpt>
      <trkpt lat="46.55067" lon="0.34348">
        <ele>83.4</ele>
        <time>2022-09-11T06:56:43Z</time>
      </trkpt>
      <trkpt lat="46.55076" lon="0.34351">
        <ele>84</ele>
        <time>2022-09-11T06:56:46Z</time>
      </trkpt>
      <trkpt lat="46.55092" lon="0.34357">
        <ele>84.6</ele>
        <time>2022-09-11T06:56:51Z</time>
      </trkpt>
      <trkpt lat="46.55117" lon="0.34372">
        <ele>85.4</ele>
        <time>2022-09-11T06:56:57Z</time>
      </trkpt>
      <trkpt lat="46.55146" lon="0.34383">
        <ele>85.2</ele>
        <time>2022-09-11T06:57:03Z</time>
      </trkpt>
      <trkpt lat="46.55178" lon="0.3439">
        <ele>85.4</ele>
        <time>2022-09-11T06:57:10Z</time>
      </trkpt>
      <trkpt lat="46.55181" lon="0.34389">
        <ele>85.2</ele>
        <time>2022-09-11T06:57:11Z</time>
      </trkpt>
      <trkpt lat="46.55182" lon="0.34386">
        <ele>85.2</ele>
        <time>2022-09-11T06:57:13Z</time>
      </trkpt>
      <trkpt lat="46.55177" lon="0.34381">
        <ele>85.4</ele>
        <time>2022-09-11T06:57:16Z</time>
      </trkpt>
      <trkpt lat="46.55172" lon="0.34379">
        <ele>85.6</ele>
        <time>2022-09-11T06:57:18Z</time>
      </trkpt>
      <trkpt lat="46.55169" lon="0.34377">
        <ele>86</ele>
        <time>2022-09-11T06:57:19Z</time>
      </trkpt>
      <trkpt lat="46.55157" lon="0.34373">
        <ele>87.2</ele>
        <time>2022-09-11T06:57:23Z</time>
      </trkpt>
      <trkpt lat="46.5515" lon="0.34371">
        <ele>87.6</ele>
        <time>2022-09-11T06:57:26Z</time>
      </trkpt>
      <trkpt lat="46.55145" lon="0.34368">
        <ele>88.2</ele>
        <time>2022-09-11T06:57:28Z</time>
      </trkpt>
      <trkpt lat="46.55133" lon="0.34363">
        <ele>89.6</ele>
        <time>2022-09-11T06:57:33Z</time>
      </trkpt>
      <trkpt lat="46.55121" lon="0.34355">
        <ele>90.6</ele>
        <time>2022-09-11T06:57:40Z</time>
      </trkpt>
      <trkpt lat="46.55108" lon="0.34344">
        <ele>91.2</ele>
        <time>2022-09-11T06:57:46Z</time>
      </trkpt>
      <trkpt lat="46.55105" lon="0.34342">
        <ele>91.6</ele>
        <time>2022-09-11T06:57:48Z</time>
      </trkpt>
      <trkpt lat="46.55093" lon="0.34335">
        <ele>92</ele>
        <time>2022-09-11T06:57:53Z</time>
      </trkpt>
      <trkpt lat="46.55086" lon="0.34326">
        <ele>92.6</ele>
        <time>2022-09-11T06:57:58Z</time>
      </trkpt>
      <trkpt lat="46.55087" lon="0.34326">
        <ele>92.8</ele>
        <time>2022-09-11T06:57:59Z</time>
      </trkpt>
      <trkpt lat="46.55091" lon="0.34326">
        <ele>93.8</ele>
        <time>2022-09-11T06:58:02Z</time>
      </trkpt>
      <trkpt lat="46.55095" lon="0.34326">
        <ele>94.8</ele>
        <time>2022-09-11T06:58:06Z</time>
      </trkpt>
      <trkpt lat="46.55096" lon="0.34325">
        <ele>95.2</ele>
        <time>2022-09-11T06:58:07Z</time>
      </trkpt>
      <trkpt lat="46.55099" lon="0.34325">
        <ele>96</ele>
        <time>2022-09-11T06:58:10Z</time>
      </trkpt>
      <trkpt lat="46.55102" lon="0.34324">
        <ele>97</ele>
        <time>2022-09-11T06:58:13Z</time>
      </trkpt>
      <trkpt lat="46.55105" lon="0.34324">
        <ele>97.6</ele>
        <time>2022-09-11T06:58:16Z</time>
      </trkpt>
      <trkpt lat="46.55107" lon="0.34323">
        <ele>98.2</ele>
        <time>2022-09-11T06:58:18Z</time>
      </trkpt>
      <trkpt lat="46.5511" lon="0.34321">
        <ele>99.2</ele>
        <time>2022-09-11T06:58:22Z</time>
      </trkpt>
      <trkpt lat="46.5511" lon="0.34321">
        <ele>99.4</ele>
        <time>2022-09-11T06:58:23Z</time>
      </trkpt>
      <trkpt lat="46.55112" lon="0.34319">
        <ele>100.4</ele>
        <time>2022-09-11T06:58:26Z</time>
      </trkpt>
      <trkpt lat="46.55113" lon="0.34318">
        <ele>100.6</ele>
        <time>2022-09-11T06:58:27Z</time>
      </trkpt>
      <trkpt lat="46.55116" lon="0.34315">
        <ele>101</ele>
        <time>2022-09-11T06:58:30Z</time>
      </trkpt>
      <trkpt lat="46.55117" lon="0.34313">
        <ele>101.6</ele>
        <time>2022-09-11T06:58:32Z</time>
      </trkpt>
      <trkpt lat="46.55119" lon="0.34312">
        <ele>102</ele>
        <time>2022-09-11T06:58:33Z</time>
      </trkpt>
      <trkpt lat="46.55122" lon="0.34311">
        <ele>102.8</ele>
        <time>2022-09-11T06:58:36Z</time>
      </trkpt>
      <trkpt lat="46.55129" lon="0.34306">
        <ele>103.8</ele>
        <time>2022-09-11T06:58:42Z</time>
      </trkpt>
      <trkpt lat="46.55132" lon="0.34307">
        <ele>104.6</ele>
        <time>2022-09-11T06:58:45Z</time>
      </trkpt>
      <trkpt lat="46.55135" lon="0.34308">
        <ele>104.8</ele>
        <time>2022-09-11T06:58:47Z</time>
      </trkpt>
      <trkpt lat="46.55141" lon="0.34313">
        <ele>105</ele>
        <time>2022-09-11T06:58:50Z</time>
      </trkpt>
      <trkpt lat="46.55153" lon="0.34321">
        <ele>105.2</ele>
        <time>2022-09-11T06:58:54Z</time>
      </trkpt>
      <trkpt lat="46.55169" lon="0.34327">
        <ele>105.4</ele>
        <time>2022-09-11T06:58:59Z</time>
      </trkpt>
      <trkpt lat="46.55191" lon="0.34332">
        <ele>105.6</ele>
        <time>2022-09-11T06:59:06Z</time>
      </trkpt>
      <trkpt lat="46.55212" lon="0.34335">
        <ele>106</ele>
        <time>2022-09-11T06:59:13Z</time>
      </trkpt>
      <trkpt lat="46.5523" lon="0.3434">
        <ele>106.6</ele>
        <time>2022-09-11T06:59:18Z</time>
      </trkpt>
      <trkpt lat="46.55246" lon="0.34342">
        <ele>107</ele>
        <time>2022-09-11T06:59:23Z</time>
      </trkpt>
      <trkpt lat="46.55254" lon="0.34342">
        <ele>107.2</ele>
        <time>2022-09-11T06:59:25Z</time>
      </trkpt>
      <trkpt lat="46.55271" lon="0.34343">
        <ele>108.2</ele>
        <time>2022-09-11T06:59:30Z</time>
      </trkpt>
      <trkpt lat="46.55274" lon="0.34344">
        <ele>108.4</ele>
        <time>2022-09-11T06:59:31Z</time>
      </trkpt>
      <trkpt lat="46.55278" lon="0.34343">
        <ele>109.4</ele>
        <time>2022-09-11T06:59:33Z</time>
      </trkpt>
      <trkpt lat="46.55289" lon="0.34342">
        <ele>110.2</ele>
        <time>2022-09-11T06:59:38Z</time>
      </trkpt>
      <trkpt lat="46.55293" lon="0.34342">
        <ele>110.4</ele>
        <time>2022-09-11T06:59:40Z</time>
      </trkpt>
      <trkpt lat="46.55303" lon="0.34342">
        <ele>111.6</ele>
        <time>2022-09-11T06:59:44Z</time>
      </trkpt>
      <trkpt lat="46.55305" lon="0.34342">
        <ele>111.6</ele>
        <time>2022-09-11T06:59:45Z</time>
      </trkpt>
      <trkpt lat="46.5532" lon="0.34343">
        <ele>112.8</ele>
        <time>2022-09-11T06:59:51Z</time>
      </trkpt>
      <trkpt lat="46.55327" lon="0.34343">
        <ele>113.6</ele>
        <time>2022-09-11T06:59:54Z</time>
      </trkpt>
      <trkpt lat="46.55332" lon="0.34343">
        <ele>114</ele>
        <time>2022-09-11T06:59:56Z</time>
      </trkpt>
      <trkpt lat="46.55344" lon="0.34345">
        <ele>114.6</ele>
        <time>2022-09-11T07:00:01Z</time>
      </trkpt>
      <trkpt lat="46.55362" lon="0.34347">
        <ele>114.4</ele>
        <time>2022-09-11T07:00:08Z</time>
      </trkpt>
      <trkpt lat="46.5537" lon="0.34344">
        <ele>114</ele>
        <time>2022-09-11T07:00:10Z</time>
      </trkpt>
      <trkpt lat="46.55377" lon="0.3434">
        <ele>113.8</ele>
        <time>2022-09-11T07:00:12Z</time>
      </trkpt>
      <trkpt lat="46.55381" lon="0.34337">
        <ele>113.6</ele>
        <time>2022-09-11T07:00:13Z</time>
      </trkpt>
      <trkpt lat="46.55389" lon="0.34332">
        <ele>113.6</ele>
        <time>2022-09-11T07:00:15Z</time>
      </trkpt>
      <trkpt lat="46.55396" lon="0.34329">
        <ele>113.8</ele>
        <time>2022-09-11T07:00:17Z</time>
      </trkpt>
      <trkpt lat="46.55405" lon="0.34324">
        <ele>114.4</ele>
        <time>2022-09-11T07:00:20Z</time>
      </trkpt>
      <trkpt lat="46.55408" lon="0.34322">
        <ele>114.8</ele>
        <time>2022-09-11T07:00:22Z</time>
      </trkpt>
      <trkpt lat="46.5541" lon="0.34321">
        <ele>115</ele>
        <time>2022-09-11T07:00:23Z</time>
      </trkpt>
      <trkpt lat="46.55421" lon="0.34316">
        <ele>116</ele>
        <time>2022-09-11T07:00:28Z</time>
      </trkpt>
      <trkpt lat="46.55424" lon="0.34315">
        <ele>116</ele>
        <time>2022-09-11T07:00:29Z</time>
      </trkpt>
      <trkpt lat="46.55434" lon="0.34316">
        <ele>116.4</ele>
        <time>2022-09-11T07:00:33Z</time>
      </trkpt>
      <trkpt lat="46.5544" lon="0.34317">
        <ele>116.6</ele>
        <time>2022-09-11T07:00:39Z</time>
      </trkpt>
      <trkpt lat="46.55455" lon="0.34315">
        <ele>116.6</ele>
        <time>2022-09-11T07:00:44Z</time>
      </trkpt>
      <trkpt lat="46.5547" lon="0.34318">
        <ele>117.2</ele>
        <time>2022-09-11T07:00:50Z</time>
      </trkpt>
      <trkpt lat="46.5548" lon="0.34322">
        <ele>117.8</ele>
        <time>2022-09-11T07:00:55Z</time>
      </trkpt>
      <trkpt lat="46.55487" lon="0.34325">
        <ele>118.4</ele>
        <time>2022-09-11T07:00:58Z</time>
      </trkpt>
      <trkpt lat="46.55492" lon="0.34331">
        <ele>118.4</ele>
        <time>2022-09-11T07:01:00Z</time>
      </trkpt>
      <trkpt lat="46.55502" lon="0.3435">
        <ele>118.4</ele>
        <time>2022-09-11T07:01:05Z</time>
      </trkpt>
      <trkpt lat="46.55517" lon="0.34383">
        <ele>118.4</ele>
        <time>2022-09-11T07:01:12Z</time>
      </trkpt>
      <trkpt lat="46.55535" lon="0.34423">
        <ele>118.6</ele>
        <time>2022-09-11T07:01:19Z</time>
      </trkpt>
      <trkpt lat="46.5554" lon="0.34433">
        <ele>118.8</ele>
        <time>2022-09-11T07:01:21Z</time>
      </trkpt>
      <trkpt lat="46.55545" lon="0.34442">
        <ele>118.8</ele>
        <time>2022-09-11T07:01:23Z</time>
      </trkpt>
      <trkpt lat="46.55547" lon="0.34448">
        <ele>119</ele>
        <time>2022-09-11T07:01:24Z</time>
      </trkpt>
      <trkpt lat="46.55554" lon="0.34461">
        <ele>119.4</ele>
        <time>2022-09-11T07:01:27Z</time>
      </trkpt>
      <trkpt lat="46.5556" lon="0.34482">
        <ele>119.8</ele>
        <time>2022-09-11T07:01:31Z</time>
      </trkpt>
      <trkpt lat="46.5556" lon="0.34518">
        <ele>119.6</ele>
        <time>2022-09-11T07:01:36Z</time>
      </trkpt>
      <trkpt lat="46.55561" lon="0.34576">
        <ele>118.8</ele>
        <time>2022-09-11T07:01:43Z</time>
      </trkpt>
      <trkpt lat="46.55571" lon="0.34629">
        <ele>119.2</ele>
        <time>2022-09-11T07:01:50Z</time>
      </trkpt>
      <trkpt lat="46.55581" lon="0.34675">
        <ele>119.6</ele>
        <time>2022-09-11T07:01:56Z</time>
      </trkpt>
      <trkpt lat="46.55596" lon="0.34725">
        <ele>119.4</ele>
        <time>2022-09-11T07:02:02Z</time>
      </trkpt>
      <trkpt lat="46.55613" lon="0.3476">
        <ele>119.6</ele>
        <time>2022-09-11T07:02:07Z</time>
      </trkpt>
      <trkpt lat="46.5562" lon="0.34773">
        <ele>119.6</ele>
        <time>2022-09-11T07:02:09Z</time>
      </trkpt>
      <trkpt lat="46.55644" lon="0.34801">
        <ele>120.4</ele>
        <time>2022-09-11T07:02:15Z</time>
      </trkpt>
      <trkpt lat="46.55655" lon="0.34817">
        <ele>121</ele>
        <time>2022-09-11T07:02:18Z</time>
      </trkpt>
      <trkpt lat="46.55661" lon="0.34831">
        <ele>121.2</ele>
        <time>2022-09-11T07:02:20Z</time>
      </trkpt>
      <trkpt lat="46.55665" lon="0.34846">
        <ele>121.2</ele>
        <time>2022-09-11T07:02:22Z</time>
      </trkpt>
      <trkpt lat="46.55669" lon="0.3487">
        <ele>121.2</ele>
        <time>2022-09-11T07:02:25Z</time>
      </trkpt>
      <trkpt lat="46.55677" lon="0.349">
        <ele>120.8</ele>
        <time>2022-09-11T07:02:29Z</time>
      </trkpt>
      <trkpt lat="46.55681" lon="0.34914">
        <ele>120.6</ele>
        <time>2022-09-11T07:02:31Z</time>
      </trkpt>
      <trkpt lat="46.5569" lon="0.34942">
        <ele>120.2</ele>
        <time>2022-09-11T07:02:35Z</time>
      </trkpt>
      <trkpt lat="46.55696" lon="0.34955">
        <ele>120</ele>
        <time>2022-09-11T07:02:37Z</time>
      </trkpt>
      <trkpt lat="46.55699" lon="0.34961">
        <ele>120</ele>
        <time>2022-09-11T07:02:38Z</time>
      </trkpt>
      <trkpt lat="46.55708" lon="0.34971">
        <ele>120</ele>
        <time>2022-09-11T07:02:40Z</time>
      </trkpt>
      <trkpt lat="46.55713" lon="0.34975">
        <ele>120</ele>
        <time>2022-09-11T07:02:41Z</time>
      </trkpt>
      <trkpt lat="46.55723" lon="0.34982">
        <ele>119.8</ele>
        <time>2022-09-11T07:02:43Z</time>
      </trkpt>
      <trkpt lat="46.55734" lon="0.34985">
        <ele>119.8</ele>
        <time>2022-09-11T07:02:45Z</time>
      </trkpt>
      <trkpt lat="46.55739" lon="0.34985">
        <ele>119.6</ele>
        <time>2022-09-11T07:02:46Z</time>
      </trkpt>
      <trkpt lat="46.55764" lon="0.34983">
        <ele>119.8</ele>
        <time>2022-09-11T07:02:51Z</time>
      </trkpt>
      <trkpt lat="46.55768" lon="0.34983">
        <ele>119.8</ele>
        <time>2022-09-11T07:02:52Z</time>
      </trkpt>
      <trkpt lat="46.55774" lon="0.34984">
        <ele>119.6</ele>
        <time>2022-09-11T07:02:55Z</time>
      </trkpt>
      <trkpt lat="46.55776" lon="0.34982">
        <ele>119.6</ele>
        <time>2022-09-11T07:02:56Z</time>
      </trkpt>
      <trkpt lat="46.55776" lon="0.3498">
        <ele>119.6</ele>
        <time>2022-09-11T07:02:57Z</time>
      </trkpt>
      <trkpt lat="46.55772" lon="0.34979">
        <ele>119.6</ele>
        <time>2022-09-11T07:02:59Z</time>
      </trkpt>
      <trkpt lat="46.55755" lon="0.34981">
        <ele>119.8</ele>
        <time>2022-09-11T07:03:03Z</time>
      </trkpt>
      <trkpt lat="46.55728" lon="0.34979">
        <ele>119.8</ele>
        <time>2022-09-11T07:03:08Z</time>
      </trkpt>
      <trkpt lat="46.55723" lon="0.34978">
        <ele>119.8</ele>
        <time>2022-09-11T07:03:09Z</time>
      </trkpt>
      <trkpt lat="46.55717" lon="0.34976">
        <ele>119.6</ele>
        <time>2022-09-11T07:03:10Z</time>
      </trkpt>
      <trkpt lat="46.55708" lon="0.34968">
        <ele>119.6</ele>
        <time>2022-09-11T07:03:12Z</time>
      </trkpt>
      <trkpt lat="46.55704" lon="0.34964">
        <ele>119.6</ele>
        <time>2022-09-11T07:03:13Z</time>
      </trkpt>
      <trkpt lat="46.55701" lon="0.34958">
        <ele>119.6</ele>
        <time>2022-09-11T07:03:14Z</time>
      </trkpt>
      <trkpt lat="46.55692" lon="0.34942">
        <ele>119.6</ele>
        <time>2022-09-11T07:03:17Z</time>
      </trkpt>
      <trkpt lat="46.5569" lon="0.34936">
        <ele>119.6</ele>
        <time>2022-09-11T07:03:18Z</time>
      </trkpt>
      <trkpt lat="46.55677" lon="0.34895">
        <ele>120</ele>
        <time>2022-09-11T07:03:25Z</time>
      </trkpt>
      <trkpt lat="46.55675" lon="0.34891">
        <ele>120</ele>
        <time>2022-09-11T07:03:26Z</time>
      </trkpt>
      <trkpt lat="46.55672" lon="0.3489">
        <ele>120</ele>
        <time>2022-09-11T07:03:28Z</time>
      </trkpt>
      <trkpt lat="46.55661" lon="0.34894">
        <ele>119.4</ele>
        <time>2022-09-11T07:03:32Z</time>
      </trkpt>
      <trkpt lat="46.55657" lon="0.34896">
        <ele>119.4</ele>
        <time>2022-09-11T07:03:33Z</time>
      </trkpt>
      <trkpt lat="46.55639" lon="0.34905">
        <ele>117.8</ele>
        <time>2022-09-11T07:03:37Z</time>
      </trkpt>
      <trkpt lat="46.55637" lon="0.34906">
        <ele>117.4</ele>
        <time>2022-09-11T07:03:38Z</time>
      </trkpt>
      <trkpt lat="46.55636" lon="0.34906">
        <ele>116.8</ele>
        <time>2022-09-11T07:03:39Z</time>
      </trkpt>
      <trkpt lat="46.55635" lon="0.34904">
        <ele>116.4</ele>
        <time>2022-09-11T07:03:40Z</time>
      </trkpt>
      <trkpt lat="46.55635" lon="0.34898">
        <ele>115.8</ele>
        <time>2022-09-11T07:03:42Z</time>
      </trkpt>
      <trkpt lat="46.55633" lon="0.3489">
        <ele>115.6</ele>
        <time>2022-09-11T07:03:44Z</time>
      </trkpt>
      <trkpt lat="46.55627" lon="0.34885">
        <ele>115.4</ele>
        <time>2022-09-11T07:03:46Z</time>
      </trkpt>
      <trkpt lat="46.55623" lon="0.34884">
        <ele>115</ele>
        <time>2022-09-11T07:03:47Z</time>
      </trkpt>
      <trkpt lat="46.55619" lon="0.34883">
        <ele>114.6</ele>
        <time>2022-09-11T07:03:48Z</time>
      </trkpt>
      <trkpt lat="46.55611" lon="0.34875">
        <ele>113.4</ele>
        <time>2022-09-11T07:03:51Z</time>
      </trkpt>
      <trkpt lat="46.55606" lon="0.34868">
        <ele>112.8</ele>
        <time>2022-09-11T07:03:53Z</time>
      </trkpt>
      <trkpt lat="46.55598" lon="0.34863">
        <ele>112.2</ele>
        <time>2022-09-11T07:03:55Z</time>
      </trkpt>
      <trkpt lat="46.55594" lon="0.34861">
        <ele>112</ele>
        <time>2022-09-11T07:03:56Z</time>
      </trkpt>
      <trkpt lat="46.55584" lon="0.34857">
        <ele>110.8</ele>
        <time>2022-09-11T07:03:58Z</time>
      </trkpt>
      <trkpt lat="46.55576" lon="0.3485">
        <ele>108.8</ele>
        <time>2022-09-11T07:04:00Z</time>
      </trkpt>
      <trkpt lat="46.55571" lon="0.34846">
        <ele>108</ele>
        <time>2022-09-11T07:04:01Z</time>
      </trkpt>
      <trkpt lat="46.55566" lon="0.34842">
        <ele>107.6</ele>
        <time>2022-09-11T07:04:02Z</time>
      </trkpt>
      <trkpt lat="46.55561" lon="0.34838">
        <ele>107.2</ele>
        <time>2022-09-11T07:04:03Z</time>
      </trkpt>
      <trkpt lat="46.5555" lon="0.3483">
        <ele>106.4</ele>
        <time>2022-09-11T07:04:05Z</time>
      </trkpt>
      <trkpt lat="46.55545" lon="0.34827">
        <ele>105.4</ele>
        <time>2022-09-11T07:04:06Z</time>
      </trkpt>
      <trkpt lat="46.55541" lon="0.34824">
        <ele>105.4</ele>
        <time>2022-09-11T07:04:07Z</time>
      </trkpt>
      <trkpt lat="46.5553" lon="0.34821">
        <ele>104.2</ele>
        <time>2022-09-11T07:04:09Z</time>
      </trkpt>
      <trkpt lat="46.55519" lon="0.34819">
        <ele>102.8</ele>
        <time>2022-09-11T07:04:11Z</time>
      </trkpt>
      <trkpt lat="46.55514" lon="0.34818">
        <ele>101.8</ele>
        <time>2022-09-11T07:04:12Z</time>
      </trkpt>
      <trkpt lat="46.55509" lon="0.34817">
        <ele>101.2</ele>
        <time>2022-09-11T07:04:13Z</time>
      </trkpt>
      <trkpt lat="46.55507" lon="0.34816">
        <ele>100.6</ele>
        <time>2022-09-11T07:04:14Z</time>
      </trkpt>
      <trkpt lat="46.55504" lon="0.34813">
        <ele>100</ele>
        <time>2022-09-11T07:04:15Z</time>
      </trkpt>
      <trkpt lat="46.55499" lon="0.34804">
        <ele>99.4</ele>
        <time>2022-09-11T07:04:17Z</time>
      </trkpt>
      <trkpt lat="46.55496" lon="0.34799">
        <ele>98.4</ele>
        <time>2022-09-11T07:04:18Z</time>
      </trkpt>
      <trkpt lat="46.55493" lon="0.34793">
        <ele>97.8</ele>
        <time>2022-09-11T07:04:19Z</time>
      </trkpt>
      <trkpt lat="46.55485" lon="0.34782">
        <ele>97.4</ele>
        <time>2022-09-11T07:04:21Z</time>
      </trkpt>
      <trkpt lat="46.55478" lon="0.34772">
        <ele>96</ele>
        <time>2022-09-11T07:04:23Z</time>
      </trkpt>
      <trkpt lat="46.55474" lon="0.34769">
        <ele>95.6</ele>
        <time>2022-09-11T07:04:24Z</time>
      </trkpt>
      <trkpt lat="46.55471" lon="0.34765">
        <ele>95.2</ele>
        <time>2022-09-11T07:04:25Z</time>
      </trkpt>
      <trkpt lat="46.55466" lon="0.34757">
        <ele>94.8</ele>
        <time>2022-09-11T07:04:27Z</time>
      </trkpt>
      <trkpt lat="46.55462" lon="0.34746">
        <ele>94.2</ele>
        <time>2022-09-11T07:04:29Z</time>
      </trkpt>
      <trkpt lat="46.55459" lon="0.3474">
        <ele>94.2</ele>
        <time>2022-09-11T07:04:30Z</time>
      </trkpt>
      <trkpt lat="46.55455" lon="0.34732">
        <ele>94</ele>
        <time>2022-09-11T07:04:32Z</time>
      </trkpt>
      <trkpt lat="46.55453" lon="0.3473">
        <ele>93.8</ele>
        <time>2022-09-11T07:04:33Z</time>
      </trkpt>
      <trkpt lat="46.55447" lon="0.34726">
        <ele>93.4</ele>
        <time>2022-09-11T07:04:35Z</time>
      </trkpt>
      <trkpt lat="46.5544" lon="0.34721">
        <ele>91.6</ele>
        <time>2022-09-11T07:04:37Z</time>
      </trkpt>
      <trkpt lat="46.55436" lon="0.34717">
        <ele>91.2</ele>
        <time>2022-09-11T07:04:38Z</time>
      </trkpt>
      <trkpt lat="46.55433" lon="0.34714">
        <ele>89.8</ele>
        <time>2022-09-11T07:04:39Z</time>
      </trkpt>
      <trkpt lat="46.55429" lon="0.3471">
        <ele>88.6</ele>
        <time>2022-09-11T07:04:40Z</time>
      </trkpt>
      <trkpt lat="46.55425" lon="0.34707">
        <ele>87.6</ele>
        <time>2022-09-11T07:04:41Z</time>
      </trkpt>
      <trkpt lat="46.5542" lon="0.34707">
        <ele>86.6</ele>
        <time>2022-09-11T07:04:42Z</time>
      </trkpt>
      <trkpt lat="46.55414" lon="0.34709">
        <ele>85.8</ele>
        <time>2022-09-11T07:04:43Z</time>
      </trkpt>
      <trkpt lat="46.55408" lon="0.34712">
        <ele>85.2</ele>
        <time>2022-09-11T07:04:44Z</time>
      </trkpt>
      <trkpt lat="46.55404" lon="0.34716">
        <ele>84.8</ele>
        <time>2022-09-11T07:04:45Z</time>
      </trkpt>
      <trkpt lat="46.55393" lon="0.34732">
        <ele>84.2</ele>
        <time>2022-09-11T07:04:48Z</time>
      </trkpt>
      <trkpt lat="46.55385" lon="0.34749">
        <ele>83.8</ele>
        <time>2022-09-11T07:04:51Z</time>
      </trkpt>
      <trkpt lat="46.55379" lon="0.34759">
        <ele>83.8</ele>
        <time>2022-09-11T07:04:53Z</time>
      </trkpt>
      <trkpt lat="46.55369" lon="0.34785">
        <ele>84</ele>
        <time>2022-09-11T07:04:57Z</time>
      </trkpt>
      <trkpt lat="46.5536" lon="0.34831">
        <ele>84.2</ele>
        <time>2022-09-11T07:05:03Z</time>
      </trkpt>
      <trkpt lat="46.55356" lon="0.34879">
        <ele>84.4</ele>
        <time>2022-09-11T07:05:09Z</time>
      </trkpt>
      <trkpt lat="46.55356" lon="0.34887">
        <ele>84.4</ele>
        <time>2022-09-11T07:05:10Z</time>
      </trkpt>
      <trkpt lat="46.55359" lon="0.3492">
        <ele>84.2</ele>
        <time>2022-09-11T07:05:14Z</time>
      </trkpt>
      <trkpt lat="46.55363" lon="0.34934">
        <ele>84.2</ele>
        <time>2022-09-11T07:05:16Z</time>
      </trkpt>
      <trkpt lat="46.5538" lon="0.34975">
        <ele>84.2</ele>
        <time>2022-09-11T07:05:22Z</time>
      </trkpt>
      <trkpt lat="46.55383" lon="0.3498">
        <ele>84.2</ele>
        <time>2022-09-11T07:05:23Z</time>
      </trkpt>
      <trkpt lat="46.55391" lon="0.34989">
        <ele>84.4</ele>
        <time>2022-09-11T07:05:25Z</time>
      </trkpt>
      <trkpt lat="46.55395" lon="0.34993">
        <ele>84.6</ele>
        <time>2022-09-11T07:05:26Z</time>
      </trkpt>
      <trkpt lat="46.55418" lon="0.35012">
        <ele>85.4</ele>
        <time>2022-09-11T07:05:32Z</time>
      </trkpt>
      <trkpt lat="46.5542" lon="0.35014">
        <ele>85.6</ele>
        <time>2022-09-11T07:05:33Z</time>
      </trkpt>
      <trkpt lat="46.55426" lon="0.3503">
        <ele>86.2</ele>
        <time>2022-09-11T07:05:37Z</time>
      </trkpt>
      <trkpt lat="46.55429" lon="0.35035">
        <ele>86.4</ele>
        <time>2022-09-11T07:05:38Z</time>
      </trkpt>
      <trkpt lat="46.5544" lon="0.35063">
        <ele>86.2</ele>
        <time>2022-09-11T07:05:42Z</time>
      </trkpt>
      <trkpt lat="46.55455" lon="0.35106">
        <ele>85.4</ele>
        <time>2022-09-11T07:05:47Z</time>
      </trkpt>
      <trkpt lat="46.55461" lon="0.35123">
        <ele>85.2</ele>
        <time>2022-09-11T07:05:49Z</time>
      </trkpt>
      <trkpt lat="46.55476" lon="0.35171">
        <ele>85.2</ele>
        <time>2022-09-11T07:05:55Z</time>
      </trkpt>
      <trkpt lat="46.5549" lon="0.35214">
        <ele>85.4</ele>
        <time>2022-09-11T07:06:02Z</time>
      </trkpt>
      <trkpt lat="46.55494" lon="0.35229">
        <ele>85.6</ele>
        <time>2022-09-11T07:06:03Z</time>
      </trkpt>
      <trkpt lat="46.555" lon="0.35261">
        <ele>85.8</ele>
        <time>2022-09-11T07:06:07Z</time>
      </trkpt>
      <trkpt lat="46.55499" lon="0.35277">
        <ele>85.8</ele>
        <time>2022-09-11T07:06:09Z</time>
      </trkpt>
      <trkpt lat="46.55496" lon="0.35285">
        <ele>85.8</ele>
        <time>2022-09-11T07:06:10Z</time>
      </trkpt>
      <trkpt lat="46.55493" lon="0.35293">
        <ele>85.8</ele>
        <time>2022-09-11T07:06:11Z</time>
      </trkpt>
      <trkpt lat="46.55477" lon="0.35331">
        <ele>85.6</ele>
        <time>2022-09-11T07:06:16Z</time>
      </trkpt>
      <trkpt lat="46.55456" lon="0.35371">
        <ele>85.4</ele>
        <time>2022-09-11T07:06:22Z</time>
      </trkpt>
      <trkpt lat="46.55436" lon="0.35392">
        <ele>85.4</ele>
        <time>2022-09-11T07:06:27Z</time>
      </trkpt>
      <trkpt lat="46.55424" lon="0.35401">
        <ele>85.4</ele>
        <time>2022-09-11T07:06:30Z</time>
      </trkpt>
      <trkpt lat="46.55394" lon="0.35415">
        <ele>85.6</ele>
        <time>2022-09-11T07:06:37Z</time>
      </trkpt>
      <trkpt lat="46.55382" lon="0.35418">
        <ele>85.4</ele>
        <time>2022-09-11T07:06:42Z</time>
      </trkpt>
      <trkpt lat="46.55375" lon="0.3542">
        <ele>85</ele>
        <time>2022-09-11T07:06:47Z</time>
      </trkpt>
      <trkpt lat="46.55374" lon="0.3542">
        <ele>85</ele>
        <time>2022-09-11T07:06:48Z</time>
      </trkpt>
      <trkpt lat="46.55374" lon="0.35418">
        <ele>84.8</ele>
        <time>2022-09-11T07:06:50Z</time>
      </trkpt>
      <trkpt lat="46.55375" lon="0.35418">
        <ele>84.8</ele>
        <time>2022-09-11T07:06:51Z</time>
      </trkpt>
      <trkpt lat="46.55376" lon="0.35419">
        <ele>84.8</ele>
        <time>2022-09-11T07:06:52Z</time>
      </trkpt>
      <trkpt lat="46.55381" lon="0.35421">
        <ele>84.8</ele>
        <time>2022-09-11T07:06:55Z</time>
      </trkpt>
      <trkpt lat="46.55383" lon="0.35421">
        <ele>84.8</ele>
        <time>2022-09-11T07:06:56Z</time>
      </trkpt>
      <trkpt lat="46.55389" lon="0.35424">
        <ele>85</ele>
        <time>2022-09-11T07:06:59Z</time>
      </trkpt>
      <trkpt lat="46.5539" lon="0.35425">
        <ele>85.2</ele>
        <time>2022-09-11T07:07:00Z</time>
      </trkpt>
      <trkpt lat="46.55392" lon="0.35428">
        <ele>86.4</ele>
        <time>2022-09-11T07:07:04Z</time>
      </trkpt>
      <trkpt lat="46.55393" lon="0.35428">
        <ele>86.6</ele>
        <time>2022-09-11T07:07:05Z</time>
      </trkpt>
      <trkpt lat="46.55394" lon="0.35427">
        <ele>87</ele>
        <time>2022-09-11T07:07:06Z</time>
      </trkpt>
      <trkpt lat="46.55397" lon="0.35426">
        <ele>87.6</ele>
        <time>2022-09-11T07:07:08Z</time>
      </trkpt>
      <trkpt lat="46.55404" lon="0.35426">
        <ele>88.6</ele>
        <time>2022-09-11T07:07:11Z</time>
      </trkpt>
      <trkpt lat="46.55409" lon="0.35425">
        <ele>89.6</ele>
        <time>2022-09-11T07:07:14Z</time>
      </trkpt>
      <trkpt lat="46.55414" lon="0.35426">
        <ele>90.2</ele>
        <time>2022-09-11T07:07:17Z</time>
      </trkpt>
      <trkpt lat="46.55417" lon="0.35425">
        <ele>90.8</ele>
        <time>2022-09-11T07:07:19Z</time>
      </trkpt>
      <trkpt lat="46.55425" lon="0.35425">
        <ele>92</ele>
        <time>2022-09-11T07:07:23Z</time>
      </trkpt>
      <trkpt lat="46.55427" lon="0.35425">
        <ele>92.2</ele>
        <time>2022-09-11T07:07:24Z</time>
      </trkpt>
      <trkpt lat="46.55435" lon="0.35424">
        <ele>93</ele>
        <time>2022-09-11T07:07:28Z</time>
      </trkpt>
      <trkpt lat="46.55443" lon="0.35423">
        <ele>94.2</ele>
        <time>2022-09-11T07:07:33Z</time>
      </trkpt>
      <trkpt lat="46.55452" lon="0.35423">
        <ele>95.6</ele>
        <time>2022-09-11T07:07:39Z</time>
      </trkpt>
      <trkpt lat="46.55454" lon="0.35423">
        <ele>96</ele>
        <time>2022-09-11T07:07:40Z</time>
      </trkpt>
      <trkpt lat="46.55457" lon="0.35423">
        <ele>96.8</ele>
        <time>2022-09-11T07:07:43Z</time>
      </trkpt>
      <trkpt lat="46.5546" lon="0.35423">
        <ele>97.8</ele>
        <time>2022-09-11T07:07:46Z</time>
      </trkpt>
      <trkpt lat="46.55462" lon="0.35423">
        <ele>98.2</ele>
        <time>2022-09-11T07:07:48Z</time>
      </trkpt>
      <trkpt lat="46.55464" lon="0.35423">
        <ele>99</ele>
        <time>2022-09-11T07:07:50Z</time>
      </trkpt>
      <trkpt lat="46.55472" lon="0.35421">
        <ele>100</ele>
        <time>2022-09-11T07:07:55Z</time>
      </trkpt>
      <trkpt lat="46.55476" lon="0.35421">
        <ele>101.2</ele>
        <time>2022-09-11T07:07:58Z</time>
      </trkpt>
      <trkpt lat="46.55482" lon="0.35418">
        <ele>102.4</ele>
        <time>2022-09-11T07:08:03Z</time>
      </trkpt>
      <trkpt lat="46.55483" lon="0.35418">
        <ele>103</ele>
        <time>2022-09-11T07:08:04Z</time>
      </trkpt>
      <trkpt lat="46.55485" lon="0.35416">
        <ele>103.8</ele>
        <time>2022-09-11T07:08:06Z</time>
      </trkpt>
      <trkpt lat="46.55488" lon="0.35416">
        <ele>104.6</ele>
        <time>2022-09-11T07:08:09Z</time>
      </trkpt>
      <trkpt lat="46.55489" lon="0.35416">
        <ele>105</ele>
        <time>2022-09-11T07:08:10Z</time>
      </trkpt>
      <trkpt lat="46.55491" lon="0.35416">
        <ele>105.4</ele>
        <time>2022-09-11T07:08:12Z</time>
      </trkpt>
      <trkpt lat="46.55494" lon="0.35416">
        <ele>106</ele>
        <time>2022-09-11T07:08:14Z</time>
      </trkpt>
      <trkpt lat="46.55498" lon="0.35417">
        <ele>107.2</ele>
        <time>2022-09-11T07:08:18Z</time>
      </trkpt>
      <trkpt lat="46.55503" lon="0.35419">
        <ele>108.4</ele>
        <time>2022-09-11T07:08:23Z</time>
      </trkpt>
      <trkpt lat="46.55509" lon="0.35422">
        <ele>109.6</ele>
        <time>2022-09-11T07:08:28Z</time>
      </trkpt>
      <trkpt lat="46.55514" lon="0.35426">
        <ele>110.8</ele>
        <time>2022-09-11T07:08:33Z</time>
      </trkpt>
      <trkpt lat="46.55515" lon="0.35427">
        <ele>111</ele>
        <time>2022-09-11T07:08:34Z</time>
      </trkpt>
      <trkpt lat="46.55519" lon="0.35432">
        <ele>112</ele>
        <time>2022-09-11T07:08:38Z</time>
      </trkpt>
      <trkpt lat="46.55521" lon="0.35438">
        <ele>113.2</ele>
        <time>2022-09-11T07:08:42Z</time>
      </trkpt>
      <trkpt lat="46.55521" lon="0.3544">
        <ele>113.4</ele>
        <time>2022-09-11T07:08:43Z</time>
      </trkpt>
      <trkpt lat="46.55522" lon="0.35447">
        <ele>114.2</ele>
        <time>2022-09-11T07:08:47Z</time>
      </trkpt>
      <trkpt lat="46.55523" lon="0.35458">
        <ele>115.2</ele>
        <time>2022-09-11T07:08:53Z</time>
      </trkpt>
      <trkpt lat="46.55523" lon="0.35459">
        <ele>115.4</ele>
        <time>2022-09-11T07:08:54Z</time>
      </trkpt>
      <trkpt lat="46.55525" lon="0.35471">
        <ele>116.2</ele>
        <time>2022-09-11T07:09:00Z</time>
      </trkpt>
      <trkpt lat="46.55526" lon="0.35482">
        <ele>117.2</ele>
        <time>2022-09-11T07:09:06Z</time>
      </trkpt>
      <trkpt lat="46.55527" lon="0.35493">
        <ele>117.8</ele>
        <time>2022-09-11T07:09:12Z</time>
      </trkpt>
      <trkpt lat="46.55527" lon="0.35501">
        <ele>118.4</ele>
        <time>2022-09-11T07:09:16Z</time>
      </trkpt>
      <trkpt lat="46.55528" lon="0.35509">
        <ele>118.8</ele>
        <time>2022-09-11T07:09:19Z</time>
      </trkpt>
      <trkpt lat="46.55528" lon="0.35522">
        <ele>119.4</ele>
        <time>2022-09-11T07:09:24Z</time>
      </trkpt>
      <trkpt lat="46.55529" lon="0.3553">
        <ele>119.8</ele>
        <time>2022-09-11T07:09:27Z</time>
      </trkpt>
      <trkpt lat="46.55529" lon="0.35551">
        <ele>120.6</ele>
        <time>2022-09-11T07:09:35Z</time>
      </trkpt>
      <trkpt lat="46.5553" lon="0.3557">
        <ele>121.8</ele>
        <time>2022-09-11T07:09:42Z</time>
      </trkpt>
      <trkpt lat="46.55532" lon="0.35587">
        <ele>122.2</ele>
        <time>2022-09-11T07:09:48Z</time>
      </trkpt>
      <trkpt lat="46.55533" lon="0.35599">
        <ele>122.8</ele>
        <time>2022-09-11T07:09:52Z</time>
      </trkpt>
      <trkpt lat="46.55534" lon="0.35616">
        <ele>123.2</ele>
        <time>2022-09-11T07:09:57Z</time>
      </trkpt>
      <trkpt lat="46.55534" lon="0.35628">
        <ele>124</ele>
        <time>2022-09-11T07:10:01Z</time>
      </trkpt>
      <trkpt lat="46.55535" lon="0.35641">
        <ele>124.2</ele>
        <time>2022-09-11T07:10:05Z</time>
      </trkpt>
      <trkpt lat="46.55534" lon="0.35652">
        <ele>124.6</ele>
        <time>2022-09-11T07:10:08Z</time>
      </trkpt>
      <trkpt lat="46.5553" lon="0.35658">
        <ele>124.8</ele>
        <time>2022-09-11T07:10:10Z</time>
      </trkpt>
      <trkpt lat="46.55527" lon="0.3566">
        <ele>125</ele>
        <time>2022-09-11T07:10:11Z</time>
      </trkpt>
      <trkpt lat="46.55516" lon="0.35665">
        <ele>125.4</ele>
        <time>2022-09-11T07:10:16Z</time>
      </trkpt>
      <trkpt lat="46.55505" lon="0.35666">
        <ele>126</ele>
        <time>2022-09-11T07:10:21Z</time>
      </trkpt>
      <trkpt lat="46.55503" lon="0.35666">
        <ele>126</ele>
        <time>2022-09-11T07:10:22Z</time>
      </trkpt>
      <trkpt lat="46.55486" lon="0.35666">
        <ele>126.6</ele>
        <time>2022-09-11T07:10:29Z</time>
      </trkpt>
      <trkpt lat="46.55481" lon="0.35666">
        <ele>127</ele>
        <time>2022-09-11T07:10:31Z</time>
      </trkpt>
      <trkpt lat="46.55464" lon="0.35664">
        <ele>127.6</ele>
        <time>2022-09-11T07:10:37Z</time>
      </trkpt>
      <trkpt lat="46.55436" lon="0.35659">
        <ele>128</ele>
        <time>2022-09-11T07:10:45Z</time>
      </trkpt>
      <trkpt lat="46.55406" lon="0.35652">
        <ele>128.2</ele>
        <time>2022-09-11T07:10:52Z</time>
      </trkpt>
      <trkpt lat="46.55372" lon="0.35645">
        <ele>127.2</ele>
        <time>2022-09-11T07:10:59Z</time>
      </trkpt>
      <trkpt lat="46.55362" lon="0.35642">
        <ele>127</ele>
        <time>2022-09-11T07:11:01Z</time>
      </trkpt>
      <trkpt lat="46.55356" lon="0.35641">
        <ele>126.8</ele>
        <time>2022-09-11T07:11:02Z</time>
      </trkpt>
      <trkpt lat="46.55338" lon="0.35638">
        <ele>126.4</ele>
        <time>2022-09-11T07:11:05Z</time>
      </trkpt>
      <trkpt lat="46.55324" lon="0.35636">
        <ele>125.6</ele>
        <time>2022-09-11T07:11:07Z</time>
      </trkpt>
      <trkpt lat="46.55295" lon="0.35633">
        <ele>124.6</ele>
        <time>2022-09-11T07:11:11Z</time>
      </trkpt>
      <trkpt lat="46.55287" lon="0.35633">
        <ele>124.4</ele>
        <time>2022-09-11T07:11:12Z</time>
      </trkpt>
      <trkpt lat="46.55271" lon="0.35633">
        <ele>123.6</ele>
        <time>2022-09-11T07:11:14Z</time>
      </trkpt>
      <trkpt lat="46.55245" lon="0.35636">
        <ele>122.6</ele>
        <time>2022-09-11T07:11:17Z</time>
      </trkpt>
      <trkpt lat="46.55237" lon="0.35639">
        <ele>122</ele>
        <time>2022-09-11T07:11:18Z</time>
      </trkpt>
      <trkpt lat="46.55229" lon="0.35644">
        <ele>121.6</ele>
        <time>2022-09-11T07:11:19Z</time>
      </trkpt>
      <trkpt lat="46.55221" lon="0.35651">
        <ele>121.2</ele>
        <time>2022-09-11T07:11:20Z</time>
      </trkpt>
      <trkpt lat="46.55206" lon="0.35671">
        <ele>120.4</ele>
        <time>2022-09-11T07:11:22Z</time>
      </trkpt>
      <trkpt lat="46.55198" lon="0.3568">
        <ele>119.6</ele>
        <time>2022-09-11T07:11:23Z</time>
      </trkpt>
      <trkpt lat="46.55189" lon="0.35686">
        <ele>118.4</ele>
        <time>2022-09-11T07:11:24Z</time>
      </trkpt>
      <trkpt lat="46.55179" lon="0.35688">
        <ele>117.8</ele>
        <time>2022-09-11T07:11:25Z</time>
      </trkpt>
      <trkpt lat="46.5517" lon="0.35686">
        <ele>117.2</ele>
        <time>2022-09-11T07:11:26Z</time>
      </trkpt>
      <trkpt lat="46.55152" lon="0.35681">
        <ele>115.8</ele>
        <time>2022-09-11T07:11:28Z</time>
      </trkpt>
      <trkpt lat="46.55136" lon="0.35673">
        <ele>115.2</ele>
        <time>2022-09-11T07:11:30Z</time>
      </trkpt>
      <trkpt lat="46.55128" lon="0.35669">
        <ele>114.8</ele>
        <time>2022-09-11T07:11:31Z</time>
      </trkpt>
      <trkpt lat="46.5512" lon="0.35664">
        <ele>114.4</ele>
        <time>2022-09-11T07:11:32Z</time>
      </trkpt>
      <trkpt lat="46.55104" lon="0.35654">
        <ele>113.8</ele>
        <time>2022-09-11T07:11:34Z</time>
      </trkpt>
      <trkpt lat="46.55079" lon="0.35642">
        <ele>112.8</ele>
        <time>2022-09-11T07:11:37Z</time>
      </trkpt>
      <trkpt lat="46.55071" lon="0.35639">
        <ele>112.4</ele>
        <time>2022-09-11T07:11:38Z</time>
      </trkpt>
      <trkpt lat="46.55062" lon="0.35637">
        <ele>112.2</ele>
        <time>2022-09-11T07:11:39Z</time>
      </trkpt>
      <trkpt lat="46.55053" lon="0.35636">
        <ele>111.6</ele>
        <time>2022-09-11T07:11:40Z</time>
      </trkpt>
      <trkpt lat="46.55037" lon="0.35637">
        <ele>111</ele>
        <time>2022-09-11T07:11:42Z</time>
      </trkpt>
      <trkpt lat="46.55028" lon="0.35637">
        <ele>110.6</ele>
        <time>2022-09-11T07:11:43Z</time>
      </trkpt>
      <trkpt lat="46.54988" lon="0.35641">
        <ele>109.4</ele>
        <time>2022-09-11T07:11:48Z</time>
      </trkpt>
      <trkpt lat="46.54981" lon="0.35642">
        <ele>109</ele>
        <time>2022-09-11T07:11:49Z</time>
      </trkpt>
      <trkpt lat="46.54958" lon="0.35647">
        <ele>108</ele>
        <time>2022-09-11T07:11:52Z</time>
      </trkpt>
      <trkpt lat="46.54943" lon="0.3565">
        <ele>107.2</ele>
        <time>2022-09-11T07:11:54Z</time>
      </trkpt>
      <trkpt lat="46.54936" lon="0.35652">
        <ele>106.8</ele>
        <time>2022-09-11T07:11:55Z</time>
      </trkpt>
      <trkpt lat="46.54912" lon="0.35662">
        <ele>105.6</ele>
        <time>2022-09-11T07:11:58Z</time>
      </trkpt>
      <trkpt lat="46.54903" lon="0.35665">
        <ele>104.4</ele>
        <time>2022-09-11T07:11:59Z</time>
      </trkpt>
      <trkpt lat="46.54895" lon="0.3567">
        <ele>103</ele>
        <time>2022-09-11T07:12:00Z</time>
      </trkpt>
      <trkpt lat="46.5488" lon="0.35679">
        <ele>100.8</ele>
        <time>2022-09-11T07:12:02Z</time>
      </trkpt>
      <trkpt lat="46.54873" lon="0.35682">
        <ele>99</ele>
        <time>2022-09-11T07:12:03Z</time>
      </trkpt>
      <trkpt lat="46.54867" lon="0.35683">
        <ele>98</ele>
        <time>2022-09-11T07:12:04Z</time>
      </trkpt>
      <trkpt lat="46.54862" lon="0.35682">
        <ele>96.6</ele>
        <time>2022-09-11T07:12:05Z</time>
      </trkpt>
      <trkpt lat="46.54856" lon="0.35678">
        <ele>95.8</ele>
        <time>2022-09-11T07:12:06Z</time>
      </trkpt>
      <trkpt lat="46.54851" lon="0.35673">
        <ele>94.6</ele>
        <time>2022-09-11T07:12:07Z</time>
      </trkpt>
      <trkpt lat="46.54842" lon="0.35661">
        <ele>93.4</ele>
        <time>2022-09-11T07:12:09Z</time>
      </trkpt>
      <trkpt lat="46.54839" lon="0.35655">
        <ele>93</ele>
        <time>2022-09-11T07:12:10Z</time>
      </trkpt>
      <trkpt lat="46.54832" lon="0.35641">
        <ele>92.4</ele>
        <time>2022-09-11T07:12:12Z</time>
      </trkpt>
      <trkpt lat="46.54832" lon="0.35641">
        <ele>91.6</ele>
        <time>2022-09-11T07:12:13Z</time>
      </trkpt>
      <trkpt lat="46.54821" lon="0.35614">
        <ele>91.2</ele>
        <time>2022-09-11T07:12:16Z</time>
      </trkpt>
      <trkpt lat="46.54819" lon="0.35608">
        <ele>90.2</ele>
        <time>2022-09-11T07:12:17Z</time>
      </trkpt>
      <trkpt lat="46.54817" lon="0.35598">
        <ele>88.8</ele>
        <time>2022-09-11T07:12:19Z</time>
      </trkpt>
      <trkpt lat="46.54815" lon="0.35588">
        <ele>87.8</ele>
        <time>2022-09-11T07:12:21Z</time>
      </trkpt>
      <trkpt lat="46.54815" lon="0.35571">
        <ele>86.2</ele>
        <time>2022-09-11T07:12:25Z</time>
      </trkpt>
      <trkpt lat="46.54808" lon="0.35564">
        <ele>84.8</ele>
        <time>2022-09-11T07:12:28Z</time>
      </trkpt>
      <trkpt lat="46.54801" lon="0.3556">
        <ele>84.2</ele>
        <time>2022-09-11T07:12:30Z</time>
      </trkpt>
      <trkpt lat="46.54783" lon="0.35559">
        <ele>84.2</ele>
        <time>2022-09-11T07:12:34Z</time>
      </trkpt>
      <trkpt lat="46.54759" lon="0.35559">
        <ele>84.2</ele>
        <time>2022-09-11T07:12:40Z</time>
      </trkpt>
      <trkpt lat="46.54748" lon="0.35561">
        <ele>85.2</ele>
        <time>2022-09-11T07:12:45Z</time>
      </trkpt>
      <trkpt lat="46.54746" lon="0.35563">
        <ele>85.2</ele>
        <time>2022-09-11T07:12:46Z</time>
      </trkpt>
      <trkpt lat="46.54746" lon="0.35564">
        <ele>85.4</ele>
        <time>2022-09-11T07:12:47Z</time>
      </trkpt>
      <trkpt lat="46.54743" lon="0.35572">
        <ele>86</ele>
        <time>2022-09-11T07:12:51Z</time>
      </trkpt>
      <trkpt lat="46.5474" lon="0.3558">
        <ele>87</ele>
        <time>2022-09-11T07:12:55Z</time>
      </trkpt>
      <trkpt lat="46.54739" lon="0.35583">
        <ele>87.8</ele>
        <time>2022-09-11T07:12:57Z</time>
      </trkpt>
      <trkpt lat="46.54739" lon="0.35585">
        <ele>88.4</ele>
        <time>2022-09-11T07:12:58Z</time>
      </trkpt>
      <trkpt lat="46.54736" lon="0.3559">
        <ele>89.4</ele>
        <time>2022-09-11T07:13:01Z</time>
      </trkpt>
      <trkpt lat="46.54735" lon="0.35594">
        <ele>90.2</ele>
        <time>2022-09-11T07:13:03Z</time>
      </trkpt>
      <trkpt lat="46.54734" lon="0.35597">
        <ele>90.6</ele>
        <time>2022-09-11T07:13:05Z</time>
      </trkpt>
      <trkpt lat="46.54733" lon="0.356">
        <ele>91.2</ele>
        <time>2022-09-11T07:13:08Z</time>
      </trkpt>
      <trkpt lat="46.54732" lon="0.35603">
        <ele>91.8</ele>
        <time>2022-09-11T07:13:10Z</time>
      </trkpt>
      <trkpt lat="46.54729" lon="0.35608">
        <ele>93</ele>
        <time>2022-09-11T07:13:13Z</time>
      </trkpt>
      <trkpt lat="46.54729" lon="0.35612">
        <ele>93.4</ele>
        <time>2022-09-11T07:13:15Z</time>
      </trkpt>
      <trkpt lat="46.54729" lon="0.35615">
        <ele>93.8</ele>
        <time>2022-09-11T07:13:17Z</time>
      </trkpt>
      <trkpt lat="46.5473" lon="0.35618">
        <ele>93.8</ele>
        <time>2022-09-11T07:13:19Z</time>
      </trkpt>
      <trkpt lat="46.54733" lon="0.35627">
        <ele>93.6</ele>
        <time>2022-09-11T07:13:22Z</time>
      </trkpt>
      <trkpt lat="46.54733" lon="0.35632">
        <ele>93.6</ele>
        <time>2022-09-11T07:13:24Z</time>
      </trkpt>
      <trkpt lat="46.54733" lon="0.35639">
        <ele>93.2</ele>
        <time>2022-09-11T07:13:27Z</time>
      </trkpt>
      <trkpt lat="46.54734" lon="0.35648">
        <ele>93</ele>
        <time>2022-09-11T07:13:32Z</time>
      </trkpt>
      <trkpt lat="46.54734" lon="0.35649">
        <ele>93</ele>
        <time>2022-09-11T07:13:33Z</time>
      </trkpt>
      <trkpt lat="46.54735" lon="0.35657">
        <ele>93.2</ele>
        <time>2022-09-11T07:13:38Z</time>
      </trkpt>
      <trkpt lat="46.54736" lon="0.35659">
        <ele>93.4</ele>
        <time>2022-09-11T07:13:39Z</time>
      </trkpt>
      <trkpt lat="46.54734" lon="0.35667">
        <ele>94.2</ele>
        <time>2022-09-11T07:13:43Z</time>
      </trkpt>
      <trkpt lat="46.54733" lon="0.35669">
        <ele>94.8</ele>
        <time>2022-09-11T07:13:45Z</time>
      </trkpt>
      <trkpt lat="46.54733" lon="0.3567">
        <ele>95.4</ele>
        <time>2022-09-11T07:13:46Z</time>
      </trkpt>
      <trkpt lat="46.54732" lon="0.35674">
        <ele>96.2</ele>
        <time>2022-09-11T07:13:48Z</time>
      </trkpt>
      <trkpt lat="46.54732" lon="0.35675">
        <ele>96.4</ele>
        <time>2022-09-11T07:13:49Z</time>
      </trkpt>
      <trkpt lat="46.54732" lon="0.35679">
        <ele>97.2</ele>
        <time>2022-09-11T07:13:51Z</time>
      </trkpt>
      <trkpt lat="46.54731" lon="0.35682">
        <ele>97.6</ele>
        <time>2022-09-11T07:13:53Z</time>
      </trkpt>
      <trkpt lat="46.54726" lon="0.35686">
        <ele>98.4</ele>
        <time>2022-09-11T07:13:56Z</time>
      </trkpt>
      <trkpt lat="46.54726" lon="0.35688">
        <ele>98.8</ele>
        <time>2022-09-11T07:13:57Z</time>
      </trkpt>
      <trkpt lat="46.54726" lon="0.35691">
        <ele>99.8</ele>
        <time>2022-09-11T07:13:59Z</time>
      </trkpt>
      <trkpt lat="46.54725" lon="0.35693">
        <ele>100</ele>
        <time>2022-09-11T07:14:00Z</time>
      </trkpt>
      <trkpt lat="46.54723" lon="0.35694">
        <ele>100.2</ele>
        <time>2022-09-11T07:14:01Z</time>
      </trkpt>
      <trkpt lat="46.54722" lon="0.35695">
        <ele>100.2</ele>
        <time>2022-09-11T07:14:02Z</time>
      </trkpt>
      <trkpt lat="46.54721" lon="0.35699">
        <ele>101</ele>
        <time>2022-09-11T07:14:04Z</time>
      </trkpt>
      <trkpt lat="46.54718" lon="0.35704">
        <ele>101.8</ele>
        <time>2022-09-11T07:14:08Z</time>
      </trkpt>
      <trkpt lat="46.54716" lon="0.35707">
        <ele>102.2</ele>
        <time>2022-09-11T07:14:10Z</time>
      </trkpt>
      <trkpt lat="46.54712" lon="0.3571">
        <ele>103.2</ele>
        <time>2022-09-11T07:14:14Z</time>
      </trkpt>
      <trkpt lat="46.54711" lon="0.3571">
        <ele>103.4</ele>
        <time>2022-09-11T07:14:15Z</time>
      </trkpt>
      <trkpt lat="46.5471" lon="0.35709">
        <ele>103.6</ele>
        <time>2022-09-11T07:14:16Z</time>
      </trkpt>
      <trkpt lat="46.54709" lon="0.35709">
        <ele>103.8</ele>
        <time>2022-09-11T07:14:17Z</time>
      </trkpt>
      <trkpt lat="46.54707" lon="0.35712">
        <ele>104.2</ele>
        <time>2022-09-11T07:14:20Z</time>
      </trkpt>
      <trkpt lat="46.54706" lon="0.35714">
        <ele>104.4</ele>
        <time>2022-09-11T07:14:21Z</time>
      </trkpt>
      <trkpt lat="46.54705" lon="0.35716">
        <ele>104.6</ele>
        <time>2022-09-11T07:14:23Z</time>
      </trkpt>
      <trkpt lat="46.54704" lon="0.35719">
        <ele>105.4</ele>
        <time>2022-09-11T07:14:25Z</time>
      </trkpt>
      <trkpt lat="46.54702" lon="0.35724">
        <ele>106.2</ele>
        <time>2022-09-11T07:14:28Z</time>
      </trkpt>
      <trkpt lat="46.54701" lon="0.35725">
        <ele>106.4</ele>
        <time>2022-09-11T07:14:29Z</time>
      </trkpt>
      <trkpt lat="46.54701" lon="0.35727">
        <ele>106.6</ele>
        <time>2022-09-11T07:14:30Z</time>
      </trkpt>
      <trkpt lat="46.54697" lon="0.35735">
        <ele>107.4</ele>
        <time>2022-09-11T07:14:35Z</time>
      </trkpt>
      <trkpt lat="46.54697" lon="0.35737">
        <ele>107.8</ele>
        <time>2022-09-11T07:14:36Z</time>
      </trkpt>
      <trkpt lat="46.54696" lon="0.35739">
        <ele>108</ele>
        <time>2022-09-11T07:14:38Z</time>
      </trkpt>
      <trkpt lat="46.54694" lon="0.35746">
        <ele>108.4</ele>
        <time>2022-09-11T07:14:42Z</time>
      </trkpt>
      <trkpt lat="46.54694" lon="0.3575">
        <ele>108.6</ele>
        <time>2022-09-11T07:14:44Z</time>
      </trkpt>
      <trkpt lat="46.54695" lon="0.35757">
        <ele>108.6</ele>
        <time>2022-09-11T07:14:48Z</time>
      </trkpt>
      <trkpt lat="46.54699" lon="0.35767">
        <ele>108.8</ele>
        <time>2022-09-11T07:14:52Z</time>
      </trkpt>
      <trkpt lat="46.547" lon="0.35769">
        <ele>108.8</ele>
        <time>2022-09-11T07:14:53Z</time>
      </trkpt>
      <trkpt lat="46.54703" lon="0.35784">
        <ele>109.4</ele>
        <time>2022-09-11T07:14:59Z</time>
      </trkpt>
      <trkpt lat="46.54703" lon="0.35787">
        <ele>110</ele>
        <time>2022-09-11T07:15:00Z</time>
      </trkpt>
      <trkpt lat="46.54706" lon="0.35802">
        <ele>110.8</ele>
        <time>2022-09-11T07:15:06Z</time>
      </trkpt>
      <trkpt lat="46.5471" lon="0.35823">
        <ele>110.2</ele>
        <time>2022-09-11T07:15:11Z</time>
      </trkpt>
      <trkpt lat="46.54714" lon="0.35842">
        <ele>108.8</ele>
        <time>2022-09-11T07:15:15Z</time>
      </trkpt>
      <trkpt lat="46.54717" lon="0.35851">
        <ele>107.6</ele>
        <time>2022-09-11T07:15:17Z</time>
      </trkpt>
      <trkpt lat="46.54721" lon="0.35863">
        <ele>106.4</ele>
        <time>2022-09-11T07:15:20Z</time>
      </trkpt>
      <trkpt lat="46.54723" lon="0.35868">
        <ele>106</ele>
        <time>2022-09-11T07:15:21Z</time>
      </trkpt>
      <trkpt lat="46.54729" lon="0.35888">
        <ele>105.4</ele>
        <time>2022-09-11T07:15:25Z</time>
      </trkpt>
      <trkpt lat="46.54733" lon="0.35899">
        <ele>104.6</ele>
        <time>2022-09-11T07:15:27Z</time>
      </trkpt>
      <trkpt lat="46.54735" lon="0.35905">
        <ele>104.2</ele>
        <time>2022-09-11T07:15:28Z</time>
      </trkpt>
      <trkpt lat="46.54739" lon="0.35911">
        <ele>104</ele>
        <time>2022-09-11T07:15:29Z</time>
      </trkpt>
      <trkpt lat="46.54749" lon="0.35926">
        <ele>103</ele>
        <time>2022-09-11T07:15:32Z</time>
      </trkpt>
      <trkpt lat="46.54762" lon="0.35954">
        <ele>102.6</ele>
        <time>2022-09-11T07:15:38Z</time>
      </trkpt>
      <trkpt lat="46.54774" lon="0.35986">
        <ele>103</ele>
        <time>2022-09-11T07:15:45Z</time>
      </trkpt>
      <trkpt lat="46.54781" lon="0.36008">
        <ele>103.2</ele>
        <time>2022-09-11T07:15:51Z</time>
      </trkpt>
      <trkpt lat="46.54797" lon="0.36038">
        <ele>103.8</ele>
        <time>2022-09-11T07:15:58Z</time>
      </trkpt>
      <trkpt lat="46.54803" lon="0.36047">
        <ele>103.6</ele>
        <time>2022-09-11T07:16:00Z</time>
      </trkpt>
      <trkpt lat="46.54808" lon="0.36054">
        <ele>103.6</ele>
        <time>2022-09-11T07:16:02Z</time>
      </trkpt>
      <trkpt lat="46.54814" lon="0.3606">
        <ele>103.8</ele>
        <time>2022-09-11T07:16:04Z</time>
      </trkpt>
      <trkpt lat="46.54825" lon="0.36072">
        <ele>103.6</ele>
        <time>2022-09-11T07:16:07Z</time>
      </trkpt>
      <trkpt lat="46.54832" lon="0.3608">
        <ele>103.4</ele>
        <time>2022-09-11T07:16:09Z</time>
      </trkpt>
      <trkpt lat="46.54855" lon="0.36105">
        <ele>103</ele>
        <time>2022-09-11T07:16:15Z</time>
      </trkpt>
      <trkpt lat="46.5486" lon="0.36111">
        <ele>102.8</ele>
        <time>2022-09-11T07:16:16Z</time>
      </trkpt>
      <trkpt lat="46.5487" lon="0.36121">
        <ele>102</ele>
        <time>2022-09-11T07:16:18Z</time>
      </trkpt>
      <trkpt lat="46.5488" lon="0.36131">
        <ele>101</ele>
        <time>2022-09-11T07:16:20Z</time>
      </trkpt>
      <trkpt lat="46.54884" lon="0.36136">
        <ele>100.6</ele>
        <time>2022-09-11T07:16:21Z</time>
      </trkpt>
      <trkpt lat="46.54897" lon="0.3615">
        <ele>99.4</ele>
        <time>2022-09-11T07:16:24Z</time>
      </trkpt>
      <trkpt lat="46.54911" lon="0.36165">
        <ele>98.6</ele>
        <time>2022-09-11T07:16:27Z</time>
      </trkpt>
      <trkpt lat="46.54916" lon="0.36171">
        <ele>98.4</ele>
        <time>2022-09-11T07:16:28Z</time>
      </trkpt>
      <trkpt lat="46.54932" lon="0.36189">
        <ele>97.4</ele>
        <time>2022-09-11T07:16:31Z</time>
      </trkpt>
      <trkpt lat="46.54937" lon="0.36194">
        <ele>96.8</ele>
        <time>2022-09-11T07:16:32Z</time>
      </trkpt>
      <trkpt lat="46.54942" lon="0.36198">
        <ele>96.6</ele>
        <time>2022-09-11T07:16:33Z</time>
      </trkpt>
      <trkpt lat="46.54946" lon="0.36202">
        <ele>96.2</ele>
        <time>2022-09-11T07:16:34Z</time>
      </trkpt>
      <trkpt lat="46.54954" lon="0.36209">
        <ele>95.4</ele>
        <time>2022-09-11T07:16:36Z</time>
      </trkpt>
      <trkpt lat="46.54958" lon="0.36211">
        <ele>95</ele>
        <time>2022-09-11T07:16:37Z</time>
      </trkpt>
      <trkpt lat="46.54962" lon="0.36214">
        <ele>94.8</ele>
        <time>2022-09-11T07:16:38Z</time>
      </trkpt>
      <trkpt lat="46.54965" lon="0.36217">
        <ele>94.6</ele>
        <time>2022-09-11T07:16:39Z</time>
      </trkpt>
      <trkpt lat="46.54975" lon="0.36228">
        <ele>94.2</ele>
        <time>2022-09-11T07:16:42Z</time>
      </trkpt>
      <trkpt lat="46.54981" lon="0.36236">
        <ele>93.8</ele>
        <time>2022-09-11T07:16:44Z</time>
      </trkpt>
      <trkpt lat="46.54999" lon="0.36256">
        <ele>92.4</ele>
        <time>2022-09-11T07:16:49Z</time>
      </trkpt>
      <trkpt lat="46.55004" lon="0.36261">
        <ele>92</ele>
        <time>2022-09-11T07:16:50Z</time>
      </trkpt>
      <trkpt lat="46.55009" lon="0.36266">
        <ele>91.2</ele>
        <time>2022-09-11T07:16:51Z</time>
      </trkpt>
      <trkpt lat="46.55019" lon="0.36275">
        <ele>89.2</ele>
        <time>2022-09-11T07:16:53Z</time>
      </trkpt>
      <trkpt lat="46.55027" lon="0.3628">
        <ele>88</ele>
        <time>2022-09-11T07:16:55Z</time>
      </trkpt>
      <trkpt lat="46.5503" lon="0.3628">
        <ele>87.6</ele>
        <time>2022-09-11T07:16:56Z</time>
      </trkpt>
      <trkpt lat="46.55034" lon="0.36282">
        <ele>87.4</ele>
        <time>2022-09-11T07:16:57Z</time>
      </trkpt>
      <trkpt lat="46.55043" lon="0.36291">
        <ele>86.8</ele>
        <time>2022-09-11T07:17:00Z</time>
      </trkpt>
      <trkpt lat="46.55044" lon="0.36295">
        <ele>86.8</ele>
        <time>2022-09-11T07:17:01Z</time>
      </trkpt>
      <trkpt lat="46.55044" lon="0.363">
        <ele>86.8</ele>
        <time>2022-09-11T07:17:02Z</time>
      </trkpt>
      <trkpt lat="46.55044" lon="0.36308">
        <ele>87</ele>
        <time>2022-09-11T07:17:04Z</time>
      </trkpt>
      <trkpt lat="46.55039" lon="0.36326">
        <ele>87.6</ele>
        <time>2022-09-11T07:17:09Z</time>
      </trkpt>
      <trkpt lat="46.55033" lon="0.36343">
        <ele>88</ele>
        <time>2022-09-11T07:17:14Z</time>
      </trkpt>
      <trkpt lat="46.55032" lon="0.36346">
        <ele>88</ele>
        <time>2022-09-11T07:17:15Z</time>
      </trkpt>
      <trkpt lat="46.55032" lon="0.36355">
        <ele>88.6</ele>
        <time>2022-09-11T07:17:17Z</time>
      </trkpt>
      <trkpt lat="46.55031" lon="0.36369">
        <ele>89</ele>
        <time>2022-09-11T07:17:20Z</time>
      </trkpt>
      <trkpt lat="46.55035" lon="0.36397">
        <ele>89.6</ele>
        <time>2022-09-11T07:17:26Z</time>
      </trkpt>
      <trkpt lat="46.55034" lon="0.3641">
        <ele>89.8</ele>
        <time>2022-09-11T07:17:29Z</time>
      </trkpt>
      <trkpt lat="46.55033" lon="0.36414">
        <ele>90.2</ele>
        <time>2022-09-11T07:17:30Z</time>
      </trkpt>
      <trkpt lat="46.55032" lon="0.36421">
        <ele>90.6</ele>
        <time>2022-09-11T07:17:32Z</time>
      </trkpt>
      <trkpt lat="46.55032" lon="0.36429">
        <ele>91.4</ele>
        <time>2022-09-11T07:17:34Z</time>
      </trkpt>
      <trkpt lat="46.55033" lon="0.36444">
        <ele>91.8</ele>
        <time>2022-09-11T07:17:38Z</time>
      </trkpt>
      <trkpt lat="46.55033" lon="0.36447">
        <ele>92.4</ele>
        <time>2022-09-11T07:17:39Z</time>
      </trkpt>
      <trkpt lat="46.55037" lon="0.36468">
        <ele>93.4</ele>
        <time>2022-09-11T07:17:45Z</time>
      </trkpt>
      <trkpt lat="46.55045" lon="0.36488">
        <ele>94.4</ele>
        <time>2022-09-11T07:17:51Z</time>
      </trkpt>
      <trkpt lat="46.55046" lon="0.36491">
        <ele>94.6</ele>
        <time>2022-09-11T07:17:52Z</time>
      </trkpt>
      <trkpt lat="46.55056" lon="0.36503">
        <ele>95.6</ele>
        <time>2022-09-11T07:17:56Z</time>
      </trkpt>
      <trkpt lat="46.55062" lon="0.3651">
        <ele>96.2</ele>
        <time>2022-09-11T07:17:59Z</time>
      </trkpt>
      <trkpt lat="46.55071" lon="0.36519">
        <ele>96.8</ele>
        <time>2022-09-11T07:18:03Z</time>
      </trkpt>
      <trkpt lat="46.55075" lon="0.36525">
        <ele>97.2</ele>
        <time>2022-09-11T07:18:05Z</time>
      </trkpt>
      <trkpt lat="46.55086" lon="0.36534">
        <ele>97.8</ele>
        <time>2022-09-11T07:18:10Z</time>
      </trkpt>
      <trkpt lat="46.55088" lon="0.36536">
        <ele>98</ele>
        <time>2022-09-11T07:18:11Z</time>
      </trkpt>
      <trkpt lat="46.551" lon="0.36552">
        <ele>98.8</ele>
        <time>2022-09-11T07:18:17Z</time>
      </trkpt>
      <trkpt lat="46.55109" lon="0.3657">
        <ele>99.6</ele>
        <time>2022-09-11T07:18:23Z</time>
      </trkpt>
      <trkpt lat="46.55111" lon="0.36575">
        <ele>99.8</ele>
        <time>2022-09-11T07:18:25Z</time>
      </trkpt>
      <trkpt lat="46.55113" lon="0.36586">
        <ele>100.6</ele>
        <time>2022-09-11T07:18:29Z</time>
      </trkpt>
      <trkpt lat="46.55116" lon="0.36595">
        <ele>100.8</ele>
        <time>2022-09-11T07:18:32Z</time>
      </trkpt>
      <trkpt lat="46.55118" lon="0.36603">
        <ele>101.4</ele>
        <time>2022-09-11T07:18:35Z</time>
      </trkpt>
      <trkpt lat="46.55119" lon="0.36612">
        <ele>101.8</ele>
        <time>2022-09-11T07:18:38Z</time>
      </trkpt>
      <trkpt lat="46.55118" lon="0.36614">
        <ele>102</ele>
        <time>2022-09-11T07:18:39Z</time>
      </trkpt>
      <trkpt lat="46.55117" lon="0.36614">
        <ele>102</ele>
        <time>2022-09-11T07:18:40Z</time>
      </trkpt>
      <trkpt lat="46.55116" lon="0.36615">
        <ele>102</ele>
        <time>2022-09-11T07:18:42Z</time>
      </trkpt>
      <trkpt lat="46.55113" lon="0.36618">
        <ele>102</ele>
        <time>2022-09-11T07:18:46Z</time>
      </trkpt>
      <trkpt lat="46.55103" lon="0.36613">
        <ele>102.6</ele>
        <time>2022-09-11T07:18:53Z</time>
      </trkpt>
      <trkpt lat="46.55092" lon="0.36604">
        <ele>102.8</ele>
        <time>2022-09-11T07:18:59Z</time>
      </trkpt>
      <trkpt lat="46.55088" lon="0.36602">
        <ele>103</ele>
        <time>2022-09-11T07:19:01Z</time>
      </trkpt>
      <trkpt lat="46.55074" lon="0.36595">
        <ele>103.6</ele>
        <time>2022-09-11T07:19:07Z</time>
      </trkpt>
      <trkpt lat="46.55069" lon="0.36593">
        <ele>104.2</ele>
        <time>2022-09-11T07:19:09Z</time>
      </trkpt>
      <trkpt lat="46.55053" lon="0.36585">
        <ele>105.2</ele>
        <time>2022-09-11T07:19:15Z</time>
      </trkpt>
      <trkpt lat="46.5505" lon="0.36584">
        <ele>105.4</ele>
        <time>2022-09-11T07:19:16Z</time>
      </trkpt>
      <trkpt lat="46.55041" lon="0.36579">
        <ele>106.2</ele>
        <time>2022-09-11T07:19:21Z</time>
      </trkpt>
      <trkpt lat="46.55035" lon="0.36576">
        <ele>107</ele>
        <time>2022-09-11T07:19:24Z</time>
      </trkpt>
      <trkpt lat="46.55029" lon="0.36572">
        <ele>107.8</ele>
        <time>2022-09-11T07:19:28Z</time>
      </trkpt>
      <trkpt lat="46.55024" lon="0.36569">
        <ele>108.6</ele>
        <time>2022-09-11T07:19:31Z</time>
      </trkpt>
      <trkpt lat="46.55022" lon="0.36568">
        <ele>109</ele>
        <time>2022-09-11T07:19:32Z</time>
      </trkpt>
      <trkpt lat="46.55015" lon="0.36562">
        <ele>110</ele>
        <time>2022-09-11T07:19:37Z</time>
      </trkpt>
      <trkpt lat="46.55011" lon="0.36559">
        <ele>110.4</ele>
        <time>2022-09-11T07:19:40Z</time>
      </trkpt>
      <trkpt lat="46.55007" lon="0.36556">
        <ele>111.2</ele>
        <time>2022-09-11T07:19:43Z</time>
      </trkpt>
      <trkpt lat="46.55002" lon="0.36552">
        <ele>112</ele>
        <time>2022-09-11T07:19:47Z</time>
      </trkpt>
      <trkpt lat="46.55001" lon="0.36549">
        <ele>112.6</ele>
        <time>2022-09-11T07:19:49Z</time>
      </trkpt>
      <trkpt lat="46.54998" lon="0.36544">
        <ele>113.8</ele>
        <time>2022-09-11T07:19:53Z</time>
      </trkpt>
      <trkpt lat="46.54991" lon="0.36535">
        <ele>114.6</ele>
        <time>2022-09-11T07:19:59Z</time>
      </trkpt>
      <trkpt lat="46.54989" lon="0.36533">
        <ele>114.8</ele>
        <time>2022-09-11T07:20:01Z</time>
      </trkpt>
      <trkpt lat="46.54983" lon="0.36523">
        <ele>116</ele>
        <time>2022-09-11T07:20:08Z</time>
      </trkpt>
      <trkpt lat="46.54975" lon="0.36515">
        <ele>117</ele>
        <time>2022-09-11T07:20:13Z</time>
      </trkpt>
      <trkpt lat="46.54968" lon="0.36511">
        <ele>117.4</ele>
        <time>2022-09-11T07:20:16Z</time>
      </trkpt>
      <trkpt lat="46.54959" lon="0.36506">
        <ele>117.8</ele>
        <time>2022-09-11T07:20:21Z</time>
      </trkpt>
      <trkpt lat="46.54958" lon="0.36505">
        <ele>118</ele>
        <time>2022-09-11T07:20:22Z</time>
      </trkpt>
      <trkpt lat="46.54958" lon="0.36503">
        <ele>118</ele>
        <time>2022-09-11T07:20:23Z</time>
      </trkpt>
      <trkpt lat="46.54949" lon="0.36494">
        <ele>118.4</ele>
        <time>2022-09-11T07:20:28Z</time>
      </trkpt>
      <trkpt lat="46.54938" lon="0.36488">
        <ele>119.2</ele>
        <time>2022-09-11T07:20:33Z</time>
      </trkpt>
      <trkpt lat="46.54934" lon="0.36486">
        <ele>119.4</ele>
        <time>2022-09-11T07:20:35Z</time>
      </trkpt>
      <trkpt lat="46.54928" lon="0.36485">
        <ele>120.4</ele>
        <time>2022-09-11T07:20:39Z</time>
      </trkpt>
      <trkpt lat="46.54921" lon="0.36483">
        <ele>121.6</ele>
        <time>2022-09-11T07:20:44Z</time>
      </trkpt>
      <trkpt lat="46.54919" lon="0.36481">
        <ele>121.8</ele>
        <time>2022-09-11T07:20:45Z</time>
      </trkpt>
      <trkpt lat="46.54904" lon="0.36475">
        <ele>122.6</ele>
        <time>2022-09-11T07:20:52Z</time>
      </trkpt>
      <trkpt lat="46.54901" lon="0.36475">
        <ele>122.6</ele>
        <time>2022-09-11T07:20:53Z</time>
      </trkpt>
      <trkpt lat="46.54882" lon="0.36471">
        <ele>123.6</ele>
        <time>2022-09-11T07:21:00Z</time>
      </trkpt>
      <trkpt lat="46.54876" lon="0.3647">
        <ele>123.8</ele>
        <time>2022-09-11T07:21:02Z</time>
      </trkpt>
      <trkpt lat="46.54866" lon="0.3647">
        <ele>124</ele>
        <time>2022-09-11T07:21:06Z</time>
      </trkpt>
      <trkpt lat="46.54847" lon="0.36472">
        <ele>124.6</ele>
        <time>2022-09-11T07:21:13Z</time>
      </trkpt>
      <trkpt lat="46.54828" lon="0.36475">
        <ele>124.8</ele>
        <time>2022-09-11T07:21:18Z</time>
      </trkpt>
      <trkpt lat="46.5482" lon="0.36477">
        <ele>125</ele>
        <time>2022-09-11T07:21:20Z</time>
      </trkpt>
      <trkpt lat="46.54809" lon="0.36481">
        <ele>125.4</ele>
        <time>2022-09-11T07:21:23Z</time>
      </trkpt>
      <trkpt lat="46.54804" lon="0.36489">
        <ele>125.4</ele>
        <time>2022-09-11T07:21:25Z</time>
      </trkpt>
      <trkpt lat="46.548" lon="0.36502">
        <ele>125.8</ele>
        <time>2022-09-11T07:21:28Z</time>
      </trkpt>
      <trkpt lat="46.54796" lon="0.3652">
        <ele>126.4</ele>
        <time>2022-09-11T07:21:32Z</time>
      </trkpt>
      <trkpt lat="46.5479" lon="0.36547">
        <ele>127</ele>
        <time>2022-09-11T07:21:38Z</time>
      </trkpt>
      <trkpt lat="46.54789" lon="0.36551">
        <ele>127</ele>
        <time>2022-09-11T07:21:39Z</time>
      </trkpt>
      <trkpt lat="46.54778" lon="0.3656">
        <ele>127.4</ele>
        <time>2022-09-11T07:21:43Z</time>
      </trkpt>
      <trkpt lat="46.54762" lon="0.36574">
        <ele>127.6</ele>
        <time>2022-09-11T07:21:48Z</time>
      </trkpt>
      <trkpt lat="46.54756" lon="0.36584">
        <ele>127.4</ele>
        <time>2022-09-11T07:21:50Z</time>
      </trkpt>
      <trkpt lat="46.54742" lon="0.36611">
        <ele>127</ele>
        <time>2022-09-11T07:21:55Z</time>
      </trkpt>
      <trkpt lat="46.54725" lon="0.36649">
        <ele>126.8</ele>
        <time>2022-09-11T07:22:01Z</time>
      </trkpt>
      <trkpt lat="46.54722" lon="0.36656">
        <ele>126.6</ele>
        <time>2022-09-11T07:22:02Z</time>
      </trkpt>
      <trkpt lat="46.54704" lon="0.36709">
        <ele>126</ele>
        <time>2022-09-11T07:22:09Z</time>
      </trkpt>
      <trkpt lat="46.54702" lon="0.36716">
        <ele>125.8</ele>
        <time>2022-09-11T07:22:10Z</time>
      </trkpt>
      <trkpt lat="46.54688" lon="0.36756">
        <ele>125</ele>
        <time>2022-09-11T07:22:15Z</time>
      </trkpt>
      <trkpt lat="46.54684" lon="0.36764">
        <ele>124.8</ele>
        <time>2022-09-11T07:22:16Z</time>
      </trkpt>
      <trkpt lat="46.54679" lon="0.3677">
        <ele>124.8</ele>
        <time>2022-09-11T07:22:17Z</time>
      </trkpt>
      <trkpt lat="46.54673" lon="0.36774">
        <ele>124.2</ele>
        <time>2022-09-11T07:22:18Z</time>
      </trkpt>
      <trkpt lat="46.54667" lon="0.36777">
        <ele>123.8</ele>
        <time>2022-09-11T07:22:19Z</time>
      </trkpt>
      <trkpt lat="46.54654" lon="0.36783">
        <ele>123.4</ele>
        <time>2022-09-11T07:22:21Z</time>
      </trkpt>
      <trkpt lat="46.5463" lon="0.36794">
        <ele>123</ele>
        <time>2022-09-11T07:22:25Z</time>
      </trkpt>
      <trkpt lat="46.54613" lon="0.36801">
        <ele>122.8</ele>
        <time>2022-09-11T07:22:28Z</time>
      </trkpt>
      <trkpt lat="46.54594" lon="0.36809">
        <ele>122.8</ele>
        <time>2022-09-11T07:22:32Z</time>
      </trkpt>
      <trkpt lat="46.54567" lon="0.36821">
        <ele>124</ele>
        <time>2022-09-11T07:22:39Z</time>
      </trkpt>
      <trkpt lat="46.54563" lon="0.36822">
        <ele>124</ele>
        <time>2022-09-11T07:22:40Z</time>
      </trkpt>
      <trkpt lat="46.54541" lon="0.36832">
        <ele>125</ele>
        <time>2022-09-11T07:22:46Z</time>
      </trkpt>
      <trkpt lat="46.54534" lon="0.36836">
        <ele>125.4</ele>
        <time>2022-09-11T07:22:48Z</time>
      </trkpt>
      <trkpt lat="46.54519" lon="0.36842">
        <ele>126</ele>
        <time>2022-09-11T07:22:52Z</time>
      </trkpt>
      <trkpt lat="46.54501" lon="0.3685">
        <ele>126.6</ele>
        <time>2022-09-11T07:22:57Z</time>
      </trkpt>
      <trkpt lat="46.54484" lon="0.36857">
        <ele>127</ele>
        <time>2022-09-11T07:23:02Z</time>
      </trkpt>
      <trkpt lat="46.54473" lon="0.36861">
        <ele>127.4</ele>
        <time>2022-09-11T07:23:05Z</time>
      </trkpt>
      <trkpt lat="46.54461" lon="0.36866">
        <ele>127.6</ele>
        <time>2022-09-11T07:23:08Z</time>
      </trkpt>
      <trkpt lat="46.54439" lon="0.36875">
        <ele>128</ele>
        <time>2022-09-11T07:23:14Z</time>
      </trkpt>
      <trkpt lat="46.54409" lon="0.36888">
        <ele>127.6</ele>
        <time>2022-09-11T07:23:21Z</time>
      </trkpt>
      <trkpt lat="46.54401" lon="0.3689">
        <ele>127.8</ele>
        <time>2022-09-11T07:23:23Z</time>
      </trkpt>
      <trkpt lat="46.54389" lon="0.3689">
        <ele>127.6</ele>
        <time>2022-09-11T07:23:26Z</time>
      </trkpt>
      <trkpt lat="46.54372" lon="0.36892">
        <ele>127.8</ele>
        <time>2022-09-11T07:23:31Z</time>
      </trkpt>
      <trkpt lat="46.54348" lon="0.36891">
        <ele>127.6</ele>
        <time>2022-09-11T07:23:36Z</time>
      </trkpt>
      <trkpt lat="46.54342" lon="0.36891">
        <ele>127.6</ele>
        <time>2022-09-11T07:23:37Z</time>
      </trkpt>
      <trkpt lat="46.54301" lon="0.36888">
        <ele>126.8</ele>
        <time>2022-09-11T07:23:44Z</time>
      </trkpt>
      <trkpt lat="46.54271" lon="0.36886">
        <ele>125.8</ele>
        <time>2022-09-11T07:23:49Z</time>
      </trkpt>
      <trkpt lat="46.54265" lon="0.36888">
        <ele>125.6</ele>
        <time>2022-09-11T07:23:50Z</time>
      </trkpt>
      <trkpt lat="46.54257" lon="0.36895">
        <ele>125.2</ele>
        <time>2022-09-11T07:23:52Z</time>
      </trkpt>
      <trkpt lat="46.54253" lon="0.36905">
        <ele>125</ele>
        <time>2022-09-11T07:23:54Z</time>
      </trkpt>
      <trkpt lat="46.54254" lon="0.36909">
        <ele>125</ele>
        <time>2022-09-11T07:23:55Z</time>
      </trkpt>
      <trkpt lat="46.54265" lon="0.36942">
        <ele>125</ele>
        <time>2022-09-11T07:24:01Z</time>
      </trkpt>
      <trkpt lat="46.54283" lon="0.36987">
        <ele>125</ele>
        <time>2022-09-11T07:24:08Z</time>
      </trkpt>
      <trkpt lat="46.54288" lon="0.36999">
        <ele>125</ele>
        <time>2022-09-11T07:24:10Z</time>
      </trkpt>
      <trkpt lat="46.54297" lon="0.37016">
        <ele>125</ele>
        <time>2022-09-11T07:24:13Z</time>
      </trkpt>
      <trkpt lat="46.54297" lon="0.37016">
        <ele>124.8</ele>
        <time>2022-09-11T07:24:14Z</time>
      </trkpt>
      <trkpt lat="46.54301" lon="0.37029">
        <ele>124.8</ele>
        <time>2022-09-11T07:24:15Z</time>
      </trkpt>
      <trkpt lat="46.54303" lon="0.37035">
        <ele>124.8</ele>
        <time>2022-09-11T07:24:16Z</time>
      </trkpt>
      <trkpt lat="46.54308" lon="0.37046">
        <ele>124.8</ele>
        <time>2022-09-11T07:24:18Z</time>
      </trkpt>
      <trkpt lat="46.54314" lon="0.37058">
        <ele>124.6</ele>
        <time>2022-09-11T07:24:20Z</time>
      </trkpt>
      <trkpt lat="46.54329" lon="0.37084">
        <ele>124.2</ele>
        <time>2022-09-11T07:24:24Z</time>
      </trkpt>
      <trkpt lat="46.54336" lon="0.37092">
        <ele>124.4</ele>
        <time>2022-09-11T07:24:26Z</time>
      </trkpt>
      <trkpt lat="46.54339" lon="0.37095">
        <ele>124.4</ele>
        <time>2022-09-11T07:24:28Z</time>
      </trkpt>
      <trkpt lat="46.54339" lon="0.37097">
        <ele>124.2</ele>
        <time>2022-09-11T07:24:29Z</time>
      </trkpt>
      <trkpt lat="46.54339" lon="0.37098">
        <ele>124.2</ele>
        <time>2022-09-11T07:24:30Z</time>
      </trkpt>
      <trkpt lat="46.54333" lon="0.37104">
        <ele>124</ele>
        <time>2022-09-11T07:24:34Z</time>
      </trkpt>
      <trkpt lat="46.54317" lon="0.3712">
        <ele>123.6</ele>
        <time>2022-09-11T07:24:40Z</time>
      </trkpt>
      <trkpt lat="46.54312" lon="0.37124">
        <ele>122.6</ele>
        <time>2022-09-11T07:24:42Z</time>
      </trkpt>
      <trkpt lat="46.5431" lon="0.37125">
        <ele>122.2</ele>
        <time>2022-09-11T07:24:43Z</time>
      </trkpt>
      <trkpt lat="46.54305" lon="0.37125">
        <ele>121.4</ele>
        <time>2022-09-11T07:24:45Z</time>
      </trkpt>
      <trkpt lat="46.54302" lon="0.37125">
        <ele>120.8</ele>
        <time>2022-09-11T07:24:46Z</time>
      </trkpt>
      <trkpt lat="46.54296" lon="0.37126">
        <ele>119.4</ele>
        <time>2022-09-11T07:24:48Z</time>
      </trkpt>
      <trkpt lat="46.5429" lon="0.37128">
        <ele>118.2</ele>
        <time>2022-09-11T07:24:50Z</time>
      </trkpt>
      <trkpt lat="46.54288" lon="0.37128">
        <ele>117.4</ele>
        <time>2022-09-11T07:24:51Z</time>
      </trkpt>
      <trkpt lat="46.54285" lon="0.37129">
        <ele>116.8</ele>
        <time>2022-09-11T07:24:52Z</time>
      </trkpt>
      <trkpt lat="46.54279" lon="0.37132">
        <ele>115.4</ele>
        <time>2022-09-11T07:24:54Z</time>
      </trkpt>
      <trkpt lat="46.54274" lon="0.37135">
        <ele>113.8</ele>
        <time>2022-09-11T07:24:56Z</time>
      </trkpt>
      <trkpt lat="46.54272" lon="0.37137">
        <ele>113.4</ele>
        <time>2022-09-11T07:24:57Z</time>
      </trkpt>
      <trkpt lat="46.54268" lon="0.37141">
        <ele>112.8</ele>
        <time>2022-09-11T07:24:59Z</time>
      </trkpt>
      <trkpt lat="46.54261" lon="0.37154">
        <ele>111.2</ele>
        <time>2022-09-11T07:25:02Z</time>
      </trkpt>
      <trkpt lat="46.54256" lon="0.37163">
        <ele>110.6</ele>
        <time>2022-09-11T07:25:04Z</time>
      </trkpt>
      <trkpt lat="46.54252" lon="0.37168">
        <ele>110</ele>
        <time>2022-09-11T07:25:05Z</time>
      </trkpt>
      <trkpt lat="46.54249" lon="0.37172">
        <ele>109.8</ele>
        <time>2022-09-11T07:25:06Z</time>
      </trkpt>
      <trkpt lat="46.54246" lon="0.37177">
        <ele>109.6</ele>
        <time>2022-09-11T07:25:07Z</time>
      </trkpt>
      <trkpt lat="46.54239" lon="0.37189">
        <ele>109.4</ele>
        <time>2022-09-11T07:25:10Z</time>
      </trkpt>
      <trkpt lat="46.54232" lon="0.37197">
        <ele>110.8</ele>
        <time>2022-09-11T07:25:15Z</time>
      </trkpt>
      <trkpt lat="46.54229" lon="0.37199">
        <ele>111.6</ele>
        <time>2022-09-11T07:25:17Z</time>
      </trkpt>
      <trkpt lat="46.54225" lon="0.37202">
        <ele>112.8</ele>
        <time>2022-09-11T07:25:20Z</time>
      </trkpt>
      <trkpt lat="46.54222" lon="0.37204">
        <ele>113.8</ele>
        <time>2022-09-11T07:25:22Z</time>
      </trkpt>
      <trkpt lat="46.54217" lon="0.37212">
        <ele>115.2</ele>
        <time>2022-09-11T07:25:26Z</time>
      </trkpt>
      <trkpt lat="46.54214" lon="0.37215">
        <ele>116.2</ele>
        <time>2022-09-11T07:25:29Z</time>
      </trkpt>
      <trkpt lat="46.54207" lon="0.37221">
        <ele>117.2</ele>
        <time>2022-09-11T07:25:33Z</time>
      </trkpt>
      <trkpt lat="46.542" lon="0.37229">
        <ele>118.2</ele>
        <time>2022-09-11T07:25:37Z</time>
      </trkpt>
      <trkpt lat="46.54198" lon="0.37232">
        <ele>118.4</ele>
        <time>2022-09-11T07:25:38Z</time>
      </trkpt>
      <trkpt lat="46.54188" lon="0.3724">
        <ele>119</ele>
        <time>2022-09-11T07:25:44Z</time>
      </trkpt>
      <trkpt lat="46.54186" lon="0.37243">
        <ele>119.4</ele>
        <time>2022-09-11T07:25:46Z</time>
      </trkpt>
      <trkpt lat="46.54177" lon="0.37252">
        <ele>120.2</ele>
        <time>2022-09-11T07:25:52Z</time>
      </trkpt>
      <trkpt lat="46.54174" lon="0.37255">
        <ele>120.6</ele>
        <time>2022-09-11T07:25:54Z</time>
      </trkpt>
      <trkpt lat="46.54167" lon="0.37261">
        <ele>121.2</ele>
        <time>2022-09-11T07:25:59Z</time>
      </trkpt>
      <trkpt lat="46.54161" lon="0.37269">
        <ele>121.6</ele>
        <time>2022-09-11T07:26:03Z</time>
      </trkpt>
      <trkpt lat="46.54154" lon="0.37276">
        <ele>122</ele>
        <time>2022-09-11T07:26:07Z</time>
      </trkpt>
      <trkpt lat="46.54144" lon="0.37285">
        <ele>122.6</ele>
        <time>2022-09-11T07:26:12Z</time>
      </trkpt>
      <trkpt lat="46.54139" lon="0.37289">
        <ele>122.8</ele>
        <time>2022-09-11T07:26:14Z</time>
      </trkpt>
      <trkpt lat="46.54118" lon="0.37306">
        <ele>123.6</ele>
        <time>2022-09-11T07:26:23Z</time>
      </trkpt>
      <trkpt lat="46.54108" lon="0.37314">
        <ele>123.8</ele>
        <time>2022-09-11T07:26:28Z</time>
      </trkpt>
      <trkpt lat="46.54107" lon="0.37313">
        <ele>123.8</ele>
        <time>2022-09-11T07:26:29Z</time>
      </trkpt>
      <trkpt lat="46.54104" lon="0.37303">
        <ele>123.6</ele>
        <time>2022-09-11T07:26:32Z</time>
      </trkpt>
      <trkpt lat="46.54097" lon="0.37285">
        <ele>123.6</ele>
        <time>2022-09-11T07:26:36Z</time>
      </trkpt>
      <trkpt lat="46.54084" lon="0.37288">
        <ele>123.6</ele>
        <time>2022-09-11T07:26:39Z</time>
      </trkpt>
      <trkpt lat="46.54062" lon="0.37312">
        <ele>123.8</ele>
        <time>2022-09-11T07:26:45Z</time>
      </trkpt>
      <trkpt lat="46.54033" lon="0.37348">
        <ele>124.6</ele>
        <time>2022-09-11T07:26:53Z</time>
      </trkpt>
      <trkpt lat="46.54031" lon="0.37352">
        <ele>124.8</ele>
        <time>2022-09-11T07:26:54Z</time>
      </trkpt>
      <trkpt lat="46.54017" lon="0.3737">
        <ele>125.2</ele>
        <time>2022-09-11T07:26:59Z</time>
      </trkpt>
      <trkpt lat="46.54007" lon="0.37386">
        <ele>125.6</ele>
        <time>2022-09-11T07:27:03Z</time>
      </trkpt>
      <trkpt lat="46.54004" lon="0.37391">
        <ele>125.8</ele>
        <time>2022-09-11T07:27:04Z</time>
      </trkpt>
      <trkpt lat="46.53998" lon="0.37401">
        <ele>126.4</ele>
        <time>2022-09-11T07:27:06Z</time>
      </trkpt>
      <trkpt lat="46.53998" lon="0.37401">
        <ele>127</ele>
        <time>2022-09-11T07:27:07Z</time>
      </trkpt>
      <trkpt lat="46.53994" lon="0.37411">
        <ele>127</ele>
        <time>2022-09-11T07:27:08Z</time>
      </trkpt>
      <trkpt lat="46.53986" lon="0.37433">
        <ele>127.4</ele>
        <time>2022-09-11T07:27:12Z</time>
      </trkpt>
      <trkpt lat="46.53975" lon="0.37461">
        <ele>128</ele>
        <time>2022-09-11T07:27:17Z</time>
      </trkpt>
      <trkpt lat="46.53965" lon="0.37483">
        <ele>128.4</ele>
        <time>2022-09-11T07:27:21Z</time>
      </trkpt>
      <trkpt lat="46.53937" lon="0.37524">
        <ele>128.8</ele>
        <time>2022-09-11T07:27:29Z</time>
      </trkpt>
      <trkpt lat="46.53925" lon="0.37541">
        <ele>128.8</ele>
        <time>2022-09-11T07:27:32Z</time>
      </trkpt>
      <trkpt lat="46.53915" lon="0.37561">
        <ele>129</ele>
        <time>2022-09-11T07:27:35Z</time>
      </trkpt>
      <trkpt lat="46.53896" lon="0.37612">
        <ele>128.8</ele>
        <time>2022-09-11T07:27:42Z</time>
      </trkpt>
      <trkpt lat="46.53878" lon="0.37644">
        <ele>128.8</ele>
        <time>2022-09-11T07:27:47Z</time>
      </trkpt>
      <trkpt lat="46.5385" lon="0.3768">
        <ele>128</ele>
        <time>2022-09-11T07:27:54Z</time>
      </trkpt>
      <trkpt lat="46.53847" lon="0.37686">
        <ele>127.8</ele>
        <time>2022-09-11T07:27:55Z</time>
      </trkpt>
      <trkpt lat="46.5383" lon="0.37731">
        <ele>127.2</ele>
        <time>2022-09-11T07:28:01Z</time>
      </trkpt>
      <trkpt lat="46.53814" lon="0.3779">
        <ele>126.8</ele>
        <time>2022-09-11T07:28:08Z</time>
      </trkpt>
      <trkpt lat="46.53799" lon="0.37841">
        <ele>125.8</ele>
        <time>2022-09-11T07:28:13Z</time>
      </trkpt>
      <trkpt lat="46.53786" lon="0.37888">
        <ele>124.2</ele>
        <time>2022-09-11T07:28:17Z</time>
      </trkpt>
      <trkpt lat="46.53781" lon="0.37899">
        <ele>123.6</ele>
        <time>2022-09-11T07:28:18Z</time>
      </trkpt>
      <trkpt lat="46.53776" lon="0.37909">
        <ele>123.2</ele>
        <time>2022-09-11T07:28:19Z</time>
      </trkpt>
      <trkpt lat="46.5377" lon="0.37919">
        <ele>122</ele>
        <time>2022-09-11T07:28:20Z</time>
      </trkpt>
      <trkpt lat="46.53756" lon="0.37933">
        <ele>120.8</ele>
        <time>2022-09-11T07:28:22Z</time>
      </trkpt>
      <trkpt lat="46.53749" lon="0.37938">
        <ele>119.8</ele>
        <time>2022-09-11T07:28:23Z</time>
      </trkpt>
      <trkpt lat="46.53736" lon="0.37944">
        <ele>118.2</ele>
        <time>2022-09-11T07:28:25Z</time>
      </trkpt>
      <trkpt lat="46.53729" lon="0.37947">
        <ele>117.6</ele>
        <time>2022-09-11T07:28:26Z</time>
      </trkpt>
      <trkpt lat="46.53722" lon="0.37948">
        <ele>116.8</ele>
        <time>2022-09-11T07:28:27Z</time>
      </trkpt>
      <trkpt lat="46.53715" lon="0.37948">
        <ele>115.8</ele>
        <time>2022-09-11T07:28:28Z</time>
      </trkpt>
      <trkpt lat="46.53698" lon="0.37947">
        <ele>114.6</ele>
        <time>2022-09-11T07:28:30Z</time>
      </trkpt>
      <trkpt lat="46.53688" lon="0.37946">
        <ele>114</ele>
        <time>2022-09-11T07:28:31Z</time>
      </trkpt>
      <trkpt lat="46.53679" lon="0.37948">
        <ele>113.4</ele>
        <time>2022-09-11T07:28:32Z</time>
      </trkpt>
      <trkpt lat="46.53662" lon="0.37948">
        <ele>112.6</ele>
        <time>2022-09-11T07:28:34Z</time>
      </trkpt>
      <trkpt lat="46.53654" lon="0.37945">
        <ele>112.2</ele>
        <time>2022-09-11T07:28:35Z</time>
      </trkpt>
      <trkpt lat="46.53647" lon="0.3794">
        <ele>111.8</ele>
        <time>2022-09-11T07:28:36Z</time>
      </trkpt>
      <trkpt lat="46.53641" lon="0.37934">
        <ele>111.6</ele>
        <time>2022-09-11T07:28:37Z</time>
      </trkpt>
      <trkpt lat="46.5363" lon="0.37919">
        <ele>111.4</ele>
        <time>2022-09-11T07:28:40Z</time>
      </trkpt>
      <trkpt lat="46.53619" lon="0.37906">
        <ele>113</ele>
        <time>2022-09-11T07:28:44Z</time>
      </trkpt>
      <trkpt lat="46.53616" lon="0.37903">
        <ele>113.2</ele>
        <time>2022-09-11T07:28:45Z</time>
      </trkpt>
      <trkpt lat="46.53603" lon="0.37893">
        <ele>114.6</ele>
        <time>2022-09-11T07:28:49Z</time>
      </trkpt>
      <trkpt lat="46.53599" lon="0.37891">
        <ele>114.6</ele>
        <time>2022-09-11T07:28:50Z</time>
      </trkpt>
      <trkpt lat="46.53587" lon="0.37883">
        <ele>115.8</ele>
        <time>2022-09-11T07:28:53Z</time>
      </trkpt>
      <trkpt lat="46.53571" lon="0.37874">
        <ele>116.8</ele>
        <time>2022-09-11T07:28:57Z</time>
      </trkpt>
      <trkpt lat="46.53558" lon="0.37867">
        <ele>117.8</ele>
        <time>2022-09-11T07:29:00Z</time>
      </trkpt>
      <trkpt lat="46.53543" lon="0.3786">
        <ele>119.2</ele>
        <time>2022-09-11T07:29:04Z</time>
      </trkpt>
      <trkpt lat="46.53531" lon="0.37854">
        <ele>120.4</ele>
        <time>2022-09-11T07:29:08Z</time>
      </trkpt>
      <trkpt lat="46.53529" lon="0.37852">
        <ele>120.6</ele>
        <time>2022-09-11T07:29:09Z</time>
      </trkpt>
      <trkpt lat="46.53522" lon="0.3785">
        <ele>121.4</ele>
        <time>2022-09-11T07:29:11Z</time>
      </trkpt>
      <trkpt lat="46.53504" lon="0.37842">
        <ele>122.4</ele>
        <time>2022-09-11T07:29:16Z</time>
      </trkpt>
      <trkpt lat="46.535" lon="0.3784">
        <ele>122.6</ele>
        <time>2022-09-11T07:29:17Z</time>
      </trkpt>
      <trkpt lat="46.53482" lon="0.37824">
        <ele>123.4</ele>
        <time>2022-09-11T07:29:24Z</time>
      </trkpt>
      <trkpt lat="46.53467" lon="0.37798">
        <ele>123.6</ele>
        <time>2022-09-11T07:29:31Z</time>
      </trkpt>
      <trkpt lat="46.53457" lon="0.37774">
        <ele>124.2</ele>
        <time>2022-09-11T07:29:36Z</time>
      </trkpt>
      <trkpt lat="46.53455" lon="0.37769">
        <ele>124.4</ele>
        <time>2022-09-11T07:29:37Z</time>
      </trkpt>
      <trkpt lat="46.53438" lon="0.37728">
        <ele>124.6</ele>
        <time>2022-09-11T07:29:44Z</time>
      </trkpt>
      <trkpt lat="46.53422" lon="0.37691">
        <ele>125.8</ele>
        <time>2022-09-11T07:29:51Z</time>
      </trkpt>
      <trkpt lat="46.5342" lon="0.37686">
        <ele>126.2</ele>
        <time>2022-09-11T07:29:52Z</time>
      </trkpt>
      <trkpt lat="46.53413" lon="0.37671">
        <ele>126.8</ele>
        <time>2022-09-11T07:29:55Z</time>
      </trkpt>
      <trkpt lat="46.534" lon="0.37643">
        <ele>127.6</ele>
        <time>2022-09-11T07:30:01Z</time>
      </trkpt>
      <trkpt lat="46.53398" lon="0.37639">
        <ele>128</ele>
        <time>2022-09-11T07:30:02Z</time>
      </trkpt>
      <trkpt lat="46.53387" lon="0.37612">
        <ele>128.2</ele>
        <time>2022-09-11T07:30:08Z</time>
      </trkpt>
      <trkpt lat="46.53372" lon="0.37576">
        <ele>128.8</ele>
        <time>2022-09-11T07:30:15Z</time>
      </trkpt>
      <trkpt lat="46.53348" lon="0.37516">
        <ele>128.8</ele>
        <time>2022-09-11T07:30:25Z</time>
      </trkpt>
      <trkpt lat="46.5333" lon="0.3747">
        <ele>128.2</ele>
        <time>2022-09-11T07:30:32Z</time>
      </trkpt>
      <trkpt lat="46.53312" lon="0.37423">
        <ele>127</ele>
        <time>2022-09-11T07:30:38Z</time>
      </trkpt>
      <trkpt lat="46.53309" lon="0.37414">
        <ele>126.6</ele>
        <time>2022-09-11T07:30:39Z</time>
      </trkpt>
      <trkpt lat="46.53306" lon="0.37405">
        <ele>126.6</ele>
        <time>2022-09-11T07:30:40Z</time>
      </trkpt>
      <trkpt lat="46.53294" lon="0.37366">
        <ele>126</ele>
        <time>2022-09-11T07:30:44Z</time>
      </trkpt>
      <trkpt lat="46.53287" lon="0.37347">
        <ele>125.4</ele>
        <time>2022-09-11T07:30:46Z</time>
      </trkpt>
      <trkpt lat="46.53275" lon="0.37318">
        <ele>124.2</ele>
        <time>2022-09-11T07:30:49Z</time>
      </trkpt>
      <trkpt lat="46.53268" lon="0.37301">
        <ele>123.6</ele>
        <time>2022-09-11T07:30:51Z</time>
      </trkpt>
      <trkpt lat="46.53258" lon="0.37291">
        <ele>122.8</ele>
        <time>2022-09-11T07:30:53Z</time>
      </trkpt>
      <trkpt lat="46.53248" lon="0.37282">
        <ele>121.8</ele>
        <time>2022-09-11T07:30:55Z</time>
      </trkpt>
      <trkpt lat="46.53237" lon="0.37275">
        <ele>120</ele>
        <time>2022-09-11T07:30:57Z</time>
      </trkpt>
      <trkpt lat="46.53232" lon="0.37272">
        <ele>119.4</ele>
        <time>2022-09-11T07:30:58Z</time>
      </trkpt>
      <trkpt lat="46.53221" lon="0.37268">
        <ele>118.8</ele>
        <time>2022-09-11T07:31:00Z</time>
      </trkpt>
      <trkpt lat="46.53214" lon="0.37267">
        <ele>118.6</ele>
        <time>2022-09-11T07:31:01Z</time>
      </trkpt>
      <trkpt lat="46.53199" lon="0.37263">
        <ele>118.4</ele>
        <time>2022-09-11T07:31:03Z</time>
      </trkpt>
      <trkpt lat="46.53187" lon="0.37259">
        <ele>117.6</ele>
        <time>2022-09-11T07:31:05Z</time>
      </trkpt>
      <trkpt lat="46.53176" lon="0.37255">
        <ele>116.6</ele>
        <time>2022-09-11T07:31:07Z</time>
      </trkpt>
      <trkpt lat="46.53166" lon="0.37252">
        <ele>115.8</ele>
        <time>2022-09-11T07:31:09Z</time>
      </trkpt>
      <trkpt lat="46.53145" lon="0.37243">
        <ele>115.6</ele>
        <time>2022-09-11T07:31:14Z</time>
      </trkpt>
      <trkpt lat="46.53123" lon="0.37234">
        <ele>116.4</ele>
        <time>2022-09-11T07:31:19Z</time>
      </trkpt>
      <trkpt lat="46.53115" lon="0.3723">
        <ele>116.8</ele>
        <time>2022-09-11T07:31:21Z</time>
      </trkpt>
      <trkpt lat="46.53093" lon="0.37212">
        <ele>117.2</ele>
        <time>2022-09-11T07:31:27Z</time>
      </trkpt>
      <trkpt lat="46.5309" lon="0.37208">
        <ele>117.2</ele>
        <time>2022-09-11T07:31:28Z</time>
      </trkpt>
      <trkpt lat="46.53087" lon="0.37203">
        <ele>117.4</ele>
        <time>2022-09-11T07:31:29Z</time>
      </trkpt>
      <trkpt lat="46.53079" lon="0.37187">
        <ele>117.2</ele>
        <time>2022-09-11T07:31:32Z</time>
      </trkpt>
      <trkpt lat="46.53076" lon="0.37181">
        <ele>117.2</ele>
        <time>2022-09-11T07:31:33Z</time>
      </trkpt>
      <trkpt lat="46.53074" lon="0.37176">
        <ele>117.2</ele>
        <time>2022-09-11T07:31:34Z</time>
      </trkpt>
      <trkpt lat="46.53072" lon="0.37162">
        <ele>117.2</ele>
        <time>2022-09-11T07:31:36Z</time>
      </trkpt>
      <trkpt lat="46.53071" lon="0.37156">
        <ele>117.2</ele>
        <time>2022-09-11T07:31:37Z</time>
      </trkpt>
      <trkpt lat="46.53066" lon="0.37142">
        <ele>117.2</ele>
        <time>2022-09-11T07:31:39Z</time>
      </trkpt>
      <trkpt lat="46.5306" lon="0.37127">
        <ele>117.4</ele>
        <time>2022-09-11T07:31:41Z</time>
      </trkpt>
      <trkpt lat="46.53058" lon="0.37121">
        <ele>117.6</ele>
        <time>2022-09-11T07:31:42Z</time>
      </trkpt>
      <trkpt lat="46.53056" lon="0.37115">
        <ele>117.8</ele>
        <time>2022-09-11T07:31:43Z</time>
      </trkpt>
      <trkpt lat="46.53055" lon="0.37108">
        <ele>118</ele>
        <time>2022-09-11T07:31:44Z</time>
      </trkpt>
      <trkpt lat="46.53054" lon="0.37102">
        <ele>118</ele>
        <time>2022-09-11T07:31:45Z</time>
      </trkpt>
      <trkpt lat="46.53053" lon="0.37091">
        <ele>118.2</ele>
        <time>2022-09-11T07:31:47Z</time>
      </trkpt>
      <trkpt lat="46.5305" lon="0.37082">
        <ele>118.2</ele>
        <time>2022-09-11T07:31:49Z</time>
      </trkpt>
      <trkpt lat="46.53042" lon="0.37073">
        <ele>118.2</ele>
        <time>2022-09-11T07:31:51Z</time>
      </trkpt>
      <trkpt lat="46.5302" lon="0.37058">
        <ele>118.6</ele>
        <time>2022-09-11T07:31:56Z</time>
      </trkpt>
      <trkpt lat="46.53013" lon="0.37054">
        <ele>119.4</ele>
        <time>2022-09-11T07:31:58Z</time>
      </trkpt>
      <trkpt lat="46.52999" lon="0.37046">
        <ele>120.4</ele>
        <time>2022-09-11T07:32:02Z</time>
      </trkpt>
      <trkpt lat="46.52996" lon="0.37045">
        <ele>120.6</ele>
        <time>2022-09-11T07:32:03Z</time>
      </trkpt>
      <trkpt lat="46.52983" lon="0.37037">
        <ele>121.6</ele>
        <time>2022-09-11T07:32:08Z</time>
      </trkpt>
      <trkpt lat="46.5298" lon="0.37035">
        <ele>121.8</ele>
        <time>2022-09-11T07:32:09Z</time>
      </trkpt>
      <trkpt lat="46.52969" lon="0.37028">
        <ele>122.8</ele>
        <time>2022-09-11T07:32:13Z</time>
      </trkpt>
      <trkpt lat="46.52962" lon="0.37023">
        <ele>123.6</ele>
        <time>2022-09-11T07:32:16Z</time>
      </trkpt>
      <trkpt lat="46.52958" lon="0.37019">
        <ele>124</ele>
        <time>2022-09-11T07:32:18Z</time>
      </trkpt>
      <trkpt lat="46.52946" lon="0.3701">
        <ele>125</ele>
        <time>2022-09-11T07:32:23Z</time>
      </trkpt>
      <trkpt lat="46.52933" lon="0.37006">
        <ele>125.6</ele>
        <time>2022-09-11T07:32:28Z</time>
      </trkpt>
      <trkpt lat="46.52936" lon="0.37004">
        <ele>125.8</ele>
        <time>2022-09-11T07:32:31Z</time>
      </trkpt>
      <trkpt lat="46.52937" lon="0.37003">
        <ele>125.8</ele>
        <time>2022-09-11T07:32:32Z</time>
      </trkpt>
      <trkpt lat="46.52939" lon="0.37001">
        <ele>125.6</ele>
        <time>2022-09-11T07:32:33Z</time>
      </trkpt>
      <trkpt lat="46.52939" lon="0.36994">
        <ele>125.4</ele>
        <time>2022-09-11T07:32:35Z</time>
      </trkpt>
      <trkpt lat="46.52935" lon="0.36974">
        <ele>125.6</ele>
        <time>2022-09-11T07:32:40Z</time>
      </trkpt>
      <trkpt lat="46.52929" lon="0.36937">
        <ele>125.2</ele>
        <time>2022-09-11T07:32:47Z</time>
      </trkpt>
      <trkpt lat="46.52928" lon="0.36931">
        <ele>125</ele>
        <time>2022-09-11T07:32:48Z</time>
      </trkpt>
      <trkpt lat="46.52925" lon="0.36901">
        <ele>124.6</ele>
        <time>2022-09-11T07:32:52Z</time>
      </trkpt>
      <trkpt lat="46.52922" lon="0.36887">
        <ele>124.4</ele>
        <time>2022-09-11T07:32:54Z</time>
      </trkpt>
      <trkpt lat="46.52916" lon="0.36876">
        <ele>123.6</ele>
        <time>2022-09-11T07:32:56Z</time>
      </trkpt>
      <trkpt lat="46.52909" lon="0.36867">
        <ele>123.2</ele>
        <time>2022-09-11T07:32:58Z</time>
      </trkpt>
      <trkpt lat="46.52898" lon="0.36855">
        <ele>122.6</ele>
        <time>2022-09-11T07:33:01Z</time>
      </trkpt>
      <trkpt lat="46.52884" lon="0.36842">
        <ele>122.2</ele>
        <time>2022-09-11T07:33:04Z</time>
      </trkpt>
      <trkpt lat="46.52861" lon="0.36821">
        <ele>121.8</ele>
        <time>2022-09-11T07:33:08Z</time>
      </trkpt>
      <trkpt lat="46.52855" lon="0.36816">
        <ele>121.8</ele>
        <time>2022-09-11T07:33:09Z</time>
      </trkpt>
      <trkpt lat="46.52844" lon="0.3681">
        <ele>121.6</ele>
        <time>2022-09-11T07:33:11Z</time>
      </trkpt>
      <trkpt lat="46.52837" lon="0.36808">
        <ele>121.4</ele>
        <time>2022-09-11T07:33:12Z</time>
      </trkpt>
      <trkpt lat="46.5283" lon="0.36806">
        <ele>121.4</ele>
        <time>2022-09-11T07:33:13Z</time>
      </trkpt>
      <trkpt lat="46.52809" lon="0.36804">
        <ele>120.4</ele>
        <time>2022-09-11T07:33:16Z</time>
      </trkpt>
      <trkpt lat="46.52803" lon="0.36805">
        <ele>119.4</ele>
        <time>2022-09-11T07:33:17Z</time>
      </trkpt>
      <trkpt lat="46.52798" lon="0.36806">
        <ele>118.8</ele>
        <time>2022-09-11T07:33:18Z</time>
      </trkpt>
      <trkpt lat="46.52793" lon="0.36808">
        <ele>117.4</ele>
        <time>2022-09-11T07:33:19Z</time>
      </trkpt>
      <trkpt lat="46.52787" lon="0.36812">
        <ele>116.6</ele>
        <time>2022-09-11T07:33:20Z</time>
      </trkpt>
      <trkpt lat="46.52782" lon="0.36815">
        <ele>115.6</ele>
        <time>2022-09-11T07:33:21Z</time>
      </trkpt>
      <trkpt lat="46.52776" lon="0.36818">
        <ele>115</ele>
        <time>2022-09-11T07:33:22Z</time>
      </trkpt>
      <trkpt lat="46.52772" lon="0.36821">
        <ele>114.4</ele>
        <time>2022-09-11T07:33:23Z</time>
      </trkpt>
      <trkpt lat="46.52768" lon="0.36824">
        <ele>113.4</ele>
        <time>2022-09-11T07:33:24Z</time>
      </trkpt>
      <trkpt lat="46.52761" lon="0.36832">
        <ele>111.4</ele>
        <time>2022-09-11T07:33:26Z</time>
      </trkpt>
      <trkpt lat="46.52757" lon="0.36836">
        <ele>110.4</ele>
        <time>2022-09-11T07:33:27Z</time>
      </trkpt>
      <trkpt lat="46.52753" lon="0.36841">
        <ele>110</ele>
        <time>2022-09-11T07:33:28Z</time>
      </trkpt>
      <trkpt lat="46.52738" lon="0.36854">
        <ele>108.6</ele>
        <time>2022-09-11T07:33:31Z</time>
      </trkpt>
      <trkpt lat="46.52734" lon="0.36859">
        <ele>107.8</ele>
        <time>2022-09-11T07:33:32Z</time>
      </trkpt>
      <trkpt lat="46.52728" lon="0.36864">
        <ele>107.2</ele>
        <time>2022-09-11T07:33:33Z</time>
      </trkpt>
      <trkpt lat="46.52723" lon="0.3687">
        <ele>105.4</ele>
        <time>2022-09-11T07:33:34Z</time>
      </trkpt>
      <trkpt lat="46.52717" lon="0.36875">
        <ele>104.4</ele>
        <time>2022-09-11T07:33:35Z</time>
      </trkpt>
      <trkpt lat="46.52713" lon="0.36881">
        <ele>103.4</ele>
        <time>2022-09-11T07:33:36Z</time>
      </trkpt>
      <trkpt lat="46.52708" lon="0.36887">
        <ele>102.2</ele>
        <time>2022-09-11T07:33:37Z</time>
      </trkpt>
      <trkpt lat="46.52699" lon="0.36901">
        <ele>100.8</ele>
        <time>2022-09-11T07:33:39Z</time>
      </trkpt>
      <trkpt lat="46.52687" lon="0.36923">
        <ele>99.6</ele>
        <time>2022-09-11T07:33:42Z</time>
      </trkpt>
      <trkpt lat="46.52676" lon="0.36945">
        <ele>98.4</ele>
        <time>2022-09-11T07:33:45Z</time>
      </trkpt>
      <trkpt lat="46.52671" lon="0.36958">
        <ele>97.8</ele>
        <time>2022-09-11T07:33:47Z</time>
      </trkpt>
      <trkpt lat="46.52663" lon="0.36973">
        <ele>97.2</ele>
        <time>2022-09-11T07:33:49Z</time>
      </trkpt>
      <trkpt lat="46.52661" lon="0.36979">
        <ele>97.2</ele>
        <time>2022-09-11T07:33:50Z</time>
      </trkpt>
      <trkpt lat="46.52652" lon="0.37008">
        <ele>97</ele>
        <time>2022-09-11T07:33:54Z</time>
      </trkpt>
      <trkpt lat="46.52647" lon="0.37021">
        <ele>96.6</ele>
        <time>2022-09-11T07:33:56Z</time>
      </trkpt>
      <trkpt lat="46.52644" lon="0.37035">
        <ele>96.8</ele>
        <time>2022-09-11T07:33:58Z</time>
      </trkpt>
      <trkpt lat="46.52642" lon="0.37054">
        <ele>96.4</ele>
        <time>2022-09-11T07:34:01Z</time>
      </trkpt>
      <trkpt lat="46.52641" lon="0.37065">
        <ele>96.6</ele>
        <time>2022-09-11T07:34:03Z</time>
      </trkpt>
      <trkpt lat="46.52642" lon="0.37089">
        <ele>96.2</ele>
        <time>2022-09-11T07:34:07Z</time>
      </trkpt>
      <trkpt lat="46.52644" lon="0.37096">
        <ele>96.2</ele>
        <time>2022-09-11T07:34:08Z</time>
      </trkpt>
      <trkpt lat="46.52646" lon="0.37132">
        <ele>96</ele>
        <time>2022-09-11T07:34:13Z</time>
      </trkpt>
      <trkpt lat="46.52646" lon="0.37138">
        <ele>96</ele>
        <time>2022-09-11T07:34:14Z</time>
      </trkpt>
      <trkpt lat="46.52651" lon="0.37187">
        <ele>95</ele>
        <time>2022-09-11T07:34:22Z</time>
      </trkpt>
      <trkpt lat="46.52652" lon="0.37194">
        <ele>95</ele>
        <time>2022-09-11T07:34:23Z</time>
      </trkpt>
      <trkpt lat="46.52658" lon="0.37217">
        <ele>94.8</ele>
        <time>2022-09-11T07:34:26Z</time>
      </trkpt>
      <trkpt lat="46.52661" lon="0.37234">
        <ele>95</ele>
        <time>2022-09-11T07:34:28Z</time>
      </trkpt>
      <trkpt lat="46.52664" lon="0.37241">
        <ele>95</ele>
        <time>2022-09-11T07:34:29Z</time>
      </trkpt>
      <trkpt lat="46.52665" lon="0.3725">
        <ele>95.2</ele>
        <time>2022-09-11T07:34:30Z</time>
      </trkpt>
      <trkpt lat="46.52668" lon="0.37285">
        <ele>95.2</ele>
        <time>2022-09-11T07:34:34Z</time>
      </trkpt>
      <trkpt lat="46.52669" lon="0.37294">
        <ele>95</ele>
        <time>2022-09-11T07:34:35Z</time>
      </trkpt>
      <trkpt lat="46.52673" lon="0.37312">
        <ele>94.6</ele>
        <time>2022-09-11T07:34:38Z</time>
      </trkpt>
      <trkpt lat="46.52675" lon="0.37323">
        <ele>94.6</ele>
        <time>2022-09-11T07:34:40Z</time>
      </trkpt>
      <trkpt lat="46.5268" lon="0.3733">
        <ele>94.8</ele>
        <time>2022-09-11T07:34:42Z</time>
      </trkpt>
      <trkpt lat="46.52688" lon="0.37335">
        <ele>95</ele>
        <time>2022-09-11T07:34:45Z</time>
      </trkpt>
      <trkpt lat="46.52691" lon="0.37341">
        <ele>95.2</ele>
        <time>2022-09-11T07:34:47Z</time>
      </trkpt>
      <trkpt lat="46.52695" lon="0.37364">
        <ele>95.6</ele>
        <time>2022-09-11T07:34:52Z</time>
      </trkpt>
      <trkpt lat="46.52696" lon="0.37381">
        <ele>96.2</ele>
        <time>2022-09-11T07:34:56Z</time>
      </trkpt>
      <trkpt lat="46.52699" lon="0.37396">
        <ele>96.2</ele>
        <time>2022-09-11T07:34:59Z</time>
      </trkpt>
      <trkpt lat="46.52707" lon="0.37429">
        <ele>96.6</ele>
        <time>2022-09-11T07:35:06Z</time>
      </trkpt>
      <trkpt lat="46.52711" lon="0.37454">
        <ele>97.2</ele>
        <time>2022-09-11T07:35:13Z</time>
      </trkpt>
      <trkpt lat="46.52712" lon="0.37457">
        <ele>97.2</ele>
        <time>2022-09-11T07:35:14Z</time>
      </trkpt>
      <trkpt lat="46.52713" lon="0.37478">
        <ele>98.2</ele>
        <time>2022-09-11T07:35:20Z</time>
      </trkpt>
      <trkpt lat="46.52712" lon="0.37485">
        <ele>98.6</ele>
        <time>2022-09-11T07:35:22Z</time>
      </trkpt>
      <trkpt lat="46.52709" lon="0.37507">
        <ele>99.2</ele>
        <time>2022-09-11T07:35:28Z</time>
      </trkpt>
      <trkpt lat="46.52709" lon="0.37514">
        <ele>99.4</ele>
        <time>2022-09-11T07:35:30Z</time>
      </trkpt>
      <trkpt lat="46.5271" lon="0.37529">
        <ele>100</ele>
        <time>2022-09-11T07:35:36Z</time>
      </trkpt>
      <trkpt lat="46.52712" lon="0.37533">
        <ele>100.4</ele>
        <time>2022-09-11T07:35:38Z</time>
      </trkpt>
      <trkpt lat="46.52717" lon="0.37541">
        <ele>101.6</ele>
        <time>2022-09-11T07:35:43Z</time>
      </trkpt>
      <trkpt lat="46.52722" lon="0.37547">
        <ele>103</ele>
        <time>2022-09-11T07:35:49Z</time>
      </trkpt>
      <trkpt lat="46.52724" lon="0.3755">
        <ele>103.8</ele>
        <time>2022-09-11T07:35:52Z</time>
      </trkpt>
      <trkpt lat="46.52725" lon="0.37551">
        <ele>104.2</ele>
        <time>2022-09-11T07:35:53Z</time>
      </trkpt>
      <trkpt lat="46.52728" lon="0.37557">
        <ele>105.4</ele>
        <time>2022-09-11T07:35:58Z</time>
      </trkpt>
      <trkpt lat="46.52732" lon="0.37565">
        <ele>106.4</ele>
        <time>2022-09-11T07:36:04Z</time>
      </trkpt>
      <trkpt lat="46.52734" lon="0.37566">
        <ele>106.8</ele>
        <time>2022-09-11T07:36:05Z</time>
      </trkpt>
      <trkpt lat="46.52738" lon="0.37571">
        <ele>107.6</ele>
        <time>2022-09-11T07:36:08Z</time>
      </trkpt>
      <trkpt lat="46.52741" lon="0.37576">
        <ele>108.8</ele>
        <time>2022-09-11T07:36:13Z</time>
      </trkpt>
      <trkpt lat="46.52746" lon="0.37582">
        <ele>109.6</ele>
        <time>2022-09-11T07:36:17Z</time>
      </trkpt>
      <trkpt lat="46.52749" lon="0.37584">
        <ele>110.2</ele>
        <time>2022-09-11T07:36:19Z</time>
      </trkpt>
      <trkpt lat="46.52754" lon="0.37593">
        <ele>111.2</ele>
        <time>2022-09-11T07:36:24Z</time>
      </trkpt>
      <trkpt lat="46.52757" lon="0.37602">
        <ele>112.6</ele>
        <time>2022-09-11T07:36:29Z</time>
      </trkpt>
      <trkpt lat="46.52763" lon="0.37615">
        <ele>113.6</ele>
        <time>2022-09-11T07:36:37Z</time>
      </trkpt>
      <trkpt lat="46.52767" lon="0.37621">
        <ele>114.2</ele>
        <time>2022-09-11T07:36:41Z</time>
      </trkpt>
      <trkpt lat="46.52769" lon="0.37624">
        <ele>114.6</ele>
        <time>2022-09-11T07:36:43Z</time>
      </trkpt>
      <trkpt lat="46.52773" lon="0.37633">
        <ele>115.8</ele>
        <time>2022-09-11T07:36:50Z</time>
      </trkpt>
      <trkpt lat="46.52775" lon="0.37639">
        <ele>116.4</ele>
        <time>2022-09-11T07:36:53Z</time>
      </trkpt>
      <trkpt lat="46.52776" lon="0.37643">
        <ele>117</ele>
        <time>2022-09-11T07:36:55Z</time>
      </trkpt>
      <trkpt lat="46.52781" lon="0.37651">
        <ele>118</ele>
        <time>2022-09-11T07:37:00Z</time>
      </trkpt>
      <trkpt lat="46.52786" lon="0.3766">
        <ele>118.8</ele>
        <time>2022-09-11T07:37:05Z</time>
      </trkpt>
      <trkpt lat="46.52789" lon="0.37664">
        <ele>119</ele>
        <time>2022-09-11T07:37:07Z</time>
      </trkpt>
      <trkpt lat="46.52795" lon="0.37674">
        <ele>120.2</ele>
        <time>2022-09-11T07:37:15Z</time>
      </trkpt>
      <trkpt lat="46.52798" lon="0.37685">
        <ele>121.2</ele>
        <time>2022-09-11T07:37:23Z</time>
      </trkpt>
      <trkpt lat="46.528" lon="0.37691">
        <ele>121.6</ele>
        <time>2022-09-11T07:37:26Z</time>
      </trkpt>
      <trkpt lat="46.52799" lon="0.377">
        <ele>122.4</ele>
        <time>2022-09-11T07:37:31Z</time>
      </trkpt>
      <trkpt lat="46.52798" lon="0.37705">
        <ele>122.8</ele>
        <time>2022-09-11T07:37:34Z</time>
      </trkpt>
      <trkpt lat="46.52795" lon="0.37709">
        <ele>123.2</ele>
        <time>2022-09-11T07:37:37Z</time>
      </trkpt>
      <trkpt lat="46.52784" lon="0.37716">
        <ele>123.4</ele>
        <time>2022-09-11T07:37:43Z</time>
      </trkpt>
      <trkpt lat="46.52776" lon="0.3772">
        <ele>124.6</ele>
        <time>2022-09-11T07:37:48Z</time>
      </trkpt>
      <trkpt lat="46.52766" lon="0.37723">
        <ele>125.6</ele>
        <time>2022-09-11T07:37:54Z</time>
      </trkpt>
      <trkpt lat="46.52762" lon="0.37726">
        <ele>126</ele>
        <time>2022-09-11T07:37:56Z</time>
      </trkpt>
      <trkpt lat="46.52757" lon="0.37727">
        <ele>126.6</ele>
        <time>2022-09-11T07:37:59Z</time>
      </trkpt>
      <trkpt lat="46.52752" lon="0.37729">
        <ele>127</ele>
        <time>2022-09-11T07:38:02Z</time>
      </trkpt>
      <trkpt lat="46.52742" lon="0.37733">
        <ele>127.8</ele>
        <time>2022-09-11T07:38:08Z</time>
      </trkpt>
      <trkpt lat="46.52741" lon="0.37734">
        <ele>128</ele>
        <time>2022-09-11T07:38:09Z</time>
      </trkpt>
      <trkpt lat="46.52725" lon="0.37742">
        <ele>128.8</ele>
        <time>2022-09-11T07:38:17Z</time>
      </trkpt>
      <trkpt lat="46.52722" lon="0.37742">
        <ele>129</ele>
        <time>2022-09-11T07:38:18Z</time>
      </trkpt>
      <trkpt lat="46.52711" lon="0.37745">
        <ele>129.6</ele>
        <time>2022-09-11T07:38:23Z</time>
      </trkpt>
      <trkpt lat="46.52701" lon="0.37749">
        <ele>129.8</ele>
        <time>2022-09-11T07:38:29Z</time>
      </trkpt>
      <trkpt lat="46.52694" lon="0.37752">
        <ele>130.2</ele>
        <time>2022-09-11T07:38:32Z</time>
      </trkpt>
      <trkpt lat="46.52686" lon="0.37755">
        <ele>130.6</ele>
        <time>2022-09-11T07:38:36Z</time>
      </trkpt>
      <trkpt lat="46.52671" lon="0.3776">
        <ele>131.2</ele>
        <time>2022-09-11T07:38:41Z</time>
      </trkpt>
      <trkpt lat="46.52654" lon="0.37773">
        <ele>131.8</ele>
        <time>2022-09-11T07:38:47Z</time>
      </trkpt>
      <trkpt lat="46.52641" lon="0.37784">
        <ele>132</ele>
        <time>2022-09-11T07:38:53Z</time>
      </trkpt>
      <trkpt lat="46.52628" lon="0.37795">
        <ele>132.2</ele>
        <time>2022-09-11T07:38:58Z</time>
      </trkpt>
      <trkpt lat="46.52625" lon="0.37797">
        <ele>132.4</ele>
        <time>2022-09-11T07:38:59Z</time>
      </trkpt>
      <trkpt lat="46.52607" lon="0.37814">
        <ele>132.6</ele>
        <time>2022-09-11T07:39:05Z</time>
      </trkpt>
      <trkpt lat="46.52586" lon="0.37833">
        <ele>132.2</ele>
        <time>2022-09-11T07:39:11Z</time>
      </trkpt>
      <trkpt lat="46.52578" lon="0.37841">
        <ele>132</ele>
        <time>2022-09-11T07:39:13Z</time>
      </trkpt>
      <trkpt lat="46.52569" lon="0.37856">
        <ele>131.4</ele>
        <time>2022-09-11T07:39:16Z</time>
      </trkpt>
      <trkpt lat="46.52566" lon="0.37861">
        <ele>131.2</ele>
        <time>2022-09-11T07:39:17Z</time>
      </trkpt>
      <trkpt lat="46.52561" lon="0.3787">
        <ele>130.8</ele>
        <time>2022-09-11T07:39:19Z</time>
      </trkpt>
      <trkpt lat="46.52551" lon="0.37879">
        <ele>130.6</ele>
        <time>2022-09-11T07:39:21Z</time>
      </trkpt>
      <trkpt lat="46.52536" lon="0.37892">
        <ele>129.8</ele>
        <time>2022-09-11T07:39:24Z</time>
      </trkpt>
      <trkpt lat="46.52519" lon="0.37907">
        <ele>128.8</ele>
        <time>2022-09-11T07:39:27Z</time>
      </trkpt>
      <trkpt lat="46.52506" lon="0.37914">
        <ele>128.4</ele>
        <time>2022-09-11T07:39:29Z</time>
      </trkpt>
      <trkpt lat="46.52501" lon="0.37917">
        <ele>127.4</ele>
        <time>2022-09-11T07:39:30Z</time>
      </trkpt>
      <trkpt lat="46.52492" lon="0.3792">
        <ele>126.2</ele>
        <time>2022-09-11T07:39:32Z</time>
      </trkpt>
      <trkpt lat="46.52484" lon="0.37917">
        <ele>125.6</ele>
        <time>2022-09-11T07:39:34Z</time>
      </trkpt>
      <trkpt lat="46.52481" lon="0.37914">
        <ele>124.8</ele>
        <time>2022-09-11T07:39:35Z</time>
      </trkpt>
      <trkpt lat="46.52478" lon="0.37911">
        <ele>124</ele>
        <time>2022-09-11T07:39:36Z</time>
      </trkpt>
      <trkpt lat="46.52475" lon="0.37907">
        <ele>123.6</ele>
        <time>2022-09-11T07:39:37Z</time>
      </trkpt>
      <trkpt lat="46.52457" lon="0.37888">
        <ele>122</ele>
        <time>2022-09-11T07:39:41Z</time>
      </trkpt>
      <trkpt lat="46.52452" lon="0.37884">
        <ele>121.4</ele>
        <time>2022-09-11T07:39:42Z</time>
      </trkpt>
      <trkpt lat="46.52439" lon="0.37878">
        <ele>120.8</ele>
        <time>2022-09-11T07:39:44Z</time>
      </trkpt>
      <trkpt lat="46.52428" lon="0.37878">
        <ele>120</ele>
        <time>2022-09-11T07:39:46Z</time>
      </trkpt>
      <trkpt lat="46.52416" lon="0.37877">
        <ele>119.6</ele>
        <time>2022-09-11T07:39:48Z</time>
      </trkpt>
      <trkpt lat="46.52397" lon="0.37878">
        <ele>120</ele>
        <time>2022-09-11T07:39:53Z</time>
      </trkpt>
      <trkpt lat="46.52389" lon="0.37877">
        <ele>120.6</ele>
        <time>2022-09-11T07:39:55Z</time>
      </trkpt>
      <trkpt lat="46.52373" lon="0.37877">
        <ele>121.8</ele>
        <time>2022-09-11T07:39:59Z</time>
      </trkpt>
      <trkpt lat="46.5237" lon="0.37877">
        <ele>122</ele>
        <time>2022-09-11T07:40:00Z</time>
      </trkpt>
      <trkpt lat="46.52353" lon="0.37876">
        <ele>122.8</ele>
        <time>2022-09-11T07:40:05Z</time>
      </trkpt>
      <trkpt lat="46.52346" lon="0.37874">
        <ele>122.6</ele>
        <time>2022-09-11T07:40:08Z</time>
      </trkpt>
      <trkpt lat="46.52344" lon="0.37874">
        <ele>122.6</ele>
        <time>2022-09-11T07:40:09Z</time>
      </trkpt>
      <trkpt lat="46.52342" lon="0.37874">
        <ele>122.4</ele>
        <time>2022-09-11T07:40:11Z</time>
      </trkpt>
      <trkpt lat="46.5234" lon="0.37872">
        <ele>122.2</ele>
        <time>2022-09-11T07:40:12Z</time>
      </trkpt>
      <trkpt lat="46.52333" lon="0.37869">
        <ele>122.4</ele>
        <time>2022-09-11T07:40:17Z</time>
      </trkpt>
      <trkpt lat="46.52327" lon="0.37869">
        <ele>123.6</ele>
        <time>2022-09-11T07:40:23Z</time>
      </trkpt>
      <trkpt lat="46.52323" lon="0.37872">
        <ele>123.8</ele>
        <time>2022-09-11T07:40:27Z</time>
      </trkpt>
      <trkpt lat="46.52314" lon="0.37877">
        <ele>124.6</ele>
        <time>2022-09-11T07:40:32Z</time>
      </trkpt>
      <trkpt lat="46.52311" lon="0.37878">
        <ele>125.2</ele>
        <time>2022-09-11T07:40:33Z</time>
      </trkpt>
      <trkpt lat="46.52292" lon="0.37883">
        <ele>125.8</ele>
        <time>2022-09-11T07:40:38Z</time>
      </trkpt>
      <trkpt lat="46.52263" lon="0.37896">
        <ele>125.8</ele>
        <time>2022-09-11T07:40:46Z</time>
      </trkpt>
      <trkpt lat="46.52259" lon="0.37898">
        <ele>126.2</ele>
        <time>2022-09-11T07:40:47Z</time>
      </trkpt>
      <trkpt lat="46.52256" lon="0.379">
        <ele>126.4</ele>
        <time>2022-09-11T07:40:48Z</time>
      </trkpt>
      <trkpt lat="46.52254" lon="0.37902">
        <ele>126.6</ele>
        <time>2022-09-11T07:40:49Z</time>
      </trkpt>
      <trkpt lat="46.52247" lon="0.37908">
        <ele>126.8</ele>
        <time>2022-09-11T07:40:51Z</time>
      </trkpt>
      <trkpt lat="46.52241" lon="0.37914">
        <ele>126.8</ele>
        <time>2022-09-11T07:40:53Z</time>
      </trkpt>
      <trkpt lat="46.52236" lon="0.37919">
        <ele>127</ele>
        <time>2022-09-11T07:40:55Z</time>
      </trkpt>
      <trkpt lat="46.52234" lon="0.37921">
        <ele>127</ele>
        <time>2022-09-11T07:40:56Z</time>
      </trkpt>
      <trkpt lat="46.52222" lon="0.37929">
        <ele>127.2</ele>
        <time>2022-09-11T07:41:00Z</time>
      </trkpt>
      <trkpt lat="46.52218" lon="0.37931">
        <ele>127</ele>
        <time>2022-09-11T07:41:01Z</time>
      </trkpt>
      <trkpt lat="46.52205" lon="0.37945">
        <ele>126.8</ele>
        <time>2022-09-11T07:41:05Z</time>
      </trkpt>
      <trkpt lat="46.52196" lon="0.37952">
        <ele>126.4</ele>
        <time>2022-09-11T07:41:07Z</time>
      </trkpt>
      <trkpt lat="46.52173" lon="0.37978">
        <ele>126.2</ele>
        <time>2022-09-11T07:41:12Z</time>
      </trkpt>
      <trkpt lat="46.52168" lon="0.37982">
        <ele>126.2</ele>
        <time>2022-09-11T07:41:13Z</time>
      </trkpt>
      <trkpt lat="46.52158" lon="0.37991">
        <ele>125.2</ele>
        <time>2022-09-11T07:41:15Z</time>
      </trkpt>
      <trkpt lat="46.52154" lon="0.37993">
        <ele>124.8</ele>
        <time>2022-09-11T07:41:16Z</time>
      </trkpt>
      <trkpt lat="46.52147" lon="0.37997">
        <ele>124</ele>
        <time>2022-09-11T07:41:17Z</time>
      </trkpt>
      <trkpt lat="46.52142" lon="0.37999">
        <ele>123.4</ele>
        <time>2022-09-11T07:41:18Z</time>
      </trkpt>
      <trkpt lat="46.52131" lon="0.38004">
        <ele>122.4</ele>
        <time>2022-09-11T07:41:20Z</time>
      </trkpt>
      <trkpt lat="46.52123" lon="0.3801">
        <ele>121</ele>
        <time>2022-09-11T07:41:22Z</time>
      </trkpt>
      <trkpt lat="46.5212" lon="0.38012">
        <ele>120.2</ele>
        <time>2022-09-11T07:41:23Z</time>
      </trkpt>
      <trkpt lat="46.52116" lon="0.38013">
        <ele>119.6</ele>
        <time>2022-09-11T07:41:24Z</time>
      </trkpt>
      <trkpt lat="46.5211" lon="0.38015">
        <ele>118.6</ele>
        <time>2022-09-11T07:41:26Z</time>
      </trkpt>
      <trkpt lat="46.52107" lon="0.38015">
        <ele>117.4</ele>
        <time>2022-09-11T07:41:27Z</time>
      </trkpt>
      <trkpt lat="46.52103" lon="0.38016">
        <ele>116.2</ele>
        <time>2022-09-11T07:41:28Z</time>
      </trkpt>
      <trkpt lat="46.52094" lon="0.38018">
        <ele>114</ele>
        <time>2022-09-11T07:41:30Z</time>
      </trkpt>
      <trkpt lat="46.5209" lon="0.38019">
        <ele>113.2</ele>
        <time>2022-09-11T07:41:31Z</time>
      </trkpt>
      <trkpt lat="46.52087" lon="0.38018">
        <ele>112.8</ele>
        <time>2022-09-11T07:41:32Z</time>
      </trkpt>
      <trkpt lat="46.52083" lon="0.38018">
        <ele>112.4</ele>
        <time>2022-09-11T07:41:33Z</time>
      </trkpt>
      <trkpt lat="46.52079" lon="0.38017">
        <ele>111.6</ele>
        <time>2022-09-11T07:41:34Z</time>
      </trkpt>
      <trkpt lat="46.52076" lon="0.38015">
        <ele>110.2</ele>
        <time>2022-09-11T07:41:35Z</time>
      </trkpt>
      <trkpt lat="46.52071" lon="0.38014">
        <ele>109.2</ele>
        <time>2022-09-11T07:41:36Z</time>
      </trkpt>
      <trkpt lat="46.52071" lon="0.38014">
        <ele>108</ele>
        <time>2022-09-11T07:41:37Z</time>
      </trkpt>
      <trkpt lat="46.52062" lon="0.3801">
        <ele>107.2</ele>
        <time>2022-09-11T07:41:39Z</time>
      </trkpt>
      <trkpt lat="46.52059" lon="0.38008">
        <ele>106.8</ele>
        <time>2022-09-11T07:41:40Z</time>
      </trkpt>
      <trkpt lat="46.52054" lon="0.38004">
        <ele>105.8</ele>
        <time>2022-09-11T07:41:42Z</time>
      </trkpt>
      <trkpt lat="46.52051" lon="0.38003">
        <ele>105</ele>
        <time>2022-09-11T07:41:43Z</time>
      </trkpt>
      <trkpt lat="46.52046" lon="0.38002">
        <ele>104.4</ele>
        <time>2022-09-11T07:41:44Z</time>
      </trkpt>
      <trkpt lat="46.52036" lon="0.37999">
        <ele>103.6</ele>
        <time>2022-09-11T07:41:46Z</time>
      </trkpt>
      <trkpt lat="46.52032" lon="0.37995">
        <ele>103.2</ele>
        <time>2022-09-11T07:41:47Z</time>
      </trkpt>
      <trkpt lat="46.52028" lon="0.37991">
        <ele>102.6</ele>
        <time>2022-09-11T07:41:48Z</time>
      </trkpt>
      <trkpt lat="46.52025" lon="0.37988">
        <ele>102.2</ele>
        <time>2022-09-11T07:41:49Z</time>
      </trkpt>
      <trkpt lat="46.52016" lon="0.37979">
        <ele>101.8</ele>
        <time>2022-09-11T07:41:51Z</time>
      </trkpt>
      <trkpt lat="46.52012" lon="0.37975">
        <ele>101.6</ele>
        <time>2022-09-11T07:41:52Z</time>
      </trkpt>
      <trkpt lat="46.52006" lon="0.37972">
        <ele>101</ele>
        <time>2022-09-11T07:41:53Z</time>
      </trkpt>
      <trkpt lat="46.51998" lon="0.37971">
        <ele>100.6</ele>
        <time>2022-09-11T07:41:54Z</time>
      </trkpt>
      <trkpt lat="46.51976" lon="0.37973">
        <ele>99.8</ele>
        <time>2022-09-11T07:41:57Z</time>
      </trkpt>
      <trkpt lat="46.51971" lon="0.37974">
        <ele>99.6</ele>
        <time>2022-09-11T07:41:58Z</time>
      </trkpt>
      <trkpt lat="46.51966" lon="0.37974">
        <ele>99.4</ele>
        <time>2022-09-11T07:41:59Z</time>
      </trkpt>
      <trkpt lat="46.51958" lon="0.37975">
        <ele>98.6</ele>
        <time>2022-09-11T07:42:02Z</time>
      </trkpt>
      <trkpt lat="46.51942" lon="0.37975">
        <ele>98.4</ele>
        <time>2022-09-11T07:42:09Z</time>
      </trkpt>
      <trkpt lat="46.51934" lon="0.37981">
        <ele>98.4</ele>
        <time>2022-09-11T07:42:15Z</time>
      </trkpt>
      <trkpt lat="46.51929" lon="0.37983">
        <ele>98.4</ele>
        <time>2022-09-11T07:42:19Z</time>
      </trkpt>
      <trkpt lat="46.51927" lon="0.37984">
        <ele>98.4</ele>
        <time>2022-09-11T07:42:21Z</time>
      </trkpt>
      <trkpt lat="46.51919" lon="0.37988">
        <ele>98.6</ele>
        <time>2022-09-11T07:42:27Z</time>
      </trkpt>
      <trkpt lat="46.51906" lon="0.37998">
        <ele>99.2</ele>
        <time>2022-09-11T07:42:35Z</time>
      </trkpt>
      <trkpt lat="46.51895" lon="0.38005">
        <ele>99.2</ele>
        <time>2022-09-11T07:42:41Z</time>
      </trkpt>
      <trkpt lat="46.51885" lon="0.38005">
        <ele>99.8</ele>
        <time>2022-09-11T07:42:47Z</time>
      </trkpt>
      <trkpt lat="46.51874" lon="0.38001">
        <ele>100.4</ele>
        <time>2022-09-11T07:42:53Z</time>
      </trkpt>
      <trkpt lat="46.51866" lon="0.37998">
        <ele>100.8</ele>
        <time>2022-09-11T07:42:57Z</time>
      </trkpt>
      <trkpt lat="46.51858" lon="0.37997">
        <ele>101.2</ele>
        <time>2022-09-11T07:43:01Z</time>
      </trkpt>
      <trkpt lat="46.51844" lon="0.37994">
        <ele>101.8</ele>
        <time>2022-09-11T07:43:07Z</time>
      </trkpt>
      <trkpt lat="46.51843" lon="0.37993">
        <ele>101.8</ele>
        <time>2022-09-11T07:43:08Z</time>
      </trkpt>
      <trkpt lat="46.51843" lon="0.37983">
        <ele>102.6</ele>
        <time>2022-09-11T07:43:13Z</time>
      </trkpt>
      <trkpt lat="46.51841" lon="0.37972">
        <ele>102.8</ele>
        <time>2022-09-11T07:43:16Z</time>
      </trkpt>
      <trkpt lat="46.5184" lon="0.3796">
        <ele>103</ele>
        <time>2022-09-11T07:43:19Z</time>
      </trkpt>
      <trkpt lat="46.5184" lon="0.3794">
        <ele>103.4</ele>
        <time>2022-09-11T07:43:24Z</time>
      </trkpt>
      <trkpt lat="46.51841" lon="0.37925">
        <ele>103.2</ele>
        <time>2022-09-11T07:43:27Z</time>
      </trkpt>
      <trkpt lat="46.51846" lon="0.37907">
        <ele>103</ele>
        <time>2022-09-11T07:43:30Z</time>
      </trkpt>
      <trkpt lat="46.51851" lon="0.37893">
        <ele>102.8</ele>
        <time>2022-09-11T07:43:32Z</time>
      </trkpt>
      <trkpt lat="46.51859" lon="0.37875">
        <ele>102.8</ele>
        <time>2022-09-11T07:43:35Z</time>
      </trkpt>
      <trkpt lat="46.51861" lon="0.37867">
        <ele>102.6</ele>
        <time>2022-09-11T07:43:36Z</time>
      </trkpt>
      <trkpt lat="46.5187" lon="0.37851">
        <ele>102</ele>
        <time>2022-09-11T07:43:39Z</time>
      </trkpt>
      <trkpt lat="46.51876" lon="0.3784">
        <ele>101.8</ele>
        <time>2022-09-11T07:43:41Z</time>
      </trkpt>
      <trkpt lat="46.5188" lon="0.37828">
        <ele>101.8</ele>
        <time>2022-09-11T07:43:43Z</time>
      </trkpt>
      <trkpt lat="46.5188" lon="0.37821">
        <ele>101.8</ele>
        <time>2022-09-11T07:43:44Z</time>
      </trkpt>
      <trkpt lat="46.51879" lon="0.37813">
        <ele>101.6</ele>
        <time>2022-09-11T07:43:45Z</time>
      </trkpt>
      <trkpt lat="46.51887" lon="0.3778">
        <ele>101.6</ele>
        <time>2022-09-11T07:43:50Z</time>
      </trkpt>
      <trkpt lat="46.51891" lon="0.37761">
        <ele>101.8</ele>
        <time>2022-09-11T07:43:53Z</time>
      </trkpt>
      <trkpt lat="46.5189" lon="0.37743">
        <ele>102</ele>
        <time>2022-09-11T07:43:55Z</time>
      </trkpt>
      <trkpt lat="46.51891" lon="0.37735">
        <ele>102</ele>
        <time>2022-09-11T07:43:56Z</time>
      </trkpt>
      <trkpt lat="46.51897" lon="0.37707">
        <ele>102</ele>
        <time>2022-09-11T07:44:00Z</time>
      </trkpt>
      <trkpt lat="46.51905" lon="0.37677">
        <ele>102</ele>
        <time>2022-09-11T07:44:05Z</time>
      </trkpt>
      <trkpt lat="46.51903" lon="0.37663">
        <ele>102.2</ele>
        <time>2022-09-11T07:44:07Z</time>
      </trkpt>
      <trkpt lat="46.519" lon="0.37643">
        <ele>102.4</ele>
        <time>2022-09-11T07:44:09Z</time>
      </trkpt>
      <trkpt lat="46.51899" lon="0.37635">
        <ele>102.4</ele>
        <time>2022-09-11T07:44:10Z</time>
      </trkpt>
      <trkpt lat="46.51896" lon="0.37597">
        <ele>102.2</ele>
        <time>2022-09-11T07:44:15Z</time>
      </trkpt>
      <trkpt lat="46.51895" lon="0.3759">
        <ele>102.2</ele>
        <time>2022-09-11T07:44:16Z</time>
      </trkpt>
      <trkpt lat="46.51893" lon="0.37583">
        <ele>102.2</ele>
        <time>2022-09-11T07:44:17Z</time>
      </trkpt>
      <trkpt lat="46.51888" lon="0.37572">
        <ele>102.2</ele>
        <time>2022-09-11T07:44:19Z</time>
      </trkpt>
      <trkpt lat="46.51884" lon="0.37565">
        <ele>102.2</ele>
        <time>2022-09-11T07:44:20Z</time>
      </trkpt>
      <trkpt lat="46.51873" lon="0.37551">
        <ele>102.2</ele>
        <time>2022-09-11T07:44:23Z</time>
      </trkpt>
      <trkpt lat="46.51861" lon="0.3754">
        <ele>101.6</ele>
        <time>2022-09-11T07:44:26Z</time>
      </trkpt>
      <trkpt lat="46.51856" lon="0.37537">
        <ele>101.2</ele>
        <time>2022-09-11T07:44:27Z</time>
      </trkpt>
      <trkpt lat="46.51838" lon="0.37528">
        <ele>101.4</ele>
        <time>2022-09-11T07:44:31Z</time>
      </trkpt>
      <trkpt lat="46.51798" lon="0.37508">
        <ele>101.4</ele>
        <time>2022-09-11T07:44:40Z</time>
      </trkpt>
      <trkpt lat="46.5179" lon="0.37503">
        <ele>101.2</ele>
        <time>2022-09-11T07:44:42Z</time>
      </trkpt>
      <trkpt lat="46.51785" lon="0.37501">
        <ele>101.2</ele>
        <time>2022-09-11T07:44:44Z</time>
      </trkpt>
      <trkpt lat="46.5178" lon="0.37499">
        <ele>101</ele>
        <time>2022-09-11T07:44:47Z</time>
      </trkpt>
      <trkpt lat="46.5178" lon="0.375">
        <ele>101</ele>
        <time>2022-09-11T07:44:48Z</time>
      </trkpt>
      <trkpt lat="46.5178" lon="0.37504">
        <ele>102.2</ele>
        <time>2022-09-11T07:44:54Z</time>
      </trkpt>
      <trkpt lat="46.5178" lon="0.37507">
        <ele>103</ele>
        <time>2022-09-11T07:44:56Z</time>
      </trkpt>
      <trkpt lat="46.51777" lon="0.3751">
        <ele>104.4</ele>
        <time>2022-09-11T07:44:59Z</time>
      </trkpt>
      <trkpt lat="46.51775" lon="0.37511">
        <ele>105.2</ele>
        <time>2022-09-11T07:45:01Z</time>
      </trkpt>
      <trkpt lat="46.51774" lon="0.37512">
        <ele>105.8</ele>
        <time>2022-09-11T07:45:02Z</time>
      </trkpt>
      <trkpt lat="46.51769" lon="0.37516">
        <ele>107.2</ele>
        <time>2022-09-11T07:45:07Z</time>
      </trkpt>
      <trkpt lat="46.51768" lon="0.37519">
        <ele>107.8</ele>
        <time>2022-09-11T07:45:09Z</time>
      </trkpt>
      <trkpt lat="46.51767" lon="0.3752">
        <ele>108.2</ele>
        <time>2022-09-11T07:45:10Z</time>
      </trkpt>
      <trkpt lat="46.51765" lon="0.37524">
        <ele>109.4</ele>
        <time>2022-09-11T07:45:13Z</time>
      </trkpt>
      <trkpt lat="46.51763" lon="0.37526">
        <ele>110.2</ele>
        <time>2022-09-11T07:45:15Z</time>
      </trkpt>
      <trkpt lat="46.51762" lon="0.37527">
        <ele>110.4</ele>
        <time>2022-09-11T07:45:16Z</time>
      </trkpt>
      <trkpt lat="46.51761" lon="0.37529">
        <ele>110.6</ele>
        <time>2022-09-11T07:45:17Z</time>
      </trkpt>
      <trkpt lat="46.51758" lon="0.3754">
        <ele>111.8</ele>
        <time>2022-09-11T07:45:23Z</time>
      </trkpt>
      <trkpt lat="46.51754" lon="0.37552">
        <ele>113</ele>
        <time>2022-09-11T07:45:29Z</time>
      </trkpt>
      <trkpt lat="46.5175" lon="0.37559">
        <ele>113.8</ele>
        <time>2022-09-11T07:45:33Z</time>
      </trkpt>
      <trkpt lat="46.51749" lon="0.37562">
        <ele>114</ele>
        <time>2022-09-11T07:45:34Z</time>
      </trkpt>
      <trkpt lat="46.51744" lon="0.37576">
        <ele>115.2</ele>
        <time>2022-09-11T07:45:41Z</time>
      </trkpt>
      <trkpt lat="46.51741" lon="0.37582">
        <ele>116</ele>
        <time>2022-09-11T07:45:45Z</time>
      </trkpt>
      <trkpt lat="46.5174" lon="0.37587">
        <ele>116.4</ele>
        <time>2022-09-11T07:45:47Z</time>
      </trkpt>
      <trkpt lat="46.51733" lon="0.37605">
        <ele>117.2</ele>
        <time>2022-09-11T07:45:54Z</time>
      </trkpt>
      <trkpt lat="46.5173" lon="0.37613">
        <ele>117.4</ele>
        <time>2022-09-11T07:45:57Z</time>
      </trkpt>
      <trkpt lat="46.51728" lon="0.37619">
        <ele>117.8</ele>
        <time>2022-09-11T07:45:59Z</time>
      </trkpt>
      <trkpt lat="46.51722" lon="0.3764">
        <ele>118.6</ele>
        <time>2022-09-11T07:46:07Z</time>
      </trkpt>
      <trkpt lat="46.51722" lon="0.37643">
        <ele>118.6</ele>
        <time>2022-09-11T07:46:08Z</time>
      </trkpt>
      <trkpt lat="46.51715" lon="0.37661">
        <ele>119.4</ele>
        <time>2022-09-11T07:46:15Z</time>
      </trkpt>
      <trkpt lat="46.51709" lon="0.3768">
        <ele>119.6</ele>
        <time>2022-09-11T07:46:21Z</time>
      </trkpt>
      <trkpt lat="46.51707" lon="0.37686">
        <ele>119.8</ele>
        <time>2022-09-11T07:46:23Z</time>
      </trkpt>
      <trkpt lat="46.51698" lon="0.37705">
        <ele>120.6</ele>
        <time>2022-09-11T07:46:29Z</time>
      </trkpt>
      <trkpt lat="46.51686" lon="0.37733">
        <ele>120.4</ele>
        <time>2022-09-11T07:46:36Z</time>
      </trkpt>
      <trkpt lat="46.51672" lon="0.37778">
        <ele>120</ele>
        <time>2022-09-11T07:46:44Z</time>
      </trkpt>
      <trkpt lat="46.51667" lon="0.3779">
        <ele>119.2</ele>
        <time>2022-09-11T07:46:46Z</time>
      </trkpt>
      <trkpt lat="46.51659" lon="0.37811">
        <ele>118.6</ele>
        <time>2022-09-11T07:46:49Z</time>
      </trkpt>
      <trkpt lat="46.51654" lon="0.37826">
        <ele>118</ele>
        <time>2022-09-11T07:46:51Z</time>
      </trkpt>
      <trkpt lat="46.51647" lon="0.37847">
        <ele>117.2</ele>
        <time>2022-09-11T07:46:54Z</time>
      </trkpt>
      <trkpt lat="46.51644" lon="0.37853">
        <ele>117.2</ele>
        <time>2022-09-11T07:46:55Z</time>
      </trkpt>
      <trkpt lat="46.51632" lon="0.37879">
        <ele>117.6</ele>
        <time>2022-09-11T07:47:00Z</time>
      </trkpt>
      <trkpt lat="46.51629" lon="0.3789">
        <ele>117.8</ele>
        <time>2022-09-11T07:47:02Z</time>
      </trkpt>
      <trkpt lat="46.51625" lon="0.37905">
        <ele>118.2</ele>
        <time>2022-09-11T07:47:05Z</time>
      </trkpt>
      <trkpt lat="46.51623" lon="0.37916">
        <ele>118.2</ele>
        <time>2022-09-11T07:47:07Z</time>
      </trkpt>
      <trkpt lat="46.51619" lon="0.37928">
        <ele>117.8</ele>
        <time>2022-09-11T07:47:09Z</time>
      </trkpt>
      <trkpt lat="46.51617" lon="0.37937">
        <ele>117.6</ele>
        <time>2022-09-11T07:47:10Z</time>
      </trkpt>
      <trkpt lat="46.51614" lon="0.37943">
        <ele>117.6</ele>
        <time>2022-09-11T07:47:11Z</time>
      </trkpt>
      <trkpt lat="46.51611" lon="0.37952">
        <ele>117.6</ele>
        <time>2022-09-11T07:47:13Z</time>
      </trkpt>
      <trkpt lat="46.51609" lon="0.37953">
        <ele>117.6</ele>
        <time>2022-09-11T07:47:14Z</time>
      </trkpt>
      <trkpt lat="46.51604" lon="0.37951">
        <ele>117.8</ele>
        <time>2022-09-11T07:47:18Z</time>
      </trkpt>
      <trkpt lat="46.51588" lon="0.37949">
        <ele>118.8</ele>
        <time>2022-09-11T07:47:23Z</time>
      </trkpt>
      <trkpt lat="46.5158" lon="0.37949">
        <ele>119.2</ele>
        <time>2022-09-11T07:47:25Z</time>
      </trkpt>
      <trkpt lat="46.51566" lon="0.37948">
        <ele>119.6</ele>
        <time>2022-09-11T07:47:29Z</time>
      </trkpt>
      <trkpt lat="46.5155" lon="0.3795">
        <ele>120.2</ele>
        <time>2022-09-11T07:47:33Z</time>
      </trkpt>
      <trkpt lat="46.51542" lon="0.3795">
        <ele>120.4</ele>
        <time>2022-09-11T07:47:35Z</time>
      </trkpt>
      <trkpt lat="46.51518" lon="0.37952">
        <ele>121.2</ele>
        <time>2022-09-11T07:47:41Z</time>
      </trkpt>
      <trkpt lat="46.51506" lon="0.37952">
        <ele>121.2</ele>
        <time>2022-09-11T07:47:44Z</time>
      </trkpt>
      <trkpt lat="46.51503" lon="0.37953">
        <ele>121.2</ele>
        <time>2022-09-11T07:47:45Z</time>
      </trkpt>
      <trkpt lat="46.51495" lon="0.37955">
        <ele>121.4</ele>
        <time>2022-09-11T07:47:47Z</time>
      </trkpt>
      <trkpt lat="46.51472" lon="0.37957">
        <ele>122</ele>
        <time>2022-09-11T07:47:53Z</time>
      </trkpt>
      <trkpt lat="46.51459" lon="0.37956">
        <ele>122.4</ele>
        <time>2022-09-11T07:47:57Z</time>
      </trkpt>
      <trkpt lat="46.5145" lon="0.37955">
        <ele>122.8</ele>
        <time>2022-09-11T07:48:00Z</time>
      </trkpt>
      <trkpt lat="46.5144" lon="0.37953">
        <ele>123.6</ele>
        <time>2022-09-11T07:48:03Z</time>
      </trkpt>
      <trkpt lat="46.51424" lon="0.37948">
        <ele>124.4</ele>
        <time>2022-09-11T07:48:08Z</time>
      </trkpt>
      <trkpt lat="46.51418" lon="0.37943">
        <ele>124.6</ele>
        <time>2022-09-11T07:48:10Z</time>
      </trkpt>
      <trkpt lat="46.51404" lon="0.37934">
        <ele>125</ele>
        <time>2022-09-11T07:48:14Z</time>
      </trkpt>
      <trkpt lat="46.51388" lon="0.37925">
        <ele>125.8</ele>
        <time>2022-09-11T07:48:19Z</time>
      </trkpt>
      <trkpt lat="46.51381" lon="0.3792">
        <ele>126.2</ele>
        <time>2022-09-11T07:48:21Z</time>
      </trkpt>
      <trkpt lat="46.51368" lon="0.37911">
        <ele>126.8</ele>
        <time>2022-09-11T07:48:25Z</time>
      </trkpt>
      <trkpt lat="46.51364" lon="0.37909">
        <ele>127</ele>
        <time>2022-09-11T07:48:26Z</time>
      </trkpt>
      <trkpt lat="46.51346" lon="0.37899">
        <ele>127.8</ele>
        <time>2022-09-11T07:48:31Z</time>
      </trkpt>
      <trkpt lat="46.51342" lon="0.37897">
        <ele>128</ele>
        <time>2022-09-11T07:48:32Z</time>
      </trkpt>
      <trkpt lat="46.51328" lon="0.37891">
        <ele>129</ele>
        <time>2022-09-11T07:48:36Z</time>
      </trkpt>
      <trkpt lat="46.51316" lon="0.37884">
        <ele>129.2</ele>
        <time>2022-09-11T07:48:39Z</time>
      </trkpt>
      <trkpt lat="46.51294" lon="0.37872">
        <ele>130</ele>
        <time>2022-09-11T07:48:45Z</time>
      </trkpt>
      <trkpt lat="46.51273" lon="0.37858">
        <ele>130.6</ele>
        <time>2022-09-11T07:48:52Z</time>
      </trkpt>
      <trkpt lat="46.51252" lon="0.37844">
        <ele>131.2</ele>
        <time>2022-09-11T07:48:57Z</time>
      </trkpt>
      <trkpt lat="46.51249" lon="0.37841">
        <ele>131.2</ele>
        <time>2022-09-11T07:48:58Z</time>
      </trkpt>
      <trkpt lat="46.51228" lon="0.37829">
        <ele>131.8</ele>
        <time>2022-09-11T07:49:04Z</time>
      </trkpt>
      <trkpt lat="46.51213" lon="0.37825">
        <ele>132.2</ele>
        <time>2022-09-11T07:49:09Z</time>
      </trkpt>
      <trkpt lat="46.51209" lon="0.37824">
        <ele>132.4</ele>
        <time>2022-09-11T07:49:10Z</time>
      </trkpt>
      <trkpt lat="46.51185" lon="0.37817">
        <ele>132.8</ele>
        <time>2022-09-11T07:49:17Z</time>
      </trkpt>
      <trkpt lat="46.51182" lon="0.37816">
        <ele>132.8</ele>
        <time>2022-09-11T07:49:18Z</time>
      </trkpt>
      <trkpt lat="46.51169" lon="0.37813">
        <ele>132.6</ele>
        <time>2022-09-11T07:49:21Z</time>
      </trkpt>
      <trkpt lat="46.5116" lon="0.37812">
        <ele>132.6</ele>
        <time>2022-09-11T07:49:23Z</time>
      </trkpt>
      <trkpt lat="46.51135" lon="0.37805">
        <ele>132.6</ele>
        <time>2022-09-11T07:49:29Z</time>
      </trkpt>
      <trkpt lat="46.51126" lon="0.37799">
        <ele>132.8</ele>
        <time>2022-09-11T07:49:31Z</time>
      </trkpt>
      <trkpt lat="46.51116" lon="0.37793">
        <ele>132.8</ele>
        <time>2022-09-11T07:49:33Z</time>
      </trkpt>
      <trkpt lat="46.51112" lon="0.3779">
        <ele>132.8</ele>
        <time>2022-09-11T07:49:34Z</time>
      </trkpt>
      <trkpt lat="46.511" lon="0.37781">
        <ele>133.2</ele>
        <time>2022-09-11T07:49:37Z</time>
      </trkpt>
      <trkpt lat="46.51082" lon="0.37766">
        <ele>133.8</ele>
        <time>2022-09-11T07:49:41Z</time>
      </trkpt>
      <trkpt lat="46.51077" lon="0.37761">
        <ele>133.8</ele>
        <time>2022-09-11T07:49:42Z</time>
      </trkpt>
      <trkpt lat="46.51065" lon="0.37749">
        <ele>134</ele>
        <time>2022-09-11T07:49:45Z</time>
      </trkpt>
      <trkpt lat="46.51061" lon="0.37742">
        <ele>134.2</ele>
        <time>2022-09-11T07:49:47Z</time>
      </trkpt>
      <trkpt lat="46.51059" lon="0.37738">
        <ele>134.4</ele>
        <time>2022-09-11T07:49:48Z</time>
      </trkpt>
      <trkpt lat="46.51057" lon="0.37734">
        <ele>134.6</ele>
        <time>2022-09-11T07:49:49Z</time>
      </trkpt>
      <trkpt lat="46.51049" lon="0.37711">
        <ele>135.2</ele>
        <time>2022-09-11T07:49:53Z</time>
      </trkpt>
      <trkpt lat="46.51044" lon="0.37692">
        <ele>135.4</ele>
        <time>2022-09-11T07:49:56Z</time>
      </trkpt>
      <trkpt lat="46.51042" lon="0.37675">
        <ele>136</ele>
        <time>2022-09-11T07:49:59Z</time>
      </trkpt>
      <trkpt lat="46.51041" lon="0.37646">
        <ele>136.6</ele>
        <time>2022-09-11T07:50:04Z</time>
      </trkpt>
      <trkpt lat="46.51042" lon="0.37636">
        <ele>136.8</ele>
        <time>2022-09-11T07:50:06Z</time>
      </trkpt>
      <trkpt lat="46.51045" lon="0.37601">
        <ele>137.8</ele>
        <time>2022-09-11T07:50:12Z</time>
      </trkpt>
      <trkpt lat="46.51044" lon="0.37596">
        <ele>137.8</ele>
        <time>2022-09-11T07:50:13Z</time>
      </trkpt>
      <trkpt lat="46.51042" lon="0.37584">
        <ele>138</ele>
        <time>2022-09-11T07:50:15Z</time>
      </trkpt>
      <trkpt lat="46.51039" lon="0.37572">
        <ele>138.4</ele>
        <time>2022-09-11T07:50:18Z</time>
      </trkpt>
      <trkpt lat="46.51037" lon="0.37564">
        <ele>138.6</ele>
        <time>2022-09-11T07:50:20Z</time>
      </trkpt>
      <trkpt lat="46.51032" lon="0.37549">
        <ele>138.8</ele>
        <time>2022-09-11T07:50:24Z</time>
      </trkpt>
      <trkpt lat="46.51027" lon="0.37535">
        <ele>138.8</ele>
        <time>2022-09-11T07:50:27Z</time>
      </trkpt>
      <trkpt lat="46.51022" lon="0.37521">
        <ele>138.8</ele>
        <time>2022-09-11T07:50:30Z</time>
      </trkpt>
      <trkpt lat="46.51019" lon="0.37513">
        <ele>139</ele>
        <time>2022-09-11T07:50:32Z</time>
      </trkpt>
      <trkpt lat="46.51007" lon="0.37493">
        <ele>139.6</ele>
        <time>2022-09-11T07:50:36Z</time>
      </trkpt>
      <trkpt lat="46.51005" lon="0.37488">
        <ele>139.6</ele>
        <time>2022-09-11T07:50:37Z</time>
      </trkpt>
      <trkpt lat="46.51001" lon="0.37479">
        <ele>139.6</ele>
        <time>2022-09-11T07:50:39Z</time>
      </trkpt>
      <trkpt lat="46.50996" lon="0.37467">
        <ele>139.6</ele>
        <time>2022-09-11T07:50:41Z</time>
      </trkpt>
      <trkpt lat="46.50986" lon="0.37444">
        <ele>139.6</ele>
        <time>2022-09-11T07:50:45Z</time>
      </trkpt>
      <trkpt lat="46.50983" lon="0.37433">
        <ele>139.4</ele>
        <time>2022-09-11T07:50:47Z</time>
      </trkpt>
      <trkpt lat="46.50979" lon="0.37419">
        <ele>140</ele>
        <time>2022-09-11T07:50:50Z</time>
      </trkpt>
      <trkpt lat="46.50972" lon="0.37402">
        <ele>140</ele>
        <time>2022-09-11T07:50:53Z</time>
      </trkpt>
      <trkpt lat="46.50968" lon="0.37395">
        <ele>140.2</ele>
        <time>2022-09-11T07:50:54Z</time>
      </trkpt>
      <trkpt lat="46.50963" lon="0.37383">
        <ele>140.2</ele>
        <time>2022-09-11T07:50:56Z</time>
      </trkpt>
      <trkpt lat="46.50958" lon="0.37373">
        <ele>140.2</ele>
        <time>2022-09-11T07:50:58Z</time>
      </trkpt>
      <trkpt lat="46.50955" lon="0.37367">
        <ele>140.6</ele>
        <time>2022-09-11T07:50:59Z</time>
      </trkpt>
      <trkpt lat="46.5095" lon="0.37356">
        <ele>141</ele>
        <time>2022-09-11T07:51:01Z</time>
      </trkpt>
      <trkpt lat="46.50943" lon="0.3734">
        <ele>140.8</ele>
        <time>2022-09-11T07:51:04Z</time>
      </trkpt>
      <trkpt lat="46.50934" lon="0.37314">
        <ele>140.6</ele>
        <time>2022-09-11T07:51:08Z</time>
      </trkpt>
      <trkpt lat="46.50927" lon="0.37299">
        <ele>140.8</ele>
        <time>2022-09-11T07:51:10Z</time>
      </trkpt>
      <trkpt lat="46.50919" lon="0.37264">
        <ele>141.2</ele>
        <time>2022-09-11T07:51:16Z</time>
      </trkpt>
      <trkpt lat="46.50915" lon="0.37248">
        <ele>141.4</ele>
        <time>2022-09-11T07:51:19Z</time>
      </trkpt>
      <trkpt lat="46.50904" lon="0.37223">
        <ele>141.4</ele>
        <time>2022-09-11T07:51:23Z</time>
      </trkpt>
      <trkpt lat="46.5089" lon="0.37187">
        <ele>141.6</ele>
        <time>2022-09-11T07:51:27Z</time>
      </trkpt>
      <trkpt lat="46.50888" lon="0.3718">
        <ele>141.8</ele>
        <time>2022-09-11T07:51:28Z</time>
      </trkpt>
      <trkpt lat="46.50885" lon="0.37166">
        <ele>141.8</ele>
        <time>2022-09-11T07:51:30Z</time>
      </trkpt>
      <trkpt lat="46.50885" lon="0.37153">
        <ele>141.8</ele>
        <time>2022-09-11T07:51:32Z</time>
      </trkpt>
      <trkpt lat="46.50878" lon="0.37125">
        <ele>141.6</ele>
        <time>2022-09-11T07:51:37Z</time>
      </trkpt>
      <trkpt lat="46.50877" lon="0.3712">
        <ele>141.6</ele>
        <time>2022-09-11T07:51:38Z</time>
      </trkpt>
      <trkpt lat="46.50876" lon="0.37116">
        <ele>141.6</ele>
        <time>2022-09-11T07:51:39Z</time>
      </trkpt>
      <trkpt lat="46.50869" lon="0.37089">
        <ele>141.4</ele>
        <time>2022-09-11T07:51:43Z</time>
      </trkpt>
      <trkpt lat="46.50853" lon="0.37039">
        <ele>141.8</ele>
        <time>2022-09-11T07:51:49Z</time>
      </trkpt>
      <trkpt lat="46.5085" lon="0.3703">
        <ele>141.8</ele>
        <time>2022-09-11T07:51:50Z</time>
      </trkpt>
      <trkpt lat="46.50845" lon="0.36999">
        <ele>141.4</ele>
        <time>2022-09-11T07:51:54Z</time>
      </trkpt>
      <trkpt lat="46.50841" lon="0.36978">
        <ele>141.4</ele>
        <time>2022-09-11T07:51:57Z</time>
      </trkpt>
      <trkpt lat="46.50832" lon="0.3695">
        <ele>141.8</ele>
        <time>2022-09-11T07:52:00Z</time>
      </trkpt>
      <trkpt lat="46.5082" lon="0.36922">
        <ele>141.8</ele>
        <time>2022-09-11T07:52:04Z</time>
      </trkpt>
      <trkpt lat="46.50817" lon="0.36916">
        <ele>141.8</ele>
        <time>2022-09-11T07:52:05Z</time>
      </trkpt>
      <trkpt lat="46.50814" lon="0.3691">
        <ele>141.8</ele>
        <time>2022-09-11T07:52:06Z</time>
      </trkpt>
      <trkpt lat="46.50809" lon="0.36898">
        <ele>141.6</ele>
        <time>2022-09-11T07:52:08Z</time>
      </trkpt>
      <trkpt lat="46.50803" lon="0.36877">
        <ele>141.2</ele>
        <time>2022-09-11T07:52:11Z</time>
      </trkpt>
      <trkpt lat="46.50796" lon="0.36856">
        <ele>141.2</ele>
        <time>2022-09-11T07:52:14Z</time>
      </trkpt>
      <trkpt lat="46.50789" lon="0.36844">
        <ele>141.2</ele>
        <time>2022-09-11T07:52:16Z</time>
      </trkpt>
      <trkpt lat="46.50786" lon="0.36839">
        <ele>141</ele>
        <time>2022-09-11T07:52:17Z</time>
      </trkpt>
      <trkpt lat="46.50767" lon="0.36823">
        <ele>140.6</ele>
        <time>2022-09-11T07:52:21Z</time>
      </trkpt>
      <trkpt lat="46.50757" lon="0.36813">
        <ele>140.6</ele>
        <time>2022-09-11T07:52:23Z</time>
      </trkpt>
      <trkpt lat="46.50739" lon="0.36796">
        <ele>140.8</ele>
        <time>2022-09-11T07:52:26Z</time>
      </trkpt>
      <trkpt lat="46.50728" lon="0.36787">
        <ele>140.2</ele>
        <time>2022-09-11T07:52:28Z</time>
      </trkpt>
      <trkpt lat="46.50723" lon="0.36783">
        <ele>140</ele>
        <time>2022-09-11T07:52:29Z</time>
      </trkpt>
      <trkpt lat="46.50712" lon="0.36774">
        <ele>140</ele>
        <time>2022-09-11T07:52:31Z</time>
      </trkpt>
      <trkpt lat="46.50707" lon="0.36771">
        <ele>139.8</ele>
        <time>2022-09-11T07:52:32Z</time>
      </trkpt>
      <trkpt lat="46.50696" lon="0.36766">
        <ele>139.4</ele>
        <time>2022-09-11T07:52:35Z</time>
      </trkpt>
      <trkpt lat="46.50686" lon="0.36765">
        <ele>138.8</ele>
        <time>2022-09-11T07:52:38Z</time>
      </trkpt>
      <trkpt lat="46.5068" lon="0.36766">
        <ele>138.6</ele>
        <time>2022-09-11T07:52:40Z</time>
      </trkpt>
      <trkpt lat="46.50664" lon="0.36775">
        <ele>138.4</ele>
        <time>2022-09-11T07:52:45Z</time>
      </trkpt>
      <trkpt lat="46.50647" lon="0.36793">
        <ele>139</ele>
        <time>2022-09-11T07:52:51Z</time>
      </trkpt>
      <trkpt lat="46.50646" lon="0.36795">
        <ele>139</ele>
        <time>2022-09-11T07:52:54Z</time>
      </trkpt>
      <trkpt lat="46.50645" lon="0.36795">
        <ele>139</ele>
        <time>2022-09-11T07:52:56Z</time>
      </trkpt>
      <trkpt lat="46.50645" lon="0.36792">
        <ele>138.8</ele>
        <time>2022-09-11T07:53:05Z</time>
      </trkpt>
      <trkpt lat="46.50639" lon="0.36788">
        <ele>139</ele>
        <time>2022-09-11T08:02:04Z</time>
      </trkpt>
      <trkpt lat="46.50639" lon="0.36788">
        <ele>139</ele>
        <time>2022-09-11T08:02:05Z</time>
      </trkpt>
      <trkpt lat="46.50643" lon="0.36777">
        <ele>139</ele>
        <time>2022-09-11T08:02:12Z</time>
      </trkpt>
      <trkpt lat="46.50644" lon="0.36756">
        <ele>138.2</ele>
        <time>2022-09-11T08:02:17Z</time>
      </trkpt>
      <trkpt lat="46.50643" lon="0.36752">
        <ele>137.8</ele>
        <time>2022-09-11T08:02:18Z</time>
      </trkpt>
      <trkpt lat="46.5064" lon="0.36739">
        <ele>136.6</ele>
        <time>2022-09-11T08:02:21Z</time>
      </trkpt>
      <trkpt lat="46.5064" lon="0.36727">
        <ele>136.4</ele>
        <time>2022-09-11T08:02:23Z</time>
      </trkpt>
      <trkpt lat="46.50645" lon="0.36694">
        <ele>136.2</ele>
        <time>2022-09-11T08:02:27Z</time>
      </trkpt>
      <trkpt lat="46.50648" lon="0.36662">
        <ele>135.4</ele>
        <time>2022-09-11T08:02:30Z</time>
      </trkpt>
      <trkpt lat="46.5065" lon="0.36652">
        <ele>135.2</ele>
        <time>2022-09-11T08:02:31Z</time>
      </trkpt>
      <trkpt lat="46.50653" lon="0.36641">
        <ele>135</ele>
        <time>2022-09-11T08:02:32Z</time>
      </trkpt>
      <trkpt lat="46.50658" lon="0.36631">
        <ele>134.6</ele>
        <time>2022-09-11T08:02:33Z</time>
      </trkpt>
      <trkpt lat="46.50664" lon="0.36623">
        <ele>134</ele>
        <time>2022-09-11T08:02:34Z</time>
      </trkpt>
      <trkpt lat="46.50671" lon="0.36615">
        <ele>133.4</ele>
        <time>2022-09-11T08:02:35Z</time>
      </trkpt>
      <trkpt lat="46.50686" lon="0.366">
        <ele>132.8</ele>
        <time>2022-09-11T08:02:37Z</time>
      </trkpt>
      <trkpt lat="46.50697" lon="0.36581">
        <ele>131.2</ele>
        <time>2022-09-11T08:02:39Z</time>
      </trkpt>
      <trkpt lat="46.50703" lon="0.36559">
        <ele>130.6</ele>
        <time>2022-09-11T08:02:41Z</time>
      </trkpt>
      <trkpt lat="46.50704" lon="0.36547">
        <ele>130</ele>
        <time>2022-09-11T08:02:42Z</time>
      </trkpt>
      <trkpt lat="46.50711" lon="0.36494">
        <ele>129.4</ele>
        <time>2022-09-11T08:02:47Z</time>
      </trkpt>
      <trkpt lat="46.50714" lon="0.36451">
        <ele>130.2</ele>
        <time>2022-09-11T08:02:52Z</time>
      </trkpt>
      <trkpt lat="46.50722" lon="0.36406">
        <ele>131.2</ele>
        <time>2022-09-11T08:02:58Z</time>
      </trkpt>
      <trkpt lat="46.50724" lon="0.36373">
        <ele>132.4</ele>
        <time>2022-09-11T08:03:02Z</time>
      </trkpt>
      <trkpt lat="46.50727" lon="0.36349">
        <ele>133</ele>
        <time>2022-09-11T08:03:05Z</time>
      </trkpt>
      <trkpt lat="46.50728" lon="0.36333">
        <ele>133.4</ele>
        <time>2022-09-11T08:03:07Z</time>
      </trkpt>
      <trkpt lat="46.50734" lon="0.36287">
        <ele>134.6</ele>
        <time>2022-09-11T08:03:13Z</time>
      </trkpt>
      <trkpt lat="46.50743" lon="0.36228">
        <ele>135.6</ele>
        <time>2022-09-11T08:03:21Z</time>
      </trkpt>
      <trkpt lat="46.50744" lon="0.36222">
        <ele>135.8</ele>
        <time>2022-09-11T08:03:23Z</time>
      </trkpt>
      <trkpt lat="46.50757" lon="0.36145">
        <ele>136.4</ele>
        <time>2022-09-11T08:03:33Z</time>
      </trkpt>
      <trkpt lat="46.50759" lon="0.36139">
        <ele>136.4</ele>
        <time>2022-09-11T08:03:34Z</time>
      </trkpt>
      <trkpt lat="46.50762" lon="0.36133">
        <ele>136.6</ele>
        <time>2022-09-11T08:03:35Z</time>
      </trkpt>
      <trkpt lat="46.50765" lon="0.36127">
        <ele>136.8</ele>
        <time>2022-09-11T08:03:36Z</time>
      </trkpt>
      <trkpt lat="46.50769" lon="0.36122">
        <ele>136.8</ele>
        <time>2022-09-11T08:03:37Z</time>
      </trkpt>
      <trkpt lat="46.50773" lon="0.36117">
        <ele>136.8</ele>
        <time>2022-09-11T08:03:38Z</time>
      </trkpt>
      <trkpt lat="46.5078" lon="0.36104">
        <ele>136.6</ele>
        <time>2022-09-11T08:03:40Z</time>
      </trkpt>
      <trkpt lat="46.50782" lon="0.36097">
        <ele>136.4</ele>
        <time>2022-09-11T08:03:41Z</time>
      </trkpt>
      <trkpt lat="46.50783" lon="0.36089">
        <ele>136.4</ele>
        <time>2022-09-11T08:03:42Z</time>
      </trkpt>
      <trkpt lat="46.50784" lon="0.36074">
        <ele>135.6</ele>
        <time>2022-09-11T08:03:44Z</time>
      </trkpt>
      <trkpt lat="46.50785" lon="0.36066">
        <ele>135.6</ele>
        <time>2022-09-11T08:03:45Z</time>
      </trkpt>
      <trkpt lat="46.50784" lon="0.36059">
        <ele>135.4</ele>
        <time>2022-09-11T08:03:46Z</time>
      </trkpt>
      <trkpt lat="46.50781" lon="0.36033">
        <ele>135.2</ele>
        <time>2022-09-11T08:03:50Z</time>
      </trkpt>
      <trkpt lat="46.50778" lon="0.36015">
        <ele>135.8</ele>
        <time>2022-09-11T08:03:53Z</time>
      </trkpt>
      <trkpt lat="46.50776" lon="0.35999">
        <ele>136.8</ele>
        <time>2022-09-11T08:03:56Z</time>
      </trkpt>
      <trkpt lat="46.50774" lon="0.35988">
        <ele>137.8</ele>
        <time>2022-09-11T08:03:58Z</time>
      </trkpt>
      <trkpt lat="46.50772" lon="0.35959">
        <ele>139.2</ele>
        <time>2022-09-11T08:04:03Z</time>
      </trkpt>
      <trkpt lat="46.50766" lon="0.3592">
        <ele>140.4</ele>
        <time>2022-09-11T08:04:09Z</time>
      </trkpt>
      <trkpt lat="46.50763" lon="0.35906">
        <ele>140.6</ele>
        <time>2022-09-11T08:04:11Z</time>
      </trkpt>
      <trkpt lat="46.50754" lon="0.35866">
        <ele>141.2</ele>
        <time>2022-09-11T08:04:17Z</time>
      </trkpt>
      <trkpt lat="46.50754" lon="0.35859">
        <ele>141.6</ele>
        <time>2022-09-11T08:04:18Z</time>
      </trkpt>
      <trkpt lat="46.50755" lon="0.35852">
        <ele>141.8</ele>
        <time>2022-09-11T08:04:19Z</time>
      </trkpt>
      <trkpt lat="46.50759" lon="0.35834">
        <ele>142.4</ele>
        <time>2022-09-11T08:04:22Z</time>
      </trkpt>
      <trkpt lat="46.50766" lon="0.35816">
        <ele>142.6</ele>
        <time>2022-09-11T08:04:25Z</time>
      </trkpt>
      <trkpt lat="46.50778" lon="0.35791">
        <ele>142.8</ele>
        <time>2022-09-11T08:04:29Z</time>
      </trkpt>
      <trkpt lat="46.50806" lon="0.35751">
        <ele>142.6</ele>
        <time>2022-09-11T08:04:36Z</time>
      </trkpt>
      <trkpt lat="46.50809" lon="0.35745">
        <ele>142.6</ele>
        <time>2022-09-11T08:04:37Z</time>
      </trkpt>
      <trkpt lat="46.50811" lon="0.35733">
        <ele>142.4</ele>
        <time>2022-09-11T08:04:39Z</time>
      </trkpt>
      <trkpt lat="46.50805" lon="0.35725">
        <ele>142.2</ele>
        <time>2022-09-11T08:04:41Z</time>
      </trkpt>
      <trkpt lat="46.50801" lon="0.35724">
        <ele>142</ele>
        <time>2022-09-11T08:04:42Z</time>
      </trkpt>
      <trkpt lat="46.50769" lon="0.35721">
        <ele>141.8</ele>
        <time>2022-09-11T08:04:49Z</time>
      </trkpt>
      <trkpt lat="46.50736" lon="0.35721">
        <ele>142.6</ele>
        <time>2022-09-11T08:04:57Z</time>
      </trkpt>
      <trkpt lat="46.50701" lon="0.35718">
        <ele>143.2</ele>
        <time>2022-09-11T08:05:05Z</time>
      </trkpt>
      <trkpt lat="46.50681" lon="0.35718">
        <ele>143.6</ele>
        <time>2022-09-11T08:05:09Z</time>
      </trkpt>
      <trkpt lat="46.50662" lon="0.35716">
        <ele>143.8</ele>
        <time>2022-09-11T08:05:13Z</time>
      </trkpt>
      <trkpt lat="46.50653" lon="0.35711">
        <ele>143.8</ele>
        <time>2022-09-11T08:05:15Z</time>
      </trkpt>
      <trkpt lat="46.5065" lon="0.35702">
        <ele>143.8</ele>
        <time>2022-09-11T08:05:17Z</time>
      </trkpt>
      <trkpt lat="46.50652" lon="0.3565">
        <ele>143.8</ele>
        <time>2022-09-11T08:05:25Z</time>
      </trkpt>
      <trkpt lat="46.50654" lon="0.35606">
        <ele>143.4</ele>
        <time>2022-09-11T08:05:31Z</time>
      </trkpt>
      <trkpt lat="46.50655" lon="0.35577">
        <ele>142.6</ele>
        <time>2022-09-11T08:05:35Z</time>
      </trkpt>
      <trkpt lat="46.50656" lon="0.3557">
        <ele>142.6</ele>
        <time>2022-09-11T08:05:36Z</time>
      </trkpt>
      <trkpt lat="46.50658" lon="0.35564">
        <ele>142.6</ele>
        <time>2022-09-11T08:05:37Z</time>
      </trkpt>
      <trkpt lat="46.50661" lon="0.35559">
        <ele>142.6</ele>
        <time>2022-09-11T08:05:38Z</time>
      </trkpt>
      <trkpt lat="46.50667" lon="0.35546">
        <ele>143</ele>
        <time>2022-09-11T08:05:40Z</time>
      </trkpt>
      <trkpt lat="46.5067" lon="0.3554">
        <ele>143</ele>
        <time>2022-09-11T08:05:41Z</time>
      </trkpt>
      <trkpt lat="46.50685" lon="0.35516">
        <ele>143.2</ele>
        <time>2022-09-11T08:05:45Z</time>
      </trkpt>
      <trkpt lat="46.50689" lon="0.3551">
        <ele>143</ele>
        <time>2022-09-11T08:05:46Z</time>
      </trkpt>
      <trkpt lat="46.507" lon="0.35491">
        <ele>142.6</ele>
        <time>2022-09-11T08:05:49Z</time>
      </trkpt>
      <trkpt lat="46.50707" lon="0.35478">
        <ele>142.4</ele>
        <time>2022-09-11T08:05:51Z</time>
      </trkpt>
      <trkpt lat="46.50723" lon="0.35449">
        <ele>142.2</ele>
        <time>2022-09-11T08:05:55Z</time>
      </trkpt>
      <trkpt lat="46.50733" lon="0.35426">
        <ele>141.8</ele>
        <time>2022-09-11T08:05:58Z</time>
      </trkpt>
      <trkpt lat="46.50739" lon="0.35409">
        <ele>141.6</ele>
        <time>2022-09-11T08:06:00Z</time>
      </trkpt>
      <trkpt lat="46.50741" lon="0.35401">
        <ele>141.6</ele>
        <time>2022-09-11T08:06:01Z</time>
      </trkpt>
      <trkpt lat="46.50743" lon="0.35392">
        <ele>141.4</ele>
        <time>2022-09-11T08:06:02Z</time>
      </trkpt>
      <trkpt lat="46.50748" lon="0.35366">
        <ele>141</ele>
        <time>2022-09-11T08:06:05Z</time>
      </trkpt>
      <trkpt lat="46.5075" lon="0.35346">
        <ele>140.8</ele>
        <time>2022-09-11T08:06:08Z</time>
      </trkpt>
      <trkpt lat="46.50751" lon="0.35343">
        <ele>139.8</ele>
        <time>2022-09-11T08:06:09Z</time>
      </trkpt>
      <trkpt lat="46.50751" lon="0.35343">
        <ele>138.6</ele>
        <time>2022-09-11T08:06:10Z</time>
      </trkpt>
      <trkpt lat="46.50751" lon="0.35339">
        <ele>138.6</ele>
        <time>2022-09-11T08:06:11Z</time>
      </trkpt>
      <trkpt lat="46.50751" lon="0.35336">
        <ele>138.2</ele>
        <time>2022-09-11T08:06:14Z</time>
      </trkpt>
      <trkpt lat="46.5075" lon="0.35336">
        <ele>138</ele>
        <time>2022-09-11T08:06:15Z</time>
      </trkpt>
      <trkpt lat="46.5075" lon="0.35335">
        <ele>138.2</ele>
        <time>2022-09-11T08:06:17Z</time>
      </trkpt>
      <trkpt lat="46.50747" lon="0.35327">
        <ele>138.6</ele>
        <time>2022-09-11T08:06:22Z</time>
      </trkpt>
      <trkpt lat="46.50746" lon="0.3532">
        <ele>138.2</ele>
        <time>2022-09-11T08:06:24Z</time>
      </trkpt>
      <trkpt lat="46.50746" lon="0.35311">
        <ele>137.2</ele>
        <time>2022-09-11T08:06:27Z</time>
      </trkpt>
      <trkpt lat="46.50743" lon="0.35297">
        <ele>136.4</ele>
        <time>2022-09-11T08:06:32Z</time>
      </trkpt>
      <trkpt lat="46.50743" lon="0.35293">
        <ele>136.2</ele>
        <time>2022-09-11T08:06:33Z</time>
      </trkpt>
      <trkpt lat="46.50742" lon="0.35285">
        <ele>136</ele>
        <time>2022-09-11T08:06:36Z</time>
      </trkpt>
      <trkpt lat="46.5074" lon="0.35276">
        <ele>135.2</ele>
        <time>2022-09-11T08:06:44Z</time>
      </trkpt>
      <trkpt lat="46.50741" lon="0.35273">
        <ele>135</ele>
        <time>2022-09-11T08:06:46Z</time>
      </trkpt>
      <trkpt lat="46.50742" lon="0.35273">
        <ele>135</ele>
        <time>2022-09-11T08:06:47Z</time>
      </trkpt>
      <trkpt lat="46.50745" lon="0.35262">
        <ele>134</ele>
        <time>2022-09-11T08:06:53Z</time>
      </trkpt>
      <trkpt lat="46.50745" lon="0.35261">
        <ele>133.8</ele>
        <time>2022-09-11T08:06:54Z</time>
      </trkpt>
      <trkpt lat="46.50744" lon="0.35253">
        <ele>133.6</ele>
        <time>2022-09-11T08:06:58Z</time>
      </trkpt>
      <trkpt lat="46.50743" lon="0.35248">
        <ele>133.4</ele>
        <time>2022-09-11T08:07:01Z</time>
      </trkpt>
      <trkpt lat="46.50742" lon="0.35245">
        <ele>133</ele>
        <time>2022-09-11T08:07:03Z</time>
      </trkpt>
      <trkpt lat="46.50741" lon="0.35235">
        <ele>132.6</ele>
        <time>2022-09-11T08:07:10Z</time>
      </trkpt>
      <trkpt lat="46.50746" lon="0.3523">
        <ele>132.6</ele>
        <time>2022-09-11T08:07:22Z</time>
      </trkpt>
      <trkpt lat="46.50755" lon="0.35225">
        <ele>132.2</ele>
        <time>2022-09-11T08:07:28Z</time>
      </trkpt>
      <trkpt lat="46.50756" lon="0.35225">
        <ele>132</ele>
        <time>2022-09-11T08:07:29Z</time>
      </trkpt>
      <trkpt lat="46.50761" lon="0.35226">
        <ele>132</ele>
        <time>2022-09-11T08:07:34Z</time>
      </trkpt>
      <trkpt lat="46.50761" lon="0.3523">
        <ele>132.2</ele>
        <time>2022-09-11T08:07:40Z</time>
      </trkpt>
      <trkpt lat="46.50761" lon="0.35231">
        <ele>132.2</ele>
        <time>2022-09-11T08:07:42Z</time>
      </trkpt>
      <trkpt lat="46.5076" lon="0.35232">
        <ele>132.2</ele>
        <time>2022-09-11T08:07:45Z</time>
      </trkpt>
      <trkpt lat="46.5076" lon="0.35233">
        <ele>132</ele>
        <time>2022-09-11T08:07:51Z</time>
      </trkpt>
      <trkpt lat="46.50756" lon="0.35238">
        <ele>132.6</ele>
        <time>2022-09-11T08:08:02Z</time>
      </trkpt>
      <trkpt lat="46.50755" lon="0.35239">
        <ele>133</ele>
        <time>2022-09-11T08:08:03Z</time>
      </trkpt>
      <trkpt lat="46.5075" lon="0.3524">
        <ele>133.8</ele>
        <time>2022-09-11T08:08:11Z</time>
      </trkpt>
      <trkpt lat="46.5075" lon="0.35239">
        <ele>134</ele>
        <time>2022-09-11T08:08:12Z</time>
      </trkpt>
      <trkpt lat="46.5075" lon="0.35238">
        <ele>134</ele>
        <time>2022-09-11T08:08:13Z</time>
      </trkpt>
      <trkpt lat="46.50751" lon="0.35236">
        <ele>135</ele>
        <time>2022-09-11T08:08:16Z</time>
      </trkpt>
      <trkpt lat="46.50754" lon="0.35237">
        <ele>135.4</ele>
        <time>2022-09-11T08:08:20Z</time>
      </trkpt>
      <trkpt lat="46.50755" lon="0.35239">
        <ele>135</ele>
        <time>2022-09-11T08:08:21Z</time>
      </trkpt>
      <trkpt lat="46.50754" lon="0.35242">
        <ele>134</ele>
        <time>2022-09-11T08:08:23Z</time>
      </trkpt>
      <trkpt lat="46.50754" lon="0.35252">
        <ele>133.2</ele>
        <time>2022-09-11T08:08:27Z</time>
      </trkpt>
      <trkpt lat="46.50754" lon="0.35273">
        <ele>134.6</ele>
        <time>2022-09-11T08:08:33Z</time>
      </trkpt>
      <trkpt lat="46.50754" lon="0.35281">
        <ele>135</ele>
        <time>2022-09-11T08:08:35Z</time>
      </trkpt>
      <trkpt lat="46.50756" lon="0.35284">
        <ele>135</ele>
        <time>2022-09-11T08:08:36Z</time>
      </trkpt>
      <trkpt lat="46.50757" lon="0.35286">
        <ele>135.2</ele>
        <time>2022-09-11T08:08:37Z</time>
      </trkpt>
      <trkpt lat="46.5076" lon="0.35287">
        <ele>136</ele>
        <time>2022-09-11T08:08:39Z</time>
      </trkpt>
      <trkpt lat="46.50762" lon="0.35285">
        <ele>136.4</ele>
        <time>2022-09-11T08:08:41Z</time>
      </trkpt>
      <trkpt lat="46.50764" lon="0.35278">
        <ele>136.6</ele>
        <time>2022-09-11T08:08:44Z</time>
      </trkpt>
      <trkpt lat="46.50767" lon="0.35273">
        <ele>136.2</ele>
        <time>2022-09-11T08:08:46Z</time>
      </trkpt>
      <trkpt lat="46.5077" lon="0.35261">
        <ele>135</ele>
        <time>2022-09-11T08:08:51Z</time>
      </trkpt>
      <trkpt lat="46.50772" lon="0.35258">
        <ele>134.4</ele>
        <time>2022-09-11T08:08:54Z</time>
      </trkpt>
      <trkpt lat="46.50771" lon="0.35255">
        <ele>134.4</ele>
        <time>2022-09-11T08:08:56Z</time>
      </trkpt>
      <trkpt lat="46.5077" lon="0.35254">
        <ele>134.2</ele>
        <time>2022-09-11T08:08:57Z</time>
      </trkpt>
      <trkpt lat="46.50774" lon="0.35243">
        <ele>134</ele>
        <time>2022-09-11T08:09:01Z</time>
      </trkpt>
      <trkpt lat="46.50776" lon="0.3524">
        <ele>134</ele>
        <time>2022-09-11T08:09:02Z</time>
      </trkpt>
      <trkpt lat="46.50781" lon="0.35235">
        <ele>133.8</ele>
        <time>2022-09-11T08:09:04Z</time>
      </trkpt>
      <trkpt lat="46.50787" lon="0.35228">
        <ele>133.6</ele>
        <time>2022-09-11T08:09:06Z</time>
      </trkpt>
      <trkpt lat="46.50792" lon="0.35221">
        <ele>133.4</ele>
        <time>2022-09-11T08:09:08Z</time>
      </trkpt>
      <trkpt lat="46.50798" lon="0.35216">
        <ele>133.2</ele>
        <time>2022-09-11T08:09:10Z</time>
      </trkpt>
      <trkpt lat="46.508" lon="0.35216">
        <ele>133.2</ele>
        <time>2022-09-11T08:09:11Z</time>
      </trkpt>
      <trkpt lat="46.50802" lon="0.35215">
        <ele>133</ele>
        <time>2022-09-11T08:09:12Z</time>
      </trkpt>
      <trkpt lat="46.50805" lon="0.35216">
        <ele>132.8</ele>
        <time>2022-09-11T08:09:14Z</time>
      </trkpt>
      <trkpt lat="46.50809" lon="0.35213">
        <ele>132.6</ele>
        <time>2022-09-11T08:09:16Z</time>
      </trkpt>
      <trkpt lat="46.5081" lon="0.3521">
        <ele>132.6</ele>
        <time>2022-09-11T08:09:17Z</time>
      </trkpt>
      <trkpt lat="46.50814" lon="0.35195">
        <ele>131.8</ele>
        <time>2022-09-11T08:09:21Z</time>
      </trkpt>
      <trkpt lat="46.50817" lon="0.35187">
        <ele>131.4</ele>
        <time>2022-09-11T08:09:24Z</time>
      </trkpt>
      <trkpt lat="46.50818" lon="0.35184">
        <ele>131.2</ele>
        <time>2022-09-11T08:09:25Z</time>
      </trkpt>
      <trkpt lat="46.50818" lon="0.3518">
        <ele>131.2</ele>
        <time>2022-09-11T08:09:26Z</time>
      </trkpt>
      <trkpt lat="46.50829" lon="0.35165">
        <ele>130.8</ele>
        <time>2022-09-11T08:09:29Z</time>
      </trkpt>
      <trkpt lat="46.50837" lon="0.35154">
        <ele>130.4</ele>
        <time>2022-09-11T08:09:31Z</time>
      </trkpt>
      <trkpt lat="46.50847" lon="0.35145">
        <ele>130.2</ele>
        <time>2022-09-11T08:09:33Z</time>
      </trkpt>
      <trkpt lat="46.50855" lon="0.35133">
        <ele>130.2</ele>
        <time>2022-09-11T08:09:35Z</time>
      </trkpt>
      <trkpt lat="46.50858" lon="0.35126">
        <ele>130.2</ele>
        <time>2022-09-11T08:09:36Z</time>
      </trkpt>
      <trkpt lat="46.50861" lon="0.35119">
        <ele>130.2</ele>
        <time>2022-09-11T08:09:37Z</time>
      </trkpt>
      <trkpt lat="46.50871" lon="0.35107">
        <ele>130.2</ele>
        <time>2022-09-11T08:09:39Z</time>
      </trkpt>
      <trkpt lat="46.50884" lon="0.35099">
        <ele>129.6</ele>
        <time>2022-09-11T08:09:41Z</time>
      </trkpt>
      <trkpt lat="46.50903" lon="0.35089">
        <ele>128.8</ele>
        <time>2022-09-11T08:09:44Z</time>
      </trkpt>
      <trkpt lat="46.50928" lon="0.35079">
        <ele>128.4</ele>
        <time>2022-09-11T08:09:48Z</time>
      </trkpt>
      <trkpt lat="46.5094" lon="0.35073">
        <ele>128.4</ele>
        <time>2022-09-11T08:09:50Z</time>
      </trkpt>
      <trkpt lat="46.50945" lon="0.3507">
        <ele>128.4</ele>
        <time>2022-09-11T08:09:51Z</time>
      </trkpt>
      <trkpt lat="46.50951" lon="0.35068">
        <ele>128.2</ele>
        <time>2022-09-11T08:09:52Z</time>
      </trkpt>
      <trkpt lat="46.50965" lon="0.35066">
        <ele>128</ele>
        <time>2022-09-11T08:09:55Z</time>
      </trkpt>
      <trkpt lat="46.50973" lon="0.35069">
        <ele>128</ele>
        <time>2022-09-11T08:09:57Z</time>
      </trkpt>
      <trkpt lat="46.50975" lon="0.35073">
        <ele>128</ele>
        <time>2022-09-11T08:09:58Z</time>
      </trkpt>
      <trkpt lat="46.50977" lon="0.35078">
        <ele>128</ele>
        <time>2022-09-11T08:09:59Z</time>
      </trkpt>
      <trkpt lat="46.50982" lon="0.35085">
        <ele>128.4</ele>
        <time>2022-09-11T08:10:01Z</time>
      </trkpt>
      <trkpt lat="46.50985" lon="0.35085">
        <ele>128.6</ele>
        <time>2022-09-11T08:10:02Z</time>
      </trkpt>
      <trkpt lat="46.50989" lon="0.35085">
        <ele>129</ele>
        <time>2022-09-11T08:10:03Z</time>
      </trkpt>
      <trkpt lat="46.50997" lon="0.35081">
        <ele>129.4</ele>
        <time>2022-09-11T08:10:05Z</time>
      </trkpt>
      <trkpt lat="46.51001" lon="0.35079">
        <ele>129.8</ele>
        <time>2022-09-11T08:10:06Z</time>
      </trkpt>
      <trkpt lat="46.51011" lon="0.35075">
        <ele>130.2</ele>
        <time>2022-09-11T08:10:08Z</time>
      </trkpt>
      <trkpt lat="46.51018" lon="0.35073">
        <ele>130.2</ele>
        <time>2022-09-11T08:10:10Z</time>
      </trkpt>
      <trkpt lat="46.51021" lon="0.3507">
        <ele>130.2</ele>
        <time>2022-09-11T08:10:11Z</time>
      </trkpt>
      <trkpt lat="46.51027" lon="0.35066">
        <ele>129.8</ele>
        <time>2022-09-11T08:10:13Z</time>
      </trkpt>
      <trkpt lat="46.51033" lon="0.35067">
        <ele>129.6</ele>
        <time>2022-09-11T08:10:15Z</time>
      </trkpt>
      <trkpt lat="46.51036" lon="0.35066">
        <ele>129.4</ele>
        <time>2022-09-11T08:10:16Z</time>
      </trkpt>
      <trkpt lat="46.5104" lon="0.3506">
        <ele>129.2</ele>
        <time>2022-09-11T08:10:18Z</time>
      </trkpt>
      <trkpt lat="46.51042" lon="0.35058">
        <ele>128.6</ele>
        <time>2022-09-11T08:10:19Z</time>
      </trkpt>
      <trkpt lat="46.51044" lon="0.35058">
        <ele>128.4</ele>
        <time>2022-09-11T08:10:20Z</time>
      </trkpt>
      <trkpt lat="46.51047" lon="0.35058">
        <ele>128.2</ele>
        <time>2022-09-11T08:10:21Z</time>
      </trkpt>
      <trkpt lat="46.5105" lon="0.35057">
        <ele>128</ele>
        <time>2022-09-11T08:10:22Z</time>
      </trkpt>
      <trkpt lat="46.51055" lon="0.35051">
        <ele>127.2</ele>
        <time>2022-09-11T08:10:25Z</time>
      </trkpt>
      <trkpt lat="46.51067" lon="0.3505">
        <ele>126.2</ele>
        <time>2022-09-11T08:10:29Z</time>
      </trkpt>
      <trkpt lat="46.51069" lon="0.35048">
        <ele>126</ele>
        <time>2022-09-11T08:10:31Z</time>
      </trkpt>
      <trkpt lat="46.51073" lon="0.35043">
        <ele>125.8</ele>
        <time>2022-09-11T08:10:33Z</time>
      </trkpt>
      <trkpt lat="46.51083" lon="0.35033">
        <ele>125.8</ele>
        <time>2022-09-11T08:10:37Z</time>
      </trkpt>
      <trkpt lat="46.51091" lon="0.35028">
        <ele>125.2</ele>
        <time>2022-09-11T08:10:39Z</time>
      </trkpt>
      <trkpt lat="46.51095" lon="0.35023">
        <ele>124.8</ele>
        <time>2022-09-11T08:10:40Z</time>
      </trkpt>
      <trkpt lat="46.51103" lon="0.35009">
        <ele>124.2</ele>
        <time>2022-09-11T08:10:43Z</time>
      </trkpt>
      <trkpt lat="46.51108" lon="0.35006">
        <ele>124</ele>
        <time>2022-09-11T08:10:44Z</time>
      </trkpt>
      <trkpt lat="46.51113" lon="0.35007">
        <ele>123.6</ele>
        <time>2022-09-11T08:10:45Z</time>
      </trkpt>
      <trkpt lat="46.51117" lon="0.35007">
        <ele>123.4</ele>
        <time>2022-09-11T08:10:46Z</time>
      </trkpt>
      <trkpt lat="46.51121" lon="0.35008">
        <ele>123.2</ele>
        <time>2022-09-11T08:10:47Z</time>
      </trkpt>
      <trkpt lat="46.51129" lon="0.35004">
        <ele>123.2</ele>
        <time>2022-09-11T08:10:49Z</time>
      </trkpt>
      <trkpt lat="46.51131" lon="0.34999">
        <ele>123</ele>
        <time>2022-09-11T08:10:50Z</time>
      </trkpt>
      <trkpt lat="46.51133" lon="0.34993">
        <ele>123</ele>
        <time>2022-09-11T08:10:51Z</time>
      </trkpt>
      <trkpt lat="46.51136" lon="0.3498">
        <ele>123.4</ele>
        <time>2022-09-11T08:10:53Z</time>
      </trkpt>
      <trkpt lat="46.51139" lon="0.34975">
        <ele>123.4</ele>
        <time>2022-09-11T08:10:54Z</time>
      </trkpt>
      <trkpt lat="46.51142" lon="0.3497">
        <ele>123.6</ele>
        <time>2022-09-11T08:10:55Z</time>
      </trkpt>
      <trkpt lat="46.51149" lon="0.34961">
        <ele>124</ele>
        <time>2022-09-11T08:10:57Z</time>
      </trkpt>
      <trkpt lat="46.5115" lon="0.34955">
        <ele>124.6</ele>
        <time>2022-09-11T08:10:58Z</time>
      </trkpt>
      <trkpt lat="46.51151" lon="0.34949">
        <ele>125</ele>
        <time>2022-09-11T08:10:59Z</time>
      </trkpt>
      <trkpt lat="46.51151" lon="0.34935">
        <ele>125.6</ele>
        <time>2022-09-11T08:11:01Z</time>
      </trkpt>
      <trkpt lat="46.51151" lon="0.34935">
        <ele>126.6</ele>
        <time>2022-09-11T08:11:02Z</time>
      </trkpt>
      <trkpt lat="46.51149" lon="0.34921">
        <ele>126.6</ele>
        <time>2022-09-11T08:11:03Z</time>
      </trkpt>
      <trkpt lat="46.51148" lon="0.34902">
        <ele>127.6</ele>
        <time>2022-09-11T08:11:06Z</time>
      </trkpt>
      <trkpt lat="46.51148" lon="0.34895">
        <ele>127.8</ele>
        <time>2022-09-11T08:11:07Z</time>
      </trkpt>
      <trkpt lat="46.51148" lon="0.3489">
        <ele>128.2</ele>
        <time>2022-09-11T08:11:08Z</time>
      </trkpt>
      <trkpt lat="46.5115" lon="0.34885">
        <ele>128.6</ele>
        <time>2022-09-11T08:11:09Z</time>
      </trkpt>
      <trkpt lat="46.51153" lon="0.34882">
        <ele>129</ele>
        <time>2022-09-11T08:11:10Z</time>
      </trkpt>
      <trkpt lat="46.5116" lon="0.34879">
        <ele>129.2</ele>
        <time>2022-09-11T08:11:12Z</time>
      </trkpt>
      <trkpt lat="46.5118" lon="0.34869">
        <ele>130</ele>
        <time>2022-09-11T08:11:17Z</time>
      </trkpt>
      <trkpt lat="46.51184" lon="0.34866">
        <ele>130</ele>
        <time>2022-09-11T08:11:18Z</time>
      </trkpt>
      <trkpt lat="46.51209" lon="0.34849">
        <ele>130.2</ele>
        <time>2022-09-11T08:11:24Z</time>
      </trkpt>
      <trkpt lat="46.51219" lon="0.34847">
        <ele>130</ele>
        <time>2022-09-11T08:11:26Z</time>
      </trkpt>
      <trkpt lat="46.51229" lon="0.34847">
        <ele>129.8</ele>
        <time>2022-09-11T08:11:28Z</time>
      </trkpt>
      <trkpt lat="46.51239" lon="0.34851">
        <ele>129.4</ele>
        <time>2022-09-11T08:11:30Z</time>
      </trkpt>
      <trkpt lat="46.51258" lon="0.34861">
        <ele>129.2</ele>
        <time>2022-09-11T08:11:34Z</time>
      </trkpt>
      <trkpt lat="46.51261" lon="0.34865">
        <ele>129.2</ele>
        <time>2022-09-11T08:11:35Z</time>
      </trkpt>
      <trkpt lat="46.51268" lon="0.34879">
        <ele>128.8</ele>
        <time>2022-09-11T08:11:38Z</time>
      </trkpt>
      <trkpt lat="46.51275" lon="0.34891">
        <ele>128.4</ele>
        <time>2022-09-11T08:11:40Z</time>
      </trkpt>
      <trkpt lat="46.51282" lon="0.34903">
        <ele>127.2</ele>
        <time>2022-09-11T08:11:42Z</time>
      </trkpt>
      <trkpt lat="46.51287" lon="0.34911">
        <ele>125.8</ele>
        <time>2022-09-11T08:11:44Z</time>
      </trkpt>
      <trkpt lat="46.51288" lon="0.34914">
        <ele>124.8</ele>
        <time>2022-09-11T08:11:45Z</time>
      </trkpt>
      <trkpt lat="46.51292" lon="0.34917">
        <ele>123.2</ele>
        <time>2022-09-11T08:11:47Z</time>
      </trkpt>
      <trkpt lat="46.51295" lon="0.34914">
        <ele>122.6</ele>
        <time>2022-09-11T08:11:49Z</time>
      </trkpt>
      <trkpt lat="46.51295" lon="0.34911">
        <ele>122.6</ele>
        <time>2022-09-11T08:11:51Z</time>
      </trkpt>
      <trkpt lat="46.51294" lon="0.34907">
        <ele>122.8</ele>
        <time>2022-09-11T08:11:53Z</time>
      </trkpt>
      <trkpt lat="46.51292" lon="0.34904">
        <ele>123.2</ele>
        <time>2022-09-11T08:11:55Z</time>
      </trkpt>
      <trkpt lat="46.51294" lon="0.34897">
        <ele>124.2</ele>
        <time>2022-09-11T08:11:58Z</time>
      </trkpt>
      <trkpt lat="46.51295" lon="0.34895">
        <ele>124.6</ele>
        <time>2022-09-11T08:11:59Z</time>
      </trkpt>
      <trkpt lat="46.51296" lon="0.34893">
        <ele>125</ele>
        <time>2022-09-11T08:12:00Z</time>
      </trkpt>
      <trkpt lat="46.51297" lon="0.34885">
        <ele>125.8</ele>
        <time>2022-09-11T08:12:03Z</time>
      </trkpt>
      <trkpt lat="46.51297" lon="0.34882">
        <ele>125.8</ele>
        <time>2022-09-11T08:12:04Z</time>
      </trkpt>
      <trkpt lat="46.51298" lon="0.34875">
        <ele>126.2</ele>
        <time>2022-09-11T08:12:06Z</time>
      </trkpt>
      <trkpt lat="46.513" lon="0.34865">
        <ele>127</ele>
        <time>2022-09-11T08:12:09Z</time>
      </trkpt>
      <trkpt lat="46.513" lon="0.34843">
        <ele>128</ele>
        <time>2022-09-11T08:12:15Z</time>
      </trkpt>
      <trkpt lat="46.51301" lon="0.34841">
        <ele>128</ele>
        <time>2022-09-11T08:12:16Z</time>
      </trkpt>
      <trkpt lat="46.51302" lon="0.34839">
        <ele>128</ele>
        <time>2022-09-11T08:12:17Z</time>
      </trkpt>
      <trkpt lat="46.51307" lon="0.3483">
        <ele>128</ele>
        <time>2022-09-11T08:12:21Z</time>
      </trkpt>
      <trkpt lat="46.51308" lon="0.34828">
        <ele>128</ele>
        <time>2022-09-11T08:12:22Z</time>
      </trkpt>
      <trkpt lat="46.51309" lon="0.3483">
        <ele>128</ele>
        <time>2022-09-11T08:12:24Z</time>
      </trkpt>
      <trkpt lat="46.51309" lon="0.34831">
        <ele>128</ele>
        <time>2022-09-11T08:12:25Z</time>
      </trkpt>
      <trkpt lat="46.51312" lon="0.34834">
        <ele>127.2</ele>
        <time>2022-09-11T08:12:30Z</time>
      </trkpt>
      <trkpt lat="46.51316" lon="0.34834">
        <ele>127</ele>
        <time>2022-09-11T08:12:32Z</time>
      </trkpt>
      <trkpt lat="46.5132" lon="0.34829">
        <ele>127</ele>
        <time>2022-09-11T08:12:34Z</time>
      </trkpt>
      <trkpt lat="46.51327" lon="0.34825">
        <ele>126.8</ele>
        <time>2022-09-11T08:12:37Z</time>
      </trkpt>
      <trkpt lat="46.51329" lon="0.34825">
        <ele>126.8</ele>
        <time>2022-09-11T08:12:38Z</time>
      </trkpt>
      <trkpt lat="46.51341" lon="0.34831">
        <ele>126</ele>
        <time>2022-09-11T08:12:43Z</time>
      </trkpt>
      <trkpt lat="46.51344" lon="0.34832">
        <ele>125.6</ele>
        <time>2022-09-11T08:12:44Z</time>
      </trkpt>
      <trkpt lat="46.51348" lon="0.34835">
        <ele>125.4</ele>
        <time>2022-09-11T08:12:45Z</time>
      </trkpt>
      <trkpt lat="46.51356" lon="0.34841">
        <ele>124.4</ele>
        <time>2022-09-11T08:12:48Z</time>
      </trkpt>
      <trkpt lat="46.51359" lon="0.34841">
        <ele>123</ele>
        <time>2022-09-11T08:12:49Z</time>
      </trkpt>
      <trkpt lat="46.5136" lon="0.34841">
        <ele>122.2</ele>
        <time>2022-09-11T08:12:50Z</time>
      </trkpt>
      <trkpt lat="46.51363" lon="0.34841">
        <ele>121.4</ele>
        <time>2022-09-11T08:12:51Z</time>
      </trkpt>
      <trkpt lat="46.51367" lon="0.34841">
        <ele>120.6</ele>
        <time>2022-09-11T08:12:52Z</time>
      </trkpt>
      <trkpt lat="46.5137" lon="0.34839">
        <ele>120</ele>
        <time>2022-09-11T08:12:53Z</time>
      </trkpt>
      <trkpt lat="46.51378" lon="0.34832">
        <ele>119.2</ele>
        <time>2022-09-11T08:12:57Z</time>
      </trkpt>
      <trkpt lat="46.51379" lon="0.3483">
        <ele>119.4</ele>
        <time>2022-09-11T08:12:58Z</time>
      </trkpt>
      <trkpt lat="46.51382" lon="0.34825">
        <ele>121</ele>
        <time>2022-09-11T08:13:02Z</time>
      </trkpt>
      <trkpt lat="46.51386" lon="0.34823">
        <ele>121.4</ele>
        <time>2022-09-11T08:13:05Z</time>
      </trkpt>
      <trkpt lat="46.51387" lon="0.34823">
        <ele>121.4</ele>
        <time>2022-09-11T08:13:06Z</time>
      </trkpt>
      <trkpt lat="46.5139" lon="0.34822">
        <ele>120.8</ele>
        <time>2022-09-11T08:13:08Z</time>
      </trkpt>
      <trkpt lat="46.51394" lon="0.34819">
        <ele>120.2</ele>
        <time>2022-09-11T08:13:10Z</time>
      </trkpt>
      <trkpt lat="46.51396" lon="0.34817">
        <ele>120</ele>
        <time>2022-09-11T08:13:11Z</time>
      </trkpt>
      <trkpt lat="46.51401" lon="0.34804">
        <ele>120</ele>
        <time>2022-09-11T08:13:16Z</time>
      </trkpt>
      <trkpt lat="46.5141" lon="0.34782">
        <ele>119</ele>
        <time>2022-09-11T08:13:22Z</time>
      </trkpt>
      <trkpt lat="46.5141" lon="0.34778">
        <ele>118.6</ele>
        <time>2022-09-11T08:13:23Z</time>
      </trkpt>
      <trkpt lat="46.51411" lon="0.34769">
        <ele>118</ele>
        <time>2022-09-11T08:13:26Z</time>
      </trkpt>
      <trkpt lat="46.51414" lon="0.34761">
        <ele>117.6</ele>
        <time>2022-09-11T08:13:29Z</time>
      </trkpt>
      <trkpt lat="46.51416" lon="0.34757">
        <ele>117.2</ele>
        <time>2022-09-11T08:13:31Z</time>
      </trkpt>
      <trkpt lat="46.51419" lon="0.34752">
        <ele>116.2</ele>
        <time>2022-09-11T08:13:33Z</time>
      </trkpt>
      <trkpt lat="46.51423" lon="0.34741">
        <ele>115.2</ele>
        <time>2022-09-11T08:13:36Z</time>
      </trkpt>
      <trkpt lat="46.51423" lon="0.34738">
        <ele>114.8</ele>
        <time>2022-09-11T08:13:37Z</time>
      </trkpt>
      <trkpt lat="46.51426" lon="0.3473">
        <ele>115</ele>
        <time>2022-09-11T08:13:42Z</time>
      </trkpt>
      <trkpt lat="46.51428" lon="0.34723">
        <ele>116.2</ele>
        <time>2022-09-11T08:13:47Z</time>
      </trkpt>
      <trkpt lat="46.51428" lon="0.34719">
        <ele>116.6</ele>
        <time>2022-09-11T08:13:50Z</time>
      </trkpt>
      <trkpt lat="46.51428" lon="0.34715">
        <ele>116.6</ele>
        <time>2022-09-11T08:13:53Z</time>
      </trkpt>
      <trkpt lat="46.51431" lon="0.34704">
        <ele>117.2</ele>
        <time>2022-09-11T08:14:01Z</time>
      </trkpt>
      <trkpt lat="46.51432" lon="0.34701">
        <ele>117.6</ele>
        <time>2022-09-11T08:14:04Z</time>
      </trkpt>
      <trkpt lat="46.51433" lon="0.34698">
        <ele>117.6</ele>
        <time>2022-09-11T08:14:09Z</time>
      </trkpt>
      <trkpt lat="46.51434" lon="0.34694">
        <ele>116.2</ele>
        <time>2022-09-11T08:14:15Z</time>
      </trkpt>
      <trkpt lat="46.51435" lon="0.34692">
        <ele>115.8</ele>
        <time>2022-09-11T08:14:18Z</time>
      </trkpt>
      <trkpt lat="46.51439" lon="0.34687">
        <ele>115.2</ele>
        <time>2022-09-11T08:14:22Z</time>
      </trkpt>
      <trkpt lat="46.51442" lon="0.34682">
        <ele>115</ele>
        <time>2022-09-11T08:14:25Z</time>
      </trkpt>
      <trkpt lat="46.51444" lon="0.3468">
        <ele>115</ele>
        <time>2022-09-11T08:14:26Z</time>
      </trkpt>
      <trkpt lat="46.51453" lon="0.34667">
        <ele>114.8</ele>
        <time>2022-09-11T08:14:35Z</time>
      </trkpt>
      <trkpt lat="46.51455" lon="0.34665">
        <ele>114.2</ele>
        <time>2022-09-11T08:14:36Z</time>
      </trkpt>
      <trkpt lat="46.51457" lon="0.34663">
        <ele>113.2</ele>
        <time>2022-09-11T08:14:37Z</time>
      </trkpt>
      <trkpt lat="46.5146" lon="0.34659">
        <ele>111.8</ele>
        <time>2022-09-11T08:14:38Z</time>
      </trkpt>
      <trkpt lat="46.51461" lon="0.34655">
        <ele>110.4</ele>
        <time>2022-09-11T08:14:39Z</time>
      </trkpt>
      <trkpt lat="46.51462" lon="0.34652">
        <ele>109.8</ele>
        <time>2022-09-11T08:14:40Z</time>
      </trkpt>
      <trkpt lat="46.51463" lon="0.34648">
        <ele>109.2</ele>
        <time>2022-09-11T08:14:41Z</time>
      </trkpt>
      <trkpt lat="46.51465" lon="0.34644">
        <ele>108.6</ele>
        <time>2022-09-11T08:14:43Z</time>
      </trkpt>
      <trkpt lat="46.51466" lon="0.34642">
        <ele>108.4</ele>
        <time>2022-09-11T08:14:45Z</time>
      </trkpt>
      <trkpt lat="46.51472" lon="0.34627">
        <ele>108.2</ele>
        <time>2022-09-11T08:14:51Z</time>
      </trkpt>
      <trkpt lat="46.51478" lon="0.34611">
        <ele>108.2</ele>
        <time>2022-09-11T08:14:57Z</time>
      </trkpt>
      <trkpt lat="46.51479" lon="0.34607">
        <ele>108.2</ele>
        <time>2022-09-11T08:14:58Z</time>
      </trkpt>
      <trkpt lat="46.51489" lon="0.34579">
        <ele>107.2</ele>
        <time>2022-09-11T08:15:03Z</time>
      </trkpt>
      <trkpt lat="46.51491" lon="0.34566">
        <ele>107</ele>
        <time>2022-09-11T08:15:05Z</time>
      </trkpt>
      <trkpt lat="46.51496" lon="0.34552">
        <ele>107</ele>
        <time>2022-09-11T08:15:08Z</time>
      </trkpt>
      <trkpt lat="46.51502" lon="0.34533">
        <ele>107.6</ele>
        <time>2022-09-11T08:15:13Z</time>
      </trkpt>
      <trkpt lat="46.51502" lon="0.3453">
        <ele>107.6</ele>
        <time>2022-09-11T08:15:14Z</time>
      </trkpt>
      <trkpt lat="46.51501" lon="0.34527">
        <ele>107.6</ele>
        <time>2022-09-11T08:15:15Z</time>
      </trkpt>
      <trkpt lat="46.51496" lon="0.34521">
        <ele>108.2</ele>
        <time>2022-09-11T08:15:18Z</time>
      </trkpt>
      <trkpt lat="46.51489" lon="0.34515">
        <ele>109.8</ele>
        <time>2022-09-11T08:15:21Z</time>
      </trkpt>
      <trkpt lat="46.51482" lon="0.34512">
        <ele>111</ele>
        <time>2022-09-11T08:15:24Z</time>
      </trkpt>
      <trkpt lat="46.51473" lon="0.34508">
        <ele>112.4</ele>
        <time>2022-09-11T08:15:27Z</time>
      </trkpt>
      <trkpt lat="46.51464" lon="0.34507">
        <ele>113.4</ele>
        <time>2022-09-11T08:15:30Z</time>
      </trkpt>
      <trkpt lat="46.51462" lon="0.34507">
        <ele>113.8</ele>
        <time>2022-09-11T08:15:31Z</time>
      </trkpt>
      <trkpt lat="46.5145" lon="0.34506">
        <ele>114.8</ele>
        <time>2022-09-11T08:15:35Z</time>
      </trkpt>
      <trkpt lat="46.51444" lon="0.34505">
        <ele>115.4</ele>
        <time>2022-09-11T08:15:37Z</time>
      </trkpt>
      <trkpt lat="46.51437" lon="0.34503">
        <ele>116</ele>
        <time>2022-09-11T08:15:39Z</time>
      </trkpt>
      <trkpt lat="46.51427" lon="0.34503">
        <ele>117.2</ele>
        <time>2022-09-11T08:15:42Z</time>
      </trkpt>
      <trkpt lat="46.51415" lon="0.34505">
        <ele>118</ele>
        <time>2022-09-11T08:15:46Z</time>
      </trkpt>
      <trkpt lat="46.51413" lon="0.34507">
        <ele>118.4</ele>
        <time>2022-09-11T08:15:47Z</time>
      </trkpt>
      <trkpt lat="46.51407" lon="0.34514">
        <ele>119.8</ele>
        <time>2022-09-11T08:15:51Z</time>
      </trkpt>
      <trkpt lat="46.51401" lon="0.34518">
        <ele>121</ele>
        <time>2022-09-11T08:15:54Z</time>
      </trkpt>
      <trkpt lat="46.51397" lon="0.34521">
        <ele>122</ele>
        <time>2022-09-11T08:15:56Z</time>
      </trkpt>
      <trkpt lat="46.51393" lon="0.34526">
        <ele>122.2</ele>
        <time>2022-09-11T08:15:58Z</time>
      </trkpt>
      <trkpt lat="46.51382" lon="0.34536">
        <ele>123</ele>
        <time>2022-09-11T08:16:02Z</time>
      </trkpt>
      <trkpt lat="46.5138" lon="0.34538">
        <ele>123.4</ele>
        <time>2022-09-11T08:16:04Z</time>
      </trkpt>
      <trkpt lat="46.51369" lon="0.34545">
        <ele>124.2</ele>
        <time>2022-09-11T08:16:07Z</time>
      </trkpt>
      <trkpt lat="46.51357" lon="0.34551">
        <ele>125.2</ele>
        <time>2022-09-11T08:16:11Z</time>
      </trkpt>
      <trkpt lat="46.51354" lon="0.34553">
        <ele>125.4</ele>
        <time>2022-09-11T08:16:12Z</time>
      </trkpt>
      <trkpt lat="46.51332" lon="0.34563">
        <ele>126</ele>
        <time>2022-09-11T08:16:19Z</time>
      </trkpt>
      <trkpt lat="46.51324" lon="0.3457">
        <ele>126.4</ele>
        <time>2022-09-11T08:16:22Z</time>
      </trkpt>
      <trkpt lat="46.5132" lon="0.34574">
        <ele>126.4</ele>
        <time>2022-09-11T08:16:24Z</time>
      </trkpt>
      <trkpt lat="46.51306" lon="0.34587">
        <ele>127.6</ele>
        <time>2022-09-11T08:16:29Z</time>
      </trkpt>
      <trkpt lat="46.51303" lon="0.3459">
        <ele>127.8</ele>
        <time>2022-09-11T08:16:30Z</time>
      </trkpt>
      <trkpt lat="46.51281" lon="0.34606">
        <ele>128.4</ele>
        <time>2022-09-11T08:16:37Z</time>
      </trkpt>
      <trkpt lat="46.51273" lon="0.34608">
        <ele>128.6</ele>
        <time>2022-09-11T08:16:39Z</time>
      </trkpt>
      <trkpt lat="46.5126" lon="0.34607">
        <ele>129</ele>
        <time>2022-09-11T08:16:43Z</time>
      </trkpt>
      <trkpt lat="46.51234" lon="0.34602">
        <ele>129.8</ele>
        <time>2022-09-11T08:16:50Z</time>
      </trkpt>
      <trkpt lat="46.51211" lon="0.34604">
        <ele>130.6</ele>
        <time>2022-09-11T08:16:56Z</time>
      </trkpt>
      <trkpt lat="46.51207" lon="0.34605">
        <ele>130.8</ele>
        <time>2022-09-11T08:16:57Z</time>
      </trkpt>
      <trkpt lat="46.51196" lon="0.34608">
        <ele>131</ele>
        <time>2022-09-11T08:17:00Z</time>
      </trkpt>
      <trkpt lat="46.5119" lon="0.34606">
        <ele>131</ele>
        <time>2022-09-11T08:17:02Z</time>
      </trkpt>
      <trkpt lat="46.51187" lon="0.34592">
        <ele>131</ele>
        <time>2022-09-11T08:17:05Z</time>
      </trkpt>
      <trkpt lat="46.51191" lon="0.34561">
        <ele>130.8</ele>
        <time>2022-09-11T08:17:10Z</time>
      </trkpt>
      <trkpt lat="46.51191" lon="0.34553">
        <ele>130.8</ele>
        <time>2022-09-11T08:17:11Z</time>
      </trkpt>
      <trkpt lat="46.51191" lon="0.34529">
        <ele>130.4</ele>
        <time>2022-09-11T08:17:14Z</time>
      </trkpt>
      <trkpt lat="46.51189" lon="0.34504">
        <ele>130.2</ele>
        <time>2022-09-11T08:17:17Z</time>
      </trkpt>
      <trkpt lat="46.5118" lon="0.34454">
        <ele>130.2</ele>
        <time>2022-09-11T08:17:24Z</time>
      </trkpt>
      <trkpt lat="46.51163" lon="0.3438">
        <ele>131</ele>
        <time>2022-09-11T08:17:34Z</time>
      </trkpt>
      <trkpt lat="46.51157" lon="0.34344">
        <ele>131.2</ele>
        <time>2022-09-11T08:17:39Z</time>
      </trkpt>
      <trkpt lat="46.51156" lon="0.34329">
        <ele>131.4</ele>
        <time>2022-09-11T08:17:41Z</time>
      </trkpt>
      <trkpt lat="46.51158" lon="0.34315">
        <ele>131.6</ele>
        <time>2022-09-11T08:17:43Z</time>
      </trkpt>
      <trkpt lat="46.51162" lon="0.34294">
        <ele>131.8</ele>
        <time>2022-09-11T08:17:46Z</time>
      </trkpt>
      <trkpt lat="46.51174" lon="0.34259">
        <ele>132</ele>
        <time>2022-09-11T08:17:52Z</time>
      </trkpt>
      <trkpt lat="46.51179" lon="0.34241">
        <ele>132.2</ele>
        <time>2022-09-11T08:17:55Z</time>
      </trkpt>
      <trkpt lat="46.51183" lon="0.34231">
        <ele>132.2</ele>
        <time>2022-09-11T08:17:57Z</time>
      </trkpt>
      <trkpt lat="46.51186" lon="0.3421">
        <ele>131.8</ele>
        <time>2022-09-11T08:18:01Z</time>
      </trkpt>
      <trkpt lat="46.51191" lon="0.34184">
        <ele>132.6</ele>
        <time>2022-09-11T08:18:06Z</time>
      </trkpt>
      <trkpt lat="46.51192" lon="0.34181">
        <ele>132.6</ele>
        <time>2022-09-11T08:18:07Z</time>
      </trkpt>
      <trkpt lat="46.51199" lon="0.34175">
        <ele>131.6</ele>
        <time>2022-09-11T08:18:11Z</time>
      </trkpt>
      <trkpt lat="46.51205" lon="0.3417">
        <ele>130.6</ele>
        <time>2022-09-11T08:18:13Z</time>
      </trkpt>
      <trkpt lat="46.51207" lon="0.34167">
        <ele>130</ele>
        <time>2022-09-11T08:18:14Z</time>
      </trkpt>
      <trkpt lat="46.51209" lon="0.34165">
        <ele>129.8</ele>
        <time>2022-09-11T08:18:15Z</time>
      </trkpt>
      <trkpt lat="46.51212" lon="0.34164">
        <ele>129.6</ele>
        <time>2022-09-11T08:18:16Z</time>
      </trkpt>
      <trkpt lat="46.51217" lon="0.34161">
        <ele>129</ele>
        <time>2022-09-11T08:18:19Z</time>
      </trkpt>
      <trkpt lat="46.51218" lon="0.34159">
        <ele>128.6</ele>
        <time>2022-09-11T08:18:20Z</time>
      </trkpt>
      <trkpt lat="46.51218" lon="0.34156">
        <ele>128.2</ele>
        <time>2022-09-11T08:18:21Z</time>
      </trkpt>
      <trkpt lat="46.51219" lon="0.34153">
        <ele>127.8</ele>
        <time>2022-09-11T08:18:23Z</time>
      </trkpt>
      <trkpt lat="46.51219" lon="0.34151">
        <ele>127.2</ele>
        <time>2022-09-11T08:18:24Z</time>
      </trkpt>
      <trkpt lat="46.5122" lon="0.34148">
        <ele>125.8</ele>
        <time>2022-09-11T08:18:26Z</time>
      </trkpt>
      <trkpt lat="46.51223" lon="0.34144">
        <ele>124.4</ele>
        <time>2022-09-11T08:18:29Z</time>
      </trkpt>
      <trkpt lat="46.51229" lon="0.3414">
        <ele>122.8</ele>
        <time>2022-09-11T08:18:33Z</time>
      </trkpt>
      <trkpt lat="46.5123" lon="0.34139">
        <ele>121.8</ele>
        <time>2022-09-11T08:18:34Z</time>
      </trkpt>
      <trkpt lat="46.51231" lon="0.34138">
        <ele>120.8</ele>
        <time>2022-09-11T08:18:35Z</time>
      </trkpt>
      <trkpt lat="46.51234" lon="0.34137">
        <ele>119.6</ele>
        <time>2022-09-11T08:18:37Z</time>
      </trkpt>
      <trkpt lat="46.51236" lon="0.34136">
        <ele>118.2</ele>
        <time>2022-09-11T08:18:39Z</time>
      </trkpt>
      <trkpt lat="46.51239" lon="0.34136">
        <ele>117</ele>
        <time>2022-09-11T08:18:41Z</time>
      </trkpt>
      <trkpt lat="46.5124" lon="0.34136">
        <ele>116.6</ele>
        <time>2022-09-11T08:18:42Z</time>
      </trkpt>
      <trkpt lat="46.51242" lon="0.34136">
        <ele>116</ele>
        <time>2022-09-11T08:18:44Z</time>
      </trkpt>
      <trkpt lat="46.51244" lon="0.34135">
        <ele>115</ele>
        <time>2022-09-11T08:18:46Z</time>
      </trkpt>
      <trkpt lat="46.51251" lon="0.34125">
        <ele>115</ele>
        <time>2022-09-11T08:18:57Z</time>
      </trkpt>
      <trkpt lat="46.51252" lon="0.34119">
        <ele>104</ele>
        <time>2022-09-11T08:18:59Z</time>
      </trkpt>
      <trkpt lat="46.51257" lon="0.34104">
        <ele>103.4</ele>
        <time>2022-09-11T08:19:03Z</time>
      </trkpt>
      <trkpt lat="46.51257" lon="0.341">
        <ele>102.8</ele>
        <time>2022-09-11T08:19:04Z</time>
      </trkpt>
      <trkpt lat="46.51257" lon="0.34094">
        <ele>101.6</ele>
        <time>2022-09-11T08:19:06Z</time>
      </trkpt>
      <trkpt lat="46.51256" lon="0.34088">
        <ele>101.2</ele>
        <time>2022-09-11T08:19:08Z</time>
      </trkpt>
      <trkpt lat="46.51255" lon="0.34082">
        <ele>100.6</ele>
        <time>2022-09-11T08:19:10Z</time>
      </trkpt>
      <trkpt lat="46.51256" lon="0.34079">
        <ele>100.4</ele>
        <time>2022-09-11T08:19:11Z</time>
      </trkpt>
      <trkpt lat="46.51256" lon="0.34075">
        <ele>99.8</ele>
        <time>2022-09-11T08:19:12Z</time>
      </trkpt>
      <trkpt lat="46.51256" lon="0.34072">
        <ele>98.8</ele>
        <time>2022-09-11T08:19:13Z</time>
      </trkpt>
      <trkpt lat="46.51256" lon="0.34065">
        <ele>97.4</ele>
        <time>2022-09-11T08:19:15Z</time>
      </trkpt>
      <trkpt lat="46.51255" lon="0.34055">
        <ele>96.2</ele>
        <time>2022-09-11T08:19:17Z</time>
      </trkpt>
      <trkpt lat="46.51256" lon="0.3405">
        <ele>95.6</ele>
        <time>2022-09-11T08:19:18Z</time>
      </trkpt>
      <trkpt lat="46.51254" lon="0.34035">
        <ele>94</ele>
        <time>2022-09-11T08:19:20Z</time>
      </trkpt>
      <trkpt lat="46.51254" lon="0.34029">
        <ele>92.4</ele>
        <time>2022-09-11T08:19:21Z</time>
      </trkpt>
      <trkpt lat="46.51255" lon="0.34022">
        <ele>91</ele>
        <time>2022-09-11T08:19:22Z</time>
      </trkpt>
      <trkpt lat="46.51256" lon="0.34016">
        <ele>90</ele>
        <time>2022-09-11T08:19:23Z</time>
      </trkpt>
      <trkpt lat="46.51257" lon="0.34011">
        <ele>88.6</ele>
        <time>2022-09-11T08:19:24Z</time>
      </trkpt>
      <trkpt lat="46.51257" lon="0.34003">
        <ele>87.6</ele>
        <time>2022-09-11T08:19:25Z</time>
      </trkpt>
      <trkpt lat="46.51258" lon="0.34001">
        <ele>86.6</ele>
        <time>2022-09-11T08:19:26Z</time>
      </trkpt>
      <trkpt lat="46.5126" lon="0.34001">
        <ele>86</ele>
        <time>2022-09-11T08:19:27Z</time>
      </trkpt>
      <trkpt lat="46.51263" lon="0.34003">
        <ele>85.4</ele>
        <time>2022-09-11T08:19:29Z</time>
      </trkpt>
      <trkpt lat="46.51273" lon="0.34012">
        <ele>85.2</ele>
        <time>2022-09-11T08:19:33Z</time>
      </trkpt>
      <trkpt lat="46.51287" lon="0.34021">
        <ele>85.6</ele>
        <time>2022-09-11T08:19:38Z</time>
      </trkpt>
      <trkpt lat="46.51289" lon="0.34021">
        <ele>85.6</ele>
        <time>2022-09-11T08:19:39Z</time>
      </trkpt>
      <trkpt lat="46.51291" lon="0.34022">
        <ele>85.4</ele>
        <time>2022-09-11T08:19:40Z</time>
      </trkpt>
      <trkpt lat="46.51295" lon="0.34025">
        <ele>85</ele>
        <time>2022-09-11T08:19:44Z</time>
      </trkpt>
      <trkpt lat="46.51302" lon="0.34026">
        <ele>84.8</ele>
        <time>2022-09-11T08:19:49Z</time>
      </trkpt>
      <trkpt lat="46.51303" lon="0.34026">
        <ele>84.8</ele>
        <time>2022-09-11T08:19:50Z</time>
      </trkpt>
      <trkpt lat="46.51304" lon="0.34024">
        <ele>84.8</ele>
        <time>2022-09-11T08:19:52Z</time>
      </trkpt>
      <trkpt lat="46.51303" lon="0.34022">
        <ele>84.6</ele>
        <time>2022-09-11T08:19:54Z</time>
      </trkpt>
      <trkpt lat="46.51302" lon="0.34023">
        <ele>84.6</ele>
        <time>2022-09-11T08:19:56Z</time>
      </trkpt>
      <trkpt lat="46.51303" lon="0.34026">
        <ele>84.6</ele>
        <time>2022-09-11T08:19:58Z</time>
      </trkpt>
      <trkpt lat="46.51301" lon="0.34034">
        <ele>86.8</ele>
        <time>2022-09-11T08:20:04Z</time>
      </trkpt>
      <trkpt lat="46.513" lon="0.34036">
        <ele>87.8</ele>
        <time>2022-09-11T08:20:06Z</time>
      </trkpt>
      <trkpt lat="46.513" lon="0.34038">
        <ele>88.8</ele>
        <time>2022-09-11T08:20:08Z</time>
      </trkpt>
      <trkpt lat="46.513" lon="0.34039">
        <ele>89.4</ele>
        <time>2022-09-11T08:20:09Z</time>
      </trkpt>
      <trkpt lat="46.513" lon="0.34039">
        <ele>89.8</ele>
        <time>2022-09-11T08:20:10Z</time>
      </trkpt>
      <trkpt lat="46.513" lon="0.3404">
        <ele>90.6</ele>
        <time>2022-09-11T08:20:11Z</time>
      </trkpt>
      <trkpt lat="46.51301" lon="0.34041">
        <ele>91.2</ele>
        <time>2022-09-11T08:20:12Z</time>
      </trkpt>
      <trkpt lat="46.51301" lon="0.34043">
        <ele>91.8</ele>
        <time>2022-09-11T08:20:14Z</time>
      </trkpt>
      <trkpt lat="46.51303" lon="0.34052">
        <ele>92.8</ele>
        <time>2022-09-11T08:20:22Z</time>
      </trkpt>
      <trkpt lat="46.51302" lon="0.34056">
        <ele>93.8</ele>
        <time>2022-09-11T08:20:28Z</time>
      </trkpt>
      <trkpt lat="46.51305" lon="0.34063">
        <ele>94.4</ele>
        <time>2022-09-11T08:20:36Z</time>
      </trkpt>
      <trkpt lat="46.51308" lon="0.34067">
        <ele>94.4</ele>
        <time>2022-09-11T08:20:39Z</time>
      </trkpt>
      <trkpt lat="46.51314" lon="0.34079">
        <ele>94.8</ele>
        <time>2022-09-11T08:20:46Z</time>
      </trkpt>
      <trkpt lat="46.51315" lon="0.3408">
        <ele>95</ele>
        <time>2022-09-11T08:20:47Z</time>
      </trkpt>
      <trkpt lat="46.51321" lon="0.34087">
        <ele>96.2</ele>
        <time>2022-09-11T08:20:52Z</time>
      </trkpt>
      <trkpt lat="46.51327" lon="0.34094">
        <ele>96.8</ele>
        <time>2022-09-11T08:20:57Z</time>
      </trkpt>
      <trkpt lat="46.51333" lon="0.34101">
        <ele>97.4</ele>
        <time>2022-09-11T08:21:01Z</time>
      </trkpt>
      <trkpt lat="46.51343" lon="0.34109">
        <ele>98.4</ele>
        <time>2022-09-11T08:21:07Z</time>
      </trkpt>
      <trkpt lat="46.51345" lon="0.3411">
        <ele>98.4</ele>
        <time>2022-09-11T08:21:08Z</time>
      </trkpt>
      <trkpt lat="46.51361" lon="0.34117">
        <ele>97.2</ele>
        <time>2022-09-11T08:21:17Z</time>
      </trkpt>
      <trkpt lat="46.51364" lon="0.34116">
        <ele>97</ele>
        <time>2022-09-11T08:21:18Z</time>
      </trkpt>
      <trkpt lat="46.51371" lon="0.34116">
        <ele>96.2</ele>
        <time>2022-09-11T08:21:21Z</time>
      </trkpt>
      <trkpt lat="46.51379" lon="0.34116">
        <ele>95.4</ele>
        <time>2022-09-11T08:21:24Z</time>
      </trkpt>
      <trkpt lat="46.51383" lon="0.34114">
        <ele>94.2</ele>
        <time>2022-09-11T08:21:26Z</time>
      </trkpt>
      <trkpt lat="46.51389" lon="0.34114">
        <ele>93.2</ele>
        <time>2022-09-11T08:21:28Z</time>
      </trkpt>
      <trkpt lat="46.51391" lon="0.34114">
        <ele>92.8</ele>
        <time>2022-09-11T08:21:29Z</time>
      </trkpt>
      <trkpt lat="46.51396" lon="0.34115">
        <ele>92.2</ele>
        <time>2022-09-11T08:21:31Z</time>
      </trkpt>
      <trkpt lat="46.51401" lon="0.34114">
        <ele>91.8</ele>
        <time>2022-09-11T08:21:32Z</time>
      </trkpt>
      <trkpt lat="46.51411" lon="0.34113">
        <ele>91.4</ele>
        <time>2022-09-11T08:21:34Z</time>
      </trkpt>
      <trkpt lat="46.51416" lon="0.34112">
        <ele>91.2</ele>
        <time>2022-09-11T08:21:35Z</time>
      </trkpt>
      <trkpt lat="46.51424" lon="0.34109">
        <ele>90.4</ele>
        <time>2022-09-11T08:21:37Z</time>
      </trkpt>
      <trkpt lat="46.51436" lon="0.34105">
        <ele>89</ele>
        <time>2022-09-11T08:21:39Z</time>
      </trkpt>
      <trkpt lat="46.51447" lon="0.34099">
        <ele>88.2</ele>
        <time>2022-09-11T08:21:41Z</time>
      </trkpt>
      <trkpt lat="46.51454" lon="0.34098">
        <ele>87.4</ele>
        <time>2022-09-11T08:21:42Z</time>
      </trkpt>
      <trkpt lat="46.51461" lon="0.34097">
        <ele>87</ele>
        <time>2022-09-11T08:21:43Z</time>
      </trkpt>
      <trkpt lat="46.51469" lon="0.34096">
        <ele>86.4</ele>
        <time>2022-09-11T08:21:44Z</time>
      </trkpt>
      <trkpt lat="46.51482" lon="0.34099">
        <ele>85</ele>
        <time>2022-09-11T08:21:46Z</time>
      </trkpt>
      <trkpt lat="46.51489" lon="0.34102">
        <ele>84.8</ele>
        <time>2022-09-11T08:21:47Z</time>
      </trkpt>
      <trkpt lat="46.51502" lon="0.34107">
        <ele>83.6</ele>
        <time>2022-09-11T08:21:49Z</time>
      </trkpt>
      <trkpt lat="46.51524" lon="0.34116">
        <ele>82.4</ele>
        <time>2022-09-11T08:21:53Z</time>
      </trkpt>
      <trkpt lat="46.51529" lon="0.34118">
        <ele>82.6</ele>
        <time>2022-09-11T08:21:54Z</time>
      </trkpt>
      <trkpt lat="46.51545" lon="0.34121">
        <ele>82.6</ele>
        <time>2022-09-11T08:21:57Z</time>
      </trkpt>
      <trkpt lat="46.5155" lon="0.34121">
        <ele>82.6</ele>
        <time>2022-09-11T08:21:58Z</time>
      </trkpt>
      <trkpt lat="46.51578" lon="0.34126">
        <ele>82.6</ele>
        <time>2022-09-11T08:22:03Z</time>
      </trkpt>
      <trkpt lat="46.51584" lon="0.34126">
        <ele>82.6</ele>
        <time>2022-09-11T08:22:04Z</time>
      </trkpt>
      <trkpt lat="46.51589" lon="0.34126">
        <ele>82.6</ele>
        <time>2022-09-11T08:22:05Z</time>
      </trkpt>
      <trkpt lat="46.516" lon="0.34127">
        <ele>82.4</ele>
        <time>2022-09-11T08:22:07Z</time>
      </trkpt>
      <trkpt lat="46.51605" lon="0.3413">
        <ele>82.4</ele>
        <time>2022-09-11T08:22:08Z</time>
      </trkpt>
      <trkpt lat="46.51614" lon="0.34136">
        <ele>82.4</ele>
        <time>2022-09-11T08:22:10Z</time>
      </trkpt>
      <trkpt lat="46.51629" lon="0.34146">
        <ele>82.2</ele>
        <time>2022-09-11T08:22:13Z</time>
      </trkpt>
      <trkpt lat="46.51632" lon="0.34151">
        <ele>82.2</ele>
        <time>2022-09-11T08:22:14Z</time>
      </trkpt>
      <trkpt lat="46.51634" lon="0.34157">
        <ele>82.6</ele>
        <time>2022-09-11T08:22:15Z</time>
      </trkpt>
      <trkpt lat="46.51635" lon="0.34168">
        <ele>82.4</ele>
        <time>2022-09-11T08:22:17Z</time>
      </trkpt>
      <trkpt lat="46.51636" lon="0.34179">
        <ele>84</ele>
        <time>2022-09-11T08:22:20Z</time>
      </trkpt>
      <trkpt lat="46.51636" lon="0.34183">
        <ele>84.8</ele>
        <time>2022-09-11T08:22:22Z</time>
      </trkpt>
      <trkpt lat="46.51637" lon="0.34185">
        <ele>85.2</ele>
        <time>2022-09-11T08:22:23Z</time>
      </trkpt>
      <trkpt lat="46.5164" lon="0.34192">
        <ele>86.8</ele>
        <time>2022-09-11T08:22:26Z</time>
      </trkpt>
      <trkpt lat="46.51641" lon="0.34196">
        <ele>87.6</ele>
        <time>2022-09-11T08:22:28Z</time>
      </trkpt>
      <trkpt lat="46.51643" lon="0.34198">
        <ele>87.8</ele>
        <time>2022-09-11T08:22:29Z</time>
      </trkpt>
      <trkpt lat="46.51655" lon="0.34205">
        <ele>88.2</ele>
        <time>2022-09-11T08:22:33Z</time>
      </trkpt>
      <trkpt lat="46.51678" lon="0.34209">
        <ele>86.8</ele>
        <time>2022-09-11T08:22:39Z</time>
      </trkpt>
      <trkpt lat="46.51688" lon="0.34202">
        <ele>86.4</ele>
        <time>2022-09-11T08:22:43Z</time>
      </trkpt>
      <trkpt lat="46.51705" lon="0.34172">
        <ele>85.6</ele>
        <time>2022-09-11T08:22:49Z</time>
      </trkpt>
      <trkpt lat="46.51722" lon="0.34131">
        <ele>85.4</ele>
        <time>2022-09-11T08:22:55Z</time>
      </trkpt>
      <trkpt lat="46.51732" lon="0.34086">
        <ele>84.6</ele>
        <time>2022-09-11T08:23:01Z</time>
      </trkpt>
      <trkpt lat="46.51733" lon="0.34079">
        <ele>84.4</ele>
        <time>2022-09-11T08:23:02Z</time>
      </trkpt>
      <trkpt lat="46.51732" lon="0.34065">
        <ele>84.2</ele>
        <time>2022-09-11T08:23:04Z</time>
      </trkpt>
      <trkpt lat="46.51732" lon="0.34051">
        <ele>84.2</ele>
        <time>2022-09-11T08:23:06Z</time>
      </trkpt>
      <trkpt lat="46.51738" lon="0.34039">
        <ele>84.2</ele>
        <time>2022-09-11T08:23:08Z</time>
      </trkpt>
      <trkpt lat="46.51741" lon="0.34035">
        <ele>84.2</ele>
        <time>2022-09-11T08:23:09Z</time>
      </trkpt>
      <trkpt lat="46.51745" lon="0.34033">
        <ele>84</ele>
        <time>2022-09-11T08:23:10Z</time>
      </trkpt>
      <trkpt lat="46.51748" lon="0.34034">
        <ele>83.6</ele>
        <time>2022-09-11T08:23:11Z</time>
      </trkpt>
      <trkpt lat="46.51751" lon="0.34036">
        <ele>83.4</ele>
        <time>2022-09-11T08:23:12Z</time>
      </trkpt>
      <trkpt lat="46.51768" lon="0.34047">
        <ele>83.2</ele>
        <time>2022-09-11T08:23:16Z</time>
      </trkpt>
      <trkpt lat="46.5178" lon="0.34052">
        <ele>83.2</ele>
        <time>2022-09-11T08:23:18Z</time>
      </trkpt>
      <trkpt lat="46.51798" lon="0.34055">
        <ele>83.4</ele>
        <time>2022-09-11T08:23:21Z</time>
      </trkpt>
      <trkpt lat="46.51816" lon="0.34049">
        <ele>83.4</ele>
        <time>2022-09-11T08:23:24Z</time>
      </trkpt>
      <trkpt lat="46.51822" lon="0.34048">
        <ele>83.4</ele>
        <time>2022-09-11T08:23:25Z</time>
      </trkpt>
      <trkpt lat="46.51828" lon="0.34048">
        <ele>83.4</ele>
        <time>2022-09-11T08:23:26Z</time>
      </trkpt>
      <trkpt lat="46.51846" lon="0.34054">
        <ele>83.4</ele>
        <time>2022-09-11T08:23:29Z</time>
      </trkpt>
      <trkpt lat="46.51858" lon="0.3406">
        <ele>83.4</ele>
        <time>2022-09-11T08:23:31Z</time>
      </trkpt>
      <trkpt lat="46.51871" lon="0.34062">
        <ele>83.4</ele>
        <time>2022-09-11T08:23:33Z</time>
      </trkpt>
      <trkpt lat="46.51877" lon="0.34062">
        <ele>83.4</ele>
        <time>2022-09-11T08:23:34Z</time>
      </trkpt>
      <trkpt lat="46.51896" lon="0.34057">
        <ele>83.4</ele>
        <time>2022-09-11T08:23:37Z</time>
      </trkpt>
      <trkpt lat="46.51914" lon="0.34052">
        <ele>83.2</ele>
        <time>2022-09-11T08:23:40Z</time>
      </trkpt>
      <trkpt lat="46.51926" lon="0.34049">
        <ele>83.2</ele>
        <time>2022-09-11T08:23:42Z</time>
      </trkpt>
      <trkpt lat="46.51931" lon="0.34046">
        <ele>83.2</ele>
        <time>2022-09-11T08:23:43Z</time>
      </trkpt>
      <trkpt lat="46.51941" lon="0.34042">
        <ele>83</ele>
        <time>2022-09-11T08:23:45Z</time>
      </trkpt>
      <trkpt lat="46.51946" lon="0.34041">
        <ele>83</ele>
        <time>2022-09-11T08:23:46Z</time>
      </trkpt>
      <trkpt lat="46.51957" lon="0.34038">
        <ele>82.6</ele>
        <time>2022-09-11T08:23:48Z</time>
      </trkpt>
      <trkpt lat="46.51967" lon="0.34034">
        <ele>82.4</ele>
        <time>2022-09-11T08:23:50Z</time>
      </trkpt>
      <trkpt lat="46.51976" lon="0.3402">
        <ele>82.4</ele>
        <time>2022-09-11T08:23:53Z</time>
      </trkpt>
      <trkpt lat="46.51977" lon="0.34007">
        <ele>82.4</ele>
        <time>2022-09-11T08:23:55Z</time>
      </trkpt>
      <trkpt lat="46.51975" lon="0.33993">
        <ele>82.4</ele>
        <time>2022-09-11T08:23:57Z</time>
      </trkpt>
      <trkpt lat="46.5197" lon="0.33958">
        <ele>82.6</ele>
        <time>2022-09-11T08:24:02Z</time>
      </trkpt>
      <trkpt lat="46.51971" lon="0.33945">
        <ele>82.6</ele>
        <time>2022-09-11T08:24:04Z</time>
      </trkpt>
      <trkpt lat="46.51977" lon="0.33896">
        <ele>82</ele>
        <time>2022-09-11T08:24:11Z</time>
      </trkpt>
      <trkpt lat="46.51975" lon="0.33851">
        <ele>82.4</ele>
        <time>2022-09-11T08:24:17Z</time>
      </trkpt>
      <trkpt lat="46.51975" lon="0.33813">
        <ele>82.2</ele>
        <time>2022-09-11T08:24:23Z</time>
      </trkpt>
      <trkpt lat="46.51979" lon="0.33794">
        <ele>82.2</ele>
        <time>2022-09-11T08:24:26Z</time>
      </trkpt>
      <trkpt lat="46.51985" lon="0.33776">
        <ele>82.2</ele>
        <time>2022-09-11T08:24:29Z</time>
      </trkpt>
      <trkpt lat="46.51999" lon="0.33741">
        <ele>82</ele>
        <time>2022-09-11T08:24:36Z</time>
      </trkpt>
      <trkpt lat="46.52003" lon="0.33735">
        <ele>82</ele>
        <time>2022-09-11T08:24:38Z</time>
      </trkpt>
      <trkpt lat="46.52007" lon="0.33733">
        <ele>82.2</ele>
        <time>2022-09-11T08:24:40Z</time>
      </trkpt>
      <trkpt lat="46.52025" lon="0.33734">
        <ele>82.6</ele>
        <time>2022-09-11T08:24:45Z</time>
      </trkpt>
      <trkpt lat="46.52051" lon="0.33739">
        <ele>82.4</ele>
        <time>2022-09-11T08:24:51Z</time>
      </trkpt>
      <trkpt lat="46.52059" lon="0.33739">
        <ele>82.4</ele>
        <time>2022-09-11T08:24:53Z</time>
      </trkpt>
      <trkpt lat="46.5206" lon="0.33741">
        <ele>82.6</ele>
        <time>2022-09-11T08:24:54Z</time>
      </trkpt>
      <trkpt lat="46.52061" lon="0.33743">
        <ele>82.6</ele>
        <time>2022-09-11T08:24:55Z</time>
      </trkpt>
      <trkpt lat="46.52062" lon="0.33754">
        <ele>83.4</ele>
        <time>2022-09-11T08:24:58Z</time>
      </trkpt>
      <trkpt lat="46.52062" lon="0.33759">
        <ele>83.6</ele>
        <time>2022-09-11T08:24:59Z</time>
      </trkpt>
      <trkpt lat="46.52058" lon="0.33791">
        <ele>83.6</ele>
        <time>2022-09-11T08:25:04Z</time>
      </trkpt>
      <trkpt lat="46.52058" lon="0.33798">
        <ele>83.6</ele>
        <time>2022-09-11T08:25:05Z</time>
      </trkpt>
      <trkpt lat="46.5206" lon="0.33822">
        <ele>83.6</ele>
        <time>2022-09-11T08:25:08Z</time>
      </trkpt>
      <trkpt lat="46.5207" lon="0.33888">
        <ele>83.6</ele>
        <time>2022-09-11T08:25:16Z</time>
      </trkpt>
      <trkpt lat="46.52082" lon="0.33936">
        <ele>83.6</ele>
        <time>2022-09-11T08:25:22Z</time>
      </trkpt>
      <trkpt lat="46.52084" lon="0.33944">
        <ele>83.8</ele>
        <time>2022-09-11T08:25:23Z</time>
      </trkpt>
      <trkpt lat="46.5209" lon="0.33955">
        <ele>83.4</ele>
        <time>2022-09-11T08:25:25Z</time>
      </trkpt>
      <trkpt lat="46.52093" lon="0.33958">
        <ele>83.2</ele>
        <time>2022-09-11T08:25:26Z</time>
      </trkpt>
      <trkpt lat="46.52097" lon="0.33961">
        <ele>83.2</ele>
        <time>2022-09-11T08:25:27Z</time>
      </trkpt>
      <trkpt lat="46.52119" lon="0.3397">
        <ele>83.2</ele>
        <time>2022-09-11T08:25:31Z</time>
      </trkpt>
      <trkpt lat="46.52148" lon="0.33978">
        <ele>83.4</ele>
        <time>2022-09-11T08:25:36Z</time>
      </trkpt>
      <trkpt lat="46.5216" lon="0.33979">
        <ele>83.4</ele>
        <time>2022-09-11T08:25:38Z</time>
      </trkpt>
      <trkpt lat="46.52176" lon="0.33976">
        <ele>83</ele>
        <time>2022-09-11T08:25:41Z</time>
      </trkpt>
      <trkpt lat="46.52215" lon="0.33969">
        <ele>83.2</ele>
        <time>2022-09-11T08:25:47Z</time>
      </trkpt>
      <trkpt lat="46.52246" lon="0.33945">
        <ele>83</ele>
        <time>2022-09-11T08:25:52Z</time>
      </trkpt>
      <trkpt lat="46.52294" lon="0.33909">
        <ele>83.8</ele>
        <time>2022-09-11T08:26:00Z</time>
      </trkpt>
      <trkpt lat="46.5233" lon="0.33884">
        <ele>84.2</ele>
        <time>2022-09-11T08:26:06Z</time>
      </trkpt>
      <trkpt lat="46.52386" lon="0.33846">
        <ele>83.6</ele>
        <time>2022-09-11T08:26:15Z</time>
      </trkpt>
      <trkpt lat="46.52421" lon="0.33817">
        <ele>83.2</ele>
        <time>2022-09-11T08:26:21Z</time>
      </trkpt>
      <trkpt lat="46.52442" lon="0.33794">
        <ele>82.8</ele>
        <time>2022-09-11T08:26:25Z</time>
      </trkpt>
      <trkpt lat="46.52458" lon="0.33775">
        <ele>82.6</ele>
        <time>2022-09-11T08:26:28Z</time>
      </trkpt>
      <trkpt lat="46.52463" lon="0.33769">
        <ele>82.2</ele>
        <time>2022-09-11T08:26:29Z</time>
      </trkpt>
      <trkpt lat="46.52493" lon="0.33731">
        <ele>82.2</ele>
        <time>2022-09-11T08:26:35Z</time>
      </trkpt>
      <trkpt lat="46.52507" lon="0.33695">
        <ele>82.6</ele>
        <time>2022-09-11T08:26:40Z</time>
      </trkpt>
      <trkpt lat="46.52507" lon="0.3368">
        <ele>83.2</ele>
        <time>2022-09-11T08:26:42Z</time>
      </trkpt>
      <trkpt lat="46.52507" lon="0.33674">
        <ele>83.4</ele>
        <time>2022-09-11T08:26:43Z</time>
      </trkpt>
      <trkpt lat="46.52507" lon="0.33668">
        <ele>84</ele>
        <time>2022-09-11T08:26:44Z</time>
      </trkpt>
      <trkpt lat="46.52508" lon="0.33662">
        <ele>84.6</ele>
        <time>2022-09-11T08:26:45Z</time>
      </trkpt>
      <trkpt lat="46.52509" lon="0.33657">
        <ele>85</ele>
        <time>2022-09-11T08:26:46Z</time>
      </trkpt>
      <trkpt lat="46.52511" lon="0.33652">
        <ele>85.4</ele>
        <time>2022-09-11T08:26:47Z</time>
      </trkpt>
      <trkpt lat="46.52514" lon="0.33645">
        <ele>85.8</ele>
        <time>2022-09-11T08:26:49Z</time>
      </trkpt>
      <trkpt lat="46.52521" lon="0.3363">
        <ele>87</ele>
        <time>2022-09-11T08:26:53Z</time>
      </trkpt>
      <trkpt lat="46.52523" lon="0.33626">
        <ele>87.2</ele>
        <time>2022-09-11T08:26:54Z</time>
      </trkpt>
      <trkpt lat="46.52526" lon="0.33619">
        <ele>88.2</ele>
        <time>2022-09-11T08:26:56Z</time>
      </trkpt>
      <trkpt lat="46.52532" lon="0.33603">
        <ele>89.2</ele>
        <time>2022-09-11T08:27:00Z</time>
      </trkpt>
      <trkpt lat="46.52533" lon="0.33594">
        <ele>89.4</ele>
        <time>2022-09-11T08:27:02Z</time>
      </trkpt>
      <trkpt lat="46.52533" lon="0.33585">
        <ele>90.4</ele>
        <time>2022-09-11T08:27:04Z</time>
      </trkpt>
      <trkpt lat="46.52533" lon="0.33566">
        <ele>91.4</ele>
        <time>2022-09-11T08:27:08Z</time>
      </trkpt>
      <trkpt lat="46.52531" lon="0.33547">
        <ele>92.4</ele>
        <time>2022-09-11T08:27:12Z</time>
      </trkpt>
      <trkpt lat="46.52529" lon="0.33522">
        <ele>93.6</ele>
        <time>2022-09-11T08:27:17Z</time>
      </trkpt>
      <trkpt lat="46.5253" lon="0.33493">
        <ele>94.8</ele>
        <time>2022-09-11T08:27:23Z</time>
      </trkpt>
      <trkpt lat="46.5253" lon="0.33483">
        <ele>95.4</ele>
        <time>2022-09-11T08:27:25Z</time>
      </trkpt>
      <trkpt lat="46.52531" lon="0.33474">
        <ele>95.8</ele>
        <time>2022-09-11T08:27:27Z</time>
      </trkpt>
      <trkpt lat="46.52534" lon="0.33443">
        <ele>96.2</ele>
        <time>2022-09-11T08:27:33Z</time>
      </trkpt>
      <trkpt lat="46.52536" lon="0.33424">
        <ele>96.2</ele>
        <time>2022-09-11T08:27:37Z</time>
      </trkpt>
      <trkpt lat="46.52541" lon="0.33415">
        <ele>97</ele>
        <time>2022-09-11T08:27:40Z</time>
      </trkpt>
      <trkpt lat="46.52544" lon="0.33409">
        <ele>97.6</ele>
        <time>2022-09-11T08:27:42Z</time>
      </trkpt>
      <trkpt lat="46.52556" lon="0.33396">
        <ele>98</ele>
        <time>2022-09-11T08:27:47Z</time>
      </trkpt>
      <trkpt lat="46.52563" lon="0.33388">
        <ele>98.4</ele>
        <time>2022-09-11T08:27:50Z</time>
      </trkpt>
      <trkpt lat="46.52582" lon="0.33371">
        <ele>98.4</ele>
        <time>2022-09-11T08:27:58Z</time>
      </trkpt>
      <trkpt lat="46.52596" lon="0.33372">
        <ele>98.6</ele>
        <time>2022-09-11T08:28:03Z</time>
      </trkpt>
      <trkpt lat="46.52611" lon="0.33392">
        <ele>99</ele>
        <time>2022-09-11T08:28:09Z</time>
      </trkpt>
      <trkpt lat="46.5262" lon="0.33403">
        <ele>99.2</ele>
        <time>2022-09-11T08:28:13Z</time>
      </trkpt>
      <trkpt lat="46.52635" lon="0.33415">
        <ele>99.8</ele>
        <time>2022-09-11T08:28:18Z</time>
      </trkpt>
      <trkpt lat="46.52648" lon="0.33418">
        <ele>100.4</ele>
        <time>2022-09-11T08:28:23Z</time>
      </trkpt>
      <trkpt lat="46.52651" lon="0.33418">
        <ele>100.4</ele>
        <time>2022-09-11T08:28:24Z</time>
      </trkpt>
      <trkpt lat="46.52664" lon="0.33421">
        <ele>101.4</ele>
        <time>2022-09-11T08:28:28Z</time>
      </trkpt>
      <trkpt lat="46.52671" lon="0.33423">
        <ele>101.8</ele>
        <time>2022-09-11T08:28:30Z</time>
      </trkpt>
      <trkpt lat="46.52677" lon="0.33424">
        <ele>102.4</ele>
        <time>2022-09-11T08:28:32Z</time>
      </trkpt>
      <trkpt lat="46.52685" lon="0.33426">
        <ele>103.2</ele>
        <time>2022-09-11T08:28:35Z</time>
      </trkpt>
      <trkpt lat="46.52692" lon="0.33427">
        <ele>103.4</ele>
        <time>2022-09-11T08:28:37Z</time>
      </trkpt>
      <trkpt lat="46.52709" lon="0.33428">
        <ele>104</ele>
        <time>2022-09-11T08:28:42Z</time>
      </trkpt>
      <trkpt lat="46.52721" lon="0.3343">
        <ele>104.6</ele>
        <time>2022-09-11T08:28:45Z</time>
      </trkpt>
      <trkpt lat="46.52726" lon="0.33433">
        <ele>105</ele>
        <time>2022-09-11T08:28:47Z</time>
      </trkpt>
      <trkpt lat="46.52742" lon="0.33441">
        <ele>105.2</ele>
        <time>2022-09-11T08:28:51Z</time>
      </trkpt>
      <trkpt lat="46.52745" lon="0.33442">
        <ele>105.2</ele>
        <time>2022-09-11T08:28:52Z</time>
      </trkpt>
      <trkpt lat="46.52748" lon="0.33444">
        <ele>105.4</ele>
        <time>2022-09-11T08:28:53Z</time>
      </trkpt>
      <trkpt lat="46.52756" lon="0.33447">
        <ele>105.6</ele>
        <time>2022-09-11T08:28:55Z</time>
      </trkpt>
      <trkpt lat="46.52765" lon="0.33448">
        <ele>105.6</ele>
        <time>2022-09-11T08:28:57Z</time>
      </trkpt>
      <trkpt lat="46.52778" lon="0.33451">
        <ele>105.6</ele>
        <time>2022-09-11T08:29:00Z</time>
      </trkpt>
      <trkpt lat="46.5279" lon="0.33452">
        <ele>106.6</ele>
        <time>2022-09-11T08:29:03Z</time>
      </trkpt>
      <trkpt lat="46.52794" lon="0.33451">
        <ele>106.8</ele>
        <time>2022-09-11T08:29:04Z</time>
      </trkpt>
      <trkpt lat="46.52797" lon="0.33451">
        <ele>106.8</ele>
        <time>2022-09-11T08:29:05Z</time>
      </trkpt>
      <trkpt lat="46.52806" lon="0.33449">
        <ele>107</ele>
        <time>2022-09-11T08:29:07Z</time>
      </trkpt>
      <trkpt lat="46.52816" lon="0.33446">
        <ele>107</ele>
        <time>2022-09-11T08:29:09Z</time>
      </trkpt>
      <trkpt lat="46.52824" lon="0.33443">
        <ele>106.8</ele>
        <time>2022-09-11T08:29:11Z</time>
      </trkpt>
      <trkpt lat="46.52835" lon="0.33442">
        <ele>106.6</ele>
        <time>2022-09-11T08:29:13Z</time>
      </trkpt>
      <trkpt lat="46.52842" lon="0.33441">
        <ele>106.4</ele>
        <time>2022-09-11T08:29:14Z</time>
      </trkpt>
      <trkpt lat="46.52854" lon="0.33441">
        <ele>105.2</ele>
        <time>2022-09-11T08:29:16Z</time>
      </trkpt>
      <trkpt lat="46.52871" lon="0.33445">
        <ele>104.6</ele>
        <time>2022-09-11T08:29:19Z</time>
      </trkpt>
      <trkpt lat="46.529" lon="0.33457">
        <ele>106.2</ele>
        <time>2022-09-11T08:29:25Z</time>
      </trkpt>
      <trkpt lat="46.52904" lon="0.33459">
        <ele>106.6</ele>
        <time>2022-09-11T08:29:26Z</time>
      </trkpt>
      <trkpt lat="46.52908" lon="0.33461">
        <ele>107</ele>
        <time>2022-09-11T08:29:27Z</time>
      </trkpt>
      <trkpt lat="46.52912" lon="0.33464">
        <ele>107.6</ele>
        <time>2022-09-11T08:29:28Z</time>
      </trkpt>
      <trkpt lat="46.52924" lon="0.33471">
        <ele>108.2</ele>
        <time>2022-09-11T08:29:31Z</time>
      </trkpt>
      <trkpt lat="46.52927" lon="0.33472">
        <ele>108.2</ele>
        <time>2022-09-11T08:29:32Z</time>
      </trkpt>
      <trkpt lat="46.5293" lon="0.33473">
        <ele>108.6</ele>
        <time>2022-09-11T08:29:33Z</time>
      </trkpt>
      <trkpt lat="46.5294" lon="0.33475">
        <ele>109.8</ele>
        <time>2022-09-11T08:29:37Z</time>
      </trkpt>
      <trkpt lat="46.52943" lon="0.33477">
        <ele>110</ele>
        <time>2022-09-11T08:29:38Z</time>
      </trkpt>
      <trkpt lat="46.52957" lon="0.33492">
        <ele>110.6</ele>
        <time>2022-09-11T08:29:42Z</time>
      </trkpt>
      <trkpt lat="46.5296" lon="0.33494">
        <ele>110.8</ele>
        <time>2022-09-11T08:29:43Z</time>
      </trkpt>
      <trkpt lat="46.5297" lon="0.33499">
        <ele>111</ele>
        <time>2022-09-11T08:29:46Z</time>
      </trkpt>
      <trkpt lat="46.52985" lon="0.33505">
        <ele>111</ele>
        <time>2022-09-11T08:29:50Z</time>
      </trkpt>
      <trkpt lat="46.53013" lon="0.33528">
        <ele>110.8</ele>
        <time>2022-09-11T08:29:57Z</time>
      </trkpt>
      <trkpt lat="46.53017" lon="0.33531">
        <ele>111</ele>
        <time>2022-09-11T08:29:58Z</time>
      </trkpt>
      <trkpt lat="46.53031" lon="0.33538">
        <ele>110.6</ele>
        <time>2022-09-11T08:30:01Z</time>
      </trkpt>
      <trkpt lat="46.53036" lon="0.3354">
        <ele>110.6</ele>
        <time>2022-09-11T08:30:02Z</time>
      </trkpt>
      <trkpt lat="46.53059" lon="0.3355">
        <ele>110.8</ele>
        <time>2022-09-11T08:30:07Z</time>
      </trkpt>
      <trkpt lat="46.53064" lon="0.33551">
        <ele>111</ele>
        <time>2022-09-11T08:30:08Z</time>
      </trkpt>
      <trkpt lat="46.53082" lon="0.33553">
        <ele>111.6</ele>
        <time>2022-09-11T08:30:13Z</time>
      </trkpt>
      <trkpt lat="46.53086" lon="0.33554">
        <ele>111.8</ele>
        <time>2022-09-11T08:30:14Z</time>
      </trkpt>
      <trkpt lat="46.53097" lon="0.33554">
        <ele>112.4</ele>
        <time>2022-09-11T08:30:17Z</time>
      </trkpt>
      <trkpt lat="46.53102" lon="0.33554">
        <ele>112.8</ele>
        <time>2022-09-11T08:30:18Z</time>
      </trkpt>
      <trkpt lat="46.53106" lon="0.33555">
        <ele>113</ele>
        <time>2022-09-11T08:30:19Z</time>
      </trkpt>
      <trkpt lat="46.53136" lon="0.33565">
        <ele>113.8</ele>
        <time>2022-09-11T08:30:25Z</time>
      </trkpt>
      <trkpt lat="46.53175" lon="0.33572">
        <ele>113.8</ele>
        <time>2022-09-11T08:30:33Z</time>
      </trkpt>
      <trkpt lat="46.53195" lon="0.33569">
        <ele>114.2</ele>
        <time>2022-09-11T08:30:37Z</time>
      </trkpt>
      <trkpt lat="46.53199" lon="0.33568">
        <ele>114.2</ele>
        <time>2022-09-11T08:30:38Z</time>
      </trkpt>
      <trkpt lat="46.53203" lon="0.33566">
        <ele>114.4</ele>
        <time>2022-09-11T08:30:39Z</time>
      </trkpt>
      <trkpt lat="46.53217" lon="0.33566">
        <ele>115</ele>
        <time>2022-09-11T08:30:43Z</time>
      </trkpt>
      <trkpt lat="46.53219" lon="0.33575">
        <ele>115.2</ele>
        <time>2022-09-11T08:30:45Z</time>
      </trkpt>
      <trkpt lat="46.5322" lon="0.3358">
        <ele>115.2</ele>
        <time>2022-09-11T08:30:46Z</time>
      </trkpt>
      <trkpt lat="46.53223" lon="0.33591">
        <ele>115.4</ele>
        <time>2022-09-11T08:30:48Z</time>
      </trkpt>
      <trkpt lat="46.53228" lon="0.336">
        <ele>115.6</ele>
        <time>2022-09-11T08:30:50Z</time>
      </trkpt>
      <trkpt lat="46.53238" lon="0.33613">
        <ele>115.6</ele>
        <time>2022-09-11T08:30:55Z</time>
      </trkpt>
      <trkpt lat="46.53245" lon="0.33624">
        <ele>114</ele>
        <time>2022-09-11T08:31:01Z</time>
      </trkpt>
      <trkpt lat="46.53247" lon="0.33625">
        <ele>112.8</ele>
        <time>2022-09-11T08:31:04Z</time>
      </trkpt>
      <trkpt lat="46.53248" lon="0.33626">
        <ele>112.4</ele>
        <time>2022-09-11T08:31:07Z</time>
      </trkpt>
      <trkpt lat="46.53248" lon="0.33628">
        <ele>111.8</ele>
        <time>2022-09-11T08:31:11Z</time>
      </trkpt>
      <trkpt lat="46.53245" lon="0.33627">
        <ele>111.2</ele>
        <time>2022-09-11T08:31:14Z</time>
      </trkpt>
      <trkpt lat="46.53245" lon="0.33627">
        <ele>111.2</ele>
        <time>2022-09-11T08:31:15Z</time>
      </trkpt>
      <trkpt lat="46.53242" lon="0.33626">
        <ele>110.6</ele>
        <time>2022-09-11T08:31:17Z</time>
      </trkpt>
      <trkpt lat="46.53238" lon="0.33626">
        <ele>109.4</ele>
        <time>2022-09-11T08:31:22Z</time>
      </trkpt>
      <trkpt lat="46.53237" lon="0.33627">
        <ele>108.2</ele>
        <time>2022-09-11T08:31:25Z</time>
      </trkpt>
      <trkpt lat="46.5324" lon="0.33631">
        <ele>107.2</ele>
        <time>2022-09-11T08:31:29Z</time>
      </trkpt>
      <trkpt lat="46.53242" lon="0.33635">
        <ele>106.6</ele>
        <time>2022-09-11T08:31:31Z</time>
      </trkpt>
      <trkpt lat="46.53244" lon="0.33636">
        <ele>106</ele>
        <time>2022-09-11T08:31:32Z</time>
      </trkpt>
      <trkpt lat="46.53247" lon="0.3364">
        <ele>104.6</ele>
        <time>2022-09-11T08:31:34Z</time>
      </trkpt>
      <trkpt lat="46.53249" lon="0.33641">
        <ele>103</ele>
        <time>2022-09-11T08:31:36Z</time>
      </trkpt>
      <trkpt lat="46.5325" lon="0.33642">
        <ele>102.2</ele>
        <time>2022-09-11T08:31:37Z</time>
      </trkpt>
      <trkpt lat="46.5325" lon="0.33643">
        <ele>101.6</ele>
        <time>2022-09-11T08:31:38Z</time>
      </trkpt>
      <trkpt lat="46.53251" lon="0.33644">
        <ele>101.2</ele>
        <time>2022-09-11T08:31:39Z</time>
      </trkpt>
      <trkpt lat="46.53252" lon="0.33646">
        <ele>100.4</ele>
        <time>2022-09-11T08:31:42Z</time>
      </trkpt>
      <trkpt lat="46.53252" lon="0.33647">
        <ele>100.2</ele>
        <time>2022-09-11T08:31:46Z</time>
      </trkpt>
      <trkpt lat="46.53243" lon="0.33644">
        <ele>99.4</ele>
        <time>2022-09-11T08:31:52Z</time>
      </trkpt>
      <trkpt lat="46.53234" lon="0.33644">
        <ele>97.8</ele>
        <time>2022-09-11T08:31:55Z</time>
      </trkpt>
      <trkpt lat="46.5323" lon="0.33644">
        <ele>96.6</ele>
        <time>2022-09-11T08:31:57Z</time>
      </trkpt>
      <trkpt lat="46.53228" lon="0.33644">
        <ele>96</ele>
        <time>2022-09-11T08:31:58Z</time>
      </trkpt>
      <trkpt lat="46.53227" lon="0.33644">
        <ele>95.6</ele>
        <time>2022-09-11T08:31:59Z</time>
      </trkpt>
      <trkpt lat="46.53227" lon="0.33647">
        <ele>94.8</ele>
        <time>2022-09-11T08:32:01Z</time>
      </trkpt>
      <trkpt lat="46.53227" lon="0.33649">
        <ele>94.4</ele>
        <time>2022-09-11T08:32:02Z</time>
      </trkpt>
      <trkpt lat="46.53229" lon="0.33652">
        <ele>93.2</ele>
        <time>2022-09-11T08:32:04Z</time>
      </trkpt>
      <trkpt lat="46.5323" lon="0.33657">
        <ele>92</ele>
        <time>2022-09-11T08:32:07Z</time>
      </trkpt>
      <trkpt lat="46.5323" lon="0.33658">
        <ele>91.4</ele>
        <time>2022-09-11T08:32:08Z</time>
      </trkpt>
      <trkpt lat="46.5323" lon="0.33658">
        <ele>90.8</ele>
        <time>2022-09-11T08:32:09Z</time>
      </trkpt>
      <trkpt lat="46.5323" lon="0.3366">
        <ele>90.4</ele>
        <time>2022-09-11T08:32:11Z</time>
      </trkpt>
      <trkpt lat="46.53231" lon="0.33661">
        <ele>90.2</ele>
        <time>2022-09-11T08:32:16Z</time>
      </trkpt>
      <trkpt lat="46.53233" lon="0.33664">
        <ele>89.8</ele>
        <time>2022-09-11T08:32:21Z</time>
      </trkpt>
      <trkpt lat="46.53234" lon="0.33665">
        <ele>89.2</ele>
        <time>2022-09-11T08:32:24Z</time>
      </trkpt>
      <trkpt lat="46.53235" lon="0.33666">
        <ele>88.6</ele>
        <time>2022-09-11T08:32:26Z</time>
      </trkpt>
      <trkpt lat="46.53237" lon="0.33668">
        <ele>87.4</ele>
        <time>2022-09-11T08:32:28Z</time>
      </trkpt>
      <trkpt lat="46.53238" lon="0.33669">
        <ele>86.4</ele>
        <time>2022-09-11T08:32:33Z</time>
      </trkpt>
      <trkpt lat="46.53238" lon="0.3367">
        <ele>86.2</ele>
        <time>2022-09-11T08:32:35Z</time>
      </trkpt>
      <trkpt lat="46.53238" lon="0.33671">
        <ele>86.2</ele>
        <time>2022-09-11T08:32:37Z</time>
      </trkpt>
      <trkpt lat="46.53234" lon="0.33686">
        <ele>86</ele>
        <time>2022-09-11T08:32:41Z</time>
      </trkpt>
      <trkpt lat="46.53233" lon="0.33689">
        <ele>85.4</ele>
        <time>2022-09-11T08:32:43Z</time>
      </trkpt>
      <trkpt lat="46.53231" lon="0.33692">
        <ele>85.4</ele>
        <time>2022-09-11T08:32:45Z</time>
      </trkpt>
      <trkpt lat="46.53228" lon="0.337">
        <ele>84</ele>
        <time>2022-09-11T08:32:53Z</time>
      </trkpt>
      <trkpt lat="46.53227" lon="0.33701">
        <ele>83.6</ele>
        <time>2022-09-11T08:32:54Z</time>
      </trkpt>
      <trkpt lat="46.53227" lon="0.33704">
        <ele>82.6</ele>
        <time>2022-09-11T08:32:57Z</time>
      </trkpt>
      <trkpt lat="46.53227" lon="0.33707">
        <ele>81.4</ele>
        <time>2022-09-11T08:33:00Z</time>
      </trkpt>
      <trkpt lat="46.53228" lon="0.33708">
        <ele>81.2</ele>
        <time>2022-09-11T08:33:03Z</time>
      </trkpt>
      <trkpt lat="46.53229" lon="0.33707">
        <ele>81.2</ele>
        <time>2022-09-11T08:33:04Z</time>
      </trkpt>
      <trkpt lat="46.53229" lon="0.33708">
        <ele>81.2</ele>
        <time>2022-09-11T08:33:05Z</time>
      </trkpt>
      <trkpt lat="46.53229" lon="0.33713">
        <ele>81</ele>
        <time>2022-09-11T08:33:17Z</time>
      </trkpt>
      <trkpt lat="46.53229" lon="0.33713">
        <ele>81.4</ele>
        <time>2022-09-11T08:33:30Z</time>
      </trkpt>
      <trkpt lat="46.53236" lon="0.33717">
        <ele>81.2</ele>
        <time>2022-09-11T08:33:40Z</time>
      </trkpt>
      <trkpt lat="46.53248" lon="0.33725">
        <ele>81.2</ele>
        <time>2022-09-11T08:33:45Z</time>
      </trkpt>
      <trkpt lat="46.53262" lon="0.33731">
        <ele>81</ele>
        <time>2022-09-11T08:33:50Z</time>
      </trkpt>
      <trkpt lat="46.53274" lon="0.33738">
        <ele>81.2</ele>
        <time>2022-09-11T08:33:54Z</time>
      </trkpt>
      <trkpt lat="46.53281" lon="0.33743">
        <ele>81.4</ele>
        <time>2022-09-11T08:33:56Z</time>
      </trkpt>
      <trkpt lat="46.53296" lon="0.3375">
        <ele>81.8</ele>
        <time>2022-09-11T08:34:01Z</time>
      </trkpt>
      <trkpt lat="46.53307" lon="0.33757">
        <ele>81.6</ele>
        <time>2022-09-11T08:34:04Z</time>
      </trkpt>
      <trkpt lat="46.53314" lon="0.3376">
        <ele>81.6</ele>
        <time>2022-09-11T08:34:06Z</time>
      </trkpt>
      <trkpt lat="46.53325" lon="0.33765">
        <ele>81.4</ele>
        <time>2022-09-11T08:34:09Z</time>
      </trkpt>
      <trkpt lat="46.53332" lon="0.3377">
        <ele>81.2</ele>
        <time>2022-09-11T08:34:11Z</time>
      </trkpt>
      <trkpt lat="46.53337" lon="0.33772">
        <ele>81.2</ele>
        <time>2022-09-11T08:34:12Z</time>
      </trkpt>
      <trkpt lat="46.53351" lon="0.3378">
        <ele>81.2</ele>
        <time>2022-09-11T08:34:15Z</time>
      </trkpt>
      <trkpt lat="46.53377" lon="0.33794">
        <ele>81.6</ele>
        <time>2022-09-11T08:34:21Z</time>
      </trkpt>
      <trkpt lat="46.53407" lon="0.33808">
        <ele>80.8</ele>
        <time>2022-09-11T08:34:27Z</time>
      </trkpt>
      <trkpt lat="46.53429" lon="0.33814">
        <ele>80.8</ele>
        <time>2022-09-11T08:34:31Z</time>
      </trkpt>
      <trkpt lat="46.53439" lon="0.33818">
        <ele>81</ele>
        <time>2022-09-11T08:34:33Z</time>
      </trkpt>
      <trkpt lat="46.5345" lon="0.33825">
        <ele>80.8</ele>
        <time>2022-09-11T08:34:35Z</time>
      </trkpt>
      <trkpt lat="46.53457" lon="0.3383">
        <ele>80.8</ele>
        <time>2022-09-11T08:34:37Z</time>
      </trkpt>
      <trkpt lat="46.5346" lon="0.3383">
        <ele>80.6</ele>
        <time>2022-09-11T08:34:38Z</time>
      </trkpt>
      <trkpt lat="46.53465" lon="0.33826">
        <ele>81</ele>
        <time>2022-09-11T08:34:42Z</time>
      </trkpt>
      <trkpt lat="46.53466" lon="0.33825">
        <ele>81</ele>
        <time>2022-09-11T08:34:43Z</time>
      </trkpt>
      <trkpt lat="46.53468" lon="0.33823">
        <ele>81.8</ele>
        <time>2022-09-11T08:34:45Z</time>
      </trkpt>
      <trkpt lat="46.53471" lon="0.33822">
        <ele>82.4</ele>
        <time>2022-09-11T08:34:47Z</time>
      </trkpt>
      <trkpt lat="46.53473" lon="0.33822">
        <ele>82.6</ele>
        <time>2022-09-11T08:34:48Z</time>
      </trkpt>
      <trkpt lat="46.53476" lon="0.33823">
        <ele>82.8</ele>
        <time>2022-09-11T08:34:49Z</time>
      </trkpt>
      <trkpt lat="46.53484" lon="0.33825">
        <ele>83.6</ele>
        <time>2022-09-11T08:34:53Z</time>
      </trkpt>
      <trkpt lat="46.53492" lon="0.33826">
        <ele>84.8</ele>
        <time>2022-09-11T08:34:57Z</time>
      </trkpt>
      <trkpt lat="46.53497" lon="0.33828">
        <ele>86</ele>
        <time>2022-09-11T08:35:00Z</time>
      </trkpt>
      <trkpt lat="46.535" lon="0.33829">
        <ele>87.4</ele>
        <time>2022-09-11T08:35:02Z</time>
      </trkpt>
      <trkpt lat="46.53503" lon="0.3383">
        <ele>88.2</ele>
        <time>2022-09-11T08:35:05Z</time>
      </trkpt>
      <trkpt lat="46.53505" lon="0.33831">
        <ele>88.4</ele>
        <time>2022-09-11T08:35:06Z</time>
      </trkpt>
      <trkpt lat="46.53513" lon="0.33834">
        <ele>90</ele>
        <time>2022-09-11T08:35:11Z</time>
      </trkpt>
      <trkpt lat="46.53516" lon="0.33835">
        <ele>90.6</ele>
        <time>2022-09-11T08:35:13Z</time>
      </trkpt>
      <trkpt lat="46.53519" lon="0.33836">
        <ele>91.2</ele>
        <time>2022-09-11T08:35:15Z</time>
      </trkpt>
      <trkpt lat="46.53525" lon="0.33839">
        <ele>92.2</ele>
        <time>2022-09-11T08:35:19Z</time>
      </trkpt>
      <trkpt lat="46.53526" lon="0.33839">
        <ele>92.4</ele>
        <time>2022-09-11T08:35:20Z</time>
      </trkpt>
      <trkpt lat="46.53535" lon="0.33844">
        <ele>93.4</ele>
        <time>2022-09-11T08:35:25Z</time>
      </trkpt>
      <trkpt lat="46.53539" lon="0.33846">
        <ele>94.4</ele>
        <time>2022-09-11T08:35:28Z</time>
      </trkpt>
      <trkpt lat="46.5354" lon="0.33847">
        <ele>94.8</ele>
        <time>2022-09-11T08:35:29Z</time>
      </trkpt>
      <trkpt lat="46.53546" lon="0.33849">
        <ele>95.8</ele>
        <time>2022-09-11T08:35:33Z</time>
      </trkpt>
      <trkpt lat="46.53553" lon="0.3385">
        <ele>97</ele>
        <time>2022-09-11T08:35:37Z</time>
      </trkpt>
      <trkpt lat="46.53558" lon="0.33851">
        <ele>97.8</ele>
        <time>2022-09-11T08:35:40Z</time>
      </trkpt>
      <trkpt lat="46.53561" lon="0.33852">
        <ele>98.2</ele>
        <time>2022-09-11T08:35:42Z</time>
      </trkpt>
      <trkpt lat="46.53567" lon="0.33852">
        <ele>99.2</ele>
        <time>2022-09-11T08:35:46Z</time>
      </trkpt>
      <trkpt lat="46.53572" lon="0.3385">
        <ele>100.2</ele>
        <time>2022-09-11T08:35:50Z</time>
      </trkpt>
      <trkpt lat="46.53575" lon="0.33849">
        <ele>100.6</ele>
        <time>2022-09-11T08:35:52Z</time>
      </trkpt>
      <trkpt lat="46.53579" lon="0.33844">
        <ele>101.4</ele>
        <time>2022-09-11T08:35:56Z</time>
      </trkpt>
      <trkpt lat="46.53584" lon="0.33837">
        <ele>102.2</ele>
        <time>2022-09-11T08:36:01Z</time>
      </trkpt>
      <trkpt lat="46.53584" lon="0.33834">
        <ele>102.4</ele>
        <time>2022-09-11T08:36:02Z</time>
      </trkpt>
      <trkpt lat="46.53585" lon="0.33832">
        <ele>102.6</ele>
        <time>2022-09-11T08:36:03Z</time>
      </trkpt>
      <trkpt lat="46.53587" lon="0.33816">
        <ele>103.4</ele>
        <time>2022-09-11T08:36:09Z</time>
      </trkpt>
      <trkpt lat="46.53587" lon="0.33813">
        <ele>103.8</ele>
        <time>2022-09-11T08:36:10Z</time>
      </trkpt>
      <trkpt lat="46.53589" lon="0.33792">
        <ele>104.8</ele>
        <time>2022-09-11T08:36:17Z</time>
      </trkpt>
      <trkpt lat="46.53588" lon="0.33789">
        <ele>105</ele>
        <time>2022-09-11T08:36:18Z</time>
      </trkpt>
      <trkpt lat="46.53583" lon="0.33781">
        <ele>106</ele>
        <time>2022-09-11T08:36:22Z</time>
      </trkpt>
      <trkpt lat="46.53581" lon="0.3378">
        <ele>106</ele>
        <time>2022-09-11T08:36:23Z</time>
      </trkpt>
      <trkpt lat="46.53567" lon="0.33774">
        <ele>107</ele>
        <time>2022-09-11T08:36:29Z</time>
      </trkpt>
      <trkpt lat="46.53562" lon="0.33774">
        <ele>107</ele>
        <time>2022-09-11T08:36:31Z</time>
      </trkpt>
      <trkpt lat="46.53551" lon="0.33772">
        <ele>108</ele>
        <time>2022-09-11T08:36:35Z</time>
      </trkpt>
      <trkpt lat="46.53537" lon="0.33769">
        <ele>109</ele>
        <time>2022-09-11T08:36:40Z</time>
      </trkpt>
      <trkpt lat="46.53532" lon="0.33768">
        <ele>109.4</ele>
        <time>2022-09-11T08:36:42Z</time>
      </trkpt>
      <trkpt lat="46.53518" lon="0.33765">
        <ele>110.2</ele>
        <time>2022-09-11T08:36:47Z</time>
      </trkpt>
      <trkpt lat="46.53504" lon="0.3376">
        <ele>110.8</ele>
        <time>2022-09-11T08:36:52Z</time>
      </trkpt>
      <trkpt lat="46.53497" lon="0.33756">
        <ele>111.2</ele>
        <time>2022-09-11T08:36:55Z</time>
      </trkpt>
      <trkpt lat="46.53483" lon="0.33745">
        <ele>112.4</ele>
        <time>2022-09-11T08:37:01Z</time>
      </trkpt>
      <trkpt lat="46.53468" lon="0.33734">
        <ele>113.4</ele>
        <time>2022-09-11T08:37:06Z</time>
      </trkpt>
      <trkpt lat="46.53463" lon="0.33731">
        <ele>113.6</ele>
        <time>2022-09-11T08:37:08Z</time>
      </trkpt>
      <trkpt lat="46.53443" lon="0.3372">
        <ele>114.4</ele>
        <time>2022-09-11T08:37:14Z</time>
      </trkpt>
      <trkpt lat="46.5343" lon="0.33708">
        <ele>115.4</ele>
        <time>2022-09-11T08:37:19Z</time>
      </trkpt>
      <trkpt lat="46.53429" lon="0.33704">
        <ele>115.6</ele>
        <time>2022-09-11T08:37:20Z</time>
      </trkpt>
      <trkpt lat="46.5343" lon="0.33692">
        <ele>115.8</ele>
        <time>2022-09-11T08:37:23Z</time>
      </trkpt>
      <trkpt lat="46.53434" lon="0.33677">
        <ele>116.6</ele>
        <time>2022-09-11T08:37:26Z</time>
      </trkpt>
      <trkpt lat="46.53438" lon="0.33661">
        <ele>117.2</ele>
        <time>2022-09-11T08:37:29Z</time>
      </trkpt>
      <trkpt lat="46.53443" lon="0.33634">
        <ele>117.6</ele>
        <time>2022-09-11T08:37:34Z</time>
      </trkpt>
      <trkpt lat="46.53446" lon="0.33616">
        <ele>118</ele>
        <time>2022-09-11T08:37:37Z</time>
      </trkpt>
      <trkpt lat="46.53448" lon="0.33604">
        <ele>118.2</ele>
        <time>2022-09-11T08:37:39Z</time>
      </trkpt>
      <trkpt lat="46.53446" lon="0.33591">
        <ele>118.4</ele>
        <time>2022-09-11T08:37:41Z</time>
      </trkpt>
      <trkpt lat="46.53444" lon="0.33586">
        <ele>118.4</ele>
        <time>2022-09-11T08:37:42Z</time>
      </trkpt>
      <trkpt lat="46.53441" lon="0.33581">
        <ele>118.4</ele>
        <time>2022-09-11T08:37:43Z</time>
      </trkpt>
      <trkpt lat="46.53434" lon="0.33572">
        <ele>118.6</ele>
        <time>2022-09-11T08:37:45Z</time>
      </trkpt>
      <trkpt lat="46.53426" lon="0.33565">
        <ele>118.6</ele>
        <time>2022-09-11T08:37:47Z</time>
      </trkpt>
      <trkpt lat="46.53395" lon="0.33541">
        <ele>119.4</ele>
        <time>2022-09-11T08:37:55Z</time>
      </trkpt>
      <trkpt lat="46.53375" lon="0.33528">
        <ele>119.8</ele>
        <time>2022-09-11T08:38:00Z</time>
      </trkpt>
      <trkpt lat="46.53366" lon="0.33522">
        <ele>119.8</ele>
        <time>2022-09-11T08:38:02Z</time>
      </trkpt>
      <trkpt lat="46.53331" lon="0.33495">
        <ele>120.2</ele>
        <time>2022-09-11T08:38:10Z</time>
      </trkpt>
      <trkpt lat="46.53297" lon="0.33473">
        <ele>120.8</ele>
        <time>2022-09-11T08:38:17Z</time>
      </trkpt>
      <trkpt lat="46.53289" lon="0.33466">
        <ele>121</ele>
        <time>2022-09-11T08:38:19Z</time>
      </trkpt>
      <trkpt lat="46.53285" lon="0.33455">
        <ele>121</ele>
        <time>2022-09-11T08:38:21Z</time>
      </trkpt>
      <trkpt lat="46.53281" lon="0.33445">
        <ele>121.6</ele>
        <time>2022-09-11T08:38:23Z</time>
      </trkpt>
      <trkpt lat="46.53277" lon="0.33427">
        <ele>121.8</ele>
        <time>2022-09-11T08:38:26Z</time>
      </trkpt>
      <trkpt lat="46.53265" lon="0.33368">
        <ele>123.2</ele>
        <time>2022-09-11T08:38:35Z</time>
      </trkpt>
      <trkpt lat="46.53261" lon="0.33342">
        <ele>124</ele>
        <time>2022-09-11T08:38:40Z</time>
      </trkpt>
      <trkpt lat="46.53258" lon="0.33331">
        <ele>124.4</ele>
        <time>2022-09-11T08:38:42Z</time>
      </trkpt>
      <trkpt lat="46.5325" lon="0.33311">
        <ele>124.8</ele>
        <time>2022-09-11T08:38:46Z</time>
      </trkpt>
      <trkpt lat="46.53243" lon="0.33301">
        <ele>125.4</ele>
        <time>2022-09-11T08:38:49Z</time>
      </trkpt>
      <trkpt lat="46.53237" lon="0.33293">
        <ele>125.6</ele>
        <time>2022-09-11T08:38:52Z</time>
      </trkpt>
      <trkpt lat="46.53225" lon="0.33275">
        <ele>126.6</ele>
        <time>2022-09-11T08:38:57Z</time>
      </trkpt>
      <trkpt lat="46.53222" lon="0.3327">
        <ele>126.8</ele>
        <time>2022-09-11T08:38:58Z</time>
      </trkpt>
      <trkpt lat="46.53217" lon="0.33259">
        <ele>127.6</ele>
        <time>2022-09-11T08:39:01Z</time>
      </trkpt>
      <trkpt lat="46.53214" lon="0.33251">
        <ele>128.2</ele>
        <time>2022-09-11T08:39:03Z</time>
      </trkpt>
      <trkpt lat="46.53208" lon="0.33235">
        <ele>128.6</ele>
        <time>2022-09-11T08:39:07Z</time>
      </trkpt>
      <trkpt lat="46.53202" lon="0.33221">
        <ele>129.4</ele>
        <time>2022-09-11T08:39:10Z</time>
      </trkpt>
      <trkpt lat="46.53194" lon="0.33194">
        <ele>129.6</ele>
        <time>2022-09-11T08:39:15Z</time>
      </trkpt>
      <trkpt lat="46.53192" lon="0.33184">
        <ele>130</ele>
        <time>2022-09-11T08:39:17Z</time>
      </trkpt>
      <trkpt lat="46.53191" lon="0.33161">
        <ele>130.4</ele>
        <time>2022-09-11T08:39:22Z</time>
      </trkpt>
      <trkpt lat="46.53189" lon="0.33139">
        <ele>130.8</ele>
        <time>2022-09-11T08:39:27Z</time>
      </trkpt>
      <trkpt lat="46.53189" lon="0.33129">
        <ele>130.8</ele>
        <time>2022-09-11T08:39:29Z</time>
      </trkpt>
      <trkpt lat="46.53189" lon="0.33113">
        <ele>130.8</ele>
        <time>2022-09-11T08:39:32Z</time>
      </trkpt>
      <trkpt lat="46.53191" lon="0.33096">
        <ele>130.6</ele>
        <time>2022-09-11T08:39:35Z</time>
      </trkpt>
      <trkpt lat="46.53191" lon="0.33089">
        <ele>130.6</ele>
        <time>2022-09-11T08:39:36Z</time>
      </trkpt>
      <trkpt lat="46.53189" lon="0.33068">
        <ele>130.4</ele>
        <time>2022-09-11T08:39:39Z</time>
      </trkpt>
      <trkpt lat="46.53189" lon="0.33052">
        <ele>130.6</ele>
        <time>2022-09-11T08:39:41Z</time>
      </trkpt>
      <trkpt lat="46.53189" lon="0.33046">
        <ele>130.4</ele>
        <time>2022-09-11T08:39:42Z</time>
      </trkpt>
      <trkpt lat="46.53204" lon="0.33029">
        <ele>130.4</ele>
        <time>2022-09-11T08:39:48Z</time>
      </trkpt>
      <trkpt lat="46.5321" lon="0.33023">
        <ele>130.6</ele>
        <time>2022-09-11T08:39:50Z</time>
      </trkpt>
      <trkpt lat="46.53218" lon="0.33012">
        <ele>130.8</ele>
        <time>2022-09-11T08:39:53Z</time>
      </trkpt>
      <trkpt lat="46.5322" lon="0.3301">
        <ele>131</ele>
        <time>2022-09-11T08:39:54Z</time>
      </trkpt>
      <trkpt lat="46.53227" lon="0.33009">
        <ele>131</ele>
        <time>2022-09-11T08:39:56Z</time>
      </trkpt>
      <trkpt lat="46.5323" lon="0.3301">
        <ele>131</ele>
        <time>2022-09-11T08:39:57Z</time>
      </trkpt>
      <trkpt lat="46.53246" lon="0.3302">
        <ele>130.6</ele>
        <time>2022-09-11T08:40:02Z</time>
      </trkpt>
      <trkpt lat="46.53249" lon="0.33022">
        <ele>130.6</ele>
        <time>2022-09-11T08:40:03Z</time>
      </trkpt>
      <trkpt lat="46.53254" lon="0.33023">
        <ele>130.6</ele>
        <time>2022-09-11T08:40:04Z</time>
      </trkpt>
      <trkpt lat="46.53266" lon="0.3302">
        <ele>130.4</ele>
        <time>2022-09-11T08:40:07Z</time>
      </trkpt>
      <trkpt lat="46.5327" lon="0.3302">
        <ele>130.4</ele>
        <time>2022-09-11T08:40:08Z</time>
      </trkpt>
      <trkpt lat="46.53283" lon="0.33013">
        <ele>130.8</ele>
        <time>2022-09-11T08:40:11Z</time>
      </trkpt>
      <trkpt lat="46.53287" lon="0.33012">
        <ele>131</ele>
        <time>2022-09-11T08:40:12Z</time>
      </trkpt>
      <trkpt lat="46.53292" lon="0.33009">
        <ele>131.2</ele>
        <time>2022-09-11T08:40:13Z</time>
      </trkpt>
      <trkpt lat="46.53302" lon="0.33002">
        <ele>131.2</ele>
        <time>2022-09-11T08:40:15Z</time>
      </trkpt>
      <trkpt lat="46.53306" lon="0.32998">
        <ele>131.2</ele>
        <time>2022-09-11T08:40:16Z</time>
      </trkpt>
      <trkpt lat="46.53308" lon="0.32994">
        <ele>131</ele>
        <time>2022-09-11T08:40:17Z</time>
      </trkpt>
      <trkpt lat="46.53317" lon="0.32978">
        <ele>130.6</ele>
        <time>2022-09-11T08:40:21Z</time>
      </trkpt>
      <trkpt lat="46.53321" lon="0.32976">
        <ele>130.6</ele>
        <time>2022-09-11T08:40:22Z</time>
      </trkpt>
      <trkpt lat="46.53328" lon="0.32969">
        <ele>130.4</ele>
        <time>2022-09-11T08:40:24Z</time>
      </trkpt>
      <trkpt lat="46.53333" lon="0.32963">
        <ele>130.6</ele>
        <time>2022-09-11T08:40:26Z</time>
      </trkpt>
      <trkpt lat="46.53338" lon="0.3296">
        <ele>130.8</ele>
        <time>2022-09-11T08:40:28Z</time>
      </trkpt>
      <trkpt lat="46.53341" lon="0.32962">
        <ele>130.8</ele>
        <time>2022-09-11T08:40:30Z</time>
      </trkpt>
      <trkpt lat="46.53344" lon="0.32974">
        <ele>130.4</ele>
        <time>2022-09-11T08:40:33Z</time>
      </trkpt>
      <trkpt lat="46.53349" lon="0.32983">
        <ele>130</ele>
        <time>2022-09-11T08:40:35Z</time>
      </trkpt>
      <trkpt lat="46.53353" lon="0.32994">
        <ele>130</ele>
        <time>2022-09-11T08:40:37Z</time>
      </trkpt>
      <trkpt lat="46.53357" lon="0.33005">
        <ele>130</ele>
        <time>2022-09-11T08:40:39Z</time>
      </trkpt>
      <trkpt lat="46.53362" lon="0.33015">
        <ele>129.8</ele>
        <time>2022-09-11T08:40:41Z</time>
      </trkpt>
      <trkpt lat="46.53364" lon="0.33019">
        <ele>129.2</ele>
        <time>2022-09-11T08:40:42Z</time>
      </trkpt>
      <trkpt lat="46.53368" lon="0.3303">
        <ele>127.8</ele>
        <time>2022-09-11T08:40:44Z</time>
      </trkpt>
      <trkpt lat="46.5337" lon="0.3304">
        <ele>127.2</ele>
        <time>2022-09-11T08:40:46Z</time>
      </trkpt>
      <trkpt lat="46.53373" lon="0.33044">
        <ele>126.4</ele>
        <time>2022-09-11T08:40:47Z</time>
      </trkpt>
      <trkpt lat="46.53376" lon="0.33048">
        <ele>126.2</ele>
        <time>2022-09-11T08:40:48Z</time>
      </trkpt>
      <trkpt lat="46.53382" lon="0.33051">
        <ele>124.8</ele>
        <time>2022-09-11T08:40:50Z</time>
      </trkpt>
      <trkpt lat="46.53388" lon="0.33052">
        <ele>123.4</ele>
        <time>2022-09-11T08:40:52Z</time>
      </trkpt>
      <trkpt lat="46.53395" lon="0.33056">
        <ele>122.8</ele>
        <time>2022-09-11T08:40:54Z</time>
      </trkpt>
      <trkpt lat="46.53398" lon="0.33058">
        <ele>122.4</ele>
        <time>2022-09-11T08:40:55Z</time>
      </trkpt>
      <trkpt lat="46.534" lon="0.3306">
        <ele>122</ele>
        <time>2022-09-11T08:40:56Z</time>
      </trkpt>
      <trkpt lat="46.53405" lon="0.33068">
        <ele>121.2</ele>
        <time>2022-09-11T08:40:58Z</time>
      </trkpt>
      <trkpt lat="46.53409" lon="0.33073">
        <ele>121</ele>
        <time>2022-09-11T08:40:59Z</time>
      </trkpt>
      <trkpt lat="46.53411" lon="0.33078">
        <ele>120.8</ele>
        <time>2022-09-11T08:41:00Z</time>
      </trkpt>
      <trkpt lat="46.53413" lon="0.33083">
        <ele>120.8</ele>
        <time>2022-09-11T08:41:01Z</time>
      </trkpt>
      <trkpt lat="46.53414" lon="0.33093">
        <ele>120.4</ele>
        <time>2022-09-11T08:41:03Z</time>
      </trkpt>
      <trkpt lat="46.53416" lon="0.33102">
        <ele>120.2</ele>
        <time>2022-09-11T08:41:05Z</time>
      </trkpt>
      <trkpt lat="46.53418" lon="0.33106">
        <ele>120</ele>
        <time>2022-09-11T08:41:06Z</time>
      </trkpt>
      <trkpt lat="46.53421" lon="0.3311">
        <ele>120.2</ele>
        <time>2022-09-11T08:41:07Z</time>
      </trkpt>
      <trkpt lat="46.53427" lon="0.33118">
        <ele>120.6</ele>
        <time>2022-09-11T08:41:09Z</time>
      </trkpt>
      <trkpt lat="46.53432" lon="0.3313">
        <ele>121.2</ele>
        <time>2022-09-11T08:41:11Z</time>
      </trkpt>
      <trkpt lat="46.53434" lon="0.33136">
        <ele>121.6</ele>
        <time>2022-09-11T08:41:12Z</time>
      </trkpt>
      <trkpt lat="46.53437" lon="0.33149">
        <ele>122.2</ele>
        <time>2022-09-11T08:41:14Z</time>
      </trkpt>
      <trkpt lat="46.53441" lon="0.33163">
        <ele>122.6</ele>
        <time>2022-09-11T08:41:16Z</time>
      </trkpt>
      <trkpt lat="46.53447" lon="0.33178">
        <ele>122.8</ele>
        <time>2022-09-11T08:41:18Z</time>
      </trkpt>
      <trkpt lat="46.53456" lon="0.33193">
        <ele>122.8</ele>
        <time>2022-09-11T08:41:21Z</time>
      </trkpt>
      <trkpt lat="46.5346" lon="0.33197">
        <ele>123</ele>
        <time>2022-09-11T08:41:22Z</time>
      </trkpt>
      <trkpt lat="46.53474" lon="0.33211">
        <ele>123.2</ele>
        <time>2022-09-11T08:41:26Z</time>
      </trkpt>
      <trkpt lat="46.53478" lon="0.33216">
        <ele>123</ele>
        <time>2022-09-11T08:41:27Z</time>
      </trkpt>
      <trkpt lat="46.5349" lon="0.33231">
        <ele>123</ele>
        <time>2022-09-11T08:41:30Z</time>
      </trkpt>
      <trkpt lat="46.53503" lon="0.33245">
        <ele>122.8</ele>
        <time>2022-09-11T08:41:33Z</time>
      </trkpt>
      <trkpt lat="46.53518" lon="0.33259">
        <ele>122.8</ele>
        <time>2022-09-11T08:41:36Z</time>
      </trkpt>
      <trkpt lat="46.53524" lon="0.33267">
        <ele>123</ele>
        <time>2022-09-11T08:41:37Z</time>
      </trkpt>
      <trkpt lat="46.53547" lon="0.33297">
        <ele>122.8</ele>
        <time>2022-09-11T08:41:41Z</time>
      </trkpt>
      <trkpt lat="46.53559" lon="0.33306">
        <ele>123</ele>
        <time>2022-09-11T08:41:43Z</time>
      </trkpt>
      <trkpt lat="46.53603" lon="0.33322">
        <ele>122.8</ele>
        <time>2022-09-11T08:41:50Z</time>
      </trkpt>
      <trkpt lat="46.53615" lon="0.33319">
        <ele>122.4</ele>
        <time>2022-09-11T08:41:52Z</time>
      </trkpt>
      <trkpt lat="46.5362" lon="0.33315">
        <ele>122.4</ele>
        <time>2022-09-11T08:41:53Z</time>
      </trkpt>
      <trkpt lat="46.53626" lon="0.3331">
        <ele>122.4</ele>
        <time>2022-09-11T08:41:54Z</time>
      </trkpt>
      <trkpt lat="46.53646" lon="0.33288">
        <ele>122</ele>
        <time>2022-09-11T08:41:58Z</time>
      </trkpt>
      <trkpt lat="46.53657" lon="0.33275">
        <ele>121</ele>
        <time>2022-09-11T08:42:00Z</time>
      </trkpt>
      <trkpt lat="46.53674" lon="0.33255">
        <ele>119.8</ele>
        <time>2022-09-11T08:42:03Z</time>
      </trkpt>
      <trkpt lat="46.53685" lon="0.33243">
        <ele>119.4</ele>
        <time>2022-09-11T08:42:05Z</time>
      </trkpt>
      <trkpt lat="46.53697" lon="0.33232">
        <ele>118.8</ele>
        <time>2022-09-11T08:42:07Z</time>
      </trkpt>
      <trkpt lat="46.53706" lon="0.33221">
        <ele>118.2</ele>
        <time>2022-09-11T08:42:09Z</time>
      </trkpt>
      <trkpt lat="46.53711" lon="0.33217">
        <ele>118</ele>
        <time>2022-09-11T08:42:10Z</time>
      </trkpt>
      <trkpt lat="46.53717" lon="0.33211">
        <ele>117.8</ele>
        <time>2022-09-11T08:42:12Z</time>
      </trkpt>
      <trkpt lat="46.5372" lon="0.33209">
        <ele>117</ele>
        <time>2022-09-11T08:42:13Z</time>
      </trkpt>
      <trkpt lat="46.53722" lon="0.33209">
        <ele>116.4</ele>
        <time>2022-09-11T08:42:14Z</time>
      </trkpt>
      <trkpt lat="46.53725" lon="0.3321">
        <ele>115.8</ele>
        <time>2022-09-11T08:42:16Z</time>
      </trkpt>
      <trkpt lat="46.53727" lon="0.33211">
        <ele>115.6</ele>
        <time>2022-09-11T08:42:17Z</time>
      </trkpt>
      <trkpt lat="46.53733" lon="0.33213">
        <ele>115.2</ele>
        <time>2022-09-11T08:42:23Z</time>
      </trkpt>
      <trkpt lat="46.53735" lon="0.33216">
        <ele>115.4</ele>
        <time>2022-09-11T08:42:35Z</time>
      </trkpt>
      <trkpt lat="46.53743" lon="0.33225">
        <ele>114.4</ele>
        <time>2022-09-11T08:42:43Z</time>
      </trkpt>
      <trkpt lat="46.53748" lon="0.33225">
        <ele>113</ele>
        <time>2022-09-11T08:42:46Z</time>
      </trkpt>
      <trkpt lat="46.53749" lon="0.33227">
        <ele>112.6</ele>
        <time>2022-09-11T08:42:47Z</time>
      </trkpt>
      <trkpt lat="46.53751" lon="0.33231">
        <ele>112.2</ele>
        <time>2022-09-11T08:42:49Z</time>
      </trkpt>
      <trkpt lat="46.53752" lon="0.33234">
        <ele>112.2</ele>
        <time>2022-09-11T08:42:50Z</time>
      </trkpt>
      <trkpt lat="46.53757" lon="0.33251">
        <ele>112.2</ele>
        <time>2022-09-11T08:42:55Z</time>
      </trkpt>
      <trkpt lat="46.53756" lon="0.33264">
        <ele>112</ele>
        <time>2022-09-11T08:42:59Z</time>
      </trkpt>
      <trkpt lat="46.53757" lon="0.33268">
        <ele>111.8</ele>
        <time>2022-09-11T08:43:00Z</time>
      </trkpt>
      <trkpt lat="46.53761" lon="0.33285">
        <ele>111</ele>
        <time>2022-09-11T08:43:04Z</time>
      </trkpt>
      <trkpt lat="46.53761" lon="0.33288">
        <ele>110.8</ele>
        <time>2022-09-11T08:43:05Z</time>
      </trkpt>
      <trkpt lat="46.5376" lon="0.33303">
        <ele>109.6</ele>
        <time>2022-09-11T08:43:09Z</time>
      </trkpt>
      <trkpt lat="46.53761" lon="0.33308">
        <ele>109.2</ele>
        <time>2022-09-11T08:43:11Z</time>
      </trkpt>
      <trkpt lat="46.53762" lon="0.33321">
        <ele>108.2</ele>
        <time>2022-09-11T08:43:15Z</time>
      </trkpt>
      <trkpt lat="46.53763" lon="0.33325">
        <ele>107.6</ele>
        <time>2022-09-11T08:43:16Z</time>
      </trkpt>
      <trkpt lat="46.53763" lon="0.33329">
        <ele>106.6</ele>
        <time>2022-09-11T08:43:17Z</time>
      </trkpt>
      <trkpt lat="46.53763" lon="0.33333">
        <ele>105.6</ele>
        <time>2022-09-11T08:43:18Z</time>
      </trkpt>
      <trkpt lat="46.53763" lon="0.33338">
        <ele>105.2</ele>
        <time>2022-09-11T08:43:19Z</time>
      </trkpt>
      <trkpt lat="46.53761" lon="0.33347">
        <ele>104.8</ele>
        <time>2022-09-11T08:43:21Z</time>
      </trkpt>
      <trkpt lat="46.5376" lon="0.33351">
        <ele>104.6</ele>
        <time>2022-09-11T08:43:22Z</time>
      </trkpt>
      <trkpt lat="46.5376" lon="0.33356">
        <ele>104.6</ele>
        <time>2022-09-11T08:43:23Z</time>
      </trkpt>
      <trkpt lat="46.53758" lon="0.33373">
        <ele>104</ele>
        <time>2022-09-11T08:43:26Z</time>
      </trkpt>
      <trkpt lat="46.53757" lon="0.33378">
        <ele>104</ele>
        <time>2022-09-11T08:43:27Z</time>
      </trkpt>
      <trkpt lat="46.53751" lon="0.33399">
        <ele>104</ele>
        <time>2022-09-11T08:43:32Z</time>
      </trkpt>
      <trkpt lat="46.5375" lon="0.3341">
        <ele>104</ele>
        <time>2022-09-11T08:43:34Z</time>
      </trkpt>
      <trkpt lat="46.53753" lon="0.33415">
        <ele>103.4</ele>
        <time>2022-09-11T08:43:36Z</time>
      </trkpt>
      <trkpt lat="46.53753" lon="0.33414">
        <ele>102.8</ele>
        <time>2022-09-11T08:43:37Z</time>
      </trkpt>
      <trkpt lat="46.53756" lon="0.33412">
        <ele>101.8</ele>
        <time>2022-09-11T08:43:40Z</time>
      </trkpt>
      <trkpt lat="46.53759" lon="0.33406">
        <ele>101.6</ele>
        <time>2022-09-11T08:43:43Z</time>
      </trkpt>
      <trkpt lat="46.5376" lon="0.33405">
        <ele>101.6</ele>
        <time>2022-09-11T08:43:44Z</time>
      </trkpt>
      <trkpt lat="46.53761" lon="0.33401">
        <ele>102.2</ele>
        <time>2022-09-11T08:43:46Z</time>
      </trkpt>
      <trkpt lat="46.53764" lon="0.33398">
        <ele>102</ele>
        <time>2022-09-11T08:43:48Z</time>
      </trkpt>
      <trkpt lat="46.5377" lon="0.33386">
        <ele>100.8</ele>
        <time>2022-09-11T08:43:53Z</time>
      </trkpt>
      <trkpt lat="46.53772" lon="0.33382">
        <ele>100</ele>
        <time>2022-09-11T08:43:54Z</time>
      </trkpt>
      <trkpt lat="46.53773" lon="0.33378">
        <ele>99</ele>
        <time>2022-09-11T08:43:55Z</time>
      </trkpt>
      <trkpt lat="46.53775" lon="0.33375">
        <ele>98.6</ele>
        <time>2022-09-11T08:43:56Z</time>
      </trkpt>
      <trkpt lat="46.53781" lon="0.33369">
        <ele>97.4</ele>
        <time>2022-09-11T08:43:58Z</time>
      </trkpt>
      <trkpt lat="46.53784" lon="0.33368">
        <ele>96.6</ele>
        <time>2022-09-11T08:43:59Z</time>
      </trkpt>
      <trkpt lat="46.53786" lon="0.33366">
        <ele>95.8</ele>
        <time>2022-09-11T08:44:00Z</time>
      </trkpt>
      <trkpt lat="46.53789" lon="0.33364">
        <ele>94.4</ele>
        <time>2022-09-11T08:44:01Z</time>
      </trkpt>
      <trkpt lat="46.53792" lon="0.33359">
        <ele>92.8</ele>
        <time>2022-09-11T08:44:03Z</time>
      </trkpt>
      <trkpt lat="46.53802" lon="0.33342">
        <ele>91.8</ele>
        <time>2022-09-11T08:44:08Z</time>
      </trkpt>
      <trkpt lat="46.53806" lon="0.33334">
        <ele>91.8</ele>
        <time>2022-09-11T08:44:10Z</time>
      </trkpt>
      <trkpt lat="46.53808" lon="0.3333">
        <ele>91.6</ele>
        <time>2022-09-11T08:44:11Z</time>
      </trkpt>
      <trkpt lat="46.53817" lon="0.33299">
        <ele>91</ele>
        <time>2022-09-11T08:44:16Z</time>
      </trkpt>
      <trkpt lat="46.53822" lon="0.33283">
        <ele>90.6</ele>
        <time>2022-09-11T08:44:18Z</time>
      </trkpt>
      <trkpt lat="46.53826" lon="0.33272">
        <ele>89.4</ele>
        <time>2022-09-11T08:44:20Z</time>
      </trkpt>
      <trkpt lat="46.53828" lon="0.33268">
        <ele>88.8</ele>
        <time>2022-09-11T08:44:21Z</time>
      </trkpt>
      <trkpt lat="46.53829" lon="0.33263">
        <ele>88.4</ele>
        <time>2022-09-11T08:44:22Z</time>
      </trkpt>
      <trkpt lat="46.53828" lon="0.33257">
        <ele>88</ele>
        <time>2022-09-11T08:44:24Z</time>
      </trkpt>
      <trkpt lat="46.53821" lon="0.33246">
        <ele>88.4</ele>
        <time>2022-09-11T08:44:29Z</time>
      </trkpt>
      <trkpt lat="46.53817" lon="0.33238">
        <ele>89.6</ele>
        <time>2022-09-11T08:44:33Z</time>
      </trkpt>
      <trkpt lat="46.53817" lon="0.33235">
        <ele>91.4</ele>
        <time>2022-09-11T08:44:35Z</time>
      </trkpt>
      <trkpt lat="46.53817" lon="0.33234">
        <ele>91.8</ele>
        <time>2022-09-11T08:44:36Z</time>
      </trkpt>
      <trkpt lat="46.53817" lon="0.33232">
        <ele>92.2</ele>
        <time>2022-09-11T08:44:37Z</time>
      </trkpt>
      <trkpt lat="46.53816" lon="0.33231">
        <ele>92.4</ele>
        <time>2022-09-11T08:44:38Z</time>
      </trkpt>
      <trkpt lat="46.53813" lon="0.33227">
        <ele>93.8</ele>
        <time>2022-09-11T08:44:41Z</time>
      </trkpt>
      <trkpt lat="46.53812" lon="0.33225">
        <ele>94.4</ele>
        <time>2022-09-11T08:44:43Z</time>
      </trkpt>
      <trkpt lat="46.5381" lon="0.33223">
        <ele>95</ele>
        <time>2022-09-11T08:44:45Z</time>
      </trkpt>
      <trkpt lat="46.53807" lon="0.33221">
        <ele>96.2</ele>
        <time>2022-09-11T08:44:48Z</time>
      </trkpt>
      <trkpt lat="46.53805" lon="0.33219">
        <ele>97</ele>
        <time>2022-09-11T08:44:50Z</time>
      </trkpt>
      <trkpt lat="46.53804" lon="0.33218">
        <ele>97.4</ele>
        <time>2022-09-11T08:44:51Z</time>
      </trkpt>
      <trkpt lat="46.53802" lon="0.33213">
        <ele>98.6</ele>
        <time>2022-09-11T08:44:54Z</time>
      </trkpt>
      <trkpt lat="46.53799" lon="0.33211">
        <ele>99.4</ele>
        <time>2022-09-11T08:44:56Z</time>
      </trkpt>
      <trkpt lat="46.53798" lon="0.3321">
        <ele>99.8</ele>
        <time>2022-09-11T08:44:57Z</time>
      </trkpt>
      <trkpt lat="46.53796" lon="0.33209">
        <ele>100</ele>
        <time>2022-09-11T08:44:58Z</time>
      </trkpt>
      <trkpt lat="46.53795" lon="0.33207">
        <ele>100.8</ele>
        <time>2022-09-11T08:45:00Z</time>
      </trkpt>
      <trkpt lat="46.53794" lon="0.33207">
        <ele>101</ele>
        <time>2022-09-11T08:45:01Z</time>
      </trkpt>
      <trkpt lat="46.53793" lon="0.33207">
        <ele>101.2</ele>
        <time>2022-09-11T08:45:02Z</time>
      </trkpt>
      <trkpt lat="46.5379" lon="0.33207">
        <ele>102</ele>
        <time>2022-09-11T08:45:04Z</time>
      </trkpt>
      <trkpt lat="46.53788" lon="0.33206">
        <ele>102.6</ele>
        <time>2022-09-11T08:45:06Z</time>
      </trkpt>
      <trkpt lat="46.53786" lon="0.33206">
        <ele>103.2</ele>
        <time>2022-09-11T08:45:08Z</time>
      </trkpt>
      <trkpt lat="46.53785" lon="0.33205">
        <ele>103.6</ele>
        <time>2022-09-11T08:45:09Z</time>
      </trkpt>
      <trkpt lat="46.53784" lon="0.33205">
        <ele>104.2</ele>
        <time>2022-09-11T08:45:11Z</time>
      </trkpt>
      <trkpt lat="46.53783" lon="0.33204">
        <ele>104.4</ele>
        <time>2022-09-11T08:45:17Z</time>
      </trkpt>
      <trkpt lat="46.53779" lon="0.33203">
        <ele>105.2</ele>
        <time>2022-09-11T08:45:23Z</time>
      </trkpt>
      <trkpt lat="46.53776" lon="0.33203">
        <ele>106.4</ele>
        <time>2022-09-11T08:45:29Z</time>
      </trkpt>
      <trkpt lat="46.53772" lon="0.33201">
        <ele>107.6</ele>
        <time>2022-09-11T08:45:35Z</time>
      </trkpt>
      <trkpt lat="46.53767" lon="0.33201">
        <ele>108.6</ele>
        <time>2022-09-11T08:45:43Z</time>
      </trkpt>
      <trkpt lat="46.53767" lon="0.33201">
        <ele>108.8</ele>
        <time>2022-09-11T08:45:44Z</time>
      </trkpt>
      <trkpt lat="46.53764" lon="0.332">
        <ele>109.8</ele>
        <time>2022-09-11T08:45:49Z</time>
      </trkpt>
      <trkpt lat="46.53764" lon="0.332">
        <ele>109.8</ele>
        <time>2022-09-11T08:45:54Z</time>
      </trkpt>
      <trkpt lat="46.5376" lon="0.33198">
        <ele>110.8</ele>
        <time>2022-09-11T08:46:02Z</time>
      </trkpt>
      <trkpt lat="46.5376" lon="0.33197">
        <ele>110.8</ele>
        <time>2022-09-11T08:46:03Z</time>
      </trkpt>
      <trkpt lat="46.53758" lon="0.33194">
        <ele>111.4</ele>
        <time>2022-09-11T08:46:05Z</time>
      </trkpt>
      <trkpt lat="46.53757" lon="0.33191">
        <ele>112</ele>
        <time>2022-09-11T08:46:07Z</time>
      </trkpt>
      <trkpt lat="46.53753" lon="0.33184">
        <ele>113.2</ele>
        <time>2022-09-11T08:46:12Z</time>
      </trkpt>
      <trkpt lat="46.53753" lon="0.3318">
        <ele>113.8</ele>
        <time>2022-09-11T08:46:14Z</time>
      </trkpt>
      <trkpt lat="46.53755" lon="0.33175">
        <ele>114.4</ele>
        <time>2022-09-11T08:46:16Z</time>
      </trkpt>
      <trkpt lat="46.53756" lon="0.33172">
        <ele>114.6</ele>
        <time>2022-09-11T08:46:17Z</time>
      </trkpt>
      <trkpt lat="46.53765" lon="0.33149">
        <ele>114.8</ele>
        <time>2022-09-11T08:46:25Z</time>
      </trkpt>
      <trkpt lat="46.53775" lon="0.33123">
        <ele>115</ele>
        <time>2022-09-11T08:46:32Z</time>
      </trkpt>
      <trkpt lat="46.53784" lon="0.33104">
        <ele>114.8</ele>
        <time>2022-09-11T08:46:37Z</time>
      </trkpt>
      <trkpt lat="46.53792" lon="0.33085">
        <ele>114.8</ele>
        <time>2022-09-11T08:46:41Z</time>
      </trkpt>
      <trkpt lat="46.53797" lon="0.33071">
        <ele>114.4</ele>
        <time>2022-09-11T08:46:43Z</time>
      </trkpt>
      <trkpt lat="46.538" lon="0.33064">
        <ele>114.4</ele>
        <time>2022-09-11T08:46:44Z</time>
      </trkpt>
      <trkpt lat="46.53806" lon="0.3305">
        <ele>114</ele>
        <time>2022-09-11T08:46:46Z</time>
      </trkpt>
      <trkpt lat="46.53811" lon="0.33037">
        <ele>113.8</ele>
        <time>2022-09-11T08:46:48Z</time>
      </trkpt>
      <trkpt lat="46.53817" lon="0.33023">
        <ele>114</ele>
        <time>2022-09-11T08:46:51Z</time>
      </trkpt>
      <trkpt lat="46.53819" lon="0.33014">
        <ele>114.4</ele>
        <time>2022-09-11T08:46:53Z</time>
      </trkpt>
      <trkpt lat="46.53825" lon="0.32999">
        <ele>115.4</ele>
        <time>2022-09-11T08:46:57Z</time>
      </trkpt>
      <trkpt lat="46.53829" lon="0.32991">
        <ele>116</ele>
        <time>2022-09-11T08:46:59Z</time>
      </trkpt>
      <trkpt lat="46.53836" lon="0.32981">
        <ele>116.6</ele>
        <time>2022-09-11T08:47:02Z</time>
      </trkpt>
      <trkpt lat="46.53842" lon="0.32976">
        <ele>116.4</ele>
        <time>2022-09-11T08:47:04Z</time>
      </trkpt>
      <trkpt lat="46.53854" lon="0.32971">
        <ele>116</ele>
        <time>2022-09-11T08:47:08Z</time>
      </trkpt>
      <trkpt lat="46.5386" lon="0.32965">
        <ele>115.4</ele>
        <time>2022-09-11T08:47:10Z</time>
      </trkpt>
      <trkpt lat="46.53865" lon="0.32958">
        <ele>115.2</ele>
        <time>2022-09-11T08:47:12Z</time>
      </trkpt>
      <trkpt lat="46.53877" lon="0.32942">
        <ele>114.6</ele>
        <time>2022-09-11T08:47:18Z</time>
      </trkpt>
      <trkpt lat="46.53887" lon="0.32925">
        <ele>115.8</ele>
        <time>2022-09-11T08:47:24Z</time>
      </trkpt>
      <trkpt lat="46.53888" lon="0.3292">
        <ele>116.4</ele>
        <time>2022-09-11T08:47:26Z</time>
      </trkpt>
      <trkpt lat="46.53894" lon="0.32908">
        <ele>117.4</ele>
        <time>2022-09-11T08:47:30Z</time>
      </trkpt>
      <trkpt lat="46.53904" lon="0.32889">
        <ele>117.4</ele>
        <time>2022-09-11T08:47:35Z</time>
      </trkpt>
      <trkpt lat="46.53912" lon="0.32883">
        <ele>117</ele>
        <time>2022-09-11T08:47:38Z</time>
      </trkpt>
      <trkpt lat="46.53918" lon="0.32877">
        <ele>116.6</ele>
        <time>2022-09-11T08:47:40Z</time>
      </trkpt>
      <trkpt lat="46.53929" lon="0.32874">
        <ele>115.4</ele>
        <time>2022-09-11T08:47:44Z</time>
      </trkpt>
      <trkpt lat="46.53936" lon="0.32861">
        <ele>114.4</ele>
        <time>2022-09-11T08:47:48Z</time>
      </trkpt>
      <trkpt lat="46.53938" lon="0.32858">
        <ele>114.2</ele>
        <time>2022-09-11T08:47:49Z</time>
      </trkpt>
      <trkpt lat="46.53945" lon="0.32854">
        <ele>114</ele>
        <time>2022-09-11T08:47:52Z</time>
      </trkpt>
      <trkpt lat="46.5395" lon="0.32852">
        <ele>113.6</ele>
        <time>2022-09-11T08:47:54Z</time>
      </trkpt>
      <trkpt lat="46.53953" lon="0.3285">
        <ele>113.4</ele>
        <time>2022-09-11T08:47:56Z</time>
      </trkpt>
      <trkpt lat="46.53956" lon="0.32846">
        <ele>113.2</ele>
        <time>2022-09-11T08:47:58Z</time>
      </trkpt>
      <trkpt lat="46.53961" lon="0.32843">
        <ele>112.6</ele>
        <time>2022-09-11T08:48:00Z</time>
      </trkpt>
      <trkpt lat="46.53969" lon="0.32837">
        <ele>112</ele>
        <time>2022-09-11T08:48:02Z</time>
      </trkpt>
      <trkpt lat="46.53971" lon="0.32833">
        <ele>111.6</ele>
        <time>2022-09-11T08:48:03Z</time>
      </trkpt>
      <trkpt lat="46.53972" lon="0.32831">
        <ele>111.4</ele>
        <time>2022-09-11T08:48:04Z</time>
      </trkpt>
      <trkpt lat="46.53972" lon="0.32828">
        <ele>110.8</ele>
        <time>2022-09-11T08:48:05Z</time>
      </trkpt>
      <trkpt lat="46.53968" lon="0.32826">
        <ele>110</ele>
        <time>2022-09-11T08:48:07Z</time>
      </trkpt>
      <trkpt lat="46.53968" lon="0.32825">
        <ele>109.8</ele>
        <time>2022-09-11T08:48:08Z</time>
      </trkpt>
      <trkpt lat="46.53968" lon="0.32825">
        <ele>109.6</ele>
        <time>2022-09-11T08:48:09Z</time>
      </trkpt>
      <trkpt lat="46.53968" lon="0.32823">
        <ele>109.4</ele>
        <time>2022-09-11T08:48:10Z</time>
      </trkpt>
      <trkpt lat="46.53966" lon="0.3282">
        <ele>109</ele>
        <time>2022-09-11T08:48:12Z</time>
      </trkpt>
      <trkpt lat="46.53954" lon="0.32817">
        <ele>108.6</ele>
        <time>2022-09-11T08:48:17Z</time>
      </trkpt>
      <trkpt lat="46.5393" lon="0.32817">
        <ele>110.4</ele>
        <time>2022-09-11T08:48:25Z</time>
      </trkpt>
      <trkpt lat="46.53928" lon="0.32817">
        <ele>110.6</ele>
        <time>2022-09-11T08:48:26Z</time>
      </trkpt>
      <trkpt lat="46.5392" lon="0.32817">
        <ele>111.8</ele>
        <time>2022-09-11T08:48:29Z</time>
      </trkpt>
      <trkpt lat="46.53913" lon="0.32817">
        <ele>113</ele>
        <time>2022-09-11T08:48:32Z</time>
      </trkpt>
      <trkpt lat="46.5391" lon="0.32817">
        <ele>113</ele>
        <time>2022-09-11T08:48:33Z</time>
      </trkpt>
      <trkpt lat="46.53893" lon="0.32813">
        <ele>113.8</ele>
        <time>2022-09-11T08:48:39Z</time>
      </trkpt>
      <trkpt lat="46.5389" lon="0.32813">
        <ele>114</ele>
        <time>2022-09-11T08:48:40Z</time>
      </trkpt>
      <trkpt lat="46.53874" lon="0.32807">
        <ele>114.2</ele>
        <time>2022-09-11T08:48:45Z</time>
      </trkpt>
      <trkpt lat="46.53867" lon="0.32801">
        <ele>114.4</ele>
        <time>2022-09-11T08:48:47Z</time>
      </trkpt>
      <trkpt lat="46.53838" lon="0.32788">
        <ele>114.8</ele>
        <time>2022-09-11T08:48:53Z</time>
      </trkpt>
      <trkpt lat="46.53828" lon="0.32784">
        <ele>115.2</ele>
        <time>2022-09-11T08:48:55Z</time>
      </trkpt>
      <trkpt lat="46.53808" lon="0.32776">
        <ele>115.6</ele>
        <time>2022-09-11T08:48:59Z</time>
      </trkpt>
      <trkpt lat="46.53778" lon="0.32769">
        <ele>115.6</ele>
        <time>2022-09-11T08:49:05Z</time>
      </trkpt>
      <trkpt lat="46.53769" lon="0.32767">
        <ele>115.6</ele>
        <time>2022-09-11T08:49:07Z</time>
      </trkpt>
      <trkpt lat="46.53756" lon="0.32765">
        <ele>116.2</ele>
        <time>2022-09-11T08:49:10Z</time>
      </trkpt>
      <trkpt lat="46.53752" lon="0.32764">
        <ele>116.4</ele>
        <time>2022-09-11T08:49:11Z</time>
      </trkpt>
      <trkpt lat="46.53716" lon="0.32757">
        <ele>117.4</ele>
        <time>2022-09-11T08:49:19Z</time>
      </trkpt>
      <trkpt lat="46.53708" lon="0.32755">
        <ele>117.8</ele>
        <time>2022-09-11T08:49:21Z</time>
      </trkpt>
      <trkpt lat="46.53704" lon="0.32754">
        <ele>118</ele>
        <time>2022-09-11T08:49:22Z</time>
      </trkpt>
      <trkpt lat="46.53689" lon="0.32752">
        <ele>118.6</ele>
        <time>2022-09-11T08:49:26Z</time>
      </trkpt>
      <trkpt lat="46.53668" lon="0.32751">
        <ele>119.6</ele>
        <time>2022-09-11T08:49:32Z</time>
      </trkpt>
      <trkpt lat="46.53656" lon="0.32749">
        <ele>120.8</ele>
        <time>2022-09-11T08:49:37Z</time>
      </trkpt>
      <trkpt lat="46.53654" lon="0.32747">
        <ele>121</ele>
        <time>2022-09-11T08:49:38Z</time>
      </trkpt>
      <trkpt lat="46.53648" lon="0.32735">
        <ele>121.2</ele>
        <time>2022-09-11T08:49:42Z</time>
      </trkpt>
      <trkpt lat="46.53649" lon="0.3273">
        <ele>121</ele>
        <time>2022-09-11T08:49:43Z</time>
      </trkpt>
      <trkpt lat="46.5365" lon="0.32726">
        <ele>120.8</ele>
        <time>2022-09-11T08:49:44Z</time>
      </trkpt>
      <trkpt lat="46.53658" lon="0.32712">
        <ele>119.6</ele>
        <time>2022-09-11T08:49:47Z</time>
      </trkpt>
      <trkpt lat="46.5366" lon="0.32705">
        <ele>118.6</ele>
        <time>2022-09-11T08:49:48Z</time>
      </trkpt>
      <trkpt lat="46.53661" lon="0.327">
        <ele>117.8</ele>
        <time>2022-09-11T08:49:49Z</time>
      </trkpt>
      <trkpt lat="46.53661" lon="0.32692">
        <ele>117.2</ele>
        <time>2022-09-11T08:49:50Z</time>
      </trkpt>
      <trkpt lat="46.53661" lon="0.32686">
        <ele>116</ele>
        <time>2022-09-11T08:49:51Z</time>
      </trkpt>
      <trkpt lat="46.5366" lon="0.32681">
        <ele>115</ele>
        <time>2022-09-11T08:49:52Z</time>
      </trkpt>
      <trkpt lat="46.53659" lon="0.32677">
        <ele>112.8</ele>
        <time>2022-09-11T08:49:53Z</time>
      </trkpt>
      <trkpt lat="46.53657" lon="0.32673">
        <ele>111.8</ele>
        <time>2022-09-11T08:49:54Z</time>
      </trkpt>
      <trkpt lat="46.53651" lon="0.32668">
        <ele>110.4</ele>
        <time>2022-09-11T08:49:56Z</time>
      </trkpt>
      <trkpt lat="46.53645" lon="0.32661">
        <ele>110</ele>
        <time>2022-09-11T08:49:58Z</time>
      </trkpt>
      <trkpt lat="46.53644" lon="0.32657">
        <ele>109.8</ele>
        <time>2022-09-11T08:49:59Z</time>
      </trkpt>
      <trkpt lat="46.53644" lon="0.32652">
        <ele>109.6</ele>
        <time>2022-09-11T08:50:00Z</time>
      </trkpt>
      <trkpt lat="46.53644" lon="0.32648">
        <ele>109.4</ele>
        <time>2022-09-11T08:50:01Z</time>
      </trkpt>
      <trkpt lat="46.53646" lon="0.32645">
        <ele>109</ele>
        <time>2022-09-11T08:50:02Z</time>
      </trkpt>
      <trkpt lat="46.53649" lon="0.32642">
        <ele>108.8</ele>
        <time>2022-09-11T08:50:03Z</time>
      </trkpt>
      <trkpt lat="46.53651" lon="0.32638">
        <ele>108</ele>
        <time>2022-09-11T08:50:04Z</time>
      </trkpt>
      <trkpt lat="46.53652" lon="0.32633">
        <ele>107.4</ele>
        <time>2022-09-11T08:50:05Z</time>
      </trkpt>
      <trkpt lat="46.53653" lon="0.32629">
        <ele>106.6</ele>
        <time>2022-09-11T08:50:06Z</time>
      </trkpt>
      <trkpt lat="46.53653" lon="0.32624">
        <ele>105.4</ele>
        <time>2022-09-11T08:50:07Z</time>
      </trkpt>
      <trkpt lat="46.53654" lon="0.3262">
        <ele>104</ele>
        <time>2022-09-11T08:50:08Z</time>
      </trkpt>
      <trkpt lat="46.53653" lon="0.32613">
        <ele>102.4</ele>
        <time>2022-09-11T08:50:10Z</time>
      </trkpt>
      <trkpt lat="46.53651" lon="0.32611">
        <ele>101.8</ele>
        <time>2022-09-11T08:50:11Z</time>
      </trkpt>
      <trkpt lat="46.53648" lon="0.32606">
        <ele>101.6</ele>
        <time>2022-09-11T08:50:13Z</time>
      </trkpt>
      <trkpt lat="46.53646" lon="0.32604">
        <ele>101.6</ele>
        <time>2022-09-11T08:50:15Z</time>
      </trkpt>
      <trkpt lat="46.53635" lon="0.32601">
        <ele>102.6</ele>
        <time>2022-09-11T08:50:21Z</time>
      </trkpt>
      <trkpt lat="46.53626" lon="0.32597">
        <ele>103.6</ele>
        <time>2022-09-11T08:50:25Z</time>
      </trkpt>
      <trkpt lat="46.5362" lon="0.32597">
        <ele>104.6</ele>
        <time>2022-09-11T08:50:28Z</time>
      </trkpt>
      <trkpt lat="46.53619" lon="0.32598">
        <ele>104.8</ele>
        <time>2022-09-11T08:50:29Z</time>
      </trkpt>
      <trkpt lat="46.53609" lon="0.32602">
        <ele>105.8</ele>
        <time>2022-09-11T08:50:35Z</time>
      </trkpt>
      <trkpt lat="46.53607" lon="0.32602">
        <ele>106</ele>
        <time>2022-09-11T08:50:36Z</time>
      </trkpt>
      <trkpt lat="46.53598" lon="0.32606">
        <ele>107.2</ele>
        <time>2022-09-11T08:50:41Z</time>
      </trkpt>
      <trkpt lat="46.53595" lon="0.32606">
        <ele>107.8</ele>
        <time>2022-09-11T08:50:43Z</time>
      </trkpt>
      <trkpt lat="46.53592" lon="0.32606">
        <ele>108.2</ele>
        <time>2022-09-11T08:50:45Z</time>
      </trkpt>
      <trkpt lat="46.53582" lon="0.32608">
        <ele>109</ele>
        <time>2022-09-11T08:50:50Z</time>
      </trkpt>
      <trkpt lat="46.53578" lon="0.32608">
        <ele>109.2</ele>
        <time>2022-09-11T08:50:52Z</time>
      </trkpt>
      <trkpt lat="46.5357" lon="0.32608">
        <ele>110.4</ele>
        <time>2022-09-11T08:50:56Z</time>
      </trkpt>
      <trkpt lat="46.53568" lon="0.32608">
        <ele>110.6</ele>
        <time>2022-09-11T08:50:57Z</time>
      </trkpt>
      <trkpt lat="46.53563" lon="0.32607">
        <ele>111.4</ele>
        <time>2022-09-11T08:50:59Z</time>
      </trkpt>
      <trkpt lat="46.53558" lon="0.32608">
        <ele>111.6</ele>
        <time>2022-09-11T08:51:02Z</time>
      </trkpt>
      <trkpt lat="46.5355" lon="0.32612">
        <ele>112.6</ele>
        <time>2022-09-11T08:51:07Z</time>
      </trkpt>
      <trkpt lat="46.53548" lon="0.32612">
        <ele>112.8</ele>
        <time>2022-09-11T08:51:08Z</time>
      </trkpt>
      <trkpt lat="46.5354" lon="0.32617">
        <ele>113.6</ele>
        <time>2022-09-11T08:51:12Z</time>
      </trkpt>
      <trkpt lat="46.53536" lon="0.32618">
        <ele>114</ele>
        <time>2022-09-11T08:51:14Z</time>
      </trkpt>
      <trkpt lat="46.5353" lon="0.3262">
        <ele>114.6</ele>
        <time>2022-09-11T08:51:17Z</time>
      </trkpt>
      <trkpt lat="46.5352" lon="0.32625">
        <ele>115.6</ele>
        <time>2022-09-11T08:51:22Z</time>
      </trkpt>
      <trkpt lat="46.53518" lon="0.32625">
        <ele>115.8</ele>
        <time>2022-09-11T08:51:23Z</time>
      </trkpt>
      <trkpt lat="46.53509" lon="0.32629">
        <ele>116.4</ele>
        <time>2022-09-11T08:51:28Z</time>
      </trkpt>
      <trkpt lat="46.53504" lon="0.32632">
        <ele>116.8</ele>
        <time>2022-09-11T08:51:31Z</time>
      </trkpt>
      <trkpt lat="46.53499" lon="0.32634">
        <ele>117.6</ele>
        <time>2022-09-11T08:51:34Z</time>
      </trkpt>
      <trkpt lat="46.53499" lon="0.32634">
        <ele>118.2</ele>
        <time>2022-09-11T08:51:35Z</time>
      </trkpt>
      <trkpt lat="46.53481" lon="0.3264">
        <ele>119</ele>
        <time>2022-09-11T08:51:41Z</time>
      </trkpt>
      <trkpt lat="46.53478" lon="0.32641">
        <ele>119.4</ele>
        <time>2022-09-11T08:51:42Z</time>
      </trkpt>
      <trkpt lat="46.53465" lon="0.32647">
        <ele>120.2</ele>
        <time>2022-09-11T08:51:48Z</time>
      </trkpt>
      <trkpt lat="46.53463" lon="0.32648">
        <ele>120.4</ele>
        <time>2022-09-11T08:51:49Z</time>
      </trkpt>
      <trkpt lat="46.53454" lon="0.32652">
        <ele>121.6</ele>
        <time>2022-09-11T08:51:54Z</time>
      </trkpt>
      <trkpt lat="46.53447" lon="0.32654">
        <ele>122</ele>
        <time>2022-09-11T08:51:57Z</time>
      </trkpt>
      <trkpt lat="46.5343" lon="0.32655">
        <ele>122.6</ele>
        <time>2022-09-11T08:52:03Z</time>
      </trkpt>
      <trkpt lat="46.53422" lon="0.32657">
        <ele>123.4</ele>
        <time>2022-09-11T08:52:06Z</time>
      </trkpt>
      <trkpt lat="46.5341" lon="0.32658">
        <ele>123.8</ele>
        <time>2022-09-11T08:52:10Z</time>
      </trkpt>
      <trkpt lat="46.53404" lon="0.32656">
        <ele>124.2</ele>
        <time>2022-09-11T08:52:12Z</time>
      </trkpt>
      <trkpt lat="46.53384" lon="0.32647">
        <ele>124.4</ele>
        <time>2022-09-11T08:52:18Z</time>
      </trkpt>
      <trkpt lat="46.53374" lon="0.32642">
        <ele>124.6</ele>
        <time>2022-09-11T08:52:21Z</time>
      </trkpt>
      <trkpt lat="46.53361" lon="0.32635">
        <ele>124.4</ele>
        <time>2022-09-11T08:52:24Z</time>
      </trkpt>
      <trkpt lat="46.5333" lon="0.32619">
        <ele>124</ele>
        <time>2022-09-11T08:52:30Z</time>
      </trkpt>
      <trkpt lat="46.53317" lon="0.32612">
        <ele>124.2</ele>
        <time>2022-09-11T08:52:33Z</time>
      </trkpt>
      <trkpt lat="46.5331" lon="0.32607">
        <ele>124.4</ele>
        <time>2022-09-11T08:52:35Z</time>
      </trkpt>
      <trkpt lat="46.53307" lon="0.32598">
        <ele>124.4</ele>
        <time>2022-09-11T08:52:37Z</time>
      </trkpt>
      <trkpt lat="46.53306" lon="0.32593">
        <ele>124.4</ele>
        <time>2022-09-11T08:52:38Z</time>
      </trkpt>
      <trkpt lat="46.533" lon="0.32567">
        <ele>123.2</ele>
        <time>2022-09-11T08:52:42Z</time>
      </trkpt>
      <trkpt lat="46.53298" lon="0.32561">
        <ele>123</ele>
        <time>2022-09-11T08:52:43Z</time>
      </trkpt>
      <trkpt lat="46.53296" lon="0.32555">
        <ele>122.6</ele>
        <time>2022-09-11T08:52:44Z</time>
      </trkpt>
      <trkpt lat="46.53292" lon="0.32544">
        <ele>122</ele>
        <time>2022-09-11T08:52:46Z</time>
      </trkpt>
      <trkpt lat="46.5329" lon="0.32539">
        <ele>121.6</ele>
        <time>2022-09-11T08:52:47Z</time>
      </trkpt>
      <trkpt lat="46.53288" lon="0.32534">
        <ele>121</ele>
        <time>2022-09-11T08:52:48Z</time>
      </trkpt>
      <trkpt lat="46.53285" lon="0.32521">
        <ele>120.6</ele>
        <time>2022-09-11T08:52:50Z</time>
      </trkpt>
      <trkpt lat="46.53281" lon="0.32503">
        <ele>119.6</ele>
        <time>2022-09-11T08:52:53Z</time>
      </trkpt>
      <trkpt lat="46.53281" lon="0.32499">
        <ele>118.8</ele>
        <time>2022-09-11T08:52:54Z</time>
      </trkpt>
      <trkpt lat="46.53284" lon="0.32488">
        <ele>118.4</ele>
        <time>2022-09-11T08:52:56Z</time>
      </trkpt>
      <trkpt lat="46.53285" lon="0.32483">
        <ele>118</ele>
        <time>2022-09-11T08:52:57Z</time>
      </trkpt>
      <trkpt lat="46.53286" lon="0.32477">
        <ele>117.6</ele>
        <time>2022-09-11T08:52:58Z</time>
      </trkpt>
      <trkpt lat="46.53287" lon="0.32471">
        <ele>117.2</ele>
        <time>2022-09-11T08:52:59Z</time>
      </trkpt>
      <trkpt lat="46.53288" lon="0.32467">
        <ele>116.6</ele>
        <time>2022-09-11T08:53:00Z</time>
      </trkpt>
      <trkpt lat="46.5329" lon="0.32466">
        <ele>116.2</ele>
        <time>2022-09-11T08:53:01Z</time>
      </trkpt>
      <trkpt lat="46.53295" lon="0.32465">
        <ele>115.4</ele>
        <time>2022-09-11T08:53:03Z</time>
      </trkpt>
      <trkpt lat="46.53298" lon="0.32464">
        <ele>114.8</ele>
        <time>2022-09-11T08:53:04Z</time>
      </trkpt>
      <trkpt lat="46.53301" lon="0.32463">
        <ele>114.4</ele>
        <time>2022-09-11T08:53:05Z</time>
      </trkpt>
      <trkpt lat="46.53304" lon="0.32462">
        <ele>113.4</ele>
        <time>2022-09-11T08:53:06Z</time>
      </trkpt>
      <trkpt lat="46.53307" lon="0.32463">
        <ele>112.6</ele>
        <time>2022-09-11T08:53:07Z</time>
      </trkpt>
      <trkpt lat="46.53309" lon="0.32464">
        <ele>112.2</ele>
        <time>2022-09-11T08:53:08Z</time>
      </trkpt>
      <trkpt lat="46.53313" lon="0.32465">
        <ele>110.6</ele>
        <time>2022-09-11T08:53:10Z</time>
      </trkpt>
      <trkpt lat="46.53317" lon="0.32463">
        <ele>109</ele>
        <time>2022-09-11T08:53:12Z</time>
      </trkpt>
      <trkpt lat="46.5332" lon="0.32462">
        <ele>107.8</ele>
        <time>2022-09-11T08:53:14Z</time>
      </trkpt>
      <trkpt lat="46.53323" lon="0.3246">
        <ele>107.2</ele>
        <time>2022-09-11T08:53:15Z</time>
      </trkpt>
      <trkpt lat="46.53327" lon="0.32457">
        <ele>105.4</ele>
        <time>2022-09-11T08:53:17Z</time>
      </trkpt>
      <trkpt lat="46.53328" lon="0.32454">
        <ele>104.4</ele>
        <time>2022-09-11T08:53:18Z</time>
      </trkpt>
      <trkpt lat="46.5333" lon="0.32451">
        <ele>103.8</ele>
        <time>2022-09-11T08:53:19Z</time>
      </trkpt>
      <trkpt lat="46.53332" lon="0.32451">
        <ele>103.4</ele>
        <time>2022-09-11T08:53:20Z</time>
      </trkpt>
      <trkpt lat="46.53336" lon="0.32453">
        <ele>102.2</ele>
        <time>2022-09-11T08:53:22Z</time>
      </trkpt>
      <trkpt lat="46.5334" lon="0.32459">
        <ele>101.4</ele>
        <time>2022-09-11T08:53:25Z</time>
      </trkpt>
      <trkpt lat="46.53347" lon="0.32467">
        <ele>103.4</ele>
        <time>2022-09-11T08:53:32Z</time>
      </trkpt>
      <trkpt lat="46.53347" lon="0.32468">
        <ele>103.8</ele>
        <time>2022-09-11T08:53:33Z</time>
      </trkpt>
      <trkpt lat="46.53348" lon="0.32471">
        <ele>104.6</ele>
        <time>2022-09-11T08:53:36Z</time>
      </trkpt>
      <trkpt lat="46.53349" lon="0.32472">
        <ele>104.8</ele>
        <time>2022-09-11T08:53:37Z</time>
      </trkpt>
      <trkpt lat="46.5335" lon="0.32472">
        <ele>105</ele>
        <time>2022-09-11T08:53:39Z</time>
      </trkpt>
      <trkpt lat="46.53351" lon="0.32472">
        <ele>105.2</ele>
        <time>2022-09-11T08:53:40Z</time>
      </trkpt>
      <trkpt lat="46.53354" lon="0.32474">
        <ele>105.2</ele>
        <time>2022-09-11T08:53:43Z</time>
      </trkpt>
      <trkpt lat="46.53359" lon="0.32476">
        <ele>105.4</ele>
        <time>2022-09-11T08:53:46Z</time>
      </trkpt>
      <trkpt lat="46.53366" lon="0.32474">
        <ele>104.8</ele>
        <time>2022-09-11T08:53:50Z</time>
      </trkpt>
      <trkpt lat="46.53369" lon="0.32475">
        <ele>104.4</ele>
        <time>2022-09-11T08:53:51Z</time>
      </trkpt>
      <trkpt lat="46.53376" lon="0.32478">
        <ele>103.6</ele>
        <time>2022-09-11T08:53:54Z</time>
      </trkpt>
      <trkpt lat="46.53381" lon="0.3248">
        <ele>103</ele>
        <time>2022-09-11T08:53:57Z</time>
      </trkpt>
      <trkpt lat="46.53387" lon="0.32479">
        <ele>102.4</ele>
        <time>2022-09-11T08:54:00Z</time>
      </trkpt>
      <trkpt lat="46.53391" lon="0.3248">
        <ele>101.6</ele>
        <time>2022-09-11T08:54:02Z</time>
      </trkpt>
      <trkpt lat="46.53394" lon="0.32481">
        <ele>101.4</ele>
        <time>2022-09-11T08:54:03Z</time>
      </trkpt>
      <trkpt lat="46.53401" lon="0.32485">
        <ele>100.2</ele>
        <time>2022-09-11T08:54:06Z</time>
      </trkpt>
      <trkpt lat="46.53404" lon="0.32486">
        <ele>99.8</ele>
        <time>2022-09-11T08:54:08Z</time>
      </trkpt>
      <trkpt lat="46.53405" lon="0.32487">
        <ele>99.2</ele>
        <time>2022-09-11T08:54:10Z</time>
      </trkpt>
      <trkpt lat="46.53409" lon="0.32488">
        <ele>98.8</ele>
        <time>2022-09-11T08:54:16Z</time>
      </trkpt>
      <trkpt lat="46.53414" lon="0.3249">
        <ele>99.2</ele>
        <time>2022-09-11T08:54:31Z</time>
      </trkpt>
      <trkpt lat="46.53421" lon="0.3249">
        <ele>99</ele>
        <time>2022-09-11T08:54:46Z</time>
      </trkpt>
      <trkpt lat="46.53431" lon="0.32492">
        <ele>98.8</ele>
        <time>2022-09-11T08:55:01Z</time>
      </trkpt>
      <trkpt lat="46.53435" lon="0.32494">
        <ele>98</ele>
        <time>2022-09-11T08:55:06Z</time>
      </trkpt>
      <trkpt lat="46.53435" lon="0.32495">
        <ele>98</ele>
        <time>2022-09-11T08:55:07Z</time>
      </trkpt>
      <trkpt lat="46.53437" lon="0.32496">
        <ele>97.8</ele>
        <time>2022-09-11T08:55:14Z</time>
      </trkpt>
      <trkpt lat="46.53438" lon="0.32495">
        <ele>96.8</ele>
        <time>2022-09-11T08:55:22Z</time>
      </trkpt>
      <trkpt lat="46.5344" lon="0.32495">
        <ele>95.8</ele>
        <time>2022-09-11T08:55:25Z</time>
      </trkpt>
      <trkpt lat="46.53442" lon="0.32493">
        <ele>94.8</ele>
        <time>2022-09-11T08:55:27Z</time>
      </trkpt>
      <trkpt lat="46.53443" lon="0.32493">
        <ele>94.4</ele>
        <time>2022-09-11T08:55:28Z</time>
      </trkpt>
      <trkpt lat="46.53444" lon="0.32493">
        <ele>93</ele>
        <time>2022-09-11T08:55:30Z</time>
      </trkpt>
      <trkpt lat="46.53447" lon="0.32493">
        <ele>92.4</ele>
        <time>2022-09-11T08:55:32Z</time>
      </trkpt>
      <trkpt lat="46.53449" lon="0.32493">
        <ele>91.6</ele>
        <time>2022-09-11T08:55:34Z</time>
      </trkpt>
      <trkpt lat="46.5345" lon="0.32494">
        <ele>91.4</ele>
        <time>2022-09-11T08:55:35Z</time>
      </trkpt>
      <trkpt lat="46.53451" lon="0.32494">
        <ele>91</ele>
        <time>2022-09-11T08:55:37Z</time>
      </trkpt>
      <trkpt lat="46.53453" lon="0.32494">
        <ele>90.2</ele>
        <time>2022-09-11T08:55:39Z</time>
      </trkpt>
      <trkpt lat="46.53454" lon="0.32494">
        <ele>89.2</ele>
        <time>2022-09-11T08:55:44Z</time>
      </trkpt>
      <trkpt lat="46.53456" lon="0.32493">
        <ele>88</ele>
        <time>2022-09-11T08:55:50Z</time>
      </trkpt>
      <trkpt lat="46.53457" lon="0.32492">
        <ele>87</ele>
        <time>2022-09-11T08:55:55Z</time>
      </trkpt>
      <trkpt lat="46.53457" lon="0.3249">
        <ele>85.8</ele>
        <time>2022-09-11T08:55:59Z</time>
      </trkpt>
      <trkpt lat="46.53457" lon="0.3249">
        <ele>85.2</ele>
        <time>2022-09-11T08:56:04Z</time>
      </trkpt>
      <trkpt lat="46.53456" lon="0.32483">
        <ele>84.6</ele>
        <time>2022-09-11T08:56:12Z</time>
      </trkpt>
      <trkpt lat="46.53456" lon="0.32482">
        <ele>84.4</ele>
        <time>2022-09-11T08:56:13Z</time>
      </trkpt>
      <trkpt lat="46.53458" lon="0.3248">
        <ele>84.2</ele>
        <time>2022-09-11T08:56:15Z</time>
      </trkpt>
      <trkpt lat="46.53461" lon="0.32477">
        <ele>83.8</ele>
        <time>2022-09-11T08:56:18Z</time>
      </trkpt>
      <trkpt lat="46.53463" lon="0.32473">
        <ele>83.6</ele>
        <time>2022-09-11T08:56:20Z</time>
      </trkpt>
      <trkpt lat="46.53464" lon="0.32472">
        <ele>83.6</ele>
        <time>2022-09-11T08:56:21Z</time>
      </trkpt>
      <trkpt lat="46.53466" lon="0.3247">
        <ele>83.8</ele>
        <time>2022-09-11T08:56:23Z</time>
      </trkpt>
      <trkpt lat="46.53469" lon="0.32461">
        <ele>84.8</ele>
        <time>2022-09-11T08:56:29Z</time>
      </trkpt>
      <trkpt lat="46.53469" lon="0.32459">
        <ele>84.8</ele>
        <time>2022-09-11T08:56:30Z</time>
      </trkpt>
      <trkpt lat="46.5347" lon="0.32457">
        <ele>84.8</ele>
        <time>2022-09-11T08:56:31Z</time>
      </trkpt>
      <trkpt lat="46.53465" lon="0.32446">
        <ele>85</ele>
        <time>2022-09-11T08:56:35Z</time>
      </trkpt>
      <trkpt lat="46.53452" lon="0.32432">
        <ele>85.2</ele>
        <time>2022-09-11T08:56:41Z</time>
      </trkpt>
      <trkpt lat="46.53442" lon="0.32423">
        <ele>85</ele>
        <time>2022-09-11T08:56:47Z</time>
      </trkpt>
      <trkpt lat="46.53429" lon="0.32418">
        <ele>84.6</ele>
        <time>2022-09-11T08:56:52Z</time>
      </trkpt>
      <trkpt lat="46.53415" lon="0.32415">
        <ele>84.6</ele>
        <time>2022-09-11T08:56:58Z</time>
      </trkpt>
      <trkpt lat="46.53408" lon="0.3241">
        <ele>84.4</ele>
        <time>2022-09-11T08:57:03Z</time>
      </trkpt>
      <trkpt lat="46.53401" lon="0.32402">
        <ele>83.8</ele>
        <time>2022-09-11T08:57:17Z</time>
      </trkpt>
      <trkpt lat="46.53397" lon="0.32396">
        <ele>83.8</ele>
        <time>2022-09-11T08:57:31Z</time>
      </trkpt>
      <trkpt lat="46.53398" lon="0.32391">
        <ele>83.8</ele>
        <time>2022-09-11T08:57:48Z</time>
      </trkpt>
      <trkpt lat="46.53397" lon="0.32385">
        <ele>83.6</ele>
        <time>2022-09-11T08:58:05Z</time>
      </trkpt>
      <trkpt lat="46.53395" lon="0.32372">
        <ele>84.2</ele>
        <time>2022-09-11T08:58:18Z</time>
      </trkpt>
      <trkpt lat="46.53392" lon="0.32364">
        <ele>83.6</ele>
        <time>2022-09-11T08:58:30Z</time>
      </trkpt>
      <trkpt lat="46.5339" lon="0.3236">
        <ele>83.8</ele>
        <time>2022-09-11T08:58:42Z</time>
      </trkpt>
      <trkpt lat="46.53388" lon="0.32359">
        <ele>83.8</ele>
        <time>2022-09-11T08:58:44Z</time>
      </trkpt>
      <trkpt lat="46.53386" lon="0.32359">
        <ele>84</ele>
        <time>2022-09-11T08:58:46Z</time>
      </trkpt>
      <trkpt lat="46.53384" lon="0.32359">
        <ele>84</ele>
        <time>2022-09-11T08:58:48Z</time>
      </trkpt>
      <trkpt lat="46.53383" lon="0.32359">
        <ele>84</ele>
        <time>2022-09-11T08:58:50Z</time>
      </trkpt>
      <trkpt lat="46.5338" lon="0.32359">
        <ele>84.8</ele>
        <time>2022-09-11T08:58:56Z</time>
      </trkpt>
      <trkpt lat="46.53378" lon="0.3236">
        <ele>85</ele>
        <time>2022-09-11T08:59:01Z</time>
      </trkpt>
      <trkpt lat="46.53376" lon="0.32362">
        <ele>84.8</ele>
        <time>2022-09-11T08:59:17Z</time>
      </trkpt>
      <trkpt lat="46.53376" lon="0.32361">
        <ele>84.8</ele>
        <time>2022-09-11T08:59:33Z</time>
      </trkpt>
      <trkpt lat="46.53375" lon="0.32362">
        <ele>84.8</ele>
        <time>2022-09-11T08:59:51Z</time>
      </trkpt>
      <trkpt lat="46.53374" lon="0.32361">
        <ele>84.8</ele>
        <time>2022-09-11T09:00:08Z</time>
      </trkpt>
      <trkpt lat="46.5337" lon="0.3236">
        <ele>84.8</ele>
        <time>2022-09-11T09:00:22Z</time>
      </trkpt>
      <trkpt lat="46.53367" lon="0.32358">
        <ele>84.8</ele>
        <time>2022-09-11T09:00:26Z</time>
      </trkpt>
      <trkpt lat="46.53365" lon="0.32356">
        <ele>84.8</ele>
        <time>2022-09-11T09:00:28Z</time>
      </trkpt>
      <trkpt lat="46.53363" lon="0.32354">
        <ele>85.4</ele>
        <time>2022-09-11T09:00:31Z</time>
      </trkpt>
      <trkpt lat="46.53361" lon="0.32352">
        <ele>85.8</ele>
        <time>2022-09-11T09:00:33Z</time>
      </trkpt>
      <trkpt lat="46.5336" lon="0.32351">
        <ele>85.8</ele>
        <time>2022-09-11T09:00:34Z</time>
      </trkpt>
      <trkpt lat="46.53356" lon="0.32346">
        <ele>86.8</ele>
        <time>2022-09-11T09:00:38Z</time>
      </trkpt>
      <trkpt lat="46.53353" lon="0.32341">
        <ele>87.8</ele>
        <time>2022-09-11T09:00:41Z</time>
      </trkpt>
      <trkpt lat="46.53349" lon="0.32334">
        <ele>88.2</ele>
        <time>2022-09-11T09:00:45Z</time>
      </trkpt>
      <trkpt lat="46.5334" lon="0.32319">
        <ele>89</ele>
        <time>2022-09-11T09:00:52Z</time>
      </trkpt>
      <trkpt lat="46.53333" lon="0.3231">
        <ele>89.4</ele>
        <time>2022-09-11T09:00:58Z</time>
      </trkpt>
      <trkpt lat="46.53329" lon="0.32306">
        <ele>90</ele>
        <time>2022-09-11T09:01:03Z</time>
      </trkpt>
      <trkpt lat="46.53329" lon="0.32305">
        <ele>90</ele>
        <time>2022-09-11T09:01:05Z</time>
      </trkpt>
      <trkpt lat="46.53324" lon="0.32302">
        <ele>91</ele>
        <time>2022-09-11T09:01:18Z</time>
      </trkpt>
      <trkpt lat="46.53323" lon="0.32301">
        <ele>91</ele>
        <time>2022-09-11T09:01:19Z</time>
      </trkpt>
      <trkpt lat="46.5332" lon="0.323">
        <ele>92</ele>
        <time>2022-09-11T09:01:26Z</time>
      </trkpt>
      <trkpt lat="46.53317" lon="0.32297">
        <ele>92.6</ele>
        <time>2022-09-11T09:01:30Z</time>
      </trkpt>
      <trkpt lat="46.53311" lon="0.3229">
        <ele>93.2</ele>
        <time>2022-09-11T09:01:35Z</time>
      </trkpt>
      <trkpt lat="46.53306" lon="0.32284">
        <ele>93.6</ele>
        <time>2022-09-11T09:01:38Z</time>
      </trkpt>
      <trkpt lat="46.533" lon="0.3228">
        <ele>94.2</ele>
        <time>2022-09-11T09:01:41Z</time>
      </trkpt>
      <trkpt lat="46.53296" lon="0.32276">
        <ele>94.8</ele>
        <time>2022-09-11T09:01:44Z</time>
      </trkpt>
      <trkpt lat="46.53291" lon="0.32266">
        <ele>95</ele>
        <time>2022-09-11T09:01:49Z</time>
      </trkpt>
      <trkpt lat="46.53288" lon="0.32263">
        <ele>94.4</ele>
        <time>2022-09-11T09:01:51Z</time>
      </trkpt>
      <trkpt lat="46.53286" lon="0.32262">
        <ele>94.2</ele>
        <time>2022-09-11T09:01:53Z</time>
      </trkpt>
      <trkpt lat="46.53285" lon="0.32262">
        <ele>94.2</ele>
        <time>2022-09-11T09:01:54Z</time>
      </trkpt>
      <trkpt lat="46.53283" lon="0.32261">
        <ele>94.2</ele>
        <time>2022-09-11T09:01:56Z</time>
      </trkpt>
      <trkpt lat="46.53279" lon="0.32257">
        <ele>95</ele>
        <time>2022-09-11T09:02:02Z</time>
      </trkpt>
      <trkpt lat="46.53278" lon="0.32255">
        <ele>95</ele>
        <time>2022-09-11T09:02:04Z</time>
      </trkpt>
      <trkpt lat="46.5327" lon="0.32242">
        <ele>95.4</ele>
        <time>2022-09-11T09:02:11Z</time>
      </trkpt>
      <trkpt lat="46.53269" lon="0.3224">
        <ele>95.4</ele>
        <time>2022-09-11T09:02:12Z</time>
      </trkpt>
      <trkpt lat="46.53259" lon="0.32227">
        <ele>95.2</ele>
        <time>2022-09-11T09:02:19Z</time>
      </trkpt>
      <trkpt lat="46.5325" lon="0.32219">
        <ele>96</ele>
        <time>2022-09-11T09:02:25Z</time>
      </trkpt>
      <trkpt lat="46.53245" lon="0.32212">
        <ele>96.4</ele>
        <time>2022-09-11T09:02:29Z</time>
      </trkpt>
      <trkpt lat="46.53241" lon="0.3221">
        <ele>96.4</ele>
        <time>2022-09-11T09:02:32Z</time>
      </trkpt>
      <trkpt lat="46.5324" lon="0.32209">
        <ele>96.2</ele>
        <time>2022-09-11T09:02:33Z</time>
      </trkpt>
      <trkpt lat="46.53234" lon="0.32204">
        <ele>96.4</ele>
        <time>2022-09-11T09:02:38Z</time>
      </trkpt>
      <trkpt lat="46.53232" lon="0.32202">
        <ele>96.4</ele>
        <time>2022-09-11T09:02:39Z</time>
      </trkpt>
      <trkpt lat="46.53222" lon="0.32193">
        <ele>97.4</ele>
        <time>2022-09-11T09:02:46Z</time>
      </trkpt>
      <trkpt lat="46.53215" lon="0.32187">
        <ele>97.6</ele>
        <time>2022-09-11T09:02:50Z</time>
      </trkpt>
      <trkpt lat="46.53212" lon="0.32185">
        <ele>97.8</ele>
        <time>2022-09-11T09:02:52Z</time>
      </trkpt>
      <trkpt lat="46.53207" lon="0.32184">
        <ele>98.4</ele>
        <time>2022-09-11T09:02:55Z</time>
      </trkpt>
      <trkpt lat="46.53201" lon="0.32182">
        <ele>99.6</ele>
        <time>2022-09-11T09:02:58Z</time>
      </trkpt>
      <trkpt lat="46.53197" lon="0.32182">
        <ele>100.2</ele>
        <time>2022-09-11T09:03:00Z</time>
      </trkpt>
      <trkpt lat="46.53193" lon="0.32182">
        <ele>100.8</ele>
        <time>2022-09-11T09:03:02Z</time>
      </trkpt>
      <trkpt lat="46.53188" lon="0.32181">
        <ele>101.6</ele>
        <time>2022-09-11T09:03:05Z</time>
      </trkpt>
      <trkpt lat="46.53187" lon="0.3218">
        <ele>102</ele>
        <time>2022-09-11T09:03:06Z</time>
      </trkpt>
      <trkpt lat="46.53184" lon="0.32178">
        <ele>102.6</ele>
        <time>2022-09-11T09:03:08Z</time>
      </trkpt>
      <trkpt lat="46.53177" lon="0.32177">
        <ele>103.2</ele>
        <time>2022-09-11T09:03:12Z</time>
      </trkpt>
      <trkpt lat="46.53169" lon="0.32177">
        <ele>104.8</ele>
        <time>2022-09-11T09:03:17Z</time>
      </trkpt>
      <trkpt lat="46.53165" lon="0.32176">
        <ele>105.6</ele>
        <time>2022-09-11T09:03:20Z</time>
      </trkpt>
      <trkpt lat="46.53163" lon="0.32175">
        <ele>105.8</ele>
        <time>2022-09-11T09:03:21Z</time>
      </trkpt>
      <trkpt lat="46.53148" lon="0.32172">
        <ele>106.6</ele>
        <time>2022-09-11T09:03:28Z</time>
      </trkpt>
      <trkpt lat="46.53137" lon="0.32172">
        <ele>106.6</ele>
        <time>2022-09-11T09:03:34Z</time>
      </trkpt>
      <trkpt lat="46.53127" lon="0.32168">
        <ele>106.6</ele>
        <time>2022-09-11T09:03:39Z</time>
      </trkpt>
      <trkpt lat="46.53119" lon="0.32168">
        <ele>107</ele>
        <time>2022-09-11T09:03:44Z</time>
      </trkpt>
      <trkpt lat="46.53118" lon="0.32168">
        <ele>107.2</ele>
        <time>2022-09-11T09:03:45Z</time>
      </trkpt>
      <trkpt lat="46.53107" lon="0.32166">
        <ele>107.8</ele>
        <time>2022-09-11T09:03:51Z</time>
      </trkpt>
      <trkpt lat="46.53104" lon="0.32164">
        <ele>108.2</ele>
        <time>2022-09-11T09:03:53Z</time>
      </trkpt>
      <trkpt lat="46.53095" lon="0.32159">
        <ele>108.6</ele>
        <time>2022-09-11T09:03:58Z</time>
      </trkpt>
      <trkpt lat="46.53083" lon="0.3215">
        <ele>109</ele>
        <time>2022-09-11T09:04:05Z</time>
      </trkpt>
      <trkpt lat="46.53074" lon="0.32145">
        <ele>109.4</ele>
        <time>2022-09-11T09:04:09Z</time>
      </trkpt>
      <trkpt lat="46.5307" lon="0.32142">
        <ele>109.8</ele>
        <time>2022-09-11T09:04:11Z</time>
      </trkpt>
      <trkpt lat="46.53063" lon="0.32132">
        <ele>109.8</ele>
        <time>2022-09-11T09:04:16Z</time>
      </trkpt>
      <trkpt lat="46.53062" lon="0.3213">
        <ele>109.6</ele>
        <time>2022-09-11T09:04:17Z</time>
      </trkpt>
      <trkpt lat="46.53061" lon="0.32127">
        <ele>109.4</ele>
        <time>2022-09-11T09:04:18Z</time>
      </trkpt>
      <trkpt lat="46.53053" lon="0.32119">
        <ele>109.8</ele>
        <time>2022-09-11T09:04:22Z</time>
      </trkpt>
      <trkpt lat="46.53042" lon="0.32108">
        <ele>110.4</ele>
        <time>2022-09-11T09:04:28Z</time>
      </trkpt>
      <trkpt lat="46.53036" lon="0.32101">
        <ele>111.6</ele>
        <time>2022-09-11T09:04:32Z</time>
      </trkpt>
      <trkpt lat="46.53033" lon="0.32096">
        <ele>112.2</ele>
        <time>2022-09-11T09:04:34Z</time>
      </trkpt>
      <trkpt lat="46.53024" lon="0.32085">
        <ele>112.8</ele>
        <time>2022-09-11T09:04:40Z</time>
      </trkpt>
      <trkpt lat="46.53022" lon="0.32083">
        <ele>113</ele>
        <time>2022-09-11T09:04:41Z</time>
      </trkpt>
      <trkpt lat="46.53012" lon="0.32067">
        <ele>113.6</ele>
        <time>2022-09-11T09:04:49Z</time>
      </trkpt>
      <trkpt lat="46.53012" lon="0.32061">
        <ele>113.6</ele>
        <time>2022-09-11T09:04:52Z</time>
      </trkpt>
      <trkpt lat="46.53013" lon="0.3206">
        <ele>113.2</ele>
        <time>2022-09-11T09:04:53Z</time>
      </trkpt>
      <trkpt lat="46.53014" lon="0.32059">
        <ele>113</ele>
        <time>2022-09-11T09:04:54Z</time>
      </trkpt>
      <trkpt lat="46.53018" lon="0.32053">
        <ele>111</ele>
        <time>2022-09-11T09:04:57Z</time>
      </trkpt>
      <trkpt lat="46.53019" lon="0.32051">
        <ele>110</ele>
        <time>2022-09-11T09:04:58Z</time>
      </trkpt>
      <trkpt lat="46.53022" lon="0.32048">
        <ele>108.4</ele>
        <time>2022-09-11T09:05:00Z</time>
      </trkpt>
      <trkpt lat="46.53024" lon="0.32043">
        <ele>106.4</ele>
        <time>2022-09-11T09:05:02Z</time>
      </trkpt>
      <trkpt lat="46.53024" lon="0.32042">
        <ele>105.8</ele>
        <time>2022-09-11T09:05:03Z</time>
      </trkpt>
      <trkpt lat="46.53024" lon="0.3204">
        <ele>104.2</ele>
        <time>2022-09-11T09:05:04Z</time>
      </trkpt>
      <trkpt lat="46.53024" lon="0.32035">
        <ele>103</ele>
        <time>2022-09-11T09:05:06Z</time>
      </trkpt>
      <trkpt lat="46.53025" lon="0.3203">
        <ele>101</ele>
        <time>2022-09-11T09:05:08Z</time>
      </trkpt>
      <trkpt lat="46.53027" lon="0.32028">
        <ele>100</ele>
        <time>2022-09-11T09:05:09Z</time>
      </trkpt>
      <trkpt lat="46.53028" lon="0.32026">
        <ele>99</ele>
        <time>2022-09-11T09:05:10Z</time>
      </trkpt>
      <trkpt lat="46.53029" lon="0.32023">
        <ele>98</ele>
        <time>2022-09-11T09:05:11Z</time>
      </trkpt>
      <trkpt lat="46.53031" lon="0.32021">
        <ele>96.4</ele>
        <time>2022-09-11T09:05:12Z</time>
      </trkpt>
      <trkpt lat="46.53031" lon="0.32019">
        <ele>95.4</ele>
        <time>2022-09-11T09:05:13Z</time>
      </trkpt>
      <trkpt lat="46.53031" lon="0.32015">
        <ele>95.2</ele>
        <time>2022-09-11T09:05:15Z</time>
      </trkpt>
      <trkpt lat="46.53031" lon="0.3201">
        <ele>95.4</ele>
        <time>2022-09-11T09:05:17Z</time>
      </trkpt>
      <trkpt lat="46.5303" lon="0.32001">
        <ele>96</ele>
        <time>2022-09-11T09:05:21Z</time>
      </trkpt>
      <trkpt lat="46.5303" lon="0.31982">
        <ele>96.2</ele>
        <time>2022-09-11T09:05:28Z</time>
      </trkpt>
      <trkpt lat="46.53035" lon="0.31959">
        <ele>94.6</ele>
        <time>2022-09-11T09:05:33Z</time>
      </trkpt>
      <trkpt lat="46.53036" lon="0.31955">
        <ele>94.2</ele>
        <time>2022-09-11T09:05:34Z</time>
      </trkpt>
      <trkpt lat="46.53038" lon="0.31939">
        <ele>93.8</ele>
        <time>2022-09-11T09:05:39Z</time>
      </trkpt>
      <trkpt lat="46.53038" lon="0.31922">
        <ele>94</ele>
        <time>2022-09-11T09:05:45Z</time>
      </trkpt>
      <trkpt lat="46.53038" lon="0.31919">
        <ele>94.2</ele>
        <time>2022-09-11T09:05:46Z</time>
      </trkpt>
      <trkpt lat="46.5304" lon="0.31906">
        <ele>94.2</ele>
        <time>2022-09-11T09:05:55Z</time>
      </trkpt>
      <trkpt lat="46.53043" lon="0.319">
        <ele>93.4</ele>
        <time>2022-09-11T09:05:59Z</time>
      </trkpt>
      <trkpt lat="46.53043" lon="0.31898">
        <ele>93</ele>
        <time>2022-09-11T09:06:00Z</time>
      </trkpt>
      <trkpt lat="46.53044" lon="0.31894">
        <ele>92.6</ele>
        <time>2022-09-11T09:06:02Z</time>
      </trkpt>
      <trkpt lat="46.53044" lon="0.3189">
        <ele>92</ele>
        <time>2022-09-11T09:06:04Z</time>
      </trkpt>
      <trkpt lat="46.53048" lon="0.31885">
        <ele>90.4</ele>
        <time>2022-09-11T09:06:07Z</time>
      </trkpt>
      <trkpt lat="46.53053" lon="0.31882">
        <ele>89</ele>
        <time>2022-09-11T09:06:10Z</time>
      </trkpt>
      <trkpt lat="46.53055" lon="0.31881">
        <ele>88.8</ele>
        <time>2022-09-11T09:06:11Z</time>
      </trkpt>
      <trkpt lat="46.5306" lon="0.31875">
        <ele>88.2</ele>
        <time>2022-09-11T09:06:21Z</time>
      </trkpt>
      <trkpt lat="46.53057" lon="0.31867">
        <ele>88.2</ele>
        <time>2022-09-11T09:06:30Z</time>
      </trkpt>
      <trkpt lat="46.53056" lon="0.31866">
        <ele>88.4</ele>
        <time>2022-09-11T09:06:31Z</time>
      </trkpt>
      <trkpt lat="46.53047" lon="0.31854">
        <ele>90.2</ele>
        <time>2022-09-11T09:06:39Z</time>
      </trkpt>
      <trkpt lat="46.53045" lon="0.31852">
        <ele>90.8</ele>
        <time>2022-09-11T09:06:41Z</time>
      </trkpt>
      <trkpt lat="46.53043" lon="0.3185">
        <ele>91.2</ele>
        <time>2022-09-11T09:06:42Z</time>
      </trkpt>
      <trkpt lat="46.53039" lon="0.31845">
        <ele>92.2</ele>
        <time>2022-09-11T09:06:45Z</time>
      </trkpt>
      <trkpt lat="46.53035" lon="0.31841">
        <ele>93.2</ele>
        <time>2022-09-11T09:06:49Z</time>
      </trkpt>
      <trkpt lat="46.53035" lon="0.31841">
        <ele>93.6</ele>
        <time>2022-09-11T09:06:50Z</time>
      </trkpt>
      <trkpt lat="46.53036" lon="0.3184">
        <ele>94</ele>
        <time>2022-09-11T09:06:52Z</time>
      </trkpt>
      <trkpt lat="46.53037" lon="0.31839">
        <ele>94.4</ele>
        <time>2022-09-11T09:06:54Z</time>
      </trkpt>
      <trkpt lat="46.53038" lon="0.31839">
        <ele>94.4</ele>
        <time>2022-09-11T09:06:55Z</time>
      </trkpt>
      <trkpt lat="46.5304" lon="0.31837">
        <ele>94.6</ele>
        <time>2022-09-11T09:06:57Z</time>
      </trkpt>
      <trkpt lat="46.53045" lon="0.31825">
        <ele>95</ele>
        <time>2022-09-11T09:07:03Z</time>
      </trkpt>
      <trkpt lat="46.53045" lon="0.31817">
        <ele>95.4</ele>
        <time>2022-09-11T09:07:06Z</time>
      </trkpt>
      <trkpt lat="46.53045" lon="0.31808">
        <ele>95.6</ele>
        <time>2022-09-11T09:07:09Z</time>
      </trkpt>
      <trkpt lat="46.53041" lon="0.31795">
        <ele>96.6</ele>
        <time>2022-09-11T09:07:14Z</time>
      </trkpt>
      <trkpt lat="46.5304" lon="0.31793">
        <ele>96.6</ele>
        <time>2022-09-11T09:07:15Z</time>
      </trkpt>
      <trkpt lat="46.5304" lon="0.31791">
        <ele>96.8</ele>
        <time>2022-09-11T09:07:16Z</time>
      </trkpt>
      <trkpt lat="46.53041" lon="0.3178">
        <ele>97.6</ele>
        <time>2022-09-11T09:07:20Z</time>
      </trkpt>
      <trkpt lat="46.53038" lon="0.31766">
        <ele>98.4</ele>
        <time>2022-09-11T09:07:26Z</time>
      </trkpt>
      <trkpt lat="46.53037" lon="0.31765">
        <ele>98.8</ele>
        <time>2022-09-11T09:07:27Z</time>
      </trkpt>
      <trkpt lat="46.53034" lon="0.31757">
        <ele>99.8</ele>
        <time>2022-09-11T09:07:31Z</time>
      </trkpt>
      <trkpt lat="46.53034" lon="0.31753">
        <ele>100.6</ele>
        <time>2022-09-11T09:07:33Z</time>
      </trkpt>
      <trkpt lat="46.53033" lon="0.3175">
        <ele>100.8</ele>
        <time>2022-09-11T09:07:34Z</time>
      </trkpt>
      <trkpt lat="46.53033" lon="0.31748">
        <ele>101</ele>
        <time>2022-09-11T09:07:35Z</time>
      </trkpt>
      <trkpt lat="46.53031" lon="0.31733">
        <ele>101.4</ele>
        <time>2022-09-11T09:07:41Z</time>
      </trkpt>
      <trkpt lat="46.5303" lon="0.31725">
        <ele>102.2</ele>
        <time>2022-09-11T09:07:45Z</time>
      </trkpt>
      <trkpt lat="46.53029" lon="0.31721">
        <ele>102.8</ele>
        <time>2022-09-11T09:07:47Z</time>
      </trkpt>
      <trkpt lat="46.53029" lon="0.31719">
        <ele>103.2</ele>
        <time>2022-09-11T09:07:48Z</time>
      </trkpt>
      <trkpt lat="46.53025" lon="0.31707">
        <ele>104.4</ele>
        <time>2022-09-11T09:07:53Z</time>
      </trkpt>
      <trkpt lat="46.53024" lon="0.31701">
        <ele>105.6</ele>
        <time>2022-09-11T09:07:56Z</time>
      </trkpt>
      <trkpt lat="46.53023" lon="0.31697">
        <ele>106</ele>
        <time>2022-09-11T09:07:58Z</time>
      </trkpt>
      <trkpt lat="46.5302" lon="0.31686">
        <ele>106.6</ele>
        <time>2022-09-11T09:08:04Z</time>
      </trkpt>
      <trkpt lat="46.53018" lon="0.31681">
        <ele>107.6</ele>
        <time>2022-09-11T09:08:09Z</time>
      </trkpt>
      <trkpt lat="46.53017" lon="0.31676">
        <ele>108.8</ele>
        <time>2022-09-11T09:08:15Z</time>
      </trkpt>
      <trkpt lat="46.53013" lon="0.31667">
        <ele>110</ele>
        <time>2022-09-11T09:08:23Z</time>
      </trkpt>
      <trkpt lat="46.53012" lon="0.31665">
        <ele>110.8</ele>
        <time>2022-09-11T09:08:25Z</time>
      </trkpt>
      <trkpt lat="46.53011" lon="0.31664">
        <ele>111</ele>
        <time>2022-09-11T09:08:27Z</time>
      </trkpt>
      <trkpt lat="46.5301" lon="0.31665">
        <ele>111.6</ele>
        <time>2022-09-11T09:08:30Z</time>
      </trkpt>
      <trkpt lat="46.53009" lon="0.31665">
        <ele>111.6</ele>
        <time>2022-09-11T09:08:32Z</time>
      </trkpt>
      <trkpt lat="46.53007" lon="0.31665">
        <ele>111.8</ele>
        <time>2022-09-11T09:08:34Z</time>
      </trkpt>
      <trkpt lat="46.53007" lon="0.31665">
        <ele>112</ele>
        <time>2022-09-11T09:08:35Z</time>
      </trkpt>
      <trkpt lat="46.53005" lon="0.31663">
        <ele>113.2</ele>
        <time>2022-09-11T09:08:41Z</time>
      </trkpt>
      <trkpt lat="46.53002" lon="0.31661">
        <ele>114</ele>
        <time>2022-09-11T09:08:47Z</time>
      </trkpt>
      <trkpt lat="46.53" lon="0.31651">
        <ele>114.2</ele>
        <time>2022-09-11T09:08:55Z</time>
      </trkpt>
      <trkpt lat="46.52999" lon="0.31647">
        <ele>114.6</ele>
        <time>2022-09-11T09:08:57Z</time>
      </trkpt>
      <trkpt lat="46.52996" lon="0.31633">
        <ele>115.6</ele>
        <time>2022-09-11T09:09:04Z</time>
      </trkpt>
      <trkpt lat="46.52995" lon="0.31627">
        <ele>116.6</ele>
        <time>2022-09-11T09:09:07Z</time>
      </trkpt>
      <trkpt lat="46.52994" lon="0.31619">
        <ele>117</ele>
        <time>2022-09-11T09:09:11Z</time>
      </trkpt>
      <trkpt lat="46.52989" lon="0.31586">
        <ele>117.6</ele>
        <time>2022-09-11T09:09:23Z</time>
      </trkpt>
      <trkpt lat="46.52986" lon="0.31574">
        <ele>117.8</ele>
        <time>2022-09-11T09:09:27Z</time>
      </trkpt>
      <trkpt lat="46.52986" lon="0.31568">
        <ele>118.2</ele>
        <time>2022-09-11T09:09:29Z</time>
      </trkpt>
      <trkpt lat="46.52981" lon="0.31549">
        <ele>117.8</ele>
        <time>2022-09-11T09:09:34Z</time>
      </trkpt>
      <trkpt lat="46.52975" lon="0.31528">
        <ele>117.8</ele>
        <time>2022-09-11T09:09:40Z</time>
      </trkpt>
      <trkpt lat="46.52968" lon="0.31507">
        <ele>118</ele>
        <time>2022-09-11T09:09:45Z</time>
      </trkpt>
      <trkpt lat="46.52965" lon="0.315">
        <ele>118.4</ele>
        <time>2022-09-11T09:09:47Z</time>
      </trkpt>
      <trkpt lat="46.52961" lon="0.31493">
        <ele>118.4</ele>
        <time>2022-09-11T09:09:49Z</time>
      </trkpt>
      <trkpt lat="46.52953" lon="0.31479">
        <ele>119</ele>
        <time>2022-09-11T09:09:52Z</time>
      </trkpt>
      <trkpt lat="46.52947" lon="0.31471">
        <ele>120.4</ele>
        <time>2022-09-11T09:09:55Z</time>
      </trkpt>
      <trkpt lat="46.52944" lon="0.31465">
        <ele>121.4</ele>
        <time>2022-09-11T09:09:57Z</time>
      </trkpt>
      <trkpt lat="46.52937" lon="0.31452">
        <ele>122</ele>
        <time>2022-09-11T09:10:02Z</time>
      </trkpt>
      <trkpt lat="46.52932" lon="0.31444">
        <ele>122.6</ele>
        <time>2022-09-11T09:10:05Z</time>
      </trkpt>
      <trkpt lat="46.52928" lon="0.31434">
        <ele>123.2</ele>
        <time>2022-09-11T09:10:09Z</time>
      </trkpt>
      <trkpt lat="46.52926" lon="0.31429">
        <ele>123.6</ele>
        <time>2022-09-11T09:10:11Z</time>
      </trkpt>
      <trkpt lat="46.52918" lon="0.31412">
        <ele>124.2</ele>
        <time>2022-09-11T09:10:16Z</time>
      </trkpt>
      <trkpt lat="46.52917" lon="0.31406">
        <ele>124.2</ele>
        <time>2022-09-11T09:10:18Z</time>
      </trkpt>
      <trkpt lat="46.52909" lon="0.31392">
        <ele>124.2</ele>
        <time>2022-09-11T09:10:22Z</time>
      </trkpt>
      <trkpt lat="46.52897" lon="0.31375">
        <ele>124.6</ele>
        <time>2022-09-11T09:10:27Z</time>
      </trkpt>
      <trkpt lat="46.52892" lon="0.31367">
        <ele>124.8</ele>
        <time>2022-09-11T09:10:29Z</time>
      </trkpt>
      <trkpt lat="46.52881" lon="0.31344">
        <ele>124.8</ele>
        <time>2022-09-11T09:10:34Z</time>
      </trkpt>
      <trkpt lat="46.5288" lon="0.31338">
        <ele>124.8</ele>
        <time>2022-09-11T09:10:35Z</time>
      </trkpt>
      <trkpt lat="46.52871" lon="0.31308">
        <ele>124.4</ele>
        <time>2022-09-11T09:10:39Z</time>
      </trkpt>
      <trkpt lat="46.52869" lon="0.31302">
        <ele>124.2</ele>
        <time>2022-09-11T09:10:40Z</time>
      </trkpt>
      <trkpt lat="46.52864" lon="0.31292">
        <ele>123.2</ele>
        <time>2022-09-11T09:10:42Z</time>
      </trkpt>
      <trkpt lat="46.52861" lon="0.31288">
        <ele>122.8</ele>
        <time>2022-09-11T09:10:43Z</time>
      </trkpt>
      <trkpt lat="46.52853" lon="0.31276">
        <ele>122.2</ele>
        <time>2022-09-11T09:10:46Z</time>
      </trkpt>
      <trkpt lat="46.52844" lon="0.31261">
        <ele>122.4</ele>
        <time>2022-09-11T09:10:49Z</time>
      </trkpt>
      <trkpt lat="46.52841" lon="0.31258">
        <ele>122.4</ele>
        <time>2022-09-11T09:10:50Z</time>
      </trkpt>
      <trkpt lat="46.52837" lon="0.31255">
        <ele>122.4</ele>
        <time>2022-09-11T09:10:51Z</time>
      </trkpt>
      <trkpt lat="46.52828" lon="0.3125">
        <ele>122.6</ele>
        <time>2022-09-11T09:10:53Z</time>
      </trkpt>
      <trkpt lat="46.52824" lon="0.3125">
        <ele>122.8</ele>
        <time>2022-09-11T09:10:54Z</time>
      </trkpt>
      <trkpt lat="46.52821" lon="0.3125">
        <ele>123</ele>
        <time>2022-09-11T09:10:55Z</time>
      </trkpt>
      <trkpt lat="46.52819" lon="0.3125">
        <ele>123.2</ele>
        <time>2022-09-11T09:10:56Z</time>
      </trkpt>
      <trkpt lat="46.52814" lon="0.3125">
        <ele>124.2</ele>
        <time>2022-09-11T09:10:58Z</time>
      </trkpt>
      <trkpt lat="46.52813" lon="0.3125">
        <ele>124.6</ele>
        <time>2022-09-11T09:10:59Z</time>
      </trkpt>
      <trkpt lat="46.5281" lon="0.31251">
        <ele>126.2</ele>
        <time>2022-09-11T09:11:01Z</time>
      </trkpt>
      <trkpt lat="46.52804" lon="0.31253">
        <ele>127.2</ele>
        <time>2022-09-11T09:11:05Z</time>
      </trkpt>
      <trkpt lat="46.52798" lon="0.31252">
        <ele>128.2</ele>
        <time>2022-09-11T09:11:09Z</time>
      </trkpt>
      <trkpt lat="46.52796" lon="0.31251">
        <ele>128.2</ele>
        <time>2022-09-11T09:11:10Z</time>
      </trkpt>
      <trkpt lat="46.52793" lon="0.31249">
        <ele>128.8</ele>
        <time>2022-09-11T09:11:13Z</time>
      </trkpt>
      <trkpt lat="46.52792" lon="0.31248">
        <ele>128.8</ele>
        <time>2022-09-11T09:11:14Z</time>
      </trkpt>
      <trkpt lat="46.52787" lon="0.31235">
        <ele>128.6</ele>
        <time>2022-09-11T09:11:19Z</time>
      </trkpt>
      <trkpt lat="46.5278" lon="0.31215">
        <ele>127.6</ele>
        <time>2022-09-11T09:11:25Z</time>
      </trkpt>
      <trkpt lat="46.52778" lon="0.31208">
        <ele>127.2</ele>
        <time>2022-09-11T09:11:27Z</time>
      </trkpt>
      <trkpt lat="46.52776" lon="0.31205">
        <ele>127.2</ele>
        <time>2022-09-11T09:11:28Z</time>
      </trkpt>
      <trkpt lat="46.52773" lon="0.31197">
        <ele>127</ele>
        <time>2022-09-11T09:11:30Z</time>
      </trkpt>
      <trkpt lat="46.52771" lon="0.31193">
        <ele>127</ele>
        <time>2022-09-11T09:11:31Z</time>
      </trkpt>
      <trkpt lat="46.52771" lon="0.31171">
        <ele>126.2</ele>
        <time>2022-09-11T09:11:36Z</time>
      </trkpt>
      <trkpt lat="46.52771" lon="0.31165">
        <ele>125.8</ele>
        <time>2022-09-11T09:11:37Z</time>
      </trkpt>
      <trkpt lat="46.5277" lon="0.31159">
        <ele>125.4</ele>
        <time>2022-09-11T09:11:38Z</time>
      </trkpt>
      <trkpt lat="46.52768" lon="0.31145">
        <ele>124.8</ele>
        <time>2022-09-11T09:11:40Z</time>
      </trkpt>
      <trkpt lat="46.52765" lon="0.31111">
        <ele>123.6</ele>
        <time>2022-09-11T09:11:44Z</time>
      </trkpt>
      <trkpt lat="46.52764" lon="0.31101">
        <ele>123.4</ele>
        <time>2022-09-11T09:11:45Z</time>
      </trkpt>
      <trkpt lat="46.52763" lon="0.31094">
        <ele>122.6</ele>
        <time>2022-09-11T09:11:46Z</time>
      </trkpt>
      <trkpt lat="46.52762" lon="0.31087">
        <ele>121.8</ele>
        <time>2022-09-11T09:11:47Z</time>
      </trkpt>
      <trkpt lat="46.52755" lon="0.31061">
        <ele>121</ele>
        <time>2022-09-11T09:11:51Z</time>
      </trkpt>
      <trkpt lat="46.52751" lon="0.31041">
        <ele>121.2</ele>
        <time>2022-09-11T09:11:54Z</time>
      </trkpt>
      <trkpt lat="46.52745" lon="0.31017">
        <ele>121.2</ele>
        <time>2022-09-11T09:11:57Z</time>
      </trkpt>
      <trkpt lat="46.52742" lon="0.31002">
        <ele>121.4</ele>
        <time>2022-09-11T09:11:59Z</time>
      </trkpt>
      <trkpt lat="46.5274" lon="0.30977">
        <ele>121.4</ele>
        <time>2022-09-11T09:12:02Z</time>
      </trkpt>
      <trkpt lat="46.52733" lon="0.30939">
        <ele>121.8</ele>
        <time>2022-09-11T09:12:07Z</time>
      </trkpt>
      <trkpt lat="46.52732" lon="0.30931">
        <ele>121.6</ele>
        <time>2022-09-11T09:12:08Z</time>
      </trkpt>
      <trkpt lat="46.52731" lon="0.30915">
        <ele>121.8</ele>
        <time>2022-09-11T09:12:10Z</time>
      </trkpt>
      <trkpt lat="46.52727" lon="0.30899">
        <ele>123.2</ele>
        <time>2022-09-11T09:12:13Z</time>
      </trkpt>
      <trkpt lat="46.52725" lon="0.30894">
        <ele>123.6</ele>
        <time>2022-09-11T09:12:14Z</time>
      </trkpt>
      <trkpt lat="46.52722" lon="0.30883">
        <ele>124.2</ele>
        <time>2022-09-11T09:12:17Z</time>
      </trkpt>
      <trkpt lat="46.5272" lon="0.30877">
        <ele>124.6</ele>
        <time>2022-09-11T09:12:19Z</time>
      </trkpt>
      <trkpt lat="46.52714" lon="0.30855">
        <ele>125</ele>
        <time>2022-09-11T09:12:25Z</time>
      </trkpt>
      <trkpt lat="46.52712" lon="0.30846">
        <ele>125.2</ele>
        <time>2022-09-11T09:12:29Z</time>
      </trkpt>
      <trkpt lat="46.52711" lon="0.30845">
        <ele>125.4</ele>
        <time>2022-09-11T09:12:30Z</time>
      </trkpt>
      <trkpt lat="46.52711" lon="0.30844">
        <ele>125.6</ele>
        <time>2022-09-11T09:12:31Z</time>
      </trkpt>
      <trkpt lat="46.5271" lon="0.30843">
        <ele>125.6</ele>
        <time>2022-09-11T09:12:33Z</time>
      </trkpt>
      <trkpt lat="46.52709" lon="0.30839">
        <ele>125.8</ele>
        <time>2022-09-11T09:12:41Z</time>
      </trkpt>
      <trkpt lat="46.52707" lon="0.30833">
        <ele>126.4</ele>
        <time>2022-09-11T09:12:47Z</time>
      </trkpt>
      <trkpt lat="46.52705" lon="0.30831">
        <ele>126.8</ele>
        <time>2022-09-11T09:12:49Z</time>
      </trkpt>
      <trkpt lat="46.52702" lon="0.30826">
        <ele>127.6</ele>
        <time>2022-09-11T09:12:52Z</time>
      </trkpt>
      <trkpt lat="46.52695" lon="0.30816">
        <ele>128.8</ele>
        <time>2022-09-11T09:12:56Z</time>
      </trkpt>
      <trkpt lat="46.52693" lon="0.30814">
        <ele>129</ele>
        <time>2022-09-11T09:12:57Z</time>
      </trkpt>
      <trkpt lat="46.52683" lon="0.30805">
        <ele>130</ele>
        <time>2022-09-11T09:13:02Z</time>
      </trkpt>
      <trkpt lat="46.52673" lon="0.30795">
        <ele>131</ele>
        <time>2022-09-11T09:13:06Z</time>
      </trkpt>
      <trkpt lat="46.52668" lon="0.3079">
        <ele>131.4</ele>
        <time>2022-09-11T09:13:08Z</time>
      </trkpt>
      <trkpt lat="46.52664" lon="0.30786">
        <ele>131.8</ele>
        <time>2022-09-11T09:13:10Z</time>
      </trkpt>
      <trkpt lat="46.52662" lon="0.30783">
        <ele>132.2</ele>
        <time>2022-09-11T09:13:11Z</time>
      </trkpt>
      <trkpt lat="46.52657" lon="0.30775">
        <ele>132.6</ele>
        <time>2022-09-11T09:13:14Z</time>
      </trkpt>
      <trkpt lat="46.52655" lon="0.30768">
        <ele>132.8</ele>
        <time>2022-09-11T09:13:16Z</time>
      </trkpt>
      <trkpt lat="46.52654" lon="0.30761">
        <ele>133</ele>
        <time>2022-09-11T09:13:18Z</time>
      </trkpt>
      <trkpt lat="46.52653" lon="0.30741">
        <ele>132.8</ele>
        <time>2022-09-11T09:13:25Z</time>
      </trkpt>
      <trkpt lat="46.52656" lon="0.30733">
        <ele>132</ele>
        <time>2022-09-11T09:13:32Z</time>
      </trkpt>
      <trkpt lat="46.52657" lon="0.30733">
        <ele>131.8</ele>
        <time>2022-09-11T09:13:33Z</time>
      </trkpt>
      <trkpt lat="46.52666" lon="0.30734">
        <ele>131</ele>
        <time>2022-09-11T09:13:40Z</time>
      </trkpt>
      <trkpt lat="46.52668" lon="0.30735">
        <ele>130.8</ele>
        <time>2022-09-11T09:13:41Z</time>
      </trkpt>
      <trkpt lat="46.52671" lon="0.30737">
        <ele>130</ele>
        <time>2022-09-11T09:13:43Z</time>
      </trkpt>
      <trkpt lat="46.52678" lon="0.3074">
        <ele>129.2</ele>
        <time>2022-09-11T09:13:46Z</time>
      </trkpt>
      <trkpt lat="46.52682" lon="0.30743">
        <ele>128.8</ele>
        <time>2022-09-11T09:13:48Z</time>
      </trkpt>
      <trkpt lat="46.52688" lon="0.30744">
        <ele>127.4</ele>
        <time>2022-09-11T09:13:51Z</time>
      </trkpt>
      <trkpt lat="46.5269" lon="0.30745">
        <ele>127.2</ele>
        <time>2022-09-11T09:13:52Z</time>
      </trkpt>
      <trkpt lat="46.52693" lon="0.3075">
        <ele>126.4</ele>
        <time>2022-09-11T09:13:55Z</time>
      </trkpt>
      <trkpt lat="46.52696" lon="0.30756">
        <ele>125.6</ele>
        <time>2022-09-11T09:13:57Z</time>
      </trkpt>
      <trkpt lat="46.52698" lon="0.30762">
        <ele>125.2</ele>
        <time>2022-09-11T09:13:59Z</time>
      </trkpt>
      <trkpt lat="46.52701" lon="0.30776">
        <ele>124.4</ele>
        <time>2022-09-11T09:14:02Z</time>
      </trkpt>
      <trkpt lat="46.52702" lon="0.3078">
        <ele>124.2</ele>
        <time>2022-09-11T09:14:03Z</time>
      </trkpt>
      <trkpt lat="46.52703" lon="0.30784">
        <ele>123.4</ele>
        <time>2022-09-11T09:14:04Z</time>
      </trkpt>
      <trkpt lat="46.52704" lon="0.30789">
        <ele>122.8</ele>
        <time>2022-09-11T09:14:05Z</time>
      </trkpt>
      <trkpt lat="46.52706" lon="0.30795">
        <ele>122.4</ele>
        <time>2022-09-11T09:14:06Z</time>
      </trkpt>
      <trkpt lat="46.52708" lon="0.30801">
        <ele>121.4</ele>
        <time>2022-09-11T09:14:07Z</time>
      </trkpt>
      <trkpt lat="46.52713" lon="0.30815">
        <ele>120.2</ele>
        <time>2022-09-11T09:14:09Z</time>
      </trkpt>
      <trkpt lat="46.52717" lon="0.30823">
        <ele>118.8</ele>
        <time>2022-09-11T09:14:10Z</time>
      </trkpt>
      <trkpt lat="46.52724" lon="0.30832">
        <ele>117.8</ele>
        <time>2022-09-11T09:14:11Z</time>
      </trkpt>
      <trkpt lat="46.52729" lon="0.3084">
        <ele>117.2</ele>
        <time>2022-09-11T09:14:12Z</time>
      </trkpt>
      <trkpt lat="46.52734" lon="0.30849">
        <ele>116.6</ele>
        <time>2022-09-11T09:14:13Z</time>
      </trkpt>
      <trkpt lat="46.52734" lon="0.30849">
        <ele>115.2</ele>
        <time>2022-09-11T09:14:14Z</time>
      </trkpt>
      <trkpt lat="46.52744" lon="0.30875">
        <ele>114.6</ele>
        <time>2022-09-11T09:14:17Z</time>
      </trkpt>
      <trkpt lat="46.52745" lon="0.30881">
        <ele>114.4</ele>
        <time>2022-09-11T09:14:18Z</time>
      </trkpt>
      <trkpt lat="46.52749" lon="0.30892">
        <ele>113.6</ele>
        <time>2022-09-11T09:14:20Z</time>
      </trkpt>
      <trkpt lat="46.52751" lon="0.309">
        <ele>112.6</ele>
        <time>2022-09-11T09:14:21Z</time>
      </trkpt>
      <trkpt lat="46.52754" lon="0.30909">
        <ele>111.6</ele>
        <time>2022-09-11T09:14:22Z</time>
      </trkpt>
      <trkpt lat="46.52756" lon="0.30918">
        <ele>110.4</ele>
        <time>2022-09-11T09:14:23Z</time>
      </trkpt>
      <trkpt lat="46.52759" lon="0.30933">
        <ele>109.2</ele>
        <time>2022-09-11T09:14:25Z</time>
      </trkpt>
      <trkpt lat="46.52764" lon="0.30948">
        <ele>107.8</ele>
        <time>2022-09-11T09:14:27Z</time>
      </trkpt>
      <trkpt lat="46.52768" lon="0.30955">
        <ele>106.8</ele>
        <time>2022-09-11T09:14:28Z</time>
      </trkpt>
      <trkpt lat="46.52771" lon="0.30961">
        <ele>105.4</ele>
        <time>2022-09-11T09:14:29Z</time>
      </trkpt>
      <trkpt lat="46.52773" lon="0.30966">
        <ele>104.2</ele>
        <time>2022-09-11T09:14:30Z</time>
      </trkpt>
      <trkpt lat="46.52777" lon="0.30977">
        <ele>102.8</ele>
        <time>2022-09-11T09:14:32Z</time>
      </trkpt>
      <trkpt lat="46.52779" lon="0.30983">
        <ele>102</ele>
        <time>2022-09-11T09:14:33Z</time>
      </trkpt>
      <trkpt lat="46.52781" lon="0.30989">
        <ele>101</ele>
        <time>2022-09-11T09:14:34Z</time>
      </trkpt>
      <trkpt lat="46.52786" lon="0.31005">
        <ele>99.2</ele>
        <time>2022-09-11T09:14:36Z</time>
      </trkpt>
      <trkpt lat="46.5279" lon="0.31015">
        <ele>98.8</ele>
        <time>2022-09-11T09:14:37Z</time>
      </trkpt>
      <trkpt lat="46.52798" lon="0.31033">
        <ele>98</ele>
        <time>2022-09-11T09:14:39Z</time>
      </trkpt>
      <trkpt lat="46.5281" lon="0.31059">
        <ele>96.6</ele>
        <time>2022-09-11T09:14:42Z</time>
      </trkpt>
      <trkpt lat="46.52814" lon="0.31067">
        <ele>96.2</ele>
        <time>2022-09-11T09:14:43Z</time>
      </trkpt>
      <trkpt lat="46.52821" lon="0.31085">
        <ele>95.4</ele>
        <time>2022-09-11T09:14:45Z</time>
      </trkpt>
      <trkpt lat="46.52824" lon="0.31094">
        <ele>95.2</ele>
        <time>2022-09-11T09:14:46Z</time>
      </trkpt>
      <trkpt lat="46.52831" lon="0.31122">
        <ele>94.6</ele>
        <time>2022-09-11T09:14:49Z</time>
      </trkpt>
      <trkpt lat="46.52834" lon="0.31129">
        <ele>94.2</ele>
        <time>2022-09-11T09:14:50Z</time>
      </trkpt>
      <trkpt lat="46.52842" lon="0.31146">
        <ele>94</ele>
        <time>2022-09-11T09:14:53Z</time>
      </trkpt>
      <trkpt lat="46.52858" lon="0.3117">
        <ele>93.6</ele>
        <time>2022-09-11T09:14:58Z</time>
      </trkpt>
      <trkpt lat="46.52877" lon="0.31197">
        <ele>93.4</ele>
        <time>2022-09-11T09:15:04Z</time>
      </trkpt>
      <trkpt lat="46.52879" lon="0.312">
        <ele>93.2</ele>
        <time>2022-09-11T09:15:05Z</time>
      </trkpt>
      <trkpt lat="46.52884" lon="0.31208">
        <ele>92.8</ele>
        <time>2022-09-11T09:15:08Z</time>
      </trkpt>
      <trkpt lat="46.52888" lon="0.31211">
        <ele>92.6</ele>
        <time>2022-09-11T09:15:10Z</time>
      </trkpt>
      <trkpt lat="46.52892" lon="0.31213">
        <ele>92.4</ele>
        <time>2022-09-11T09:15:13Z</time>
      </trkpt>
      <trkpt lat="46.52907" lon="0.31217">
        <ele>92.4</ele>
        <time>2022-09-11T09:15:28Z</time>
      </trkpt>
      <trkpt lat="46.52911" lon="0.31223">
        <ele>92.4</ele>
        <time>2022-09-11T09:15:45Z</time>
      </trkpt>
      <trkpt lat="46.5291" lon="0.31223">
        <ele>92.4</ele>
        <time>2022-09-11T09:15:58Z</time>
      </trkpt>
      <trkpt lat="46.52911" lon="0.31233">
        <ele>92.2</ele>
        <time>2022-09-11T09:16:09Z</time>
      </trkpt>
      <trkpt lat="46.52911" lon="0.31235">
        <ele>92</ele>
        <time>2022-09-11T09:16:14Z</time>
      </trkpt>
      <trkpt lat="46.52909" lon="0.31234">
        <ele>92.2</ele>
        <time>2022-09-11T09:16:32Z</time>
      </trkpt>
      <trkpt lat="46.52908" lon="0.31234">
        <ele>92</ele>
        <time>2022-09-11T09:16:48Z</time>
      </trkpt>
      <trkpt lat="46.52907" lon="0.31233">
        <ele>92.2</ele>
        <time>2022-09-11T09:16:59Z</time>
      </trkpt>
      <trkpt lat="46.52907" lon="0.31229">
        <ele>92.2</ele>
        <time>2022-09-11T09:17:08Z</time>
      </trkpt>
      <trkpt lat="46.529" lon="0.31226">
        <ele>92.2</ele>
        <time>2022-09-11T09:17:23Z</time>
      </trkpt>
      <trkpt lat="46.52899" lon="0.31234">
        <ele>92.2</ele>
        <time>2022-09-11T09:17:33Z</time>
      </trkpt>
      <trkpt lat="46.52901" lon="0.31236">
        <ele>92.2</ele>
        <time>2022-09-11T09:17:34Z</time>
      </trkpt>
      <trkpt lat="46.52904" lon="0.31242">
        <ele>91.8</ele>
        <time>2022-09-11T09:17:36Z</time>
      </trkpt>
      <trkpt lat="46.52912" lon="0.3125">
        <ele>91.2</ele>
        <time>2022-09-11T09:17:38Z</time>
      </trkpt>
      <trkpt lat="46.52916" lon="0.31254">
        <ele>91</ele>
        <time>2022-09-11T09:17:39Z</time>
      </trkpt>
      <trkpt lat="46.52921" lon="0.31256">
        <ele>90.8</ele>
        <time>2022-09-11T09:17:40Z</time>
      </trkpt>
      <trkpt lat="46.52926" lon="0.31258">
        <ele>90.6</ele>
        <time>2022-09-11T09:17:42Z</time>
      </trkpt>
      <trkpt lat="46.52938" lon="0.31254">
        <ele>90.6</ele>
        <time>2022-09-11T09:17:46Z</time>
      </trkpt>
      <trkpt lat="46.52943" lon="0.31251">
        <ele>90.8</ele>
        <time>2022-09-11T09:17:48Z</time>
      </trkpt>
      <trkpt lat="46.5295" lon="0.31246">
        <ele>90.8</ele>
        <time>2022-09-11T09:17:52Z</time>
      </trkpt>
      <trkpt lat="46.52963" lon="0.31242">
        <ele>90.8</ele>
        <time>2022-09-11T09:17:56Z</time>
      </trkpt>
      <trkpt lat="46.5298" lon="0.31227">
        <ele>92</ele>
        <time>2022-09-11T09:18:01Z</time>
      </trkpt>
      <trkpt lat="46.52984" lon="0.31223">
        <ele>92.2</ele>
        <time>2022-09-11T09:18:02Z</time>
      </trkpt>
      <trkpt lat="46.5299" lon="0.31214">
        <ele>92.8</ele>
        <time>2022-09-11T09:18:05Z</time>
      </trkpt>
      <trkpt lat="46.52994" lon="0.31207">
        <ele>93.2</ele>
        <time>2022-09-11T09:18:07Z</time>
      </trkpt>
      <trkpt lat="46.52995" lon="0.31203">
        <ele>93.4</ele>
        <time>2022-09-11T09:18:08Z</time>
      </trkpt>
      <trkpt lat="46.52999" lon="0.31191">
        <ele>94.2</ele>
        <time>2022-09-11T09:18:11Z</time>
      </trkpt>
      <trkpt lat="46.53003" lon="0.31177">
        <ele>94.8</ele>
        <time>2022-09-11T09:18:15Z</time>
      </trkpt>
      <trkpt lat="46.53007" lon="0.31172">
        <ele>95.2</ele>
        <time>2022-09-11T09:18:17Z</time>
      </trkpt>
      <trkpt lat="46.5302" lon="0.31155">
        <ele>96.2</ele>
        <time>2022-09-11T09:18:23Z</time>
      </trkpt>
      <trkpt lat="46.53024" lon="0.31147">
        <ele>96.4</ele>
        <time>2022-09-11T09:18:25Z</time>
      </trkpt>
      <trkpt lat="46.53032" lon="0.31137">
        <ele>97</ele>
        <time>2022-09-11T09:18:29Z</time>
      </trkpt>
      <trkpt lat="46.53037" lon="0.31129">
        <ele>97.6</ele>
        <time>2022-09-11T09:18:32Z</time>
      </trkpt>
      <trkpt lat="46.53042" lon="0.31122">
        <ele>98.6</ele>
        <time>2022-09-11T09:18:35Z</time>
      </trkpt>
      <trkpt lat="46.53049" lon="0.31113">
        <ele>99.6</ele>
        <time>2022-09-11T09:18:39Z</time>
      </trkpt>
      <trkpt lat="46.53055" lon="0.31106">
        <ele>100.2</ele>
        <time>2022-09-11T09:18:43Z</time>
      </trkpt>
      <trkpt lat="46.53062" lon="0.31098">
        <ele>100.8</ele>
        <time>2022-09-11T09:18:48Z</time>
      </trkpt>
      <trkpt lat="46.53067" lon="0.31093">
        <ele>100.8</ele>
        <time>2022-09-11T09:18:51Z</time>
      </trkpt>
      <trkpt lat="46.53076" lon="0.31083">
        <ele>101.8</ele>
        <time>2022-09-11T09:18:55Z</time>
      </trkpt>
      <trkpt lat="46.53082" lon="0.31075">
        <ele>102.2</ele>
        <time>2022-09-11T09:18:58Z</time>
      </trkpt>
      <trkpt lat="46.53091" lon="0.31064">
        <ele>102.8</ele>
        <time>2022-09-11T09:19:03Z</time>
      </trkpt>
      <trkpt lat="46.53095" lon="0.3106">
        <ele>103.4</ele>
        <time>2022-09-11T09:19:05Z</time>
      </trkpt>
      <trkpt lat="46.53103" lon="0.31051">
        <ele>104.2</ele>
        <time>2022-09-11T09:19:10Z</time>
      </trkpt>
      <trkpt lat="46.53107" lon="0.31044">
        <ele>105</ele>
        <time>2022-09-11T09:19:13Z</time>
      </trkpt>
      <trkpt lat="46.53108" lon="0.31043">
        <ele>105.4</ele>
        <time>2022-09-11T09:19:14Z</time>
      </trkpt>
      <trkpt lat="46.53117" lon="0.31033">
        <ele>106.2</ele>
        <time>2022-09-11T09:19:21Z</time>
      </trkpt>
      <trkpt lat="46.53124" lon="0.31021">
        <ele>106.4</ele>
        <time>2022-09-11T09:19:25Z</time>
      </trkpt>
      <trkpt lat="46.5313" lon="0.31012">
        <ele>106.8</ele>
        <time>2022-09-11T09:19:28Z</time>
      </trkpt>
      <trkpt lat="46.53136" lon="0.31002">
        <ele>107.6</ele>
        <time>2022-09-11T09:19:32Z</time>
      </trkpt>
      <trkpt lat="46.53142" lon="0.30994">
        <ele>107.6</ele>
        <time>2022-09-11T09:19:35Z</time>
      </trkpt>
      <trkpt lat="46.53148" lon="0.30984">
        <ele>108.6</ele>
        <time>2022-09-11T09:19:40Z</time>
      </trkpt>
      <trkpt lat="46.53151" lon="0.30979">
        <ele>109</ele>
        <time>2022-09-11T09:19:42Z</time>
      </trkpt>
      <trkpt lat="46.53159" lon="0.30969">
        <ele>109.8</ele>
        <time>2022-09-11T09:19:46Z</time>
      </trkpt>
      <trkpt lat="46.53166" lon="0.30962">
        <ele>110.6</ele>
        <time>2022-09-11T09:19:50Z</time>
      </trkpt>
      <trkpt lat="46.53167" lon="0.3096">
        <ele>111</ele>
        <time>2022-09-11T09:19:51Z</time>
      </trkpt>
      <trkpt lat="46.53178" lon="0.30947">
        <ele>112</ele>
        <time>2022-09-11T09:19:56Z</time>
      </trkpt>
      <trkpt lat="46.53181" lon="0.30945">
        <ele>112.2</ele>
        <time>2022-09-11T09:19:57Z</time>
      </trkpt>
      <trkpt lat="46.53195" lon="0.30931">
        <ele>112.6</ele>
        <time>2022-09-11T09:20:04Z</time>
      </trkpt>
      <trkpt lat="46.53205" lon="0.30923">
        <ele>113</ele>
        <time>2022-09-11T09:20:07Z</time>
      </trkpt>
      <trkpt lat="46.53216" lon="0.30913">
        <ele>113.4</ele>
        <time>2022-09-11T09:20:11Z</time>
      </trkpt>
      <trkpt lat="46.53231" lon="0.30898">
        <ele>114</ele>
        <time>2022-09-11T09:20:16Z</time>
      </trkpt>
      <trkpt lat="46.53235" lon="0.30896">
        <ele>114.2</ele>
        <time>2022-09-11T09:20:17Z</time>
      </trkpt>
      <trkpt lat="46.53253" lon="0.30882">
        <ele>114.6</ele>
        <time>2022-09-11T09:20:23Z</time>
      </trkpt>
      <trkpt lat="46.53264" lon="0.30877">
        <ele>115.4</ele>
        <time>2022-09-11T09:20:27Z</time>
      </trkpt>
      <trkpt lat="46.53271" lon="0.30874">
        <ele>115.6</ele>
        <time>2022-09-11T09:20:29Z</time>
      </trkpt>
      <trkpt lat="46.53287" lon="0.30866">
        <ele>116</ele>
        <time>2022-09-11T09:20:34Z</time>
      </trkpt>
      <trkpt lat="46.53295" lon="0.3086">
        <ele>116.4</ele>
        <time>2022-09-11T09:20:37Z</time>
      </trkpt>
      <trkpt lat="46.53302" lon="0.30853">
        <ele>116.6</ele>
        <time>2022-09-11T09:20:40Z</time>
      </trkpt>
      <trkpt lat="46.53315" lon="0.30842">
        <ele>117.4</ele>
        <time>2022-09-11T09:20:46Z</time>
      </trkpt>
      <trkpt lat="46.53317" lon="0.3084">
        <ele>117.6</ele>
        <time>2022-09-11T09:20:47Z</time>
      </trkpt>
      <trkpt lat="46.53327" lon="0.30833">
        <ele>118.6</ele>
        <time>2022-09-11T09:20:51Z</time>
      </trkpt>
      <trkpt lat="46.53337" lon="0.30827">
        <ele>119.6</ele>
        <time>2022-09-11T09:20:54Z</time>
      </trkpt>
      <trkpt lat="46.53356" lon="0.30816">
        <ele>119.8</ele>
        <time>2022-09-11T09:21:00Z</time>
      </trkpt>
      <trkpt lat="46.53372" lon="0.30808">
        <ele>120.6</ele>
        <time>2022-09-11T09:21:05Z</time>
      </trkpt>
      <trkpt lat="46.53375" lon="0.30806">
        <ele>120.8</ele>
        <time>2022-09-11T09:21:06Z</time>
      </trkpt>
      <trkpt lat="46.5339" lon="0.30796">
        <ele>121.6</ele>
        <time>2022-09-11T09:21:11Z</time>
      </trkpt>
      <trkpt lat="46.53396" lon="0.30793">
        <ele>122</ele>
        <time>2022-09-11T09:21:13Z</time>
      </trkpt>
      <trkpt lat="46.53411" lon="0.30787">
        <ele>122.8</ele>
        <time>2022-09-11T09:21:18Z</time>
      </trkpt>
      <trkpt lat="46.53413" lon="0.30786">
        <ele>123</ele>
        <time>2022-09-11T09:21:19Z</time>
      </trkpt>
      <trkpt lat="46.53428" lon="0.30778">
        <ele>123.6</ele>
        <time>2022-09-11T09:21:25Z</time>
      </trkpt>
      <trkpt lat="46.53431" lon="0.30777">
        <ele>123.8</ele>
        <time>2022-09-11T09:21:26Z</time>
      </trkpt>
      <trkpt lat="46.53442" lon="0.30771">
        <ele>124.8</ele>
        <time>2022-09-11T09:21:31Z</time>
      </trkpt>
      <trkpt lat="46.53445" lon="0.30772">
        <ele>125</ele>
        <time>2022-09-11T09:21:32Z</time>
      </trkpt>
      <trkpt lat="46.53454" lon="0.30771">
        <ele>126.2</ele>
        <time>2022-09-11T09:21:36Z</time>
      </trkpt>
      <trkpt lat="46.53461" lon="0.3077">
        <ele>127.2</ele>
        <time>2022-09-11T09:21:39Z</time>
      </trkpt>
      <trkpt lat="46.53463" lon="0.30769">
        <ele>127.4</ele>
        <time>2022-09-11T09:21:40Z</time>
      </trkpt>
      <trkpt lat="46.53472" lon="0.30767">
        <ele>128.6</ele>
        <time>2022-09-11T09:21:44Z</time>
      </trkpt>
      <trkpt lat="46.53478" lon="0.30765">
        <ele>129.2</ele>
        <time>2022-09-11T09:21:47Z</time>
      </trkpt>
      <trkpt lat="46.53488" lon="0.30762">
        <ele>129.8</ele>
        <time>2022-09-11T09:21:51Z</time>
      </trkpt>
      <trkpt lat="46.53495" lon="0.30763">
        <ele>130.8</ele>
        <time>2022-09-11T09:21:54Z</time>
      </trkpt>
      <trkpt lat="46.53497" lon="0.30763">
        <ele>131</ele>
        <time>2022-09-11T09:21:55Z</time>
      </trkpt>
      <trkpt lat="46.53508" lon="0.30763">
        <ele>132</ele>
        <time>2022-09-11T09:22:00Z</time>
      </trkpt>
      <trkpt lat="46.53513" lon="0.30763">
        <ele>132.4</ele>
        <time>2022-09-11T09:22:02Z</time>
      </trkpt>
      <trkpt lat="46.53526" lon="0.30763">
        <ele>133.2</ele>
        <time>2022-09-11T09:22:08Z</time>
      </trkpt>
      <trkpt lat="46.53533" lon="0.30764">
        <ele>133.8</ele>
        <time>2022-09-11T09:22:11Z</time>
      </trkpt>
      <trkpt lat="46.53538" lon="0.30765">
        <ele>134.4</ele>
        <time>2022-09-11T09:22:14Z</time>
      </trkpt>
      <trkpt lat="46.53544" lon="0.30766">
        <ele>134.8</ele>
        <time>2022-09-11T09:22:17Z</time>
      </trkpt>
      <trkpt lat="46.53549" lon="0.30766">
        <ele>135.6</ele>
        <time>2022-09-11T09:22:20Z</time>
      </trkpt>
      <trkpt lat="46.53559" lon="0.30767">
        <ele>136.4</ele>
        <time>2022-09-11T09:22:25Z</time>
      </trkpt>
      <trkpt lat="46.53562" lon="0.30768">
        <ele>136.6</ele>
        <time>2022-09-11T09:22:27Z</time>
      </trkpt>
      <trkpt lat="46.53574" lon="0.30774">
        <ele>137.6</ele>
        <time>2022-09-11T09:22:33Z</time>
      </trkpt>
      <trkpt lat="46.53577" lon="0.30776">
        <ele>137.8</ele>
        <time>2022-09-11T09:22:35Z</time>
      </trkpt>
      <trkpt lat="46.53589" lon="0.30785">
        <ele>139</ele>
        <time>2022-09-11T09:22:40Z</time>
      </trkpt>
      <trkpt lat="46.5361" lon="0.30802">
        <ele>139.8</ele>
        <time>2022-09-11T09:22:47Z</time>
      </trkpt>
      <trkpt lat="46.53612" lon="0.30806">
        <ele>140</ele>
        <time>2022-09-11T09:22:48Z</time>
      </trkpt>
      <trkpt lat="46.53628" lon="0.3083">
        <ele>140.4</ele>
        <time>2022-09-11T09:22:55Z</time>
      </trkpt>
      <trkpt lat="46.53634" lon="0.30842">
        <ele>141</ele>
        <time>2022-09-11T09:22:58Z</time>
      </trkpt>
      <trkpt lat="46.53641" lon="0.30854">
        <ele>141.4</ele>
        <time>2022-09-11T09:23:01Z</time>
      </trkpt>
      <trkpt lat="46.53644" lon="0.30862">
        <ele>141.4</ele>
        <time>2022-09-11T09:23:03Z</time>
      </trkpt>
      <trkpt lat="46.53649" lon="0.30878">
        <ele>141.6</ele>
        <time>2022-09-11T09:23:06Z</time>
      </trkpt>
      <trkpt lat="46.53661" lon="0.30913">
        <ele>142</ele>
        <time>2022-09-11T09:23:12Z</time>
      </trkpt>
      <trkpt lat="46.53664" lon="0.30919">
        <ele>142</ele>
        <time>2022-09-11T09:23:13Z</time>
      </trkpt>
      <trkpt lat="46.5367" lon="0.30942">
        <ele>142</ele>
        <time>2022-09-11T09:23:16Z</time>
      </trkpt>
      <trkpt lat="46.53676" lon="0.30965">
        <ele>142.2</ele>
        <time>2022-09-11T09:23:19Z</time>
      </trkpt>
      <trkpt lat="46.53681" lon="0.3098">
        <ele>142.4</ele>
        <time>2022-09-11T09:23:21Z</time>
      </trkpt>
      <trkpt lat="46.53688" lon="0.30996">
        <ele>142.4</ele>
        <time>2022-09-11T09:23:23Z</time>
      </trkpt>
      <trkpt lat="46.53695" lon="0.31011">
        <ele>142.2</ele>
        <time>2022-09-11T09:23:25Z</time>
      </trkpt>
      <trkpt lat="46.53717" lon="0.31055">
        <ele>141.6</ele>
        <time>2022-09-11T09:23:31Z</time>
      </trkpt>
      <trkpt lat="46.5373" lon="0.31087">
        <ele>141</ele>
        <time>2022-09-11T09:23:35Z</time>
      </trkpt>
      <trkpt lat="46.53734" lon="0.31095">
        <ele>141</ele>
        <time>2022-09-11T09:23:36Z</time>
      </trkpt>
      <trkpt lat="46.53761" lon="0.31151">
        <ele>140.4</ele>
        <time>2022-09-11T09:23:43Z</time>
      </trkpt>
      <trkpt lat="46.53776" lon="0.31178">
        <ele>140</ele>
        <time>2022-09-11T09:23:46Z</time>
      </trkpt>
      <trkpt lat="46.53788" lon="0.31196">
        <ele>139.6</ele>
        <time>2022-09-11T09:23:48Z</time>
      </trkpt>
      <trkpt lat="46.53801" lon="0.31214">
        <ele>138.4</ele>
        <time>2022-09-11T09:23:50Z</time>
      </trkpt>
      <trkpt lat="46.53808" lon="0.31223">
        <ele>137.8</ele>
        <time>2022-09-11T09:23:51Z</time>
      </trkpt>
      <trkpt lat="46.53823" lon="0.31236">
        <ele>137.2</ele>
        <time>2022-09-11T09:23:53Z</time>
      </trkpt>
      <trkpt lat="46.53857" lon="0.3126">
        <ele>136</ele>
        <time>2022-09-11T09:23:58Z</time>
      </trkpt>
      <trkpt lat="46.53896" lon="0.3129">
        <ele>135.2</ele>
        <time>2022-09-11T09:24:04Z</time>
      </trkpt>
      <trkpt lat="46.53933" lon="0.31316">
        <ele>137</ele>
        <time>2022-09-11T09:24:11Z</time>
      </trkpt>
      <trkpt lat="46.53958" lon="0.31332">
        <ele>138.2</ele>
        <time>2022-09-11T09:24:16Z</time>
      </trkpt>
      <trkpt lat="46.53962" lon="0.31334">
        <ele>138.2</ele>
        <time>2022-09-11T09:24:17Z</time>
      </trkpt>
      <trkpt lat="46.53974" lon="0.31341">
        <ele>138.6</ele>
        <time>2022-09-11T09:24:20Z</time>
      </trkpt>
      <trkpt lat="46.53983" lon="0.31347">
        <ele>138.8</ele>
        <time>2022-09-11T09:24:22Z</time>
      </trkpt>
      <trkpt lat="46.53996" lon="0.31355">
        <ele>139.2</ele>
        <time>2022-09-11T09:24:25Z</time>
      </trkpt>
      <trkpt lat="46.5401" lon="0.31366">
        <ele>139.6</ele>
        <time>2022-09-11T09:24:28Z</time>
      </trkpt>
      <trkpt lat="46.54015" lon="0.31369">
        <ele>139.8</ele>
        <time>2022-09-11T09:24:29Z</time>
      </trkpt>
      <trkpt lat="46.54029" lon="0.31375">
        <ele>140.2</ele>
        <time>2022-09-11T09:24:32Z</time>
      </trkpt>
      <trkpt lat="46.54041" lon="0.3138">
        <ele>140.8</ele>
        <time>2022-09-11T09:24:35Z</time>
      </trkpt>
      <trkpt lat="46.54054" lon="0.31382">
        <ele>141.4</ele>
        <time>2022-09-11T09:24:38Z</time>
      </trkpt>
      <trkpt lat="46.54068" lon="0.31385">
        <ele>141.6</ele>
        <time>2022-09-11T09:24:41Z</time>
      </trkpt>
      <trkpt lat="46.54106" lon="0.31392">
        <ele>141.6</ele>
        <time>2022-09-11T09:24:48Z</time>
      </trkpt>
      <trkpt lat="46.54142" lon="0.31404">
        <ele>141.8</ele>
        <time>2022-09-11T09:24:54Z</time>
      </trkpt>
      <trkpt lat="46.54148" lon="0.31406">
        <ele>141.8</ele>
        <time>2022-09-11T09:24:55Z</time>
      </trkpt>
      <trkpt lat="46.54188" lon="0.31414">
        <ele>142.6</ele>
        <time>2022-09-11T09:25:01Z</time>
      </trkpt>
      <trkpt lat="46.542" lon="0.31415">
        <ele>142.6</ele>
        <time>2022-09-11T09:25:03Z</time>
      </trkpt>
      <trkpt lat="46.54228" lon="0.31411">
        <ele>142.8</ele>
        <time>2022-09-11T09:25:08Z</time>
      </trkpt>
      <trkpt lat="46.54268" lon="0.31403">
        <ele>143</ele>
        <time>2022-09-11T09:25:15Z</time>
      </trkpt>
      <trkpt lat="46.54303" lon="0.31391">
        <ele>142.6</ele>
        <time>2022-09-11T09:25:21Z</time>
      </trkpt>
      <trkpt lat="46.54347" lon="0.31381">
        <ele>142.2</ele>
        <time>2022-09-11T09:25:28Z</time>
      </trkpt>
      <trkpt lat="46.54378" lon="0.31375">
        <ele>141.6</ele>
        <time>2022-09-11T09:25:33Z</time>
      </trkpt>
      <trkpt lat="46.54383" lon="0.31375">
        <ele>141.4</ele>
        <time>2022-09-11T09:25:34Z</time>
      </trkpt>
      <trkpt lat="46.54392" lon="0.31376">
        <ele>141</ele>
        <time>2022-09-11T09:25:35Z</time>
      </trkpt>
      <trkpt lat="46.544" lon="0.31383">
        <ele>140.8</ele>
        <time>2022-09-11T09:25:37Z</time>
      </trkpt>
      <trkpt lat="46.54407" lon="0.31392">
        <ele>140.8</ele>
        <time>2022-09-11T09:25:39Z</time>
      </trkpt>
      <trkpt lat="46.5441" lon="0.31402">
        <ele>140.4</ele>
        <time>2022-09-11T09:25:41Z</time>
      </trkpt>
      <trkpt lat="46.54409" lon="0.31406">
        <ele>140.2</ele>
        <time>2022-09-11T09:25:42Z</time>
      </trkpt>
      <trkpt lat="46.54404" lon="0.31419">
        <ele>140</ele>
        <time>2022-09-11T09:25:45Z</time>
      </trkpt>
      <trkpt lat="46.54401" lon="0.31436">
        <ele>140.4</ele>
        <time>2022-09-11T09:25:48Z</time>
      </trkpt>
      <trkpt lat="46.54398" lon="0.31463">
        <ele>141</ele>
        <time>2022-09-11T09:25:52Z</time>
      </trkpt>
      <trkpt lat="46.54396" lon="0.31493">
        <ele>141</ele>
        <time>2022-09-11T09:25:56Z</time>
      </trkpt>
      <trkpt lat="46.54397" lon="0.3151">
        <ele>141</ele>
        <time>2022-09-11T09:25:58Z</time>
      </trkpt>
      <trkpt lat="46.54402" lon="0.31564">
        <ele>141</ele>
        <time>2022-09-11T09:26:04Z</time>
      </trkpt>
      <trkpt lat="46.54404" lon="0.31574">
        <ele>141</ele>
        <time>2022-09-11T09:26:05Z</time>
      </trkpt>
      <trkpt lat="46.5442" lon="0.31632">
        <ele>140.4</ele>
        <time>2022-09-11T09:26:11Z</time>
      </trkpt>
      <trkpt lat="46.54429" lon="0.31651">
        <ele>139.4</ele>
        <time>2022-09-11T09:26:13Z</time>
      </trkpt>
      <trkpt lat="46.5444" lon="0.31666">
        <ele>139</ele>
        <time>2022-09-11T09:26:15Z</time>
      </trkpt>
      <trkpt lat="46.54446" lon="0.31673">
        <ele>138.8</ele>
        <time>2022-09-11T09:26:16Z</time>
      </trkpt>
      <trkpt lat="46.54457" lon="0.31688">
        <ele>138.4</ele>
        <time>2022-09-11T09:26:18Z</time>
      </trkpt>
      <trkpt lat="46.54463" lon="0.31707">
        <ele>138</ele>
        <time>2022-09-11T09:26:20Z</time>
      </trkpt>
      <trkpt lat="46.54472" lon="0.31736">
        <ele>138</ele>
        <time>2022-09-11T09:26:23Z</time>
      </trkpt>
      <trkpt lat="46.5448" lon="0.31753">
        <ele>138</ele>
        <time>2022-09-11T09:26:25Z</time>
      </trkpt>
      <trkpt lat="46.54492" lon="0.31779">
        <ele>138</ele>
        <time>2022-09-11T09:26:28Z</time>
      </trkpt>
      <trkpt lat="46.54495" lon="0.31799">
        <ele>138</ele>
        <time>2022-09-11T09:26:30Z</time>
      </trkpt>
      <trkpt lat="46.545" lon="0.31863">
        <ele>137</ele>
        <time>2022-09-11T09:26:36Z</time>
      </trkpt>
      <trkpt lat="46.54501" lon="0.31874">
        <ele>136.8</ele>
        <time>2022-09-11T09:26:37Z</time>
      </trkpt>
      <trkpt lat="46.54508" lon="0.3195">
        <ele>136.2</ele>
        <time>2022-09-11T09:26:44Z</time>
      </trkpt>
      <trkpt lat="46.54514" lon="0.3197">
        <ele>136</ele>
        <time>2022-09-11T09:26:46Z</time>
      </trkpt>
      <trkpt lat="46.54518" lon="0.31979">
        <ele>135.8</ele>
        <time>2022-09-11T09:26:47Z</time>
      </trkpt>
      <trkpt lat="46.54523" lon="0.31988">
        <ele>135.6</ele>
        <time>2022-09-11T09:26:48Z</time>
      </trkpt>
      <trkpt lat="46.54534" lon="0.32002">
        <ele>135.4</ele>
        <time>2022-09-11T09:26:50Z</time>
      </trkpt>
      <trkpt lat="46.54548" lon="0.32011">
        <ele>135.4</ele>
        <time>2022-09-11T09:26:52Z</time>
      </trkpt>
      <trkpt lat="46.54562" lon="0.32016">
        <ele>135.8</ele>
        <time>2022-09-11T09:26:54Z</time>
      </trkpt>
      <trkpt lat="46.54576" lon="0.32017">
        <ele>136.2</ele>
        <time>2022-09-11T09:26:56Z</time>
      </trkpt>
      <trkpt lat="46.54584" lon="0.32016">
        <ele>136.4</ele>
        <time>2022-09-11T09:26:57Z</time>
      </trkpt>
      <trkpt lat="46.54591" lon="0.32014">
        <ele>136.4</ele>
        <time>2022-09-11T09:26:58Z</time>
      </trkpt>
      <trkpt lat="46.54614" lon="0.32009">
        <ele>136.6</ele>
        <time>2022-09-11T09:27:01Z</time>
      </trkpt>
      <trkpt lat="46.5465" lon="0.32006">
        <ele>136.2</ele>
        <time>2022-09-11T09:27:06Z</time>
      </trkpt>
      <trkpt lat="46.54686" lon="0.32013">
        <ele>135.2</ele>
        <time>2022-09-11T09:27:11Z</time>
      </trkpt>
      <trkpt lat="46.54694" lon="0.32017">
        <ele>135.2</ele>
        <time>2022-09-11T09:27:12Z</time>
      </trkpt>
      <trkpt lat="46.54709" lon="0.32029">
        <ele>134.8</ele>
        <time>2022-09-11T09:27:14Z</time>
      </trkpt>
      <trkpt lat="46.54716" lon="0.32036">
        <ele>134.6</ele>
        <time>2022-09-11T09:27:15Z</time>
      </trkpt>
      <trkpt lat="46.54737" lon="0.32068">
        <ele>133.2</ele>
        <time>2022-09-11T09:27:19Z</time>
      </trkpt>
      <trkpt lat="46.54742" lon="0.32074">
        <ele>132.8</ele>
        <time>2022-09-11T09:27:20Z</time>
      </trkpt>
      <trkpt lat="46.54747" lon="0.32079">
        <ele>132</ele>
        <time>2022-09-11T09:27:21Z</time>
      </trkpt>
      <trkpt lat="46.54752" lon="0.32083">
        <ele>131.6</ele>
        <time>2022-09-11T09:27:22Z</time>
      </trkpt>
      <trkpt lat="46.54758" lon="0.32086">
        <ele>131.4</ele>
        <time>2022-09-11T09:27:23Z</time>
      </trkpt>
      <trkpt lat="46.54767" lon="0.3209">
        <ele>131.2</ele>
        <time>2022-09-11T09:27:25Z</time>
      </trkpt>
      <trkpt lat="46.54776" lon="0.32093">
        <ele>131.2</ele>
        <time>2022-09-11T09:27:27Z</time>
      </trkpt>
      <trkpt lat="46.548" lon="0.32098">
        <ele>131.8</ele>
        <time>2022-09-11T09:27:34Z</time>
      </trkpt>
      <trkpt lat="46.5482" lon="0.321">
        <ele>131.8</ele>
        <time>2022-09-11T09:27:39Z</time>
      </trkpt>
      <trkpt lat="46.54829" lon="0.32096">
        <ele>131.8</ele>
        <time>2022-09-11T09:27:41Z</time>
      </trkpt>
      <trkpt lat="46.54838" lon="0.3209">
        <ele>131.8</ele>
        <time>2022-09-11T09:27:43Z</time>
      </trkpt>
      <trkpt lat="46.54857" lon="0.32077">
        <ele>132.2</ele>
        <time>2022-09-11T09:27:47Z</time>
      </trkpt>
      <trkpt lat="46.54865" lon="0.3207">
        <ele>132.2</ele>
        <time>2022-09-11T09:27:49Z</time>
      </trkpt>
      <trkpt lat="46.54872" lon="0.32071">
        <ele>132.2</ele>
        <time>2022-09-11T09:27:51Z</time>
      </trkpt>
      <trkpt lat="46.54878" lon="0.3208">
        <ele>132.4</ele>
        <time>2022-09-11T09:27:53Z</time>
      </trkpt>
      <trkpt lat="46.54881" lon="0.32088">
        <ele>132.4</ele>
        <time>2022-09-11T09:27:54Z</time>
      </trkpt>
      <trkpt lat="46.5489" lon="0.32113">
        <ele>132.8</ele>
        <time>2022-09-11T09:27:57Z</time>
      </trkpt>
      <trkpt lat="46.54892" lon="0.32121">
        <ele>133.2</ele>
        <time>2022-09-11T09:27:58Z</time>
      </trkpt>
      <trkpt lat="46.54894" lon="0.32138">
        <ele>133.6</ele>
        <time>2022-09-11T09:28:00Z</time>
      </trkpt>
      <trkpt lat="46.54894" lon="0.32146">
        <ele>133.6</ele>
        <time>2022-09-11T09:28:01Z</time>
      </trkpt>
      <trkpt lat="46.54896" lon="0.32153">
        <ele>133.8</ele>
        <time>2022-09-11T09:28:02Z</time>
      </trkpt>
      <trkpt lat="46.54902" lon="0.32163">
        <ele>134</ele>
        <time>2022-09-11T09:28:04Z</time>
      </trkpt>
      <trkpt lat="46.54903" lon="0.32171">
        <ele>134.2</ele>
        <time>2022-09-11T09:28:06Z</time>
      </trkpt>
      <trkpt lat="46.54902" lon="0.32173">
        <ele>134.2</ele>
        <time>2022-09-11T09:28:07Z</time>
      </trkpt>
      <trkpt lat="46.5489" lon="0.32176">
        <ele>133.8</ele>
        <time>2022-09-11T09:28:11Z</time>
      </trkpt>
      <trkpt lat="46.54866" lon="0.3219">
        <ele>134.4</ele>
        <time>2022-09-11T09:28:16Z</time>
      </trkpt>
      <trkpt lat="46.54832" lon="0.32204">
        <ele>133.6</ele>
        <time>2022-09-11T09:28:21Z</time>
      </trkpt>
      <trkpt lat="46.54812" lon="0.32213">
        <ele>133</ele>
        <time>2022-09-11T09:28:24Z</time>
      </trkpt>
      <trkpt lat="46.54783" lon="0.32227">
        <ele>132.4</ele>
        <time>2022-09-11T09:28:28Z</time>
      </trkpt>
      <trkpt lat="46.54742" lon="0.32257">
        <ele>132</ele>
        <time>2022-09-11T09:28:34Z</time>
      </trkpt>
      <trkpt lat="46.54697" lon="0.32302">
        <ele>131</ele>
        <time>2022-09-11T09:28:41Z</time>
      </trkpt>
      <trkpt lat="46.54691" lon="0.32308">
        <ele>130.8</ele>
        <time>2022-09-11T09:28:42Z</time>
      </trkpt>
      <trkpt lat="46.5465" lon="0.32354">
        <ele>130.6</ele>
        <time>2022-09-11T09:28:49Z</time>
      </trkpt>
      <trkpt lat="46.54616" lon="0.32382">
        <ele>130.4</ele>
        <time>2022-09-11T09:28:55Z</time>
      </trkpt>
      <trkpt lat="46.54588" lon="0.32405">
        <ele>130.4</ele>
        <time>2022-09-11T09:29:00Z</time>
      </trkpt>
      <trkpt lat="46.54583" lon="0.32411">
        <ele>130.6</ele>
        <time>2022-09-11T09:29:01Z</time>
      </trkpt>
      <trkpt lat="46.54579" lon="0.32419">
        <ele>130.6</ele>
        <time>2022-09-11T09:29:02Z</time>
      </trkpt>
      <trkpt lat="46.54568" lon="0.32439">
        <ele>130.8</ele>
        <time>2022-09-11T09:29:05Z</time>
      </trkpt>
      <trkpt lat="46.5456" lon="0.32444">
        <ele>130.6</ele>
        <time>2022-09-11T09:29:07Z</time>
      </trkpt>
      <trkpt lat="46.54556" lon="0.32446">
        <ele>130.4</ele>
        <time>2022-09-11T09:29:08Z</time>
      </trkpt>
      <trkpt lat="46.5454" lon="0.32458">
        <ele>129.8</ele>
        <time>2022-09-11T09:29:12Z</time>
      </trkpt>
      <trkpt lat="46.54532" lon="0.32463">
        <ele>129.6</ele>
        <time>2022-09-11T09:29:14Z</time>
      </trkpt>
      <trkpt lat="46.5451" lon="0.32473">
        <ele>129.6</ele>
        <time>2022-09-11T09:29:19Z</time>
      </trkpt>
      <trkpt lat="46.54502" lon="0.32477">
        <ele>130</ele>
        <time>2022-09-11T09:29:21Z</time>
      </trkpt>
      <trkpt lat="46.5449" lon="0.32479">
        <ele>130.2</ele>
        <time>2022-09-11T09:29:24Z</time>
      </trkpt>
      <trkpt lat="46.54485" lon="0.32479">
        <ele>130.2</ele>
        <time>2022-09-11T09:29:25Z</time>
      </trkpt>
      <trkpt lat="46.54458" lon="0.32478">
        <ele>130.6</ele>
        <time>2022-09-11T09:29:31Z</time>
      </trkpt>
      <trkpt lat="46.54435" lon="0.32479">
        <ele>130.8</ele>
        <time>2022-09-11T09:29:36Z</time>
      </trkpt>
      <trkpt lat="46.54429" lon="0.3248">
        <ele>130.8</ele>
        <time>2022-09-11T09:29:37Z</time>
      </trkpt>
      <trkpt lat="46.54396" lon="0.32481">
        <ele>131.4</ele>
        <time>2022-09-11T09:29:43Z</time>
      </trkpt>
      <trkpt lat="46.54391" lon="0.32482">
        <ele>131.4</ele>
        <time>2022-09-11T09:29:44Z</time>
      </trkpt>
      <trkpt lat="46.54369" lon="0.32485">
        <ele>130.4</ele>
        <time>2022-09-11T09:29:48Z</time>
      </trkpt>
      <trkpt lat="46.54356" lon="0.32486">
        <ele>130.2</ele>
        <time>2022-09-11T09:29:50Z</time>
      </trkpt>
      <trkpt lat="46.54329" lon="0.32488">
        <ele>130.2</ele>
        <time>2022-09-11T09:29:54Z</time>
      </trkpt>
      <trkpt lat="46.54315" lon="0.3249">
        <ele>130.2</ele>
        <time>2022-09-11T09:29:56Z</time>
      </trkpt>
      <trkpt lat="46.5428" lon="0.32493">
        <ele>129.6</ele>
        <time>2022-09-11T09:30:01Z</time>
      </trkpt>
      <trkpt lat="46.54274" lon="0.32493">
        <ele>129.4</ele>
        <time>2022-09-11T09:30:02Z</time>
      </trkpt>
      <trkpt lat="46.54258" lon="0.32493">
        <ele>128.4</ele>
        <time>2022-09-11T09:30:04Z</time>
      </trkpt>
      <trkpt lat="46.54249" lon="0.32491">
        <ele>128</ele>
        <time>2022-09-11T09:30:06Z</time>
      </trkpt>
      <trkpt lat="46.54245" lon="0.3249">
        <ele>127.8</ele>
        <time>2022-09-11T09:30:07Z</time>
      </trkpt>
      <trkpt lat="46.54241" lon="0.32485">
        <ele>127.4</ele>
        <time>2022-09-11T09:30:09Z</time>
      </trkpt>
      <trkpt lat="46.54238" lon="0.32483">
        <ele>127.4</ele>
        <time>2022-09-11T09:30:10Z</time>
      </trkpt>
      <trkpt lat="46.54236" lon="0.32479">
        <ele>127.6</ele>
        <time>2022-09-11T09:30:11Z</time>
      </trkpt>
      <trkpt lat="46.54232" lon="0.32454">
        <ele>128.6</ele>
        <time>2022-09-11T09:30:15Z</time>
      </trkpt>
      <trkpt lat="46.54228" lon="0.32404">
        <ele>129.4</ele>
        <time>2022-09-11T09:30:21Z</time>
      </trkpt>
      <trkpt lat="46.54227" lon="0.32396">
        <ele>129.6</ele>
        <time>2022-09-11T09:30:22Z</time>
      </trkpt>
      <trkpt lat="46.54226" lon="0.32373">
        <ele>130.2</ele>
        <time>2022-09-11T09:30:25Z</time>
      </trkpt>
      <trkpt lat="46.54226" lon="0.32365">
        <ele>130.6</ele>
        <time>2022-09-11T09:30:26Z</time>
      </trkpt>
      <trkpt lat="46.54225" lon="0.32358">
        <ele>130.8</ele>
        <time>2022-09-11T09:30:27Z</time>
      </trkpt>
      <trkpt lat="46.54223" lon="0.32323">
        <ele>131.4</ele>
        <time>2022-09-11T09:30:32Z</time>
      </trkpt>
      <trkpt lat="46.54221" lon="0.323">
        <ele>131.6</ele>
        <time>2022-09-11T09:30:36Z</time>
      </trkpt>
      <trkpt lat="46.54221" lon="0.32296">
        <ele>131.6</ele>
        <time>2022-09-11T09:30:37Z</time>
      </trkpt>
      <trkpt lat="46.54222" lon="0.32294">
        <ele>131.6</ele>
        <time>2022-09-11T09:30:38Z</time>
      </trkpt>
      <trkpt lat="46.54226" lon="0.32293">
        <ele>131.6</ele>
        <time>2022-09-11T09:30:40Z</time>
      </trkpt>
      <trkpt lat="46.5423" lon="0.32292">
        <ele>132</ele>
        <time>2022-09-11T09:30:41Z</time>
      </trkpt>
      <trkpt lat="46.54241" lon="0.32298">
        <ele>132.6</ele>
        <time>2022-09-11T09:30:45Z</time>
      </trkpt>
      <trkpt lat="46.54244" lon="0.32299">
        <ele>132.6</ele>
        <time>2022-09-11T09:30:46Z</time>
      </trkpt>
      <trkpt lat="46.54249" lon="0.323">
        <ele>132.8</ele>
        <time>2022-09-11T09:30:48Z</time>
      </trkpt>
      <trkpt lat="46.5426" lon="0.32302">
        <ele>133.4</ele>
        <time>2022-09-11T09:30:51Z</time>
      </trkpt>
      <trkpt lat="46.54265" lon="0.32309">
        <ele>133.8</ele>
        <time>2022-09-11T09:30:53Z</time>
      </trkpt>
      <trkpt lat="46.54268" lon="0.32312">
        <ele>133.8</ele>
        <time>2022-09-11T09:30:54Z</time>
      </trkpt>
      <trkpt lat="46.54274" lon="0.3232">
        <ele>133.8</ele>
        <time>2022-09-11T09:30:56Z</time>
      </trkpt>
      <trkpt lat="46.5428" lon="0.32326">
        <ele>134</ele>
        <time>2022-09-11T09:30:58Z</time>
      </trkpt>
      <trkpt lat="46.54283" lon="0.32327">
        <ele>134</ele>
        <time>2022-09-11T09:30:59Z</time>
      </trkpt>
      <trkpt lat="46.54286" lon="0.32328">
        <ele>134</ele>
        <time>2022-09-11T09:31:00Z</time>
      </trkpt>
      <trkpt lat="46.54289" lon="0.32333">
        <ele>134</ele>
        <time>2022-09-11T09:31:02Z</time>
      </trkpt>
      <trkpt lat="46.5429" lon="0.32335">
        <ele>133.8</ele>
        <time>2022-09-11T09:31:03Z</time>
      </trkpt>
      <trkpt lat="46.54292" lon="0.32337">
        <ele>133.8</ele>
        <time>2022-09-11T09:31:04Z</time>
      </trkpt>
      <trkpt lat="46.54297" lon="0.32337">
        <ele>133.2</ele>
        <time>2022-09-11T09:31:06Z</time>
      </trkpt>
      <trkpt lat="46.54298" lon="0.3234">
        <ele>132.8</ele>
        <time>2022-09-11T09:31:08Z</time>
      </trkpt>
      <trkpt lat="46.54297" lon="0.32341">
        <ele>132.6</ele>
        <time>2022-09-11T09:31:09Z</time>
      </trkpt>
      <trkpt lat="46.54295" lon="0.32342">
        <ele>132.6</ele>
        <time>2022-09-11T09:31:12Z</time>
      </trkpt>
      <trkpt lat="46.54293" lon="0.32343">
        <ele>132.6</ele>
        <time>2022-09-11T09:31:14Z</time>
      </trkpt>
      <trkpt lat="46.54289" lon="0.32346">
        <ele>132.4</ele>
        <time>2022-09-11T09:31:17Z</time>
      </trkpt>
      <trkpt lat="46.54289" lon="0.32352">
        <ele>132.2</ele>
        <time>2022-09-11T09:31:19Z</time>
      </trkpt>
      <trkpt lat="46.54293" lon="0.32361">
        <ele>132.2</ele>
        <time>2022-09-11T09:31:22Z</time>
      </trkpt>
      <trkpt lat="46.54294" lon="0.32366">
        <ele>132.2</ele>
        <time>2022-09-11T09:31:23Z</time>
      </trkpt>
      <trkpt lat="46.54296" lon="0.32371">
        <ele>132.2</ele>
        <time>2022-09-11T09:31:24Z</time>
      </trkpt>
      <trkpt lat="46.543" lon="0.32379">
        <ele>132.4</ele>
        <time>2022-09-11T09:31:26Z</time>
      </trkpt>
      <trkpt lat="46.54307" lon="0.32386">
        <ele>132.4</ele>
        <time>2022-09-11T09:31:28Z</time>
      </trkpt>
      <trkpt lat="46.54319" lon="0.32391">
        <ele>132.2</ele>
        <time>2022-09-11T09:31:31Z</time>
      </trkpt>
      <trkpt lat="46.54327" lon="0.3239">
        <ele>132</ele>
        <time>2022-09-11T09:31:33Z</time>
      </trkpt>
      <trkpt lat="46.54338" lon="0.32388">
        <ele>132.4</ele>
        <time>2022-09-11T09:31:36Z</time>
      </trkpt>
      <trkpt lat="46.54347" lon="0.32385">
        <ele>132.8</ele>
        <time>2022-09-11T09:31:39Z</time>
      </trkpt>
      <trkpt lat="46.54355" lon="0.32382">
        <ele>132.8</ele>
        <time>2022-09-11T09:31:41Z</time>
      </trkpt>
      <trkpt lat="46.54368" lon="0.3238">
        <ele>132.8</ele>
        <time>2022-09-11T09:31:44Z</time>
      </trkpt>
      <trkpt lat="46.54379" lon="0.32387">
        <ele>133</ele>
        <time>2022-09-11T09:31:47Z</time>
      </trkpt>
      <trkpt lat="46.54388" lon="0.3239">
        <ele>132.8</ele>
        <time>2022-09-11T09:31:49Z</time>
      </trkpt>
      <trkpt lat="46.54401" lon="0.3239">
        <ele>132.6</ele>
        <time>2022-09-11T09:31:52Z</time>
      </trkpt>
      <trkpt lat="46.54411" lon="0.32395">
        <ele>132.6</ele>
        <time>2022-09-11T09:31:55Z</time>
      </trkpt>
      <trkpt lat="46.54417" lon="0.324">
        <ele>132.2</ele>
        <time>2022-09-11T09:31:57Z</time>
      </trkpt>
      <trkpt lat="46.54421" lon="0.32406">
        <ele>132</ele>
        <time>2022-09-11T09:31:59Z</time>
      </trkpt>
      <trkpt lat="46.54432" lon="0.32421">
        <ele>131.4</ele>
        <time>2022-09-11T09:32:02Z</time>
      </trkpt>
      <trkpt lat="46.54435" lon="0.32424">
        <ele>131.4</ele>
        <time>2022-09-11T09:32:04Z</time>
      </trkpt>
      <trkpt lat="46.54441" lon="0.32432">
        <ele>131.2</ele>
        <time>2022-09-11T09:32:06Z</time>
      </trkpt>
      <trkpt lat="46.54445" lon="0.32438">
        <ele>131</ele>
        <time>2022-09-11T09:32:08Z</time>
      </trkpt>
      <trkpt lat="46.54456" lon="0.32456">
        <ele>130.8</ele>
        <time>2022-09-11T09:32:14Z</time>
      </trkpt>
      <trkpt lat="46.54464" lon="0.32463">
        <ele>131</ele>
        <time>2022-09-11T09:32:17Z</time>
      </trkpt>
      <trkpt lat="46.54466" lon="0.32461">
        <ele>131</ele>
        <time>2022-09-11T09:32:18Z</time>
      </trkpt>
      <trkpt lat="46.5447" lon="0.32457">
        <ele>131</ele>
        <time>2022-09-11T09:32:20Z</time>
      </trkpt>
      <trkpt lat="46.54475" lon="0.32457">
        <ele>130.8</ele>
        <time>2022-09-11T09:32:22Z</time>
      </trkpt>
      <trkpt lat="46.54481" lon="0.32457">
        <ele>130.4</ele>
        <time>2022-09-11T09:32:25Z</time>
      </trkpt>
      <trkpt lat="46.54483" lon="0.32458">
        <ele>130.2</ele>
        <time>2022-09-11T09:32:26Z</time>
      </trkpt>
      <trkpt lat="46.54485" lon="0.32461">
        <ele>130</ele>
        <time>2022-09-11T09:32:27Z</time>
      </trkpt>
      <trkpt lat="46.54488" lon="0.32463">
        <ele>130</ele>
        <time>2022-09-11T09:32:28Z</time>
      </trkpt>
      <trkpt lat="46.54491" lon="0.32468">
        <ele>130</ele>
        <time>2022-09-11T09:32:31Z</time>
      </trkpt>
      <trkpt lat="46.54492" lon="0.32472">
        <ele>129.8</ele>
        <time>2022-09-11T09:32:38Z</time>
      </trkpt>
      <trkpt lat="46.54498" lon="0.32473">
        <ele>129.4</ele>
        <time>2022-09-11T09:32:48Z</time>
      </trkpt>
      <trkpt lat="46.54504" lon="0.32478">
        <ele>129.6</ele>
        <time>2022-09-11T09:32:52Z</time>
      </trkpt>
      <trkpt lat="46.54507" lon="0.32488">
        <ele>130</ele>
        <time>2022-09-11T09:32:55Z</time>
      </trkpt>
      <trkpt lat="46.54506" lon="0.32495">
        <ele>130</ele>
        <time>2022-09-11T09:32:57Z</time>
      </trkpt>
      <trkpt lat="46.54504" lon="0.32498">
        <ele>130</ele>
        <time>2022-09-11T09:32:58Z</time>
      </trkpt>
      <trkpt lat="46.54503" lon="0.32501">
        <ele>130</ele>
        <time>2022-09-11T09:32:59Z</time>
      </trkpt>
      <trkpt lat="46.54493" lon="0.32512">
        <ele>129.4</ele>
        <time>2022-09-11T09:33:04Z</time>
      </trkpt>
      <trkpt lat="46.5449" lon="0.32515">
        <ele>129</ele>
        <time>2022-09-11T09:33:05Z</time>
      </trkpt>
      <trkpt lat="46.54485" lon="0.32525">
        <ele>128.4</ele>
        <time>2022-09-11T09:33:08Z</time>
      </trkpt>
      <trkpt lat="46.54485" lon="0.32529">
        <ele>128.2</ele>
        <time>2022-09-11T09:33:09Z</time>
      </trkpt>
      <trkpt lat="46.54484" lon="0.32533">
        <ele>128</ele>
        <time>2022-09-11T09:33:10Z</time>
      </trkpt>
      <trkpt lat="46.54485" lon="0.32543">
        <ele>127.6</ele>
        <time>2022-09-11T09:33:12Z</time>
      </trkpt>
      <trkpt lat="46.54487" lon="0.32549">
        <ele>127.4</ele>
        <time>2022-09-11T09:33:13Z</time>
      </trkpt>
      <trkpt lat="46.54489" lon="0.32556">
        <ele>127.2</ele>
        <time>2022-09-11T09:33:14Z</time>
      </trkpt>
      <trkpt lat="46.54493" lon="0.32566">
        <ele>126.4</ele>
        <time>2022-09-11T09:33:16Z</time>
      </trkpt>
      <trkpt lat="46.54495" lon="0.32573">
        <ele>126</ele>
        <time>2022-09-11T09:33:17Z</time>
      </trkpt>
      <trkpt lat="46.54496" lon="0.32579">
        <ele>125.6</ele>
        <time>2022-09-11T09:33:18Z</time>
      </trkpt>
      <trkpt lat="46.54497" lon="0.32585">
        <ele>125.4</ele>
        <time>2022-09-11T09:33:19Z</time>
      </trkpt>
      <trkpt lat="46.54496" lon="0.32588">
        <ele>125.2</ele>
        <time>2022-09-11T09:33:20Z</time>
      </trkpt>
      <trkpt lat="46.54491" lon="0.32588">
        <ele>124.8</ele>
        <time>2022-09-11T09:33:23Z</time>
      </trkpt>
      <trkpt lat="46.54488" lon="0.32589">
        <ele>124.4</ele>
        <time>2022-09-11T09:33:25Z</time>
      </trkpt>
      <trkpt lat="46.54485" lon="0.32591">
        <ele>124.4</ele>
        <time>2022-09-11T09:33:26Z</time>
      </trkpt>
      <trkpt lat="46.54481" lon="0.32592">
        <ele>124.6</ele>
        <time>2022-09-11T09:33:27Z</time>
      </trkpt>
      <trkpt lat="46.54476" lon="0.32589">
        <ele>124.6</ele>
        <time>2022-09-11T09:33:29Z</time>
      </trkpt>
      <trkpt lat="46.54473" lon="0.3259">
        <ele>124.6</ele>
        <time>2022-09-11T09:33:30Z</time>
      </trkpt>
      <trkpt lat="46.54462" lon="0.32587">
        <ele>124.2</ele>
        <time>2022-09-11T09:33:33Z</time>
      </trkpt>
      <trkpt lat="46.54458" lon="0.32587">
        <ele>124.2</ele>
        <time>2022-09-11T09:33:34Z</time>
      </trkpt>
      <trkpt lat="46.54454" lon="0.32588">
        <ele>124.2</ele>
        <time>2022-09-11T09:33:35Z</time>
      </trkpt>
      <trkpt lat="46.54448" lon="0.32596">
        <ele>124</ele>
        <time>2022-09-11T09:33:37Z</time>
      </trkpt>
      <trkpt lat="46.54445" lon="0.32604">
        <ele>123.2</ele>
        <time>2022-09-11T09:33:39Z</time>
      </trkpt>
      <trkpt lat="46.54441" lon="0.32608">
        <ele>122</ele>
        <time>2022-09-11T09:33:41Z</time>
      </trkpt>
      <trkpt lat="46.54431" lon="0.32617">
        <ele>120.8</ele>
        <time>2022-09-11T09:33:46Z</time>
      </trkpt>
      <trkpt lat="46.54429" lon="0.3262">
        <ele>120.4</ele>
        <time>2022-09-11T09:33:47Z</time>
      </trkpt>
      <trkpt lat="46.54427" lon="0.32624">
        <ele>120</ele>
        <time>2022-09-11T09:33:48Z</time>
      </trkpt>
      <trkpt lat="46.54424" lon="0.32625">
        <ele>119.6</ele>
        <time>2022-09-11T09:33:49Z</time>
      </trkpt>
      <trkpt lat="46.54416" lon="0.32629">
        <ele>119</ele>
        <time>2022-09-11T09:33:51Z</time>
      </trkpt>
      <trkpt lat="46.54406" lon="0.32634">
        <ele>118.8</ele>
        <time>2022-09-11T09:33:54Z</time>
      </trkpt>
      <trkpt lat="46.54403" lon="0.32639">
        <ele>118.4</ele>
        <time>2022-09-11T09:33:55Z</time>
      </trkpt>
      <trkpt lat="46.54402" lon="0.32645">
        <ele>118.2</ele>
        <time>2022-09-11T09:33:56Z</time>
      </trkpt>
      <trkpt lat="46.54403" lon="0.32652">
        <ele>118</ele>
        <time>2022-09-11T09:33:58Z</time>
      </trkpt>
      <trkpt lat="46.54403" lon="0.3266">
        <ele>117</ele>
        <time>2022-09-11T09:34:00Z</time>
      </trkpt>
      <trkpt lat="46.54402" lon="0.32669">
        <ele>116.2</ele>
        <time>2022-09-11T09:34:02Z</time>
      </trkpt>
      <trkpt lat="46.54399" lon="0.32671">
        <ele>115.8</ele>
        <time>2022-09-11T09:34:03Z</time>
      </trkpt>
      <trkpt lat="46.54395" lon="0.3267">
        <ele>115.4</ele>
        <time>2022-09-11T09:34:04Z</time>
      </trkpt>
      <trkpt lat="46.54386" lon="0.32668">
        <ele>114.4</ele>
        <time>2022-09-11T09:34:06Z</time>
      </trkpt>
      <trkpt lat="46.54382" lon="0.32663">
        <ele>113.4</ele>
        <time>2022-09-11T09:34:08Z</time>
      </trkpt>
      <trkpt lat="46.54377" lon="0.32657">
        <ele>113</ele>
        <time>2022-09-11T09:34:10Z</time>
      </trkpt>
      <trkpt lat="46.54373" lon="0.32655">
        <ele>113.2</ele>
        <time>2022-09-11T09:34:12Z</time>
      </trkpt>
      <trkpt lat="46.5437" lon="0.32655">
        <ele>113.2</ele>
        <time>2022-09-11T09:34:13Z</time>
      </trkpt>
      <trkpt lat="46.5436" lon="0.32656">
        <ele>112.2</ele>
        <time>2022-09-11T09:34:19Z</time>
      </trkpt>
      <trkpt lat="46.54359" lon="0.32656">
        <ele>112.2</ele>
        <time>2022-09-11T09:34:20Z</time>
      </trkpt>
      <trkpt lat="46.54347" lon="0.32661">
        <ele>111.8</ele>
        <time>2022-09-11T09:34:33Z</time>
      </trkpt>
      <trkpt lat="46.54343" lon="0.32664">
        <ele>111.2</ele>
        <time>2022-09-11T09:34:38Z</time>
      </trkpt>
      <trkpt lat="46.54338" lon="0.32667">
        <ele>110.2</ele>
        <time>2022-09-11T09:34:48Z</time>
      </trkpt>
      <trkpt lat="46.54337" lon="0.32668">
        <ele>110.2</ele>
        <time>2022-09-11T09:34:49Z</time>
      </trkpt>
      <trkpt lat="46.54337" lon="0.3267">
        <ele>109.8</ele>
        <time>2022-09-11T09:34:50Z</time>
      </trkpt>
      <trkpt lat="46.54337" lon="0.32672">
        <ele>109.4</ele>
        <time>2022-09-11T09:34:51Z</time>
      </trkpt>
      <trkpt lat="46.54337" lon="0.32674">
        <ele>108.8</ele>
        <time>2022-09-11T09:34:52Z</time>
      </trkpt>
      <trkpt lat="46.54336" lon="0.32678">
        <ele>107.8</ele>
        <time>2022-09-11T09:34:54Z</time>
      </trkpt>
      <trkpt lat="46.54334" lon="0.32683">
        <ele>107</ele>
        <time>2022-09-11T09:34:56Z</time>
      </trkpt>
      <trkpt lat="46.54332" lon="0.32683">
        <ele>106.4</ele>
        <time>2022-09-11T09:34:57Z</time>
      </trkpt>
      <trkpt lat="46.54328" lon="0.32682">
        <ele>105</ele>
        <time>2022-09-11T09:35:00Z</time>
      </trkpt>
      <trkpt lat="46.54324" lon="0.3268">
        <ele>105.2</ele>
        <time>2022-09-11T09:35:05Z</time>
      </trkpt>
      <trkpt lat="46.54322" lon="0.3268">
        <ele>105.8</ele>
        <time>2022-09-11T09:35:07Z</time>
      </trkpt>
      <trkpt lat="46.54321" lon="0.32681">
        <ele>106</ele>
        <time>2022-09-11T09:35:09Z</time>
      </trkpt>
      <trkpt lat="46.54319" lon="0.32682">
        <ele>106.4</ele>
        <time>2022-09-11T09:35:18Z</time>
      </trkpt>
      <trkpt lat="46.54316" lon="0.32681">
        <ele>107</ele>
        <time>2022-09-11T09:35:27Z</time>
      </trkpt>
      <trkpt lat="46.54312" lon="0.3268">
        <ele>107</ele>
        <time>2022-09-11T09:35:31Z</time>
      </trkpt>
      <trkpt lat="46.5431" lon="0.3268">
        <ele>107.2</ele>
        <time>2022-09-11T09:35:33Z</time>
      </trkpt>
      <trkpt lat="46.54301" lon="0.3268">
        <ele>105.8</ele>
        <time>2022-09-11T09:35:38Z</time>
      </trkpt>
      <trkpt lat="46.54299" lon="0.3268">
        <ele>105.2</ele>
        <time>2022-09-11T09:35:40Z</time>
      </trkpt>
      <trkpt lat="46.54294" lon="0.32677">
        <ele>105</ele>
        <time>2022-09-11T09:35:44Z</time>
      </trkpt>
      <trkpt lat="46.54292" lon="0.32679">
        <ele>105</ele>
        <time>2022-09-11T09:35:48Z</time>
      </trkpt>
      <trkpt lat="46.54293" lon="0.3268">
        <ele>104.6</ele>
        <time>2022-09-11T09:35:51Z</time>
      </trkpt>
      <trkpt lat="46.54296" lon="0.32682">
        <ele>105</ele>
        <time>2022-09-11T09:35:57Z</time>
      </trkpt>
      <trkpt lat="46.54296" lon="0.32682">
        <ele>105</ele>
        <time>2022-09-11T09:35:59Z</time>
      </trkpt>
      <trkpt lat="46.54298" lon="0.32683">
        <ele>105.2</ele>
        <time>2022-09-11T09:36:02Z</time>
      </trkpt>
      <trkpt lat="46.54299" lon="0.32683">
        <ele>105.8</ele>
        <time>2022-09-11T09:36:05Z</time>
      </trkpt>
      <trkpt lat="46.54301" lon="0.32683">
        <ele>106.6</ele>
        <time>2022-09-11T09:36:09Z</time>
      </trkpt>
      <trkpt lat="46.54302" lon="0.32682">
        <ele>106.8</ele>
        <time>2022-09-11T09:36:11Z</time>
      </trkpt>
      <trkpt lat="46.54307" lon="0.3268">
        <ele>107.4</ele>
        <time>2022-09-11T09:36:21Z</time>
      </trkpt>
      <trkpt lat="46.54305" lon="0.32681">
        <ele>107</ele>
        <time>2022-09-11T09:36:35Z</time>
      </trkpt>
      <trkpt lat="46.54299" lon="0.32681">
        <ele>107</ele>
        <time>2022-09-11T09:36:41Z</time>
      </trkpt>
      <trkpt lat="46.54294" lon="0.3268">
        <ele>107</ele>
        <time>2022-09-11T09:36:43Z</time>
      </trkpt>
      <trkpt lat="46.54289" lon="0.32678">
        <ele>105.8</ele>
        <time>2022-09-11T09:36:47Z</time>
      </trkpt>
      <trkpt lat="46.54288" lon="0.32678">
        <ele>105.6</ele>
        <time>2022-09-11T09:36:48Z</time>
      </trkpt>
      <trkpt lat="46.54279" lon="0.32676">
        <ele>105.8</ele>
        <time>2022-09-11T09:37:01Z</time>
      </trkpt>
      <trkpt lat="46.54265" lon="0.32672">
        <ele>105</ele>
        <time>2022-09-11T09:37:11Z</time>
      </trkpt>
      <trkpt lat="46.54263" lon="0.32672">
        <ele>104.8</ele>
        <time>2022-09-11T09:37:13Z</time>
      </trkpt>
      <trkpt lat="46.54258" lon="0.32673">
        <ele>103.8</ele>
        <time>2022-09-11T09:37:21Z</time>
      </trkpt>
      <trkpt lat="46.54257" lon="0.32673">
        <ele>103.6</ele>
        <time>2022-09-11T09:37:22Z</time>
      </trkpt>
      <trkpt lat="46.54255" lon="0.32674">
        <ele>102.4</ele>
        <time>2022-09-11T09:37:26Z</time>
      </trkpt>
      <trkpt lat="46.54253" lon="0.32676">
        <ele>101.2</ele>
        <time>2022-09-11T09:37:31Z</time>
      </trkpt>
      <trkpt lat="46.54252" lon="0.32675">
        <ele>100.6</ele>
        <time>2022-09-11T09:37:33Z</time>
      </trkpt>
      <trkpt lat="46.54251" lon="0.32675">
        <ele>99.8</ele>
        <time>2022-09-11T09:37:35Z</time>
      </trkpt>
      <trkpt lat="46.54247" lon="0.32673">
        <ele>99.6</ele>
        <time>2022-09-11T09:37:39Z</time>
      </trkpt>
      <trkpt lat="46.54243" lon="0.32671">
        <ele>100.4</ele>
        <time>2022-09-11T09:37:43Z</time>
      </trkpt>
      <trkpt lat="46.54239" lon="0.3267">
        <ele>100.8</ele>
        <time>2022-09-11T09:37:47Z</time>
      </trkpt>
      <trkpt lat="46.54235" lon="0.32667">
        <ele>100.6</ele>
        <time>2022-09-11T09:37:55Z</time>
      </trkpt>
      <trkpt lat="46.5423" lon="0.32674">
        <ele>99.8</ele>
        <time>2022-09-11T09:38:06Z</time>
      </trkpt>
      <trkpt lat="46.54228" lon="0.32677">
        <ele>99.4</ele>
        <time>2022-09-11T09:38:09Z</time>
      </trkpt>
      <trkpt lat="46.54226" lon="0.32679">
        <ele>98.8</ele>
        <time>2022-09-11T09:38:23Z</time>
      </trkpt>
      <trkpt lat="46.54226" lon="0.32679">
        <ele>98.8</ele>
        <time>2022-09-11T09:38:24Z</time>
      </trkpt>
      <trkpt lat="46.54225" lon="0.32679">
        <ele>98.4</ele>
        <time>2022-09-11T09:38:41Z</time>
      </trkpt>
      <trkpt lat="46.54222" lon="0.32681">
        <ele>98.4</ele>
        <time>2022-09-11T09:38:57Z</time>
      </trkpt>
      <trkpt lat="46.54221" lon="0.32682">
        <ele>98.4</ele>
        <time>2022-09-11T09:39:15Z</time>
      </trkpt>
      <trkpt lat="46.54221" lon="0.32682">
        <ele>98.2</ele>
        <time>2022-09-11T09:39:16Z</time>
      </trkpt>
      <trkpt lat="46.5422" lon="0.32684">
        <ele>97.6</ele>
        <time>2022-09-11T09:39:22Z</time>
      </trkpt>
      <trkpt lat="46.5422" lon="0.32685">
        <ele>96.6</ele>
        <time>2022-09-11T09:39:35Z</time>
      </trkpt>
      <trkpt lat="46.5422" lon="0.32685">
        <ele>96.6</ele>
        <time>2022-09-11T09:39:36Z</time>
      </trkpt>
      <trkpt lat="46.5422" lon="0.32683">
        <ele>96.6</ele>
        <time>2022-09-11T09:39:51Z</time>
      </trkpt>
      <trkpt lat="46.54219" lon="0.32683">
        <ele>96</ele>
        <time>2022-09-11T09:40:03Z</time>
      </trkpt>
      <trkpt lat="46.54219" lon="0.32684">
        <ele>95.4</ele>
        <time>2022-09-11T09:40:06Z</time>
      </trkpt>
      <trkpt lat="46.54217" lon="0.32687">
        <ele>94</ele>
        <time>2022-09-11T09:40:13Z</time>
      </trkpt>
      <trkpt lat="46.54216" lon="0.32688">
        <ele>93</ele>
        <time>2022-09-11T09:40:20Z</time>
      </trkpt>
      <trkpt lat="46.54215" lon="0.32687">
        <ele>92.6</ele>
        <time>2022-09-11T09:40:27Z</time>
      </trkpt>
      <trkpt lat="46.54213" lon="0.32686">
        <ele>92</ele>
        <time>2022-09-11T09:40:32Z</time>
      </trkpt>
      <trkpt lat="46.54208" lon="0.32684">
        <ele>91.2</ele>
        <time>2022-09-11T09:40:40Z</time>
      </trkpt>
      <trkpt lat="46.54208" lon="0.32684">
        <ele>91</ele>
        <time>2022-09-11T09:40:42Z</time>
      </trkpt>
      <trkpt lat="46.54205" lon="0.32678">
        <ele>91</ele>
        <time>2022-09-11T09:40:52Z</time>
      </trkpt>
      <trkpt lat="46.54201" lon="0.32677">
        <ele>91</ele>
        <time>2022-09-11T09:40:57Z</time>
      </trkpt>
      <trkpt lat="46.54198" lon="0.32681">
        <ele>91.2</ele>
        <time>2022-09-11T09:41:06Z</time>
      </trkpt>
      <trkpt lat="46.54192" lon="0.32681">
        <ele>90.2</ele>
        <time>2022-09-11T09:41:14Z</time>
      </trkpt>
      <trkpt lat="46.54191" lon="0.32681">
        <ele>90</ele>
        <time>2022-09-11T09:41:16Z</time>
      </trkpt>
      <trkpt lat="46.5419" lon="0.32681">
        <ele>89.8</ele>
        <time>2022-09-11T09:41:17Z</time>
      </trkpt>
      <trkpt lat="46.54179" lon="0.32677">
        <ele>90.4</ele>
        <time>2022-09-11T09:41:30Z</time>
      </trkpt>
      <trkpt lat="46.54175" lon="0.32675">
        <ele>90.4</ele>
        <time>2022-09-11T09:41:33Z</time>
      </trkpt>
      <trkpt lat="46.54161" lon="0.32671">
        <ele>90.4</ele>
        <time>2022-09-11T09:41:43Z</time>
      </trkpt>
      <trkpt lat="46.54159" lon="0.32671">
        <ele>90.4</ele>
        <time>2022-09-11T09:41:45Z</time>
      </trkpt>
      <trkpt lat="46.54154" lon="0.32674">
        <ele>89.8</ele>
        <time>2022-09-11T09:41:53Z</time>
      </trkpt>
      <trkpt lat="46.54149" lon="0.32678">
        <ele>88.8</ele>
        <time>2022-09-11T09:41:59Z</time>
      </trkpt>
      <trkpt lat="46.54143" lon="0.32682">
        <ele>87.8</ele>
        <time>2022-09-11T09:42:08Z</time>
      </trkpt>
      <trkpt lat="46.54141" lon="0.32684">
        <ele>86.6</ele>
        <time>2022-09-11T09:42:12Z</time>
      </trkpt>
      <trkpt lat="46.54141" lon="0.32685">
        <ele>85.4</ele>
        <time>2022-09-11T09:42:15Z</time>
      </trkpt>
      <trkpt lat="46.5414" lon="0.32686">
        <ele>85.2</ele>
        <time>2022-09-11T09:42:18Z</time>
      </trkpt>
      <trkpt lat="46.5414" lon="0.32686">
        <ele>85</ele>
        <time>2022-09-11T09:42:20Z</time>
      </trkpt>
      <trkpt lat="46.5414" lon="0.32689">
        <ele>85</ele>
        <time>2022-09-11T09:42:33Z</time>
      </trkpt>
      <trkpt lat="46.54139" lon="0.32688">
        <ele>84.4</ele>
        <time>2022-09-11T09:42:45Z</time>
      </trkpt>
      <trkpt lat="46.5414" lon="0.32687">
        <ele>84.4</ele>
        <time>2022-09-11T09:42:49Z</time>
      </trkpt>
      <trkpt lat="46.54138" lon="0.32691">
        <ele>84.8</ele>
        <time>2022-09-11T09:43:04Z</time>
      </trkpt>
      <trkpt lat="46.54138" lon="0.32691">
        <ele>84.8</ele>
        <time>2022-09-11T09:43:05Z</time>
      </trkpt>
      <trkpt lat="46.54131" lon="0.3269">
        <ele>84.2</ele>
        <time>2022-09-11T09:43:18Z</time>
      </trkpt>
      <trkpt lat="46.54129" lon="0.3269">
        <ele>84.2</ele>
        <time>2022-09-11T09:43:20Z</time>
      </trkpt>
      <trkpt lat="46.54121" lon="0.32691">
        <ele>84.2</ele>
        <time>2022-09-11T09:43:32Z</time>
      </trkpt>
      <trkpt lat="46.54117" lon="0.32691">
        <ele>84.4</ele>
        <time>2022-09-11T09:43:36Z</time>
      </trkpt>
      <trkpt lat="46.54116" lon="0.32691">
        <ele>84.4</ele>
        <time>2022-09-11T09:43:38Z</time>
      </trkpt>
      <trkpt lat="46.54114" lon="0.32692">
        <ele>84.4</ele>
        <time>2022-09-11T09:43:41Z</time>
      </trkpt>
      <trkpt lat="46.54109" lon="0.32691">
        <ele>84.4</ele>
        <time>2022-09-11T09:43:48Z</time>
      </trkpt>
      <trkpt lat="46.54103" lon="0.3269">
        <ele>84.8</ele>
        <time>2022-09-11T09:44:00Z</time>
      </trkpt>
      <trkpt lat="46.54102" lon="0.3269">
        <ele>84.8</ele>
        <time>2022-09-11T09:44:01Z</time>
      </trkpt>
      <trkpt lat="46.54099" lon="0.32689">
        <ele>85.2</ele>
        <time>2022-09-11T09:44:03Z</time>
      </trkpt>
      <trkpt lat="46.54098" lon="0.32688">
        <ele>85.6</ele>
        <time>2022-09-11T09:44:06Z</time>
      </trkpt>
      <trkpt lat="46.54096" lon="0.32688">
        <ele>86.2</ele>
        <time>2022-09-11T09:44:08Z</time>
      </trkpt>
      <trkpt lat="46.54095" lon="0.32688">
        <ele>86.8</ele>
        <time>2022-09-11T09:44:09Z</time>
      </trkpt>
      <trkpt lat="46.54094" lon="0.32687">
        <ele>87.2</ele>
        <time>2022-09-11T09:44:11Z</time>
      </trkpt>
      <trkpt lat="46.54091" lon="0.32686">
        <ele>88</ele>
        <time>2022-09-11T09:44:13Z</time>
      </trkpt>
      <trkpt lat="46.5409" lon="0.32685">
        <ele>88.4</ele>
        <time>2022-09-11T09:44:14Z</time>
      </trkpt>
      <trkpt lat="46.54084" lon="0.32685">
        <ele>89</ele>
        <time>2022-09-11T09:44:18Z</time>
      </trkpt>
      <trkpt lat="46.54077" lon="0.32685">
        <ele>89.6</ele>
        <time>2022-09-11T09:44:25Z</time>
      </trkpt>
      <trkpt lat="46.54072" lon="0.32686">
        <ele>90</ele>
        <time>2022-09-11T09:44:29Z</time>
      </trkpt>
      <trkpt lat="46.54067" lon="0.32687">
        <ele>90.4</ele>
        <time>2022-09-11T09:44:32Z</time>
      </trkpt>
      <trkpt lat="46.54062" lon="0.3269">
        <ele>90.4</ele>
        <time>2022-09-11T09:44:37Z</time>
      </trkpt>
      <trkpt lat="46.54054" lon="0.32696">
        <ele>89</ele>
        <time>2022-09-11T09:44:45Z</time>
      </trkpt>
      <trkpt lat="46.54052" lon="0.32697">
        <ele>88.8</ele>
        <time>2022-09-11T09:44:48Z</time>
      </trkpt>
      <trkpt lat="46.54046" lon="0.32704">
        <ele>88</ele>
        <time>2022-09-11T09:45:03Z</time>
      </trkpt>
      <trkpt lat="46.54043" lon="0.32704">
        <ele>87.4</ele>
        <time>2022-09-11T09:45:14Z</time>
      </trkpt>
      <trkpt lat="46.54043" lon="0.32705">
        <ele>86.8</ele>
        <time>2022-09-11T09:45:21Z</time>
      </trkpt>
      <trkpt lat="46.54041" lon="0.3271">
        <ele>86.2</ele>
        <time>2022-09-11T09:45:30Z</time>
      </trkpt>
      <trkpt lat="46.5404" lon="0.32713">
        <ele>85.8</ele>
        <time>2022-09-11T09:45:33Z</time>
      </trkpt>
      <trkpt lat="46.54039" lon="0.32715">
        <ele>84.6</ele>
        <time>2022-09-11T09:45:37Z</time>
      </trkpt>
      <trkpt lat="46.54037" lon="0.32716">
        <ele>84.4</ele>
        <time>2022-09-11T09:45:40Z</time>
      </trkpt>
      <trkpt lat="46.54036" lon="0.32718">
        <ele>84.2</ele>
        <time>2022-09-11T09:45:42Z</time>
      </trkpt>
      <trkpt lat="46.54035" lon="0.32722">
        <ele>83.8</ele>
        <time>2022-09-11T09:45:44Z</time>
      </trkpt>
      <trkpt lat="46.54034" lon="0.32722">
        <ele>83.6</ele>
        <time>2022-09-11T09:45:47Z</time>
      </trkpt>
      <trkpt lat="46.54033" lon="0.32722">
        <ele>83.6</ele>
        <time>2022-09-11T09:45:48Z</time>
      </trkpt>
      <trkpt lat="46.54036" lon="0.32723">
        <ele>83.6</ele>
        <time>2022-09-11T09:45:56Z</time>
      </trkpt>
      <trkpt lat="46.54046" lon="0.32723">
        <ele>83.6</ele>
        <time>2022-09-11T09:46:02Z</time>
      </trkpt>
      <trkpt lat="46.54064" lon="0.32724">
        <ele>83.8</ele>
        <time>2022-09-11T09:46:09Z</time>
      </trkpt>
      <trkpt lat="46.54092" lon="0.32716">
        <ele>84</ele>
        <time>2022-09-11T09:46:16Z</time>
      </trkpt>
      <trkpt lat="46.54128" lon="0.32708">
        <ele>84.2</ele>
        <time>2022-09-11T09:46:23Z</time>
      </trkpt>
      <trkpt lat="46.54166" lon="0.32706">
        <ele>84</ele>
        <time>2022-09-11T09:46:30Z</time>
      </trkpt>
      <trkpt lat="46.54193" lon="0.32704">
        <ele>83.6</ele>
        <time>2022-09-11T09:46:36Z</time>
      </trkpt>
      <trkpt lat="46.54198" lon="0.32705">
        <ele>83.4</ele>
        <time>2022-09-11T09:46:38Z</time>
      </trkpt>
      <trkpt lat="46.54199" lon="0.3271">
        <ele>83.2</ele>
        <time>2022-09-11T09:46:40Z</time>
      </trkpt>
      <trkpt lat="46.542" lon="0.32728">
        <ele>83</ele>
        <time>2022-09-11T09:46:47Z</time>
      </trkpt>
      <trkpt lat="46.54198" lon="0.32739">
        <ele>82.6</ele>
        <time>2022-09-11T09:46:52Z</time>
      </trkpt>
      <trkpt lat="46.54196" lon="0.32749">
        <ele>82.4</ele>
        <time>2022-09-11T09:46:55Z</time>
      </trkpt>
      <trkpt lat="46.54185" lon="0.32762">
        <ele>82.4</ele>
        <time>2022-09-11T09:47:00Z</time>
      </trkpt>
      <trkpt lat="46.54178" lon="0.32767">
        <ele>82.6</ele>
        <time>2022-09-11T09:47:02Z</time>
      </trkpt>
      <trkpt lat="46.5417" lon="0.32772">
        <ele>82.6</ele>
        <time>2022-09-11T09:47:04Z</time>
      </trkpt>
      <trkpt lat="46.54167" lon="0.32774">
        <ele>82.6</ele>
        <time>2022-09-11T09:47:05Z</time>
      </trkpt>
      <trkpt lat="46.5416" lon="0.32777">
        <ele>82.8</ele>
        <time>2022-09-11T09:47:07Z</time>
      </trkpt>
      <trkpt lat="46.54153" lon="0.32782">
        <ele>82.8</ele>
        <time>2022-09-11T09:47:09Z</time>
      </trkpt>
      <trkpt lat="46.54149" lon="0.32785">
        <ele>82.8</ele>
        <time>2022-09-11T09:47:10Z</time>
      </trkpt>
      <trkpt lat="46.54145" lon="0.32786">
        <ele>82.8</ele>
        <time>2022-09-11T09:47:11Z</time>
      </trkpt>
      <trkpt lat="46.54135" lon="0.32791">
        <ele>83.2</ele>
        <time>2022-09-11T09:47:14Z</time>
      </trkpt>
      <trkpt lat="46.54128" lon="0.32796">
        <ele>84</ele>
        <time>2022-09-11T09:47:16Z</time>
      </trkpt>
      <trkpt lat="46.54111" lon="0.3281">
        <ele>84.4</ele>
        <time>2022-09-11T09:47:21Z</time>
      </trkpt>
      <trkpt lat="46.54104" lon="0.32821">
        <ele>85</ele>
        <time>2022-09-11T09:47:24Z</time>
      </trkpt>
      <trkpt lat="46.54103" lon="0.32828">
        <ele>85.4</ele>
        <time>2022-09-11T09:47:26Z</time>
      </trkpt>
      <trkpt lat="46.54096" lon="0.3284">
        <ele>85.8</ele>
        <time>2022-09-11T09:47:30Z</time>
      </trkpt>
      <trkpt lat="46.5409" lon="0.32842">
        <ele>85.8</ele>
        <time>2022-09-11T09:47:32Z</time>
      </trkpt>
      <trkpt lat="46.54085" lon="0.32843">
        <ele>85.8</ele>
        <time>2022-09-11T09:47:33Z</time>
      </trkpt>
      <trkpt lat="46.54065" lon="0.32848">
        <ele>85.2</ele>
        <time>2022-09-11T09:47:37Z</time>
      </trkpt>
      <trkpt lat="46.54056" lon="0.32851">
        <ele>85.2</ele>
        <time>2022-09-11T09:47:39Z</time>
      </trkpt>
      <trkpt lat="46.54043" lon="0.32855">
        <ele>84.6</ele>
        <time>2022-09-11T09:47:42Z</time>
      </trkpt>
      <trkpt lat="46.54029" lon="0.32865">
        <ele>84.4</ele>
        <time>2022-09-11T09:47:45Z</time>
      </trkpt>
      <trkpt lat="46.54024" lon="0.3287">
        <ele>84</ele>
        <time>2022-09-11T09:47:46Z</time>
      </trkpt>
      <trkpt lat="46.54014" lon="0.32879">
        <ele>83.8</ele>
        <time>2022-09-11T09:47:48Z</time>
      </trkpt>
      <trkpt lat="46.53998" lon="0.32892">
        <ele>84</ele>
        <time>2022-09-11T09:47:51Z</time>
      </trkpt>
      <trkpt lat="46.53988" lon="0.329">
        <ele>83.8</ele>
        <time>2022-09-11T09:47:53Z</time>
      </trkpt>
      <trkpt lat="46.53954" lon="0.32919">
        <ele>84.6</ele>
        <time>2022-09-11T09:48:00Z</time>
      </trkpt>
      <trkpt lat="46.53946" lon="0.32922">
        <ele>84.6</ele>
        <time>2022-09-11T09:48:02Z</time>
      </trkpt>
      <trkpt lat="46.53926" lon="0.32933">
        <ele>85</ele>
        <time>2022-09-11T09:48:06Z</time>
      </trkpt>
      <trkpt lat="46.5391" lon="0.3295">
        <ele>84.8</ele>
        <time>2022-09-11T09:48:10Z</time>
      </trkpt>
      <trkpt lat="46.539" lon="0.32964">
        <ele>84.2</ele>
        <time>2022-09-11T09:48:13Z</time>
      </trkpt>
      <trkpt lat="46.53896" lon="0.3297">
        <ele>84</ele>
        <time>2022-09-11T09:48:14Z</time>
      </trkpt>
      <trkpt lat="46.53884" lon="0.32989">
        <ele>84.2</ele>
        <time>2022-09-11T09:48:18Z</time>
      </trkpt>
      <trkpt lat="46.53882" lon="0.32995">
        <ele>84.2</ele>
        <time>2022-09-11T09:48:19Z</time>
      </trkpt>
      <trkpt lat="46.5387" lon="0.33036">
        <ele>85.2</ele>
        <time>2022-09-11T09:48:27Z</time>
      </trkpt>
      <trkpt lat="46.53867" lon="0.33058">
        <ele>85.8</ele>
        <time>2022-09-11T09:48:31Z</time>
      </trkpt>
      <trkpt lat="46.53864" lon="0.33086">
        <ele>85.6</ele>
        <time>2022-09-11T09:48:35Z</time>
      </trkpt>
      <trkpt lat="46.53865" lon="0.33093">
        <ele>85.6</ele>
        <time>2022-09-11T09:48:36Z</time>
      </trkpt>
      <trkpt lat="46.53868" lon="0.33103">
        <ele>85.6</ele>
        <time>2022-09-11T09:48:37Z</time>
      </trkpt>
      <trkpt lat="46.53876" lon="0.33128">
        <ele>85.6</ele>
        <time>2022-09-11T09:48:40Z</time>
      </trkpt>
      <trkpt lat="46.53878" lon="0.33135">
        <ele>85.6</ele>
        <time>2022-09-11T09:48:41Z</time>
      </trkpt>
      <trkpt lat="46.53888" lon="0.33171">
        <ele>84.8</ele>
        <time>2022-09-11T09:48:46Z</time>
      </trkpt>
      <trkpt lat="46.53889" lon="0.33174">
        <ele>84.4</ele>
        <time>2022-09-11T09:48:47Z</time>
      </trkpt>
      <trkpt lat="46.5389" lon="0.33176">
        <ele>84.2</ele>
        <time>2022-09-11T09:48:48Z</time>
      </trkpt>
      <trkpt lat="46.53892" lon="0.3318">
        <ele>83.6</ele>
        <time>2022-09-11T09:48:51Z</time>
      </trkpt>
      <trkpt lat="46.53893" lon="0.33181">
        <ele>83.4</ele>
        <time>2022-09-11T09:48:52Z</time>
      </trkpt>
      <trkpt lat="46.53894" lon="0.33182">
        <ele>83.4</ele>
        <time>2022-09-11T09:48:53Z</time>
      </trkpt>
      <trkpt lat="46.53895" lon="0.33184">
        <ele>83</ele>
        <time>2022-09-11T09:48:56Z</time>
      </trkpt>
      <trkpt lat="46.53895" lon="0.33184">
        <ele>82.6</ele>
        <time>2022-09-11T09:49:02Z</time>
      </trkpt>
      <trkpt lat="46.53892" lon="0.33186">
        <ele>82.4</ele>
        <time>2022-09-11T09:49:19Z</time>
      </trkpt>
      <trkpt lat="46.53891" lon="0.33187">
        <ele>82.4</ele>
        <time>2022-09-11T09:49:32Z</time>
      </trkpt>
      <trkpt lat="46.53888" lon="0.33188">
        <ele>82.2</ele>
        <time>2022-09-11T09:49:46Z</time>
      </trkpt>
      <trkpt lat="46.53888" lon="0.33188">
        <ele>82</ele>
        <time>2022-09-11T09:49:50Z</time>
      </trkpt>
      <trkpt lat="46.53888" lon="0.33187">
        <ele>82.2</ele>
        <time>2022-09-11T09:50:03Z</time>
      </trkpt>
      <trkpt lat="46.53887" lon="0.33187">
        <ele>82.2</ele>
        <time>2022-09-11T09:50:22Z</time>
      </trkpt>
      <trkpt lat="46.5389" lon="0.33187">
        <ele>82.2</ele>
        <time>2022-09-11T09:50:40Z</time>
      </trkpt>
      <trkpt lat="46.5389" lon="0.33187">
        <ele>82.2</ele>
        <time>2022-09-11T09:50:57Z</time>
      </trkpt>
      <trkpt lat="46.53891" lon="0.33188">
        <ele>82.2</ele>
        <time>2022-09-11T09:51:10Z</time>
      </trkpt>
      <trkpt lat="46.5389" lon="0.33192">
        <ele>82.2</ele>
        <time>2022-09-11T09:51:27Z</time>
      </trkpt>
      <trkpt lat="46.53891" lon="0.33196">
        <ele>82.2</ele>
        <time>2022-09-11T09:51:38Z</time>
      </trkpt>
      <trkpt lat="46.539" lon="0.33198">
        <ele>82.2</ele>
        <time>2022-09-11T09:51:54Z</time>
      </trkpt>
      <trkpt lat="46.53908" lon="0.33193">
        <ele>82.2</ele>
        <time>2022-09-11T09:52:10Z</time>
      </trkpt>
      <trkpt lat="46.53916" lon="0.3319">
        <ele>82.2</ele>
        <time>2022-09-11T09:52:26Z</time>
      </trkpt>
      <trkpt lat="46.53923" lon="0.33187">
        <ele>82.2</ele>
        <time>2022-09-11T09:52:41Z</time>
      </trkpt>
      <trkpt lat="46.53925" lon="0.33188">
        <ele>82.2</ele>
        <time>2022-09-11T09:52:54Z</time>
      </trkpt>
      <trkpt lat="46.53925" lon="0.33188">
        <ele>82.2</ele>
        <time>2022-09-11T09:53:11Z</time>
      </trkpt>
      <trkpt lat="46.53926" lon="0.33187">
        <ele>82.2</ele>
        <time>2022-09-11T09:53:26Z</time>
      </trkpt>
      <trkpt lat="46.53928" lon="0.33188">
        <ele>82.2</ele>
        <time>2022-09-11T09:53:38Z</time>
      </trkpt>
      <trkpt lat="46.5393" lon="0.33187">
        <ele>82.2</ele>
        <time>2022-09-11T09:53:40Z</time>
      </trkpt>
      <trkpt lat="46.53934" lon="0.33181">
        <ele>82.2</ele>
        <time>2022-09-11T09:53:50Z</time>
      </trkpt>
      <trkpt lat="46.53934" lon="0.33179">
        <ele>82.2</ele>
        <time>2022-09-11T09:53:51Z</time>
      </trkpt>
      <trkpt lat="46.53935" lon="0.33161">
        <ele>82.4</ele>
        <time>2022-09-11T09:53:59Z</time>
      </trkpt>
      <trkpt lat="46.53934" lon="0.33141">
        <ele>82.6</ele>
        <time>2022-09-11T09:54:05Z</time>
      </trkpt>
      <trkpt lat="46.53936" lon="0.33117">
        <ele>82.6</ele>
        <time>2022-09-11T09:54:11Z</time>
      </trkpt>
      <trkpt lat="46.53939" lon="0.3309">
        <ele>82.8</ele>
        <time>2022-09-11T09:54:16Z</time>
      </trkpt>
      <trkpt lat="46.53944" lon="0.33072">
        <ele>82.8</ele>
        <time>2022-09-11T09:54:19Z</time>
      </trkpt>
      <trkpt lat="46.53946" lon="0.33067">
        <ele>83</ele>
        <time>2022-09-11T09:54:20Z</time>
      </trkpt>
      <trkpt lat="46.53948" lon="0.33063">
        <ele>83</ele>
        <time>2022-09-11T09:54:21Z</time>
      </trkpt>
      <trkpt lat="46.53955" lon="0.33058">
        <ele>83</ele>
        <time>2022-09-11T09:54:23Z</time>
      </trkpt>
      <trkpt lat="46.53962" lon="0.33058">
        <ele>82.4</ele>
        <time>2022-09-11T09:54:25Z</time>
      </trkpt>
      <trkpt lat="46.53971" lon="0.33056">
        <ele>82</ele>
        <time>2022-09-11T09:54:28Z</time>
      </trkpt>
      <trkpt lat="46.53975" lon="0.33053">
        <ele>82</ele>
        <time>2022-09-11T09:54:30Z</time>
      </trkpt>
      <trkpt lat="46.53985" lon="0.33046">
        <ele>82.2</ele>
        <time>2022-09-11T09:54:35Z</time>
      </trkpt>
      <trkpt lat="46.53997" lon="0.33045">
        <ele>82.6</ele>
        <time>2022-09-11T09:54:39Z</time>
      </trkpt>
      <trkpt lat="46.54007" lon="0.33057">
        <ele>83</ele>
        <time>2022-09-11T09:54:43Z</time>
      </trkpt>
      <trkpt lat="46.54018" lon="0.33071">
        <ele>84</ele>
        <time>2022-09-11T09:54:48Z</time>
      </trkpt>
      <trkpt lat="46.54023" lon="0.33076">
        <ele>84.6</ele>
        <time>2022-09-11T09:54:50Z</time>
      </trkpt>
      <trkpt lat="46.54025" lon="0.3308">
        <ele>85.2</ele>
        <time>2022-09-11T09:54:51Z</time>
      </trkpt>
      <trkpt lat="46.54029" lon="0.33091">
        <ele>86.4</ele>
        <time>2022-09-11T09:54:54Z</time>
      </trkpt>
      <trkpt lat="46.5403" lon="0.33095">
        <ele>86.4</ele>
        <time>2022-09-11T09:54:55Z</time>
      </trkpt>
      <trkpt lat="46.5403" lon="0.33099">
        <ele>86.6</ele>
        <time>2022-09-11T09:54:56Z</time>
      </trkpt>
      <trkpt lat="46.54026" lon="0.33109">
        <ele>87.4</ele>
        <time>2022-09-11T09:54:59Z</time>
      </trkpt>
      <trkpt lat="46.54018" lon="0.33132">
        <ele>87.8</ele>
        <time>2022-09-11T09:55:05Z</time>
      </trkpt>
      <trkpt lat="46.54017" lon="0.33139">
        <ele>88.8</ele>
        <time>2022-09-11T09:55:07Z</time>
      </trkpt>
      <trkpt lat="46.54017" lon="0.33156">
        <ele>89.8</ele>
        <time>2022-09-11T09:55:11Z</time>
      </trkpt>
      <trkpt lat="46.54024" lon="0.33182">
        <ele>91</ele>
        <time>2022-09-11T09:55:16Z</time>
      </trkpt>
      <trkpt lat="46.54024" lon="0.33192">
        <ele>91.2</ele>
        <time>2022-09-11T09:55:18Z</time>
      </trkpt>
      <trkpt lat="46.54026" lon="0.33207">
        <ele>92</ele>
        <time>2022-09-11T09:55:21Z</time>
      </trkpt>
      <trkpt lat="46.54028" lon="0.3323">
        <ele>93</ele>
        <time>2022-09-11T09:55:26Z</time>
      </trkpt>
      <trkpt lat="46.5403" lon="0.33258">
        <ele>94.4</ele>
        <time>2022-09-11T09:55:32Z</time>
      </trkpt>
      <trkpt lat="46.54031" lon="0.33266">
        <ele>94.8</ele>
        <time>2022-09-11T09:55:34Z</time>
      </trkpt>
      <trkpt lat="46.54034" lon="0.33283">
        <ele>95.4</ele>
        <time>2022-09-11T09:55:38Z</time>
      </trkpt>
      <trkpt lat="46.54037" lon="0.33299">
        <ele>95.8</ele>
        <time>2022-09-11T09:55:41Z</time>
      </trkpt>
      <trkpt lat="46.54041" lon="0.33347">
        <ele>96.2</ele>
        <time>2022-09-11T09:55:49Z</time>
      </trkpt>
      <trkpt lat="46.54043" lon="0.33388">
        <ele>96.2</ele>
        <time>2022-09-11T09:55:55Z</time>
      </trkpt>
      <trkpt lat="46.54053" lon="0.33431">
        <ele>96.4</ele>
        <time>2022-09-11T09:56:02Z</time>
      </trkpt>
      <trkpt lat="46.54057" lon="0.3344">
        <ele>96.6</ele>
        <time>2022-09-11T09:56:04Z</time>
      </trkpt>
      <trkpt lat="46.54066" lon="0.33457">
        <ele>97.4</ele>
        <time>2022-09-11T09:56:08Z</time>
      </trkpt>
      <trkpt lat="46.54069" lon="0.33464">
        <ele>97.8</ele>
        <time>2022-09-11T09:56:10Z</time>
      </trkpt>
      <trkpt lat="46.54081" lon="0.33482">
        <ele>98.6</ele>
        <time>2022-09-11T09:56:15Z</time>
      </trkpt>
      <trkpt lat="46.54083" lon="0.33485">
        <ele>98.8</ele>
        <time>2022-09-11T09:56:16Z</time>
      </trkpt>
      <trkpt lat="46.54095" lon="0.3351">
        <ele>99.8</ele>
        <time>2022-09-11T09:56:23Z</time>
      </trkpt>
      <trkpt lat="46.54097" lon="0.33514">
        <ele>100</ele>
        <time>2022-09-11T09:56:24Z</time>
      </trkpt>
      <trkpt lat="46.54102" lon="0.33528">
        <ele>100.8</ele>
        <time>2022-09-11T09:56:28Z</time>
      </trkpt>
      <trkpt lat="46.54107" lon="0.33542">
        <ele>102</ele>
        <time>2022-09-11T09:56:32Z</time>
      </trkpt>
      <trkpt lat="46.54113" lon="0.33561">
        <ele>103</ele>
        <time>2022-09-11T09:56:37Z</time>
      </trkpt>
      <trkpt lat="46.54117" lon="0.33572">
        <ele>103.6</ele>
        <time>2022-09-11T09:56:40Z</time>
      </trkpt>
      <trkpt lat="46.54122" lon="0.33583">
        <ele>104.2</ele>
        <time>2022-09-11T09:56:43Z</time>
      </trkpt>
      <trkpt lat="46.54128" lon="0.33606">
        <ele>105.4</ele>
        <time>2022-09-11T09:56:49Z</time>
      </trkpt>
      <trkpt lat="46.54131" lon="0.33614">
        <ele>105.8</ele>
        <time>2022-09-11T09:56:51Z</time>
      </trkpt>
      <trkpt lat="46.54133" lon="0.33622">
        <ele>106.4</ele>
        <time>2022-09-11T09:56:53Z</time>
      </trkpt>
      <trkpt lat="46.54141" lon="0.33645">
        <ele>107.6</ele>
        <time>2022-09-11T09:56:59Z</time>
      </trkpt>
      <trkpt lat="46.54142" lon="0.33649">
        <ele>107.8</ele>
        <time>2022-09-11T09:57:00Z</time>
      </trkpt>
      <trkpt lat="46.54147" lon="0.33664">
        <ele>108.8</ele>
        <time>2022-09-11T09:57:04Z</time>
      </trkpt>
      <trkpt lat="46.54154" lon="0.3369">
        <ele>109.8</ele>
        <time>2022-09-11T09:57:11Z</time>
      </trkpt>
      <trkpt lat="46.54156" lon="0.33698">
        <ele>110.2</ele>
        <time>2022-09-11T09:57:13Z</time>
      </trkpt>
      <trkpt lat="46.54159" lon="0.33709">
        <ele>110.8</ele>
        <time>2022-09-11T09:57:16Z</time>
      </trkpt>
      <trkpt lat="46.54164" lon="0.3373">
        <ele>112</ele>
        <time>2022-09-11T09:57:22Z</time>
      </trkpt>
      <trkpt lat="46.54166" lon="0.33749">
        <ele>113.2</ele>
        <time>2022-09-11T09:57:27Z</time>
      </trkpt>
      <trkpt lat="46.54168" lon="0.33757">
        <ele>113.4</ele>
        <time>2022-09-11T09:57:29Z</time>
      </trkpt>
      <trkpt lat="46.54171" lon="0.33777">
        <ele>114.2</ele>
        <time>2022-09-11T09:57:34Z</time>
      </trkpt>
      <trkpt lat="46.54174" lon="0.33796">
        <ele>115.2</ele>
        <time>2022-09-11T09:57:39Z</time>
      </trkpt>
      <trkpt lat="46.54175" lon="0.338">
        <ele>115.2</ele>
        <time>2022-09-11T09:57:40Z</time>
      </trkpt>
      <trkpt lat="46.54178" lon="0.33826">
        <ele>116.4</ele>
        <time>2022-09-11T09:57:47Z</time>
      </trkpt>
      <trkpt lat="46.54182" lon="0.3385">
        <ele>117.6</ele>
        <time>2022-09-11T09:57:53Z</time>
      </trkpt>
      <trkpt lat="46.54183" lon="0.33858">
        <ele>118</ele>
        <time>2022-09-11T09:57:55Z</time>
      </trkpt>
      <trkpt lat="46.54185" lon="0.33869">
        <ele>118.4</ele>
        <time>2022-09-11T09:57:58Z</time>
      </trkpt>
      <trkpt lat="46.54187" lon="0.33881">
        <ele>119</ele>
        <time>2022-09-11T09:58:01Z</time>
      </trkpt>
      <trkpt lat="46.54187" lon="0.33889">
        <ele>119.4</ele>
        <time>2022-09-11T09:58:03Z</time>
      </trkpt>
      <trkpt lat="46.54189" lon="0.33897">
        <ele>120</ele>
        <time>2022-09-11T09:58:05Z</time>
      </trkpt>
      <trkpt lat="46.54192" lon="0.33921">
        <ele>120.8</ele>
        <time>2022-09-11T09:58:11Z</time>
      </trkpt>
      <trkpt lat="46.54194" lon="0.33933">
        <ele>121.2</ele>
        <time>2022-09-11T09:58:14Z</time>
      </trkpt>
      <trkpt lat="46.54197" lon="0.33954">
        <ele>121.6</ele>
        <time>2022-09-11T09:58:19Z</time>
      </trkpt>
      <trkpt lat="46.54196" lon="0.33958">
        <ele>121.8</ele>
        <time>2022-09-11T09:58:20Z</time>
      </trkpt>
      <trkpt lat="46.54191" lon="0.33971">
        <ele>122</ele>
        <time>2022-09-11T09:58:23Z</time>
      </trkpt>
      <trkpt lat="46.54187" lon="0.33988">
        <ele>121.6</ele>
        <time>2022-09-11T09:58:27Z</time>
      </trkpt>
      <trkpt lat="46.54188" lon="0.33998">
        <ele>121.2</ele>
        <time>2022-09-11T09:58:29Z</time>
      </trkpt>
      <trkpt lat="46.54191" lon="0.34009">
        <ele>121</ele>
        <time>2022-09-11T09:58:31Z</time>
      </trkpt>
      <trkpt lat="46.54193" lon="0.34019">
        <ele>121</ele>
        <time>2022-09-11T09:58:33Z</time>
      </trkpt>
      <trkpt lat="46.54192" lon="0.34025">
        <ele>121</ele>
        <time>2022-09-11T09:58:35Z</time>
      </trkpt>
      <trkpt lat="46.5419" lon="0.3403">
        <ele>121</ele>
        <time>2022-09-11T09:58:37Z</time>
      </trkpt>
      <trkpt lat="46.54189" lon="0.34037">
        <ele>121</ele>
        <time>2022-09-11T09:58:39Z</time>
      </trkpt>
      <trkpt lat="46.54186" lon="0.3405">
        <ele>121</ele>
        <time>2022-09-11T09:58:42Z</time>
      </trkpt>
      <trkpt lat="46.54185" lon="0.34056">
        <ele>121.2</ele>
        <time>2022-09-11T09:58:43Z</time>
      </trkpt>
      <trkpt lat="46.54185" lon="0.3406">
        <ele>121.4</ele>
        <time>2022-09-11T09:58:44Z</time>
      </trkpt>
      <trkpt lat="46.54182" lon="0.34071">
        <ele>121.6</ele>
        <time>2022-09-11T09:58:47Z</time>
      </trkpt>
      <trkpt lat="46.54177" lon="0.3409">
        <ele>121.8</ele>
        <time>2022-09-11T09:58:52Z</time>
      </trkpt>
      <trkpt lat="46.54169" lon="0.34107">
        <ele>122.2</ele>
        <time>2022-09-11T09:58:56Z</time>
      </trkpt>
      <trkpt lat="46.54166" lon="0.34111">
        <ele>122.2</ele>
        <time>2022-09-11T09:58:57Z</time>
      </trkpt>
      <trkpt lat="46.54155" lon="0.34134">
        <ele>122.6</ele>
        <time>2022-09-11T09:59:02Z</time>
      </trkpt>
      <trkpt lat="46.54153" lon="0.34139">
        <ele>122.6</ele>
        <time>2022-09-11T09:59:03Z</time>
      </trkpt>
      <trkpt lat="46.5415" lon="0.34148">
        <ele>121</ele>
        <time>2022-09-11T09:59:05Z</time>
      </trkpt>
      <trkpt lat="46.54149" lon="0.34152">
        <ele>120.2</ele>
        <time>2022-09-11T09:59:06Z</time>
      </trkpt>
      <trkpt lat="46.54148" lon="0.34156">
        <ele>119.8</ele>
        <time>2022-09-11T09:59:07Z</time>
      </trkpt>
      <trkpt lat="46.54142" lon="0.34188">
        <ele>119.2</ele>
        <time>2022-09-11T09:59:12Z</time>
      </trkpt>
      <trkpt lat="46.5414" lon="0.34194">
        <ele>119.8</ele>
        <time>2022-09-11T09:59:13Z</time>
      </trkpt>
      <trkpt lat="46.54137" lon="0.34204">
        <ele>120.4</ele>
        <time>2022-09-11T09:59:15Z</time>
      </trkpt>
      <trkpt lat="46.54136" lon="0.34206">
        <ele>120.6</ele>
        <time>2022-09-11T09:59:16Z</time>
      </trkpt>
      <trkpt lat="46.54127" lon="0.34225">
        <ele>120.8</ele>
        <time>2022-09-11T09:59:21Z</time>
      </trkpt>
      <trkpt lat="46.54123" lon="0.34233">
        <ele>120.4</ele>
        <time>2022-09-11T09:59:23Z</time>
      </trkpt>
      <trkpt lat="46.54119" lon="0.34243">
        <ele>119.6</ele>
        <time>2022-09-11T09:59:25Z</time>
      </trkpt>
      <trkpt lat="46.54116" lon="0.34247">
        <ele>119.2</ele>
        <time>2022-09-11T09:59:26Z</time>
      </trkpt>
      <trkpt lat="46.54111" lon="0.34251">
        <ele>118.6</ele>
        <time>2022-09-11T09:59:28Z</time>
      </trkpt>
      <trkpt lat="46.54109" lon="0.34254">
        <ele>118.2</ele>
        <time>2022-09-11T09:59:29Z</time>
      </trkpt>
      <trkpt lat="46.54109" lon="0.34258">
        <ele>117.8</ele>
        <time>2022-09-11T09:59:30Z</time>
      </trkpt>
      <trkpt lat="46.54109" lon="0.34262">
        <ele>117</ele>
        <time>2022-09-11T09:59:31Z</time>
      </trkpt>
      <trkpt lat="46.54107" lon="0.34266">
        <ele>117</ele>
        <time>2022-09-11T09:59:32Z</time>
      </trkpt>
      <trkpt lat="46.54101" lon="0.34278">
        <ele>116.6</ele>
        <time>2022-09-11T09:59:34Z</time>
      </trkpt>
      <trkpt lat="46.54099" lon="0.34287">
        <ele>115.8</ele>
        <time>2022-09-11T09:59:36Z</time>
      </trkpt>
      <trkpt lat="46.54099" lon="0.34294">
        <ele>115.2</ele>
        <time>2022-09-11T09:59:38Z</time>
      </trkpt>
      <trkpt lat="46.54099" lon="0.34303">
        <ele>114.8</ele>
        <time>2022-09-11T09:59:40Z</time>
      </trkpt>
      <trkpt lat="46.54096" lon="0.34309">
        <ele>114.4</ele>
        <time>2022-09-11T09:59:43Z</time>
      </trkpt>
      <trkpt lat="46.54095" lon="0.34311">
        <ele>114.4</ele>
        <time>2022-09-11T09:59:44Z</time>
      </trkpt>
      <trkpt lat="46.54089" lon="0.34322">
        <ele>114</ele>
        <time>2022-09-11T09:59:47Z</time>
      </trkpt>
      <trkpt lat="46.54087" lon="0.34326">
        <ele>113.4</ele>
        <time>2022-09-11T09:59:49Z</time>
      </trkpt>
      <trkpt lat="46.54083" lon="0.34331">
        <ele>112.2</ele>
        <time>2022-09-11T09:59:51Z</time>
      </trkpt>
      <trkpt lat="46.5408" lon="0.34333">
        <ele>111.8</ele>
        <time>2022-09-11T09:59:52Z</time>
      </trkpt>
      <trkpt lat="46.54078" lon="0.34334">
        <ele>111</ele>
        <time>2022-09-11T09:59:53Z</time>
      </trkpt>
      <trkpt lat="46.54073" lon="0.34335">
        <ele>109.4</ele>
        <time>2022-09-11T09:59:55Z</time>
      </trkpt>
      <trkpt lat="46.5407" lon="0.34337">
        <ele>108.8</ele>
        <time>2022-09-11T09:59:56Z</time>
      </trkpt>
      <trkpt lat="46.54067" lon="0.3434">
        <ele>108.4</ele>
        <time>2022-09-11T09:59:57Z</time>
      </trkpt>
      <trkpt lat="46.54062" lon="0.34349">
        <ele>107.4</ele>
        <time>2022-09-11T09:59:59Z</time>
      </trkpt>
      <trkpt lat="46.54059" lon="0.34353">
        <ele>106.2</ele>
        <time>2022-09-11T10:00:01Z</time>
      </trkpt>
      <trkpt lat="46.54059" lon="0.34355">
        <ele>105.8</ele>
        <time>2022-09-11T10:00:02Z</time>
      </trkpt>
      <trkpt lat="46.54052" lon="0.34366">
        <ele>106</ele>
        <time>2022-09-11T10:00:13Z</time>
      </trkpt>
      <trkpt lat="46.54047" lon="0.34379">
        <ele>107.2</ele>
        <time>2022-09-11T10:00:25Z</time>
      </trkpt>
      <trkpt lat="46.5404" lon="0.34392">
        <ele>107.4</ele>
        <time>2022-09-11T10:00:30Z</time>
      </trkpt>
      <trkpt lat="46.54037" lon="0.34393">
        <ele>107.4</ele>
        <time>2022-09-11T10:00:31Z</time>
      </trkpt>
      <trkpt lat="46.54029" lon="0.34391">
        <ele>107.4</ele>
        <time>2022-09-11T10:00:34Z</time>
      </trkpt>
      <trkpt lat="46.54025" lon="0.34389">
        <ele>107</ele>
        <time>2022-09-11T10:00:37Z</time>
      </trkpt>
      <trkpt lat="46.54026" lon="0.34386">
        <ele>107</ele>
        <time>2022-09-11T10:00:38Z</time>
      </trkpt>
      <trkpt lat="46.54031" lon="0.34374">
        <ele>105.6</ele>
        <time>2022-09-11T10:00:41Z</time>
      </trkpt>
      <trkpt lat="46.54031" lon="0.3437">
        <ele>105.2</ele>
        <time>2022-09-11T10:00:42Z</time>
      </trkpt>
      <trkpt lat="46.54031" lon="0.34368">
        <ele>104.8</ele>
        <time>2022-09-11T10:00:43Z</time>
      </trkpt>
      <trkpt lat="46.5403" lon="0.34366">
        <ele>103.4</ele>
        <time>2022-09-11T10:00:44Z</time>
      </trkpt>
      <trkpt lat="46.54029" lon="0.34363">
        <ele>102</ele>
        <time>2022-09-11T10:00:45Z</time>
      </trkpt>
      <trkpt lat="46.54028" lon="0.3436">
        <ele>100.8</ele>
        <time>2022-09-11T10:00:46Z</time>
      </trkpt>
      <trkpt lat="46.54026" lon="0.34357">
        <ele>98.8</ele>
        <time>2022-09-11T10:00:47Z</time>
      </trkpt>
      <trkpt lat="46.54024" lon="0.34355">
        <ele>97.6</ele>
        <time>2022-09-11T10:00:48Z</time>
      </trkpt>
      <trkpt lat="46.54022" lon="0.34354">
        <ele>96.4</ele>
        <time>2022-09-11T10:00:49Z</time>
      </trkpt>
      <trkpt lat="46.54021" lon="0.34352">
        <ele>95.2</ele>
        <time>2022-09-11T10:00:50Z</time>
      </trkpt>
      <trkpt lat="46.54017" lon="0.34346">
        <ele>92.8</ele>
        <time>2022-09-11T10:00:52Z</time>
      </trkpt>
      <trkpt lat="46.54014" lon="0.34344">
        <ele>90.8</ele>
        <time>2022-09-11T10:00:53Z</time>
      </trkpt>
      <trkpt lat="46.54011" lon="0.34343">
        <ele>88.6</ele>
        <time>2022-09-11T10:00:54Z</time>
      </trkpt>
      <trkpt lat="46.54009" lon="0.34341">
        <ele>87.2</ele>
        <time>2022-09-11T10:00:55Z</time>
      </trkpt>
      <trkpt lat="46.54007" lon="0.34339">
        <ele>86.6</ele>
        <time>2022-09-11T10:00:56Z</time>
      </trkpt>
      <trkpt lat="46.54006" lon="0.34337">
        <ele>86</ele>
        <time>2022-09-11T10:00:57Z</time>
      </trkpt>
      <trkpt lat="46.54004" lon="0.34335">
        <ele>85</ele>
        <time>2022-09-11T10:00:58Z</time>
      </trkpt>
      <trkpt lat="46.54002" lon="0.34335">
        <ele>84.4</ele>
        <time>2022-09-11T10:00:59Z</time>
      </trkpt>
      <trkpt lat="46.53996" lon="0.34339">
        <ele>83.2</ele>
        <time>2022-09-11T10:01:02Z</time>
      </trkpt>
      <trkpt lat="46.53985" lon="0.34349">
        <ele>83.6</ele>
        <time>2022-09-11T10:01:08Z</time>
      </trkpt>
      <trkpt lat="46.53975" lon="0.34353">
        <ele>84.4</ele>
        <time>2022-09-11T10:01:14Z</time>
      </trkpt>
      <trkpt lat="46.53967" lon="0.34364">
        <ele>85.2</ele>
        <time>2022-09-11T10:01:20Z</time>
      </trkpt>
      <trkpt lat="46.53963" lon="0.34366">
        <ele>85.4</ele>
        <time>2022-09-11T10:01:22Z</time>
      </trkpt>
      <trkpt lat="46.53956" lon="0.3437">
        <ele>86</ele>
        <time>2022-09-11T10:01:26Z</time>
      </trkpt>
      <trkpt lat="46.53948" lon="0.34377">
        <ele>86.4</ele>
        <time>2022-09-11T10:01:29Z</time>
      </trkpt>
      <trkpt lat="46.53941" lon="0.34386">
        <ele>87</ele>
        <time>2022-09-11T10:01:32Z</time>
      </trkpt>
      <trkpt lat="46.53934" lon="0.34394">
        <ele>87.6</ele>
        <time>2022-09-11T10:01:35Z</time>
      </trkpt>
      <trkpt lat="46.53924" lon="0.34405">
        <ele>88.6</ele>
        <time>2022-09-11T10:01:39Z</time>
      </trkpt>
      <trkpt lat="46.5392" lon="0.3442">
        <ele>89.8</ele>
        <time>2022-09-11T10:01:43Z</time>
      </trkpt>
      <trkpt lat="46.5392" lon="0.34424">
        <ele>90</ele>
        <time>2022-09-11T10:01:44Z</time>
      </trkpt>
      <trkpt lat="46.53921" lon="0.34437">
        <ele>91.2</ele>
        <time>2022-09-11T10:01:48Z</time>
      </trkpt>
      <trkpt lat="46.53922" lon="0.34444">
        <ele>91.6</ele>
        <time>2022-09-11T10:01:50Z</time>
      </trkpt>
      <trkpt lat="46.53922" lon="0.34452">
        <ele>92.4</ele>
        <time>2022-09-11T10:01:53Z</time>
      </trkpt>
      <trkpt lat="46.53922" lon="0.34462">
        <ele>93.4</ele>
        <time>2022-09-11T10:01:57Z</time>
      </trkpt>
      <trkpt lat="46.53923" lon="0.34465">
        <ele>93.4</ele>
        <time>2022-09-11T10:01:58Z</time>
      </trkpt>
      <trkpt lat="46.53924" lon="0.34475">
        <ele>94.2</ele>
        <time>2022-09-11T10:02:02Z</time>
      </trkpt>
      <trkpt lat="46.53923" lon="0.34478">
        <ele>94.6</ele>
        <time>2022-09-11T10:02:03Z</time>
      </trkpt>
      <trkpt lat="46.53911" lon="0.34488">
        <ele>94.8</ele>
        <time>2022-09-11T10:02:08Z</time>
      </trkpt>
      <trkpt lat="46.5389" lon="0.34496">
        <ele>94.8</ele>
        <time>2022-09-11T10:02:14Z</time>
      </trkpt>
      <trkpt lat="46.5386" lon="0.345">
        <ele>95.4</ele>
        <time>2022-09-11T10:02:22Z</time>
      </trkpt>
      <trkpt lat="46.53854" lon="0.345">
        <ele>95.6</ele>
        <time>2022-09-11T10:02:24Z</time>
      </trkpt>
      <trkpt lat="46.53835" lon="0.34495">
        <ele>96.4</ele>
        <time>2022-09-11T10:02:29Z</time>
      </trkpt>
      <trkpt lat="46.53799" lon="0.34485">
        <ele>96.4</ele>
        <time>2022-09-11T10:02:37Z</time>
      </trkpt>
      <trkpt lat="46.53768" lon="0.34476">
        <ele>96.4</ele>
        <time>2022-09-11T10:02:44Z</time>
      </trkpt>
      <trkpt lat="46.53763" lon="0.34474">
        <ele>96.4</ele>
        <time>2022-09-11T10:02:45Z</time>
      </trkpt>
      <trkpt lat="46.53732" lon="0.34461">
        <ele>96</ele>
        <time>2022-09-11T10:02:51Z</time>
      </trkpt>
      <trkpt lat="46.53693" lon="0.34439">
        <ele>95.6</ele>
        <time>2022-09-11T10:02:57Z</time>
      </trkpt>
      <trkpt lat="46.53643" lon="0.34416">
        <ele>95.2</ele>
        <time>2022-09-11T10:03:05Z</time>
      </trkpt>
      <trkpt lat="46.53624" lon="0.3441">
        <ele>94.6</ele>
        <time>2022-09-11T10:03:08Z</time>
      </trkpt>
      <trkpt lat="46.53617" lon="0.3441">
        <ele>94.4</ele>
        <time>2022-09-11T10:03:09Z</time>
      </trkpt>
      <trkpt lat="46.53603" lon="0.3441">
        <ele>94</ele>
        <time>2022-09-11T10:03:11Z</time>
      </trkpt>
      <trkpt lat="46.53583" lon="0.3441">
        <ele>94</ele>
        <time>2022-09-11T10:03:14Z</time>
      </trkpt>
      <trkpt lat="46.53571" lon="0.34404">
        <ele>93.8</ele>
        <time>2022-09-11T10:03:16Z</time>
      </trkpt>
      <trkpt lat="46.5356" lon="0.34395">
        <ele>93.2</ele>
        <time>2022-09-11T10:03:18Z</time>
      </trkpt>
      <trkpt lat="46.53545" lon="0.34382">
        <ele>93.6</ele>
        <time>2022-09-11T10:03:21Z</time>
      </trkpt>
      <trkpt lat="46.53529" lon="0.34372">
        <ele>94.6</ele>
        <time>2022-09-11T10:03:24Z</time>
      </trkpt>
      <trkpt lat="46.53515" lon="0.34365">
        <ele>95</ele>
        <time>2022-09-11T10:03:27Z</time>
      </trkpt>
      <trkpt lat="46.53479" lon="0.34351">
        <ele>95.4</ele>
        <time>2022-09-11T10:03:35Z</time>
      </trkpt>
      <trkpt lat="46.53462" lon="0.34345">
        <ele>95.6</ele>
        <time>2022-09-11T10:03:39Z</time>
      </trkpt>
      <trkpt lat="46.53445" lon="0.34341">
        <ele>95.6</ele>
        <time>2022-09-11T10:03:43Z</time>
      </trkpt>
      <trkpt lat="46.53436" lon="0.3434">
        <ele>95.8</ele>
        <time>2022-09-11T10:03:45Z</time>
      </trkpt>
      <trkpt lat="46.53417" lon="0.34341">
        <ele>96.4</ele>
        <time>2022-09-11T10:03:49Z</time>
      </trkpt>
      <trkpt lat="46.53391" lon="0.34336">
        <ele>96.6</ele>
        <time>2022-09-11T10:03:54Z</time>
      </trkpt>
      <trkpt lat="46.53385" lon="0.34333">
        <ele>96.4</ele>
        <time>2022-09-11T10:03:55Z</time>
      </trkpt>
      <trkpt lat="46.53371" lon="0.34322">
        <ele>96.2</ele>
        <time>2022-09-11T10:03:58Z</time>
      </trkpt>
      <trkpt lat="46.53367" lon="0.34318">
        <ele>96.2</ele>
        <time>2022-09-11T10:03:59Z</time>
      </trkpt>
      <trkpt lat="46.53362" lon="0.34312">
        <ele>96</ele>
        <time>2022-09-11T10:04:01Z</time>
      </trkpt>
      <trkpt lat="46.53361" lon="0.34311">
        <ele>95.6</ele>
        <time>2022-09-11T10:04:02Z</time>
      </trkpt>
      <trkpt lat="46.53349" lon="0.343">
        <ele>95.4</ele>
        <time>2022-09-11T10:04:09Z</time>
      </trkpt>
      <trkpt lat="46.53332" lon="0.34282">
        <ele>95.6</ele>
        <time>2022-09-11T10:04:15Z</time>
      </trkpt>
      <trkpt lat="46.53308" lon="0.34265">
        <ele>96.2</ele>
        <time>2022-09-11T10:04:22Z</time>
      </trkpt>
      <trkpt lat="46.53282" lon="0.34248">
        <ele>96.4</ele>
        <time>2022-09-11T10:04:28Z</time>
      </trkpt>
      <trkpt lat="46.53264" lon="0.34237">
        <ele>96.6</ele>
        <time>2022-09-11T10:04:32Z</time>
      </trkpt>
      <trkpt lat="46.53254" lon="0.34231">
        <ele>96.8</ele>
        <time>2022-09-11T10:04:34Z</time>
      </trkpt>
      <trkpt lat="46.53249" lon="0.34227">
        <ele>96.8</ele>
        <time>2022-09-11T10:04:35Z</time>
      </trkpt>
      <trkpt lat="46.5324" lon="0.34218">
        <ele>96.8</ele>
        <time>2022-09-11T10:04:37Z</time>
      </trkpt>
      <trkpt lat="46.53222" lon="0.342">
        <ele>97.2</ele>
        <time>2022-09-11T10:04:41Z</time>
      </trkpt>
      <trkpt lat="46.53218" lon="0.34195">
        <ele>97.2</ele>
        <time>2022-09-11T10:04:42Z</time>
      </trkpt>
      <trkpt lat="46.532" lon="0.34176">
        <ele>97</ele>
        <time>2022-09-11T10:04:46Z</time>
      </trkpt>
      <trkpt lat="46.53168" lon="0.34136">
        <ele>96.8</ele>
        <time>2022-09-11T10:04:53Z</time>
      </trkpt>
      <trkpt lat="46.53139" lon="0.34109">
        <ele>96.4</ele>
        <time>2022-09-11T10:04:58Z</time>
      </trkpt>
      <trkpt lat="46.53099" lon="0.34087">
        <ele>96.4</ele>
        <time>2022-09-11T10:05:04Z</time>
      </trkpt>
      <trkpt lat="46.53054" lon="0.3406">
        <ele>95.2</ele>
        <time>2022-09-11T10:05:10Z</time>
      </trkpt>
      <trkpt lat="46.53045" lon="0.34057">
        <ele>94.8</ele>
        <time>2022-09-11T10:05:11Z</time>
      </trkpt>
      <trkpt lat="46.53019" lon="0.34057">
        <ele>94</ele>
        <time>2022-09-11T10:05:14Z</time>
      </trkpt>
      <trkpt lat="46.53011" lon="0.34057">
        <ele>93.6</ele>
        <time>2022-09-11T10:05:15Z</time>
      </trkpt>
      <trkpt lat="46.52995" lon="0.34058">
        <ele>92.8</ele>
        <time>2022-09-11T10:05:17Z</time>
      </trkpt>
      <trkpt lat="46.52982" lon="0.34057">
        <ele>92.2</ele>
        <time>2022-09-11T10:05:19Z</time>
      </trkpt>
      <trkpt lat="46.5297" lon="0.34055">
        <ele>91.8</ele>
        <time>2022-09-11T10:05:21Z</time>
      </trkpt>
      <trkpt lat="46.52958" lon="0.34045">
        <ele>91</ele>
        <time>2022-09-11T10:05:23Z</time>
      </trkpt>
      <trkpt lat="46.52955" lon="0.34036">
        <ele>90.8</ele>
        <time>2022-09-11T10:05:24Z</time>
      </trkpt>
      <trkpt lat="46.52953" lon="0.34025">
        <ele>90.2</ele>
        <time>2022-09-11T10:05:25Z</time>
      </trkpt>
      <trkpt lat="46.52951" lon="0.34015">
        <ele>89.8</ele>
        <time>2022-09-11T10:05:26Z</time>
      </trkpt>
      <trkpt lat="46.52951" lon="0.34004">
        <ele>89.6</ele>
        <time>2022-09-11T10:05:27Z</time>
      </trkpt>
      <trkpt lat="46.52949" lon="0.3397">
        <ele>89</ele>
        <time>2022-09-11T10:05:30Z</time>
      </trkpt>
      <trkpt lat="46.52949" lon="0.3397">
        <ele>88.4</ele>
        <time>2022-09-11T10:05:31Z</time>
      </trkpt>
      <trkpt lat="46.52941" lon="0.33938">
        <ele>88.2</ele>
        <time>2022-09-11T10:05:33Z</time>
      </trkpt>
      <trkpt lat="46.52933" lon="0.33919">
        <ele>87.8</ele>
        <time>2022-09-11T10:05:35Z</time>
      </trkpt>
      <trkpt lat="46.5292" lon="0.33908">
        <ele>87.6</ele>
        <time>2022-09-11T10:05:37Z</time>
      </trkpt>
      <trkpt lat="46.52913" lon="0.33906">
        <ele>87.4</ele>
        <time>2022-09-11T10:05:38Z</time>
      </trkpt>
      <trkpt lat="46.52904" lon="0.33906">
        <ele>87</ele>
        <time>2022-09-11T10:05:39Z</time>
      </trkpt>
      <trkpt lat="46.5288" lon="0.33908">
        <ele>86.8</ele>
        <time>2022-09-11T10:05:42Z</time>
      </trkpt>
      <trkpt lat="46.52839" lon="0.33911">
        <ele>86.8</ele>
        <time>2022-09-11T10:05:48Z</time>
      </trkpt>
      <trkpt lat="46.52806" lon="0.33917">
        <ele>86.2</ele>
        <time>2022-09-11T10:05:53Z</time>
      </trkpt>
      <trkpt lat="46.528" lon="0.33919">
        <ele>86.2</ele>
        <time>2022-09-11T10:05:54Z</time>
      </trkpt>
      <trkpt lat="46.5279" lon="0.33927">
        <ele>86.2</ele>
        <time>2022-09-11T10:05:56Z</time>
      </trkpt>
      <trkpt lat="46.52787" lon="0.33935">
        <ele>86.2</ele>
        <time>2022-09-11T10:05:57Z</time>
      </trkpt>
      <trkpt lat="46.52776" lon="0.33979">
        <ele>87</ele>
        <time>2022-09-11T10:06:02Z</time>
      </trkpt>
      <trkpt lat="46.52773" lon="0.33995">
        <ele>87.4</ele>
        <time>2022-09-11T10:06:04Z</time>
      </trkpt>
      <trkpt lat="46.52769" lon="0.34014">
        <ele>87.8</ele>
        <time>2022-09-11T10:06:07Z</time>
      </trkpt>
      <trkpt lat="46.52764" lon="0.34021">
        <ele>88.8</ele>
        <time>2022-09-11T10:06:09Z</time>
      </trkpt>
      <trkpt lat="46.52759" lon="0.34024">
        <ele>89.8</ele>
        <time>2022-09-11T10:06:11Z</time>
      </trkpt>
      <trkpt lat="46.52752" lon="0.34028">
        <ele>91</ele>
        <time>2022-09-11T10:06:14Z</time>
      </trkpt>
      <trkpt lat="46.52743" lon="0.34033">
        <ele>92</ele>
        <time>2022-09-11T10:06:18Z</time>
      </trkpt>
      <trkpt lat="46.52735" lon="0.34036">
        <ele>93.2</ele>
        <time>2022-09-11T10:06:22Z</time>
      </trkpt>
      <trkpt lat="46.52725" lon="0.34038">
        <ele>94</ele>
        <time>2022-09-11T10:06:26Z</time>
      </trkpt>
      <trkpt lat="46.5272" lon="0.3404">
        <ele>94.4</ele>
        <time>2022-09-11T10:06:28Z</time>
      </trkpt>
      <trkpt lat="46.5271" lon="0.34042">
        <ele>94.4</ele>
        <time>2022-09-11T10:06:32Z</time>
      </trkpt>
      <trkpt lat="46.52695" lon="0.34043">
        <ele>94.8</ele>
        <time>2022-09-11T10:06:38Z</time>
      </trkpt>
      <trkpt lat="46.52679" lon="0.34042">
        <ele>95.4</ele>
        <time>2022-09-11T10:06:44Z</time>
      </trkpt>
      <trkpt lat="46.52677" lon="0.34042">
        <ele>95.4</ele>
        <time>2022-09-11T10:06:45Z</time>
      </trkpt>
      <trkpt lat="46.52659" lon="0.34041">
        <ele>95.8</ele>
        <time>2022-09-11T10:06:51Z</time>
      </trkpt>
      <trkpt lat="46.52644" lon="0.34038">
        <ele>96.4</ele>
        <time>2022-09-11T10:06:56Z</time>
      </trkpt>
      <trkpt lat="46.5264" lon="0.34038">
        <ele>96.4</ele>
        <time>2022-09-11T10:06:57Z</time>
      </trkpt>
      <trkpt lat="46.52618" lon="0.34038">
        <ele>97.6</ele>
        <time>2022-09-11T10:07:03Z</time>
      </trkpt>
      <trkpt lat="46.52616" lon="0.34039">
        <ele>98</ele>
        <time>2022-09-11T10:07:04Z</time>
      </trkpt>
      <trkpt lat="46.52594" lon="0.34041">
        <ele>98.8</ele>
        <time>2022-09-11T10:07:11Z</time>
      </trkpt>
      <trkpt lat="46.52592" lon="0.34041">
        <ele>99</ele>
        <time>2022-09-11T10:07:12Z</time>
      </trkpt>
      <trkpt lat="46.52574" lon="0.34044">
        <ele>100</ele>
        <time>2022-09-11T10:07:19Z</time>
      </trkpt>
      <trkpt lat="46.52563" lon="0.34046">
        <ele>101.2</ele>
        <time>2022-09-11T10:07:24Z</time>
      </trkpt>
      <trkpt lat="46.52558" lon="0.34047">
        <ele>101.6</ele>
        <time>2022-09-11T10:07:26Z</time>
      </trkpt>
      <trkpt lat="46.5254" lon="0.34048">
        <ele>102</ele>
        <time>2022-09-11T10:07:32Z</time>
      </trkpt>
      <trkpt lat="46.52538" lon="0.34049">
        <ele>102.2</ele>
        <time>2022-09-11T10:07:33Z</time>
      </trkpt>
      <trkpt lat="46.52529" lon="0.34052">
        <ele>103.2</ele>
        <time>2022-09-11T10:07:36Z</time>
      </trkpt>
      <trkpt lat="46.52521" lon="0.34055">
        <ele>104.2</ele>
        <time>2022-09-11T10:07:39Z</time>
      </trkpt>
      <trkpt lat="46.52519" lon="0.34057">
        <ele>104.4</ele>
        <time>2022-09-11T10:07:40Z</time>
      </trkpt>
      <trkpt lat="46.52508" lon="0.34071">
        <ele>105.4</ele>
        <time>2022-09-11T10:07:46Z</time>
      </trkpt>
      <trkpt lat="46.52499" lon="0.34091">
        <ele>106.6</ele>
        <time>2022-09-11T10:07:53Z</time>
      </trkpt>
      <trkpt lat="46.52498" lon="0.34093">
        <ele>106.8</ele>
        <time>2022-09-11T10:07:54Z</time>
      </trkpt>
      <trkpt lat="46.52493" lon="0.34103">
        <ele>107.8</ele>
        <time>2022-09-11T10:07:58Z</time>
      </trkpt>
      <trkpt lat="46.52488" lon="0.34112">
        <ele>108.8</ele>
        <time>2022-09-11T10:08:02Z</time>
      </trkpt>
      <trkpt lat="46.52487" lon="0.34115">
        <ele>109</ele>
        <time>2022-09-11T10:08:03Z</time>
      </trkpt>
      <trkpt lat="46.52486" lon="0.34117">
        <ele>109.2</ele>
        <time>2022-09-11T10:08:04Z</time>
      </trkpt>
      <trkpt lat="46.5248" lon="0.34128">
        <ele>110</ele>
        <time>2022-09-11T10:08:09Z</time>
      </trkpt>
      <trkpt lat="46.52477" lon="0.34135">
        <ele>111</ele>
        <time>2022-09-11T10:08:12Z</time>
      </trkpt>
      <trkpt lat="46.52476" lon="0.34137">
        <ele>111.2</ele>
        <time>2022-09-11T10:08:13Z</time>
      </trkpt>
      <trkpt lat="46.52472" lon="0.34145">
        <ele>112.2</ele>
        <time>2022-09-11T10:08:17Z</time>
      </trkpt>
      <trkpt lat="46.5247" lon="0.34149">
        <ele>112.6</ele>
        <time>2022-09-11T10:08:19Z</time>
      </trkpt>
      <trkpt lat="46.52464" lon="0.34159">
        <ele>113.4</ele>
        <time>2022-09-11T10:08:24Z</time>
      </trkpt>
      <trkpt lat="46.52459" lon="0.34167">
        <ele>114</ele>
        <time>2022-09-11T10:08:28Z</time>
      </trkpt>
      <trkpt lat="46.52457" lon="0.34169">
        <ele>114.4</ele>
        <time>2022-09-11T10:08:29Z</time>
      </trkpt>
      <trkpt lat="46.5245" lon="0.34181">
        <ele>115.4</ele>
        <time>2022-09-11T10:08:35Z</time>
      </trkpt>
      <trkpt lat="46.52448" lon="0.34187">
        <ele>115.6</ele>
        <time>2022-09-11T10:08:37Z</time>
      </trkpt>
      <trkpt lat="46.52442" lon="0.34208">
        <ele>116.8</ele>
        <time>2022-09-11T10:08:44Z</time>
      </trkpt>
      <trkpt lat="46.52437" lon="0.34234">
        <ele>117.4</ele>
        <time>2022-09-11T10:08:52Z</time>
      </trkpt>
      <trkpt lat="46.52434" lon="0.34249">
        <ele>117.8</ele>
        <time>2022-09-11T10:08:56Z</time>
      </trkpt>
      <trkpt lat="46.52431" lon="0.34255">
        <ele>118.4</ele>
        <time>2022-09-11T10:08:58Z</time>
      </trkpt>
      <trkpt lat="46.52429" lon="0.34256">
        <ele>118.6</ele>
        <time>2022-09-11T10:08:59Z</time>
      </trkpt>
      <trkpt lat="46.52416" lon="0.34264">
        <ele>117</ele>
        <time>2022-09-11T10:09:05Z</time>
      </trkpt>
      <trkpt lat="46.52412" lon="0.34267">
        <ele>116.4</ele>
        <time>2022-09-11T10:09:06Z</time>
      </trkpt>
      <trkpt lat="46.52402" lon="0.34273">
        <ele>115</ele>
        <time>2022-09-11T10:09:09Z</time>
      </trkpt>
      <trkpt lat="46.52396" lon="0.34276">
        <ele>114.4</ele>
        <time>2022-09-11T10:09:11Z</time>
      </trkpt>
      <trkpt lat="46.52387" lon="0.3428">
        <ele>113.6</ele>
        <time>2022-09-11T10:09:13Z</time>
      </trkpt>
      <trkpt lat="46.52383" lon="0.34282">
        <ele>113</ele>
        <time>2022-09-11T10:09:14Z</time>
      </trkpt>
      <trkpt lat="46.52379" lon="0.34285">
        <ele>112.6</ele>
        <time>2022-09-11T10:09:15Z</time>
      </trkpt>
      <trkpt lat="46.52374" lon="0.34288">
        <ele>112.2</ele>
        <time>2022-09-11T10:09:16Z</time>
      </trkpt>
      <trkpt lat="46.52365" lon="0.34293">
        <ele>111.2</ele>
        <time>2022-09-11T10:09:18Z</time>
      </trkpt>
      <trkpt lat="46.5236" lon="0.34295">
        <ele>111</ele>
        <time>2022-09-11T10:09:19Z</time>
      </trkpt>
      <trkpt lat="46.52354" lon="0.34297">
        <ele>110.8</ele>
        <time>2022-09-11T10:09:20Z</time>
      </trkpt>
      <trkpt lat="46.52347" lon="0.34297">
        <ele>110.8</ele>
        <time>2022-09-11T10:09:21Z</time>
      </trkpt>
      <trkpt lat="46.52328" lon="0.34298">
        <ele>109.6</ele>
        <time>2022-09-11T10:09:24Z</time>
      </trkpt>
      <trkpt lat="46.52321" lon="0.34303">
        <ele>108</ele>
        <time>2022-09-11T10:09:26Z</time>
      </trkpt>
      <trkpt lat="46.52313" lon="0.3431">
        <ele>106.8</ele>
        <time>2022-09-11T10:09:28Z</time>
      </trkpt>
      <trkpt lat="46.52301" lon="0.34318">
        <ele>105.4</ele>
        <time>2022-09-11T10:09:30Z</time>
      </trkpt>
      <trkpt lat="46.52289" lon="0.34329">
        <ele>104.4</ele>
        <time>2022-09-11T10:09:32Z</time>
      </trkpt>
      <trkpt lat="46.52278" lon="0.34338">
        <ele>103.2</ele>
        <time>2022-09-11T10:09:34Z</time>
      </trkpt>
      <trkpt lat="46.52268" lon="0.34343">
        <ele>102.2</ele>
        <time>2022-09-11T10:09:36Z</time>
      </trkpt>
      <trkpt lat="46.52251" lon="0.34346">
        <ele>100.8</ele>
        <time>2022-09-11T10:09:39Z</time>
      </trkpt>
      <trkpt lat="46.52246" lon="0.34346">
        <ele>100.6</ele>
        <time>2022-09-11T10:09:40Z</time>
      </trkpt>
      <trkpt lat="46.5224" lon="0.34345">
        <ele>100.4</ele>
        <time>2022-09-11T10:09:41Z</time>
      </trkpt>
      <trkpt lat="46.52235" lon="0.34342">
        <ele>100.2</ele>
        <time>2022-09-11T10:09:42Z</time>
      </trkpt>
      <trkpt lat="46.52225" lon="0.34338">
        <ele>100</ele>
        <time>2022-09-11T10:09:44Z</time>
      </trkpt>
      <trkpt lat="46.52221" lon="0.34337">
        <ele>99.8</ele>
        <time>2022-09-11T10:09:45Z</time>
      </trkpt>
      <trkpt lat="46.52215" lon="0.34334">
        <ele>99.6</ele>
        <time>2022-09-11T10:09:46Z</time>
      </trkpt>
      <trkpt lat="46.52191" lon="0.34327">
        <ele>100.2</ele>
        <time>2022-09-11T10:09:52Z</time>
      </trkpt>
      <trkpt lat="46.52167" lon="0.34314">
        <ele>99.4</ele>
        <time>2022-09-11T10:09:57Z</time>
      </trkpt>
      <trkpt lat="46.52162" lon="0.34313">
        <ele>99</ele>
        <time>2022-09-11T10:09:58Z</time>
      </trkpt>
      <trkpt lat="46.52154" lon="0.34313">
        <ele>99.2</ele>
        <time>2022-09-11T10:10:00Z</time>
      </trkpt>
      <trkpt lat="46.52149" lon="0.34313">
        <ele>99.2</ele>
        <time>2022-09-11T10:10:01Z</time>
      </trkpt>
      <trkpt lat="46.52139" lon="0.34316">
        <ele>100.8</ele>
        <time>2022-09-11T10:10:05Z</time>
      </trkpt>
      <trkpt lat="46.52135" lon="0.34316">
        <ele>101.4</ele>
        <time>2022-09-11T10:10:06Z</time>
      </trkpt>
      <trkpt lat="46.52121" lon="0.34315">
        <ele>101.8</ele>
        <time>2022-09-11T10:10:10Z</time>
      </trkpt>
      <trkpt lat="46.52112" lon="0.34316">
        <ele>101.8</ele>
        <time>2022-09-11T10:10:12Z</time>
      </trkpt>
      <trkpt lat="46.52087" lon="0.3432">
        <ele>101.6</ele>
        <time>2022-09-11T10:10:17Z</time>
      </trkpt>
      <trkpt lat="46.5206" lon="0.34324">
        <ele>100.8</ele>
        <time>2022-09-11T10:10:21Z</time>
      </trkpt>
      <trkpt lat="46.52052" lon="0.34326">
        <ele>100.4</ele>
        <time>2022-09-11T10:10:22Z</time>
      </trkpt>
      <trkpt lat="46.52037" lon="0.34329">
        <ele>99.6</ele>
        <time>2022-09-11T10:10:24Z</time>
      </trkpt>
      <trkpt lat="46.52029" lon="0.34332">
        <ele>99.2</ele>
        <time>2022-09-11T10:10:25Z</time>
      </trkpt>
      <trkpt lat="46.52015" lon="0.3434">
        <ele>98.6</ele>
        <time>2022-09-11T10:10:27Z</time>
      </trkpt>
      <trkpt lat="46.51989" lon="0.34354">
        <ele>98.8</ele>
        <time>2022-09-11T10:10:32Z</time>
      </trkpt>
      <trkpt lat="46.51983" lon="0.34358">
        <ele>99.8</ele>
        <time>2022-09-11T10:10:34Z</time>
      </trkpt>
      <trkpt lat="46.51973" lon="0.34366">
        <ele>100.8</ele>
        <time>2022-09-11T10:10:37Z</time>
      </trkpt>
      <trkpt lat="46.5197" lon="0.34368">
        <ele>101.2</ele>
        <time>2022-09-11T10:10:38Z</time>
      </trkpt>
      <trkpt lat="46.51965" lon="0.34372">
        <ele>102.2</ele>
        <time>2022-09-11T10:10:40Z</time>
      </trkpt>
      <trkpt lat="46.51958" lon="0.34378">
        <ele>103.4</ele>
        <time>2022-09-11T10:10:43Z</time>
      </trkpt>
      <trkpt lat="46.51953" lon="0.34381">
        <ele>104</ele>
        <time>2022-09-11T10:10:45Z</time>
      </trkpt>
      <trkpt lat="46.51948" lon="0.34386">
        <ele>104.6</ele>
        <time>2022-09-11T10:10:47Z</time>
      </trkpt>
      <trkpt lat="46.5194" lon="0.34393">
        <ele>105.8</ele>
        <time>2022-09-11T10:10:50Z</time>
      </trkpt>
      <trkpt lat="46.51938" lon="0.34395">
        <ele>106</ele>
        <time>2022-09-11T10:10:51Z</time>
      </trkpt>
      <trkpt lat="46.51928" lon="0.34403">
        <ele>107</ele>
        <time>2022-09-11T10:10:56Z</time>
      </trkpt>
      <trkpt lat="46.51922" lon="0.34408">
        <ele>107.8</ele>
        <time>2022-09-11T10:10:59Z</time>
      </trkpt>
      <trkpt lat="46.51918" lon="0.34412">
        <ele>108.2</ele>
        <time>2022-09-11T10:11:01Z</time>
      </trkpt>
      <trkpt lat="46.51912" lon="0.34418">
        <ele>109.2</ele>
        <time>2022-09-11T10:11:05Z</time>
      </trkpt>
      <trkpt lat="46.51908" lon="0.34424">
        <ele>110</ele>
        <time>2022-09-11T10:11:08Z</time>
      </trkpt>
      <trkpt lat="46.51908" lon="0.34424">
        <ele>110.4</ele>
        <time>2022-09-11T10:11:09Z</time>
      </trkpt>
      <trkpt lat="46.51905" lon="0.34426">
        <ele>110.4</ele>
        <time>2022-09-11T10:11:10Z</time>
      </trkpt>
      <trkpt lat="46.51898" lon="0.34428">
        <ele>111.2</ele>
        <time>2022-09-11T10:11:14Z</time>
      </trkpt>
      <trkpt lat="46.51895" lon="0.34429">
        <ele>111.6</ele>
        <time>2022-09-11T10:11:16Z</time>
      </trkpt>
      <trkpt lat="46.51887" lon="0.34433">
        <ele>112.6</ele>
        <time>2022-09-11T10:11:21Z</time>
      </trkpt>
      <trkpt lat="46.51886" lon="0.34435">
        <ele>113</ele>
        <time>2022-09-11T10:11:22Z</time>
      </trkpt>
      <trkpt lat="46.51883" lon="0.34438">
        <ele>113.8</ele>
        <time>2022-09-11T10:11:24Z</time>
      </trkpt>
      <trkpt lat="46.51875" lon="0.34443">
        <ele>114.6</ele>
        <time>2022-09-11T10:11:29Z</time>
      </trkpt>
      <trkpt lat="46.51873" lon="0.34444">
        <ele>114.8</ele>
        <time>2022-09-11T10:11:30Z</time>
      </trkpt>
      <trkpt lat="46.51867" lon="0.3445">
        <ele>116</ele>
        <time>2022-09-11T10:11:34Z</time>
      </trkpt>
      <trkpt lat="46.51859" lon="0.34458">
        <ele>116.6</ele>
        <time>2022-09-11T10:11:39Z</time>
      </trkpt>
      <trkpt lat="46.51857" lon="0.34461">
        <ele>117</ele>
        <time>2022-09-11T10:11:41Z</time>
      </trkpt>
      <trkpt lat="46.51848" lon="0.3447">
        <ele>118</ele>
        <time>2022-09-11T10:11:47Z</time>
      </trkpt>
      <trkpt lat="46.51839" lon="0.3448">
        <ele>119.2</ele>
        <time>2022-09-11T10:11:53Z</time>
      </trkpt>
      <trkpt lat="46.51835" lon="0.34485">
        <ele>119.8</ele>
        <time>2022-09-11T10:11:56Z</time>
      </trkpt>
      <trkpt lat="46.51831" lon="0.34491">
        <ele>120.4</ele>
        <time>2022-09-11T10:11:59Z</time>
      </trkpt>
      <trkpt lat="46.51823" lon="0.34499">
        <ele>121.4</ele>
        <time>2022-09-11T10:12:04Z</time>
      </trkpt>
      <trkpt lat="46.51821" lon="0.345">
        <ele>121.6</ele>
        <time>2022-09-11T10:12:05Z</time>
      </trkpt>
      <trkpt lat="46.51815" lon="0.34507">
        <ele>122.4</ele>
        <time>2022-09-11T10:12:09Z</time>
      </trkpt>
      <trkpt lat="46.51809" lon="0.34512">
        <ele>123.4</ele>
        <time>2022-09-11T10:12:13Z</time>
      </trkpt>
      <trkpt lat="46.51807" lon="0.34514">
        <ele>123.6</ele>
        <time>2022-09-11T10:12:14Z</time>
      </trkpt>
      <trkpt lat="46.51797" lon="0.34522">
        <ele>124.4</ele>
        <time>2022-09-11T10:12:19Z</time>
      </trkpt>
      <trkpt lat="46.51793" lon="0.34524">
        <ele>124.8</ele>
        <time>2022-09-11T10:12:21Z</time>
      </trkpt>
      <trkpt lat="46.51782" lon="0.34531">
        <ele>125.2</ele>
        <time>2022-09-11T10:12:26Z</time>
      </trkpt>
      <trkpt lat="46.51775" lon="0.34536">
        <ele>125.8</ele>
        <time>2022-09-11T10:12:29Z</time>
      </trkpt>
      <trkpt lat="46.51767" lon="0.34542">
        <ele>126.6</ele>
        <time>2022-09-11T10:12:33Z</time>
      </trkpt>
      <trkpt lat="46.51761" lon="0.34546">
        <ele>127</ele>
        <time>2022-09-11T10:12:36Z</time>
      </trkpt>
      <trkpt lat="46.51748" lon="0.34559">
        <ele>128</ele>
        <time>2022-09-11T10:12:42Z</time>
      </trkpt>
      <trkpt lat="46.5172" lon="0.34581">
        <ele>129</ele>
        <time>2022-09-11T10:12:52Z</time>
      </trkpt>
      <trkpt lat="46.51713" lon="0.34587">
        <ele>129</ele>
        <time>2022-09-11T10:12:54Z</time>
      </trkpt>
      <trkpt lat="46.51688" lon="0.34607">
        <ele>129.2</ele>
        <time>2022-09-11T10:13:00Z</time>
      </trkpt>
      <trkpt lat="46.51657" lon="0.34634">
        <ele>129</ele>
        <time>2022-09-11T10:13:07Z</time>
      </trkpt>
      <trkpt lat="46.51626" lon="0.34669">
        <ele>128.6</ele>
        <time>2022-09-11T10:13:14Z</time>
      </trkpt>
      <trkpt lat="46.51597" lon="0.34713">
        <ele>128.4</ele>
        <time>2022-09-11T10:13:21Z</time>
      </trkpt>
      <trkpt lat="46.5157" lon="0.34743">
        <ele>128.6</ele>
        <time>2022-09-11T10:13:27Z</time>
      </trkpt>
      <trkpt lat="46.51549" lon="0.34769">
        <ele>129</ele>
        <time>2022-09-11T10:13:33Z</time>
      </trkpt>
      <trkpt lat="46.5153" lon="0.348">
        <ele>129.8</ele>
        <time>2022-09-11T10:13:39Z</time>
      </trkpt>
      <trkpt lat="46.51524" lon="0.34811">
        <ele>130</ele>
        <time>2022-09-11T10:13:41Z</time>
      </trkpt>
      <trkpt lat="46.51507" lon="0.34842">
        <ele>130.2</ele>
        <time>2022-09-11T10:13:46Z</time>
      </trkpt>
      <trkpt lat="46.51479" lon="0.34884">
        <ele>128.8</ele>
        <time>2022-09-11T10:13:52Z</time>
      </trkpt>
      <trkpt lat="46.51442" lon="0.34924">
        <ele>128.4</ele>
        <time>2022-09-11T10:13:59Z</time>
      </trkpt>
      <trkpt lat="46.51432" lon="0.34936">
        <ele>127.4</ele>
        <time>2022-09-11T10:14:01Z</time>
      </trkpt>
      <trkpt lat="46.5142" lon="0.34954">
        <ele>126.8</ele>
        <time>2022-09-11T10:14:04Z</time>
      </trkpt>
      <trkpt lat="46.51417" lon="0.3496">
        <ele>126</ele>
        <time>2022-09-11T10:14:05Z</time>
      </trkpt>
      <trkpt lat="46.51412" lon="0.34969">
        <ele>124.6</ele>
        <time>2022-09-11T10:14:07Z</time>
      </trkpt>
      <trkpt lat="46.51406" lon="0.34978">
        <ele>123.8</ele>
        <time>2022-09-11T10:14:09Z</time>
      </trkpt>
      <trkpt lat="46.51403" lon="0.34983">
        <ele>123.6</ele>
        <time>2022-09-11T10:14:10Z</time>
      </trkpt>
      <trkpt lat="46.51386" lon="0.35005">
        <ele>123.2</ele>
        <time>2022-09-11T10:14:15Z</time>
      </trkpt>
      <trkpt lat="46.51373" lon="0.35016">
        <ele>123.6</ele>
        <time>2022-09-11T10:14:18Z</time>
      </trkpt>
      <trkpt lat="46.51364" lon="0.3502">
        <ele>125</ele>
        <time>2022-09-11T10:14:20Z</time>
      </trkpt>
      <trkpt lat="46.5136" lon="0.35022">
        <ele>125.4</ele>
        <time>2022-09-11T10:14:21Z</time>
      </trkpt>
      <trkpt lat="46.51353" lon="0.35026">
        <ele>126.2</ele>
        <time>2022-09-11T10:14:23Z</time>
      </trkpt>
      <trkpt lat="46.51344" lon="0.35032">
        <ele>127.4</ele>
        <time>2022-09-11T10:14:26Z</time>
      </trkpt>
      <trkpt lat="46.51341" lon="0.35034">
        <ele>127.6</ele>
        <time>2022-09-11T10:14:27Z</time>
      </trkpt>
      <trkpt lat="46.51335" lon="0.35038">
        <ele>128</ele>
        <time>2022-09-11T10:14:30Z</time>
      </trkpt>
      <trkpt lat="46.51335" lon="0.35041">
        <ele>128.2</ele>
        <time>2022-09-11T10:14:31Z</time>
      </trkpt>
      <trkpt lat="46.51336" lon="0.35044">
        <ele>128.4</ele>
        <time>2022-09-11T10:14:32Z</time>
      </trkpt>
      <trkpt lat="46.51338" lon="0.35056">
        <ele>129.6</ele>
        <time>2022-09-11T10:14:36Z</time>
      </trkpt>
      <trkpt lat="46.51342" lon="0.35072">
        <ele>130.2</ele>
        <time>2022-09-11T10:14:41Z</time>
      </trkpt>
      <trkpt lat="46.51343" lon="0.35081">
        <ele>130.6</ele>
        <time>2022-09-11T10:14:44Z</time>
      </trkpt>
      <trkpt lat="46.51349" lon="0.35096">
        <ele>131.4</ele>
        <time>2022-09-11T10:14:48Z</time>
      </trkpt>
      <trkpt lat="46.51349" lon="0.35096">
        <ele>131.6</ele>
        <time>2022-09-11T10:14:49Z</time>
      </trkpt>
      <trkpt lat="46.51355" lon="0.35122">
        <ele>132.6</ele>
        <time>2022-09-11T10:14:54Z</time>
      </trkpt>
      <trkpt lat="46.51362" lon="0.35161">
        <ele>133.6</ele>
        <time>2022-09-11T10:15:02Z</time>
      </trkpt>
      <trkpt lat="46.51362" lon="0.35165">
        <ele>133.8</ele>
        <time>2022-09-11T10:15:03Z</time>
      </trkpt>
      <trkpt lat="46.51361" lon="0.35185">
        <ele>135</ele>
        <time>2022-09-11T10:15:08Z</time>
      </trkpt>
      <trkpt lat="46.5136" lon="0.35189">
        <ele>135.4</ele>
        <time>2022-09-11T10:15:09Z</time>
      </trkpt>
      <trkpt lat="46.51358" lon="0.35215">
        <ele>136</ele>
        <time>2022-09-11T10:15:16Z</time>
      </trkpt>
      <trkpt lat="46.51358" lon="0.35224">
        <ele>136.4</ele>
        <time>2022-09-11T10:15:18Z</time>
      </trkpt>
      <trkpt lat="46.51357" lon="0.35238">
        <ele>137</ele>
        <time>2022-09-11T10:15:21Z</time>
      </trkpt>
      <trkpt lat="46.51353" lon="0.35249">
        <ele>137</ele>
        <time>2022-09-11T10:15:24Z</time>
      </trkpt>
      <trkpt lat="46.51339" lon="0.35252">
        <ele>136.6</ele>
        <time>2022-09-11T10:15:28Z</time>
      </trkpt>
      <trkpt lat="46.51309" lon="0.35257">
        <ele>136.2</ele>
        <time>2022-09-11T10:15:34Z</time>
      </trkpt>
      <trkpt lat="46.51303" lon="0.35259">
        <ele>136</ele>
        <time>2022-09-11T10:15:35Z</time>
      </trkpt>
      <trkpt lat="46.51297" lon="0.35261">
        <ele>135.8</ele>
        <time>2022-09-11T10:15:36Z</time>
      </trkpt>
      <trkpt lat="46.51281" lon="0.35272">
        <ele>135.6</ele>
        <time>2022-09-11T10:15:39Z</time>
      </trkpt>
      <trkpt lat="46.51278" lon="0.35285">
        <ele>135.6</ele>
        <time>2022-09-11T10:15:41Z</time>
      </trkpt>
      <trkpt lat="46.51277" lon="0.35292">
        <ele>135.6</ele>
        <time>2022-09-11T10:15:42Z</time>
      </trkpt>
      <trkpt lat="46.51278" lon="0.35314">
        <ele>136</ele>
        <time>2022-09-11T10:15:45Z</time>
      </trkpt>
      <trkpt lat="46.5128" lon="0.35335">
        <ele>136.4</ele>
        <time>2022-09-11T10:15:48Z</time>
      </trkpt>
      <trkpt lat="46.51288" lon="0.35379">
        <ele>137</ele>
        <time>2022-09-11T10:15:54Z</time>
      </trkpt>
      <trkpt lat="46.51291" lon="0.35393">
        <ele>137.4</ele>
        <time>2022-09-11T10:15:56Z</time>
      </trkpt>
      <trkpt lat="46.51306" lon="0.35448">
        <ele>138.2</ele>
        <time>2022-09-11T10:16:04Z</time>
      </trkpt>
      <trkpt lat="46.5131" lon="0.35462">
        <ele>138.6</ele>
        <time>2022-09-11T10:16:06Z</time>
      </trkpt>
      <trkpt lat="46.51315" lon="0.35482">
        <ele>139.2</ele>
        <time>2022-09-11T10:16:09Z</time>
      </trkpt>
      <trkpt lat="46.51323" lon="0.35509">
        <ele>139.8</ele>
        <time>2022-09-11T10:16:13Z</time>
      </trkpt>
      <trkpt lat="46.5133" lon="0.35536">
        <ele>140.2</ele>
        <time>2022-09-11T10:16:17Z</time>
      </trkpt>
      <trkpt lat="46.51335" lon="0.35554">
        <ele>140.6</ele>
        <time>2022-09-11T10:16:20Z</time>
      </trkpt>
      <trkpt lat="46.51341" lon="0.35589">
        <ele>141.4</ele>
        <time>2022-09-11T10:16:26Z</time>
      </trkpt>
      <trkpt lat="46.51342" lon="0.35594">
        <ele>141.4</ele>
        <time>2022-09-11T10:16:27Z</time>
      </trkpt>
      <trkpt lat="46.51346" lon="0.35625">
        <ele>142</ele>
        <time>2022-09-11T10:16:33Z</time>
      </trkpt>
      <trkpt lat="46.51348" lon="0.35636">
        <ele>142.4</ele>
        <time>2022-09-11T10:16:35Z</time>
      </trkpt>
      <trkpt lat="46.51352" lon="0.35666">
        <ele>142.8</ele>
        <time>2022-09-11T10:16:40Z</time>
      </trkpt>
      <trkpt lat="46.51352" lon="0.35678">
        <ele>143.2</ele>
        <time>2022-09-11T10:16:42Z</time>
      </trkpt>
      <trkpt lat="46.51352" lon="0.35688">
        <ele>143.2</ele>
        <time>2022-09-11T10:16:44Z</time>
      </trkpt>
      <trkpt lat="46.51352" lon="0.35692">
        <ele>143.2</ele>
        <time>2022-09-11T10:16:45Z</time>
      </trkpt>
      <trkpt lat="46.51353" lon="0.35698">
        <ele>143</ele>
        <time>2022-09-11T10:16:47Z</time>
      </trkpt>
      <trkpt lat="46.51355" lon="0.35703">
        <ele>142.6</ele>
        <time>2022-09-11T10:16:49Z</time>
      </trkpt>
      <trkpt lat="46.51359" lon="0.3572">
        <ele>142.4</ele>
        <time>2022-09-11T10:16:53Z</time>
      </trkpt>
      <trkpt lat="46.51362" lon="0.35763">
        <ele>142.8</ele>
        <time>2022-09-11T10:17:00Z</time>
      </trkpt>
      <trkpt lat="46.51361" lon="0.35776">
        <ele>142.8</ele>
        <time>2022-09-11T10:17:02Z</time>
      </trkpt>
      <trkpt lat="46.51357" lon="0.35797">
        <ele>142.8</ele>
        <time>2022-09-11T10:17:05Z</time>
      </trkpt>
      <trkpt lat="46.51355" lon="0.35829">
        <ele>142.2</ele>
        <time>2022-09-11T10:17:10Z</time>
      </trkpt>
      <trkpt lat="46.51355" lon="0.35833">
        <ele>142</ele>
        <time>2022-09-11T10:17:11Z</time>
      </trkpt>
      <trkpt lat="46.51352" lon="0.35839">
        <ele>141.8</ele>
        <time>2022-09-11T10:17:13Z</time>
      </trkpt>
      <trkpt lat="46.51348" lon="0.35841">
        <ele>141.8</ele>
        <time>2022-09-11T10:17:14Z</time>
      </trkpt>
      <trkpt lat="46.5134" lon="0.35845">
        <ele>141.4</ele>
        <time>2022-09-11T10:17:16Z</time>
      </trkpt>
      <trkpt lat="46.5132" lon="0.35853">
        <ele>141.2</ele>
        <time>2022-09-11T10:17:20Z</time>
      </trkpt>
      <trkpt lat="46.51281" lon="0.35868">
        <ele>140.8</ele>
        <time>2022-09-11T10:17:27Z</time>
      </trkpt>
      <trkpt lat="46.51257" lon="0.35878">
        <ele>141.4</ele>
        <time>2022-09-11T10:17:31Z</time>
      </trkpt>
      <trkpt lat="46.51246" lon="0.35883">
        <ele>141.6</ele>
        <time>2022-09-11T10:17:33Z</time>
      </trkpt>
      <trkpt lat="46.51188" lon="0.35906">
        <ele>142.2</ele>
        <time>2022-09-11T10:17:43Z</time>
      </trkpt>
      <trkpt lat="46.51182" lon="0.35909">
        <ele>142.6</ele>
        <time>2022-09-11T10:17:44Z</time>
      </trkpt>
      <trkpt lat="46.51148" lon="0.35922">
        <ele>143.2</ele>
        <time>2022-09-11T10:17:50Z</time>
      </trkpt>
      <trkpt lat="46.51137" lon="0.35926">
        <ele>143.8</ele>
        <time>2022-09-11T10:17:52Z</time>
      </trkpt>
      <trkpt lat="46.51131" lon="0.35928">
        <ele>143.8</ele>
        <time>2022-09-11T10:17:53Z</time>
      </trkpt>
      <trkpt lat="46.5112" lon="0.35927">
        <ele>144.2</ele>
        <time>2022-09-11T10:17:55Z</time>
      </trkpt>
      <trkpt lat="46.51079" lon="0.35917">
        <ele>144.2</ele>
        <time>2022-09-11T10:18:03Z</time>
      </trkpt>
      <trkpt lat="46.51047" lon="0.35901">
        <ele>144.6</ele>
        <time>2022-09-11T10:18:09Z</time>
      </trkpt>
      <trkpt lat="46.51022" lon="0.3588">
        <ele>144.8</ele>
        <time>2022-09-11T10:18:14Z</time>
      </trkpt>
      <trkpt lat="46.51011" lon="0.3587">
        <ele>145</ele>
        <time>2022-09-11T10:18:16Z</time>
      </trkpt>
      <trkpt lat="46.50996" lon="0.35856">
        <ele>145.2</ele>
        <time>2022-09-11T10:18:19Z</time>
      </trkpt>
      <trkpt lat="46.5098" lon="0.35847">
        <ele>145.4</ele>
        <time>2022-09-11T10:18:22Z</time>
      </trkpt>
      <trkpt lat="46.50976" lon="0.35844">
        <ele>145.4</ele>
        <time>2022-09-11T10:18:23Z</time>
      </trkpt>
      <trkpt lat="46.5096" lon="0.35839">
        <ele>145.6</ele>
        <time>2022-09-11T10:18:26Z</time>
      </trkpt>
      <trkpt lat="46.50955" lon="0.35836">
        <ele>145.6</ele>
        <time>2022-09-11T10:18:27Z</time>
      </trkpt>
      <trkpt lat="46.50935" lon="0.35824">
        <ele>145.8</ele>
        <time>2022-09-11T10:18:31Z</time>
      </trkpt>
      <trkpt lat="46.5092" lon="0.35816">
        <ele>145.8</ele>
        <time>2022-09-11T10:18:34Z</time>
      </trkpt>
      <trkpt lat="46.50904" lon="0.35808">
        <ele>146</ele>
        <time>2022-09-11T10:18:37Z</time>
      </trkpt>
      <trkpt lat="46.50899" lon="0.35809">
        <ele>146</ele>
        <time>2022-09-11T10:18:38Z</time>
      </trkpt>
      <trkpt lat="46.50894" lon="0.35811">
        <ele>146</ele>
        <time>2022-09-11T10:18:39Z</time>
      </trkpt>
      <trkpt lat="46.50885" lon="0.35819">
        <ele>146.2</ele>
        <time>2022-09-11T10:18:41Z</time>
      </trkpt>
      <trkpt lat="46.50881" lon="0.35825">
        <ele>146</ele>
        <time>2022-09-11T10:18:42Z</time>
      </trkpt>
      <trkpt lat="46.50878" lon="0.35831">
        <ele>146</ele>
        <time>2022-09-11T10:18:43Z</time>
      </trkpt>
      <trkpt lat="46.50873" lon="0.35844">
        <ele>146</ele>
        <time>2022-09-11T10:18:45Z</time>
      </trkpt>
      <trkpt lat="46.50866" lon="0.35856">
        <ele>146</ele>
        <time>2022-09-11T10:18:47Z</time>
      </trkpt>
      <trkpt lat="46.50856" lon="0.35874">
        <ele>146</ele>
        <time>2022-09-11T10:18:50Z</time>
      </trkpt>
      <trkpt lat="46.50847" lon="0.35892">
        <ele>146</ele>
        <time>2022-09-11T10:18:53Z</time>
      </trkpt>
      <trkpt lat="46.50845" lon="0.35899">
        <ele>146</ele>
        <time>2022-09-11T10:18:54Z</time>
      </trkpt>
      <trkpt lat="46.50844" lon="0.35906">
        <ele>145.8</ele>
        <time>2022-09-11T10:18:55Z</time>
      </trkpt>
      <trkpt lat="46.50846" lon="0.35922">
        <ele>145.6</ele>
        <time>2022-09-11T10:18:57Z</time>
      </trkpt>
      <trkpt lat="46.50851" lon="0.35954">
        <ele>144.8</ele>
        <time>2022-09-11T10:19:01Z</time>
      </trkpt>
      <trkpt lat="46.50852" lon="0.3596">
        <ele>144.4</ele>
        <time>2022-09-11T10:19:02Z</time>
      </trkpt>
      <trkpt lat="46.50852" lon="0.35965">
        <ele>144.2</ele>
        <time>2022-09-11T10:19:03Z</time>
      </trkpt>
      <trkpt lat="46.5085" lon="0.35974">
        <ele>143.4</ele>
        <time>2022-09-11T10:19:05Z</time>
      </trkpt>
      <trkpt lat="46.50835" lon="0.35984">
        <ele>142.6</ele>
        <time>2022-09-11T10:19:09Z</time>
      </trkpt>
      <trkpt lat="46.50823" lon="0.35991">
        <ele>142.6</ele>
        <time>2022-09-11T10:19:12Z</time>
      </trkpt>
      <trkpt lat="46.5081" lon="0.36">
        <ele>143</ele>
        <time>2022-09-11T10:19:15Z</time>
      </trkpt>
      <trkpt lat="46.50801" lon="0.36005">
        <ele>142.6</ele>
        <time>2022-09-11T10:19:17Z</time>
      </trkpt>
      <trkpt lat="46.50788" lon="0.3601">
        <ele>142.4</ele>
        <time>2022-09-11T10:19:20Z</time>
      </trkpt>
      <trkpt lat="46.50785" lon="0.36012">
        <ele>142.4</ele>
        <time>2022-09-11T10:19:21Z</time>
      </trkpt>
      <trkpt lat="46.50782" lon="0.3602">
        <ele>142.4</ele>
        <time>2022-09-11T10:19:23Z</time>
      </trkpt>
      <trkpt lat="46.50784" lon="0.36037">
        <ele>142.4</ele>
        <time>2022-09-11T10:19:28Z</time>
      </trkpt>
      <trkpt lat="46.50787" lon="0.36051">
        <ele>143</ele>
        <time>2022-09-11T10:19:34Z</time>
      </trkpt>
      <trkpt lat="46.50788" lon="0.36048">
        <ele>142.8</ele>
        <time>2022-09-11T10:19:37Z</time>
      </trkpt>
      <trkpt lat="46.50786" lon="0.36032">
        <ele>142.2</ele>
        <time>2022-09-11T10:19:43Z</time>
      </trkpt>
      <trkpt lat="46.50782" lon="0.36023">
        <ele>142</ele>
        <time>2022-09-11T10:19:47Z</time>
      </trkpt>
      <trkpt lat="46.5078" lon="0.36023">
        <ele>141.8</ele>
        <time>2022-09-11T10:19:48Z</time>
      </trkpt>
      <trkpt lat="46.5078" lon="0.36023">
        <ele>141</ele>
        <time>2022-09-11T10:19:49Z</time>
      </trkpt>
      <trkpt lat="46.50777" lon="0.3603">
        <ele>141</ele>
        <time>2022-09-11T10:19:50Z</time>
      </trkpt>
      <trkpt lat="46.50777" lon="0.36036">
        <ele>140.8</ele>
        <time>2022-09-11T10:19:51Z</time>
      </trkpt>
      <trkpt lat="46.50777" lon="0.36049">
        <ele>140.4</ele>
        <time>2022-09-11T10:19:53Z</time>
      </trkpt>
      <trkpt lat="46.50777" lon="0.36064">
        <ele>140.2</ele>
        <time>2022-09-11T10:19:55Z</time>
      </trkpt>
      <trkpt lat="46.50777" lon="0.36071">
        <ele>139.8</ele>
        <time>2022-09-11T10:19:56Z</time>
      </trkpt>
      <trkpt lat="46.50775" lon="0.36094">
        <ele>139</ele>
        <time>2022-09-11T10:19:59Z</time>
      </trkpt>
      <trkpt lat="46.50773" lon="0.36101">
        <ele>139</ele>
        <time>2022-09-11T10:20:00Z</time>
      </trkpt>
      <trkpt lat="46.5077" lon="0.36107">
        <ele>138.8</ele>
        <time>2022-09-11T10:20:01Z</time>
      </trkpt>
      <trkpt lat="46.50762" lon="0.36122">
        <ele>139.4</ele>
        <time>2022-09-11T10:20:04Z</time>
      </trkpt>
      <trkpt lat="46.50756" lon="0.36133">
        <ele>139.8</ele>
        <time>2022-09-11T10:20:06Z</time>
      </trkpt>
      <trkpt lat="46.50752" lon="0.36148">
        <ele>140</ele>
        <time>2022-09-11T10:20:08Z</time>
      </trkpt>
      <trkpt lat="46.50744" lon="0.36193">
        <ele>140.8</ele>
        <time>2022-09-11T10:20:14Z</time>
      </trkpt>
      <trkpt lat="46.50734" lon="0.3626">
        <ele>140.2</ele>
        <time>2022-09-11T10:20:22Z</time>
      </trkpt>
      <trkpt lat="46.50726" lon="0.36323">
        <ele>139.8</ele>
        <time>2022-09-11T10:20:29Z</time>
      </trkpt>
      <trkpt lat="46.50722" lon="0.36349">
        <ele>138.8</ele>
        <time>2022-09-11T10:20:32Z</time>
      </trkpt>
      <trkpt lat="46.50716" lon="0.36386">
        <ele>137.4</ele>
        <time>2022-09-11T10:20:36Z</time>
      </trkpt>
      <trkpt lat="46.50712" lon="0.36415">
        <ele>136.2</ele>
        <time>2022-09-11T10:20:39Z</time>
      </trkpt>
      <trkpt lat="46.5071" lon="0.36425">
        <ele>136</ele>
        <time>2022-09-11T10:20:40Z</time>
      </trkpt>
      <trkpt lat="46.50704" lon="0.36467">
        <ele>135</ele>
        <time>2022-09-11T10:20:44Z</time>
      </trkpt>
      <trkpt lat="46.50701" lon="0.36489">
        <ele>134.6</ele>
        <time>2022-09-11T10:20:46Z</time>
      </trkpt>
      <trkpt lat="46.50697" lon="0.3651">
        <ele>133.8</ele>
        <time>2022-09-11T10:20:48Z</time>
      </trkpt>
      <trkpt lat="46.50687" lon="0.36577">
        <ele>132.6</ele>
        <time>2022-09-11T10:20:54Z</time>
      </trkpt>
      <trkpt lat="46.50678" lon="0.36594">
        <ele>132.6</ele>
        <time>2022-09-11T10:20:56Z</time>
      </trkpt>
      <trkpt lat="46.50673" lon="0.366">
        <ele>132.8</ele>
        <time>2022-09-11T10:20:57Z</time>
      </trkpt>
      <trkpt lat="46.50656" lon="0.36616">
        <ele>133.4</ele>
        <time>2022-09-11T10:21:01Z</time>
      </trkpt>
      <trkpt lat="46.50653" lon="0.3662">
        <ele>133.6</ele>
        <time>2022-09-11T10:21:02Z</time>
      </trkpt>
      <trkpt lat="46.50648" lon="0.36627">
        <ele>133.8</ele>
        <time>2022-09-11T10:21:04Z</time>
      </trkpt>
      <trkpt lat="46.50647" lon="0.36636">
        <ele>134</ele>
        <time>2022-09-11T10:21:06Z</time>
      </trkpt>
      <trkpt lat="46.50646" lon="0.36648">
        <ele>134.8</ele>
        <time>2022-09-11T10:21:09Z</time>
      </trkpt>
      <trkpt lat="46.50645" lon="0.36667">
        <ele>135.6</ele>
        <time>2022-09-11T10:21:13Z</time>
      </trkpt>
      <trkpt lat="46.50645" lon="0.36672">
        <ele>136.2</ele>
        <time>2022-09-11T10:21:14Z</time>
      </trkpt>
      <trkpt lat="46.50643" lon="0.36692">
        <ele>137.2</ele>
        <time>2022-09-11T10:21:19Z</time>
      </trkpt>
      <trkpt lat="46.50642" lon="0.36705">
        <ele>138</ele>
        <time>2022-09-11T10:21:22Z</time>
      </trkpt>
      <trkpt lat="46.50641" lon="0.3671">
        <ele>138.4</ele>
        <time>2022-09-11T10:21:23Z</time>
      </trkpt>
      <trkpt lat="46.50643" lon="0.36741">
        <ele>139.4</ele>
        <time>2022-09-11T10:21:30Z</time>
      </trkpt>
      <trkpt lat="46.50644" lon="0.36762">
        <ele>140.6</ele>
        <time>2022-09-11T10:21:36Z</time>
      </trkpt>
      <trkpt lat="46.50641" lon="0.36787">
        <ele>141.2</ele>
        <time>2022-09-11T10:21:43Z</time>
      </trkpt>
      <trkpt lat="46.50641" lon="0.3679">
        <ele>141.4</ele>
        <time>2022-09-11T10:21:46Z</time>
      </trkpt>
      <trkpt lat="46.50641" lon="0.36791">
        <ele>141.4</ele>
        <time>2022-09-11T10:21:48Z</time>
      </trkpt>
      <trkpt lat="46.50641" lon="0.36791">
        <ele>141.4</ele>
        <time>2022-09-11T10:21:49Z</time>
      </trkpt>
      <trkpt lat="46.5061" lon="0.36922">
        <ele>142.8</ele>
        <time>2022-09-11T10:49:14Z</time>
      </trkpt>
      <trkpt lat="46.5061" lon="0.36919">
        <ele>142.8</ele>
        <time>2022-09-11T10:49:28Z</time>
      </trkpt>
      <trkpt lat="46.50611" lon="0.36909">
        <ele>142.8</ele>
        <time>2022-09-11T10:49:38Z</time>
      </trkpt>
      <trkpt lat="46.50612" lon="0.36889">
        <ele>143.6</ele>
        <time>2022-09-11T10:49:44Z</time>
      </trkpt>
      <trkpt lat="46.50617" lon="0.36865">
        <ele>143.8</ele>
        <time>2022-09-11T10:49:48Z</time>
      </trkpt>
      <trkpt lat="46.50619" lon="0.36858">
        <ele>143.8</ele>
        <time>2022-09-11T10:49:49Z</time>
      </trkpt>
      <trkpt lat="46.50622" lon="0.36852">
        <ele>143.8</ele>
        <time>2022-09-11T10:49:50Z</time>
      </trkpt>
      <trkpt lat="46.50631" lon="0.36827">
        <ele>143.2</ele>
        <time>2022-09-11T10:49:54Z</time>
      </trkpt>
      <trkpt lat="46.50633" lon="0.36823">
        <ele>143.2</ele>
        <time>2022-09-11T10:49:55Z</time>
      </trkpt>
      <trkpt lat="46.50638" lon="0.36809">
        <ele>142.4</ele>
        <time>2022-09-11T10:50:00Z</time>
      </trkpt>
      <trkpt lat="46.50638" lon="0.36809">
        <ele>142.4</ele>
        <time>2022-09-11T10:50:01Z</time>
      </trkpt>
      <trkpt lat="46.5064" lon="0.36806">
        <ele>142.2</ele>
        <time>2022-09-11T10:50:13Z</time>
      </trkpt>
      <trkpt lat="46.5064" lon="0.36805">
        <ele>142.4</ele>
        <time>2022-09-11T10:50:29Z</time>
      </trkpt>
      <trkpt lat="46.5064" lon="0.36805">
        <ele>142.6</ele>
        <time>2022-09-11T10:50:37Z</time>
      </trkpt>
      <trkpt lat="46.50639" lon="0.36804">
        <ele>142.6</ele>
        <time>2022-09-11T10:50:47Z</time>
      </trkpt>
      <trkpt lat="46.50634" lon="0.36808">
        <ele>142.8</ele>
        <time>2022-09-11T10:50:54Z</time>
      </trkpt>
      <trkpt lat="46.5063" lon="0.36812">
        <ele>142.8</ele>
        <time>2022-09-11T10:51:00Z</time>
      </trkpt>
      <trkpt lat="46.50624" lon="0.3681">
        <ele>143.2</ele>
        <time>2022-09-11T10:51:04Z</time>
      </trkpt>
      <trkpt lat="46.50611" lon="0.368">
        <ele>143.2</ele>
        <time>2022-09-11T10:51:09Z</time>
      </trkpt>
      <trkpt lat="46.506" lon="0.36793">
        <ele>143</ele>
        <time>2022-09-11T10:51:13Z</time>
      </trkpt>
      <trkpt lat="46.50587" lon="0.36786">
        <ele>143</ele>
        <time>2022-09-11T10:51:18Z</time>
      </trkpt>
      <trkpt lat="46.50583" lon="0.36785">
        <ele>142.8</ele>
        <time>2022-09-11T10:51:20Z</time>
      </trkpt>
      <trkpt lat="46.50578" lon="0.36781">
        <ele>142.6</ele>
        <time>2022-09-11T10:51:23Z</time>
      </trkpt>
      <trkpt lat="46.50577" lon="0.36781">
        <ele>142.6</ele>
        <time>2022-09-11T10:51:24Z</time>
      </trkpt>
      <trkpt lat="46.50576" lon="0.36781">
        <ele>142.6</ele>
        <time>2022-09-11T10:51:25Z</time>
      </trkpt>
      <trkpt lat="46.50575" lon="0.36779">
        <ele>142.6</ele>
        <time>2022-09-11T10:51:28Z</time>
      </trkpt>
      <trkpt lat="46.50576" lon="0.36781">
        <ele>142.6</ele>
        <time>2022-09-11T10:51:33Z</time>
      </trkpt>
      <trkpt lat="46.50581" lon="0.36781">
        <ele>142.6</ele>
        <time>2022-09-11T10:51:36Z</time>
      </trkpt>
      <trkpt lat="46.50583" lon="0.36783">
        <ele>142.8</ele>
        <time>2022-09-11T10:51:37Z</time>
      </trkpt>
      <trkpt lat="46.50585" lon="0.36791">
        <ele>143</ele>
        <time>2022-09-11T10:51:40Z</time>
      </trkpt>
      <trkpt lat="46.50581" lon="0.36801">
        <ele>143.4</ele>
        <time>2022-09-11T10:51:44Z</time>
      </trkpt>
      <trkpt lat="46.50579" lon="0.36803">
        <ele>143.4</ele>
        <time>2022-09-11T10:51:45Z</time>
      </trkpt>
      <trkpt lat="46.50573" lon="0.36814">
        <ele>143.8</ele>
        <time>2022-09-11T10:51:51Z</time>
      </trkpt>
      <trkpt lat="46.5057" lon="0.3682">
        <ele>143.8</ele>
        <time>2022-09-11T10:51:54Z</time>
      </trkpt>
      <trkpt lat="46.50571" lon="0.36821">
        <ele>144</ele>
        <time>2022-09-11T10:51:55Z</time>
      </trkpt>
      <trkpt lat="46.50571" lon="0.36821">
        <ele>144.2</ele>
        <time>2022-09-11T10:51:56Z</time>
      </trkpt>
      <trkpt lat="46.50575" lon="0.36817">
        <ele>144.2</ele>
        <time>2022-09-11T10:51:59Z</time>
      </trkpt>
      <trkpt lat="46.50576" lon="0.36815">
        <ele>144.2</ele>
        <time>2022-09-11T10:52:00Z</time>
      </trkpt>
      <trkpt lat="46.50576" lon="0.36813">
        <ele>144.2</ele>
        <time>2022-09-11T10:52:01Z</time>
      </trkpt>
      <trkpt lat="46.50579" lon="0.36806">
        <ele>143.8</ele>
        <time>2022-09-11T10:52:05Z</time>
      </trkpt>
      <trkpt lat="46.50579" lon="0.36805">
        <ele>143.8</ele>
        <time>2022-09-11T10:52:07Z</time>
      </trkpt>
      <trkpt lat="46.50578" lon="0.36803">
        <ele>143.8</ele>
        <time>2022-09-11T10:52:22Z</time>
      </trkpt>
      <trkpt lat="46.50578" lon="0.36803">
        <ele>143.8</ele>
        <time>2022-09-11T10:52:36Z</time>
      </trkpt>
      <trkpt lat="46.50578" lon="0.36804">
        <ele>143.8</ele>
        <time>2022-09-11T10:52:44Z</time>
      </trkpt>
      <trkpt lat="46.50579" lon="0.36804">
        <ele>144</ele>
        <time>2022-09-11T10:53:04Z</time>
      </trkpt>
      <trkpt lat="46.50579" lon="0.36804">
        <ele>144</ele>
        <time>2022-09-11T10:53:16Z</time>
      </trkpt>
      <trkpt lat="46.50579" lon="0.36805">
        <ele>143.8</ele>
        <time>2022-09-11T10:53:34Z</time>
      </trkpt>
      <trkpt lat="46.50579" lon="0.36805">
        <ele>143.8</ele>
        <time>2022-09-11T10:53:52Z</time>
      </trkpt>
      <trkpt lat="46.50579" lon="0.36807">
        <ele>143.8</ele>
        <time>2022-09-11T10:54:09Z</time>
      </trkpt>
      <trkpt lat="46.50579" lon="0.36807">
        <ele>143.8</ele>
        <time>2022-09-11T10:54:28Z</time>
      </trkpt>
      <trkpt lat="46.50579" lon="0.36806">
        <ele>143.8</ele>
        <time>2022-09-11T10:54:48Z</time>
      </trkpt>
      <trkpt lat="46.50579" lon="0.36807">
        <ele>143.8</ele>
        <time>2022-09-11T10:55:01Z</time>
      </trkpt>
      <trkpt lat="46.5058" lon="0.36807">
        <ele>143.8</ele>
        <time>2022-09-11T10:55:06Z</time>
      </trkpt>
      <trkpt lat="46.50579" lon="0.36806">
        <ele>143.8</ele>
        <time>2022-09-11T10:55:28Z</time>
      </trkpt>
      <trkpt lat="46.50577" lon="0.36805">
        <ele>143.8</ele>
        <time>2022-09-11T10:55:31Z</time>
      </trkpt>
      <trkpt lat="46.50577" lon="0.36808">
        <ele>143.8</ele>
        <time>2022-09-11T10:55:34Z</time>
      </trkpt>
      <trkpt lat="46.50577" lon="0.3681">
        <ele>143.8</ele>
        <time>2022-09-11T10:55:36Z</time>
      </trkpt>
      <trkpt lat="46.50577" lon="0.3682">
        <ele>144</ele>
        <time>2022-09-11T10:55:42Z</time>
      </trkpt>
      <trkpt lat="46.50574" lon="0.36823">
        <ele>144.2</ele>
        <time>2022-09-11T10:55:44Z</time>
      </trkpt>
      <trkpt lat="46.50572" lon="0.36825">
        <ele>144.4</ele>
        <time>2022-09-11T10:55:45Z</time>
      </trkpt>
      <trkpt lat="46.50565" lon="0.36824">
        <ele>144.6</ele>
        <time>2022-09-11T10:55:48Z</time>
      </trkpt>
      <trkpt lat="46.50558" lon="0.36821">
        <ele>144.6</ele>
        <time>2022-09-11T10:55:51Z</time>
      </trkpt>
      <trkpt lat="46.50554" lon="0.36815">
        <ele>144.4</ele>
        <time>2022-09-11T10:55:53Z</time>
      </trkpt>
      <trkpt lat="46.5055" lon="0.36805">
        <ele>144.4</ele>
        <time>2022-09-11T10:55:56Z</time>
      </trkpt>
      <trkpt lat="46.50549" lon="0.36801">
        <ele>144.4</ele>
        <time>2022-09-11T10:55:57Z</time>
      </trkpt>
      <trkpt lat="46.50546" lon="0.36791">
        <ele>144.4</ele>
        <time>2022-09-11T10:55:59Z</time>
      </trkpt>
      <trkpt lat="46.5054" lon="0.36785">
        <ele>144</ele>
        <time>2022-09-11T10:56:01Z</time>
      </trkpt>
      <trkpt lat="46.50537" lon="0.36776">
        <ele>144</ele>
        <time>2022-09-11T10:56:03Z</time>
      </trkpt>
      <trkpt lat="46.50531" lon="0.36767">
        <ele>143.8</ele>
        <time>2022-09-11T10:56:05Z</time>
      </trkpt>
      <trkpt lat="46.50522" lon="0.36763">
        <ele>143.4</ele>
        <time>2022-09-11T10:56:07Z</time>
      </trkpt>
      <trkpt lat="46.50514" lon="0.36757">
        <ele>143.2</ele>
        <time>2022-09-11T10:56:09Z</time>
      </trkpt>
      <trkpt lat="46.50509" lon="0.36754">
        <ele>142.8</ele>
        <time>2022-09-11T10:56:11Z</time>
      </trkpt>
      <trkpt lat="46.50507" lon="0.36751">
        <ele>142.8</ele>
        <time>2022-09-11T10:56:12Z</time>
      </trkpt>
      <trkpt lat="46.50495" lon="0.3674">
        <ele>142.2</ele>
        <time>2022-09-11T10:56:16Z</time>
      </trkpt>
      <trkpt lat="46.50492" lon="0.36738">
        <ele>142</ele>
        <time>2022-09-11T10:56:17Z</time>
      </trkpt>
      <trkpt lat="46.50488" lon="0.36736">
        <ele>142</ele>
        <time>2022-09-11T10:56:18Z</time>
      </trkpt>
      <trkpt lat="46.50474" lon="0.36729">
        <ele>141.8</ele>
        <time>2022-09-11T10:56:21Z</time>
      </trkpt>
      <trkpt lat="46.50469" lon="0.36727">
        <ele>141.6</ele>
        <time>2022-09-11T10:56:22Z</time>
      </trkpt>
      <trkpt lat="46.50453" lon="0.36723">
        <ele>141.4</ele>
        <time>2022-09-11T10:56:25Z</time>
      </trkpt>
      <trkpt lat="46.50441" lon="0.36723">
        <ele>141.8</ele>
        <time>2022-09-11T10:56:27Z</time>
      </trkpt>
      <trkpt lat="46.50414" lon="0.36717">
        <ele>142.6</ele>
        <time>2022-09-11T10:56:32Z</time>
      </trkpt>
      <trkpt lat="46.50408" lon="0.36715">
        <ele>142.8</ele>
        <time>2022-09-11T10:56:33Z</time>
      </trkpt>
      <trkpt lat="46.50398" lon="0.36709">
        <ele>143</ele>
        <time>2022-09-11T10:56:35Z</time>
      </trkpt>
      <trkpt lat="46.50393" lon="0.36705">
        <ele>143</ele>
        <time>2022-09-11T10:56:36Z</time>
      </trkpt>
      <trkpt lat="46.50383" lon="0.36699">
        <ele>143</ele>
        <time>2022-09-11T10:56:38Z</time>
      </trkpt>
      <trkpt lat="46.50374" lon="0.36693">
        <ele>142.8</ele>
        <time>2022-09-11T10:56:40Z</time>
      </trkpt>
      <trkpt lat="46.50366" lon="0.36693">
        <ele>142.6</ele>
        <time>2022-09-11T10:56:42Z</time>
      </trkpt>
      <trkpt lat="46.50362" lon="0.36693">
        <ele>142.6</ele>
        <time>2022-09-11T10:56:43Z</time>
      </trkpt>
      <trkpt lat="46.50357" lon="0.3669">
        <ele>142.6</ele>
        <time>2022-09-11T10:56:45Z</time>
      </trkpt>
      <trkpt lat="46.50356" lon="0.36686">
        <ele>142.6</ele>
        <time>2022-09-11T10:56:46Z</time>
      </trkpt>
      <trkpt lat="46.50356" lon="0.36682">
        <ele>142.8</ele>
        <time>2022-09-11T10:56:47Z</time>
      </trkpt>
      <trkpt lat="46.50355" lon="0.36671">
        <ele>142.8</ele>
        <time>2022-09-11T10:56:49Z</time>
      </trkpt>
      <trkpt lat="46.50353" lon="0.36665">
        <ele>142.8</ele>
        <time>2022-09-11T10:56:50Z</time>
      </trkpt>
      <trkpt lat="46.5035" lon="0.36661">
        <ele>142.8</ele>
        <time>2022-09-11T10:56:51Z</time>
      </trkpt>
      <trkpt lat="46.50345" lon="0.36657">
        <ele>142.2</ele>
        <time>2022-09-11T10:56:53Z</time>
      </trkpt>
      <trkpt lat="46.50342" lon="0.36657">
        <ele>142</ele>
        <time>2022-09-11T10:56:54Z</time>
      </trkpt>
      <trkpt lat="46.5034" lon="0.36657">
        <ele>141.8</ele>
        <time>2022-09-11T10:56:55Z</time>
      </trkpt>
      <trkpt lat="46.50334" lon="0.36657">
        <ele>141.8</ele>
        <time>2022-09-11T10:56:58Z</time>
      </trkpt>
      <trkpt lat="46.50333" lon="0.36659">
        <ele>141.8</ele>
        <time>2022-09-11T10:56:59Z</time>
      </trkpt>
      <trkpt lat="46.50331" lon="0.36663">
        <ele>142</ele>
        <time>2022-09-11T10:57:02Z</time>
      </trkpt>
      <trkpt lat="46.50328" lon="0.36666">
        <ele>142.4</ele>
        <time>2022-09-11T10:57:04Z</time>
      </trkpt>
      <trkpt lat="46.50323" lon="0.36668">
        <ele>142.6</ele>
        <time>2022-09-11T10:57:06Z</time>
      </trkpt>
      <trkpt lat="46.50317" lon="0.36666">
        <ele>142.8</ele>
        <time>2022-09-11T10:57:08Z</time>
      </trkpt>
      <trkpt lat="46.50311" lon="0.3666">
        <ele>143.2</ele>
        <time>2022-09-11T10:57:10Z</time>
      </trkpt>
      <trkpt lat="46.50306" lon="0.36652">
        <ele>143.2</ele>
        <time>2022-09-11T10:57:12Z</time>
      </trkpt>
      <trkpt lat="46.50299" lon="0.36646">
        <ele>143.2</ele>
        <time>2022-09-11T10:57:14Z</time>
      </trkpt>
      <trkpt lat="46.5029" lon="0.36648">
        <ele>143.2</ele>
        <time>2022-09-11T10:57:17Z</time>
      </trkpt>
      <trkpt lat="46.50283" lon="0.36651">
        <ele>143.2</ele>
        <time>2022-09-11T10:57:19Z</time>
      </trkpt>
      <trkpt lat="46.50279" lon="0.36652">
        <ele>143.2</ele>
        <time>2022-09-11T10:57:20Z</time>
      </trkpt>
      <trkpt lat="46.50274" lon="0.36657">
        <ele>143.6</ele>
        <time>2022-09-11T10:57:22Z</time>
      </trkpt>
      <trkpt lat="46.50268" lon="0.36661">
        <ele>143.6</ele>
        <time>2022-09-11T10:57:24Z</time>
      </trkpt>
      <trkpt lat="46.50259" lon="0.36661">
        <ele>144</ele>
        <time>2022-09-11T10:57:27Z</time>
      </trkpt>
      <trkpt lat="46.50257" lon="0.36659">
        <ele>144</ele>
        <time>2022-09-11T10:57:28Z</time>
      </trkpt>
      <trkpt lat="46.50253" lon="0.36654">
        <ele>143.8</ele>
        <time>2022-09-11T10:57:30Z</time>
      </trkpt>
      <trkpt lat="46.5025" lon="0.36651">
        <ele>143.8</ele>
        <time>2022-09-11T10:57:31Z</time>
      </trkpt>
      <trkpt lat="46.50245" lon="0.36644">
        <ele>143.8</ele>
        <time>2022-09-11T10:57:33Z</time>
      </trkpt>
      <trkpt lat="46.5024" lon="0.36637">
        <ele>143.8</ele>
        <time>2022-09-11T10:57:35Z</time>
      </trkpt>
      <trkpt lat="46.50238" lon="0.36636">
        <ele>143.6</ele>
        <time>2022-09-11T10:57:36Z</time>
      </trkpt>
      <trkpt lat="46.50233" lon="0.36634">
        <ele>143.8</ele>
        <time>2022-09-11T10:57:38Z</time>
      </trkpt>
      <trkpt lat="46.50228" lon="0.3663">
        <ele>143.8</ele>
        <time>2022-09-11T10:57:40Z</time>
      </trkpt>
      <trkpt lat="46.50224" lon="0.36632">
        <ele>143.8</ele>
        <time>2022-09-11T10:57:42Z</time>
      </trkpt>
      <trkpt lat="46.50219" lon="0.36637">
        <ele>144.2</ele>
        <time>2022-09-11T10:57:44Z</time>
      </trkpt>
      <trkpt lat="46.50215" lon="0.36641">
        <ele>144.4</ele>
        <time>2022-09-11T10:57:46Z</time>
      </trkpt>
      <trkpt lat="46.50209" lon="0.3664">
        <ele>144.4</ele>
        <time>2022-09-11T10:57:48Z</time>
      </trkpt>
      <trkpt lat="46.50198" lon="0.36627">
        <ele>144.2</ele>
        <time>2022-09-11T10:57:52Z</time>
      </trkpt>
      <trkpt lat="46.50191" lon="0.36622">
        <ele>144.4</ele>
        <time>2022-09-11T10:57:54Z</time>
      </trkpt>
      <trkpt lat="46.50182" lon="0.36614">
        <ele>144.8</ele>
        <time>2022-09-11T10:57:57Z</time>
      </trkpt>
      <trkpt lat="46.50175" lon="0.36613">
        <ele>144.6</ele>
        <time>2022-09-11T10:57:59Z</time>
      </trkpt>
      <trkpt lat="46.5017" lon="0.36616">
        <ele>144.6</ele>
        <time>2022-09-11T10:58:01Z</time>
      </trkpt>
      <trkpt lat="46.50161" lon="0.36623">
        <ele>144.4</ele>
        <time>2022-09-11T10:58:05Z</time>
      </trkpt>
      <trkpt lat="46.50155" lon="0.36625">
        <ele>144.8</ele>
        <time>2022-09-11T10:58:07Z</time>
      </trkpt>
      <trkpt lat="46.50143" lon="0.36634">
        <ele>145</ele>
        <time>2022-09-11T10:58:11Z</time>
      </trkpt>
      <trkpt lat="46.50141" lon="0.36637">
        <ele>145</ele>
        <time>2022-09-11T10:58:12Z</time>
      </trkpt>
      <trkpt lat="46.50138" lon="0.3664">
        <ele>145</ele>
        <time>2022-09-11T10:58:13Z</time>
      </trkpt>
      <trkpt lat="46.5013" lon="0.36649">
        <ele>145.2</ele>
        <time>2022-09-11T10:58:16Z</time>
      </trkpt>
      <trkpt lat="46.50127" lon="0.36651">
        <ele>145.2</ele>
        <time>2022-09-11T10:58:17Z</time>
      </trkpt>
      <trkpt lat="46.50121" lon="0.36657">
        <ele>145</ele>
        <time>2022-09-11T10:58:19Z</time>
      </trkpt>
      <trkpt lat="46.50114" lon="0.36673">
        <ele>145.2</ele>
        <time>2022-09-11T10:58:23Z</time>
      </trkpt>
      <trkpt lat="46.50114" lon="0.36678">
        <ele>145</ele>
        <time>2022-09-11T10:58:24Z</time>
      </trkpt>
      <trkpt lat="46.50111" lon="0.367">
        <ele>145.4</ele>
        <time>2022-09-11T10:58:29Z</time>
      </trkpt>
      <trkpt lat="46.50115" lon="0.36722">
        <ele>145.6</ele>
        <time>2022-09-11T10:58:34Z</time>
      </trkpt>
      <trkpt lat="46.50118" lon="0.36727">
        <ele>145.6</ele>
        <time>2022-09-11T10:58:35Z</time>
      </trkpt>
      <trkpt lat="46.50124" lon="0.36732">
        <ele>145.6</ele>
        <time>2022-09-11T10:58:37Z</time>
      </trkpt>
      <trkpt lat="46.50127" lon="0.36734">
        <ele>145.6</ele>
        <time>2022-09-11T10:58:38Z</time>
      </trkpt>
      <trkpt lat="46.50134" lon="0.36739">
        <ele>145.6</ele>
        <time>2022-09-11T10:58:41Z</time>
      </trkpt>
      <trkpt lat="46.5014" lon="0.36739">
        <ele>145.4</ele>
        <time>2022-09-11T10:58:43Z</time>
      </trkpt>
      <trkpt lat="46.50147" lon="0.36741">
        <ele>145.4</ele>
        <time>2022-09-11T10:58:45Z</time>
      </trkpt>
      <trkpt lat="46.50153" lon="0.36746">
        <ele>145.4</ele>
        <time>2022-09-11T10:58:47Z</time>
      </trkpt>
      <trkpt lat="46.5016" lon="0.36757">
        <ele>145.4</ele>
        <time>2022-09-11T10:58:50Z</time>
      </trkpt>
      <trkpt lat="46.50163" lon="0.3676">
        <ele>145.4</ele>
        <time>2022-09-11T10:58:51Z</time>
      </trkpt>
      <trkpt lat="46.50166" lon="0.3676">
        <ele>145.4</ele>
        <time>2022-09-11T10:58:52Z</time>
      </trkpt>
      <trkpt lat="46.50172" lon="0.3676">
        <ele>145.6</ele>
        <time>2022-09-11T10:58:54Z</time>
      </trkpt>
      <trkpt lat="46.50176" lon="0.36764">
        <ele>145.8</ele>
        <time>2022-09-11T10:58:56Z</time>
      </trkpt>
      <trkpt lat="46.5018" lon="0.36768">
        <ele>146</ele>
        <time>2022-09-11T10:58:58Z</time>
      </trkpt>
      <trkpt lat="46.50195" lon="0.36769">
        <ele>145.6</ele>
        <time>2022-09-11T10:59:03Z</time>
      </trkpt>
      <trkpt lat="46.50198" lon="0.36774">
        <ele>145.8</ele>
        <time>2022-09-11T10:59:05Z</time>
      </trkpt>
      <trkpt lat="46.50199" lon="0.36783">
        <ele>145.8</ele>
        <time>2022-09-11T10:59:07Z</time>
      </trkpt>
      <trkpt lat="46.50199" lon="0.36795">
        <ele>145.8</ele>
        <time>2022-09-11T10:59:09Z</time>
      </trkpt>
      <trkpt lat="46.50199" lon="0.36806">
        <ele>145.8</ele>
        <time>2022-09-11T10:59:11Z</time>
      </trkpt>
      <trkpt lat="46.50199" lon="0.3681">
        <ele>145.8</ele>
        <time>2022-09-11T10:59:12Z</time>
      </trkpt>
      <trkpt lat="46.50197" lon="0.36817">
        <ele>146</ele>
        <time>2022-09-11T10:59:14Z</time>
      </trkpt>
      <trkpt lat="46.50198" lon="0.3682">
        <ele>146.2</ele>
        <time>2022-09-11T10:59:15Z</time>
      </trkpt>
      <trkpt lat="46.50199" lon="0.36823">
        <ele>146.2</ele>
        <time>2022-09-11T10:59:16Z</time>
      </trkpt>
      <trkpt lat="46.50201" lon="0.36829">
        <ele>146.4</ele>
        <time>2022-09-11T10:59:18Z</time>
      </trkpt>
      <trkpt lat="46.50204" lon="0.36829">
        <ele>146.2</ele>
        <time>2022-09-11T10:59:20Z</time>
      </trkpt>
      <trkpt lat="46.50214" lon="0.36826">
        <ele>146.2</ele>
        <time>2022-09-11T10:59:24Z</time>
      </trkpt>
      <trkpt lat="46.50217" lon="0.36824">
        <ele>146.4</ele>
        <time>2022-09-11T10:59:25Z</time>
      </trkpt>
      <trkpt lat="46.50221" lon="0.36824">
        <ele>146.4</ele>
        <time>2022-09-11T10:59:26Z</time>
      </trkpt>
      <trkpt lat="46.50231" lon="0.36819">
        <ele>146.6</ele>
        <time>2022-09-11T10:59:29Z</time>
      </trkpt>
      <trkpt lat="46.50238" lon="0.36824">
        <ele>146.6</ele>
        <time>2022-09-11T10:59:31Z</time>
      </trkpt>
      <trkpt lat="46.50246" lon="0.36829">
        <ele>146.6</ele>
        <time>2022-09-11T10:59:33Z</time>
      </trkpt>
      <trkpt lat="46.50255" lon="0.36832">
        <ele>146</ele>
        <time>2022-09-11T10:59:35Z</time>
      </trkpt>
      <trkpt lat="46.50259" lon="0.36833">
        <ele>146</ele>
        <time>2022-09-11T10:59:36Z</time>
      </trkpt>
      <trkpt lat="46.50273" lon="0.36835">
        <ele>146</ele>
        <time>2022-09-11T10:59:39Z</time>
      </trkpt>
      <trkpt lat="46.50278" lon="0.36836">
        <ele>146</ele>
        <time>2022-09-11T10:59:40Z</time>
      </trkpt>
      <trkpt lat="46.50288" lon="0.36839">
        <ele>146.4</ele>
        <time>2022-09-11T10:59:42Z</time>
      </trkpt>
      <trkpt lat="46.50299" lon="0.36841">
        <ele>146.8</ele>
        <time>2022-09-11T10:59:44Z</time>
      </trkpt>
      <trkpt lat="46.50304" lon="0.36843">
        <ele>146.8</ele>
        <time>2022-09-11T10:59:45Z</time>
      </trkpt>
      <trkpt lat="46.50309" lon="0.36846">
        <ele>146.8</ele>
        <time>2022-09-11T10:59:46Z</time>
      </trkpt>
      <trkpt lat="46.50329" lon="0.36858">
        <ele>147</ele>
        <time>2022-09-11T10:59:50Z</time>
      </trkpt>
      <trkpt lat="46.50334" lon="0.3686">
        <ele>147</ele>
        <time>2022-09-11T10:59:51Z</time>
      </trkpt>
      <trkpt lat="46.50361" lon="0.36879">
        <ele>146.6</ele>
        <time>2022-09-11T10:59:57Z</time>
      </trkpt>
      <trkpt lat="46.50374" lon="0.36889">
        <ele>146.2</ele>
        <time>2022-09-11T11:00:00Z</time>
      </trkpt>
      <trkpt lat="46.5039" lon="0.369">
        <ele>146</ele>
        <time>2022-09-11T11:00:03Z</time>
      </trkpt>
      <trkpt lat="46.50435" lon="0.36916">
        <ele>145.8</ele>
        <time>2022-09-11T11:00:10Z</time>
      </trkpt>
      <trkpt lat="46.50471" lon="0.36929">
        <ele>145.8</ele>
        <time>2022-09-11T11:00:16Z</time>
      </trkpt>
      <trkpt lat="46.50481" lon="0.36936">
        <ele>145.8</ele>
        <time>2022-09-11T11:00:18Z</time>
      </trkpt>
      <trkpt lat="46.50483" lon="0.3694">
        <ele>145.8</ele>
        <time>2022-09-11T11:00:19Z</time>
      </trkpt>
      <trkpt lat="46.50484" lon="0.36943">
        <ele>145.6</ele>
        <time>2022-09-11T11:00:20Z</time>
      </trkpt>
      <trkpt lat="46.50484" lon="0.36956">
        <ele>145.6</ele>
        <time>2022-09-11T11:00:23Z</time>
      </trkpt>
      <trkpt lat="46.50483" lon="0.36971">
        <ele>144.8</ele>
        <time>2022-09-11T11:00:26Z</time>
      </trkpt>
      <trkpt lat="46.50479" lon="0.36989">
        <ele>143.6</ele>
        <time>2022-09-11T11:00:29Z</time>
      </trkpt>
      <trkpt lat="46.50477" lon="0.36994">
        <ele>143.2</ele>
        <time>2022-09-11T11:00:30Z</time>
      </trkpt>
      <trkpt lat="46.50471" lon="0.37001">
        <ele>142.8</ele>
        <time>2022-09-11T11:00:32Z</time>
      </trkpt>
      <trkpt lat="46.50468" lon="0.37002">
        <ele>142.6</ele>
        <time>2022-09-11T11:00:33Z</time>
      </trkpt>
      <trkpt lat="46.50466" lon="0.37005">
        <ele>142.4</ele>
        <time>2022-09-11T11:00:34Z</time>
      </trkpt>
      <trkpt lat="46.50454" lon="0.37016">
        <ele>142.6</ele>
        <time>2022-09-11T11:00:38Z</time>
      </trkpt>
      <trkpt lat="46.50452" lon="0.37021">
        <ele>142.6</ele>
        <time>2022-09-11T11:00:39Z</time>
      </trkpt>
      <trkpt lat="46.50447" lon="0.37026">
        <ele>143</ele>
        <time>2022-09-11T11:00:41Z</time>
      </trkpt>
      <trkpt lat="46.50441" lon="0.37029">
        <ele>143.4</ele>
        <time>2022-09-11T11:00:43Z</time>
      </trkpt>
      <trkpt lat="46.50439" lon="0.37031">
        <ele>143.6</ele>
        <time>2022-09-11T11:00:44Z</time>
      </trkpt>
      <trkpt lat="46.50422" lon="0.3704">
        <ele>144.6</ele>
        <time>2022-09-11T11:00:50Z</time>
      </trkpt>
      <trkpt lat="46.50408" lon="0.37042">
        <ele>145.4</ele>
        <time>2022-09-11T11:00:53Z</time>
      </trkpt>
      <trkpt lat="46.50401" lon="0.37041">
        <ele>145.6</ele>
        <time>2022-09-11T11:00:55Z</time>
      </trkpt>
      <trkpt lat="46.50394" lon="0.37046">
        <ele>145.4</ele>
        <time>2022-09-11T11:00:57Z</time>
      </trkpt>
      <trkpt lat="46.50392" lon="0.37051">
        <ele>145.2</ele>
        <time>2022-09-11T11:00:58Z</time>
      </trkpt>
      <trkpt lat="46.50389" lon="0.3707">
        <ele>144.8</ele>
        <time>2022-09-11T11:01:01Z</time>
      </trkpt>
      <trkpt lat="46.50387" lon="0.37078">
        <ele>144.8</ele>
        <time>2022-09-11T11:01:02Z</time>
      </trkpt>
      <trkpt lat="46.50379" lon="0.37132">
        <ele>145.4</ele>
        <time>2022-09-11T11:01:09Z</time>
      </trkpt>
      <trkpt lat="46.50376" lon="0.37154">
        <ele>145.6</ele>
        <time>2022-09-11T11:01:12Z</time>
      </trkpt>
      <trkpt lat="46.50376" lon="0.37167">
        <ele>145.6</ele>
        <time>2022-09-11T11:01:14Z</time>
      </trkpt>
      <trkpt lat="46.50371" lon="0.37176">
        <ele>145.4</ele>
        <time>2022-09-11T11:01:16Z</time>
      </trkpt>
      <trkpt lat="46.50368" lon="0.37178">
        <ele>145</ele>
        <time>2022-09-11T11:01:17Z</time>
      </trkpt>
      <trkpt lat="46.50364" lon="0.37178">
        <ele>144.8</ele>
        <time>2022-09-11T11:01:18Z</time>
      </trkpt>
      <trkpt lat="46.50356" lon="0.37175">
        <ele>145</ele>
        <time>2022-09-11T11:01:20Z</time>
      </trkpt>
      <trkpt lat="46.50352" lon="0.37172">
        <ele>145</ele>
        <time>2022-09-11T11:01:21Z</time>
      </trkpt>
      <trkpt lat="46.50333" lon="0.37165">
        <ele>145.4</ele>
        <time>2022-09-11T11:01:25Z</time>
      </trkpt>
      <trkpt lat="46.50304" lon="0.37153">
        <ele>145.4</ele>
        <time>2022-09-11T11:01:31Z</time>
      </trkpt>
      <trkpt lat="46.50263" lon="0.37133">
        <ele>145.2</ele>
        <time>2022-09-11T11:01:39Z</time>
      </trkpt>
      <trkpt lat="46.50221" lon="0.37111">
        <ele>145.6</ele>
        <time>2022-09-11T11:01:47Z</time>
      </trkpt>
      <trkpt lat="46.50179" lon="0.37088">
        <ele>144.8</ele>
        <time>2022-09-11T11:01:55Z</time>
      </trkpt>
      <trkpt lat="46.50137" lon="0.37065">
        <ele>145</ele>
        <time>2022-09-11T11:02:03Z</time>
      </trkpt>
      <trkpt lat="46.50129" lon="0.37069">
        <ele>145.2</ele>
        <time>2022-09-11T11:02:05Z</time>
      </trkpt>
      <trkpt lat="46.50127" lon="0.37072">
        <ele>145.4</ele>
        <time>2022-09-11T11:02:06Z</time>
      </trkpt>
      <trkpt lat="46.50121" lon="0.37081">
        <ele>145.8</ele>
        <time>2022-09-11T11:02:08Z</time>
      </trkpt>
      <trkpt lat="46.50106" lon="0.37103">
        <ele>145.8</ele>
        <time>2022-09-11T11:02:13Z</time>
      </trkpt>
      <trkpt lat="46.50102" lon="0.37107">
        <ele>145.6</ele>
        <time>2022-09-11T11:02:15Z</time>
      </trkpt>
      <trkpt lat="46.50096" lon="0.37108">
        <ele>145.6</ele>
        <time>2022-09-11T11:02:17Z</time>
      </trkpt>
      <trkpt lat="46.50093" lon="0.37108">
        <ele>145.6</ele>
        <time>2022-09-11T11:02:18Z</time>
      </trkpt>
      <trkpt lat="46.50089" lon="0.37104">
        <ele>145.8</ele>
        <time>2022-09-11T11:02:20Z</time>
      </trkpt>
      <trkpt lat="46.50087" lon="0.37101">
        <ele>145.8</ele>
        <time>2022-09-11T11:02:21Z</time>
      </trkpt>
      <trkpt lat="46.50071" lon="0.37089">
        <ele>145.6</ele>
        <time>2022-09-11T11:02:26Z</time>
      </trkpt>
      <trkpt lat="46.50063" lon="0.37084">
        <ele>145.4</ele>
        <time>2022-09-11T11:02:28Z</time>
      </trkpt>
      <trkpt lat="46.50059" lon="0.37079">
        <ele>145.6</ele>
        <time>2022-09-11T11:02:30Z</time>
      </trkpt>
      <trkpt lat="46.50047" lon="0.37056">
        <ele>145.8</ele>
        <time>2022-09-11T11:02:37Z</time>
      </trkpt>
      <trkpt lat="46.50038" lon="0.37054">
        <ele>145.8</ele>
        <time>2022-09-11T11:02:41Z</time>
      </trkpt>
      <trkpt lat="46.50035" lon="0.37054">
        <ele>145.8</ele>
        <time>2022-09-11T11:02:42Z</time>
      </trkpt>
      <trkpt lat="46.50024" lon="0.37062">
        <ele>146.4</ele>
        <time>2022-09-11T11:02:49Z</time>
      </trkpt>
      <trkpt lat="46.50022" lon="0.37062">
        <ele>146.4</ele>
        <time>2022-09-11T11:02:50Z</time>
      </trkpt>
      <trkpt lat="46.50015" lon="0.37059">
        <ele>146.4</ele>
        <time>2022-09-11T11:02:53Z</time>
      </trkpt>
      <trkpt lat="46.50002" lon="0.37051">
        <ele>146.2</ele>
        <time>2022-09-11T11:02:58Z</time>
      </trkpt>
      <trkpt lat="46.49999" lon="0.37051">
        <ele>146.2</ele>
        <time>2022-09-11T11:02:59Z</time>
      </trkpt>
      <trkpt lat="46.49992" lon="0.37053">
        <ele>146.4</ele>
        <time>2022-09-11T11:03:03Z</time>
      </trkpt>
      <trkpt lat="46.49983" lon="0.37056">
        <ele>146.6</ele>
        <time>2022-09-11T11:03:08Z</time>
      </trkpt>
      <trkpt lat="46.4998" lon="0.37056">
        <ele>146.8</ele>
        <time>2022-09-11T11:03:09Z</time>
      </trkpt>
      <trkpt lat="46.49966" lon="0.37064">
        <ele>147.2</ele>
        <time>2022-09-11T11:03:15Z</time>
      </trkpt>
      <trkpt lat="46.49965" lon="0.37064">
        <ele>147.2</ele>
        <time>2022-09-11T11:03:16Z</time>
      </trkpt>
      <trkpt lat="46.49962" lon="0.37063">
        <ele>147.4</ele>
        <time>2022-09-11T11:03:18Z</time>
      </trkpt>
      <trkpt lat="46.4996" lon="0.37064">
        <ele>147.4</ele>
        <time>2022-09-11T11:03:19Z</time>
      </trkpt>
      <trkpt lat="46.49954" lon="0.37071">
        <ele>146.8</ele>
        <time>2022-09-11T11:03:23Z</time>
      </trkpt>
      <trkpt lat="46.49942" lon="0.37087">
        <ele>147.2</ele>
        <time>2022-09-11T11:03:29Z</time>
      </trkpt>
      <trkpt lat="46.49931" lon="0.37095">
        <ele>147.4</ele>
        <time>2022-09-11T11:03:33Z</time>
      </trkpt>
      <trkpt lat="46.4992" lon="0.37106">
        <ele>147.4</ele>
        <time>2022-09-11T11:03:38Z</time>
      </trkpt>
      <trkpt lat="46.49913" lon="0.37117">
        <ele>147.6</ele>
        <time>2022-09-11T11:03:42Z</time>
      </trkpt>
      <trkpt lat="46.49913" lon="0.3712">
        <ele>147.8</ele>
        <time>2022-09-11T11:03:43Z</time>
      </trkpt>
      <trkpt lat="46.49911" lon="0.37123">
        <ele>148</ele>
        <time>2022-09-11T11:03:44Z</time>
      </trkpt>
      <trkpt lat="46.49904" lon="0.37133">
        <ele>148.2</ele>
        <time>2022-09-11T11:03:47Z</time>
      </trkpt>
      <trkpt lat="46.49891" lon="0.37154">
        <ele>148.6</ele>
        <time>2022-09-11T11:03:52Z</time>
      </trkpt>
      <trkpt lat="46.49886" lon="0.37163">
        <ele>148.4</ele>
        <time>2022-09-11T11:03:54Z</time>
      </trkpt>
      <trkpt lat="46.49879" lon="0.3717">
        <ele>148.2</ele>
        <time>2022-09-11T11:03:56Z</time>
      </trkpt>
      <trkpt lat="46.49876" lon="0.37173">
        <ele>148</ele>
        <time>2022-09-11T11:03:57Z</time>
      </trkpt>
      <trkpt lat="46.49871" lon="0.37182">
        <ele>148</ele>
        <time>2022-09-11T11:04:00Z</time>
      </trkpt>
      <trkpt lat="46.49871" lon="0.37185">
        <ele>148.2</ele>
        <time>2022-09-11T11:04:01Z</time>
      </trkpt>
      <trkpt lat="46.49878" lon="0.37201">
        <ele>148.4</ele>
        <time>2022-09-11T11:04:05Z</time>
      </trkpt>
      <trkpt lat="46.49885" lon="0.37218">
        <ele>148.4</ele>
        <time>2022-09-11T11:04:09Z</time>
      </trkpt>
      <trkpt lat="46.49889" lon="0.37224">
        <ele>148.2</ele>
        <time>2022-09-11T11:04:11Z</time>
      </trkpt>
      <trkpt lat="46.49893" lon="0.3723">
        <ele>148.4</ele>
        <time>2022-09-11T11:04:13Z</time>
      </trkpt>
      <trkpt lat="46.49898" lon="0.37238">
        <ele>148.4</ele>
        <time>2022-09-11T11:04:15Z</time>
      </trkpt>
      <trkpt lat="46.49902" lon="0.37246">
        <ele>148.4</ele>
        <time>2022-09-11T11:04:17Z</time>
      </trkpt>
      <trkpt lat="46.49901" lon="0.37257">
        <ele>148.4</ele>
        <time>2022-09-11T11:04:20Z</time>
      </trkpt>
      <trkpt lat="46.49892" lon="0.37278">
        <ele>148.6</ele>
        <time>2022-09-11T11:04:26Z</time>
      </trkpt>
      <trkpt lat="46.49872" lon="0.37303">
        <ele>148.8</ele>
        <time>2022-09-11T11:04:33Z</time>
      </trkpt>
      <trkpt lat="46.49857" lon="0.37322">
        <ele>148.8</ele>
        <time>2022-09-11T11:04:39Z</time>
      </trkpt>
      <trkpt lat="46.49851" lon="0.37328">
        <ele>148.8</ele>
        <time>2022-09-11T11:04:41Z</time>
      </trkpt>
      <trkpt lat="46.49845" lon="0.3733">
        <ele>149.2</ele>
        <time>2022-09-11T11:04:43Z</time>
      </trkpt>
      <trkpt lat="46.49828" lon="0.37323">
        <ele>149.4</ele>
        <time>2022-09-11T11:04:48Z</time>
      </trkpt>
      <trkpt lat="46.49824" lon="0.37323">
        <ele>149.4</ele>
        <time>2022-09-11T11:04:49Z</time>
      </trkpt>
      <trkpt lat="46.49819" lon="0.37318">
        <ele>149.2</ele>
        <time>2022-09-11T11:04:51Z</time>
      </trkpt>
      <trkpt lat="46.49817" lon="0.37315">
        <ele>149.2</ele>
        <time>2022-09-11T11:04:52Z</time>
      </trkpt>
      <trkpt lat="46.49812" lon="0.37309">
        <ele>149.4</ele>
        <time>2022-09-11T11:04:54Z</time>
      </trkpt>
      <trkpt lat="46.49806" lon="0.3731">
        <ele>149.2</ele>
        <time>2022-09-11T11:04:56Z</time>
      </trkpt>
      <trkpt lat="46.49783" lon="0.37321">
        <ele>149.2</ele>
        <time>2022-09-11T11:05:01Z</time>
      </trkpt>
      <trkpt lat="46.49775" lon="0.37326">
        <ele>149.8</ele>
        <time>2022-09-11T11:05:03Z</time>
      </trkpt>
      <trkpt lat="46.49772" lon="0.37329">
        <ele>150</ele>
        <time>2022-09-11T11:05:04Z</time>
      </trkpt>
      <trkpt lat="46.4977" lon="0.37333">
        <ele>150</ele>
        <time>2022-09-11T11:05:05Z</time>
      </trkpt>
      <trkpt lat="46.49763" lon="0.37352">
        <ele>149.8</ele>
        <time>2022-09-11T11:05:10Z</time>
      </trkpt>
      <trkpt lat="46.49761" lon="0.3737">
        <ele>149.6</ele>
        <time>2022-09-11T11:05:13Z</time>
      </trkpt>
      <trkpt lat="46.49759" lon="0.3738">
        <ele>149.2</ele>
        <time>2022-09-11T11:05:15Z</time>
      </trkpt>
      <trkpt lat="46.49757" lon="0.37389">
        <ele>149</ele>
        <time>2022-09-11T11:05:17Z</time>
      </trkpt>
      <trkpt lat="46.49756" lon="0.37394">
        <ele>149</ele>
        <time>2022-09-11T11:05:18Z</time>
      </trkpt>
      <trkpt lat="46.49754" lon="0.37403">
        <ele>149.2</ele>
        <time>2022-09-11T11:05:20Z</time>
      </trkpt>
      <trkpt lat="46.49751" lon="0.37414">
        <ele>149.4</ele>
        <time>2022-09-11T11:05:22Z</time>
      </trkpt>
      <trkpt lat="46.49736" lon="0.37443">
        <ele>149.8</ele>
        <time>2022-09-11T11:05:28Z</time>
      </trkpt>
      <trkpt lat="46.49722" lon="0.37465">
        <ele>149.8</ele>
        <time>2022-09-11T11:05:33Z</time>
      </trkpt>
      <trkpt lat="46.49718" lon="0.37472">
        <ele>149.8</ele>
        <time>2022-09-11T11:05:35Z</time>
      </trkpt>
      <trkpt lat="46.49714" lon="0.3748">
        <ele>150</ele>
        <time>2022-09-11T11:05:37Z</time>
      </trkpt>
      <trkpt lat="46.4971" lon="0.37495">
        <ele>149.8</ele>
        <time>2022-09-11T11:05:40Z</time>
      </trkpt>
      <trkpt lat="46.49704" lon="0.37529">
        <ele>150</ele>
        <time>2022-09-11T11:05:46Z</time>
      </trkpt>
      <trkpt lat="46.49699" lon="0.37548">
        <ele>149.6</ele>
        <time>2022-09-11T11:05:49Z</time>
      </trkpt>
      <trkpt lat="46.49693" lon="0.37559">
        <ele>149.4</ele>
        <time>2022-09-11T11:05:51Z</time>
      </trkpt>
      <trkpt lat="46.49688" lon="0.3757">
        <ele>149.4</ele>
        <time>2022-09-11T11:05:53Z</time>
      </trkpt>
      <trkpt lat="46.49689" lon="0.37581">
        <ele>149.4</ele>
        <time>2022-09-11T11:05:55Z</time>
      </trkpt>
      <trkpt lat="46.49696" lon="0.37604">
        <ele>149.4</ele>
        <time>2022-09-11T11:06:00Z</time>
      </trkpt>
      <trkpt lat="46.49699" lon="0.37609">
        <ele>149.4</ele>
        <time>2022-09-11T11:06:01Z</time>
      </trkpt>
      <trkpt lat="46.49718" lon="0.3763">
        <ele>149.6</ele>
        <time>2022-09-11T11:06:07Z</time>
      </trkpt>
      <trkpt lat="46.49727" lon="0.37642">
        <ele>149.8</ele>
        <time>2022-09-11T11:06:10Z</time>
      </trkpt>
      <trkpt lat="46.49734" lon="0.37648">
        <ele>149.8</ele>
        <time>2022-09-11T11:06:12Z</time>
      </trkpt>
      <trkpt lat="46.49757" lon="0.3766">
        <ele>149.8</ele>
        <time>2022-09-11T11:06:18Z</time>
      </trkpt>
      <trkpt lat="46.49762" lon="0.37662">
        <ele>149.8</ele>
        <time>2022-09-11T11:06:19Z</time>
      </trkpt>
      <trkpt lat="46.49767" lon="0.37665">
        <ele>149.8</ele>
        <time>2022-09-11T11:06:20Z</time>
      </trkpt>
      <trkpt lat="46.49775" lon="0.37672">
        <ele>149.8</ele>
        <time>2022-09-11T11:06:22Z</time>
      </trkpt>
      <trkpt lat="46.49778" lon="0.37676">
        <ele>149.8</ele>
        <time>2022-09-11T11:06:23Z</time>
      </trkpt>
      <trkpt lat="46.49786" lon="0.37684">
        <ele>149.8</ele>
        <time>2022-09-11T11:06:25Z</time>
      </trkpt>
      <trkpt lat="46.49793" lon="0.37694">
        <ele>149.6</ele>
        <time>2022-09-11T11:06:27Z</time>
      </trkpt>
      <trkpt lat="46.49798" lon="0.37698">
        <ele>149.8</ele>
        <time>2022-09-11T11:06:28Z</time>
      </trkpt>
      <trkpt lat="46.49809" lon="0.37708">
        <ele>149.8</ele>
        <time>2022-09-11T11:06:31Z</time>
      </trkpt>
      <trkpt lat="46.49812" lon="0.37709">
        <ele>149.8</ele>
        <time>2022-09-11T11:06:32Z</time>
      </trkpt>
      <trkpt lat="46.49816" lon="0.37708">
        <ele>149.8</ele>
        <time>2022-09-11T11:06:33Z</time>
      </trkpt>
      <trkpt lat="46.49828" lon="0.37697">
        <ele>149.6</ele>
        <time>2022-09-11T11:06:37Z</time>
      </trkpt>
      <trkpt lat="46.49843" lon="0.37681">
        <ele>149.4</ele>
        <time>2022-09-11T11:06:41Z</time>
      </trkpt>
      <trkpt lat="46.49847" lon="0.37676">
        <ele>149.4</ele>
        <time>2022-09-11T11:06:42Z</time>
      </trkpt>
      <trkpt lat="46.49871" lon="0.37645">
        <ele>149.6</ele>
        <time>2022-09-11T11:06:48Z</time>
      </trkpt>
      <trkpt lat="46.49905" lon="0.37595">
        <ele>149.4</ele>
        <time>2022-09-11T11:06:57Z</time>
      </trkpt>
      <trkpt lat="46.49938" lon="0.37547">
        <ele>149.8</ele>
        <time>2022-09-11T11:07:06Z</time>
      </trkpt>
      <trkpt lat="46.49967" lon="0.37503">
        <ele>149.4</ele>
        <time>2022-09-11T11:07:14Z</time>
      </trkpt>
      <trkpt lat="46.49991" lon="0.37464">
        <ele>149</ele>
        <time>2022-09-11T11:07:21Z</time>
      </trkpt>
      <trkpt lat="46.49994" lon="0.37459">
        <ele>149</ele>
        <time>2022-09-11T11:07:22Z</time>
      </trkpt>
      <trkpt lat="46.50012" lon="0.37424">
        <ele>148.8</ele>
        <time>2022-09-11T11:07:28Z</time>
      </trkpt>
      <trkpt lat="46.50031" lon="0.37392">
        <ele>147.8</ele>
        <time>2022-09-11T11:07:33Z</time>
      </trkpt>
      <trkpt lat="46.50054" lon="0.37349">
        <ele>147.6</ele>
        <time>2022-09-11T11:07:40Z</time>
      </trkpt>
      <trkpt lat="46.50072" lon="0.37315">
        <ele>147</ele>
        <time>2022-09-11T11:07:46Z</time>
      </trkpt>
      <trkpt lat="46.50075" lon="0.37309">
        <ele>147</ele>
        <time>2022-09-11T11:07:47Z</time>
      </trkpt>
      <trkpt lat="46.50078" lon="0.37302">
        <ele>146.8</ele>
        <time>2022-09-11T11:07:48Z</time>
      </trkpt>
      <trkpt lat="46.50093" lon="0.37274">
        <ele>146.6</ele>
        <time>2022-09-11T11:07:52Z</time>
      </trkpt>
      <trkpt lat="46.50105" lon="0.37255">
        <ele>146.4</ele>
        <time>2022-09-11T11:07:55Z</time>
      </trkpt>
      <trkpt lat="46.50115" lon="0.37247">
        <ele>146</ele>
        <time>2022-09-11T11:07:57Z</time>
      </trkpt>
      <trkpt lat="46.50122" lon="0.3725">
        <ele>146</ele>
        <time>2022-09-11T11:07:59Z</time>
      </trkpt>
      <trkpt lat="46.50126" lon="0.37253">
        <ele>146.2</ele>
        <time>2022-09-11T11:08:00Z</time>
      </trkpt>
      <trkpt lat="46.50157" lon="0.37276">
        <ele>146.4</ele>
        <time>2022-09-11T11:08:07Z</time>
      </trkpt>
      <trkpt lat="46.50191" lon="0.37306">
        <ele>145.4</ele>
        <time>2022-09-11T11:08:14Z</time>
      </trkpt>
      <trkpt lat="46.50217" lon="0.37329">
        <ele>145</ele>
        <time>2022-09-11T11:08:20Z</time>
      </trkpt>
      <trkpt lat="46.50247" lon="0.37358">
        <ele>145</ele>
        <time>2022-09-11T11:08:26Z</time>
      </trkpt>
      <trkpt lat="46.50263" lon="0.37372">
        <ele>144.2</ele>
        <time>2022-09-11T11:08:29Z</time>
      </trkpt>
      <trkpt lat="46.50273" lon="0.37384">
        <ele>144.2</ele>
        <time>2022-09-11T11:08:31Z</time>
      </trkpt>
      <trkpt lat="46.50298" lon="0.37423">
        <ele>143.6</ele>
        <time>2022-09-11T11:08:37Z</time>
      </trkpt>
      <trkpt lat="46.50317" lon="0.37456">
        <ele>143.2</ele>
        <time>2022-09-11T11:08:42Z</time>
      </trkpt>
      <trkpt lat="46.50335" lon="0.37481">
        <ele>142.4</ele>
        <time>2022-09-11T11:08:46Z</time>
      </trkpt>
      <trkpt lat="46.50339" lon="0.37487">
        <ele>142</ele>
        <time>2022-09-11T11:08:47Z</time>
      </trkpt>
      <trkpt lat="46.50352" lon="0.37504">
        <ele>141</ele>
        <time>2022-09-11T11:08:50Z</time>
      </trkpt>
      <trkpt lat="46.5036" lon="0.37514">
        <ele>140.8</ele>
        <time>2022-09-11T11:08:52Z</time>
      </trkpt>
      <trkpt lat="46.50375" lon="0.37532">
        <ele>140.6</ele>
        <time>2022-09-11T11:08:56Z</time>
      </trkpt>
      <trkpt lat="46.50381" lon="0.3754">
        <ele>139.8</ele>
        <time>2022-09-11T11:08:58Z</time>
      </trkpt>
      <trkpt lat="46.50387" lon="0.37539">
        <ele>139.4</ele>
        <time>2022-09-11T11:09:01Z</time>
      </trkpt>
      <trkpt lat="46.50399" lon="0.37528">
        <ele>140</ele>
        <time>2022-09-11T11:09:08Z</time>
      </trkpt>
      <trkpt lat="46.50403" lon="0.37518">
        <ele>141</ele>
        <time>2022-09-11T11:09:12Z</time>
      </trkpt>
      <trkpt lat="46.50404" lon="0.37515">
        <ele>141</ele>
        <time>2022-09-11T11:09:13Z</time>
      </trkpt>
      <trkpt lat="46.50409" lon="0.37503">
        <ele>142</ele>
        <time>2022-09-11T11:09:17Z</time>
      </trkpt>
      <trkpt lat="46.50412" lon="0.37497">
        <ele>142.4</ele>
        <time>2022-09-11T11:09:19Z</time>
      </trkpt>
      <trkpt lat="46.50419" lon="0.37488">
        <ele>143.2</ele>
        <time>2022-09-11T11:09:24Z</time>
      </trkpt>
      <trkpt lat="46.50421" lon="0.37486">
        <ele>143.2</ele>
        <time>2022-09-11T11:09:25Z</time>
      </trkpt>
      <trkpt lat="46.50432" lon="0.37469">
        <ele>143.8</ele>
        <time>2022-09-11T11:09:30Z</time>
      </trkpt>
      <trkpt lat="46.50437" lon="0.37465">
        <ele>144</ele>
        <time>2022-09-11T11:09:32Z</time>
      </trkpt>
      <trkpt lat="46.50442" lon="0.37463">
        <ele>144.2</ele>
        <time>2022-09-11T11:09:34Z</time>
      </trkpt>
      <trkpt lat="46.50459" lon="0.37462">
        <ele>144.6</ele>
        <time>2022-09-11T11:09:39Z</time>
      </trkpt>
      <trkpt lat="46.5047" lon="0.37458">
        <ele>144.6</ele>
        <time>2022-09-11T11:09:42Z</time>
      </trkpt>
      <trkpt lat="46.50476" lon="0.3745">
        <ele>144.8</ele>
        <time>2022-09-11T11:09:44Z</time>
      </trkpt>
      <trkpt lat="46.50488" lon="0.37427">
        <ele>144.8</ele>
        <time>2022-09-11T11:09:49Z</time>
      </trkpt>
      <trkpt lat="46.50494" lon="0.374">
        <ele>144.6</ele>
        <time>2022-09-11T11:09:55Z</time>
      </trkpt>
      <trkpt lat="46.50491" lon="0.37388">
        <ele>144.8</ele>
        <time>2022-09-11T11:09:58Z</time>
      </trkpt>
      <trkpt lat="46.50493" lon="0.37381">
        <ele>145.2</ele>
        <time>2022-09-11T11:10:00Z</time>
      </trkpt>
      <trkpt lat="46.50495" lon="0.37377">
        <ele>145.2</ele>
        <time>2022-09-11T11:10:01Z</time>
      </trkpt>
      <trkpt lat="46.50511" lon="0.37356">
        <ele>145.2</ele>
        <time>2022-09-11T11:10:07Z</time>
      </trkpt>
      <trkpt lat="46.5053" lon="0.37333">
        <ele>144.6</ele>
        <time>2022-09-11T11:10:13Z</time>
      </trkpt>
      <trkpt lat="46.50534" lon="0.3733">
        <ele>144.2</ele>
        <time>2022-09-11T11:10:14Z</time>
      </trkpt>
      <trkpt lat="46.5054" lon="0.37324">
        <ele>143.8</ele>
        <time>2022-09-11T11:10:16Z</time>
      </trkpt>
      <trkpt lat="46.50545" lon="0.37316">
        <ele>143.6</ele>
        <time>2022-09-11T11:10:18Z</time>
      </trkpt>
      <trkpt lat="46.50548" lon="0.37311">
        <ele>143</ele>
        <time>2022-09-11T11:10:19Z</time>
      </trkpt>
      <trkpt lat="46.50549" lon="0.37298">
        <ele>142.4</ele>
        <time>2022-09-11T11:10:21Z</time>
      </trkpt>
      <trkpt lat="46.50549" lon="0.37292">
        <ele>142.4</ele>
        <time>2022-09-11T11:10:22Z</time>
      </trkpt>
      <trkpt lat="46.50549" lon="0.37287">
        <ele>142.2</ele>
        <time>2022-09-11T11:10:23Z</time>
      </trkpt>
      <trkpt lat="46.5055" lon="0.37276">
        <ele>142.2</ele>
        <time>2022-09-11T11:10:25Z</time>
      </trkpt>
      <trkpt lat="46.50551" lon="0.37265">
        <ele>142.2</ele>
        <time>2022-09-11T11:10:27Z</time>
      </trkpt>
      <trkpt lat="46.50551" lon="0.3726">
        <ele>142</ele>
        <time>2022-09-11T11:10:28Z</time>
      </trkpt>
      <trkpt lat="46.50552" lon="0.37254">
        <ele>142</ele>
        <time>2022-09-11T11:10:29Z</time>
      </trkpt>
      <trkpt lat="46.50554" lon="0.37242">
        <ele>141.8</ele>
        <time>2022-09-11T11:10:31Z</time>
      </trkpt>
      <trkpt lat="46.50557" lon="0.37236">
        <ele>141.4</ele>
        <time>2022-09-11T11:10:32Z</time>
      </trkpt>
      <trkpt lat="46.50561" lon="0.37223">
        <ele>141</ele>
        <time>2022-09-11T11:10:34Z</time>
      </trkpt>
      <trkpt lat="46.50563" lon="0.37217">
        <ele>140.8</ele>
        <time>2022-09-11T11:10:35Z</time>
      </trkpt>
      <trkpt lat="46.50567" lon="0.37195">
        <ele>140</ele>
        <time>2022-09-11T11:10:38Z</time>
      </trkpt>
      <trkpt lat="46.50568" lon="0.37188">
        <ele>140</ele>
        <time>2022-09-11T11:10:39Z</time>
      </trkpt>
      <trkpt lat="46.50572" lon="0.3718">
        <ele>140.2</ele>
        <time>2022-09-11T11:10:41Z</time>
      </trkpt>
      <trkpt lat="46.50574" lon="0.37178">
        <ele>140.4</ele>
        <time>2022-09-11T11:10:42Z</time>
      </trkpt>
      <trkpt lat="46.50575" lon="0.37174">
        <ele>140.8</ele>
        <time>2022-09-11T11:10:43Z</time>
      </trkpt>
      <trkpt lat="46.50578" lon="0.37171">
        <ele>141.4</ele>
        <time>2022-09-11T11:10:44Z</time>
      </trkpt>
      <trkpt lat="46.50581" lon="0.37167">
        <ele>141.8</ele>
        <time>2022-09-11T11:10:45Z</time>
      </trkpt>
      <trkpt lat="46.50585" lon="0.3716">
        <ele>142.4</ele>
        <time>2022-09-11T11:10:47Z</time>
      </trkpt>
      <trkpt lat="46.50587" lon="0.37156">
        <ele>142.8</ele>
        <time>2022-09-11T11:10:48Z</time>
      </trkpt>
      <trkpt lat="46.50592" lon="0.37148">
        <ele>143.6</ele>
        <time>2022-09-11T11:10:50Z</time>
      </trkpt>
      <trkpt lat="46.50594" lon="0.37144">
        <ele>144</ele>
        <time>2022-09-11T11:10:51Z</time>
      </trkpt>
      <trkpt lat="46.50599" lon="0.37141">
        <ele>144.6</ele>
        <time>2022-09-11T11:10:53Z</time>
      </trkpt>
      <trkpt lat="46.50612" lon="0.37148">
        <ele>145</ele>
        <time>2022-09-11T11:10:58Z</time>
      </trkpt>
      <trkpt lat="46.50614" lon="0.3715">
        <ele>145</ele>
        <time>2022-09-11T11:10:59Z</time>
      </trkpt>
      <trkpt lat="46.50616" lon="0.37155">
        <ele>145</ele>
        <time>2022-09-11T11:11:01Z</time>
      </trkpt>
      <trkpt lat="46.50617" lon="0.37162">
        <ele>144.8</ele>
        <time>2022-09-11T11:11:03Z</time>
      </trkpt>
      <trkpt lat="46.50619" lon="0.37171">
        <ele>144.2</ele>
        <time>2022-09-11T11:11:05Z</time>
      </trkpt>
      <trkpt lat="46.50619" lon="0.37176">
        <ele>143.4</ele>
        <time>2022-09-11T11:11:06Z</time>
      </trkpt>
      <trkpt lat="46.50616" lon="0.37184">
        <ele>142</ele>
        <time>2022-09-11T11:11:08Z</time>
      </trkpt>
      <trkpt lat="46.50614" lon="0.37187">
        <ele>141.4</ele>
        <time>2022-09-11T11:11:09Z</time>
      </trkpt>
      <trkpt lat="46.50612" lon="0.3719">
        <ele>141</ele>
        <time>2022-09-11T11:11:10Z</time>
      </trkpt>
      <trkpt lat="46.50611" lon="0.37192">
        <ele>140.2</ele>
        <time>2022-09-11T11:11:11Z</time>
      </trkpt>
      <trkpt lat="46.50612" lon="0.37195">
        <ele>139.2</ele>
        <time>2022-09-11T11:11:12Z</time>
      </trkpt>
      <trkpt lat="46.50612" lon="0.37198">
        <ele>138.6</ele>
        <time>2022-09-11T11:11:13Z</time>
      </trkpt>
      <trkpt lat="46.50614" lon="0.37205">
        <ele>137.8</ele>
        <time>2022-09-11T11:11:15Z</time>
      </trkpt>
      <trkpt lat="46.50617" lon="0.37211">
        <ele>137.6</ele>
        <time>2022-09-11T11:11:17Z</time>
      </trkpt>
      <trkpt lat="46.5062" lon="0.37217">
        <ele>137.4</ele>
        <time>2022-09-11T11:11:19Z</time>
      </trkpt>
      <trkpt lat="46.50621" lon="0.37224">
        <ele>137.2</ele>
        <time>2022-09-11T11:11:21Z</time>
      </trkpt>
      <trkpt lat="46.50621" lon="0.37232">
        <ele>137.2</ele>
        <time>2022-09-11T11:11:23Z</time>
      </trkpt>
      <trkpt lat="46.50617" lon="0.37247">
        <ele>137.2</ele>
        <time>2022-09-11T11:11:26Z</time>
      </trkpt>
      <trkpt lat="46.50617" lon="0.3727">
        <ele>138.6</ele>
        <time>2022-09-11T11:11:30Z</time>
      </trkpt>
      <trkpt lat="46.5062" lon="0.37281">
        <ele>138.8</ele>
        <time>2022-09-11T11:11:32Z</time>
      </trkpt>
      <trkpt lat="46.50623" lon="0.37287">
        <ele>138.8</ele>
        <time>2022-09-11T11:11:33Z</time>
      </trkpt>
      <trkpt lat="46.50649" lon="0.37313">
        <ele>138</ele>
        <time>2022-09-11T11:11:38Z</time>
      </trkpt>
      <trkpt lat="46.5068" lon="0.37344">
        <ele>136.8</ele>
        <time>2022-09-11T11:11:43Z</time>
      </trkpt>
      <trkpt lat="46.50687" lon="0.3735">
        <ele>136.4</ele>
        <time>2022-09-11T11:11:44Z</time>
      </trkpt>
      <trkpt lat="46.50711" lon="0.37369">
        <ele>135.6</ele>
        <time>2022-09-11T11:11:48Z</time>
      </trkpt>
      <trkpt lat="46.50716" lon="0.37374">
        <ele>135.8</ele>
        <time>2022-09-11T11:11:49Z</time>
      </trkpt>
      <trkpt lat="46.50725" lon="0.3738">
        <ele>136.2</ele>
        <time>2022-09-11T11:11:51Z</time>
      </trkpt>
      <trkpt lat="46.50733" lon="0.37386">
        <ele>136.6</ele>
        <time>2022-09-11T11:11:53Z</time>
      </trkpt>
      <trkpt lat="46.50734" lon="0.37391">
        <ele>136.8</ele>
        <time>2022-09-11T11:11:54Z</time>
      </trkpt>
      <trkpt lat="46.50734" lon="0.37395">
        <ele>136.8</ele>
        <time>2022-09-11T11:11:55Z</time>
      </trkpt>
      <trkpt lat="46.50732" lon="0.37401">
        <ele>136.8</ele>
        <time>2022-09-11T11:11:56Z</time>
      </trkpt>
      <trkpt lat="46.50726" lon="0.37431">
        <ele>137</ele>
        <time>2022-09-11T11:12:00Z</time>
      </trkpt>
      <trkpt lat="46.5071" lon="0.37481">
        <ele>135</ele>
        <time>2022-09-11T11:12:06Z</time>
      </trkpt>
      <trkpt lat="46.50703" lon="0.37498">
        <ele>133.8</ele>
        <time>2022-09-11T11:12:09Z</time>
      </trkpt>
      <trkpt lat="46.507" lon="0.37507">
        <ele>133.8</ele>
        <time>2022-09-11T11:12:11Z</time>
      </trkpt>
      <trkpt lat="46.50693" lon="0.3753">
        <ele>134.8</ele>
        <time>2022-09-11T11:12:16Z</time>
      </trkpt>
      <trkpt lat="46.5069" lon="0.37538">
        <ele>135.4</ele>
        <time>2022-09-11T11:12:18Z</time>
      </trkpt>
      <trkpt lat="46.50688" lon="0.37542">
        <ele>135.6</ele>
        <time>2022-09-11T11:12:19Z</time>
      </trkpt>
      <trkpt lat="46.50688" lon="0.37542">
        <ele>136</ele>
        <time>2022-09-11T11:12:20Z</time>
      </trkpt>
      <trkpt lat="46.50675" lon="0.37575">
        <ele>137</ele>
        <time>2022-09-11T11:12:27Z</time>
      </trkpt>
      <trkpt lat="46.50665" lon="0.37608">
        <ele>136.8</ele>
        <time>2022-09-11T11:12:33Z</time>
      </trkpt>
      <trkpt lat="46.50662" lon="0.37615">
        <ele>136.4</ele>
        <time>2022-09-11T11:12:34Z</time>
      </trkpt>
      <trkpt lat="46.50657" lon="0.37629">
        <ele>135.8</ele>
        <time>2022-09-11T11:12:36Z</time>
      </trkpt>
      <trkpt lat="46.50649" lon="0.37654">
        <ele>135.2</ele>
        <time>2022-09-11T11:12:39Z</time>
      </trkpt>
      <trkpt lat="46.50645" lon="0.37661">
        <ele>134.6</ele>
        <time>2022-09-11T11:12:40Z</time>
      </trkpt>
      <trkpt lat="46.50644" lon="0.37667">
        <ele>133.6</ele>
        <time>2022-09-11T11:12:41Z</time>
      </trkpt>
      <trkpt lat="46.50644" lon="0.37672">
        <ele>132.8</ele>
        <time>2022-09-11T11:12:42Z</time>
      </trkpt>
      <trkpt lat="46.50645" lon="0.37679">
        <ele>132.2</ele>
        <time>2022-09-11T11:12:43Z</time>
      </trkpt>
      <trkpt lat="46.50649" lon="0.3769">
        <ele>131.6</ele>
        <time>2022-09-11T11:12:45Z</time>
      </trkpt>
      <trkpt lat="46.50651" lon="0.37696">
        <ele>131.4</ele>
        <time>2022-09-11T11:12:46Z</time>
      </trkpt>
      <trkpt lat="46.50659" lon="0.3771">
        <ele>131</ele>
        <time>2022-09-11T11:12:49Z</time>
      </trkpt>
      <trkpt lat="46.50666" lon="0.37717">
        <ele>130.8</ele>
        <time>2022-09-11T11:12:51Z</time>
      </trkpt>
      <trkpt lat="46.50679" lon="0.37732">
        <ele>130.8</ele>
        <time>2022-09-11T11:12:54Z</time>
      </trkpt>
      <trkpt lat="46.50684" lon="0.37735">
        <ele>130.4</ele>
        <time>2022-09-11T11:12:55Z</time>
      </trkpt>
      <trkpt lat="46.50689" lon="0.37738">
        <ele>130.2</ele>
        <time>2022-09-11T11:12:56Z</time>
      </trkpt>
      <trkpt lat="46.50716" lon="0.37749">
        <ele>129.2</ele>
        <time>2022-09-11T11:13:01Z</time>
      </trkpt>
      <trkpt lat="46.50722" lon="0.3775">
        <ele>129</ele>
        <time>2022-09-11T11:13:02Z</time>
      </trkpt>
      <trkpt lat="46.50727" lon="0.37751">
        <ele>128.8</ele>
        <time>2022-09-11T11:13:03Z</time>
      </trkpt>
      <trkpt lat="46.50737" lon="0.37748">
        <ele>128.8</ele>
        <time>2022-09-11T11:13:05Z</time>
      </trkpt>
      <trkpt lat="46.50741" lon="0.37744">
        <ele>128.8</ele>
        <time>2022-09-11T11:13:07Z</time>
      </trkpt>
      <trkpt lat="46.50744" lon="0.37742">
        <ele>128.8</ele>
        <time>2022-09-11T11:13:09Z</time>
      </trkpt>
      <trkpt lat="46.50753" lon="0.37728">
        <ele>130</ele>
        <time>2022-09-11T11:13:14Z</time>
      </trkpt>
      <trkpt lat="46.50755" lon="0.37724">
        <ele>130.2</ele>
        <time>2022-09-11T11:13:15Z</time>
      </trkpt>
      <trkpt lat="46.50757" lon="0.37719">
        <ele>130.4</ele>
        <time>2022-09-11T11:13:16Z</time>
      </trkpt>
      <trkpt lat="46.50762" lon="0.37708">
        <ele>130.8</ele>
        <time>2022-09-11T11:13:19Z</time>
      </trkpt>
      <trkpt lat="46.50765" lon="0.377">
        <ele>131</ele>
        <time>2022-09-11T11:13:21Z</time>
      </trkpt>
      <trkpt lat="46.50769" lon="0.37691">
        <ele>131.2</ele>
        <time>2022-09-11T11:13:23Z</time>
      </trkpt>
      <trkpt lat="46.50773" lon="0.3768">
        <ele>131.2</ele>
        <time>2022-09-11T11:13:25Z</time>
      </trkpt>
      <trkpt lat="46.50788" lon="0.37649">
        <ele>131</ele>
        <time>2022-09-11T11:13:29Z</time>
      </trkpt>
      <trkpt lat="46.50805" lon="0.37609">
        <ele>130.4</ele>
        <time>2022-09-11T11:13:34Z</time>
      </trkpt>
      <trkpt lat="46.50813" lon="0.37592">
        <ele>132</ele>
        <time>2022-09-11T11:13:37Z</time>
      </trkpt>
      <trkpt lat="46.50814" lon="0.37587">
        <ele>132.4</ele>
        <time>2022-09-11T11:13:38Z</time>
      </trkpt>
      <trkpt lat="46.50818" lon="0.37577">
        <ele>133.2</ele>
        <time>2022-09-11T11:13:41Z</time>
      </trkpt>
      <trkpt lat="46.5082" lon="0.37569">
        <ele>134</ele>
        <time>2022-09-11T11:13:44Z</time>
      </trkpt>
      <trkpt lat="46.50821" lon="0.37567">
        <ele>134.2</ele>
        <time>2022-09-11T11:13:45Z</time>
      </trkpt>
      <trkpt lat="46.50825" lon="0.37557">
        <ele>135.2</ele>
        <time>2022-09-11T11:13:49Z</time>
      </trkpt>
      <trkpt lat="46.50829" lon="0.3755">
        <ele>136</ele>
        <time>2022-09-11T11:13:52Z</time>
      </trkpt>
      <trkpt lat="46.5083" lon="0.37544">
        <ele>136.6</ele>
        <time>2022-09-11T11:13:54Z</time>
      </trkpt>
      <trkpt lat="46.50832" lon="0.37536">
        <ele>137.8</ele>
        <time>2022-09-11T11:13:57Z</time>
      </trkpt>
      <trkpt lat="46.50834" lon="0.3753">
        <ele>138.4</ele>
        <time>2022-09-11T11:13:59Z</time>
      </trkpt>
      <trkpt lat="46.50835" lon="0.37526">
        <ele>138.6</ele>
        <time>2022-09-11T11:14:00Z</time>
      </trkpt>
      <trkpt lat="46.50833" lon="0.37521">
        <ele>138.8</ele>
        <time>2022-09-11T11:14:02Z</time>
      </trkpt>
      <trkpt lat="46.50832" lon="0.37518">
        <ele>138.8</ele>
        <time>2022-09-11T11:14:03Z</time>
      </trkpt>
      <trkpt lat="46.5083" lon="0.37503">
        <ele>139</ele>
        <time>2022-09-11T11:14:08Z</time>
      </trkpt>
      <trkpt lat="46.50824" lon="0.37487">
        <ele>139.6</ele>
        <time>2022-09-11T11:14:13Z</time>
      </trkpt>
      <trkpt lat="46.50824" lon="0.37484">
        <ele>139.6</ele>
        <time>2022-09-11T11:14:14Z</time>
      </trkpt>
      <trkpt lat="46.50825" lon="0.37479">
        <ele>140</ele>
        <time>2022-09-11T11:14:16Z</time>
      </trkpt>
      <trkpt lat="46.50826" lon="0.37477">
        <ele>140</ele>
        <time>2022-09-11T11:14:17Z</time>
      </trkpt>
      <trkpt lat="46.50832" lon="0.37463">
        <ele>141</ele>
        <time>2022-09-11T11:14:23Z</time>
      </trkpt>
      <trkpt lat="46.50836" lon="0.37451">
        <ele>142.2</ele>
        <time>2022-09-11T11:14:28Z</time>
      </trkpt>
      <trkpt lat="46.50838" lon="0.37445">
        <ele>142.6</ele>
        <time>2022-09-11T11:14:31Z</time>
      </trkpt>
      <trkpt lat="46.50841" lon="0.37443">
        <ele>143.2</ele>
        <time>2022-09-11T11:14:34Z</time>
      </trkpt>
      <trkpt lat="46.50843" lon="0.37443">
        <ele>143.4</ele>
        <time>2022-09-11T11:14:35Z</time>
      </trkpt>
      <trkpt lat="46.50844" lon="0.37445">
        <ele>143.6</ele>
        <time>2022-09-11T11:14:36Z</time>
      </trkpt>
      <trkpt lat="46.50857" lon="0.37458">
        <ele>143</ele>
        <time>2022-09-11T11:14:42Z</time>
      </trkpt>
      <trkpt lat="46.50865" lon="0.37473">
        <ele>142.4</ele>
        <time>2022-09-11T11:14:46Z</time>
      </trkpt>
      <trkpt lat="46.50867" lon="0.37478">
        <ele>142.4</ele>
        <time>2022-09-11T11:14:47Z</time>
      </trkpt>
      <trkpt lat="46.50877" lon="0.37505">
        <ele>143</ele>
        <time>2022-09-11T11:14:52Z</time>
      </trkpt>
      <trkpt lat="46.50881" lon="0.37515">
        <ele>142.8</ele>
        <time>2022-09-11T11:14:54Z</time>
      </trkpt>
      <trkpt lat="46.50889" lon="0.37528">
        <ele>142.4</ele>
        <time>2022-09-11T11:14:57Z</time>
      </trkpt>
      <trkpt lat="46.50898" lon="0.37535">
        <ele>142.2</ele>
        <time>2022-09-11T11:15:00Z</time>
      </trkpt>
      <trkpt lat="46.50901" lon="0.37535">
        <ele>142.2</ele>
        <time>2022-09-11T11:15:01Z</time>
      </trkpt>
      <trkpt lat="46.50909" lon="0.37531">
        <ele>142.6</ele>
        <time>2022-09-11T11:15:04Z</time>
      </trkpt>
      <trkpt lat="46.50915" lon="0.37527">
        <ele>143.2</ele>
        <time>2022-09-11T11:15:07Z</time>
      </trkpt>
      <trkpt lat="46.5092" lon="0.37529">
        <ele>143.6</ele>
        <time>2022-09-11T11:15:09Z</time>
      </trkpt>
      <trkpt lat="46.50937" lon="0.37545">
        <ele>144.2</ele>
        <time>2022-09-11T11:15:15Z</time>
      </trkpt>
      <trkpt lat="46.50941" lon="0.37548">
        <ele>144.2</ele>
        <time>2022-09-11T11:15:16Z</time>
      </trkpt>
      <trkpt lat="46.50948" lon="0.37551">
        <ele>144.4</ele>
        <time>2022-09-11T11:15:18Z</time>
      </trkpt>
      <trkpt lat="46.50954" lon="0.37554">
        <ele>144.4</ele>
        <time>2022-09-11T11:15:20Z</time>
      </trkpt>
      <trkpt lat="46.50967" lon="0.37565">
        <ele>144.4</ele>
        <time>2022-09-11T11:15:25Z</time>
      </trkpt>
      <trkpt lat="46.50966" lon="0.37567">
        <ele>144.4</ele>
        <time>2022-09-11T11:15:26Z</time>
      </trkpt>
      <trkpt lat="46.50959" lon="0.37575">
        <ele>144.2</ele>
        <time>2022-09-11T11:15:30Z</time>
      </trkpt>
      <trkpt lat="46.50953" lon="0.3758">
        <ele>144</ele>
        <time>2022-09-11T11:15:32Z</time>
      </trkpt>
      <trkpt lat="46.50947" lon="0.37587">
        <ele>143.8</ele>
        <time>2022-09-11T11:15:34Z</time>
      </trkpt>
      <trkpt lat="46.50943" lon="0.3759">
        <ele>143.8</ele>
        <time>2022-09-11T11:15:35Z</time>
      </trkpt>
      <trkpt lat="46.50939" lon="0.37593">
        <ele>143.8</ele>
        <time>2022-09-11T11:15:36Z</time>
      </trkpt>
      <trkpt lat="46.50925" lon="0.37607">
        <ele>142.6</ele>
        <time>2022-09-11T11:15:40Z</time>
      </trkpt>
      <trkpt lat="46.50921" lon="0.37611">
        <ele>142.2</ele>
        <time>2022-09-11T11:15:41Z</time>
      </trkpt>
      <trkpt lat="46.50915" lon="0.37622">
        <ele>141.4</ele>
        <time>2022-09-11T11:15:43Z</time>
      </trkpt>
      <trkpt lat="46.50906" lon="0.37632">
        <ele>140.4</ele>
        <time>2022-09-11T11:15:45Z</time>
      </trkpt>
      <trkpt lat="46.50901" lon="0.37637">
        <ele>140</ele>
        <time>2022-09-11T11:15:46Z</time>
      </trkpt>
      <trkpt lat="46.50896" lon="0.37643">
        <ele>139.8</ele>
        <time>2022-09-11T11:15:47Z</time>
      </trkpt>
      <trkpt lat="46.50888" lon="0.37657">
        <ele>139.4</ele>
        <time>2022-09-11T11:15:49Z</time>
      </trkpt>
      <trkpt lat="46.50885" lon="0.37664">
        <ele>138.6</ele>
        <time>2022-09-11T11:15:50Z</time>
      </trkpt>
      <trkpt lat="46.50883" lon="0.37671">
        <ele>137.8</ele>
        <time>2022-09-11T11:15:51Z</time>
      </trkpt>
      <trkpt lat="46.5088" lon="0.37686">
        <ele>137</ele>
        <time>2022-09-11T11:15:53Z</time>
      </trkpt>
      <trkpt lat="46.50877" lon="0.37692">
        <ele>136.6</ele>
        <time>2022-09-11T11:15:54Z</time>
      </trkpt>
      <trkpt lat="46.50876" lon="0.37699">
        <ele>136.4</ele>
        <time>2022-09-11T11:15:55Z</time>
      </trkpt>
      <trkpt lat="46.50876" lon="0.37712">
        <ele>135</ele>
        <time>2022-09-11T11:15:57Z</time>
      </trkpt>
      <trkpt lat="46.50875" lon="0.37729">
        <ele>134.2</ele>
        <time>2022-09-11T11:15:59Z</time>
      </trkpt>
      <trkpt lat="46.50874" lon="0.37737">
        <ele>134</ele>
        <time>2022-09-11T11:16:00Z</time>
      </trkpt>
      <trkpt lat="46.5087" lon="0.37754">
        <ele>133.6</ele>
        <time>2022-09-11T11:16:02Z</time>
      </trkpt>
      <trkpt lat="46.50868" lon="0.37762">
        <ele>133.2</ele>
        <time>2022-09-11T11:16:03Z</time>
      </trkpt>
      <trkpt lat="46.50868" lon="0.37769">
        <ele>133</ele>
        <time>2022-09-11T11:16:04Z</time>
      </trkpt>
      <trkpt lat="46.50868" lon="0.37776">
        <ele>132.6</ele>
        <time>2022-09-11T11:16:05Z</time>
      </trkpt>
      <trkpt lat="46.50869" lon="0.37783">
        <ele>131.8</ele>
        <time>2022-09-11T11:16:06Z</time>
      </trkpt>
      <trkpt lat="46.50873" lon="0.37794">
        <ele>130.8</ele>
        <time>2022-09-11T11:16:08Z</time>
      </trkpt>
      <trkpt lat="46.50877" lon="0.3781">
        <ele>130.2</ele>
        <time>2022-09-11T11:16:10Z</time>
      </trkpt>
      <trkpt lat="46.5088" lon="0.37818">
        <ele>129.6</ele>
        <time>2022-09-11T11:16:11Z</time>
      </trkpt>
      <trkpt lat="46.50883" lon="0.37826">
        <ele>129.2</ele>
        <time>2022-09-11T11:16:12Z</time>
      </trkpt>
      <trkpt lat="46.50889" lon="0.37842">
        <ele>128.2</ele>
        <time>2022-09-11T11:16:14Z</time>
      </trkpt>
      <trkpt lat="46.50893" lon="0.37848">
        <ele>127.6</ele>
        <time>2022-09-11T11:16:15Z</time>
      </trkpt>
      <trkpt lat="46.509" lon="0.3786">
        <ele>127</ele>
        <time>2022-09-11T11:16:17Z</time>
      </trkpt>
      <trkpt lat="46.50911" lon="0.37879">
        <ele>125.8</ele>
        <time>2022-09-11T11:16:20Z</time>
      </trkpt>
      <trkpt lat="46.50913" lon="0.37885">
        <ele>125.4</ele>
        <time>2022-09-11T11:16:21Z</time>
      </trkpt>
      <trkpt lat="46.50915" lon="0.37897">
        <ele>124.8</ele>
        <time>2022-09-11T11:16:23Z</time>
      </trkpt>
      <trkpt lat="46.50915" lon="0.37901">
        <ele>124.4</ele>
        <time>2022-09-11T11:16:24Z</time>
      </trkpt>
      <trkpt lat="46.5091" lon="0.37913">
        <ele>124.2</ele>
        <time>2022-09-11T11:16:27Z</time>
      </trkpt>
      <trkpt lat="46.50907" lon="0.37915">
        <ele>124</ele>
        <time>2022-09-11T11:16:28Z</time>
      </trkpt>
      <trkpt lat="46.50903" lon="0.37916">
        <ele>124</ele>
        <time>2022-09-11T11:16:29Z</time>
      </trkpt>
      <trkpt lat="46.50892" lon="0.37912">
        <ele>124.2</ele>
        <time>2022-09-11T11:16:32Z</time>
      </trkpt>
      <trkpt lat="46.50872" lon="0.37888">
        <ele>125.2</ele>
        <time>2022-09-11T11:16:38Z</time>
      </trkpt>
      <trkpt lat="46.50853" lon="0.37858">
        <ele>125.6</ele>
        <time>2022-09-11T11:16:45Z</time>
      </trkpt>
      <trkpt lat="46.50847" lon="0.37849">
        <ele>125.8</ele>
        <time>2022-09-11T11:16:47Z</time>
      </trkpt>
      <trkpt lat="46.50845" lon="0.37844">
        <ele>125.8</ele>
        <time>2022-09-11T11:16:48Z</time>
      </trkpt>
      <trkpt lat="46.5084" lon="0.37835">
        <ele>125.8</ele>
        <time>2022-09-11T11:16:50Z</time>
      </trkpt>
      <trkpt lat="46.50825" lon="0.37805">
        <ele>125.8</ele>
        <time>2022-09-11T11:16:56Z</time>
      </trkpt>
      <trkpt lat="46.50816" lon="0.37794">
        <ele>126</ele>
        <time>2022-09-11T11:17:00Z</time>
      </trkpt>
      <trkpt lat="46.50802" lon="0.37801">
        <ele>125.8</ele>
        <time>2022-09-11T11:17:05Z</time>
      </trkpt>
      <trkpt lat="46.50793" lon="0.37805">
        <ele>126</ele>
        <time>2022-09-11T11:17:08Z</time>
      </trkpt>
      <trkpt lat="46.50786" lon="0.37807">
        <ele>126.2</ele>
        <time>2022-09-11T11:17:10Z</time>
      </trkpt>
      <trkpt lat="46.50783" lon="0.37808">
        <ele>127</ele>
        <time>2022-09-11T11:17:11Z</time>
      </trkpt>
      <trkpt lat="46.50776" lon="0.37811">
        <ele>128.2</ele>
        <time>2022-09-11T11:17:14Z</time>
      </trkpt>
      <trkpt lat="46.50769" lon="0.37811">
        <ele>128.6</ele>
        <time>2022-09-11T11:17:16Z</time>
      </trkpt>
      <trkpt lat="46.50757" lon="0.37811">
        <ele>129.2</ele>
        <time>2022-09-11T11:17:19Z</time>
      </trkpt>
      <trkpt lat="46.50745" lon="0.37811">
        <ele>130</ele>
        <time>2022-09-11T11:17:22Z</time>
      </trkpt>
      <trkpt lat="46.50732" lon="0.37803">
        <ele>130</ele>
        <time>2022-09-11T11:17:27Z</time>
      </trkpt>
      <trkpt lat="46.50719" lon="0.37794">
        <ele>129.6</ele>
        <time>2022-09-11T11:17:32Z</time>
      </trkpt>
      <trkpt lat="46.507" lon="0.37791">
        <ele>129.6</ele>
        <time>2022-09-11T11:17:37Z</time>
      </trkpt>
      <trkpt lat="46.50685" lon="0.37789">
        <ele>130</ele>
        <time>2022-09-11T11:17:41Z</time>
      </trkpt>
      <trkpt lat="46.50678" lon="0.37786">
        <ele>130</ele>
        <time>2022-09-11T11:17:43Z</time>
      </trkpt>
      <trkpt lat="46.50663" lon="0.37775">
        <ele>129.6</ele>
        <time>2022-09-11T11:17:47Z</time>
      </trkpt>
      <trkpt lat="46.50658" lon="0.37772">
        <ele>129.6</ele>
        <time>2022-09-11T11:17:48Z</time>
      </trkpt>
      <trkpt lat="46.50637" lon="0.3776">
        <ele>130.2</ele>
        <time>2022-09-11T11:17:53Z</time>
      </trkpt>
      <trkpt lat="46.50633" lon="0.37758">
        <ele>130.2</ele>
        <time>2022-09-11T11:17:54Z</time>
      </trkpt>
      <trkpt lat="46.50614" lon="0.3775">
        <ele>131.6</ele>
        <time>2022-09-11T11:17:59Z</time>
      </trkpt>
      <trkpt lat="46.5061" lon="0.37749">
        <ele>131.8</ele>
        <time>2022-09-11T11:18:00Z</time>
      </trkpt>
      <trkpt lat="46.50599" lon="0.37745">
        <ele>132.6</ele>
        <time>2022-09-11T11:18:03Z</time>
      </trkpt>
      <trkpt lat="46.50583" lon="0.37739">
        <ele>134</ele>
        <time>2022-09-11T11:18:08Z</time>
      </trkpt>
      <trkpt lat="46.5057" lon="0.3773">
        <ele>135</ele>
        <time>2022-09-11T11:18:13Z</time>
      </trkpt>
      <trkpt lat="46.50567" lon="0.37728">
        <ele>135.2</ele>
        <time>2022-09-11T11:18:14Z</time>
      </trkpt>
      <trkpt lat="46.50554" lon="0.37723">
        <ele>136.4</ele>
        <time>2022-09-11T11:18:19Z</time>
      </trkpt>
      <trkpt lat="46.50551" lon="0.37721">
        <ele>136.8</ele>
        <time>2022-09-11T11:18:20Z</time>
      </trkpt>
      <trkpt lat="46.50541" lon="0.37712">
        <ele>137.6</ele>
        <time>2022-09-11T11:18:25Z</time>
      </trkpt>
      <trkpt lat="46.50535" lon="0.37706">
        <ele>137.8</ele>
        <time>2022-09-11T11:18:27Z</time>
      </trkpt>
      <trkpt lat="46.50522" lon="0.37699">
        <ele>138.4</ele>
        <time>2022-09-11T11:18:32Z</time>
      </trkpt>
      <trkpt lat="46.50516" lon="0.37699">
        <ele>138.6</ele>
        <time>2022-09-11T11:18:34Z</time>
      </trkpt>
      <trkpt lat="46.50503" lon="0.377">
        <ele>139.8</ele>
        <time>2022-09-11T11:18:39Z</time>
      </trkpt>
      <trkpt lat="46.50494" lon="0.37706">
        <ele>140.4</ele>
        <time>2022-09-11T11:18:45Z</time>
      </trkpt>
      <trkpt lat="46.50492" lon="0.37712">
        <ele>141</ele>
        <time>2022-09-11T11:18:48Z</time>
      </trkpt>
      <trkpt lat="46.50492" lon="0.37718">
        <ele>141.6</ele>
        <time>2022-09-11T11:18:51Z</time>
      </trkpt>
      <trkpt lat="46.50492" lon="0.37723">
        <ele>142</ele>
        <time>2022-09-11T11:18:53Z</time>
      </trkpt>
      <trkpt lat="46.50489" lon="0.3774">
        <ele>142.6</ele>
        <time>2022-09-11T11:18:58Z</time>
      </trkpt>
      <trkpt lat="46.50484" lon="0.37757">
        <ele>143</ele>
        <time>2022-09-11T11:19:02Z</time>
      </trkpt>
      <trkpt lat="46.50482" lon="0.37765">
        <ele>143.4</ele>
        <time>2022-09-11T11:19:04Z</time>
      </trkpt>
      <trkpt lat="46.50482" lon="0.37788">
        <ele>144</ele>
        <time>2022-09-11T11:19:09Z</time>
      </trkpt>
      <trkpt lat="46.50483" lon="0.37793">
        <ele>144.2</ele>
        <time>2022-09-11T11:19:10Z</time>
      </trkpt>
      <trkpt lat="46.50483" lon="0.37799">
        <ele>144.2</ele>
        <time>2022-09-11T11:19:11Z</time>
      </trkpt>
      <trkpt lat="46.50486" lon="0.37822">
        <ele>143.8</ele>
        <time>2022-09-11T11:19:15Z</time>
      </trkpt>
      <trkpt lat="46.50488" lon="0.37828">
        <ele>143.6</ele>
        <time>2022-09-11T11:19:16Z</time>
      </trkpt>
      <trkpt lat="46.50493" lon="0.37845">
        <ele>143.4</ele>
        <time>2022-09-11T11:19:19Z</time>
      </trkpt>
      <trkpt lat="46.50494" lon="0.37853">
        <ele>143.4</ele>
        <time>2022-09-11T11:19:20Z</time>
      </trkpt>
      <trkpt lat="46.50495" lon="0.3786">
        <ele>143.6</ele>
        <time>2022-09-11T11:19:21Z</time>
      </trkpt>
      <trkpt lat="46.50498" lon="0.37885">
        <ele>144</ele>
        <time>2022-09-11T11:19:25Z</time>
      </trkpt>
      <trkpt lat="46.50503" lon="0.37925">
        <ele>144.8</ele>
        <time>2022-09-11T11:19:32Z</time>
      </trkpt>
      <trkpt lat="46.50505" lon="0.37943">
        <ele>145</ele>
        <time>2022-09-11T11:19:35Z</time>
      </trkpt>
      <trkpt lat="46.50506" lon="0.37948">
        <ele>145.2</ele>
        <time>2022-09-11T11:19:36Z</time>
      </trkpt>
      <trkpt lat="46.5051" lon="0.37962">
        <ele>145.2</ele>
        <time>2022-09-11T11:19:39Z</time>
      </trkpt>
      <trkpt lat="46.50511" lon="0.37967">
        <ele>145</ele>
        <time>2022-09-11T11:19:40Z</time>
      </trkpt>
      <trkpt lat="46.50514" lon="0.37981">
        <ele>145</ele>
        <time>2022-09-11T11:19:42Z</time>
      </trkpt>
      <trkpt lat="46.50516" lon="0.38002">
        <ele>145.2</ele>
        <time>2022-09-11T11:19:45Z</time>
      </trkpt>
      <trkpt lat="46.50517" lon="0.38008">
        <ele>145.2</ele>
        <time>2022-09-11T11:19:46Z</time>
      </trkpt>
      <trkpt lat="46.5052" lon="0.3802">
        <ele>145.4</ele>
        <time>2022-09-11T11:19:48Z</time>
      </trkpt>
      <trkpt lat="46.50521" lon="0.38031">
        <ele>145.4</ele>
        <time>2022-09-11T11:19:50Z</time>
      </trkpt>
      <trkpt lat="46.50522" lon="0.38037">
        <ele>145.4</ele>
        <time>2022-09-11T11:19:51Z</time>
      </trkpt>
      <trkpt lat="46.50522" lon="0.38042">
        <ele>145.4</ele>
        <time>2022-09-11T11:19:52Z</time>
      </trkpt>
      <trkpt lat="46.50518" lon="0.38051">
        <ele>145.4</ele>
        <time>2022-09-11T11:19:54Z</time>
      </trkpt>
      <trkpt lat="46.50513" lon="0.38061">
        <ele>145.4</ele>
        <time>2022-09-11T11:19:56Z</time>
      </trkpt>
      <trkpt lat="46.50508" lon="0.38081">
        <ele>145.4</ele>
        <time>2022-09-11T11:19:59Z</time>
      </trkpt>
      <trkpt lat="46.50506" lon="0.38087">
        <ele>145.2</ele>
        <time>2022-09-11T11:20:00Z</time>
      </trkpt>
      <trkpt lat="46.50499" lon="0.38104">
        <ele>145.2</ele>
        <time>2022-09-11T11:20:03Z</time>
      </trkpt>
      <trkpt lat="46.50496" lon="0.38109">
        <ele>145.2</ele>
        <time>2022-09-11T11:20:04Z</time>
      </trkpt>
      <trkpt lat="46.50471" lon="0.38154">
        <ele>145.2</ele>
        <time>2022-09-11T11:20:12Z</time>
      </trkpt>
      <trkpt lat="46.50456" lon="0.38181">
        <ele>145.2</ele>
        <time>2022-09-11T11:20:17Z</time>
      </trkpt>
      <trkpt lat="46.50446" lon="0.38197">
        <ele>145.2</ele>
        <time>2022-09-11T11:20:20Z</time>
      </trkpt>
      <trkpt lat="46.50433" lon="0.3822">
        <ele>145</ele>
        <time>2022-09-11T11:20:25Z</time>
      </trkpt>
      <trkpt lat="46.50432" lon="0.38224">
        <ele>145</ele>
        <time>2022-09-11T11:20:26Z</time>
      </trkpt>
      <trkpt lat="46.50431" lon="0.3823">
        <ele>145</ele>
        <time>2022-09-11T11:20:27Z</time>
      </trkpt>
      <trkpt lat="46.50431" lon="0.38247">
        <ele>144.8</ele>
        <time>2022-09-11T11:20:30Z</time>
      </trkpt>
      <trkpt lat="46.50432" lon="0.38257">
        <ele>144.6</ele>
        <time>2022-09-11T11:20:32Z</time>
      </trkpt>
      <trkpt lat="46.50438" lon="0.3827">
        <ele>144.2</ele>
        <time>2022-09-11T11:20:35Z</time>
      </trkpt>
      <trkpt lat="46.5044" lon="0.38274">
        <ele>144</ele>
        <time>2022-09-11T11:20:36Z</time>
      </trkpt>
      <trkpt lat="46.50444" lon="0.38286">
        <ele>143.4</ele>
        <time>2022-09-11T11:20:39Z</time>
      </trkpt>
      <trkpt lat="46.50447" lon="0.38297">
        <ele>143.2</ele>
        <time>2022-09-11T11:20:41Z</time>
      </trkpt>
      <trkpt lat="46.50454" lon="0.38317">
        <ele>143.2</ele>
        <time>2022-09-11T11:20:45Z</time>
      </trkpt>
      <trkpt lat="46.50459" lon="0.38325">
        <ele>143.4</ele>
        <time>2022-09-11T11:20:47Z</time>
      </trkpt>
      <trkpt lat="46.50469" lon="0.38339">
        <ele>143.6</ele>
        <time>2022-09-11T11:20:50Z</time>
      </trkpt>
      <trkpt lat="46.50476" lon="0.38348">
        <ele>143.6</ele>
        <time>2022-09-11T11:20:52Z</time>
      </trkpt>
      <trkpt lat="46.50479" lon="0.38352">
        <ele>143.4</ele>
        <time>2022-09-11T11:20:53Z</time>
      </trkpt>
      <trkpt lat="46.50481" lon="0.38357">
        <ele>143.4</ele>
        <time>2022-09-11T11:20:54Z</time>
      </trkpt>
      <trkpt lat="46.50486" lon="0.38374">
        <ele>143.2</ele>
        <time>2022-09-11T11:20:57Z</time>
      </trkpt>
      <trkpt lat="46.50491" lon="0.38386">
        <ele>143.2</ele>
        <time>2022-09-11T11:20:59Z</time>
      </trkpt>
      <trkpt lat="46.50497" lon="0.38398">
        <ele>143</ele>
        <time>2022-09-11T11:21:01Z</time>
      </trkpt>
      <trkpt lat="46.50499" lon="0.38402">
        <ele>142.8</ele>
        <time>2022-09-11T11:21:02Z</time>
      </trkpt>
      <trkpt lat="46.50508" lon="0.38417">
        <ele>141.8</ele>
        <time>2022-09-11T11:21:07Z</time>
      </trkpt>
      <trkpt lat="46.50509" lon="0.3842">
        <ele>141.8</ele>
        <time>2022-09-11T11:21:08Z</time>
      </trkpt>
      <trkpt lat="46.50512" lon="0.38424">
        <ele>141.8</ele>
        <time>2022-09-11T11:21:09Z</time>
      </trkpt>
      <trkpt lat="46.5052" lon="0.38433">
        <ele>142</ele>
        <time>2022-09-11T11:21:13Z</time>
      </trkpt>
      <trkpt lat="46.50523" lon="0.38439">
        <ele>142.4</ele>
        <time>2022-09-11T11:21:15Z</time>
      </trkpt>
      <trkpt lat="46.50531" lon="0.38456">
        <ele>142.4</ele>
        <time>2022-09-11T11:21:18Z</time>
      </trkpt>
      <trkpt lat="46.50533" lon="0.38459">
        <ele>142.4</ele>
        <time>2022-09-11T11:21:19Z</time>
      </trkpt>
      <trkpt lat="46.50541" lon="0.38466">
        <ele>142.4</ele>
        <time>2022-09-11T11:21:21Z</time>
      </trkpt>
      <trkpt lat="46.50545" lon="0.38468">
        <ele>142.4</ele>
        <time>2022-09-11T11:21:22Z</time>
      </trkpt>
      <trkpt lat="46.50548" lon="0.38467">
        <ele>142.4</ele>
        <time>2022-09-11T11:21:23Z</time>
      </trkpt>
      <trkpt lat="46.50553" lon="0.38464">
        <ele>142.4</ele>
        <time>2022-09-11T11:21:25Z</time>
      </trkpt>
      <trkpt lat="46.50556" lon="0.38462">
        <ele>142.4</ele>
        <time>2022-09-11T11:21:26Z</time>
      </trkpt>
      <trkpt lat="46.50558" lon="0.38459">
        <ele>142.4</ele>
        <time>2022-09-11T11:21:27Z</time>
      </trkpt>
      <trkpt lat="46.50567" lon="0.38444">
        <ele>142.2</ele>
        <time>2022-09-11T11:21:31Z</time>
      </trkpt>
      <trkpt lat="46.50569" lon="0.3844">
        <ele>141.8</ele>
        <time>2022-09-11T11:21:32Z</time>
      </trkpt>
      <trkpt lat="46.5058" lon="0.38427">
        <ele>140.6</ele>
        <time>2022-09-11T11:21:35Z</time>
      </trkpt>
      <trkpt lat="46.50588" lon="0.38413">
        <ele>139</ele>
        <time>2022-09-11T11:21:38Z</time>
      </trkpt>
      <trkpt lat="46.5059" lon="0.3841">
        <ele>138.4</ele>
        <time>2022-09-11T11:21:39Z</time>
      </trkpt>
      <trkpt lat="46.50593" lon="0.38407">
        <ele>138</ele>
        <time>2022-09-11T11:21:40Z</time>
      </trkpt>
      <trkpt lat="46.50597" lon="0.38404">
        <ele>137.6</ele>
        <time>2022-09-11T11:21:41Z</time>
      </trkpt>
      <trkpt lat="46.50605" lon="0.38401">
        <ele>137.2</ele>
        <time>2022-09-11T11:21:43Z</time>
      </trkpt>
      <trkpt lat="46.50608" lon="0.38399">
        <ele>136.8</ele>
        <time>2022-09-11T11:21:44Z</time>
      </trkpt>
      <trkpt lat="46.50612" lon="0.38397">
        <ele>136.6</ele>
        <time>2022-09-11T11:21:45Z</time>
      </trkpt>
      <trkpt lat="46.50623" lon="0.38387">
        <ele>136.2</ele>
        <time>2022-09-11T11:21:48Z</time>
      </trkpt>
      <trkpt lat="46.50631" lon="0.3838">
        <ele>136</ele>
        <time>2022-09-11T11:21:50Z</time>
      </trkpt>
      <trkpt lat="46.50635" lon="0.38377">
        <ele>136</ele>
        <time>2022-09-11T11:21:51Z</time>
      </trkpt>
      <trkpt lat="46.50642" lon="0.38374">
        <ele>136.2</ele>
        <time>2022-09-11T11:21:53Z</time>
      </trkpt>
      <trkpt lat="46.50651" lon="0.38369">
        <ele>136.4</ele>
        <time>2022-09-11T11:21:55Z</time>
      </trkpt>
      <trkpt lat="46.50672" lon="0.38358">
        <ele>137</ele>
        <time>2022-09-11T11:22:00Z</time>
      </trkpt>
      <trkpt lat="46.50676" lon="0.38357">
        <ele>137.4</ele>
        <time>2022-09-11T11:22:01Z</time>
      </trkpt>
      <trkpt lat="46.5068" lon="0.38357">
        <ele>137.8</ele>
        <time>2022-09-11T11:22:02Z</time>
      </trkpt>
      <trkpt lat="46.50689" lon="0.38355">
        <ele>138</ele>
        <time>2022-09-11T11:22:04Z</time>
      </trkpt>
      <trkpt lat="46.50697" lon="0.38356">
        <ele>138</ele>
        <time>2022-09-11T11:22:06Z</time>
      </trkpt>
      <trkpt lat="46.50704" lon="0.38361">
        <ele>138</ele>
        <time>2022-09-11T11:22:08Z</time>
      </trkpt>
      <trkpt lat="46.50708" lon="0.38363">
        <ele>137.6</ele>
        <time>2022-09-11T11:22:09Z</time>
      </trkpt>
      <trkpt lat="46.50719" lon="0.38374">
        <ele>137</ele>
        <time>2022-09-11T11:22:12Z</time>
      </trkpt>
      <trkpt lat="46.50724" lon="0.38378">
        <ele>136.6</ele>
        <time>2022-09-11T11:22:13Z</time>
      </trkpt>
      <trkpt lat="46.50728" lon="0.38383">
        <ele>136.4</ele>
        <time>2022-09-11T11:22:14Z</time>
      </trkpt>
      <trkpt lat="46.50738" lon="0.3839">
        <ele>135.8</ele>
        <time>2022-09-11T11:22:16Z</time>
      </trkpt>
      <trkpt lat="46.50744" lon="0.38392">
        <ele>135.4</ele>
        <time>2022-09-11T11:22:17Z</time>
      </trkpt>
      <trkpt lat="46.5075" lon="0.38394">
        <ele>135.2</ele>
        <time>2022-09-11T11:22:18Z</time>
      </trkpt>
      <trkpt lat="46.50756" lon="0.38397">
        <ele>135</ele>
        <time>2022-09-11T11:22:19Z</time>
      </trkpt>
      <trkpt lat="46.50769" lon="0.38397">
        <ele>135</ele>
        <time>2022-09-11T11:22:21Z</time>
      </trkpt>
      <trkpt lat="46.50774" lon="0.38397">
        <ele>135</ele>
        <time>2022-09-11T11:22:22Z</time>
      </trkpt>
      <trkpt lat="46.50779" lon="0.38397">
        <ele>135</ele>
        <time>2022-09-11T11:22:23Z</time>
      </trkpt>
      <trkpt lat="46.50789" lon="0.38399">
        <ele>135.2</ele>
        <time>2022-09-11T11:22:25Z</time>
      </trkpt>
      <trkpt lat="46.50796" lon="0.38399">
        <ele>135.2</ele>
        <time>2022-09-11T11:22:26Z</time>
      </trkpt>
      <trkpt lat="46.50801" lon="0.38397">
        <ele>135.2</ele>
        <time>2022-09-11T11:22:27Z</time>
      </trkpt>
      <trkpt lat="46.5081" lon="0.38394">
        <ele>135.4</ele>
        <time>2022-09-11T11:22:29Z</time>
      </trkpt>
      <trkpt lat="46.50814" lon="0.38395">
        <ele>135.4</ele>
        <time>2022-09-11T11:22:30Z</time>
      </trkpt>
      <trkpt lat="46.50817" lon="0.38396">
        <ele>135.4</ele>
        <time>2022-09-11T11:22:31Z</time>
      </trkpt>
      <trkpt lat="46.50824" lon="0.38401">
        <ele>135.4</ele>
        <time>2022-09-11T11:22:33Z</time>
      </trkpt>
      <trkpt lat="46.50826" lon="0.38404">
        <ele>135.4</ele>
        <time>2022-09-11T11:22:34Z</time>
      </trkpt>
      <trkpt lat="46.50828" lon="0.38406">
        <ele>135</ele>
        <time>2022-09-11T11:22:35Z</time>
      </trkpt>
      <trkpt lat="46.50833" lon="0.38407">
        <ele>134.4</ele>
        <time>2022-09-11T11:22:37Z</time>
      </trkpt>
      <trkpt lat="46.50834" lon="0.38407">
        <ele>134</ele>
        <time>2022-09-11T11:22:38Z</time>
      </trkpt>
      <trkpt lat="46.50845" lon="0.384">
        <ele>133.6</ele>
        <time>2022-09-11T11:22:44Z</time>
      </trkpt>
      <trkpt lat="46.50851" lon="0.38398">
        <ele>133.2</ele>
        <time>2022-09-11T11:22:46Z</time>
      </trkpt>
      <trkpt lat="46.50861" lon="0.38393">
        <ele>133</ele>
        <time>2022-09-11T11:22:50Z</time>
      </trkpt>
      <trkpt lat="46.50874" lon="0.38383">
        <ele>133.6</ele>
        <time>2022-09-11T11:22:56Z</time>
      </trkpt>
      <trkpt lat="46.5089" lon="0.38373">
        <ele>133.6</ele>
        <time>2022-09-11T11:23:01Z</time>
      </trkpt>
      <trkpt lat="46.5091" lon="0.38355">
        <ele>132.6</ele>
        <time>2022-09-11T11:23:08Z</time>
      </trkpt>
      <trkpt lat="46.50917" lon="0.38346">
        <ele>132.2</ele>
        <time>2022-09-11T11:23:10Z</time>
      </trkpt>
      <trkpt lat="46.50925" lon="0.38339">
        <ele>132</ele>
        <time>2022-09-11T11:23:12Z</time>
      </trkpt>
      <trkpt lat="46.50928" lon="0.38335">
        <ele>132</ele>
        <time>2022-09-11T11:23:13Z</time>
      </trkpt>
      <trkpt lat="46.50937" lon="0.38321">
        <ele>131.2</ele>
        <time>2022-09-11T11:23:17Z</time>
      </trkpt>
      <trkpt lat="46.50939" lon="0.38318">
        <ele>131.2</ele>
        <time>2022-09-11T11:23:18Z</time>
      </trkpt>
      <trkpt lat="46.50954" lon="0.38288">
        <ele>131.8</ele>
        <time>2022-09-11T11:23:24Z</time>
      </trkpt>
      <trkpt lat="46.50959" lon="0.38274">
        <ele>131.8</ele>
        <time>2022-09-11T11:23:27Z</time>
      </trkpt>
      <trkpt lat="46.50966" lon="0.38263">
        <ele>132</ele>
        <time>2022-09-11T11:23:30Z</time>
      </trkpt>
      <trkpt lat="46.50971" lon="0.38256">
        <ele>132.2</ele>
        <time>2022-09-11T11:23:32Z</time>
      </trkpt>
      <trkpt lat="46.50979" lon="0.38246">
        <ele>132.4</ele>
        <time>2022-09-11T11:23:35Z</time>
      </trkpt>
      <trkpt lat="46.50992" lon="0.38228">
        <ele>132.6</ele>
        <time>2022-09-11T11:23:40Z</time>
      </trkpt>
      <trkpt lat="46.51007" lon="0.38205">
        <ele>132.6</ele>
        <time>2022-09-11T11:23:47Z</time>
      </trkpt>
      <trkpt lat="46.51016" lon="0.3819">
        <ele>132.8</ele>
        <time>2022-09-11T11:23:51Z</time>
      </trkpt>
      <trkpt lat="46.51024" lon="0.38183">
        <ele>132.8</ele>
        <time>2022-09-11T11:23:53Z</time>
      </trkpt>
      <trkpt lat="46.51026" lon="0.3818">
        <ele>133</ele>
        <time>2022-09-11T11:23:54Z</time>
      </trkpt>
      <trkpt lat="46.5103" lon="0.38174">
        <ele>132.8</ele>
        <time>2022-09-11T11:23:57Z</time>
      </trkpt>
      <trkpt lat="46.51031" lon="0.38172">
        <ele>132.8</ele>
        <time>2022-09-11T11:23:58Z</time>
      </trkpt>
      <trkpt lat="46.51035" lon="0.38161">
        <ele>133</ele>
        <time>2022-09-11T11:24:01Z</time>
      </trkpt>
      <trkpt lat="46.51037" lon="0.38154">
        <ele>133.4</ele>
        <time>2022-09-11T11:24:03Z</time>
      </trkpt>
      <trkpt lat="46.51045" lon="0.38136">
        <ele>134.4</ele>
        <time>2022-09-11T11:24:08Z</time>
      </trkpt>
      <trkpt lat="46.51045" lon="0.38133">
        <ele>134.6</ele>
        <time>2022-09-11T11:24:09Z</time>
      </trkpt>
      <trkpt lat="46.51053" lon="0.38114">
        <ele>134</ele>
        <time>2022-09-11T11:24:14Z</time>
      </trkpt>
      <trkpt lat="46.5106" lon="0.38097">
        <ele>133.8</ele>
        <time>2022-09-11T11:24:18Z</time>
      </trkpt>
      <trkpt lat="46.51066" lon="0.38086">
        <ele>133.6</ele>
        <time>2022-09-11T11:24:20Z</time>
      </trkpt>
      <trkpt lat="46.51069" lon="0.38079">
        <ele>133.4</ele>
        <time>2022-09-11T11:24:21Z</time>
      </trkpt>
      <trkpt lat="46.51075" lon="0.38066">
        <ele>132.4</ele>
        <time>2022-09-11T11:24:23Z</time>
      </trkpt>
      <trkpt lat="46.51083" lon="0.38049">
        <ele>131</ele>
        <time>2022-09-11T11:24:26Z</time>
      </trkpt>
      <trkpt lat="46.51085" lon="0.38043">
        <ele>129.4</ele>
        <time>2022-09-11T11:24:27Z</time>
      </trkpt>
      <trkpt lat="46.51087" lon="0.38031">
        <ele>127.8</ele>
        <time>2022-09-11T11:24:29Z</time>
      </trkpt>
      <trkpt lat="46.51089" lon="0.38026">
        <ele>126.4</ele>
        <time>2022-09-11T11:24:30Z</time>
      </trkpt>
      <trkpt lat="46.51089" lon="0.38021">
        <ele>125.4</ele>
        <time>2022-09-11T11:24:31Z</time>
      </trkpt>
      <trkpt lat="46.51089" lon="0.38021">
        <ele>124</ele>
        <time>2022-09-11T11:24:32Z</time>
      </trkpt>
      <trkpt lat="46.51089" lon="0.38015">
        <ele>124</ele>
        <time>2022-09-11T11:24:33Z</time>
      </trkpt>
      <trkpt lat="46.51089" lon="0.38008">
        <ele>123</ele>
        <time>2022-09-11T11:24:35Z</time>
      </trkpt>
      <trkpt lat="46.5109" lon="0.38005">
        <ele>122.8</ele>
        <time>2022-09-11T11:24:36Z</time>
      </trkpt>
      <trkpt lat="46.51097" lon="0.38">
        <ele>121.6</ele>
        <time>2022-09-11T11:24:39Z</time>
      </trkpt>
      <trkpt lat="46.51101" lon="0.37999">
        <ele>121.4</ele>
        <time>2022-09-11T11:24:40Z</time>
      </trkpt>
      <trkpt lat="46.51127" lon="0.37994">
        <ele>120.4</ele>
        <time>2022-09-11T11:24:47Z</time>
      </trkpt>
      <trkpt lat="46.51135" lon="0.37995">
        <ele>120</ele>
        <time>2022-09-11T11:24:49Z</time>
      </trkpt>
      <trkpt lat="46.51147" lon="0.37997">
        <ele>119</ele>
        <time>2022-09-11T11:24:52Z</time>
      </trkpt>
      <trkpt lat="46.51156" lon="0.37999">
        <ele>118.2</ele>
        <time>2022-09-11T11:24:54Z</time>
      </trkpt>
      <trkpt lat="46.51161" lon="0.38002">
        <ele>117.8</ele>
        <time>2022-09-11T11:24:55Z</time>
      </trkpt>
      <trkpt lat="46.51177" lon="0.38012">
        <ele>116.6</ele>
        <time>2022-09-11T11:24:59Z</time>
      </trkpt>
      <trkpt lat="46.51181" lon="0.38014">
        <ele>116.4</ele>
        <time>2022-09-11T11:25:00Z</time>
      </trkpt>
      <trkpt lat="46.51184" lon="0.38018">
        <ele>116</ele>
        <time>2022-09-11T11:25:01Z</time>
      </trkpt>
      <trkpt lat="46.51189" lon="0.38021">
        <ele>115.6</ele>
        <time>2022-09-11T11:25:02Z</time>
      </trkpt>
      <trkpt lat="46.51199" lon="0.38029">
        <ele>114.6</ele>
        <time>2022-09-11T11:25:04Z</time>
      </trkpt>
      <trkpt lat="46.51205" lon="0.38034">
        <ele>114.4</ele>
        <time>2022-09-11T11:25:05Z</time>
      </trkpt>
      <trkpt lat="46.51218" lon="0.38043">
        <ele>113.6</ele>
        <time>2022-09-11T11:25:07Z</time>
      </trkpt>
      <trkpt lat="46.5123" lon="0.3805">
        <ele>112.8</ele>
        <time>2022-09-11T11:25:09Z</time>
      </trkpt>
      <trkpt lat="46.51236" lon="0.38053">
        <ele>112.2</ele>
        <time>2022-09-11T11:25:10Z</time>
      </trkpt>
      <trkpt lat="46.51248" lon="0.38057">
        <ele>111.2</ele>
        <time>2022-09-11T11:25:14Z</time>
      </trkpt>
      <trkpt lat="46.5125" lon="0.38057">
        <ele>111.2</ele>
        <time>2022-09-11T11:25:15Z</time>
      </trkpt>
      <trkpt lat="46.51256" lon="0.38058">
        <ele>111</ele>
        <time>2022-09-11T11:25:21Z</time>
      </trkpt>
      <trkpt lat="46.51266" lon="0.38064">
        <ele>111</ele>
        <time>2022-09-11T11:25:29Z</time>
      </trkpt>
      <trkpt lat="46.51269" lon="0.38065">
        <ele>110.8</ele>
        <time>2022-09-11T11:25:40Z</time>
      </trkpt>
      <trkpt lat="46.51275" lon="0.38068">
        <ele>111</ele>
        <time>2022-09-11T11:25:47Z</time>
      </trkpt>
      <trkpt lat="46.51279" lon="0.3807">
        <ele>111</ele>
        <time>2022-09-11T11:25:49Z</time>
      </trkpt>
      <trkpt lat="46.51296" lon="0.38077">
        <ele>111</ele>
        <time>2022-09-11T11:25:54Z</time>
      </trkpt>
      <trkpt lat="46.5132" lon="0.38086">
        <ele>111.2</ele>
        <time>2022-09-11T11:26:00Z</time>
      </trkpt>
      <trkpt lat="46.51348" lon="0.38093">
        <ele>111.2</ele>
        <time>2022-09-11T11:26:07Z</time>
      </trkpt>
      <trkpt lat="46.51369" lon="0.38099">
        <ele>111</ele>
        <time>2022-09-11T11:26:14Z</time>
      </trkpt>
      <trkpt lat="46.51369" lon="0.38102">
        <ele>111</ele>
        <time>2022-09-11T11:26:15Z</time>
      </trkpt>
      <trkpt lat="46.51372" lon="0.38109">
        <ele>110.8</ele>
        <time>2022-09-11T11:26:17Z</time>
      </trkpt>
      <trkpt lat="46.51381" lon="0.38128">
        <ele>110.2</ele>
        <time>2022-09-11T11:26:21Z</time>
      </trkpt>
      <trkpt lat="46.51395" lon="0.38139">
        <ele>109.6</ele>
        <time>2022-09-11T11:26:26Z</time>
      </trkpt>
      <trkpt lat="46.51403" lon="0.38146">
        <ele>110</ele>
        <time>2022-09-11T11:26:29Z</time>
      </trkpt>
      <trkpt lat="46.5141" lon="0.38152">
        <ele>110</ele>
        <time>2022-09-11T11:26:31Z</time>
      </trkpt>
      <trkpt lat="46.51417" lon="0.38157">
        <ele>110</ele>
        <time>2022-09-11T11:26:33Z</time>
      </trkpt>
      <trkpt lat="46.51428" lon="0.38164">
        <ele>109.6</ele>
        <time>2022-09-11T11:26:36Z</time>
      </trkpt>
      <trkpt lat="46.51431" lon="0.38164">
        <ele>109.6</ele>
        <time>2022-09-11T11:26:37Z</time>
      </trkpt>
      <trkpt lat="46.51434" lon="0.38164">
        <ele>109.6</ele>
        <time>2022-09-11T11:26:38Z</time>
      </trkpt>
      <trkpt lat="46.51448" lon="0.3817">
        <ele>109.6</ele>
        <time>2022-09-11T11:26:42Z</time>
      </trkpt>
      <trkpt lat="46.51462" lon="0.38166">
        <ele>110.2</ele>
        <time>2022-09-11T11:26:47Z</time>
      </trkpt>
      <trkpt lat="46.51466" lon="0.38164">
        <ele>110.2</ele>
        <time>2022-09-11T11:26:49Z</time>
      </trkpt>
      <trkpt lat="46.51471" lon="0.38165">
        <ele>110.4</ele>
        <time>2022-09-11T11:26:51Z</time>
      </trkpt>
      <trkpt lat="46.51485" lon="0.38175">
        <ele>111</ele>
        <time>2022-09-11T11:26:57Z</time>
      </trkpt>
      <trkpt lat="46.5149" lon="0.38178">
        <ele>111</ele>
        <time>2022-09-11T11:26:59Z</time>
      </trkpt>
      <trkpt lat="46.51496" lon="0.38178">
        <ele>110.8</ele>
        <time>2022-09-11T11:27:01Z</time>
      </trkpt>
      <trkpt lat="46.51511" lon="0.38188">
        <ele>110.6</ele>
        <time>2022-09-11T11:27:06Z</time>
      </trkpt>
      <trkpt lat="46.51515" lon="0.38188">
        <ele>110.6</ele>
        <time>2022-09-11T11:27:07Z</time>
      </trkpt>
      <trkpt lat="46.51522" lon="0.38188">
        <ele>110.8</ele>
        <time>2022-09-11T11:27:09Z</time>
      </trkpt>
      <trkpt lat="46.51525" lon="0.3819">
        <ele>111</ele>
        <time>2022-09-11T11:27:10Z</time>
      </trkpt>
      <trkpt lat="46.51542" lon="0.38202">
        <ele>110.8</ele>
        <time>2022-09-11T11:27:15Z</time>
      </trkpt>
      <trkpt lat="46.51549" lon="0.38206">
        <ele>110.6</ele>
        <time>2022-09-11T11:27:17Z</time>
      </trkpt>
      <trkpt lat="46.51562" lon="0.3821">
        <ele>110.4</ele>
        <time>2022-09-11T11:27:20Z</time>
      </trkpt>
      <trkpt lat="46.51568" lon="0.38213">
        <ele>110.6</ele>
        <time>2022-09-11T11:27:22Z</time>
      </trkpt>
      <trkpt lat="46.51578" lon="0.38219">
        <ele>110.6</ele>
        <time>2022-09-11T11:27:25Z</time>
      </trkpt>
      <trkpt lat="46.51589" lon="0.38223">
        <ele>110.4</ele>
        <time>2022-09-11T11:27:28Z</time>
      </trkpt>
      <trkpt lat="46.51595" lon="0.38227">
        <ele>110.4</ele>
        <time>2022-09-11T11:27:30Z</time>
      </trkpt>
      <trkpt lat="46.51602" lon="0.38231">
        <ele>110.2</ele>
        <time>2022-09-11T11:27:32Z</time>
      </trkpt>
      <trkpt lat="46.51607" lon="0.38231">
        <ele>110.4</ele>
        <time>2022-09-11T11:27:34Z</time>
      </trkpt>
      <trkpt lat="46.51619" lon="0.3823">
        <ele>110.6</ele>
        <time>2022-09-11T11:27:38Z</time>
      </trkpt>
      <trkpt lat="46.5163" lon="0.38236">
        <ele>110.4</ele>
        <time>2022-09-11T11:27:41Z</time>
      </trkpt>
      <trkpt lat="46.51638" lon="0.38241">
        <ele>110.2</ele>
        <time>2022-09-11T11:27:43Z</time>
      </trkpt>
      <trkpt lat="46.5166" lon="0.38255">
        <ele>109.8</ele>
        <time>2022-09-11T11:27:48Z</time>
      </trkpt>
      <trkpt lat="46.51674" lon="0.38265">
        <ele>109.6</ele>
        <time>2022-09-11T11:27:51Z</time>
      </trkpt>
      <trkpt lat="46.51682" lon="0.38271">
        <ele>109.6</ele>
        <time>2022-09-11T11:27:53Z</time>
      </trkpt>
      <trkpt lat="46.51686" lon="0.38275">
        <ele>109.6</ele>
        <time>2022-09-11T11:27:54Z</time>
      </trkpt>
      <trkpt lat="46.51698" lon="0.38285">
        <ele>110</ele>
        <time>2022-09-11T11:27:57Z</time>
      </trkpt>
      <trkpt lat="46.51701" lon="0.38288">
        <ele>110</ele>
        <time>2022-09-11T11:27:58Z</time>
      </trkpt>
      <trkpt lat="46.51712" lon="0.38306">
        <ele>110.8</ele>
        <time>2022-09-11T11:28:03Z</time>
      </trkpt>
      <trkpt lat="46.51717" lon="0.38315">
        <ele>111.2</ele>
        <time>2022-09-11T11:28:07Z</time>
      </trkpt>
      <trkpt lat="46.5172" lon="0.38319">
        <ele>111.4</ele>
        <time>2022-09-11T11:28:09Z</time>
      </trkpt>
      <trkpt lat="46.51729" lon="0.38324">
        <ele>112.4</ele>
        <time>2022-09-11T11:28:13Z</time>
      </trkpt>
      <trkpt lat="46.51735" lon="0.38328">
        <ele>113.2</ele>
        <time>2022-09-11T11:28:16Z</time>
      </trkpt>
      <trkpt lat="46.51737" lon="0.3833">
        <ele>113.4</ele>
        <time>2022-09-11T11:28:17Z</time>
      </trkpt>
      <trkpt lat="46.51742" lon="0.38333">
        <ele>114.8</ele>
        <time>2022-09-11T11:28:20Z</time>
      </trkpt>
      <trkpt lat="46.51748" lon="0.38338">
        <ele>115.4</ele>
        <time>2022-09-11T11:28:24Z</time>
      </trkpt>
      <trkpt lat="46.51759" lon="0.38345">
        <ele>115.8</ele>
        <time>2022-09-11T11:28:30Z</time>
      </trkpt>
      <trkpt lat="46.51762" lon="0.38348">
        <ele>116.4</ele>
        <time>2022-09-11T11:28:32Z</time>
      </trkpt>
      <trkpt lat="46.51769" lon="0.38352">
        <ele>116.8</ele>
        <time>2022-09-11T11:28:35Z</time>
      </trkpt>
      <trkpt lat="46.51776" lon="0.38355">
        <ele>117</ele>
        <time>2022-09-11T11:28:38Z</time>
      </trkpt>
      <trkpt lat="46.51784" lon="0.38358">
        <ele>117.8</ele>
        <time>2022-09-11T11:28:42Z</time>
      </trkpt>
      <trkpt lat="46.5179" lon="0.38362">
        <ele>118.4</ele>
        <time>2022-09-11T11:28:45Z</time>
      </trkpt>
      <trkpt lat="46.51797" lon="0.38365">
        <ele>119.2</ele>
        <time>2022-09-11T11:28:49Z</time>
      </trkpt>
      <trkpt lat="46.51802" lon="0.38368">
        <ele>119.8</ele>
        <time>2022-09-11T11:28:52Z</time>
      </trkpt>
      <trkpt lat="46.51806" lon="0.3837">
        <ele>120.2</ele>
        <time>2022-09-11T11:28:54Z</time>
      </trkpt>
      <trkpt lat="46.51813" lon="0.38373">
        <ele>120.4</ele>
        <time>2022-09-11T11:28:58Z</time>
      </trkpt>
      <trkpt lat="46.5182" lon="0.38379">
        <ele>121.2</ele>
        <time>2022-09-11T11:29:03Z</time>
      </trkpt>
      <trkpt lat="46.51821" lon="0.38381">
        <ele>121.4</ele>
        <time>2022-09-11T11:29:05Z</time>
      </trkpt>
      <trkpt lat="46.51827" lon="0.38392">
        <ele>122.4</ele>
        <time>2022-09-11T11:29:10Z</time>
      </trkpt>
      <trkpt lat="46.51833" lon="0.384">
        <ele>123</ele>
        <time>2022-09-11T11:29:14Z</time>
      </trkpt>
      <trkpt lat="46.51834" lon="0.38403">
        <ele>123.4</ele>
        <time>2022-09-11T11:29:15Z</time>
      </trkpt>
      <trkpt lat="46.51839" lon="0.38414">
        <ele>124.6</ele>
        <time>2022-09-11T11:29:21Z</time>
      </trkpt>
      <trkpt lat="46.5184" lon="0.38416">
        <ele>124.6</ele>
        <time>2022-09-11T11:29:22Z</time>
      </trkpt>
      <trkpt lat="46.51844" lon="0.38426">
        <ele>125.6</ele>
        <time>2022-09-11T11:29:27Z</time>
      </trkpt>
      <trkpt lat="46.51845" lon="0.38428">
        <ele>125.6</ele>
        <time>2022-09-11T11:29:28Z</time>
      </trkpt>
      <trkpt lat="46.51846" lon="0.3843">
        <ele>125.6</ele>
        <time>2022-09-11T11:29:29Z</time>
      </trkpt>
      <trkpt lat="46.51859" lon="0.38449">
        <ele>126.6</ele>
        <time>2022-09-11T11:29:36Z</time>
      </trkpt>
      <trkpt lat="46.51867" lon="0.38477">
        <ele>127.6</ele>
        <time>2022-09-11T11:29:43Z</time>
      </trkpt>
      <trkpt lat="46.51874" lon="0.38497">
        <ele>128.4</ele>
        <time>2022-09-11T11:29:49Z</time>
      </trkpt>
      <trkpt lat="46.51876" lon="0.38503">
        <ele>128.6</ele>
        <time>2022-09-11T11:29:51Z</time>
      </trkpt>
      <trkpt lat="46.51882" lon="0.38518">
        <ele>129.2</ele>
        <time>2022-09-11T11:29:56Z</time>
      </trkpt>
      <trkpt lat="46.51884" lon="0.38525">
        <ele>129.6</ele>
        <time>2022-09-11T11:29:58Z</time>
      </trkpt>
      <trkpt lat="46.5189" lon="0.38543">
        <ele>130.6</ele>
        <time>2022-09-11T11:30:04Z</time>
      </trkpt>
      <trkpt lat="46.51891" lon="0.38546">
        <ele>130.8</ele>
        <time>2022-09-11T11:30:05Z</time>
      </trkpt>
      <trkpt lat="46.51892" lon="0.38548">
        <ele>130.8</ele>
        <time>2022-09-11T11:30:06Z</time>
      </trkpt>
      <trkpt lat="46.51896" lon="0.3856">
        <ele>131.4</ele>
        <time>2022-09-11T11:30:10Z</time>
      </trkpt>
      <trkpt lat="46.519" lon="0.38571">
        <ele>132</ele>
        <time>2022-09-11T11:30:14Z</time>
      </trkpt>
      <trkpt lat="46.51905" lon="0.38585">
        <ele>132.8</ele>
        <time>2022-09-11T11:30:19Z</time>
      </trkpt>
      <trkpt lat="46.51906" lon="0.38588">
        <ele>133</ele>
        <time>2022-09-11T11:30:20Z</time>
      </trkpt>
      <trkpt lat="46.5191" lon="0.386">
        <ele>134.2</ele>
        <time>2022-09-11T11:30:24Z</time>
      </trkpt>
      <trkpt lat="46.51913" lon="0.38607">
        <ele>135.2</ele>
        <time>2022-09-11T11:30:27Z</time>
      </trkpt>
      <trkpt lat="46.51914" lon="0.3861">
        <ele>135.4</ele>
        <time>2022-09-11T11:30:28Z</time>
      </trkpt>
      <trkpt lat="46.51925" lon="0.3863">
        <ele>136.2</ele>
        <time>2022-09-11T11:30:36Z</time>
      </trkpt>
      <trkpt lat="46.51927" lon="0.38633">
        <ele>136.2</ele>
        <time>2022-09-11T11:30:37Z</time>
      </trkpt>
      <trkpt lat="46.5193" lon="0.38639">
        <ele>136.4</ele>
        <time>2022-09-11T11:30:39Z</time>
      </trkpt>
      <trkpt lat="46.51935" lon="0.38648">
        <ele>136.6</ele>
        <time>2022-09-11T11:30:42Z</time>
      </trkpt>
      <trkpt lat="46.51935" lon="0.38652">
        <ele>136.6</ele>
        <time>2022-09-11T11:30:43Z</time>
      </trkpt>
      <trkpt lat="46.51926" lon="0.38669">
        <ele>137</ele>
        <time>2022-09-11T11:30:48Z</time>
      </trkpt>
      <trkpt lat="46.51919" lon="0.38678">
        <ele>137.4</ele>
        <time>2022-09-11T11:30:51Z</time>
      </trkpt>
      <trkpt lat="46.51907" lon="0.38695">
        <ele>137.8</ele>
        <time>2022-09-11T11:30:56Z</time>
      </trkpt>
      <trkpt lat="46.51897" lon="0.38709">
        <ele>138.4</ele>
        <time>2022-09-11T11:31:00Z</time>
      </trkpt>
      <trkpt lat="46.5189" lon="0.3872">
        <ele>138.6</ele>
        <time>2022-09-11T11:31:03Z</time>
      </trkpt>
      <trkpt lat="46.51878" lon="0.38744">
        <ele>138.2</ele>
        <time>2022-09-11T11:31:09Z</time>
      </trkpt>
      <trkpt lat="46.51874" lon="0.38751">
        <ele>138.4</ele>
        <time>2022-09-11T11:31:11Z</time>
      </trkpt>
      <trkpt lat="46.51867" lon="0.38769">
        <ele>138.4</ele>
        <time>2022-09-11T11:31:15Z</time>
      </trkpt>
      <trkpt lat="46.51861" lon="0.38791">
        <ele>138.4</ele>
        <time>2022-09-11T11:31:18Z</time>
      </trkpt>
      <trkpt lat="46.51855" lon="0.38808">
        <ele>138</ele>
        <time>2022-09-11T11:31:20Z</time>
      </trkpt>
      <trkpt lat="46.51846" lon="0.38839">
        <ele>137.2</ele>
        <time>2022-09-11T11:31:24Z</time>
      </trkpt>
      <trkpt lat="46.5184" lon="0.38864">
        <ele>136.2</ele>
        <time>2022-09-11T11:31:27Z</time>
      </trkpt>
      <trkpt lat="46.51826" lon="0.38914">
        <ele>135</ele>
        <time>2022-09-11T11:31:33Z</time>
      </trkpt>
      <trkpt lat="46.51823" lon="0.38922">
        <ele>134.6</ele>
        <time>2022-09-11T11:31:34Z</time>
      </trkpt>
      <trkpt lat="46.51813" lon="0.3895">
        <ele>134</ele>
        <time>2022-09-11T11:31:38Z</time>
      </trkpt>
      <trkpt lat="46.51806" lon="0.38966">
        <ele>133.8</ele>
        <time>2022-09-11T11:31:40Z</time>
      </trkpt>
      <trkpt lat="46.51782" lon="0.39014">
        <ele>132.8</ele>
        <time>2022-09-11T11:31:46Z</time>
      </trkpt>
      <trkpt lat="46.5175" lon="0.3907">
        <ele>131.8</ele>
        <time>2022-09-11T11:31:53Z</time>
      </trkpt>
      <trkpt lat="46.51746" lon="0.39078">
        <ele>131.6</ele>
        <time>2022-09-11T11:31:54Z</time>
      </trkpt>
      <trkpt lat="46.51719" lon="0.39125">
        <ele>131.4</ele>
        <time>2022-09-11T11:32:00Z</time>
      </trkpt>
      <trkpt lat="46.51701" lon="0.39161">
        <ele>130.6</ele>
        <time>2022-09-11T11:32:04Z</time>
      </trkpt>
      <trkpt lat="46.51692" lon="0.3918">
        <ele>130</ele>
        <time>2022-09-11T11:32:06Z</time>
      </trkpt>
      <trkpt lat="46.51683" lon="0.392">
        <ele>129.4</ele>
        <time>2022-09-11T11:32:08Z</time>
      </trkpt>
      <trkpt lat="46.51672" lon="0.39221">
        <ele>128.2</ele>
        <time>2022-09-11T11:32:10Z</time>
      </trkpt>
      <trkpt lat="46.51661" lon="0.39242">
        <ele>127.6</ele>
        <time>2022-09-11T11:32:12Z</time>
      </trkpt>
      <trkpt lat="46.51655" lon="0.39253">
        <ele>126.8</ele>
        <time>2022-09-11T11:32:13Z</time>
      </trkpt>
      <trkpt lat="46.5165" lon="0.39264">
        <ele>125.8</ele>
        <time>2022-09-11T11:32:14Z</time>
      </trkpt>
      <trkpt lat="46.51641" lon="0.39283">
        <ele>123.6</ele>
        <time>2022-09-11T11:32:16Z</time>
      </trkpt>
      <trkpt lat="46.51638" lon="0.3929">
        <ele>122.4</ele>
        <time>2022-09-11T11:32:17Z</time>
      </trkpt>
      <trkpt lat="46.51635" lon="0.39294">
        <ele>121.4</ele>
        <time>2022-09-11T11:32:18Z</time>
      </trkpt>
      <trkpt lat="46.51632" lon="0.39296">
        <ele>119.6</ele>
        <time>2022-09-11T11:32:19Z</time>
      </trkpt>
      <trkpt lat="46.51629" lon="0.39295">
        <ele>118.6</ele>
        <time>2022-09-11T11:32:20Z</time>
      </trkpt>
      <trkpt lat="46.51625" lon="0.39291">
        <ele>118</ele>
        <time>2022-09-11T11:32:21Z</time>
      </trkpt>
      <trkpt lat="46.51616" lon="0.39284">
        <ele>117.2</ele>
        <time>2022-09-11T11:32:23Z</time>
      </trkpt>
      <trkpt lat="46.51606" lon="0.39281">
        <ele>116.8</ele>
        <time>2022-09-11T11:32:25Z</time>
      </trkpt>
      <trkpt lat="46.51601" lon="0.39283">
        <ele>116.6</ele>
        <time>2022-09-11T11:32:26Z</time>
      </trkpt>
      <trkpt lat="46.51598" lon="0.39286">
        <ele>116.6</ele>
        <time>2022-09-11T11:32:27Z</time>
      </trkpt>
      <trkpt lat="46.51587" lon="0.39298">
        <ele>116.6</ele>
        <time>2022-09-11T11:32:30Z</time>
      </trkpt>
      <trkpt lat="46.51584" lon="0.39302">
        <ele>116.6</ele>
        <time>2022-09-11T11:32:31Z</time>
      </trkpt>
      <trkpt lat="46.51581" lon="0.39306">
        <ele>116.6</ele>
        <time>2022-09-11T11:32:32Z</time>
      </trkpt>
      <trkpt lat="46.5158" lon="0.3931">
        <ele>116.6</ele>
        <time>2022-09-11T11:32:33Z</time>
      </trkpt>
      <trkpt lat="46.51579" lon="0.39313">
        <ele>116.8</ele>
        <time>2022-09-11T11:32:34Z</time>
      </trkpt>
      <trkpt lat="46.5158" lon="0.39319">
        <ele>117.8</ele>
        <time>2022-09-11T11:32:36Z</time>
      </trkpt>
      <trkpt lat="46.51582" lon="0.3933">
        <ele>118.6</ele>
        <time>2022-09-11T11:32:39Z</time>
      </trkpt>
      <trkpt lat="46.51583" lon="0.39336">
        <ele>119.2</ele>
        <time>2022-09-11T11:32:41Z</time>
      </trkpt>
      <trkpt lat="46.51583" lon="0.39349">
        <ele>120.2</ele>
        <time>2022-09-11T11:32:45Z</time>
      </trkpt>
      <trkpt lat="46.51585" lon="0.39369">
        <ele>121.4</ele>
        <time>2022-09-11T11:32:51Z</time>
      </trkpt>
      <trkpt lat="46.51585" lon="0.39372">
        <ele>121.6</ele>
        <time>2022-09-11T11:32:52Z</time>
      </trkpt>
      <trkpt lat="46.51585" lon="0.39394">
        <ele>122.4</ele>
        <time>2022-09-11T11:32:58Z</time>
      </trkpt>
      <trkpt lat="46.51581" lon="0.39419">
        <ele>123.6</ele>
        <time>2022-09-11T11:33:04Z</time>
      </trkpt>
      <trkpt lat="46.5158" lon="0.39422">
        <ele>123.8</ele>
        <time>2022-09-11T11:33:05Z</time>
      </trkpt>
      <trkpt lat="46.51579" lon="0.39438">
        <ele>124.8</ele>
        <time>2022-09-11T11:33:10Z</time>
      </trkpt>
      <trkpt lat="46.51579" lon="0.39447">
        <ele>126.2</ele>
        <time>2022-09-11T11:33:13Z</time>
      </trkpt>
      <trkpt lat="46.51578" lon="0.39468">
        <ele>127.2</ele>
        <time>2022-09-11T11:33:19Z</time>
      </trkpt>
      <trkpt lat="46.51578" lon="0.39475">
        <ele>127.6</ele>
        <time>2022-09-11T11:33:21Z</time>
      </trkpt>
      <trkpt lat="46.51578" lon="0.39482">
        <ele>127.6</ele>
        <time>2022-09-11T11:33:23Z</time>
      </trkpt>
      <trkpt lat="46.51577" lon="0.39506">
        <ele>128</ele>
        <time>2022-09-11T11:33:29Z</time>
      </trkpt>
      <trkpt lat="46.51578" lon="0.39533">
        <ele>128.4</ele>
        <time>2022-09-11T11:33:35Z</time>
      </trkpt>
      <trkpt lat="46.51576" lon="0.39567">
        <ele>128.8</ele>
        <time>2022-09-11T11:33:43Z</time>
      </trkpt>
      <trkpt lat="46.51575" lon="0.39581">
        <ele>128.8</ele>
        <time>2022-09-11T11:33:46Z</time>
      </trkpt>
      <trkpt lat="46.51574" lon="0.39605">
        <ele>128.6</ele>
        <time>2022-09-11T11:33:50Z</time>
      </trkpt>
      <trkpt lat="46.51571" lon="0.39623">
        <ele>128.4</ele>
        <time>2022-09-11T11:33:52Z</time>
      </trkpt>
      <trkpt lat="46.51563" lon="0.39648">
        <ele>127.8</ele>
        <time>2022-09-11T11:33:54Z</time>
      </trkpt>
      <trkpt lat="46.51558" lon="0.39685">
        <ele>127.4</ele>
        <time>2022-09-11T11:33:58Z</time>
      </trkpt>
      <trkpt lat="46.51554" lon="0.3972">
        <ele>127.8</ele>
        <time>2022-09-11T11:34:03Z</time>
      </trkpt>
      <trkpt lat="46.51551" lon="0.39745">
        <ele>128.6</ele>
        <time>2022-09-11T11:34:07Z</time>
      </trkpt>
      <trkpt lat="46.51546" lon="0.39768">
        <ele>129.6</ele>
        <time>2022-09-11T11:34:11Z</time>
      </trkpt>
      <trkpt lat="46.51545" lon="0.39774">
        <ele>129.6</ele>
        <time>2022-09-11T11:34:12Z</time>
      </trkpt>
      <trkpt lat="46.51537" lon="0.39807">
        <ele>130.6</ele>
        <time>2022-09-11T11:34:19Z</time>
      </trkpt>
      <trkpt lat="46.51536" lon="0.39812">
        <ele>131</ele>
        <time>2022-09-11T11:34:20Z</time>
      </trkpt>
      <trkpt lat="46.51531" lon="0.3983">
        <ele>131.6</ele>
        <time>2022-09-11T11:34:24Z</time>
      </trkpt>
      <trkpt lat="46.51528" lon="0.3984">
        <ele>131.8</ele>
        <time>2022-09-11T11:34:26Z</time>
      </trkpt>
      <trkpt lat="46.51527" lon="0.39845">
        <ele>132</ele>
        <time>2022-09-11T11:34:27Z</time>
      </trkpt>
      <trkpt lat="46.51517" lon="0.39882">
        <ele>133</ele>
        <time>2022-09-11T11:34:34Z</time>
      </trkpt>
      <trkpt lat="46.51516" lon="0.39887">
        <ele>133</ele>
        <time>2022-09-11T11:34:35Z</time>
      </trkpt>
      <trkpt lat="46.51512" lon="0.39924">
        <ele>134.2</ele>
        <time>2022-09-11T11:34:42Z</time>
      </trkpt>
      <trkpt lat="46.51512" lon="0.39929">
        <ele>134.2</ele>
        <time>2022-09-11T11:34:43Z</time>
      </trkpt>
      <trkpt lat="46.51514" lon="0.39959">
        <ele>135.2</ele>
        <time>2022-09-11T11:34:49Z</time>
      </trkpt>
      <trkpt lat="46.51516" lon="0.39969">
        <ele>135.2</ele>
        <time>2022-09-11T11:34:51Z</time>
      </trkpt>
      <trkpt lat="46.5152" lon="0.39992">
        <ele>136.2</ele>
        <time>2022-09-11T11:34:56Z</time>
      </trkpt>
      <trkpt lat="46.51521" lon="0.39996">
        <ele>136.2</ele>
        <time>2022-09-11T11:34:57Z</time>
      </trkpt>
      <trkpt lat="46.51525" lon="0.40032">
        <ele>136.4</ele>
        <time>2022-09-11T11:35:04Z</time>
      </trkpt>
      <trkpt lat="46.51521" lon="0.40068">
        <ele>137.2</ele>
        <time>2022-09-11T11:35:10Z</time>
      </trkpt>
      <trkpt lat="46.5152" lon="0.40074">
        <ele>137.4</ele>
        <time>2022-09-11T11:35:11Z</time>
      </trkpt>
      <trkpt lat="46.51512" lon="0.40122">
        <ele>138.2</ele>
        <time>2022-09-11T11:35:19Z</time>
      </trkpt>
      <trkpt lat="46.51506" lon="0.40157">
        <ele>139.4</ele>
        <time>2022-09-11T11:35:25Z</time>
      </trkpt>
      <trkpt lat="46.51503" lon="0.40174">
        <ele>139.4</ele>
        <time>2022-09-11T11:35:28Z</time>
      </trkpt>
      <trkpt lat="46.51496" lon="0.40222">
        <ele>140.2</ele>
        <time>2022-09-11T11:35:36Z</time>
      </trkpt>
      <trkpt lat="46.51494" lon="0.40234">
        <ele>140.4</ele>
        <time>2022-09-11T11:35:38Z</time>
      </trkpt>
      <trkpt lat="46.51483" lon="0.40276">
        <ele>140.2</ele>
        <time>2022-09-11T11:35:45Z</time>
      </trkpt>
      <trkpt lat="46.5147" lon="0.40328">
        <ele>139.8</ele>
        <time>2022-09-11T11:35:54Z</time>
      </trkpt>
      <trkpt lat="46.51468" lon="0.40365">
        <ele>140</ele>
        <time>2022-09-11T11:36:00Z</time>
      </trkpt>
      <trkpt lat="46.51468" lon="0.40411">
        <ele>139.8</ele>
        <time>2022-09-11T11:36:06Z</time>
      </trkpt>
      <trkpt lat="46.51467" lon="0.40447">
        <ele>139.2</ele>
        <time>2022-09-11T11:36:10Z</time>
      </trkpt>
      <trkpt lat="46.51466" lon="0.40466">
        <ele>139</ele>
        <time>2022-09-11T11:36:12Z</time>
      </trkpt>
      <trkpt lat="46.51463" lon="0.40507">
        <ele>138</ele>
        <time>2022-09-11T11:36:16Z</time>
      </trkpt>
      <trkpt lat="46.51461" lon="0.40528">
        <ele>137.8</ele>
        <time>2022-09-11T11:36:18Z</time>
      </trkpt>
      <trkpt lat="46.51459" lon="0.40563">
        <ele>137</ele>
        <time>2022-09-11T11:36:22Z</time>
      </trkpt>
      <trkpt lat="46.51458" lon="0.40583">
        <ele>135.6</ele>
        <time>2022-09-11T11:36:25Z</time>
      </trkpt>
      <trkpt lat="46.51458" lon="0.40589">
        <ele>134.6</ele>
        <time>2022-09-11T11:36:27Z</time>
      </trkpt>
      <trkpt lat="46.51458" lon="0.40591">
        <ele>134.4</ele>
        <time>2022-09-11T11:36:28Z</time>
      </trkpt>
      <trkpt lat="46.51456" lon="0.40591">
        <ele>134.2</ele>
        <time>2022-09-11T11:36:29Z</time>
      </trkpt>
      <trkpt lat="46.51454" lon="0.40591">
        <ele>134</ele>
        <time>2022-09-11T11:36:30Z</time>
      </trkpt>
      <trkpt lat="46.51447" lon="0.40594">
        <ele>133.4</ele>
        <time>2022-09-11T11:36:33Z</time>
      </trkpt>
      <trkpt lat="46.51438" lon="0.40595">
        <ele>132.6</ele>
        <time>2022-09-11T11:36:35Z</time>
      </trkpt>
      <trkpt lat="46.51433" lon="0.40597">
        <ele>132.4</ele>
        <time>2022-09-11T11:36:36Z</time>
      </trkpt>
      <trkpt lat="46.51428" lon="0.40599">
        <ele>132.2</ele>
        <time>2022-09-11T11:36:37Z</time>
      </trkpt>
      <trkpt lat="46.51419" lon="0.40602">
        <ele>132</ele>
        <time>2022-09-11T11:36:39Z</time>
      </trkpt>
      <trkpt lat="46.51415" lon="0.40603">
        <ele>131.6</ele>
        <time>2022-09-11T11:36:40Z</time>
      </trkpt>
      <trkpt lat="46.51411" lon="0.40605">
        <ele>131.2</ele>
        <time>2022-09-11T11:36:41Z</time>
      </trkpt>
      <trkpt lat="46.51408" lon="0.40607">
        <ele>130</ele>
        <time>2022-09-11T11:36:42Z</time>
      </trkpt>
      <trkpt lat="46.51405" lon="0.4061">
        <ele>128.8</ele>
        <time>2022-09-11T11:36:43Z</time>
      </trkpt>
      <trkpt lat="46.51402" lon="0.40613">
        <ele>127</ele>
        <time>2022-09-11T11:36:44Z</time>
      </trkpt>
      <trkpt lat="46.51401" lon="0.40616">
        <ele>126.2</ele>
        <time>2022-09-11T11:36:45Z</time>
      </trkpt>
      <trkpt lat="46.51399" lon="0.4062">
        <ele>125.6</ele>
        <time>2022-09-11T11:36:46Z</time>
      </trkpt>
      <trkpt lat="46.51394" lon="0.40627">
        <ele>125.2</ele>
        <time>2022-09-11T11:36:48Z</time>
      </trkpt>
      <trkpt lat="46.51387" lon="0.40635">
        <ele>125.2</ele>
        <time>2022-09-11T11:36:50Z</time>
      </trkpt>
      <trkpt lat="46.51386" lon="0.40643">
        <ele>125.2</ele>
        <time>2022-09-11T11:36:52Z</time>
      </trkpt>
      <trkpt lat="46.51386" lon="0.40646">
        <ele>125</ele>
        <time>2022-09-11T11:36:53Z</time>
      </trkpt>
      <trkpt lat="46.51387" lon="0.40655">
        <ele>125</ele>
        <time>2022-09-11T11:36:55Z</time>
      </trkpt>
      <trkpt lat="46.51387" lon="0.40676">
        <ele>125</ele>
        <time>2022-09-11T11:36:58Z</time>
      </trkpt>
      <trkpt lat="46.51387" lon="0.4069">
        <ele>125.2</ele>
        <time>2022-09-11T11:37:00Z</time>
      </trkpt>
      <trkpt lat="46.51387" lon="0.40706">
        <ele>125.4</ele>
        <time>2022-09-11T11:37:03Z</time>
      </trkpt>
      <trkpt lat="46.51387" lon="0.40711">
        <ele>125.6</ele>
        <time>2022-09-11T11:37:04Z</time>
      </trkpt>
      <trkpt lat="46.5138" lon="0.4074">
        <ele>126.6</ele>
        <time>2022-09-11T11:37:10Z</time>
      </trkpt>
      <trkpt lat="46.5138" lon="0.40743">
        <ele>126.6</ele>
        <time>2022-09-11T11:37:11Z</time>
      </trkpt>
      <trkpt lat="46.51378" lon="0.40755">
        <ele>127.8</ele>
        <time>2022-09-11T11:37:15Z</time>
      </trkpt>
      <trkpt lat="46.51378" lon="0.40762">
        <ele>128.4</ele>
        <time>2022-09-11T11:37:17Z</time>
      </trkpt>
      <trkpt lat="46.51377" lon="0.40766">
        <ele>128.8</ele>
        <time>2022-09-11T11:37:18Z</time>
      </trkpt>
      <trkpt lat="46.51377" lon="0.40781">
        <ele>129.8</ele>
        <time>2022-09-11T11:37:22Z</time>
      </trkpt>
      <trkpt lat="46.51377" lon="0.40788">
        <ele>130.4</ele>
        <time>2022-09-11T11:37:24Z</time>
      </trkpt>
      <trkpt lat="46.51377" lon="0.40805">
        <ele>131</ele>
        <time>2022-09-11T11:37:29Z</time>
      </trkpt>
      <trkpt lat="46.51377" lon="0.40809">
        <ele>131</ele>
        <time>2022-09-11T11:37:30Z</time>
      </trkpt>
      <trkpt lat="46.51379" lon="0.40823">
        <ele>132</ele>
        <time>2022-09-11T11:37:35Z</time>
      </trkpt>
      <trkpt lat="46.5138" lon="0.40834">
        <ele>132.4</ele>
        <time>2022-09-11T11:37:38Z</time>
      </trkpt>
      <trkpt lat="46.5138" lon="0.40851">
        <ele>133.2</ele>
        <time>2022-09-11T11:37:43Z</time>
      </trkpt>
      <trkpt lat="46.51382" lon="0.40857">
        <ele>133.4</ele>
        <time>2022-09-11T11:37:45Z</time>
      </trkpt>
      <trkpt lat="46.51383" lon="0.40878">
        <ele>134.4</ele>
        <time>2022-09-11T11:37:51Z</time>
      </trkpt>
      <trkpt lat="46.51383" lon="0.40884">
        <ele>134.6</ele>
        <time>2022-09-11T11:37:53Z</time>
      </trkpt>
      <trkpt lat="46.51384" lon="0.409">
        <ele>135.4</ele>
        <time>2022-09-11T11:37:58Z</time>
      </trkpt>
      <trkpt lat="46.51384" lon="0.40906">
        <ele>135.8</ele>
        <time>2022-09-11T11:38:00Z</time>
      </trkpt>
      <trkpt lat="46.51383" lon="0.40917">
        <ele>136.6</ele>
        <time>2022-09-11T11:38:04Z</time>
      </trkpt>
      <trkpt lat="46.51383" lon="0.40928">
        <ele>137</ele>
        <time>2022-09-11T11:38:08Z</time>
      </trkpt>
      <trkpt lat="46.51381" lon="0.4095">
        <ele>137.6</ele>
        <time>2022-09-11T11:38:15Z</time>
      </trkpt>
      <trkpt lat="46.51382" lon="0.40955">
        <ele>138</ele>
        <time>2022-09-11T11:38:17Z</time>
      </trkpt>
      <trkpt lat="46.51382" lon="0.40974">
        <ele>138.8</ele>
        <time>2022-09-11T11:38:23Z</time>
      </trkpt>
      <trkpt lat="46.5138" lon="0.40998">
        <ele>139.8</ele>
        <time>2022-09-11T11:38:30Z</time>
      </trkpt>
      <trkpt lat="46.5138" lon="0.41005">
        <ele>139.8</ele>
        <time>2022-09-11T11:38:32Z</time>
      </trkpt>
      <trkpt lat="46.5138" lon="0.41022">
        <ele>139.8</ele>
        <time>2022-09-11T11:38:37Z</time>
      </trkpt>
      <trkpt lat="46.51376" lon="0.41057">
        <ele>140.8</ele>
        <time>2022-09-11T11:38:45Z</time>
      </trkpt>
      <trkpt lat="46.51376" lon="0.41069">
        <ele>141.4</ele>
        <time>2022-09-11T11:38:48Z</time>
      </trkpt>
      <trkpt lat="46.51377" lon="0.4108">
        <ele>141.6</ele>
        <time>2022-09-11T11:38:51Z</time>
      </trkpt>
      <trkpt lat="46.51375" lon="0.4109">
        <ele>141.8</ele>
        <time>2022-09-11T11:38:53Z</time>
      </trkpt>
      <trkpt lat="46.51372" lon="0.41116">
        <ele>142</ele>
        <time>2022-09-11T11:38:58Z</time>
      </trkpt>
      <trkpt lat="46.5137" lon="0.41146">
        <ele>142.2</ele>
        <time>2022-09-11T11:39:04Z</time>
      </trkpt>
      <trkpt lat="46.51365" lon="0.41166">
        <ele>142.4</ele>
        <time>2022-09-11T11:39:08Z</time>
      </trkpt>
      <trkpt lat="46.51362" lon="0.41169">
        <ele>142.4</ele>
        <time>2022-09-11T11:39:09Z</time>
      </trkpt>
      <trkpt lat="46.51352" lon="0.41177">
        <ele>142.8</ele>
        <time>2022-09-11T11:39:12Z</time>
      </trkpt>
      <trkpt lat="46.5135" lon="0.41181">
        <ele>142.8</ele>
        <time>2022-09-11T11:39:13Z</time>
      </trkpt>
      <trkpt lat="46.51349" lon="0.41185">
        <ele>142.8</ele>
        <time>2022-09-11T11:39:14Z</time>
      </trkpt>
      <trkpt lat="46.51343" lon="0.41197">
        <ele>143</ele>
        <time>2022-09-11T11:39:17Z</time>
      </trkpt>
      <trkpt lat="46.51331" lon="0.412">
        <ele>142.8</ele>
        <time>2022-09-11T11:39:20Z</time>
      </trkpt>
      <trkpt lat="46.51323" lon="0.41198">
        <ele>142.6</ele>
        <time>2022-09-11T11:39:22Z</time>
      </trkpt>
      <trkpt lat="46.51314" lon="0.41199">
        <ele>142.4</ele>
        <time>2022-09-11T11:39:24Z</time>
      </trkpt>
      <trkpt lat="46.51302" lon="0.41202">
        <ele>142.4</ele>
        <time>2022-09-11T11:39:27Z</time>
      </trkpt>
      <trkpt lat="46.51294" lon="0.41205">
        <ele>142.2</ele>
        <time>2022-09-11T11:39:29Z</time>
      </trkpt>
      <trkpt lat="46.51286" lon="0.41208">
        <ele>142.2</ele>
        <time>2022-09-11T11:39:31Z</time>
      </trkpt>
      <trkpt lat="46.51271" lon="0.4121">
        <ele>141.6</ele>
        <time>2022-09-11T11:39:34Z</time>
      </trkpt>
      <trkpt lat="46.51267" lon="0.41212">
        <ele>141.4</ele>
        <time>2022-09-11T11:39:35Z</time>
      </trkpt>
      <trkpt lat="46.51264" lon="0.41213">
        <ele>140</ele>
        <time>2022-09-11T11:39:36Z</time>
      </trkpt>
      <trkpt lat="46.51256" lon="0.41216">
        <ele>138.8</ele>
        <time>2022-09-11T11:39:38Z</time>
      </trkpt>
      <trkpt lat="46.51249" lon="0.4122">
        <ele>138.2</ele>
        <time>2022-09-11T11:39:40Z</time>
      </trkpt>
      <trkpt lat="46.51247" lon="0.41222">
        <ele>137.8</ele>
        <time>2022-09-11T11:39:41Z</time>
      </trkpt>
      <trkpt lat="46.51243" lon="0.41226">
        <ele>135.8</ele>
        <time>2022-09-11T11:39:43Z</time>
      </trkpt>
      <trkpt lat="46.51238" lon="0.41229">
        <ele>134.2</ele>
        <time>2022-09-11T11:39:45Z</time>
      </trkpt>
      <trkpt lat="46.51236" lon="0.4123">
        <ele>133.4</ele>
        <time>2022-09-11T11:39:46Z</time>
      </trkpt>
      <trkpt lat="46.51235" lon="0.41232">
        <ele>132.4</ele>
        <time>2022-09-11T11:39:47Z</time>
      </trkpt>
      <trkpt lat="46.51232" lon="0.41235">
        <ele>131</ele>
        <time>2022-09-11T11:39:49Z</time>
      </trkpt>
      <trkpt lat="46.51229" lon="0.41238">
        <ele>129.2</ele>
        <time>2022-09-11T11:39:51Z</time>
      </trkpt>
      <trkpt lat="46.51227" lon="0.41239">
        <ele>128.4</ele>
        <time>2022-09-11T11:39:52Z</time>
      </trkpt>
      <trkpt lat="46.51225" lon="0.41238">
        <ele>127.8</ele>
        <time>2022-09-11T11:39:53Z</time>
      </trkpt>
      <trkpt lat="46.51222" lon="0.41238">
        <ele>126.6</ele>
        <time>2022-09-11T11:39:55Z</time>
      </trkpt>
      <trkpt lat="46.5122" lon="0.41239">
        <ele>125.4</ele>
        <time>2022-09-11T11:39:56Z</time>
      </trkpt>
      <trkpt lat="46.51218" lon="0.4124">
        <ele>124.8</ele>
        <time>2022-09-11T11:39:57Z</time>
      </trkpt>
      <trkpt lat="46.51216" lon="0.4124">
        <ele>124.4</ele>
        <time>2022-09-11T11:39:58Z</time>
      </trkpt>
      <trkpt lat="46.51215" lon="0.41238">
        <ele>123.4</ele>
        <time>2022-09-11T11:39:59Z</time>
      </trkpt>
      <trkpt lat="46.51212" lon="0.41231">
        <ele>122.4</ele>
        <time>2022-09-11T11:40:01Z</time>
      </trkpt>
      <trkpt lat="46.5121" lon="0.41229">
        <ele>122.2</ele>
        <time>2022-09-11T11:40:02Z</time>
      </trkpt>
      <trkpt lat="46.51202" lon="0.41215">
        <ele>121.8</ele>
        <time>2022-09-11T11:40:07Z</time>
      </trkpt>
      <trkpt lat="46.51191" lon="0.41192">
        <ele>121.6</ele>
        <time>2022-09-11T11:40:15Z</time>
      </trkpt>
      <trkpt lat="46.51188" lon="0.41187">
        <ele>121.6</ele>
        <time>2022-09-11T11:40:18Z</time>
      </trkpt>
      <trkpt lat="46.51187" lon="0.41187">
        <ele>121.8</ele>
        <time>2022-09-11T11:40:21Z</time>
      </trkpt>
      <trkpt lat="46.51187" lon="0.41183">
        <ele>123</ele>
        <time>2022-09-11T11:40:32Z</time>
      </trkpt>
      <trkpt lat="46.51187" lon="0.41182">
        <ele>123.4</ele>
        <time>2022-09-11T11:40:34Z</time>
      </trkpt>
      <trkpt lat="46.51186" lon="0.41178">
        <ele>124.4</ele>
        <time>2022-09-11T11:40:44Z</time>
      </trkpt>
      <trkpt lat="46.51186" lon="0.41177">
        <ele>124.4</ele>
        <time>2022-09-11T11:40:45Z</time>
      </trkpt>
      <trkpt lat="46.51186" lon="0.41175">
        <ele>125.6</ele>
        <time>2022-09-11T11:40:51Z</time>
      </trkpt>
      <trkpt lat="46.51186" lon="0.41173">
        <ele>126.6</ele>
        <time>2022-09-11T11:40:56Z</time>
      </trkpt>
      <trkpt lat="46.51186" lon="0.41171">
        <ele>126.8</ele>
        <time>2022-09-11T11:40:59Z</time>
      </trkpt>
      <trkpt lat="46.51186" lon="0.4117">
        <ele>127.8</ele>
        <time>2022-09-11T11:41:03Z</time>
      </trkpt>
      <trkpt lat="46.51188" lon="0.41168">
        <ele>128.8</ele>
        <time>2022-09-11T11:41:10Z</time>
      </trkpt>
      <trkpt lat="46.51188" lon="0.41167">
        <ele>129.4</ele>
        <time>2022-09-11T11:41:13Z</time>
      </trkpt>
      <trkpt lat="46.5119" lon="0.41167">
        <ele>129.8</ele>
        <time>2022-09-11T11:41:16Z</time>
      </trkpt>
      <trkpt lat="46.5119" lon="0.41162">
        <ele>130.4</ele>
        <time>2022-09-11T11:41:24Z</time>
      </trkpt>
      <trkpt lat="46.51188" lon="0.41159">
        <ele>131</ele>
        <time>2022-09-11T11:41:28Z</time>
      </trkpt>
      <trkpt lat="46.51187" lon="0.41155">
        <ele>131.6</ele>
        <time>2022-09-11T11:41:38Z</time>
      </trkpt>
      <trkpt lat="46.51184" lon="0.4115">
        <ele>132</ele>
        <time>2022-09-11T11:41:42Z</time>
      </trkpt>
      <trkpt lat="46.51183" lon="0.41148">
        <ele>132</ele>
        <time>2022-09-11T11:41:44Z</time>
      </trkpt>
      <trkpt lat="46.51183" lon="0.41142">
        <ele>132.6</ele>
        <time>2022-09-11T11:41:47Z</time>
      </trkpt>
      <trkpt lat="46.51184" lon="0.41137">
        <ele>133</ele>
        <time>2022-09-11T11:41:50Z</time>
      </trkpt>
      <trkpt lat="46.51186" lon="0.41121">
        <ele>134.2</ele>
        <time>2022-09-11T11:41:57Z</time>
      </trkpt>
      <trkpt lat="46.51184" lon="0.41108">
        <ele>135.2</ele>
        <time>2022-09-11T11:42:03Z</time>
      </trkpt>
      <trkpt lat="46.51184" lon="0.41104">
        <ele>135.4</ele>
        <time>2022-09-11T11:42:05Z</time>
      </trkpt>
      <trkpt lat="46.51185" lon="0.41102">
        <ele>135.6</ele>
        <time>2022-09-11T11:42:06Z</time>
      </trkpt>
      <trkpt lat="46.51186" lon="0.41094">
        <ele>136.6</ele>
        <time>2022-09-11T11:42:10Z</time>
      </trkpt>
      <trkpt lat="46.51188" lon="0.41086">
        <ele>137.6</ele>
        <time>2022-09-11T11:42:15Z</time>
      </trkpt>
      <trkpt lat="46.51189" lon="0.41082">
        <ele>138</ele>
        <time>2022-09-11T11:42:17Z</time>
      </trkpt>
      <trkpt lat="46.51194" lon="0.41068">
        <ele>138.6</ele>
        <time>2022-09-11T11:42:23Z</time>
      </trkpt>
      <trkpt lat="46.512" lon="0.41052">
        <ele>139.2</ele>
        <time>2022-09-11T11:42:29Z</time>
      </trkpt>
      <trkpt lat="46.51208" lon="0.41033">
        <ele>139.4</ele>
        <time>2022-09-11T11:42:35Z</time>
      </trkpt>
      <trkpt lat="46.51212" lon="0.41024">
        <ele>139.6</ele>
        <time>2022-09-11T11:42:38Z</time>
      </trkpt>
      <trkpt lat="46.51217" lon="0.4101">
        <ele>140</ele>
        <time>2022-09-11T11:42:42Z</time>
      </trkpt>
      <trkpt lat="46.5123" lon="0.40984">
        <ele>140.2</ele>
        <time>2022-09-11T11:42:48Z</time>
      </trkpt>
      <trkpt lat="46.51242" lon="0.40962">
        <ele>139.8</ele>
        <time>2022-09-11T11:42:53Z</time>
      </trkpt>
      <trkpt lat="46.5125" lon="0.40945">
        <ele>139.8</ele>
        <time>2022-09-11T11:42:57Z</time>
      </trkpt>
      <trkpt lat="46.51252" lon="0.40936">
        <ele>140</ele>
        <time>2022-09-11T11:42:59Z</time>
      </trkpt>
      <trkpt lat="46.51253" lon="0.40931">
        <ele>140</ele>
        <time>2022-09-11T11:43:00Z</time>
      </trkpt>
      <trkpt lat="46.51248" lon="0.40917">
        <ele>139.8</ele>
        <time>2022-09-11T11:43:03Z</time>
      </trkpt>
      <trkpt lat="46.51235" lon="0.40896">
        <ele>139.8</ele>
        <time>2022-09-11T11:43:09Z</time>
      </trkpt>
      <trkpt lat="46.51208" lon="0.40865">
        <ele>139.8</ele>
        <time>2022-09-11T11:43:17Z</time>
      </trkpt>
      <trkpt lat="46.51188" lon="0.40844">
        <ele>140</ele>
        <time>2022-09-11T11:43:22Z</time>
      </trkpt>
      <trkpt lat="46.51181" lon="0.40837">
        <ele>140</ele>
        <time>2022-09-11T11:43:24Z</time>
      </trkpt>
      <trkpt lat="46.51167" lon="0.40825">
        <ele>139.6</ele>
        <time>2022-09-11T11:43:28Z</time>
      </trkpt>
      <trkpt lat="46.5116" lon="0.40819">
        <ele>139.4</ele>
        <time>2022-09-11T11:43:30Z</time>
      </trkpt>
      <trkpt lat="46.51148" lon="0.40806">
        <ele>139.6</ele>
        <time>2022-09-11T11:43:35Z</time>
      </trkpt>
      <trkpt lat="46.5115" lon="0.40797">
        <ele>139.8</ele>
        <time>2022-09-11T11:43:39Z</time>
      </trkpt>
      <trkpt lat="46.51159" lon="0.40788">
        <ele>139.6</ele>
        <time>2022-09-11T11:43:44Z</time>
      </trkpt>
      <trkpt lat="46.51171" lon="0.40779">
        <ele>139.2</ele>
        <time>2022-09-11T11:43:49Z</time>
      </trkpt>
      <trkpt lat="46.51178" lon="0.4077">
        <ele>139</ele>
        <time>2022-09-11T11:43:53Z</time>
      </trkpt>
      <trkpt lat="46.51178" lon="0.40767">
        <ele>138.8</ele>
        <time>2022-09-11T11:43:54Z</time>
      </trkpt>
      <trkpt lat="46.5118" lon="0.40763">
        <ele>138.6</ele>
        <time>2022-09-11T11:43:55Z</time>
      </trkpt>
      <trkpt lat="46.51185" lon="0.40753">
        <ele>138.2</ele>
        <time>2022-09-11T11:43:58Z</time>
      </trkpt>
      <trkpt lat="46.51194" lon="0.40737">
        <ele>137.8</ele>
        <time>2022-09-11T11:44:03Z</time>
      </trkpt>
      <trkpt lat="46.51195" lon="0.40734">
        <ele>137.6</ele>
        <time>2022-09-11T11:44:04Z</time>
      </trkpt>
      <trkpt lat="46.512" lon="0.40715">
        <ele>137.2</ele>
        <time>2022-09-11T11:44:09Z</time>
      </trkpt>
      <trkpt lat="46.51201" lon="0.40702">
        <ele>136.6</ele>
        <time>2022-09-11T11:44:12Z</time>
      </trkpt>
      <trkpt lat="46.51199" lon="0.40699">
        <ele>136.2</ele>
        <time>2022-09-11T11:44:13Z</time>
      </trkpt>
      <trkpt lat="46.51192" lon="0.40684">
        <ele>135.8</ele>
        <time>2022-09-11T11:44:18Z</time>
      </trkpt>
      <trkpt lat="46.51191" lon="0.40681">
        <ele>135.8</ele>
        <time>2022-09-11T11:44:19Z</time>
      </trkpt>
      <trkpt lat="46.51186" lon="0.40677">
        <ele>135.8</ele>
        <time>2022-09-11T11:44:23Z</time>
      </trkpt>
      <trkpt lat="46.51185" lon="0.40675">
        <ele>135.6</ele>
        <time>2022-09-11T11:44:24Z</time>
      </trkpt>
      <trkpt lat="46.51181" lon="0.40665">
        <ele>135.8</ele>
        <time>2022-09-11T11:44:27Z</time>
      </trkpt>
      <trkpt lat="46.5118" lon="0.40663">
        <ele>135.6</ele>
        <time>2022-09-11T11:44:28Z</time>
      </trkpt>
      <trkpt lat="46.51177" lon="0.4066">
        <ele>135.6</ele>
        <time>2022-09-11T11:44:30Z</time>
      </trkpt>
      <trkpt lat="46.51175" lon="0.40657">
        <ele>135.6</ele>
        <time>2022-09-11T11:44:31Z</time>
      </trkpt>
      <trkpt lat="46.51162" lon="0.4064">
        <ele>135.4</ele>
        <time>2022-09-11T11:44:37Z</time>
      </trkpt>
      <trkpt lat="46.51158" lon="0.40631">
        <ele>135.2</ele>
        <time>2022-09-11T11:44:40Z</time>
      </trkpt>
      <trkpt lat="46.51158" lon="0.40628">
        <ele>135</ele>
        <time>2022-09-11T11:44:41Z</time>
      </trkpt>
      <trkpt lat="46.51165" lon="0.40616">
        <ele>134.2</ele>
        <time>2022-09-11T11:44:46Z</time>
      </trkpt>
      <trkpt lat="46.51168" lon="0.40612">
        <ele>134</ele>
        <time>2022-09-11T11:44:47Z</time>
      </trkpt>
      <trkpt lat="46.51169" lon="0.40608">
        <ele>133.6</ele>
        <time>2022-09-11T11:44:48Z</time>
      </trkpt>
      <trkpt lat="46.51171" lon="0.406">
        <ele>133.2</ele>
        <time>2022-09-11T11:44:50Z</time>
      </trkpt>
      <trkpt lat="46.51172" lon="0.40597">
        <ele>133</ele>
        <time>2022-09-11T11:44:51Z</time>
      </trkpt>
      <trkpt lat="46.51173" lon="0.40595">
        <ele>132.6</ele>
        <time>2022-09-11T11:44:52Z</time>
      </trkpt>
      <trkpt lat="46.51175" lon="0.40591">
        <ele>132.2</ele>
        <time>2022-09-11T11:44:54Z</time>
      </trkpt>
      <trkpt lat="46.51177" lon="0.40589">
        <ele>132</ele>
        <time>2022-09-11T11:44:55Z</time>
      </trkpt>
      <trkpt lat="46.51179" lon="0.40588">
        <ele>131.4</ele>
        <time>2022-09-11T11:44:56Z</time>
      </trkpt>
      <trkpt lat="46.51183" lon="0.40587">
        <ele>131</ele>
        <time>2022-09-11T11:44:58Z</time>
      </trkpt>
      <trkpt lat="46.51185" lon="0.40584">
        <ele>131</ele>
        <time>2022-09-11T11:44:59Z</time>
      </trkpt>
      <trkpt lat="46.51187" lon="0.40583">
        <ele>131</ele>
        <time>2022-09-11T11:45:00Z</time>
      </trkpt>
      <trkpt lat="46.51192" lon="0.4058">
        <ele>130.6</ele>
        <time>2022-09-11T11:45:02Z</time>
      </trkpt>
      <trkpt lat="46.51194" lon="0.40578">
        <ele>130.6</ele>
        <time>2022-09-11T11:45:03Z</time>
      </trkpt>
      <trkpt lat="46.51198" lon="0.40572">
        <ele>130</ele>
        <time>2022-09-11T11:45:05Z</time>
      </trkpt>
      <trkpt lat="46.51201" lon="0.40569">
        <ele>129.6</ele>
        <time>2022-09-11T11:45:06Z</time>
      </trkpt>
      <trkpt lat="46.51207" lon="0.4056">
        <ele>129.2</ele>
        <time>2022-09-11T11:45:08Z</time>
      </trkpt>
      <trkpt lat="46.5121" lon="0.40555">
        <ele>128.6</ele>
        <time>2022-09-11T11:45:09Z</time>
      </trkpt>
      <trkpt lat="46.51212" lon="0.40548">
        <ele>128.4</ele>
        <time>2022-09-11T11:45:10Z</time>
      </trkpt>
      <trkpt lat="46.51217" lon="0.40535">
        <ele>127.6</ele>
        <time>2022-09-11T11:45:12Z</time>
      </trkpt>
      <trkpt lat="46.51218" lon="0.4053">
        <ele>126.2</ele>
        <time>2022-09-11T11:45:13Z</time>
      </trkpt>
      <trkpt lat="46.51219" lon="0.40523">
        <ele>124.4</ele>
        <time>2022-09-11T11:45:14Z</time>
      </trkpt>
      <trkpt lat="46.51216" lon="0.40513">
        <ele>123</ele>
        <time>2022-09-11T11:45:16Z</time>
      </trkpt>
      <trkpt lat="46.51214" lon="0.40509">
        <ele>122.6</ele>
        <time>2022-09-11T11:45:17Z</time>
      </trkpt>
      <trkpt lat="46.51208" lon="0.40496">
        <ele>122.6</ele>
        <time>2022-09-11T11:45:20Z</time>
      </trkpt>
      <trkpt lat="46.51201" lon="0.40488">
        <ele>122.4</ele>
        <time>2022-09-11T11:45:22Z</time>
      </trkpt>
      <trkpt lat="46.51181" lon="0.40474">
        <ele>122.4</ele>
        <time>2022-09-11T11:45:27Z</time>
      </trkpt>
      <trkpt lat="46.51173" lon="0.40471">
        <ele>122.2</ele>
        <time>2022-09-11T11:45:29Z</time>
      </trkpt>
      <trkpt lat="46.51156" lon="0.4047">
        <ele>122</ele>
        <time>2022-09-11T11:45:33Z</time>
      </trkpt>
      <trkpt lat="46.51147" lon="0.40472">
        <ele>121.8</ele>
        <time>2022-09-11T11:45:35Z</time>
      </trkpt>
      <trkpt lat="46.51121" lon="0.40481">
        <ele>121.4</ele>
        <time>2022-09-11T11:45:41Z</time>
      </trkpt>
      <trkpt lat="46.51102" lon="0.40481">
        <ele>121.4</ele>
        <time>2022-09-11T11:45:45Z</time>
      </trkpt>
      <trkpt lat="46.51089" lon="0.40478">
        <ele>121.2</ele>
        <time>2022-09-11T11:45:48Z</time>
      </trkpt>
      <trkpt lat="46.51081" lon="0.40477">
        <ele>120.8</ele>
        <time>2022-09-11T11:45:50Z</time>
      </trkpt>
      <trkpt lat="46.51071" lon="0.40477">
        <ele>120.4</ele>
        <time>2022-09-11T11:45:53Z</time>
      </trkpt>
      <trkpt lat="46.51067" lon="0.40486">
        <ele>120.2</ele>
        <time>2022-09-11T11:45:58Z</time>
      </trkpt>
      <trkpt lat="46.51066" lon="0.40487">
        <ele>120.6</ele>
        <time>2022-09-11T11:45:59Z</time>
      </trkpt>
      <trkpt lat="46.51066" lon="0.4049">
        <ele>122</ele>
        <time>2022-09-11T11:46:01Z</time>
      </trkpt>
      <trkpt lat="46.51065" lon="0.40495">
        <ele>123.6</ele>
        <time>2022-09-11T11:46:04Z</time>
      </trkpt>
      <trkpt lat="46.51063" lon="0.40499">
        <ele>124.6</ele>
        <time>2022-09-11T11:46:06Z</time>
      </trkpt>
      <trkpt lat="46.51062" lon="0.40503">
        <ele>125.8</ele>
        <time>2022-09-11T11:46:08Z</time>
      </trkpt>
      <trkpt lat="46.51062" lon="0.40506">
        <ele>126.2</ele>
        <time>2022-09-11T11:46:10Z</time>
      </trkpt>
      <trkpt lat="46.5106" lon="0.40513">
        <ele>126.8</ele>
        <time>2022-09-11T11:46:13Z</time>
      </trkpt>
      <trkpt lat="46.51059" lon="0.40516">
        <ele>127</ele>
        <time>2022-09-11T11:46:15Z</time>
      </trkpt>
      <trkpt lat="46.51058" lon="0.4052">
        <ele>127.6</ele>
        <time>2022-09-11T11:46:17Z</time>
      </trkpt>
      <trkpt lat="46.51057" lon="0.40522">
        <ele>128</ele>
        <time>2022-09-11T11:46:18Z</time>
      </trkpt>
      <trkpt lat="46.51055" lon="0.40531">
        <ele>129.2</ele>
        <time>2022-09-11T11:46:23Z</time>
      </trkpt>
      <trkpt lat="46.51055" lon="0.40535">
        <ele>129.8</ele>
        <time>2022-09-11T11:46:26Z</time>
      </trkpt>
      <trkpt lat="46.51054" lon="0.40537">
        <ele>129.8</ele>
        <time>2022-09-11T11:46:27Z</time>
      </trkpt>
      <trkpt lat="46.51053" lon="0.4054">
        <ele>130.2</ele>
        <time>2022-09-11T11:46:29Z</time>
      </trkpt>
      <trkpt lat="46.5105" lon="0.4055">
        <ele>130.8</ele>
        <time>2022-09-11T11:46:34Z</time>
      </trkpt>
      <trkpt lat="46.5105" lon="0.40554">
        <ele>131</ele>
        <time>2022-09-11T11:46:36Z</time>
      </trkpt>
      <trkpt lat="46.5105" lon="0.40558">
        <ele>131.6</ele>
        <time>2022-09-11T11:46:38Z</time>
      </trkpt>
      <trkpt lat="46.5105" lon="0.4056">
        <ele>131.8</ele>
        <time>2022-09-11T11:46:39Z</time>
      </trkpt>
      <trkpt lat="46.51049" lon="0.40564">
        <ele>132.2</ele>
        <time>2022-09-11T11:46:41Z</time>
      </trkpt>
      <trkpt lat="46.51047" lon="0.40569">
        <ele>132.6</ele>
        <time>2022-09-11T11:46:43Z</time>
      </trkpt>
      <trkpt lat="46.51047" lon="0.40579">
        <ele>133.6</ele>
        <time>2022-09-11T11:46:48Z</time>
      </trkpt>
      <trkpt lat="46.51046" lon="0.40587">
        <ele>134.2</ele>
        <time>2022-09-11T11:46:52Z</time>
      </trkpt>
      <trkpt lat="46.51046" lon="0.40593">
        <ele>134.4</ele>
        <time>2022-09-11T11:46:55Z</time>
      </trkpt>
      <trkpt lat="46.51045" lon="0.40596">
        <ele>134.8</ele>
        <time>2022-09-11T11:46:57Z</time>
      </trkpt>
      <trkpt lat="46.51041" lon="0.40606">
        <ele>135.6</ele>
        <time>2022-09-11T11:47:01Z</time>
      </trkpt>
      <trkpt lat="46.51039" lon="0.40615">
        <ele>135.8</ele>
        <time>2022-09-11T11:47:04Z</time>
      </trkpt>
      <trkpt lat="46.51039" lon="0.40623">
        <ele>136.2</ele>
        <time>2022-09-11T11:47:07Z</time>
      </trkpt>
      <trkpt lat="46.51038" lon="0.40637">
        <ele>137</ele>
        <time>2022-09-11T11:47:12Z</time>
      </trkpt>
      <trkpt lat="46.51037" lon="0.40643">
        <ele>137.2</ele>
        <time>2022-09-11T11:47:14Z</time>
      </trkpt>
      <trkpt lat="46.51034" lon="0.40664">
        <ele>138</ele>
        <time>2022-09-11T11:47:20Z</time>
      </trkpt>
      <trkpt lat="46.51034" lon="0.40668">
        <ele>138.2</ele>
        <time>2022-09-11T11:47:21Z</time>
      </trkpt>
      <trkpt lat="46.51026" lon="0.40695">
        <ele>138.6</ele>
        <time>2022-09-11T11:47:27Z</time>
      </trkpt>
      <trkpt lat="46.51021" lon="0.40703">
        <ele>138.6</ele>
        <time>2022-09-11T11:47:29Z</time>
      </trkpt>
      <trkpt lat="46.51017" lon="0.40705">
        <ele>138.6</ele>
        <time>2022-09-11T11:47:30Z</time>
      </trkpt>
      <trkpt lat="46.51001" lon="0.40704">
        <ele>138</ele>
        <time>2022-09-11T11:47:35Z</time>
      </trkpt>
      <trkpt lat="46.50981" lon="0.40699">
        <ele>137.8</ele>
        <time>2022-09-11T11:47:40Z</time>
      </trkpt>
      <trkpt lat="46.50957" lon="0.4069">
        <ele>137</ele>
        <time>2022-09-11T11:47:46Z</time>
      </trkpt>
      <trkpt lat="46.50953" lon="0.40688">
        <ele>136.8</ele>
        <time>2022-09-11T11:47:47Z</time>
      </trkpt>
      <trkpt lat="46.50927" lon="0.40674">
        <ele>136.2</ele>
        <time>2022-09-11T11:47:53Z</time>
      </trkpt>
      <trkpt lat="46.50923" lon="0.40672">
        <ele>135.8</ele>
        <time>2022-09-11T11:47:54Z</time>
      </trkpt>
      <trkpt lat="46.50909" lon="0.40663">
        <ele>135.2</ele>
        <time>2022-09-11T11:47:57Z</time>
      </trkpt>
      <trkpt lat="46.50899" lon="0.40662">
        <ele>135.2</ele>
        <time>2022-09-11T11:47:59Z</time>
      </trkpt>
      <trkpt lat="46.50891" lon="0.40665">
        <ele>134.8</ele>
        <time>2022-09-11T11:48:01Z</time>
      </trkpt>
      <trkpt lat="46.50891" lon="0.40665">
        <ele>134.4</ele>
        <time>2022-09-11T11:48:02Z</time>
      </trkpt>
      <trkpt lat="46.50885" lon="0.40687">
        <ele>134.2</ele>
        <time>2022-09-11T11:48:05Z</time>
      </trkpt>
      <trkpt lat="46.50878" lon="0.40726">
        <ele>133.4</ele>
        <time>2022-09-11T11:48:11Z</time>
      </trkpt>
      <trkpt lat="46.50869" lon="0.40768">
        <ele>133</ele>
        <time>2022-09-11T11:48:17Z</time>
      </trkpt>
      <trkpt lat="46.50864" lon="0.40794">
        <ele>132</ele>
        <time>2022-09-11T11:48:21Z</time>
      </trkpt>
      <trkpt lat="46.50863" lon="0.40799">
        <ele>131.8</ele>
        <time>2022-09-11T11:48:22Z</time>
      </trkpt>
      <trkpt lat="46.50863" lon="0.40805">
        <ele>131.4</ele>
        <time>2022-09-11T11:48:23Z</time>
      </trkpt>
      <trkpt lat="46.50861" lon="0.4084">
        <ele>130.8</ele>
        <time>2022-09-11T11:48:28Z</time>
      </trkpt>
      <trkpt lat="46.50861" lon="0.40847">
        <ele>130.8</ele>
        <time>2022-09-11T11:48:29Z</time>
      </trkpt>
      <trkpt lat="46.50861" lon="0.40854">
        <ele>130.4</ele>
        <time>2022-09-11T11:48:30Z</time>
      </trkpt>
      <trkpt lat="46.50863" lon="0.40867">
        <ele>130.2</ele>
        <time>2022-09-11T11:48:32Z</time>
      </trkpt>
      <trkpt lat="46.50866" lon="0.4087">
        <ele>130.2</ele>
        <time>2022-09-11T11:48:33Z</time>
      </trkpt>
      <trkpt lat="46.50869" lon="0.40873">
        <ele>130.2</ele>
        <time>2022-09-11T11:48:34Z</time>
      </trkpt>
      <trkpt lat="46.50883" lon="0.40893">
        <ele>130.8</ele>
        <time>2022-09-11T11:48:39Z</time>
      </trkpt>
      <trkpt lat="46.50896" lon="0.40902">
        <ele>131.2</ele>
        <time>2022-09-11T11:48:42Z</time>
      </trkpt>
      <trkpt lat="46.50909" lon="0.40906">
        <ele>131.4</ele>
        <time>2022-09-11T11:48:45Z</time>
      </trkpt>
      <trkpt lat="46.50922" lon="0.40908">
        <ele>131.6</ele>
        <time>2022-09-11T11:48:48Z</time>
      </trkpt>
      <trkpt lat="46.50937" lon="0.40912">
        <ele>132</ele>
        <time>2022-09-11T11:48:52Z</time>
      </trkpt>
      <trkpt lat="46.50953" lon="0.40914">
        <ele>133</ele>
        <time>2022-09-11T11:48:56Z</time>
      </trkpt>
      <trkpt lat="46.50962" lon="0.40916">
        <ele>133.4</ele>
        <time>2022-09-11T11:48:58Z</time>
      </trkpt>
      <trkpt lat="46.50974" lon="0.40918">
        <ele>133.6</ele>
        <time>2022-09-11T11:49:01Z</time>
      </trkpt>
      <trkpt lat="46.50974" lon="0.40918">
        <ele>134.2</ele>
        <time>2022-09-11T11:49:03Z</time>
      </trkpt>
      <trkpt lat="46.50996" lon="0.40923">
        <ele>134.6</ele>
        <time>2022-09-11T11:49:06Z</time>
      </trkpt>
      <trkpt lat="46.51028" lon="0.40929">
        <ele>135.2</ele>
        <time>2022-09-11T11:49:13Z</time>
      </trkpt>
      <trkpt lat="46.51032" lon="0.40929">
        <ele>135.6</ele>
        <time>2022-09-11T11:49:14Z</time>
      </trkpt>
      <trkpt lat="46.51054" lon="0.40931">
        <ele>136.4</ele>
        <time>2022-09-11T11:49:20Z</time>
      </trkpt>
      <trkpt lat="46.51056" lon="0.40931">
        <ele>136.6</ele>
        <time>2022-09-11T11:49:21Z</time>
      </trkpt>
      <trkpt lat="46.51069" lon="0.40933">
        <ele>137.6</ele>
        <time>2022-09-11T11:49:25Z</time>
      </trkpt>
      <trkpt lat="46.5109" lon="0.40935">
        <ele>138.2</ele>
        <time>2022-09-11T11:49:31Z</time>
      </trkpt>
      <trkpt lat="46.51108" lon="0.40941">
        <ele>138.2</ele>
        <time>2022-09-11T11:49:36Z</time>
      </trkpt>
      <trkpt lat="46.5111" lon="0.40941">
        <ele>138.2</ele>
        <time>2022-09-11T11:49:37Z</time>
      </trkpt>
      <trkpt lat="46.51113" lon="0.4094">
        <ele>138.2</ele>
        <time>2022-09-11T11:49:38Z</time>
      </trkpt>
      <trkpt lat="46.51123" lon="0.40932">
        <ele>138</ele>
        <time>2022-09-11T11:49:41Z</time>
      </trkpt>
      <trkpt lat="46.51131" lon="0.40929">
        <ele>138.8</ele>
        <time>2022-09-11T11:49:45Z</time>
      </trkpt>
      <trkpt lat="46.51133" lon="0.40929">
        <ele>139</ele>
        <time>2022-09-11T11:49:46Z</time>
      </trkpt>
      <trkpt lat="46.51142" lon="0.40932">
        <ele>139.8</ele>
        <time>2022-09-11T11:49:50Z</time>
      </trkpt>
      <trkpt lat="46.51147" lon="0.40936">
        <ele>139.8</ele>
        <time>2022-09-11T11:49:52Z</time>
      </trkpt>
      <trkpt lat="46.5115" lon="0.40941">
        <ele>139.6</ele>
        <time>2022-09-11T11:49:55Z</time>
      </trkpt>
      <trkpt lat="46.5115" lon="0.40943">
        <ele>139.6</ele>
        <time>2022-09-11T11:49:56Z</time>
      </trkpt>
      <trkpt lat="46.51146" lon="0.4095">
        <ele>139.2</ele>
        <time>2022-09-11T11:50:00Z</time>
      </trkpt>
      <trkpt lat="46.51147" lon="0.40952">
        <ele>139.2</ele>
        <time>2022-09-11T11:50:01Z</time>
      </trkpt>
      <trkpt lat="46.51156" lon="0.40967">
        <ele>139.4</ele>
        <time>2022-09-11T11:50:06Z</time>
      </trkpt>
      <trkpt lat="46.51169" lon="0.40989">
        <ele>139.8</ele>
        <time>2022-09-11T11:50:12Z</time>
      </trkpt>
      <trkpt lat="46.51183" lon="0.41017">
        <ele>139.4</ele>
        <time>2022-09-11T11:50:19Z</time>
      </trkpt>
      <trkpt lat="46.51185" lon="0.41021">
        <ele>139.4</ele>
        <time>2022-09-11T11:50:20Z</time>
      </trkpt>
      <trkpt lat="46.51187" lon="0.41027">
        <ele>139.4</ele>
        <time>2022-09-11T11:50:22Z</time>
      </trkpt>
      <trkpt lat="46.51181" lon="0.41037">
        <ele>139</ele>
        <time>2022-09-11T11:50:26Z</time>
      </trkpt>
      <trkpt lat="46.51178" lon="0.41038">
        <ele>138.8</ele>
        <time>2022-09-11T11:50:27Z</time>
      </trkpt>
      <trkpt lat="46.51173" lon="0.41039">
        <ele>138.4</ele>
        <time>2022-09-11T11:50:28Z</time>
      </trkpt>
      <trkpt lat="46.51164" lon="0.41038">
        <ele>138</ele>
        <time>2022-09-11T11:50:30Z</time>
      </trkpt>
      <trkpt lat="46.51158" lon="0.41038">
        <ele>137.8</ele>
        <time>2022-09-11T11:50:31Z</time>
      </trkpt>
      <trkpt lat="46.51153" lon="0.41038">
        <ele>137.6</ele>
        <time>2022-09-11T11:50:32Z</time>
      </trkpt>
      <trkpt lat="46.51143" lon="0.4104">
        <ele>135.8</ele>
        <time>2022-09-11T11:50:34Z</time>
      </trkpt>
      <trkpt lat="46.51139" lon="0.41045">
        <ele>134.2</ele>
        <time>2022-09-11T11:50:36Z</time>
      </trkpt>
      <trkpt lat="46.51139" lon="0.4105">
        <ele>133.6</ele>
        <time>2022-09-11T11:50:37Z</time>
      </trkpt>
      <trkpt lat="46.5114" lon="0.41055">
        <ele>133.2</ele>
        <time>2022-09-11T11:50:38Z</time>
      </trkpt>
      <trkpt lat="46.5114" lon="0.41059">
        <ele>132.6</ele>
        <time>2022-09-11T11:50:39Z</time>
      </trkpt>
      <trkpt lat="46.51142" lon="0.41066">
        <ele>131.8</ele>
        <time>2022-09-11T11:50:41Z</time>
      </trkpt>
      <trkpt lat="46.51144" lon="0.4107">
        <ele>130.8</ele>
        <time>2022-09-11T11:50:42Z</time>
      </trkpt>
      <trkpt lat="46.51146" lon="0.41078">
        <ele>129.4</ele>
        <time>2022-09-11T11:50:44Z</time>
      </trkpt>
      <trkpt lat="46.51149" lon="0.41085">
        <ele>128.2</ele>
        <time>2022-09-11T11:50:46Z</time>
      </trkpt>
      <trkpt lat="46.5115" lon="0.41088">
        <ele>127.2</ele>
        <time>2022-09-11T11:50:47Z</time>
      </trkpt>
      <trkpt lat="46.5115" lon="0.41095">
        <ele>126</ele>
        <time>2022-09-11T11:50:49Z</time>
      </trkpt>
      <trkpt lat="46.5115" lon="0.411">
        <ele>125</ele>
        <time>2022-09-11T11:50:51Z</time>
      </trkpt>
      <trkpt lat="46.5115" lon="0.41101">
        <ele>124.4</ele>
        <time>2022-09-11T11:50:52Z</time>
      </trkpt>
      <trkpt lat="46.5115" lon="0.41101">
        <ele>124</ele>
        <time>2022-09-11T11:50:53Z</time>
      </trkpt>
      <trkpt lat="46.51145" lon="0.41098">
        <ele>123.4</ele>
        <time>2022-09-11T11:50:56Z</time>
      </trkpt>
      <trkpt lat="46.51138" lon="0.41095">
        <ele>123</ele>
        <time>2022-09-11T11:50:58Z</time>
      </trkpt>
      <trkpt lat="46.51135" lon="0.41094">
        <ele>123</ele>
        <time>2022-09-11T11:50:59Z</time>
      </trkpt>
      <trkpt lat="46.51129" lon="0.41091">
        <ele>122.6</ele>
        <time>2022-09-11T11:51:01Z</time>
      </trkpt>
      <trkpt lat="46.5112" lon="0.41088">
        <ele>122</ele>
        <time>2022-09-11T11:51:03Z</time>
      </trkpt>
      <trkpt lat="46.51115" lon="0.41087">
        <ele>121.8</ele>
        <time>2022-09-11T11:51:04Z</time>
      </trkpt>
      <trkpt lat="46.51103" lon="0.41084">
        <ele>121.6</ele>
        <time>2022-09-11T11:51:07Z</time>
      </trkpt>
      <trkpt lat="46.51099" lon="0.41082">
        <ele>121.6</ele>
        <time>2022-09-11T11:51:08Z</time>
      </trkpt>
      <trkpt lat="46.51078" lon="0.41077">
        <ele>120.6</ele>
        <time>2022-09-11T11:51:12Z</time>
      </trkpt>
      <trkpt lat="46.51067" lon="0.41074">
        <ele>119.4</ele>
        <time>2022-09-11T11:51:14Z</time>
      </trkpt>
      <trkpt lat="46.51045" lon="0.41067">
        <ele>118.4</ele>
        <time>2022-09-11T11:51:18Z</time>
      </trkpt>
      <trkpt lat="46.5104" lon="0.41065">
        <ele>118.4</ele>
        <time>2022-09-11T11:51:19Z</time>
      </trkpt>
      <trkpt lat="46.51012" lon="0.41056">
        <ele>118.6</ele>
        <time>2022-09-11T11:51:24Z</time>
      </trkpt>
      <trkpt lat="46.50981" lon="0.41045">
        <ele>119</ele>
        <time>2022-09-11T11:51:30Z</time>
      </trkpt>
      <trkpt lat="46.50951" lon="0.41039">
        <ele>119</ele>
        <time>2022-09-11T11:51:35Z</time>
      </trkpt>
      <trkpt lat="46.50947" lon="0.41037">
        <ele>119</ele>
        <time>2022-09-11T11:51:36Z</time>
      </trkpt>
      <trkpt lat="46.50921" lon="0.41026">
        <ele>119</ele>
        <time>2022-09-11T11:51:42Z</time>
      </trkpt>
      <trkpt lat="46.50901" lon="0.41019">
        <ele>119.2</ele>
        <time>2022-09-11T11:51:47Z</time>
      </trkpt>
      <trkpt lat="46.50897" lon="0.41017">
        <ele>119.4</ele>
        <time>2022-09-11T11:51:48Z</time>
      </trkpt>
      <trkpt lat="46.5087" lon="0.41003">
        <ele>120.2</ele>
        <time>2022-09-11T11:51:54Z</time>
      </trkpt>
      <trkpt lat="46.50856" lon="0.40996">
        <ele>120.6</ele>
        <time>2022-09-11T11:51:57Z</time>
      </trkpt>
      <trkpt lat="46.50837" lon="0.4099">
        <ele>121</ele>
        <time>2022-09-11T11:52:01Z</time>
      </trkpt>
      <trkpt lat="46.50827" lon="0.40989">
        <ele>121</ele>
        <time>2022-09-11T11:52:03Z</time>
      </trkpt>
      <trkpt lat="46.50807" lon="0.40983">
        <ele>120.8</ele>
        <time>2022-09-11T11:52:07Z</time>
      </trkpt>
      <trkpt lat="46.50802" lon="0.4098">
        <ele>120.8</ele>
        <time>2022-09-11T11:52:08Z</time>
      </trkpt>
      <trkpt lat="46.50784" lon="0.40967">
        <ele>120</ele>
        <time>2022-09-11T11:52:12Z</time>
      </trkpt>
      <trkpt lat="46.5076" lon="0.40948">
        <ele>120</ele>
        <time>2022-09-11T11:52:17Z</time>
      </trkpt>
      <trkpt lat="46.50734" lon="0.40925">
        <ele>120.4</ele>
        <time>2022-09-11T11:52:23Z</time>
      </trkpt>
      <trkpt lat="46.50714" lon="0.40903">
        <ele>120.2</ele>
        <time>2022-09-11T11:52:28Z</time>
      </trkpt>
      <trkpt lat="46.50699" lon="0.40883">
        <ele>120.2</ele>
        <time>2022-09-11T11:52:32Z</time>
      </trkpt>
      <trkpt lat="46.50691" lon="0.40866">
        <ele>120.2</ele>
        <time>2022-09-11T11:52:35Z</time>
      </trkpt>
      <trkpt lat="46.50687" lon="0.40848">
        <ele>120</ele>
        <time>2022-09-11T11:52:38Z</time>
      </trkpt>
      <trkpt lat="46.50687" lon="0.40842">
        <ele>120</ele>
        <time>2022-09-11T11:52:39Z</time>
      </trkpt>
      <trkpt lat="46.50693" lon="0.40805">
        <ele>120.6</ele>
        <time>2022-09-11T11:52:45Z</time>
      </trkpt>
      <trkpt lat="46.50696" lon="0.40798">
        <ele>120.6</ele>
        <time>2022-09-11T11:52:46Z</time>
      </trkpt>
      <trkpt lat="46.50706" lon="0.40773">
        <ele>120.2</ele>
        <time>2022-09-11T11:52:50Z</time>
      </trkpt>
      <trkpt lat="46.50721" lon="0.40757">
        <ele>120</ele>
        <time>2022-09-11T11:52:55Z</time>
      </trkpt>
      <trkpt lat="46.50735" lon="0.40747">
        <ele>121</ele>
        <time>2022-09-11T11:53:00Z</time>
      </trkpt>
      <trkpt lat="46.50738" lon="0.40746">
        <ele>121</ele>
        <time>2022-09-11T11:53:01Z</time>
      </trkpt>
      <trkpt lat="46.50742" lon="0.40746">
        <ele>121.8</ele>
        <time>2022-09-11T11:53:03Z</time>
      </trkpt>
      <trkpt lat="46.50746" lon="0.40746">
        <ele>122.8</ele>
        <time>2022-09-11T11:53:06Z</time>
      </trkpt>
      <trkpt lat="46.50748" lon="0.40745">
        <ele>123.2</ele>
        <time>2022-09-11T11:53:07Z</time>
      </trkpt>
      <trkpt lat="46.50754" lon="0.40741">
        <ele>123.8</ele>
        <time>2022-09-11T11:53:10Z</time>
      </trkpt>
      <trkpt lat="46.5076" lon="0.40734">
        <ele>124.8</ele>
        <time>2022-09-11T11:53:13Z</time>
      </trkpt>
      <trkpt lat="46.50761" lon="0.40732">
        <ele>125</ele>
        <time>2022-09-11T11:53:14Z</time>
      </trkpt>
      <trkpt lat="46.50769" lon="0.40723">
        <ele>125.4</ele>
        <time>2022-09-11T11:53:18Z</time>
      </trkpt>
      <trkpt lat="46.50771" lon="0.40721">
        <ele>125.4</ele>
        <time>2022-09-11T11:53:19Z</time>
      </trkpt>
      <trkpt lat="46.50778" lon="0.4072">
        <ele>126</ele>
        <time>2022-09-11T11:53:23Z</time>
      </trkpt>
      <trkpt lat="46.50782" lon="0.40718">
        <ele>126.8</ele>
        <time>2022-09-11T11:53:25Z</time>
      </trkpt>
      <trkpt lat="46.50784" lon="0.40717">
        <ele>127</ele>
        <time>2022-09-11T11:53:26Z</time>
      </trkpt>
      <trkpt lat="46.50785" lon="0.40716">
        <ele>127.2</ele>
        <time>2022-09-11T11:53:27Z</time>
      </trkpt>
      <trkpt lat="46.50787" lon="0.40709">
        <ele>127.6</ele>
        <time>2022-09-11T11:53:30Z</time>
      </trkpt>
      <trkpt lat="46.50788" lon="0.40706">
        <ele>127.6</ele>
        <time>2022-09-11T11:53:31Z</time>
      </trkpt>
      <trkpt lat="46.50793" lon="0.407">
        <ele>127.4</ele>
        <time>2022-09-11T11:53:34Z</time>
      </trkpt>
      <trkpt lat="46.50795" lon="0.40695">
        <ele>125.8</ele>
        <time>2022-09-11T11:53:37Z</time>
      </trkpt>
      <trkpt lat="46.50799" lon="0.40691">
        <ele>125.2</ele>
        <time>2022-09-11T11:53:40Z</time>
      </trkpt>
      <trkpt lat="46.50803" lon="0.40687">
        <ele>125</ele>
        <time>2022-09-11T11:53:50Z</time>
      </trkpt>
      <trkpt lat="46.50811" lon="0.40679">
        <ele>127</ele>
        <time>2022-09-11T11:54:03Z</time>
      </trkpt>
      <trkpt lat="46.50811" lon="0.40678">
        <ele>127.2</ele>
        <time>2022-09-11T11:54:04Z</time>
      </trkpt>
      <trkpt lat="46.50815" lon="0.40672">
        <ele>127.8</ele>
        <time>2022-09-11T11:54:09Z</time>
      </trkpt>
      <trkpt lat="46.50816" lon="0.4067">
        <ele>128</ele>
        <time>2022-09-11T11:54:10Z</time>
      </trkpt>
      <trkpt lat="46.5082" lon="0.40665">
        <ele>128.4</ele>
        <time>2022-09-11T11:54:16Z</time>
      </trkpt>
      <trkpt lat="46.50827" lon="0.40655">
        <ele>128</ele>
        <time>2022-09-11T11:54:25Z</time>
      </trkpt>
      <trkpt lat="46.50829" lon="0.40653">
        <ele>127.8</ele>
        <time>2022-09-11T11:54:27Z</time>
      </trkpt>
      <trkpt lat="46.50832" lon="0.40649">
        <ele>128.4</ele>
        <time>2022-09-11T11:54:35Z</time>
      </trkpt>
      <trkpt lat="46.50835" lon="0.40643">
        <ele>128.8</ele>
        <time>2022-09-11T11:54:43Z</time>
      </trkpt>
      <trkpt lat="46.50835" lon="0.40642">
        <ele>129</ele>
        <time>2022-09-11T11:54:45Z</time>
      </trkpt>
      <trkpt lat="46.50836" lon="0.40641">
        <ele>129</ele>
        <time>2022-09-11T11:54:47Z</time>
      </trkpt>
      <trkpt lat="46.5084" lon="0.40638">
        <ele>129.8</ele>
        <time>2022-09-11T11:54:59Z</time>
      </trkpt>
      <trkpt lat="46.50841" lon="0.40631">
        <ele>129.8</ele>
        <time>2022-09-11T11:55:06Z</time>
      </trkpt>
      <trkpt lat="46.50842" lon="0.40627">
        <ele>129.6</ele>
        <time>2022-09-11T11:55:09Z</time>
      </trkpt>
      <trkpt lat="46.50845" lon="0.40622">
        <ele>129.2</ele>
        <time>2022-09-11T11:55:13Z</time>
      </trkpt>
      <trkpt lat="46.50847" lon="0.40619">
        <ele>129.4</ele>
        <time>2022-09-11T11:55:15Z</time>
      </trkpt>
      <trkpt lat="46.50849" lon="0.40615">
        <ele>129.4</ele>
        <time>2022-09-11T11:55:18Z</time>
      </trkpt>
      <trkpt lat="46.5085" lon="0.4061">
        <ele>129.4</ele>
        <time>2022-09-11T11:55:20Z</time>
      </trkpt>
      <trkpt lat="46.50853" lon="0.40596">
        <ele>130.2</ele>
        <time>2022-09-11T11:55:26Z</time>
      </trkpt>
      <trkpt lat="46.50861" lon="0.40583">
        <ele>131</ele>
        <time>2022-09-11T11:55:32Z</time>
      </trkpt>
      <trkpt lat="46.50862" lon="0.40582">
        <ele>131.4</ele>
        <time>2022-09-11T11:55:33Z</time>
      </trkpt>
      <trkpt lat="46.50867" lon="0.40574">
        <ele>131.6</ele>
        <time>2022-09-11T11:55:37Z</time>
      </trkpt>
      <trkpt lat="46.50868" lon="0.4057">
        <ele>131.6</ele>
        <time>2022-09-11T11:55:39Z</time>
      </trkpt>
      <trkpt lat="46.50877" lon="0.40566">
        <ele>132</ele>
        <time>2022-09-11T11:55:44Z</time>
      </trkpt>
      <trkpt lat="46.50878" lon="0.40555">
        <ele>131.8</ele>
        <time>2022-09-11T11:55:48Z</time>
      </trkpt>
      <trkpt lat="46.50879" lon="0.40553">
        <ele>131.8</ele>
        <time>2022-09-11T11:55:49Z</time>
      </trkpt>
      <trkpt lat="46.50883" lon="0.40542">
        <ele>131.4</ele>
        <time>2022-09-11T11:55:53Z</time>
      </trkpt>
      <trkpt lat="46.50885" lon="0.4053">
        <ele>130.6</ele>
        <time>2022-09-11T11:55:59Z</time>
      </trkpt>
      <trkpt lat="46.50886" lon="0.40526">
        <ele>130.2</ele>
        <time>2022-09-11T11:56:01Z</time>
      </trkpt>
      <trkpt lat="46.50887" lon="0.40519">
        <ele>130.2</ele>
        <time>2022-09-11T11:56:03Z</time>
      </trkpt>
      <trkpt lat="46.50888" lon="0.40517">
        <ele>130.2</ele>
        <time>2022-09-11T11:56:04Z</time>
      </trkpt>
      <trkpt lat="46.50888" lon="0.40513">
        <ele>130.2</ele>
        <time>2022-09-11T11:56:05Z</time>
      </trkpt>
      <trkpt lat="46.50888" lon="0.40502">
        <ele>129.2</ele>
        <time>2022-09-11T11:56:08Z</time>
      </trkpt>
      <trkpt lat="46.5089" lon="0.40483">
        <ele>128</ele>
        <time>2022-09-11T11:56:12Z</time>
      </trkpt>
      <trkpt lat="46.5089" lon="0.40472">
        <ele>127.8</ele>
        <time>2022-09-11T11:56:14Z</time>
      </trkpt>
      <trkpt lat="46.5089" lon="0.40461">
        <ele>126.8</ele>
        <time>2022-09-11T11:56:16Z</time>
      </trkpt>
      <trkpt lat="46.50891" lon="0.40454">
        <ele>126.4</ele>
        <time>2022-09-11T11:56:17Z</time>
      </trkpt>
      <trkpt lat="46.5089" lon="0.40446">
        <ele>125</ele>
        <time>2022-09-11T11:56:19Z</time>
      </trkpt>
      <trkpt lat="46.50889" lon="0.40443">
        <ele>123.8</ele>
        <time>2022-09-11T11:56:20Z</time>
      </trkpt>
      <trkpt lat="46.50887" lon="0.40438">
        <ele>122.8</ele>
        <time>2022-09-11T11:56:22Z</time>
      </trkpt>
      <trkpt lat="46.50881" lon="0.40428">
        <ele>121.2</ele>
        <time>2022-09-11T11:56:26Z</time>
      </trkpt>
      <trkpt lat="46.50881" lon="0.40426">
        <ele>120.4</ele>
        <time>2022-09-11T11:56:27Z</time>
      </trkpt>
      <trkpt lat="46.5088" lon="0.40425">
        <ele>119.8</ele>
        <time>2022-09-11T11:56:28Z</time>
      </trkpt>
      <trkpt lat="46.5088" lon="0.40424">
        <ele>119.2</ele>
        <time>2022-09-11T11:56:29Z</time>
      </trkpt>
      <trkpt lat="46.50877" lon="0.40421">
        <ele>118.2</ele>
        <time>2022-09-11T11:56:31Z</time>
      </trkpt>
      <trkpt lat="46.50875" lon="0.40418">
        <ele>117.8</ele>
        <time>2022-09-11T11:56:32Z</time>
      </trkpt>
      <trkpt lat="46.50873" lon="0.40414">
        <ele>117.6</ele>
        <time>2022-09-11T11:56:33Z</time>
      </trkpt>
      <trkpt lat="46.50873" lon="0.40405">
        <ele>117</ele>
        <time>2022-09-11T11:56:35Z</time>
      </trkpt>
      <trkpt lat="46.50874" lon="0.40402">
        <ele>116.8</ele>
        <time>2022-09-11T11:56:36Z</time>
      </trkpt>
      <trkpt lat="46.50879" lon="0.40381">
        <ele>117</ele>
        <time>2022-09-11T11:56:42Z</time>
      </trkpt>
      <trkpt lat="46.50885" lon="0.4036">
        <ele>117</ele>
        <time>2022-09-11T11:56:48Z</time>
      </trkpt>
      <trkpt lat="46.50893" lon="0.40325">
        <ele>117.6</ele>
        <time>2022-09-11T11:56:56Z</time>
      </trkpt>
      <trkpt lat="46.50893" lon="0.40313">
        <ele>117.8</ele>
        <time>2022-09-11T11:56:59Z</time>
      </trkpt>
      <trkpt lat="46.50891" lon="0.4031">
        <ele>118</ele>
        <time>2022-09-11T11:57:00Z</time>
      </trkpt>
      <trkpt lat="46.50889" lon="0.40308">
        <ele>118.2</ele>
        <time>2022-09-11T11:57:01Z</time>
      </trkpt>
      <trkpt lat="46.50873" lon="0.40307">
        <ele>118.6</ele>
        <time>2022-09-11T11:57:06Z</time>
      </trkpt>
      <trkpt lat="46.50852" lon="0.40309">
        <ele>119.2</ele>
        <time>2022-09-11T11:57:12Z</time>
      </trkpt>
      <trkpt lat="46.50845" lon="0.4031">
        <ele>119.4</ele>
        <time>2022-09-11T11:57:14Z</time>
      </trkpt>
      <trkpt lat="46.50825" lon="0.40313">
        <ele>119.6</ele>
        <time>2022-09-11T11:57:19Z</time>
      </trkpt>
      <trkpt lat="46.50815" lon="0.40313">
        <ele>119.6</ele>
        <time>2022-09-11T11:57:21Z</time>
      </trkpt>
      <trkpt lat="46.50806" lon="0.40311">
        <ele>119.2</ele>
        <time>2022-09-11T11:57:23Z</time>
      </trkpt>
      <trkpt lat="46.50801" lon="0.40309">
        <ele>119</ele>
        <time>2022-09-11T11:57:24Z</time>
      </trkpt>
      <trkpt lat="46.50772" lon="0.40299">
        <ele>119.4</ele>
        <time>2022-09-11T11:57:31Z</time>
      </trkpt>
      <trkpt lat="46.50769" lon="0.40299">
        <ele>119.6</ele>
        <time>2022-09-11T11:57:32Z</time>
      </trkpt>
      <trkpt lat="46.50758" lon="0.40304">
        <ele>120.4</ele>
        <time>2022-09-11T11:57:36Z</time>
      </trkpt>
      <trkpt lat="46.50756" lon="0.40305">
        <ele>120.6</ele>
        <time>2022-09-11T11:57:37Z</time>
      </trkpt>
      <trkpt lat="46.5075" lon="0.40306">
        <ele>121.4</ele>
        <time>2022-09-11T11:57:40Z</time>
      </trkpt>
      <trkpt lat="46.50746" lon="0.40306">
        <ele>122.4</ele>
        <time>2022-09-11T11:57:43Z</time>
      </trkpt>
      <trkpt lat="46.50744" lon="0.40305">
        <ele>122.6</ele>
        <time>2022-09-11T11:57:44Z</time>
      </trkpt>
      <trkpt lat="46.50739" lon="0.40305">
        <ele>124</ele>
        <time>2022-09-11T11:57:48Z</time>
      </trkpt>
      <trkpt lat="46.50736" lon="0.40304">
        <ele>125.4</ele>
        <time>2022-09-11T11:57:51Z</time>
      </trkpt>
      <trkpt lat="46.50729" lon="0.40306">
        <ele>126.6</ele>
        <time>2022-09-11T11:57:56Z</time>
      </trkpt>
      <trkpt lat="46.50726" lon="0.40306">
        <ele>127.4</ele>
        <time>2022-09-11T11:57:59Z</time>
      </trkpt>
      <trkpt lat="46.50725" lon="0.40306">
        <ele>127.8</ele>
        <time>2022-09-11T11:58:00Z</time>
      </trkpt>
      <trkpt lat="46.50722" lon="0.40306">
        <ele>128.8</ele>
        <time>2022-09-11T11:58:03Z</time>
      </trkpt>
      <trkpt lat="46.50718" lon="0.40304">
        <ele>130.2</ele>
        <time>2022-09-11T11:58:07Z</time>
      </trkpt>
      <trkpt lat="46.50716" lon="0.40303">
        <ele>130.8</ele>
        <time>2022-09-11T11:58:09Z</time>
      </trkpt>
      <trkpt lat="46.50714" lon="0.40302">
        <ele>131.2</ele>
        <time>2022-09-11T11:58:11Z</time>
      </trkpt>
      <trkpt lat="46.50707" lon="0.403">
        <ele>132</ele>
        <time>2022-09-11T11:58:17Z</time>
      </trkpt>
      <trkpt lat="46.50706" lon="0.403">
        <ele>132.4</ele>
        <time>2022-09-11T11:58:18Z</time>
      </trkpt>
      <trkpt lat="46.50705" lon="0.40297">
        <ele>132.6</ele>
        <time>2022-09-11T11:58:20Z</time>
      </trkpt>
      <trkpt lat="46.50701" lon="0.4029">
        <ele>133</ele>
        <time>2022-09-11T11:58:25Z</time>
      </trkpt>
      <trkpt lat="46.50698" lon="0.40277">
        <ele>133.6</ele>
        <time>2022-09-11T11:58:31Z</time>
      </trkpt>
      <trkpt lat="46.50698" lon="0.40272">
        <ele>134</ele>
        <time>2022-09-11T11:58:33Z</time>
      </trkpt>
      <trkpt lat="46.50694" lon="0.40253">
        <ele>134</ele>
        <time>2022-09-11T11:58:40Z</time>
      </trkpt>
      <trkpt lat="46.50691" lon="0.40224">
        <ele>134.6</ele>
        <time>2022-09-11T11:58:47Z</time>
      </trkpt>
      <trkpt lat="46.50691" lon="0.40196">
        <ele>134.6</ele>
        <time>2022-09-11T11:58:53Z</time>
      </trkpt>
      <trkpt lat="46.50693" lon="0.40179">
        <ele>134.4</ele>
        <time>2022-09-11T11:58:56Z</time>
      </trkpt>
      <trkpt lat="46.50697" lon="0.40154">
        <ele>134.4</ele>
        <time>2022-09-11T11:59:00Z</time>
      </trkpt>
      <trkpt lat="46.5071" lon="0.40097">
        <ele>133.6</ele>
        <time>2022-09-11T11:59:08Z</time>
      </trkpt>
      <trkpt lat="46.50727" lon="0.40042">
        <ele>132.6</ele>
        <time>2022-09-11T11:59:15Z</time>
      </trkpt>
      <trkpt lat="46.50729" lon="0.40034">
        <ele>132.4</ele>
        <time>2022-09-11T11:59:16Z</time>
      </trkpt>
      <trkpt lat="46.50745" lon="0.39979">
        <ele>131.4</ele>
        <time>2022-09-11T11:59:22Z</time>
      </trkpt>
      <trkpt lat="46.50754" lon="0.39949">
        <ele>130.4</ele>
        <time>2022-09-11T11:59:25Z</time>
      </trkpt>
      <trkpt lat="46.50766" lon="0.39909">
        <ele>129.2</ele>
        <time>2022-09-11T11:59:29Z</time>
      </trkpt>
      <trkpt lat="46.50769" lon="0.399">
        <ele>129.2</ele>
        <time>2022-09-11T11:59:30Z</time>
      </trkpt>
      <trkpt lat="46.50778" lon="0.39871">
        <ele>128.2</ele>
        <time>2022-09-11T11:59:33Z</time>
      </trkpt>
      <trkpt lat="46.50781" lon="0.39861">
        <ele>127.6</ele>
        <time>2022-09-11T11:59:34Z</time>
      </trkpt>
      <trkpt lat="46.50783" lon="0.39851">
        <ele>127</ele>
        <time>2022-09-11T11:59:35Z</time>
      </trkpt>
      <trkpt lat="46.50788" lon="0.39831">
        <ele>126.4</ele>
        <time>2022-09-11T11:59:37Z</time>
      </trkpt>
      <trkpt lat="46.50794" lon="0.3981">
        <ele>125.8</ele>
        <time>2022-09-11T11:59:39Z</time>
      </trkpt>
      <trkpt lat="46.50797" lon="0.39799">
        <ele>124.8</ele>
        <time>2022-09-11T11:59:40Z</time>
      </trkpt>
      <trkpt lat="46.50802" lon="0.3979">
        <ele>124</ele>
        <time>2022-09-11T11:59:41Z</time>
      </trkpt>
      <trkpt lat="46.50806" lon="0.39781">
        <ele>123.8</ele>
        <time>2022-09-11T11:59:42Z</time>
      </trkpt>
      <trkpt lat="46.50812" lon="0.39774">
        <ele>123.4</ele>
        <time>2022-09-11T11:59:43Z</time>
      </trkpt>
      <trkpt lat="46.50827" lon="0.39759">
        <ele>122.8</ele>
        <time>2022-09-11T11:59:46Z</time>
      </trkpt>
      <trkpt lat="46.5083" lon="0.39757">
        <ele>122.4</ele>
        <time>2022-09-11T11:59:47Z</time>
      </trkpt>
      <trkpt lat="46.50832" lon="0.39754">
        <ele>120.6</ele>
        <time>2022-09-11T11:59:48Z</time>
      </trkpt>
      <trkpt lat="46.50832" lon="0.39752">
        <ele>119.4</ele>
        <time>2022-09-11T11:59:49Z</time>
      </trkpt>
      <trkpt lat="46.5083" lon="0.39748">
        <ele>118.4</ele>
        <time>2022-09-11T11:59:51Z</time>
      </trkpt>
      <trkpt lat="46.50828" lon="0.39747">
        <ele>117.8</ele>
        <time>2022-09-11T11:59:52Z</time>
      </trkpt>
      <trkpt lat="46.50826" lon="0.39747">
        <ele>117.6</ele>
        <time>2022-09-11T11:59:53Z</time>
      </trkpt>
      <trkpt lat="46.50825" lon="0.39747">
        <ele>117.4</ele>
        <time>2022-09-11T11:59:54Z</time>
      </trkpt>
      <trkpt lat="46.50819" lon="0.39749">
        <ele>117.4</ele>
        <time>2022-09-11T11:59:57Z</time>
      </trkpt>
      <trkpt lat="46.50817" lon="0.39748">
        <ele>117.2</ele>
        <time>2022-09-11T11:59:58Z</time>
      </trkpt>
      <trkpt lat="46.50802" lon="0.3974">
        <ele>116.8</ele>
        <time>2022-09-11T12:00:03Z</time>
      </trkpt>
      <trkpt lat="46.50796" lon="0.39736">
        <ele>116.8</ele>
        <time>2022-09-11T12:00:05Z</time>
      </trkpt>
      <trkpt lat="46.50789" lon="0.39735">
        <ele>116.6</ele>
        <time>2022-09-11T12:00:08Z</time>
      </trkpt>
      <trkpt lat="46.50777" lon="0.39732">
        <ele>116.4</ele>
        <time>2022-09-11T12:00:12Z</time>
      </trkpt>
      <trkpt lat="46.50774" lon="0.39733">
        <ele>116.4</ele>
        <time>2022-09-11T12:00:13Z</time>
      </trkpt>
      <trkpt lat="46.50768" lon="0.39733">
        <ele>116.4</ele>
        <time>2022-09-11T12:00:15Z</time>
      </trkpt>
      <trkpt lat="46.50763" lon="0.39733">
        <ele>116.2</ele>
        <time>2022-09-11T12:00:17Z</time>
      </trkpt>
      <trkpt lat="46.50761" lon="0.39733">
        <ele>116.2</ele>
        <time>2022-09-11T12:00:18Z</time>
      </trkpt>
      <trkpt lat="46.50747" lon="0.39734">
        <ele>116</ele>
        <time>2022-09-11T12:00:23Z</time>
      </trkpt>
      <trkpt lat="46.50735" lon="0.39738">
        <ele>116</ele>
        <time>2022-09-11T12:00:28Z</time>
      </trkpt>
      <trkpt lat="46.50722" lon="0.39738">
        <ele>116</ele>
        <time>2022-09-11T12:00:34Z</time>
      </trkpt>
      <trkpt lat="46.50697" lon="0.39743">
        <ele>115.4</ele>
        <time>2022-09-11T12:00:40Z</time>
      </trkpt>
      <trkpt lat="46.50666" lon="0.39744">
        <ele>115.6</ele>
        <time>2022-09-11T12:00:47Z</time>
      </trkpt>
      <trkpt lat="46.50632" lon="0.39744">
        <ele>115.4</ele>
        <time>2022-09-11T12:00:53Z</time>
      </trkpt>
      <trkpt lat="46.50626" lon="0.39745">
        <ele>115.2</ele>
        <time>2022-09-11T12:00:54Z</time>
      </trkpt>
      <trkpt lat="46.50602" lon="0.39749">
        <ele>115.2</ele>
        <time>2022-09-11T12:00:59Z</time>
      </trkpt>
      <trkpt lat="46.50573" lon="0.39747">
        <ele>115.4</ele>
        <time>2022-09-11T12:01:05Z</time>
      </trkpt>
      <trkpt lat="46.50553" lon="0.39742">
        <ele>115.6</ele>
        <time>2022-09-11T12:01:09Z</time>
      </trkpt>
      <trkpt lat="46.50544" lon="0.3974">
        <ele>115.8</ele>
        <time>2022-09-11T12:01:11Z</time>
      </trkpt>
      <trkpt lat="46.50533" lon="0.39741">
        <ele>116.2</ele>
        <time>2022-09-11T12:01:14Z</time>
      </trkpt>
      <trkpt lat="46.50529" lon="0.39739">
        <ele>116.4</ele>
        <time>2022-09-11T12:01:15Z</time>
      </trkpt>
      <trkpt lat="46.50526" lon="0.39738">
        <ele>116.4</ele>
        <time>2022-09-11T12:01:16Z</time>
      </trkpt>
      <trkpt lat="46.50501" lon="0.39724">
        <ele>116.6</ele>
        <time>2022-09-11T12:01:22Z</time>
      </trkpt>
      <trkpt lat="46.50488" lon="0.39715">
        <ele>117.2</ele>
        <time>2022-09-11T12:01:26Z</time>
      </trkpt>
      <trkpt lat="46.50486" lon="0.3971">
        <ele>117.4</ele>
        <time>2022-09-11T12:01:27Z</time>
      </trkpt>
      <trkpt lat="46.50484" lon="0.39705">
        <ele>117.4</ele>
        <time>2022-09-11T12:01:28Z</time>
      </trkpt>
      <trkpt lat="46.50475" lon="0.39681">
        <ele>118</ele>
        <time>2022-09-11T12:01:32Z</time>
      </trkpt>
      <trkpt lat="46.50467" lon="0.39651">
        <ele>118</ele>
        <time>2022-09-11T12:01:37Z</time>
      </trkpt>
      <trkpt lat="46.50466" lon="0.39645">
        <ele>118</ele>
        <time>2022-09-11T12:01:38Z</time>
      </trkpt>
      <trkpt lat="46.50459" lon="0.39614">
        <ele>118.4</ele>
        <time>2022-09-11T12:01:43Z</time>
      </trkpt>
      <trkpt lat="46.50459" lon="0.39608">
        <ele>118.4</ele>
        <time>2022-09-11T12:01:44Z</time>
      </trkpt>
      <trkpt lat="46.50458" lon="0.39602">
        <ele>118.6</ele>
        <time>2022-09-11T12:01:45Z</time>
      </trkpt>
      <trkpt lat="46.50459" lon="0.39581">
        <ele>118.6</ele>
        <time>2022-09-11T12:01:48Z</time>
      </trkpt>
      <trkpt lat="46.50461" lon="0.39565">
        <ele>118.4</ele>
        <time>2022-09-11T12:01:50Z</time>
      </trkpt>
      <trkpt lat="46.50472" lon="0.39521">
        <ele>117.8</ele>
        <time>2022-09-11T12:01:56Z</time>
      </trkpt>
      <trkpt lat="46.50471" lon="0.39507">
        <ele>117.6</ele>
        <time>2022-09-11T12:01:58Z</time>
      </trkpt>
      <trkpt lat="46.5047" lon="0.39499">
        <ele>117.6</ele>
        <time>2022-09-11T12:01:59Z</time>
      </trkpt>
      <trkpt lat="46.50461" lon="0.3947">
        <ele>117.8</ele>
        <time>2022-09-11T12:02:03Z</time>
      </trkpt>
      <trkpt lat="46.50455" lon="0.3946">
        <ele>118.2</ele>
        <time>2022-09-11T12:02:05Z</time>
      </trkpt>
      <trkpt lat="46.50443" lon="0.39447">
        <ele>118.6</ele>
        <time>2022-09-11T12:02:08Z</time>
      </trkpt>
      <trkpt lat="46.50429" lon="0.3943">
        <ele>119</ele>
        <time>2022-09-11T12:02:12Z</time>
      </trkpt>
      <trkpt lat="46.5041" lon="0.3941">
        <ele>119.4</ele>
        <time>2022-09-11T12:02:17Z</time>
      </trkpt>
      <trkpt lat="46.50399" lon="0.394">
        <ele>119.8</ele>
        <time>2022-09-11T12:02:20Z</time>
      </trkpt>
      <trkpt lat="46.50379" lon="0.39381">
        <ele>120.4</ele>
        <time>2022-09-11T12:02:25Z</time>
      </trkpt>
      <trkpt lat="46.50373" lon="0.39378">
        <ele>120.6</ele>
        <time>2022-09-11T12:02:26Z</time>
      </trkpt>
      <trkpt lat="46.50365" lon="0.3937">
        <ele>120.6</ele>
        <time>2022-09-11T12:02:28Z</time>
      </trkpt>
      <trkpt lat="46.50358" lon="0.3936">
        <ele>120.8</ele>
        <time>2022-09-11T12:02:30Z</time>
      </trkpt>
      <trkpt lat="46.50353" lon="0.39351">
        <ele>121</ele>
        <time>2022-09-11T12:02:32Z</time>
      </trkpt>
      <trkpt lat="46.50341" lon="0.39332">
        <ele>121.6</ele>
        <time>2022-09-11T12:02:37Z</time>
      </trkpt>
      <trkpt lat="46.50339" lon="0.39329">
        <ele>121.8</ele>
        <time>2022-09-11T12:02:38Z</time>
      </trkpt>
      <trkpt lat="46.50329" lon="0.39315">
        <ele>122.8</ele>
        <time>2022-09-11T12:02:43Z</time>
      </trkpt>
      <trkpt lat="46.50324" lon="0.39306">
        <ele>123.6</ele>
        <time>2022-09-11T12:02:46Z</time>
      </trkpt>
      <trkpt lat="46.50321" lon="0.393">
        <ele>124</ele>
        <time>2022-09-11T12:02:48Z</time>
      </trkpt>
      <trkpt lat="46.50312" lon="0.39281">
        <ele>125</ele>
        <time>2022-09-11T12:02:53Z</time>
      </trkpt>
      <trkpt lat="46.50304" lon="0.39251">
        <ele>125.8</ele>
        <time>2022-09-11T12:03:00Z</time>
      </trkpt>
      <trkpt lat="46.50302" lon="0.39238">
        <ele>126</ele>
        <time>2022-09-11T12:03:03Z</time>
      </trkpt>
      <trkpt lat="46.50302" lon="0.39227">
        <ele>126.2</ele>
        <time>2022-09-11T12:03:06Z</time>
      </trkpt>
      <trkpt lat="46.50301" lon="0.39208">
        <ele>127.2</ele>
        <time>2022-09-11T12:03:11Z</time>
      </trkpt>
      <trkpt lat="46.50301" lon="0.39201">
        <ele>127.6</ele>
        <time>2022-09-11T12:03:13Z</time>
      </trkpt>
      <trkpt lat="46.50302" lon="0.3919">
        <ele>128.2</ele>
        <time>2022-09-11T12:03:16Z</time>
      </trkpt>
      <trkpt lat="46.50302" lon="0.3918">
        <ele>128.8</ele>
        <time>2022-09-11T12:03:19Z</time>
      </trkpt>
      <trkpt lat="46.50302" lon="0.39177">
        <ele>129</ele>
        <time>2022-09-11T12:03:20Z</time>
      </trkpt>
      <trkpt lat="46.50301" lon="0.39167">
        <ele>129.4</ele>
        <time>2022-09-11T12:03:23Z</time>
      </trkpt>
      <trkpt lat="46.503" lon="0.39144">
        <ele>130.2</ele>
        <time>2022-09-11T12:03:28Z</time>
      </trkpt>
      <trkpt lat="46.503" lon="0.39131">
        <ele>130.6</ele>
        <time>2022-09-11T12:03:31Z</time>
      </trkpt>
      <trkpt lat="46.503" lon="0.39121">
        <ele>131</ele>
        <time>2022-09-11T12:03:34Z</time>
      </trkpt>
      <trkpt lat="46.503" lon="0.39106">
        <ele>131.8</ele>
        <time>2022-09-11T12:03:38Z</time>
      </trkpt>
      <trkpt lat="46.50299" lon="0.39093">
        <ele>132.2</ele>
        <time>2022-09-11T12:03:41Z</time>
      </trkpt>
      <trkpt lat="46.50297" lon="0.39077">
        <ele>133</ele>
        <time>2022-09-11T12:03:46Z</time>
      </trkpt>
      <trkpt lat="46.50297" lon="0.39073">
        <ele>133</ele>
        <time>2022-09-11T12:03:47Z</time>
      </trkpt>
      <trkpt lat="46.50293" lon="0.39046">
        <ele>134</ele>
        <time>2022-09-11T12:03:54Z</time>
      </trkpt>
      <trkpt lat="46.50293" lon="0.39042">
        <ele>134.2</ele>
        <time>2022-09-11T12:03:55Z</time>
      </trkpt>
      <trkpt lat="46.5029" lon="0.39013">
        <ele>134.8</ele>
        <time>2022-09-11T12:04:02Z</time>
      </trkpt>
      <trkpt lat="46.50288" lon="0.38996">
        <ele>135</ele>
        <time>2022-09-11T12:04:06Z</time>
      </trkpt>
      <trkpt lat="46.50287" lon="0.38983">
        <ele>135.2</ele>
        <time>2022-09-11T12:04:09Z</time>
      </trkpt>
      <trkpt lat="46.50288" lon="0.38947">
        <ele>136.2</ele>
        <time>2022-09-11T12:04:17Z</time>
      </trkpt>
      <trkpt lat="46.5029" lon="0.38917">
        <ele>137</ele>
        <time>2022-09-11T12:04:23Z</time>
      </trkpt>
      <trkpt lat="46.50291" lon="0.38912">
        <ele>137.2</ele>
        <time>2022-09-11T12:04:24Z</time>
      </trkpt>
      <trkpt lat="46.50297" lon="0.38889">
        <ele>137.8</ele>
        <time>2022-09-11T12:04:29Z</time>
      </trkpt>
      <trkpt lat="46.503" lon="0.38878">
        <ele>138.2</ele>
        <time>2022-09-11T12:04:32Z</time>
      </trkpt>
      <trkpt lat="46.50299" lon="0.3887">
        <ele>138.4</ele>
        <time>2022-09-11T12:04:34Z</time>
      </trkpt>
      <trkpt lat="46.50297" lon="0.38852">
        <ele>138.8</ele>
        <time>2022-09-11T12:04:38Z</time>
      </trkpt>
      <trkpt lat="46.50297" lon="0.38838">
        <ele>139</ele>
        <time>2022-09-11T12:04:41Z</time>
      </trkpt>
      <trkpt lat="46.50296" lon="0.38826">
        <ele>139.4</ele>
        <time>2022-09-11T12:04:43Z</time>
      </trkpt>
      <trkpt lat="46.50295" lon="0.3881">
        <ele>139.8</ele>
        <time>2022-09-11T12:04:46Z</time>
      </trkpt>
      <trkpt lat="46.50293" lon="0.38798">
        <ele>140</ele>
        <time>2022-09-11T12:04:48Z</time>
      </trkpt>
      <trkpt lat="46.50296" lon="0.38786">
        <ele>139.8</ele>
        <time>2022-09-11T12:04:50Z</time>
      </trkpt>
      <trkpt lat="46.50297" lon="0.3878">
        <ele>140</ele>
        <time>2022-09-11T12:04:51Z</time>
      </trkpt>
      <trkpt lat="46.503" lon="0.38771">
        <ele>140</ele>
        <time>2022-09-11T12:04:53Z</time>
      </trkpt>
      <trkpt lat="46.50306" lon="0.38749">
        <ele>140.2</ele>
        <time>2022-09-11T12:04:57Z</time>
      </trkpt>
      <trkpt lat="46.50311" lon="0.38729">
        <ele>140.6</ele>
        <time>2022-09-11T12:05:01Z</time>
      </trkpt>
      <trkpt lat="46.50315" lon="0.38714">
        <ele>140.8</ele>
        <time>2022-09-11T12:05:04Z</time>
      </trkpt>
      <trkpt lat="46.50318" lon="0.38705">
        <ele>141</ele>
        <time>2022-09-11T12:05:06Z</time>
      </trkpt>
      <trkpt lat="46.50326" lon="0.38682">
        <ele>141.4</ele>
        <time>2022-09-11T12:05:10Z</time>
      </trkpt>
      <trkpt lat="46.50328" lon="0.38667">
        <ele>141.6</ele>
        <time>2022-09-11T12:05:12Z</time>
      </trkpt>
      <trkpt lat="46.50332" lon="0.38647">
        <ele>142</ele>
        <time>2022-09-11T12:05:15Z</time>
      </trkpt>
      <trkpt lat="46.50335" lon="0.3864">
        <ele>142</ele>
        <time>2022-09-11T12:05:16Z</time>
      </trkpt>
      <trkpt lat="46.50338" lon="0.38633">
        <ele>142</ele>
        <time>2022-09-11T12:05:17Z</time>
      </trkpt>
      <trkpt lat="46.50341" lon="0.38617">
        <ele>142</ele>
        <time>2022-09-11T12:05:19Z</time>
      </trkpt>
      <trkpt lat="46.50344" lon="0.38601">
        <ele>142.2</ele>
        <time>2022-09-11T12:05:21Z</time>
      </trkpt>
      <trkpt lat="46.50344" lon="0.38586">
        <ele>142</ele>
        <time>2022-09-11T12:05:23Z</time>
      </trkpt>
      <trkpt lat="46.50344" lon="0.38563">
        <ele>142.2</ele>
        <time>2022-09-11T12:05:26Z</time>
      </trkpt>
      <trkpt lat="46.50343" lon="0.38536">
        <ele>142.4</ele>
        <time>2022-09-11T12:05:30Z</time>
      </trkpt>
      <trkpt lat="46.50343" lon="0.38529">
        <ele>142.4</ele>
        <time>2022-09-11T12:05:31Z</time>
      </trkpt>
      <trkpt lat="46.50339" lon="0.38506">
        <ele>142.8</ele>
        <time>2022-09-11T12:05:35Z</time>
      </trkpt>
      <trkpt lat="46.50332" lon="0.38466">
        <ele>143.8</ele>
        <time>2022-09-11T12:05:42Z</time>
      </trkpt>
      <trkpt lat="46.50329" lon="0.38431">
        <ele>144.2</ele>
        <time>2022-09-11T12:05:48Z</time>
      </trkpt>
      <trkpt lat="46.50326" lon="0.38397">
        <ele>144.8</ele>
        <time>2022-09-11T12:05:54Z</time>
      </trkpt>
      <trkpt lat="46.50326" lon="0.38392">
        <ele>145</ele>
        <time>2022-09-11T12:05:55Z</time>
      </trkpt>
      <trkpt lat="46.5033" lon="0.38364">
        <ele>145.8</ele>
        <time>2022-09-11T12:06:00Z</time>
      </trkpt>
      <trkpt lat="46.50331" lon="0.38357">
        <ele>146</ele>
        <time>2022-09-11T12:06:01Z</time>
      </trkpt>
      <trkpt lat="46.50331" lon="0.38344">
        <ele>146.2</ele>
        <time>2022-09-11T12:06:03Z</time>
      </trkpt>
      <trkpt lat="46.50322" lon="0.38317">
        <ele>146.8</ele>
        <time>2022-09-11T12:06:08Z</time>
      </trkpt>
      <trkpt lat="46.50307" lon="0.38296">
        <ele>147.2</ele>
        <time>2022-09-11T12:06:13Z</time>
      </trkpt>
      <trkpt lat="46.50301" lon="0.38288">
        <ele>147.2</ele>
        <time>2022-09-11T12:06:15Z</time>
      </trkpt>
      <trkpt lat="46.50284" lon="0.38268">
        <ele>147.2</ele>
        <time>2022-09-11T12:06:20Z</time>
      </trkpt>
      <trkpt lat="46.50282" lon="0.38263">
        <ele>147.4</ele>
        <time>2022-09-11T12:06:21Z</time>
      </trkpt>
      <trkpt lat="46.50266" lon="0.38229">
        <ele>148.2</ele>
        <time>2022-09-11T12:06:28Z</time>
      </trkpt>
      <trkpt lat="46.5026" lon="0.38216">
        <ele>148.2</ele>
        <time>2022-09-11T12:06:31Z</time>
      </trkpt>
      <trkpt lat="46.50253" lon="0.38208">
        <ele>148.4</ele>
        <time>2022-09-11T12:06:33Z</time>
      </trkpt>
      <trkpt lat="46.5025" lon="0.38205">
        <ele>148.6</ele>
        <time>2022-09-11T12:06:34Z</time>
      </trkpt>
      <trkpt lat="46.50232" lon="0.38185">
        <ele>148.8</ele>
        <time>2022-09-11T12:06:39Z</time>
      </trkpt>
      <trkpt lat="46.50231" lon="0.38176">
        <ele>149</ele>
        <time>2022-09-11T12:06:41Z</time>
      </trkpt>
      <trkpt lat="46.50232" lon="0.38173">
        <ele>149</ele>
        <time>2022-09-11T12:06:42Z</time>
      </trkpt>
      <trkpt lat="46.50235" lon="0.38167">
        <ele>149.2</ele>
        <time>2022-09-11T12:06:44Z</time>
      </trkpt>
      <trkpt lat="46.5024" lon="0.38157">
        <ele>149.4</ele>
        <time>2022-09-11T12:06:47Z</time>
      </trkpt>
      <trkpt lat="46.5025" lon="0.38137">
        <ele>149.8</ele>
        <time>2022-09-11T12:06:52Z</time>
      </trkpt>
      <trkpt lat="46.50255" lon="0.38133">
        <ele>149.6</ele>
        <time>2022-09-11T12:06:54Z</time>
      </trkpt>
      <trkpt lat="46.50261" lon="0.38131">
        <ele>150</ele>
        <time>2022-09-11T12:06:56Z</time>
      </trkpt>
      <trkpt lat="46.50273" lon="0.38128">
        <ele>150.2</ele>
        <time>2022-09-11T12:06:59Z</time>
      </trkpt>
      <trkpt lat="46.50282" lon="0.38128">
        <ele>150.4</ele>
        <time>2022-09-11T12:07:01Z</time>
      </trkpt>
      <trkpt lat="46.50291" lon="0.38127">
        <ele>150.6</ele>
        <time>2022-09-11T12:07:03Z</time>
      </trkpt>
      <trkpt lat="46.50297" lon="0.38124">
        <ele>150.8</ele>
        <time>2022-09-11T12:07:05Z</time>
      </trkpt>
      <trkpt lat="46.50303" lon="0.38118">
        <ele>150.8</ele>
        <time>2022-09-11T12:07:07Z</time>
      </trkpt>
      <trkpt lat="46.5031" lon="0.38109">
        <ele>150.6</ele>
        <time>2022-09-11T12:07:10Z</time>
      </trkpt>
      <trkpt lat="46.50313" lon="0.38106">
        <ele>150.4</ele>
        <time>2022-09-11T12:07:11Z</time>
      </trkpt>
      <trkpt lat="46.50323" lon="0.38097">
        <ele>150.4</ele>
        <time>2022-09-11T12:07:14Z</time>
      </trkpt>
      <trkpt lat="46.50328" lon="0.3809">
        <ele>150</ele>
        <time>2022-09-11T12:07:16Z</time>
      </trkpt>
      <trkpt lat="46.50338" lon="0.38078">
        <ele>150</ele>
        <time>2022-09-11T12:07:19Z</time>
      </trkpt>
      <trkpt lat="46.50345" lon="0.38069">
        <ele>150</ele>
        <time>2022-09-11T12:07:21Z</time>
      </trkpt>
      <trkpt lat="46.5035" lon="0.38064">
        <ele>150</ele>
        <time>2022-09-11T12:07:22Z</time>
      </trkpt>
      <trkpt lat="46.50357" lon="0.38055">
        <ele>149.8</ele>
        <time>2022-09-11T12:07:24Z</time>
      </trkpt>
      <trkpt lat="46.50359" lon="0.38045">
        <ele>149.8</ele>
        <time>2022-09-11T12:07:26Z</time>
      </trkpt>
      <trkpt lat="46.50353" lon="0.38033">
        <ele>149.8</ele>
        <time>2022-09-11T12:07:29Z</time>
      </trkpt>
      <trkpt lat="46.50353" lon="0.38026">
        <ele>150</ele>
        <time>2022-09-11T12:07:30Z</time>
      </trkpt>
      <trkpt lat="46.50341" lon="0.38006">
        <ele>150.4</ele>
        <time>2022-09-11T12:07:34Z</time>
      </trkpt>
      <trkpt lat="46.50312" lon="0.37975">
        <ele>150.6</ele>
        <time>2022-09-11T12:07:41Z</time>
      </trkpt>
      <trkpt lat="46.50303" lon="0.37968">
        <ele>150.8</ele>
        <time>2022-09-11T12:07:43Z</time>
      </trkpt>
      <trkpt lat="46.50288" lon="0.37953">
        <ele>150.6</ele>
        <time>2022-09-11T12:07:47Z</time>
      </trkpt>
      <trkpt lat="46.50261" lon="0.37929">
        <ele>150.4</ele>
        <time>2022-09-11T12:07:54Z</time>
      </trkpt>
      <trkpt lat="46.50219" lon="0.37894">
        <ele>150.6</ele>
        <time>2022-09-11T12:08:03Z</time>
      </trkpt>
      <trkpt lat="46.50191" lon="0.37873">
        <ele>150.8</ele>
        <time>2022-09-11T12:08:09Z</time>
      </trkpt>
      <trkpt lat="46.50165" lon="0.37853">
        <ele>151.2</ele>
        <time>2022-09-11T12:08:15Z</time>
      </trkpt>
      <trkpt lat="46.50159" lon="0.37848">
        <ele>151.2</ele>
        <time>2022-09-11T12:08:17Z</time>
      </trkpt>
      <trkpt lat="46.50154" lon="0.37843">
        <ele>151.4</ele>
        <time>2022-09-11T12:08:19Z</time>
      </trkpt>
      <trkpt lat="46.50153" lon="0.3784">
        <ele>151.4</ele>
        <time>2022-09-11T12:08:20Z</time>
      </trkpt>
      <trkpt lat="46.50155" lon="0.37832">
        <ele>151.4</ele>
        <time>2022-09-11T12:08:22Z</time>
      </trkpt>
      <trkpt lat="46.50157" lon="0.37828">
        <ele>151.4</ele>
        <time>2022-09-11T12:08:23Z</time>
      </trkpt>
      <trkpt lat="46.50162" lon="0.37819">
        <ele>151.6</ele>
        <time>2022-09-11T12:08:25Z</time>
      </trkpt>
      <trkpt lat="46.50171" lon="0.37807">
        <ele>151.8</ele>
        <time>2022-09-11T12:08:28Z</time>
      </trkpt>
      <trkpt lat="46.50183" lon="0.37791">
        <ele>151.4</ele>
        <time>2022-09-11T12:08:32Z</time>
      </trkpt>
      <trkpt lat="46.5019" lon="0.37783">
        <ele>151.4</ele>
        <time>2022-09-11T12:08:34Z</time>
      </trkpt>
      <trkpt lat="46.50211" lon="0.37754">
        <ele>150.4</ele>
        <time>2022-09-11T12:08:40Z</time>
      </trkpt>
      <trkpt lat="46.50225" lon="0.37734">
        <ele>150.6</ele>
        <time>2022-09-11T12:08:44Z</time>
      </trkpt>
      <trkpt lat="46.50228" lon="0.37729">
        <ele>150.6</ele>
        <time>2022-09-11T12:08:45Z</time>
      </trkpt>
      <trkpt lat="46.50242" lon="0.37714">
        <ele>150.4</ele>
        <time>2022-09-11T12:08:48Z</time>
      </trkpt>
      <trkpt lat="46.50246" lon="0.37709">
        <ele>150.2</ele>
        <time>2022-09-11T12:08:49Z</time>
      </trkpt>
      <trkpt lat="46.50255" lon="0.37699">
        <ele>150</ele>
        <time>2022-09-11T12:08:51Z</time>
      </trkpt>
      <trkpt lat="46.50276" lon="0.37674">
        <ele>149.8</ele>
        <time>2022-09-11T12:08:56Z</time>
      </trkpt>
      <trkpt lat="46.5028" lon="0.37669">
        <ele>149.4</ele>
        <time>2022-09-11T12:08:57Z</time>
      </trkpt>
      <trkpt lat="46.50295" lon="0.37651">
        <ele>149</ele>
        <time>2022-09-11T12:09:00Z</time>
      </trkpt>
      <trkpt lat="46.50304" lon="0.37639">
        <ele>149.2</ele>
        <time>2022-09-11T12:09:02Z</time>
      </trkpt>
      <trkpt lat="46.50325" lon="0.37608">
        <ele>148.2</ele>
        <time>2022-09-11T12:09:07Z</time>
      </trkpt>
      <trkpt lat="46.50338" lon="0.37586">
        <ele>147.8</ele>
        <time>2022-09-11T12:09:10Z</time>
      </trkpt>
      <trkpt lat="46.5035" lon="0.37561">
        <ele>146.4</ele>
        <time>2022-09-11T12:09:13Z</time>
      </trkpt>
      <trkpt lat="46.50354" lon="0.37553">
        <ele>146</ele>
        <time>2022-09-11T12:09:14Z</time>
      </trkpt>
      <trkpt lat="46.50361" lon="0.37535">
        <ele>145</ele>
        <time>2022-09-11T12:09:16Z</time>
      </trkpt>
      <trkpt lat="46.50364" lon="0.37527">
        <ele>144.8</ele>
        <time>2022-09-11T12:09:17Z</time>
      </trkpt>
      <trkpt lat="46.5037" lon="0.37513">
        <ele>144.6</ele>
        <time>2022-09-11T12:09:19Z</time>
      </trkpt>
      <trkpt lat="46.50374" lon="0.37503">
        <ele>144.6</ele>
        <time>2022-09-11T12:09:21Z</time>
      </trkpt>
      <trkpt lat="46.5038" lon="0.37489">
        <ele>145.2</ele>
        <time>2022-09-11T12:09:24Z</time>
      </trkpt>
      <trkpt lat="46.50385" lon="0.37476">
        <ele>146.2</ele>
        <time>2022-09-11T12:09:27Z</time>
      </trkpt>
      <trkpt lat="46.50391" lon="0.3746">
        <ele>146.8</ele>
        <time>2022-09-11T12:09:30Z</time>
      </trkpt>
      <trkpt lat="46.50394" lon="0.3745">
        <ele>147.4</ele>
        <time>2022-09-11T12:09:32Z</time>
      </trkpt>
      <trkpt lat="46.50397" lon="0.37438">
        <ele>147.6</ele>
        <time>2022-09-11T12:09:34Z</time>
      </trkpt>
      <trkpt lat="46.50401" lon="0.37423">
        <ele>148</ele>
        <time>2022-09-11T12:09:37Z</time>
      </trkpt>
      <trkpt lat="46.50402" lon="0.37418">
        <ele>148</ele>
        <time>2022-09-11T12:09:38Z</time>
      </trkpt>
      <trkpt lat="46.50406" lon="0.37399">
        <ele>148.2</ele>
        <time>2022-09-11T12:09:41Z</time>
      </trkpt>
      <trkpt lat="46.50409" lon="0.37387">
        <ele>148.4</ele>
        <time>2022-09-11T12:09:43Z</time>
      </trkpt>
      <trkpt lat="46.50411" lon="0.37381">
        <ele>148.4</ele>
        <time>2022-09-11T12:09:44Z</time>
      </trkpt>
      <trkpt lat="46.50413" lon="0.37368">
        <ele>148.6</ele>
        <time>2022-09-11T12:09:46Z</time>
      </trkpt>
      <trkpt lat="46.50424" lon="0.37338">
        <ele>148.6</ele>
        <time>2022-09-11T12:09:51Z</time>
      </trkpt>
      <trkpt lat="46.50439" lon="0.373">
        <ele>148.6</ele>
        <time>2022-09-11T12:09:56Z</time>
      </trkpt>
      <trkpt lat="46.50441" lon="0.37292">
        <ele>148.6</ele>
        <time>2022-09-11T12:09:57Z</time>
      </trkpt>
      <trkpt lat="46.50444" lon="0.37277">
        <ele>148.4</ele>
        <time>2022-09-11T12:09:59Z</time>
      </trkpt>
      <trkpt lat="46.50453" lon="0.37251">
        <ele>148.2</ele>
        <time>2022-09-11T12:10:02Z</time>
      </trkpt>
      <trkpt lat="46.50469" lon="0.37215">
        <ele>147.2</ele>
        <time>2022-09-11T12:10:06Z</time>
      </trkpt>
      <trkpt lat="46.50476" lon="0.37199">
        <ele>146.6</ele>
        <time>2022-09-11T12:10:08Z</time>
      </trkpt>
      <trkpt lat="46.50483" lon="0.37181">
        <ele>146</ele>
        <time>2022-09-11T12:10:10Z</time>
      </trkpt>
      <trkpt lat="46.50493" lon="0.37154">
        <ele>145.4</ele>
        <time>2022-09-11T12:10:13Z</time>
      </trkpt>
      <trkpt lat="46.50505" lon="0.37117">
        <ele>146</ele>
        <time>2022-09-11T12:10:18Z</time>
      </trkpt>
      <trkpt lat="46.5052" lon="0.37075">
        <ele>146.4</ele>
        <time>2022-09-11T12:10:24Z</time>
      </trkpt>
      <trkpt lat="46.50522" lon="0.37069">
        <ele>146.4</ele>
        <time>2022-09-11T12:10:25Z</time>
      </trkpt>
      <trkpt lat="46.50528" lon="0.37057">
        <ele>147.2</ele>
        <time>2022-09-11T12:10:27Z</time>
      </trkpt>
      <trkpt lat="46.50537" lon="0.37039">
        <ele>148</ele>
        <time>2022-09-11T12:10:30Z</time>
      </trkpt>
      <trkpt lat="46.50541" lon="0.37033">
        <ele>148.6</ele>
        <time>2022-09-11T12:10:31Z</time>
      </trkpt>
      <trkpt lat="46.50547" lon="0.3702">
        <ele>150</ele>
        <time>2022-09-11T12:10:33Z</time>
      </trkpt>
      <trkpt lat="46.50551" lon="0.37007">
        <ele>150.6</ele>
        <time>2022-09-11T12:10:35Z</time>
      </trkpt>
      <trkpt lat="46.50555" lon="0.36995">
        <ele>151</ele>
        <time>2022-09-11T12:10:37Z</time>
      </trkpt>
      <trkpt lat="46.5056" lon="0.36979">
        <ele>151.2</ele>
        <time>2022-09-11T12:10:40Z</time>
      </trkpt>
      <trkpt lat="46.50571" lon="0.36964">
        <ele>151.2</ele>
        <time>2022-09-11T12:10:45Z</time>
      </trkpt>
      <trkpt lat="46.50584" lon="0.36941">
        <ele>151.2</ele>
        <time>2022-09-11T12:10:52Z</time>
      </trkpt>
      <trkpt lat="46.50591" lon="0.36924">
        <ele>151.6</ele>
        <time>2022-09-11T12:10:57Z</time>
      </trkpt>
      <trkpt lat="46.50596" lon="0.3693">
        <ele>151.8</ele>
        <time>2022-09-11T12:11:00Z</time>
      </trkpt>
      <trkpt lat="46.50596" lon="0.36935">
        <ele>151.8</ele>
        <time>2022-09-11T12:11:01Z</time>
      </trkpt>
      <trkpt lat="46.50598" lon="0.36951">
        <ele>152</ele>
        <time>2022-09-11T12:11:04Z</time>
      </trkpt>
      <trkpt lat="46.50598" lon="0.36955">
        <ele>152</ele>
        <time>2022-09-11T12:11:05Z</time>
      </trkpt>
      <trkpt lat="46.50596" lon="0.36959">
        <ele>152</ele>
        <time>2022-09-11T12:11:06Z</time>
      </trkpt>
      <trkpt lat="46.50593" lon="0.3696">
        <ele>152</ele>
        <time>2022-09-11T12:11:07Z</time>
      </trkpt>
      <trkpt lat="46.50588" lon="0.36955">
        <ele>151.6</ele>
        <time>2022-09-11T12:11:09Z</time>
      </trkpt>
      <trkpt lat="46.50588" lon="0.36945">
        <ele>151.4</ele>
        <time>2022-09-11T12:11:11Z</time>
      </trkpt>
      <trkpt lat="46.50589" lon="0.36939">
        <ele>151.4</ele>
        <time>2022-09-11T12:11:12Z</time>
      </trkpt>
      <trkpt lat="46.50593" lon="0.36927">
        <ele>151.4</ele>
        <time>2022-09-11T12:11:14Z</time>
      </trkpt>
      <trkpt lat="46.50599" lon="0.36921">
        <ele>151.4</ele>
        <time>2022-09-11T12:11:16Z</time>
      </trkpt>
      <trkpt lat="46.50608" lon="0.36916">
        <ele>151.4</ele>
        <time>2022-09-11T12:11:18Z</time>
      </trkpt>
      <trkpt lat="46.50614" lon="0.36907">
        <ele>151.4</ele>
        <time>2022-09-11T12:11:20Z</time>
      </trkpt>
      <trkpt lat="46.50614" lon="0.36896">
        <ele>151.4</ele>
        <time>2022-09-11T12:11:22Z</time>
      </trkpt>
      <trkpt lat="46.50612" lon="0.36891">
        <ele>151.4</ele>
        <time>2022-09-11T12:11:23Z</time>
      </trkpt>
      <trkpt lat="46.5061" lon="0.36886">
        <ele>151.4</ele>
        <time>2022-09-11T12:11:24Z</time>
      </trkpt>
      <trkpt lat="46.50611" lon="0.36876">
        <ele>151.4</ele>
        <time>2022-09-11T12:11:26Z</time>
      </trkpt>
      <trkpt lat="46.50616" lon="0.36854">
        <ele>151.4</ele>
        <time>2022-09-11T12:11:30Z</time>
      </trkpt>
      <trkpt lat="46.50621" lon="0.36844">
        <ele>151.2</ele>
        <time>2022-09-11T12:11:32Z</time>
      </trkpt>
      <trkpt lat="46.50624" lon="0.36838">
        <ele>151</ele>
        <time>2022-09-11T12:11:33Z</time>
      </trkpt>
      <trkpt lat="46.50626" lon="0.36833">
        <ele>150.6</ele>
        <time>2022-09-11T12:11:34Z</time>
      </trkpt>
      <trkpt lat="46.50633" lon="0.36827">
        <ele>150.2</ele>
        <time>2022-09-11T12:11:36Z</time>
      </trkpt>
      <trkpt lat="46.50641" lon="0.36825">
        <ele>150</ele>
        <time>2022-09-11T12:11:38Z</time>
      </trkpt>
      <trkpt lat="46.50644" lon="0.36824">
        <ele>150</ele>
        <time>2022-09-11T12:11:40Z</time>
      </trkpt>
      <trkpt lat="46.50645" lon="0.36823">
        <ele>150</ele>
        <time>2022-09-11T12:11:41Z</time>
      </trkpt>
    </trkseg>
  </trk>
</gpx>